<?xml version="1.0" encoding="UTF-8" standalone="no" ?>
<gpx xmlns="http://www.topografix.com/GPX/1/1" xmlns:xsi="http://www.w3.org/2001/XMLSchema-instance" xsi:schemaLocation="http://www.topografix.com/GPX/1/1 http://www.topografix.com/GPX/1/1/gpx.xsd" version="1.1" creator="VisuGPX - https://www.visugpx.com">
  <metadata>
    <name>Talarn VTT électrique</name>
  </metadata>
  <trk>
    <name><![CDATA[Talarn VTT électrique_1]]></name>
    <trkseg>
      <trkpt lat="42.16782" lon="0.89546">
        <ele>474</ele>
        <time>2023-07-23T06:42:39Z</time>
      </trkpt>
      <trkpt lat="42.16781" lon="0.89548">
        <ele>475.4</ele>
        <time>2023-07-23T06:42:40Z</time>
      </trkpt>
      <trkpt lat="42.1678" lon="0.8955">
        <ele>475.6</ele>
        <time>2023-07-23T06:42:41Z</time>
      </trkpt>
      <trkpt lat="42.1678" lon="0.89551">
        <ele>475.4</ele>
        <time>2023-07-23T06:42:42Z</time>
      </trkpt>
      <trkpt lat="42.16779" lon="0.89553">
        <ele>475.6</ele>
        <time>2023-07-23T06:42:43Z</time>
      </trkpt>
      <trkpt lat="42.16779" lon="0.89554">
        <ele>475.4</ele>
        <time>2023-07-23T06:42:44Z</time>
      </trkpt>
      <trkpt lat="42.16779" lon="0.89555">
        <ele>475.4</ele>
        <time>2023-07-23T06:42:45Z</time>
      </trkpt>
      <trkpt lat="42.16779" lon="0.89556">
        <ele>475.4</ele>
        <time>2023-07-23T06:42:46Z</time>
      </trkpt>
      <trkpt lat="42.16783" lon="0.89553">
        <ele>475.4</ele>
        <time>2023-07-23T06:42:58Z</time>
      </trkpt>
      <trkpt lat="42.16784" lon="0.89551">
        <ele>475.4</ele>
        <time>2023-07-23T06:42:59Z</time>
      </trkpt>
      <trkpt lat="42.16785" lon="0.89549">
        <ele>475.4</ele>
        <time>2023-07-23T06:43:00Z</time>
      </trkpt>
      <trkpt lat="42.16786" lon="0.89547">
        <ele>475.4</ele>
        <time>2023-07-23T06:43:01Z</time>
      </trkpt>
      <trkpt lat="42.16786" lon="0.89545">
        <ele>475.4</ele>
        <time>2023-07-23T06:43:02Z</time>
      </trkpt>
      <trkpt lat="42.16787" lon="0.89543">
        <ele>475.4</ele>
        <time>2023-07-23T06:43:03Z</time>
      </trkpt>
      <trkpt lat="42.16787" lon="0.8954">
        <ele>475.4</ele>
        <time>2023-07-23T06:43:04Z</time>
      </trkpt>
      <trkpt lat="42.16788" lon="0.89538">
        <ele>475.4</ele>
        <time>2023-07-23T06:43:05Z</time>
      </trkpt>
      <trkpt lat="42.16789" lon="0.89535">
        <ele>475.6</ele>
        <time>2023-07-23T06:43:06Z</time>
      </trkpt>
      <trkpt lat="42.1679" lon="0.89532">
        <ele>475.6</ele>
        <time>2023-07-23T06:43:07Z</time>
      </trkpt>
      <trkpt lat="42.1679" lon="0.89529">
        <ele>475.8</ele>
        <time>2023-07-23T06:43:08Z</time>
      </trkpt>
      <trkpt lat="42.16791" lon="0.89526">
        <ele>475.8</ele>
        <time>2023-07-23T06:43:09Z</time>
      </trkpt>
      <trkpt lat="42.16792" lon="0.89523">
        <ele>475.8</ele>
        <time>2023-07-23T06:43:10Z</time>
      </trkpt>
      <trkpt lat="42.16793" lon="0.89521">
        <ele>476</ele>
        <time>2023-07-23T06:43:11Z</time>
      </trkpt>
      <trkpt lat="42.16793" lon="0.89519">
        <ele>476</ele>
        <time>2023-07-23T06:43:12Z</time>
      </trkpt>
      <trkpt lat="42.16793" lon="0.89518">
        <ele>476</ele>
        <time>2023-07-23T06:43:13Z</time>
      </trkpt>
      <trkpt lat="42.16794" lon="0.89516">
        <ele>476</ele>
        <time>2023-07-23T06:43:14Z</time>
      </trkpt>
      <trkpt lat="42.16794" lon="0.89513">
        <ele>476.2</ele>
        <time>2023-07-23T06:43:15Z</time>
      </trkpt>
      <trkpt lat="42.16795" lon="0.89511">
        <ele>476.2</ele>
        <time>2023-07-23T06:43:16Z</time>
      </trkpt>
      <trkpt lat="42.16795" lon="0.89508">
        <ele>476.2</ele>
        <time>2023-07-23T06:43:17Z</time>
      </trkpt>
      <trkpt lat="42.16795" lon="0.89506">
        <ele>476.2</ele>
        <time>2023-07-23T06:43:18Z</time>
      </trkpt>
      <trkpt lat="42.16795" lon="0.89504">
        <ele>476.2</ele>
        <time>2023-07-23T06:43:19Z</time>
      </trkpt>
      <trkpt lat="42.16796" lon="0.89502">
        <ele>476.2</ele>
        <time>2023-07-23T06:43:20Z</time>
      </trkpt>
      <trkpt lat="42.16796" lon="0.895">
        <ele>476.2</ele>
        <time>2023-07-23T06:43:21Z</time>
      </trkpt>
      <trkpt lat="42.16796" lon="0.89497">
        <ele>476.4</ele>
        <time>2023-07-23T06:43:22Z</time>
      </trkpt>
      <trkpt lat="42.16795" lon="0.89494">
        <ele>476.4</ele>
        <time>2023-07-23T06:43:23Z</time>
      </trkpt>
      <trkpt lat="42.16795" lon="0.89491">
        <ele>476.4</ele>
        <time>2023-07-23T06:43:24Z</time>
      </trkpt>
      <trkpt lat="42.16794" lon="0.89488">
        <ele>476.6</ele>
        <time>2023-07-23T06:43:25Z</time>
      </trkpt>
      <trkpt lat="42.16794" lon="0.89485">
        <ele>476.6</ele>
        <time>2023-07-23T06:43:26Z</time>
      </trkpt>
      <trkpt lat="42.16794" lon="0.89482">
        <ele>476.8</ele>
        <time>2023-07-23T06:43:27Z</time>
      </trkpt>
      <trkpt lat="42.16794" lon="0.89477">
        <ele>476.8</ele>
        <time>2023-07-23T06:43:28Z</time>
      </trkpt>
      <trkpt lat="42.16795" lon="0.89473">
        <ele>477</ele>
        <time>2023-07-23T06:43:29Z</time>
      </trkpt>
      <trkpt lat="42.16795" lon="0.89469">
        <ele>477</ele>
        <time>2023-07-23T06:43:30Z</time>
      </trkpt>
      <trkpt lat="42.16796" lon="0.89466">
        <ele>477.2</ele>
        <time>2023-07-23T06:43:31Z</time>
      </trkpt>
      <trkpt lat="42.16796" lon="0.89464">
        <ele>477.2</ele>
        <time>2023-07-23T06:43:32Z</time>
      </trkpt>
      <trkpt lat="42.16797" lon="0.89459">
        <ele>477.4</ele>
        <time>2023-07-23T06:43:33Z</time>
      </trkpt>
      <trkpt lat="42.16797" lon="0.89456">
        <ele>477.4</ele>
        <time>2023-07-23T06:43:34Z</time>
      </trkpt>
      <trkpt lat="42.16798" lon="0.89453">
        <ele>477.4</ele>
        <time>2023-07-23T06:43:35Z</time>
      </trkpt>
      <trkpt lat="42.16798" lon="0.89449">
        <ele>477.4</ele>
        <time>2023-07-23T06:43:36Z</time>
      </trkpt>
      <trkpt lat="42.16797" lon="0.89446">
        <ele>477.6</ele>
        <time>2023-07-23T06:43:37Z</time>
      </trkpt>
      <trkpt lat="42.16796" lon="0.89443">
        <ele>477.6</ele>
        <time>2023-07-23T06:43:38Z</time>
      </trkpt>
      <trkpt lat="42.16795" lon="0.89441">
        <ele>477.8</ele>
        <time>2023-07-23T06:43:39Z</time>
      </trkpt>
      <trkpt lat="42.16793" lon="0.89438">
        <ele>477.8</ele>
        <time>2023-07-23T06:43:40Z</time>
      </trkpt>
      <trkpt lat="42.16791" lon="0.89436">
        <ele>477.8</ele>
        <time>2023-07-23T06:43:41Z</time>
      </trkpt>
      <trkpt lat="42.16789" lon="0.89435">
        <ele>477.8</ele>
        <time>2023-07-23T06:43:42Z</time>
      </trkpt>
      <trkpt lat="42.16787" lon="0.89433">
        <ele>477.8</ele>
        <time>2023-07-23T06:43:43Z</time>
      </trkpt>
      <trkpt lat="42.16784" lon="0.89431">
        <ele>477.8</ele>
        <time>2023-07-23T06:43:44Z</time>
      </trkpt>
      <trkpt lat="42.16782" lon="0.89429">
        <ele>477.8</ele>
        <time>2023-07-23T06:43:45Z</time>
      </trkpt>
      <trkpt lat="42.16779" lon="0.89427">
        <ele>477.8</ele>
        <time>2023-07-23T06:43:46Z</time>
      </trkpt>
      <trkpt lat="42.16777" lon="0.89425">
        <ele>477.8</ele>
        <time>2023-07-23T06:43:47Z</time>
      </trkpt>
      <trkpt lat="42.16775" lon="0.89423">
        <ele>477.8</ele>
        <time>2023-07-23T06:43:48Z</time>
      </trkpt>
      <trkpt lat="42.16773" lon="0.8942">
        <ele>477.8</ele>
        <time>2023-07-23T06:43:49Z</time>
      </trkpt>
      <trkpt lat="42.16771" lon="0.89417">
        <ele>477.8</ele>
        <time>2023-07-23T06:43:50Z</time>
      </trkpt>
      <trkpt lat="42.16769" lon="0.89414">
        <ele>477.8</ele>
        <time>2023-07-23T06:43:51Z</time>
      </trkpt>
      <trkpt lat="42.16767" lon="0.8941">
        <ele>477.8</ele>
        <time>2023-07-23T06:43:52Z</time>
      </trkpt>
      <trkpt lat="42.16764" lon="0.89407">
        <ele>477.8</ele>
        <time>2023-07-23T06:43:53Z</time>
      </trkpt>
      <trkpt lat="42.16763" lon="0.89405">
        <ele>478</ele>
        <time>2023-07-23T06:43:54Z</time>
      </trkpt>
      <trkpt lat="42.16761" lon="0.89402">
        <ele>478</ele>
        <time>2023-07-23T06:43:55Z</time>
      </trkpt>
      <trkpt lat="42.16759" lon="0.89399">
        <ele>478</ele>
        <time>2023-07-23T06:43:56Z</time>
      </trkpt>
      <trkpt lat="42.16757" lon="0.89395">
        <ele>478</ele>
        <time>2023-07-23T06:43:57Z</time>
      </trkpt>
      <trkpt lat="42.16755" lon="0.89392">
        <ele>478</ele>
        <time>2023-07-23T06:43:58Z</time>
      </trkpt>
      <trkpt lat="42.16753" lon="0.89389">
        <ele>478</ele>
        <time>2023-07-23T06:43:59Z</time>
      </trkpt>
      <trkpt lat="42.16752" lon="0.89386">
        <ele>478.2</ele>
        <time>2023-07-23T06:44:00Z</time>
      </trkpt>
      <trkpt lat="42.16751" lon="0.89382">
        <ele>478.2</ele>
        <time>2023-07-23T06:44:01Z</time>
      </trkpt>
      <trkpt lat="42.1675" lon="0.89378">
        <ele>478.2</ele>
        <time>2023-07-23T06:44:02Z</time>
      </trkpt>
      <trkpt lat="42.16749" lon="0.89374">
        <ele>478.2</ele>
        <time>2023-07-23T06:44:03Z</time>
      </trkpt>
      <trkpt lat="42.16748" lon="0.8937">
        <ele>478.2</ele>
        <time>2023-07-23T06:44:04Z</time>
      </trkpt>
      <trkpt lat="42.16748" lon="0.89366">
        <ele>478.2</ele>
        <time>2023-07-23T06:44:05Z</time>
      </trkpt>
      <trkpt lat="42.16748" lon="0.89362">
        <ele>478.2</ele>
        <time>2023-07-23T06:44:06Z</time>
      </trkpt>
      <trkpt lat="42.16748" lon="0.89358">
        <ele>478.2</ele>
        <time>2023-07-23T06:44:07Z</time>
      </trkpt>
      <trkpt lat="42.16747" lon="0.89354">
        <ele>478.2</ele>
        <time>2023-07-23T06:44:08Z</time>
      </trkpt>
      <trkpt lat="42.16746" lon="0.8935">
        <ele>478.2</ele>
        <time>2023-07-23T06:44:09Z</time>
      </trkpt>
      <trkpt lat="42.16745" lon="0.89347">
        <ele>478.2</ele>
        <time>2023-07-23T06:44:10Z</time>
      </trkpt>
      <trkpt lat="42.16744" lon="0.89345">
        <ele>478.2</ele>
        <time>2023-07-23T06:44:11Z</time>
      </trkpt>
      <trkpt lat="42.16744" lon="0.89343">
        <ele>478.2</ele>
        <time>2023-07-23T06:44:12Z</time>
      </trkpt>
      <trkpt lat="42.16744" lon="0.89341">
        <ele>478.2</ele>
        <time>2023-07-23T06:44:13Z</time>
      </trkpt>
      <trkpt lat="42.16744" lon="0.8934">
        <ele>478.2</ele>
        <time>2023-07-23T06:44:14Z</time>
      </trkpt>
      <trkpt lat="42.16743" lon="0.89336">
        <ele>478.2</ele>
        <time>2023-07-23T06:44:15Z</time>
      </trkpt>
      <trkpt lat="42.16741" lon="0.89333">
        <ele>478.2</ele>
        <time>2023-07-23T06:44:16Z</time>
      </trkpt>
      <trkpt lat="42.16739" lon="0.8933">
        <ele>478.2</ele>
        <time>2023-07-23T06:44:17Z</time>
      </trkpt>
      <trkpt lat="42.16738" lon="0.89327">
        <ele>478.2</ele>
        <time>2023-07-23T06:44:18Z</time>
      </trkpt>
      <trkpt lat="42.16738" lon="0.89322">
        <ele>478.2</ele>
        <time>2023-07-23T06:44:19Z</time>
      </trkpt>
      <trkpt lat="42.16736" lon="0.89317">
        <ele>478.2</ele>
        <time>2023-07-23T06:44:20Z</time>
      </trkpt>
      <trkpt lat="42.16734" lon="0.89312">
        <ele>478</ele>
        <time>2023-07-23T06:44:21Z</time>
      </trkpt>
      <trkpt lat="42.16733" lon="0.89307">
        <ele>478</ele>
        <time>2023-07-23T06:44:22Z</time>
      </trkpt>
      <trkpt lat="42.16733" lon="0.89302">
        <ele>478</ele>
        <time>2023-07-23T06:44:23Z</time>
      </trkpt>
      <trkpt lat="42.16731" lon="0.89297">
        <ele>478</ele>
        <time>2023-07-23T06:44:24Z</time>
      </trkpt>
      <trkpt lat="42.16729" lon="0.89292">
        <ele>478</ele>
        <time>2023-07-23T06:44:25Z</time>
      </trkpt>
      <trkpt lat="42.16726" lon="0.89286">
        <ele>478</ele>
        <time>2023-07-23T06:44:26Z</time>
      </trkpt>
      <trkpt lat="42.16724" lon="0.89281">
        <ele>478</ele>
        <time>2023-07-23T06:44:27Z</time>
      </trkpt>
      <trkpt lat="42.1672" lon="0.89276">
        <ele>477.8</ele>
        <time>2023-07-23T06:44:28Z</time>
      </trkpt>
      <trkpt lat="42.16717" lon="0.89271">
        <ele>477.8</ele>
        <time>2023-07-23T06:44:29Z</time>
      </trkpt>
      <trkpt lat="42.16713" lon="0.89266">
        <ele>477.8</ele>
        <time>2023-07-23T06:44:30Z</time>
      </trkpt>
      <trkpt lat="42.16711" lon="0.8926">
        <ele>477.6</ele>
        <time>2023-07-23T06:44:31Z</time>
      </trkpt>
      <trkpt lat="42.16708" lon="0.89255">
        <ele>477.4</ele>
        <time>2023-07-23T06:44:32Z</time>
      </trkpt>
      <trkpt lat="42.16704" lon="0.8925">
        <ele>477.2</ele>
        <time>2023-07-23T06:44:33Z</time>
      </trkpt>
      <trkpt lat="42.16699" lon="0.89243">
        <ele>477.2</ele>
        <time>2023-07-23T06:44:34Z</time>
      </trkpt>
      <trkpt lat="42.16695" lon="0.89238">
        <ele>477</ele>
        <time>2023-07-23T06:44:35Z</time>
      </trkpt>
      <trkpt lat="42.16691" lon="0.89232">
        <ele>476.8</ele>
        <time>2023-07-23T06:44:36Z</time>
      </trkpt>
      <trkpt lat="42.16688" lon="0.89227">
        <ele>476.8</ele>
        <time>2023-07-23T06:44:37Z</time>
      </trkpt>
      <trkpt lat="42.16685" lon="0.89223">
        <ele>476.8</ele>
        <time>2023-07-23T06:44:38Z</time>
      </trkpt>
      <trkpt lat="42.16682" lon="0.89218">
        <ele>476.6</ele>
        <time>2023-07-23T06:44:39Z</time>
      </trkpt>
      <trkpt lat="42.1668" lon="0.89213">
        <ele>476.4</ele>
        <time>2023-07-23T06:44:40Z</time>
      </trkpt>
      <trkpt lat="42.16676" lon="0.89209">
        <ele>476.2</ele>
        <time>2023-07-23T06:44:41Z</time>
      </trkpt>
      <trkpt lat="42.16674" lon="0.89204">
        <ele>476</ele>
        <time>2023-07-23T06:44:42Z</time>
      </trkpt>
      <trkpt lat="42.16671" lon="0.892">
        <ele>475.8</ele>
        <time>2023-07-23T06:44:43Z</time>
      </trkpt>
      <trkpt lat="42.16668" lon="0.89196">
        <ele>475.8</ele>
        <time>2023-07-23T06:44:44Z</time>
      </trkpt>
      <trkpt lat="42.16665" lon="0.89194">
        <ele>475.6</ele>
        <time>2023-07-23T06:44:45Z</time>
      </trkpt>
      <trkpt lat="42.16663" lon="0.89191">
        <ele>475.6</ele>
        <time>2023-07-23T06:44:46Z</time>
      </trkpt>
      <trkpt lat="42.16661" lon="0.89188">
        <ele>475.6</ele>
        <time>2023-07-23T06:44:47Z</time>
      </trkpt>
      <trkpt lat="42.16659" lon="0.89185">
        <ele>475.6</ele>
        <time>2023-07-23T06:44:48Z</time>
      </trkpt>
      <trkpt lat="42.16656" lon="0.89181">
        <ele>475.6</ele>
        <time>2023-07-23T06:44:49Z</time>
      </trkpt>
      <trkpt lat="42.16654" lon="0.89178">
        <ele>475.4</ele>
        <time>2023-07-23T06:44:50Z</time>
      </trkpt>
      <trkpt lat="42.16652" lon="0.89175">
        <ele>475.4</ele>
        <time>2023-07-23T06:44:51Z</time>
      </trkpt>
      <trkpt lat="42.16649" lon="0.89173">
        <ele>475.4</ele>
        <time>2023-07-23T06:44:52Z</time>
      </trkpt>
      <trkpt lat="42.16645" lon="0.89171">
        <ele>475.4</ele>
        <time>2023-07-23T06:44:53Z</time>
      </trkpt>
      <trkpt lat="42.16642" lon="0.89169">
        <ele>475.4</ele>
        <time>2023-07-23T06:44:54Z</time>
      </trkpt>
      <trkpt lat="42.16638" lon="0.89167">
        <ele>475.4</ele>
        <time>2023-07-23T06:44:55Z</time>
      </trkpt>
      <trkpt lat="42.16635" lon="0.89166">
        <ele>475.4</ele>
        <time>2023-07-23T06:44:56Z</time>
      </trkpt>
      <trkpt lat="42.16632" lon="0.89161">
        <ele>475.4</ele>
        <time>2023-07-23T06:44:57Z</time>
      </trkpt>
      <trkpt lat="42.16631" lon="0.89154">
        <ele>475.4</ele>
        <time>2023-07-23T06:44:58Z</time>
      </trkpt>
      <trkpt lat="42.1663" lon="0.89146">
        <ele>475.4</ele>
        <time>2023-07-23T06:44:59Z</time>
      </trkpt>
      <trkpt lat="42.16628" lon="0.8914">
        <ele>475.4</ele>
        <time>2023-07-23T06:45:00Z</time>
      </trkpt>
      <trkpt lat="42.16627" lon="0.89134">
        <ele>475.2</ele>
        <time>2023-07-23T06:45:01Z</time>
      </trkpt>
      <trkpt lat="42.16624" lon="0.89129">
        <ele>475.2</ele>
        <time>2023-07-23T06:45:02Z</time>
      </trkpt>
      <trkpt lat="42.16621" lon="0.89125">
        <ele>475.2</ele>
        <time>2023-07-23T06:45:03Z</time>
      </trkpt>
      <trkpt lat="42.16619" lon="0.89121">
        <ele>475</ele>
        <time>2023-07-23T06:45:04Z</time>
      </trkpt>
      <trkpt lat="42.16616" lon="0.89117">
        <ele>475</ele>
        <time>2023-07-23T06:45:05Z</time>
      </trkpt>
      <trkpt lat="42.16613" lon="0.89112">
        <ele>475</ele>
        <time>2023-07-23T06:45:06Z</time>
      </trkpt>
      <trkpt lat="42.1661" lon="0.89108">
        <ele>475</ele>
        <time>2023-07-23T06:45:07Z</time>
      </trkpt>
      <trkpt lat="42.16608" lon="0.89104">
        <ele>475</ele>
        <time>2023-07-23T06:45:08Z</time>
      </trkpt>
      <trkpt lat="42.16606" lon="0.89099">
        <ele>475</ele>
        <time>2023-07-23T06:45:09Z</time>
      </trkpt>
      <trkpt lat="42.16603" lon="0.89095">
        <ele>475</ele>
        <time>2023-07-23T06:45:10Z</time>
      </trkpt>
      <trkpt lat="42.16601" lon="0.89091">
        <ele>475</ele>
        <time>2023-07-23T06:45:11Z</time>
      </trkpt>
      <trkpt lat="42.16599" lon="0.89089">
        <ele>475</ele>
        <time>2023-07-23T06:45:12Z</time>
      </trkpt>
      <trkpt lat="42.16597" lon="0.89085">
        <ele>475</ele>
        <time>2023-07-23T06:45:13Z</time>
      </trkpt>
      <trkpt lat="42.16594" lon="0.89081">
        <ele>475</ele>
        <time>2023-07-23T06:45:14Z</time>
      </trkpt>
      <trkpt lat="42.16591" lon="0.89076">
        <ele>475</ele>
        <time>2023-07-23T06:45:15Z</time>
      </trkpt>
      <trkpt lat="42.16589" lon="0.89072">
        <ele>475</ele>
        <time>2023-07-23T06:45:16Z</time>
      </trkpt>
      <trkpt lat="42.16587" lon="0.89067">
        <ele>475</ele>
        <time>2023-07-23T06:45:17Z</time>
      </trkpt>
      <trkpt lat="42.16584" lon="0.89061">
        <ele>475</ele>
        <time>2023-07-23T06:45:18Z</time>
      </trkpt>
      <trkpt lat="42.16581" lon="0.89057">
        <ele>475</ele>
        <time>2023-07-23T06:45:19Z</time>
      </trkpt>
      <trkpt lat="42.16578" lon="0.89052">
        <ele>475</ele>
        <time>2023-07-23T06:45:20Z</time>
      </trkpt>
      <trkpt lat="42.16575" lon="0.89048">
        <ele>475</ele>
        <time>2023-07-23T06:45:21Z</time>
      </trkpt>
      <trkpt lat="42.16572" lon="0.89045">
        <ele>475.2</ele>
        <time>2023-07-23T06:45:22Z</time>
      </trkpt>
      <trkpt lat="42.16569" lon="0.89041">
        <ele>475.2</ele>
        <time>2023-07-23T06:45:23Z</time>
      </trkpt>
      <trkpt lat="42.16566" lon="0.89037">
        <ele>475.2</ele>
        <time>2023-07-23T06:45:24Z</time>
      </trkpt>
      <trkpt lat="42.16562" lon="0.89032">
        <ele>475.2</ele>
        <time>2023-07-23T06:45:25Z</time>
      </trkpt>
      <trkpt lat="42.1656" lon="0.89027">
        <ele>475.2</ele>
        <time>2023-07-23T06:45:26Z</time>
      </trkpt>
      <trkpt lat="42.16558" lon="0.8902">
        <ele>475.2</ele>
        <time>2023-07-23T06:45:27Z</time>
      </trkpt>
      <trkpt lat="42.16557" lon="0.89014">
        <ele>475.2</ele>
        <time>2023-07-23T06:45:28Z</time>
      </trkpt>
      <trkpt lat="42.16557" lon="0.89009">
        <ele>475.2</ele>
        <time>2023-07-23T06:45:29Z</time>
      </trkpt>
      <trkpt lat="42.16558" lon="0.89004">
        <ele>475.2</ele>
        <time>2023-07-23T06:45:30Z</time>
      </trkpt>
      <trkpt lat="42.1656" lon="0.88998">
        <ele>475.2</ele>
        <time>2023-07-23T06:45:31Z</time>
      </trkpt>
      <trkpt lat="42.16564" lon="0.88994">
        <ele>475.2</ele>
        <time>2023-07-23T06:45:32Z</time>
      </trkpt>
      <trkpt lat="42.16567" lon="0.8899">
        <ele>475.2</ele>
        <time>2023-07-23T06:45:33Z</time>
      </trkpt>
      <trkpt lat="42.1657" lon="0.88987">
        <ele>475.2</ele>
        <time>2023-07-23T06:45:34Z</time>
      </trkpt>
      <trkpt lat="42.16573" lon="0.88984">
        <ele>475</ele>
        <time>2023-07-23T06:45:35Z</time>
      </trkpt>
      <trkpt lat="42.16577" lon="0.8898">
        <ele>475</ele>
        <time>2023-07-23T06:45:36Z</time>
      </trkpt>
      <trkpt lat="42.1658" lon="0.88976">
        <ele>475</ele>
        <time>2023-07-23T06:45:37Z</time>
      </trkpt>
      <trkpt lat="42.16583" lon="0.88972">
        <ele>475</ele>
        <time>2023-07-23T06:45:38Z</time>
      </trkpt>
      <trkpt lat="42.16586" lon="0.88968">
        <ele>475</ele>
        <time>2023-07-23T06:45:39Z</time>
      </trkpt>
      <trkpt lat="42.16589" lon="0.88965">
        <ele>475</ele>
        <time>2023-07-23T06:45:40Z</time>
      </trkpt>
      <trkpt lat="42.16592" lon="0.88962">
        <ele>475</ele>
        <time>2023-07-23T06:45:41Z</time>
      </trkpt>
      <trkpt lat="42.16595" lon="0.88959">
        <ele>475</ele>
        <time>2023-07-23T06:45:42Z</time>
      </trkpt>
      <trkpt lat="42.16599" lon="0.88955">
        <ele>475</ele>
        <time>2023-07-23T06:45:43Z</time>
      </trkpt>
      <trkpt lat="42.16602" lon="0.88951">
        <ele>475</ele>
        <time>2023-07-23T06:45:44Z</time>
      </trkpt>
      <trkpt lat="42.16605" lon="0.88947">
        <ele>475</ele>
        <time>2023-07-23T06:45:45Z</time>
      </trkpt>
      <trkpt lat="42.16609" lon="0.88942">
        <ele>475</ele>
        <time>2023-07-23T06:45:46Z</time>
      </trkpt>
      <trkpt lat="42.16612" lon="0.88938">
        <ele>475</ele>
        <time>2023-07-23T06:45:47Z</time>
      </trkpt>
      <trkpt lat="42.16615" lon="0.88934">
        <ele>475</ele>
        <time>2023-07-23T06:45:48Z</time>
      </trkpt>
      <trkpt lat="42.16617" lon="0.88931">
        <ele>475</ele>
        <time>2023-07-23T06:45:49Z</time>
      </trkpt>
      <trkpt lat="42.1662" lon="0.88928">
        <ele>475</ele>
        <time>2023-07-23T06:45:50Z</time>
      </trkpt>
      <trkpt lat="42.16624" lon="0.88923">
        <ele>475</ele>
        <time>2023-07-23T06:45:51Z</time>
      </trkpt>
      <trkpt lat="42.16627" lon="0.8892">
        <ele>475</ele>
        <time>2023-07-23T06:45:52Z</time>
      </trkpt>
      <trkpt lat="42.16631" lon="0.88916">
        <ele>475</ele>
        <time>2023-07-23T06:45:53Z</time>
      </trkpt>
      <trkpt lat="42.16633" lon="0.88914">
        <ele>475</ele>
        <time>2023-07-23T06:45:54Z</time>
      </trkpt>
      <trkpt lat="42.16636" lon="0.88911">
        <ele>475</ele>
        <time>2023-07-23T06:45:55Z</time>
      </trkpt>
      <trkpt lat="42.16639" lon="0.88908">
        <ele>475</ele>
        <time>2023-07-23T06:45:56Z</time>
      </trkpt>
      <trkpt lat="42.16641" lon="0.88905">
        <ele>475.2</ele>
        <time>2023-07-23T06:45:57Z</time>
      </trkpt>
      <trkpt lat="42.16645" lon="0.88903">
        <ele>475.2</ele>
        <time>2023-07-23T06:45:58Z</time>
      </trkpt>
      <trkpt lat="42.16647" lon="0.88902">
        <ele>475.2</ele>
        <time>2023-07-23T06:45:59Z</time>
      </trkpt>
      <trkpt lat="42.1665" lon="0.88903">
        <ele>475.4</ele>
        <time>2023-07-23T06:46:00Z</time>
      </trkpt>
      <trkpt lat="42.16653" lon="0.88904">
        <ele>475.4</ele>
        <time>2023-07-23T06:46:01Z</time>
      </trkpt>
      <trkpt lat="42.16656" lon="0.88905">
        <ele>475.6</ele>
        <time>2023-07-23T06:46:02Z</time>
      </trkpt>
      <trkpt lat="42.16659" lon="0.88907">
        <ele>475.8</ele>
        <time>2023-07-23T06:46:03Z</time>
      </trkpt>
      <trkpt lat="42.16662" lon="0.88909">
        <ele>476</ele>
        <time>2023-07-23T06:46:04Z</time>
      </trkpt>
      <trkpt lat="42.16665" lon="0.88912">
        <ele>476</ele>
        <time>2023-07-23T06:46:05Z</time>
      </trkpt>
      <trkpt lat="42.16668" lon="0.88915">
        <ele>476.2</ele>
        <time>2023-07-23T06:46:06Z</time>
      </trkpt>
      <trkpt lat="42.16671" lon="0.88919">
        <ele>476.4</ele>
        <time>2023-07-23T06:46:07Z</time>
      </trkpt>
      <trkpt lat="42.16673" lon="0.88922">
        <ele>476.6</ele>
        <time>2023-07-23T06:46:08Z</time>
      </trkpt>
      <trkpt lat="42.16675" lon="0.88925">
        <ele>476.6</ele>
        <time>2023-07-23T06:46:09Z</time>
      </trkpt>
      <trkpt lat="42.16677" lon="0.88929">
        <ele>476.8</ele>
        <time>2023-07-23T06:46:10Z</time>
      </trkpt>
      <trkpt lat="42.1668" lon="0.88931">
        <ele>477</ele>
        <time>2023-07-23T06:46:11Z</time>
      </trkpt>
      <trkpt lat="42.16682" lon="0.88934">
        <ele>477.2</ele>
        <time>2023-07-23T06:46:12Z</time>
      </trkpt>
      <trkpt lat="42.16685" lon="0.88938">
        <ele>477.4</ele>
        <time>2023-07-23T06:46:13Z</time>
      </trkpt>
      <trkpt lat="42.16688" lon="0.88941">
        <ele>477.4</ele>
        <time>2023-07-23T06:46:14Z</time>
      </trkpt>
      <trkpt lat="42.1669" lon="0.88945">
        <ele>477.6</ele>
        <time>2023-07-23T06:46:15Z</time>
      </trkpt>
      <trkpt lat="42.16692" lon="0.88948">
        <ele>477.8</ele>
        <time>2023-07-23T06:46:16Z</time>
      </trkpt>
      <trkpt lat="42.16695" lon="0.88951">
        <ele>478</ele>
        <time>2023-07-23T06:46:17Z</time>
      </trkpt>
      <trkpt lat="42.16697" lon="0.88954">
        <ele>478.2</ele>
        <time>2023-07-23T06:46:18Z</time>
      </trkpt>
      <trkpt lat="42.167" lon="0.88958">
        <ele>478.4</ele>
        <time>2023-07-23T06:46:19Z</time>
      </trkpt>
      <trkpt lat="42.16702" lon="0.8896">
        <ele>478.6</ele>
        <time>2023-07-23T06:46:20Z</time>
      </trkpt>
      <trkpt lat="42.16704" lon="0.88963">
        <ele>478.6</ele>
        <time>2023-07-23T06:46:21Z</time>
      </trkpt>
      <trkpt lat="42.16706" lon="0.88966">
        <ele>478.8</ele>
        <time>2023-07-23T06:46:22Z</time>
      </trkpt>
      <trkpt lat="42.16709" lon="0.88969">
        <ele>479</ele>
        <time>2023-07-23T06:46:23Z</time>
      </trkpt>
      <trkpt lat="42.16711" lon="0.88972">
        <ele>479</ele>
        <time>2023-07-23T06:46:24Z</time>
      </trkpt>
      <trkpt lat="42.16713" lon="0.88976">
        <ele>479.2</ele>
        <time>2023-07-23T06:46:25Z</time>
      </trkpt>
      <trkpt lat="42.16715" lon="0.8898">
        <ele>479.4</ele>
        <time>2023-07-23T06:46:26Z</time>
      </trkpt>
      <trkpt lat="42.16717" lon="0.88984">
        <ele>479.6</ele>
        <time>2023-07-23T06:46:27Z</time>
      </trkpt>
      <trkpt lat="42.1672" lon="0.88989">
        <ele>479.8</ele>
        <time>2023-07-23T06:46:28Z</time>
      </trkpt>
      <trkpt lat="42.16723" lon="0.88994">
        <ele>480</ele>
        <time>2023-07-23T06:46:29Z</time>
      </trkpt>
      <trkpt lat="42.16726" lon="0.88997">
        <ele>480.2</ele>
        <time>2023-07-23T06:46:30Z</time>
      </trkpt>
      <trkpt lat="42.1673" lon="0.89001">
        <ele>480.2</ele>
        <time>2023-07-23T06:46:31Z</time>
      </trkpt>
      <trkpt lat="42.16733" lon="0.89003">
        <ele>480.4</ele>
        <time>2023-07-23T06:46:32Z</time>
      </trkpt>
      <trkpt lat="42.16736" lon="0.89006">
        <ele>480.4</ele>
        <time>2023-07-23T06:46:33Z</time>
      </trkpt>
      <trkpt lat="42.16739" lon="0.8901">
        <ele>480.6</ele>
        <time>2023-07-23T06:46:34Z</time>
      </trkpt>
      <trkpt lat="42.16741" lon="0.89013">
        <ele>480.6</ele>
        <time>2023-07-23T06:46:35Z</time>
      </trkpt>
      <trkpt lat="42.16744" lon="0.89017">
        <ele>480.6</ele>
        <time>2023-07-23T06:46:36Z</time>
      </trkpt>
      <trkpt lat="42.16746" lon="0.8902">
        <ele>480.6</ele>
        <time>2023-07-23T06:46:37Z</time>
      </trkpt>
      <trkpt lat="42.16748" lon="0.89024">
        <ele>480.8</ele>
        <time>2023-07-23T06:46:38Z</time>
      </trkpt>
      <trkpt lat="42.1675" lon="0.89028">
        <ele>480.8</ele>
        <time>2023-07-23T06:46:39Z</time>
      </trkpt>
      <trkpt lat="42.16753" lon="0.89032">
        <ele>481</ele>
        <time>2023-07-23T06:46:40Z</time>
      </trkpt>
      <trkpt lat="42.16755" lon="0.89036">
        <ele>481.2</ele>
        <time>2023-07-23T06:46:41Z</time>
      </trkpt>
      <trkpt lat="42.16758" lon="0.89039">
        <ele>481.2</ele>
        <time>2023-07-23T06:46:42Z</time>
      </trkpt>
      <trkpt lat="42.16761" lon="0.89042">
        <ele>481.4</ele>
        <time>2023-07-23T06:46:43Z</time>
      </trkpt>
      <trkpt lat="42.16764" lon="0.89045">
        <ele>481.4</ele>
        <time>2023-07-23T06:46:44Z</time>
      </trkpt>
      <trkpt lat="42.16768" lon="0.89047">
        <ele>481.4</ele>
        <time>2023-07-23T06:46:45Z</time>
      </trkpt>
      <trkpt lat="42.16771" lon="0.89049">
        <ele>481.4</ele>
        <time>2023-07-23T06:46:46Z</time>
      </trkpt>
      <trkpt lat="42.16774" lon="0.89053">
        <ele>481.4</ele>
        <time>2023-07-23T06:46:47Z</time>
      </trkpt>
      <trkpt lat="42.16776" lon="0.89056">
        <ele>481.4</ele>
        <time>2023-07-23T06:46:48Z</time>
      </trkpt>
      <trkpt lat="42.16778" lon="0.89059">
        <ele>481.4</ele>
        <time>2023-07-23T06:46:49Z</time>
      </trkpt>
      <trkpt lat="42.1678" lon="0.89063">
        <ele>481.4</ele>
        <time>2023-07-23T06:46:50Z</time>
      </trkpt>
      <trkpt lat="42.16782" lon="0.89067">
        <ele>481.4</ele>
        <time>2023-07-23T06:46:51Z</time>
      </trkpt>
      <trkpt lat="42.16785" lon="0.8907">
        <ele>481.4</ele>
        <time>2023-07-23T06:46:52Z</time>
      </trkpt>
      <trkpt lat="42.16787" lon="0.89073">
        <ele>481.4</ele>
        <time>2023-07-23T06:46:53Z</time>
      </trkpt>
      <trkpt lat="42.1679" lon="0.89077">
        <ele>481.4</ele>
        <time>2023-07-23T06:46:54Z</time>
      </trkpt>
      <trkpt lat="42.16792" lon="0.8908">
        <ele>481.6</ele>
        <time>2023-07-23T06:46:55Z</time>
      </trkpt>
      <trkpt lat="42.16794" lon="0.89083">
        <ele>481.6</ele>
        <time>2023-07-23T06:46:56Z</time>
      </trkpt>
      <trkpt lat="42.16796" lon="0.89087">
        <ele>481.6</ele>
        <time>2023-07-23T06:46:57Z</time>
      </trkpt>
      <trkpt lat="42.16798" lon="0.8909">
        <ele>481.8</ele>
        <time>2023-07-23T06:46:58Z</time>
      </trkpt>
      <trkpt lat="42.16799" lon="0.89093">
        <ele>481.8</ele>
        <time>2023-07-23T06:46:59Z</time>
      </trkpt>
      <trkpt lat="42.16801" lon="0.89096">
        <ele>481.8</ele>
        <time>2023-07-23T06:47:00Z</time>
      </trkpt>
      <trkpt lat="42.16802" lon="0.89099">
        <ele>482</ele>
        <time>2023-07-23T06:47:01Z</time>
      </trkpt>
      <trkpt lat="42.16804" lon="0.89101">
        <ele>482</ele>
        <time>2023-07-23T06:47:02Z</time>
      </trkpt>
      <trkpt lat="42.16805" lon="0.89103">
        <ele>482.2</ele>
        <time>2023-07-23T06:47:03Z</time>
      </trkpt>
      <trkpt lat="42.16807" lon="0.89105">
        <ele>482.2</ele>
        <time>2023-07-23T06:47:04Z</time>
      </trkpt>
      <trkpt lat="42.16808" lon="0.89107">
        <ele>482.2</ele>
        <time>2023-07-23T06:47:05Z</time>
      </trkpt>
      <trkpt lat="42.16809" lon="0.89109">
        <ele>482.4</ele>
        <time>2023-07-23T06:47:06Z</time>
      </trkpt>
      <trkpt lat="42.16809" lon="0.89111">
        <ele>482.6</ele>
        <time>2023-07-23T06:47:07Z</time>
      </trkpt>
      <trkpt lat="42.1681" lon="0.89112">
        <ele>482.6</ele>
        <time>2023-07-23T06:47:08Z</time>
      </trkpt>
      <trkpt lat="42.16812" lon="0.89113">
        <ele>482.6</ele>
        <time>2023-07-23T06:47:09Z</time>
      </trkpt>
      <trkpt lat="42.16812" lon="0.89113">
        <ele>482.8</ele>
        <time>2023-07-23T06:47:10Z</time>
      </trkpt>
      <trkpt lat="42.16813" lon="0.89114">
        <ele>482.8</ele>
        <time>2023-07-23T06:47:11Z</time>
      </trkpt>
      <trkpt lat="42.16823" lon="0.89128">
        <ele>483.8</ele>
        <time>2023-07-23T06:47:32Z</time>
      </trkpt>
      <trkpt lat="42.16825" lon="0.89131">
        <ele>484</ele>
        <time>2023-07-23T06:47:33Z</time>
      </trkpt>
      <trkpt lat="42.16827" lon="0.89133">
        <ele>484</ele>
        <time>2023-07-23T06:47:34Z</time>
      </trkpt>
      <trkpt lat="42.16829" lon="0.89137">
        <ele>484</ele>
        <time>2023-07-23T06:47:35Z</time>
      </trkpt>
      <trkpt lat="42.16832" lon="0.8914">
        <ele>484</ele>
        <time>2023-07-23T06:47:36Z</time>
      </trkpt>
      <trkpt lat="42.16835" lon="0.89143">
        <ele>484</ele>
        <time>2023-07-23T06:47:37Z</time>
      </trkpt>
      <trkpt lat="42.16837" lon="0.89145">
        <ele>484.2</ele>
        <time>2023-07-23T06:47:38Z</time>
      </trkpt>
      <trkpt lat="42.1684" lon="0.89147">
        <ele>484.2</ele>
        <time>2023-07-23T06:47:39Z</time>
      </trkpt>
      <trkpt lat="42.16842" lon="0.8915">
        <ele>484.2</ele>
        <time>2023-07-23T06:47:40Z</time>
      </trkpt>
      <trkpt lat="42.16846" lon="0.89154">
        <ele>484.4</ele>
        <time>2023-07-23T06:47:41Z</time>
      </trkpt>
      <trkpt lat="42.16848" lon="0.89156">
        <ele>484.4</ele>
        <time>2023-07-23T06:47:42Z</time>
      </trkpt>
      <trkpt lat="42.16851" lon="0.89159">
        <ele>484.4</ele>
        <time>2023-07-23T06:47:43Z</time>
      </trkpt>
      <trkpt lat="42.16854" lon="0.89162">
        <ele>484.6</ele>
        <time>2023-07-23T06:47:44Z</time>
      </trkpt>
      <trkpt lat="42.16857" lon="0.89165">
        <ele>484.6</ele>
        <time>2023-07-23T06:47:45Z</time>
      </trkpt>
      <trkpt lat="42.1686" lon="0.89168">
        <ele>484.4</ele>
        <time>2023-07-23T06:47:46Z</time>
      </trkpt>
      <trkpt lat="42.16863" lon="0.8917">
        <ele>484.6</ele>
        <time>2023-07-23T06:47:47Z</time>
      </trkpt>
      <trkpt lat="42.16866" lon="0.89173">
        <ele>484.8</ele>
        <time>2023-07-23T06:47:48Z</time>
      </trkpt>
      <trkpt lat="42.16869" lon="0.89176">
        <ele>484.8</ele>
        <time>2023-07-23T06:47:49Z</time>
      </trkpt>
      <trkpt lat="42.16873" lon="0.89179">
        <ele>484.8</ele>
        <time>2023-07-23T06:47:50Z</time>
      </trkpt>
      <trkpt lat="42.16876" lon="0.89182">
        <ele>484.8</ele>
        <time>2023-07-23T06:47:51Z</time>
      </trkpt>
      <trkpt lat="42.16879" lon="0.89185">
        <ele>485</ele>
        <time>2023-07-23T06:47:52Z</time>
      </trkpt>
      <trkpt lat="42.16883" lon="0.89188">
        <ele>485</ele>
        <time>2023-07-23T06:47:53Z</time>
      </trkpt>
      <trkpt lat="42.16886" lon="0.89191">
        <ele>485</ele>
        <time>2023-07-23T06:47:54Z</time>
      </trkpt>
      <trkpt lat="42.16889" lon="0.89194">
        <ele>485</ele>
        <time>2023-07-23T06:47:55Z</time>
      </trkpt>
      <trkpt lat="42.16892" lon="0.89196">
        <ele>485</ele>
        <time>2023-07-23T06:47:56Z</time>
      </trkpt>
      <trkpt lat="42.16895" lon="0.89199">
        <ele>485</ele>
        <time>2023-07-23T06:47:57Z</time>
      </trkpt>
      <trkpt lat="42.16899" lon="0.892">
        <ele>485</ele>
        <time>2023-07-23T06:47:58Z</time>
      </trkpt>
      <trkpt lat="42.16902" lon="0.89202">
        <ele>485</ele>
        <time>2023-07-23T06:47:59Z</time>
      </trkpt>
      <trkpt lat="42.16906" lon="0.89204">
        <ele>485</ele>
        <time>2023-07-23T06:48:00Z</time>
      </trkpt>
      <trkpt lat="42.1691" lon="0.89205">
        <ele>484.8</ele>
        <time>2023-07-23T06:48:01Z</time>
      </trkpt>
      <trkpt lat="42.16913" lon="0.89206">
        <ele>484.8</ele>
        <time>2023-07-23T06:48:02Z</time>
      </trkpt>
      <trkpt lat="42.16917" lon="0.89207">
        <ele>484.8</ele>
        <time>2023-07-23T06:48:03Z</time>
      </trkpt>
      <trkpt lat="42.1692" lon="0.89208">
        <ele>484.6</ele>
        <time>2023-07-23T06:48:04Z</time>
      </trkpt>
      <trkpt lat="42.16924" lon="0.89208">
        <ele>484.6</ele>
        <time>2023-07-23T06:48:05Z</time>
      </trkpt>
      <trkpt lat="42.16928" lon="0.89207">
        <ele>484.6</ele>
        <time>2023-07-23T06:48:06Z</time>
      </trkpt>
      <trkpt lat="42.16932" lon="0.89206">
        <ele>484.6</ele>
        <time>2023-07-23T06:48:07Z</time>
      </trkpt>
      <trkpt lat="42.16935" lon="0.89204">
        <ele>484.6</ele>
        <time>2023-07-23T06:48:08Z</time>
      </trkpt>
      <trkpt lat="42.16939" lon="0.89202">
        <ele>484.4</ele>
        <time>2023-07-23T06:48:09Z</time>
      </trkpt>
      <trkpt lat="42.16942" lon="0.892">
        <ele>484.6</ele>
        <time>2023-07-23T06:48:10Z</time>
      </trkpt>
      <trkpt lat="42.16946" lon="0.89199">
        <ele>484.6</ele>
        <time>2023-07-23T06:48:11Z</time>
      </trkpt>
      <trkpt lat="42.1695" lon="0.89197">
        <ele>484.6</ele>
        <time>2023-07-23T06:48:12Z</time>
      </trkpt>
      <trkpt lat="42.16954" lon="0.89194">
        <ele>484.6</ele>
        <time>2023-07-23T06:48:13Z</time>
      </trkpt>
      <trkpt lat="42.16957" lon="0.89192">
        <ele>484.6</ele>
        <time>2023-07-23T06:48:14Z</time>
      </trkpt>
      <trkpt lat="42.16961" lon="0.89189">
        <ele>484.6</ele>
        <time>2023-07-23T06:48:15Z</time>
      </trkpt>
      <trkpt lat="42.16964" lon="0.89185">
        <ele>484.6</ele>
        <time>2023-07-23T06:48:16Z</time>
      </trkpt>
      <trkpt lat="42.16967" lon="0.89181">
        <ele>484.6</ele>
        <time>2023-07-23T06:48:17Z</time>
      </trkpt>
      <trkpt lat="42.1697" lon="0.89177">
        <ele>484.4</ele>
        <time>2023-07-23T06:48:18Z</time>
      </trkpt>
      <trkpt lat="42.16973" lon="0.89174">
        <ele>484.4</ele>
        <time>2023-07-23T06:48:19Z</time>
      </trkpt>
      <trkpt lat="42.16977" lon="0.8917">
        <ele>484.4</ele>
        <time>2023-07-23T06:48:20Z</time>
      </trkpt>
      <trkpt lat="42.1698" lon="0.89167">
        <ele>484.4</ele>
        <time>2023-07-23T06:48:21Z</time>
      </trkpt>
      <trkpt lat="42.16983" lon="0.89163">
        <ele>484.4</ele>
        <time>2023-07-23T06:48:22Z</time>
      </trkpt>
      <trkpt lat="42.16985" lon="0.8916">
        <ele>484.2</ele>
        <time>2023-07-23T06:48:23Z</time>
      </trkpt>
      <trkpt lat="42.16988" lon="0.89156">
        <ele>484.2</ele>
        <time>2023-07-23T06:48:24Z</time>
      </trkpt>
      <trkpt lat="42.1699" lon="0.89152">
        <ele>484.2</ele>
        <time>2023-07-23T06:48:25Z</time>
      </trkpt>
      <trkpt lat="42.16992" lon="0.89149">
        <ele>484.2</ele>
        <time>2023-07-23T06:48:26Z</time>
      </trkpt>
      <trkpt lat="42.16995" lon="0.89145">
        <ele>484.2</ele>
        <time>2023-07-23T06:48:27Z</time>
      </trkpt>
      <trkpt lat="42.16997" lon="0.89141">
        <ele>484.4</ele>
        <time>2023-07-23T06:48:28Z</time>
      </trkpt>
      <trkpt lat="42.17" lon="0.89137">
        <ele>484.4</ele>
        <time>2023-07-23T06:48:29Z</time>
      </trkpt>
      <trkpt lat="42.17003" lon="0.89133">
        <ele>484.6</ele>
        <time>2023-07-23T06:48:30Z</time>
      </trkpt>
      <trkpt lat="42.17005" lon="0.89129">
        <ele>484.8</ele>
        <time>2023-07-23T06:48:31Z</time>
      </trkpt>
      <trkpt lat="42.17007" lon="0.89126">
        <ele>484.8</ele>
        <time>2023-07-23T06:48:32Z</time>
      </trkpt>
      <trkpt lat="42.1701" lon="0.89122">
        <ele>484.8</ele>
        <time>2023-07-23T06:48:33Z</time>
      </trkpt>
      <trkpt lat="42.17012" lon="0.89118">
        <ele>484.8</ele>
        <time>2023-07-23T06:48:34Z</time>
      </trkpt>
      <trkpt lat="42.17014" lon="0.89114">
        <ele>485</ele>
        <time>2023-07-23T06:48:35Z</time>
      </trkpt>
      <trkpt lat="42.17016" lon="0.8911">
        <ele>485</ele>
        <time>2023-07-23T06:48:36Z</time>
      </trkpt>
      <trkpt lat="42.17018" lon="0.89106">
        <ele>485</ele>
        <time>2023-07-23T06:48:37Z</time>
      </trkpt>
      <trkpt lat="42.1702" lon="0.89103">
        <ele>485.2</ele>
        <time>2023-07-23T06:48:38Z</time>
      </trkpt>
      <trkpt lat="42.17022" lon="0.89099">
        <ele>485.2</ele>
        <time>2023-07-23T06:48:39Z</time>
      </trkpt>
      <trkpt lat="42.17024" lon="0.89095">
        <ele>485.4</ele>
        <time>2023-07-23T06:48:40Z</time>
      </trkpt>
      <trkpt lat="42.17027" lon="0.8909">
        <ele>485.6</ele>
        <time>2023-07-23T06:48:41Z</time>
      </trkpt>
      <trkpt lat="42.17029" lon="0.89085">
        <ele>485.8</ele>
        <time>2023-07-23T06:48:42Z</time>
      </trkpt>
      <trkpt lat="42.17032" lon="0.89079">
        <ele>486</ele>
        <time>2023-07-23T06:48:43Z</time>
      </trkpt>
      <trkpt lat="42.17035" lon="0.89073">
        <ele>486</ele>
        <time>2023-07-23T06:48:44Z</time>
      </trkpt>
      <trkpt lat="42.17038" lon="0.89066">
        <ele>486.2</ele>
        <time>2023-07-23T06:48:45Z</time>
      </trkpt>
      <trkpt lat="42.17041" lon="0.8906">
        <ele>486.2</ele>
        <time>2023-07-23T06:48:46Z</time>
      </trkpt>
      <trkpt lat="42.17042" lon="0.89053">
        <ele>486.2</ele>
        <time>2023-07-23T06:48:47Z</time>
      </trkpt>
      <trkpt lat="42.17044" lon="0.89047">
        <ele>486.2</ele>
        <time>2023-07-23T06:48:48Z</time>
      </trkpt>
      <trkpt lat="42.17046" lon="0.8904">
        <ele>486.2</ele>
        <time>2023-07-23T06:48:49Z</time>
      </trkpt>
      <trkpt lat="42.17048" lon="0.89034">
        <ele>486.2</ele>
        <time>2023-07-23T06:48:50Z</time>
      </trkpt>
      <trkpt lat="42.1705" lon="0.89029">
        <ele>486.2</ele>
        <time>2023-07-23T06:48:51Z</time>
      </trkpt>
      <trkpt lat="42.17052" lon="0.89024">
        <ele>486</ele>
        <time>2023-07-23T06:48:52Z</time>
      </trkpt>
      <trkpt lat="42.17054" lon="0.89018">
        <ele>486</ele>
        <time>2023-07-23T06:48:53Z</time>
      </trkpt>
      <trkpt lat="42.17057" lon="0.89013">
        <ele>486</ele>
        <time>2023-07-23T06:48:54Z</time>
      </trkpt>
      <trkpt lat="42.1706" lon="0.89009">
        <ele>486</ele>
        <time>2023-07-23T06:48:55Z</time>
      </trkpt>
      <trkpt lat="42.17063" lon="0.89004">
        <ele>486</ele>
        <time>2023-07-23T06:48:56Z</time>
      </trkpt>
      <trkpt lat="42.17066" lon="0.89">
        <ele>486</ele>
        <time>2023-07-23T06:48:57Z</time>
      </trkpt>
      <trkpt lat="42.17069" lon="0.88996">
        <ele>486</ele>
        <time>2023-07-23T06:48:58Z</time>
      </trkpt>
      <trkpt lat="42.17072" lon="0.88992">
        <ele>486.4</ele>
        <time>2023-07-23T06:48:59Z</time>
      </trkpt>
      <trkpt lat="42.17074" lon="0.88987">
        <ele>486.4</ele>
        <time>2023-07-23T06:49:00Z</time>
      </trkpt>
      <trkpt lat="42.17076" lon="0.88983">
        <ele>486.6</ele>
        <time>2023-07-23T06:49:01Z</time>
      </trkpt>
      <trkpt lat="42.17078" lon="0.88978">
        <ele>486.6</ele>
        <time>2023-07-23T06:49:02Z</time>
      </trkpt>
      <trkpt lat="42.17079" lon="0.88973">
        <ele>486.8</ele>
        <time>2023-07-23T06:49:03Z</time>
      </trkpt>
      <trkpt lat="42.17081" lon="0.88967">
        <ele>486.8</ele>
        <time>2023-07-23T06:49:04Z</time>
      </trkpt>
      <trkpt lat="42.17082" lon="0.88962">
        <ele>486.8</ele>
        <time>2023-07-23T06:49:05Z</time>
      </trkpt>
      <trkpt lat="42.17083" lon="0.88956">
        <ele>486.8</ele>
        <time>2023-07-23T06:49:06Z</time>
      </trkpt>
      <trkpt lat="42.17084" lon="0.88951">
        <ele>487</ele>
        <time>2023-07-23T06:49:07Z</time>
      </trkpt>
      <trkpt lat="42.17085" lon="0.88945">
        <ele>487.2</ele>
        <time>2023-07-23T06:49:08Z</time>
      </trkpt>
      <trkpt lat="42.17086" lon="0.8894">
        <ele>487.4</ele>
        <time>2023-07-23T06:49:09Z</time>
      </trkpt>
      <trkpt lat="42.17088" lon="0.88934">
        <ele>487.6</ele>
        <time>2023-07-23T06:49:10Z</time>
      </trkpt>
      <trkpt lat="42.17089" lon="0.88929">
        <ele>487.8</ele>
        <time>2023-07-23T06:49:11Z</time>
      </trkpt>
      <trkpt lat="42.1709" lon="0.88923">
        <ele>488</ele>
        <time>2023-07-23T06:49:12Z</time>
      </trkpt>
      <trkpt lat="42.17092" lon="0.88918">
        <ele>488.2</ele>
        <time>2023-07-23T06:49:13Z</time>
      </trkpt>
      <trkpt lat="42.17093" lon="0.88912">
        <ele>488.2</ele>
        <time>2023-07-23T06:49:14Z</time>
      </trkpt>
      <trkpt lat="42.17094" lon="0.88906">
        <ele>488.2</ele>
        <time>2023-07-23T06:49:15Z</time>
      </trkpt>
      <trkpt lat="42.17095" lon="0.88901">
        <ele>488.2</ele>
        <time>2023-07-23T06:49:16Z</time>
      </trkpt>
      <trkpt lat="42.17097" lon="0.88895">
        <ele>488.2</ele>
        <time>2023-07-23T06:49:17Z</time>
      </trkpt>
      <trkpt lat="42.17098" lon="0.8889">
        <ele>488.4</ele>
        <time>2023-07-23T06:49:18Z</time>
      </trkpt>
      <trkpt lat="42.17099" lon="0.88884">
        <ele>488.4</ele>
        <time>2023-07-23T06:49:19Z</time>
      </trkpt>
      <trkpt lat="42.171" lon="0.88879">
        <ele>488.4</ele>
        <time>2023-07-23T06:49:20Z</time>
      </trkpt>
      <trkpt lat="42.171" lon="0.88873">
        <ele>488.6</ele>
        <time>2023-07-23T06:49:21Z</time>
      </trkpt>
      <trkpt lat="42.17101" lon="0.88868">
        <ele>488.6</ele>
        <time>2023-07-23T06:49:22Z</time>
      </trkpt>
      <trkpt lat="42.17102" lon="0.88863">
        <ele>489</ele>
        <time>2023-07-23T06:49:23Z</time>
      </trkpt>
      <trkpt lat="42.17102" lon="0.88857">
        <ele>489</ele>
        <time>2023-07-23T06:49:24Z</time>
      </trkpt>
      <trkpt lat="42.17103" lon="0.88852">
        <ele>489.2</ele>
        <time>2023-07-23T06:49:25Z</time>
      </trkpt>
      <trkpt lat="42.17103" lon="0.88846">
        <ele>489.2</ele>
        <time>2023-07-23T06:49:26Z</time>
      </trkpt>
      <trkpt lat="42.17103" lon="0.88841">
        <ele>489.4</ele>
        <time>2023-07-23T06:49:27Z</time>
      </trkpt>
      <trkpt lat="42.17103" lon="0.88836">
        <ele>489.6</ele>
        <time>2023-07-23T06:49:28Z</time>
      </trkpt>
      <trkpt lat="42.17103" lon="0.8883">
        <ele>490</ele>
        <time>2023-07-23T06:49:29Z</time>
      </trkpt>
      <trkpt lat="42.17103" lon="0.88824">
        <ele>490.2</ele>
        <time>2023-07-23T06:49:30Z</time>
      </trkpt>
      <trkpt lat="42.17103" lon="0.88819">
        <ele>490.4</ele>
        <time>2023-07-23T06:49:31Z</time>
      </trkpt>
      <trkpt lat="42.17103" lon="0.88814">
        <ele>490.4</ele>
        <time>2023-07-23T06:49:32Z</time>
      </trkpt>
      <trkpt lat="42.17103" lon="0.88808">
        <ele>490.6</ele>
        <time>2023-07-23T06:49:33Z</time>
      </trkpt>
      <trkpt lat="42.17104" lon="0.88803">
        <ele>490.8</ele>
        <time>2023-07-23T06:49:34Z</time>
      </trkpt>
      <trkpt lat="42.17105" lon="0.88798">
        <ele>490.8</ele>
        <time>2023-07-23T06:49:35Z</time>
      </trkpt>
      <trkpt lat="42.17106" lon="0.88792">
        <ele>491</ele>
        <time>2023-07-23T06:49:36Z</time>
      </trkpt>
      <trkpt lat="42.17108" lon="0.88787">
        <ele>491.2</ele>
        <time>2023-07-23T06:49:37Z</time>
      </trkpt>
      <trkpt lat="42.17109" lon="0.88782">
        <ele>491.2</ele>
        <time>2023-07-23T06:49:38Z</time>
      </trkpt>
      <trkpt lat="42.17111" lon="0.88776">
        <ele>491.6</ele>
        <time>2023-07-23T06:49:39Z</time>
      </trkpt>
      <trkpt lat="42.17112" lon="0.88771">
        <ele>491.6</ele>
        <time>2023-07-23T06:49:40Z</time>
      </trkpt>
      <trkpt lat="42.17114" lon="0.88766">
        <ele>491.8</ele>
        <time>2023-07-23T06:49:41Z</time>
      </trkpt>
      <trkpt lat="42.17115" lon="0.8876">
        <ele>492</ele>
        <time>2023-07-23T06:49:42Z</time>
      </trkpt>
      <trkpt lat="42.17117" lon="0.88755">
        <ele>492</ele>
        <time>2023-07-23T06:49:43Z</time>
      </trkpt>
      <trkpt lat="42.17118" lon="0.88749">
        <ele>492.4</ele>
        <time>2023-07-23T06:49:44Z</time>
      </trkpt>
      <trkpt lat="42.17119" lon="0.88743">
        <ele>492.4</ele>
        <time>2023-07-23T06:49:45Z</time>
      </trkpt>
      <trkpt lat="42.1712" lon="0.88738">
        <ele>492.6</ele>
        <time>2023-07-23T06:49:46Z</time>
      </trkpt>
      <trkpt lat="42.17121" lon="0.88732">
        <ele>492.6</ele>
        <time>2023-07-23T06:49:47Z</time>
      </trkpt>
      <trkpt lat="42.17122" lon="0.88727">
        <ele>492.6</ele>
        <time>2023-07-23T06:49:48Z</time>
      </trkpt>
      <trkpt lat="42.17124" lon="0.88722">
        <ele>492.8</ele>
        <time>2023-07-23T06:49:49Z</time>
      </trkpt>
      <trkpt lat="42.17126" lon="0.88717">
        <ele>493</ele>
        <time>2023-07-23T06:49:50Z</time>
      </trkpt>
      <trkpt lat="42.17128" lon="0.88712">
        <ele>493</ele>
        <time>2023-07-23T06:49:51Z</time>
      </trkpt>
      <trkpt lat="42.17131" lon="0.88707">
        <ele>493.2</ele>
        <time>2023-07-23T06:49:52Z</time>
      </trkpt>
      <trkpt lat="42.17133" lon="0.88703">
        <ele>493.2</ele>
        <time>2023-07-23T06:49:53Z</time>
      </trkpt>
      <trkpt lat="42.17136" lon="0.88698">
        <ele>493.2</ele>
        <time>2023-07-23T06:49:54Z</time>
      </trkpt>
      <trkpt lat="42.17139" lon="0.88694">
        <ele>493.4</ele>
        <time>2023-07-23T06:49:55Z</time>
      </trkpt>
      <trkpt lat="42.17143" lon="0.8869">
        <ele>493.8</ele>
        <time>2023-07-23T06:49:56Z</time>
      </trkpt>
      <trkpt lat="42.17146" lon="0.88686">
        <ele>494</ele>
        <time>2023-07-23T06:49:57Z</time>
      </trkpt>
      <trkpt lat="42.17149" lon="0.88682">
        <ele>494.2</ele>
        <time>2023-07-23T06:49:58Z</time>
      </trkpt>
      <trkpt lat="42.17152" lon="0.88678">
        <ele>494.4</ele>
        <time>2023-07-23T06:49:59Z</time>
      </trkpt>
      <trkpt lat="42.17156" lon="0.88675">
        <ele>494.6</ele>
        <time>2023-07-23T06:50:00Z</time>
      </trkpt>
      <trkpt lat="42.17159" lon="0.88671">
        <ele>494.6</ele>
        <time>2023-07-23T06:50:01Z</time>
      </trkpt>
      <trkpt lat="42.17162" lon="0.88667">
        <ele>494.8</ele>
        <time>2023-07-23T06:50:02Z</time>
      </trkpt>
      <trkpt lat="42.17166" lon="0.88663">
        <ele>494.8</ele>
        <time>2023-07-23T06:50:03Z</time>
      </trkpt>
      <trkpt lat="42.17169" lon="0.88659">
        <ele>494.8</ele>
        <time>2023-07-23T06:50:04Z</time>
      </trkpt>
      <trkpt lat="42.17173" lon="0.88655">
        <ele>494.8</ele>
        <time>2023-07-23T06:50:05Z</time>
      </trkpt>
      <trkpt lat="42.17176" lon="0.88652">
        <ele>494.8</ele>
        <time>2023-07-23T06:50:06Z</time>
      </trkpt>
      <trkpt lat="42.1718" lon="0.88648">
        <ele>495</ele>
        <time>2023-07-23T06:50:07Z</time>
      </trkpt>
      <trkpt lat="42.17183" lon="0.88645">
        <ele>495</ele>
        <time>2023-07-23T06:50:08Z</time>
      </trkpt>
      <trkpt lat="42.17187" lon="0.88642">
        <ele>495.2</ele>
        <time>2023-07-23T06:50:09Z</time>
      </trkpt>
      <trkpt lat="42.17191" lon="0.88638">
        <ele>495.2</ele>
        <time>2023-07-23T06:50:10Z</time>
      </trkpt>
      <trkpt lat="42.17195" lon="0.88634">
        <ele>495.4</ele>
        <time>2023-07-23T06:50:11Z</time>
      </trkpt>
      <trkpt lat="42.17198" lon="0.8863">
        <ele>495.4</ele>
        <time>2023-07-23T06:50:12Z</time>
      </trkpt>
      <trkpt lat="42.17201" lon="0.88627">
        <ele>495.4</ele>
        <time>2023-07-23T06:50:13Z</time>
      </trkpt>
      <trkpt lat="42.17205" lon="0.88622">
        <ele>495.6</ele>
        <time>2023-07-23T06:50:14Z</time>
      </trkpt>
      <trkpt lat="42.17208" lon="0.88619">
        <ele>495.8</ele>
        <time>2023-07-23T06:50:15Z</time>
      </trkpt>
      <trkpt lat="42.17211" lon="0.88615">
        <ele>495.8</ele>
        <time>2023-07-23T06:50:16Z</time>
      </trkpt>
      <trkpt lat="42.17214" lon="0.88611">
        <ele>495.8</ele>
        <time>2023-07-23T06:50:17Z</time>
      </trkpt>
      <trkpt lat="42.17216" lon="0.88607">
        <ele>496</ele>
        <time>2023-07-23T06:50:18Z</time>
      </trkpt>
      <trkpt lat="42.17219" lon="0.88601">
        <ele>496</ele>
        <time>2023-07-23T06:50:19Z</time>
      </trkpt>
      <trkpt lat="42.17222" lon="0.88597">
        <ele>496.2</ele>
        <time>2023-07-23T06:50:20Z</time>
      </trkpt>
      <trkpt lat="42.17224" lon="0.88592">
        <ele>496.4</ele>
        <time>2023-07-23T06:50:21Z</time>
      </trkpt>
      <trkpt lat="42.17226" lon="0.88589">
        <ele>496.6</ele>
        <time>2023-07-23T06:50:22Z</time>
      </trkpt>
      <trkpt lat="42.17229" lon="0.88583">
        <ele>496.8</ele>
        <time>2023-07-23T06:50:23Z</time>
      </trkpt>
      <trkpt lat="42.17231" lon="0.88578">
        <ele>497</ele>
        <time>2023-07-23T06:50:24Z</time>
      </trkpt>
      <trkpt lat="42.17234" lon="0.88574">
        <ele>497</ele>
        <time>2023-07-23T06:50:25Z</time>
      </trkpt>
      <trkpt lat="42.17236" lon="0.8857">
        <ele>497.2</ele>
        <time>2023-07-23T06:50:26Z</time>
      </trkpt>
      <trkpt lat="42.17238" lon="0.88565">
        <ele>497.4</ele>
        <time>2023-07-23T06:50:27Z</time>
      </trkpt>
      <trkpt lat="42.17241" lon="0.8856">
        <ele>497.4</ele>
        <time>2023-07-23T06:50:28Z</time>
      </trkpt>
      <trkpt lat="42.17243" lon="0.88555">
        <ele>497.4</ele>
        <time>2023-07-23T06:50:29Z</time>
      </trkpt>
      <trkpt lat="42.17245" lon="0.88551">
        <ele>497.6</ele>
        <time>2023-07-23T06:50:30Z</time>
      </trkpt>
      <trkpt lat="42.17247" lon="0.88546">
        <ele>497.8</ele>
        <time>2023-07-23T06:50:31Z</time>
      </trkpt>
      <trkpt lat="42.1725" lon="0.88539">
        <ele>497.8</ele>
        <time>2023-07-23T06:50:32Z</time>
      </trkpt>
      <trkpt lat="42.17251" lon="0.88534">
        <ele>498</ele>
        <time>2023-07-23T06:50:33Z</time>
      </trkpt>
      <trkpt lat="42.17253" lon="0.8853">
        <ele>498.2</ele>
        <time>2023-07-23T06:50:34Z</time>
      </trkpt>
      <trkpt lat="42.17254" lon="0.88525">
        <ele>498.4</ele>
        <time>2023-07-23T06:50:35Z</time>
      </trkpt>
      <trkpt lat="42.17256" lon="0.88518">
        <ele>498.6</ele>
        <time>2023-07-23T06:50:36Z</time>
      </trkpt>
      <trkpt lat="42.17257" lon="0.88513">
        <ele>498.8</ele>
        <time>2023-07-23T06:50:37Z</time>
      </trkpt>
      <trkpt lat="42.17258" lon="0.88508">
        <ele>499</ele>
        <time>2023-07-23T06:50:38Z</time>
      </trkpt>
      <trkpt lat="42.17259" lon="0.88504">
        <ele>499</ele>
        <time>2023-07-23T06:50:39Z</time>
      </trkpt>
      <trkpt lat="42.17261" lon="0.88499">
        <ele>499.2</ele>
        <time>2023-07-23T06:50:40Z</time>
      </trkpt>
      <trkpt lat="42.17264" lon="0.88493">
        <ele>499.2</ele>
        <time>2023-07-23T06:50:41Z</time>
      </trkpt>
      <trkpt lat="42.17267" lon="0.88488">
        <ele>499.4</ele>
        <time>2023-07-23T06:50:42Z</time>
      </trkpt>
      <trkpt lat="42.1727" lon="0.88484">
        <ele>499.4</ele>
        <time>2023-07-23T06:50:43Z</time>
      </trkpt>
      <trkpt lat="42.17273" lon="0.88481">
        <ele>499.6</ele>
        <time>2023-07-23T06:50:44Z</time>
      </trkpt>
      <trkpt lat="42.17276" lon="0.88477">
        <ele>499.6</ele>
        <time>2023-07-23T06:50:45Z</time>
      </trkpt>
      <trkpt lat="42.1728" lon="0.88473">
        <ele>499.8</ele>
        <time>2023-07-23T06:50:46Z</time>
      </trkpt>
      <trkpt lat="42.17284" lon="0.88469">
        <ele>499.8</ele>
        <time>2023-07-23T06:50:47Z</time>
      </trkpt>
      <trkpt lat="42.17287" lon="0.88467">
        <ele>500</ele>
        <time>2023-07-23T06:50:48Z</time>
      </trkpt>
      <trkpt lat="42.17291" lon="0.88465">
        <ele>500</ele>
        <time>2023-07-23T06:50:49Z</time>
      </trkpt>
      <trkpt lat="42.17296" lon="0.88462">
        <ele>500.2</ele>
        <time>2023-07-23T06:50:50Z</time>
      </trkpt>
      <trkpt lat="42.173" lon="0.8846">
        <ele>500.2</ele>
        <time>2023-07-23T06:50:51Z</time>
      </trkpt>
      <trkpt lat="42.17304" lon="0.88458">
        <ele>500.2</ele>
        <time>2023-07-23T06:50:52Z</time>
      </trkpt>
      <trkpt lat="42.17308" lon="0.88456">
        <ele>500.4</ele>
        <time>2023-07-23T06:50:53Z</time>
      </trkpt>
      <trkpt lat="42.17313" lon="0.88453">
        <ele>500.4</ele>
        <time>2023-07-23T06:50:54Z</time>
      </trkpt>
      <trkpt lat="42.17318" lon="0.88451">
        <ele>500.4</ele>
        <time>2023-07-23T06:50:55Z</time>
      </trkpt>
      <trkpt lat="42.17322" lon="0.88448">
        <ele>500.4</ele>
        <time>2023-07-23T06:50:56Z</time>
      </trkpt>
      <trkpt lat="42.17325" lon="0.88446">
        <ele>500.4</ele>
        <time>2023-07-23T06:50:57Z</time>
      </trkpt>
      <trkpt lat="42.17329" lon="0.88444">
        <ele>500.4</ele>
        <time>2023-07-23T06:50:58Z</time>
      </trkpt>
      <trkpt lat="42.17332" lon="0.8844">
        <ele>500.6</ele>
        <time>2023-07-23T06:50:59Z</time>
      </trkpt>
      <trkpt lat="42.17335" lon="0.88437">
        <ele>500.8</ele>
        <time>2023-07-23T06:51:00Z</time>
      </trkpt>
      <trkpt lat="42.17338" lon="0.88433">
        <ele>500.8</ele>
        <time>2023-07-23T06:51:01Z</time>
      </trkpt>
      <trkpt lat="42.1734" lon="0.8843">
        <ele>500.8</ele>
        <time>2023-07-23T06:51:02Z</time>
      </trkpt>
      <trkpt lat="42.17343" lon="0.88425">
        <ele>501</ele>
        <time>2023-07-23T06:51:03Z</time>
      </trkpt>
      <trkpt lat="42.17345" lon="0.88421">
        <ele>501</ele>
        <time>2023-07-23T06:51:04Z</time>
      </trkpt>
      <trkpt lat="42.17348" lon="0.88416">
        <ele>501.2</ele>
        <time>2023-07-23T06:51:05Z</time>
      </trkpt>
      <trkpt lat="42.1735" lon="0.88412">
        <ele>501.4</ele>
        <time>2023-07-23T06:51:06Z</time>
      </trkpt>
      <trkpt lat="42.17353" lon="0.88408">
        <ele>501.8</ele>
        <time>2023-07-23T06:51:07Z</time>
      </trkpt>
      <trkpt lat="42.17356" lon="0.88402">
        <ele>502</ele>
        <time>2023-07-23T06:51:08Z</time>
      </trkpt>
      <trkpt lat="42.17358" lon="0.88398">
        <ele>502.2</ele>
        <time>2023-07-23T06:51:09Z</time>
      </trkpt>
      <trkpt lat="42.1736" lon="0.88393">
        <ele>502.2</ele>
        <time>2023-07-23T06:51:10Z</time>
      </trkpt>
      <trkpt lat="42.17362" lon="0.88389">
        <ele>502.4</ele>
        <time>2023-07-23T06:51:11Z</time>
      </trkpt>
      <trkpt lat="42.17365" lon="0.88383">
        <ele>502.4</ele>
        <time>2023-07-23T06:51:12Z</time>
      </trkpt>
      <trkpt lat="42.17367" lon="0.88378">
        <ele>502.6</ele>
        <time>2023-07-23T06:51:13Z</time>
      </trkpt>
      <trkpt lat="42.17369" lon="0.88374">
        <ele>502.8</ele>
        <time>2023-07-23T06:51:14Z</time>
      </trkpt>
      <trkpt lat="42.17371" lon="0.8837">
        <ele>502.8</ele>
        <time>2023-07-23T06:51:15Z</time>
      </trkpt>
      <trkpt lat="42.17373" lon="0.88365">
        <ele>503.2</ele>
        <time>2023-07-23T06:51:16Z</time>
      </trkpt>
      <trkpt lat="42.17375" lon="0.88359">
        <ele>503.4</ele>
        <time>2023-07-23T06:51:17Z</time>
      </trkpt>
      <trkpt lat="42.17377" lon="0.88355">
        <ele>503.8</ele>
        <time>2023-07-23T06:51:18Z</time>
      </trkpt>
      <trkpt lat="42.17379" lon="0.88351">
        <ele>503.8</ele>
        <time>2023-07-23T06:51:19Z</time>
      </trkpt>
      <trkpt lat="42.17381" lon="0.88346">
        <ele>503.8</ele>
        <time>2023-07-23T06:51:20Z</time>
      </trkpt>
      <trkpt lat="42.17383" lon="0.88341">
        <ele>504</ele>
        <time>2023-07-23T06:51:21Z</time>
      </trkpt>
      <trkpt lat="42.17384" lon="0.88337">
        <ele>504.2</ele>
        <time>2023-07-23T06:51:22Z</time>
      </trkpt>
      <trkpt lat="42.17387" lon="0.88331">
        <ele>504.6</ele>
        <time>2023-07-23T06:51:23Z</time>
      </trkpt>
      <trkpt lat="42.17388" lon="0.88328">
        <ele>504.6</ele>
        <time>2023-07-23T06:51:24Z</time>
      </trkpt>
      <trkpt lat="42.1739" lon="0.88324">
        <ele>505</ele>
        <time>2023-07-23T06:51:25Z</time>
      </trkpt>
      <trkpt lat="42.17392" lon="0.88319">
        <ele>505.4</ele>
        <time>2023-07-23T06:51:26Z</time>
      </trkpt>
      <trkpt lat="42.17394" lon="0.88315">
        <ele>505.6</ele>
        <time>2023-07-23T06:51:27Z</time>
      </trkpt>
      <trkpt lat="42.17396" lon="0.88311">
        <ele>505.8</ele>
        <time>2023-07-23T06:51:28Z</time>
      </trkpt>
      <trkpt lat="42.17398" lon="0.88306">
        <ele>506</ele>
        <time>2023-07-23T06:51:29Z</time>
      </trkpt>
      <trkpt lat="42.174" lon="0.88301">
        <ele>506.2</ele>
        <time>2023-07-23T06:51:30Z</time>
      </trkpt>
      <trkpt lat="42.17403" lon="0.88297">
        <ele>506.4</ele>
        <time>2023-07-23T06:51:31Z</time>
      </trkpt>
      <trkpt lat="42.17406" lon="0.88293">
        <ele>506.4</ele>
        <time>2023-07-23T06:51:32Z</time>
      </trkpt>
      <trkpt lat="42.17408" lon="0.8829">
        <ele>506.6</ele>
        <time>2023-07-23T06:51:33Z</time>
      </trkpt>
      <trkpt lat="42.17411" lon="0.88285">
        <ele>506.6</ele>
        <time>2023-07-23T06:51:34Z</time>
      </trkpt>
      <trkpt lat="42.17414" lon="0.88282">
        <ele>506.6</ele>
        <time>2023-07-23T06:51:35Z</time>
      </trkpt>
      <trkpt lat="42.17417" lon="0.88278">
        <ele>506.8</ele>
        <time>2023-07-23T06:51:36Z</time>
      </trkpt>
      <trkpt lat="42.17419" lon="0.88275">
        <ele>506.8</ele>
        <time>2023-07-23T06:51:37Z</time>
      </trkpt>
      <trkpt lat="42.17422" lon="0.88271">
        <ele>506.8</ele>
        <time>2023-07-23T06:51:38Z</time>
      </trkpt>
      <trkpt lat="42.17425" lon="0.88266">
        <ele>507</ele>
        <time>2023-07-23T06:51:39Z</time>
      </trkpt>
      <trkpt lat="42.17428" lon="0.88262">
        <ele>507.2</ele>
        <time>2023-07-23T06:51:40Z</time>
      </trkpt>
      <trkpt lat="42.17431" lon="0.88258">
        <ele>507.2</ele>
        <time>2023-07-23T06:51:41Z</time>
      </trkpt>
      <trkpt lat="42.17433" lon="0.88255">
        <ele>507.4</ele>
        <time>2023-07-23T06:51:42Z</time>
      </trkpt>
      <trkpt lat="42.17436" lon="0.88251">
        <ele>507.4</ele>
        <time>2023-07-23T06:51:43Z</time>
      </trkpt>
      <trkpt lat="42.17439" lon="0.88247">
        <ele>507.8</ele>
        <time>2023-07-23T06:51:44Z</time>
      </trkpt>
      <trkpt lat="42.17442" lon="0.88242">
        <ele>507.8</ele>
        <time>2023-07-23T06:51:45Z</time>
      </trkpt>
      <trkpt lat="42.17444" lon="0.88238">
        <ele>508</ele>
        <time>2023-07-23T06:51:46Z</time>
      </trkpt>
      <trkpt lat="42.17447" lon="0.88234">
        <ele>508</ele>
        <time>2023-07-23T06:51:47Z</time>
      </trkpt>
      <trkpt lat="42.17449" lon="0.8823">
        <ele>508.2</ele>
        <time>2023-07-23T06:51:48Z</time>
      </trkpt>
      <trkpt lat="42.17453" lon="0.88225">
        <ele>508.4</ele>
        <time>2023-07-23T06:51:49Z</time>
      </trkpt>
      <trkpt lat="42.17455" lon="0.88222">
        <ele>508.4</ele>
        <time>2023-07-23T06:51:50Z</time>
      </trkpt>
      <trkpt lat="42.17457" lon="0.88218">
        <ele>508.6</ele>
        <time>2023-07-23T06:51:51Z</time>
      </trkpt>
      <trkpt lat="42.1746" lon="0.88214">
        <ele>508.8</ele>
        <time>2023-07-23T06:51:52Z</time>
      </trkpt>
      <trkpt lat="42.17463" lon="0.88209">
        <ele>508.8</ele>
        <time>2023-07-23T06:51:53Z</time>
      </trkpt>
      <trkpt lat="42.17465" lon="0.88206">
        <ele>508.8</ele>
        <time>2023-07-23T06:51:54Z</time>
      </trkpt>
      <trkpt lat="42.17467" lon="0.88202">
        <ele>509</ele>
        <time>2023-07-23T06:51:55Z</time>
      </trkpt>
      <trkpt lat="42.17469" lon="0.88198">
        <ele>509</ele>
        <time>2023-07-23T06:51:56Z</time>
      </trkpt>
      <trkpt lat="42.17472" lon="0.88193">
        <ele>509</ele>
        <time>2023-07-23T06:51:57Z</time>
      </trkpt>
      <trkpt lat="42.17474" lon="0.88189">
        <ele>509.4</ele>
        <time>2023-07-23T06:51:58Z</time>
      </trkpt>
      <trkpt lat="42.17476" lon="0.88184">
        <ele>509.6</ele>
        <time>2023-07-23T06:51:59Z</time>
      </trkpt>
      <trkpt lat="42.17479" lon="0.88179">
        <ele>509.6</ele>
        <time>2023-07-23T06:52:00Z</time>
      </trkpt>
      <trkpt lat="42.17481" lon="0.88174">
        <ele>509.8</ele>
        <time>2023-07-23T06:52:01Z</time>
      </trkpt>
      <trkpt lat="42.17483" lon="0.8817">
        <ele>509.8</ele>
        <time>2023-07-23T06:52:02Z</time>
      </trkpt>
      <trkpt lat="42.17485" lon="0.88165">
        <ele>510</ele>
        <time>2023-07-23T06:52:03Z</time>
      </trkpt>
      <trkpt lat="42.17487" lon="0.8816">
        <ele>510.2</ele>
        <time>2023-07-23T06:52:04Z</time>
      </trkpt>
      <trkpt lat="42.17489" lon="0.88155">
        <ele>510.6</ele>
        <time>2023-07-23T06:52:05Z</time>
      </trkpt>
      <trkpt lat="42.17491" lon="0.88149">
        <ele>510.8</ele>
        <time>2023-07-23T06:52:06Z</time>
      </trkpt>
      <trkpt lat="42.17493" lon="0.88144">
        <ele>510.8</ele>
        <time>2023-07-23T06:52:07Z</time>
      </trkpt>
      <trkpt lat="42.17495" lon="0.88139">
        <ele>511</ele>
        <time>2023-07-23T06:52:08Z</time>
      </trkpt>
      <trkpt lat="42.17497" lon="0.88134">
        <ele>511</ele>
        <time>2023-07-23T06:52:09Z</time>
      </trkpt>
      <trkpt lat="42.175" lon="0.88129">
        <ele>511.2</ele>
        <time>2023-07-23T06:52:10Z</time>
      </trkpt>
      <trkpt lat="42.17502" lon="0.88124">
        <ele>511.4</ele>
        <time>2023-07-23T06:52:11Z</time>
      </trkpt>
      <trkpt lat="42.17504" lon="0.8812">
        <ele>511.6</ele>
        <time>2023-07-23T06:52:12Z</time>
      </trkpt>
      <trkpt lat="42.17506" lon="0.88115">
        <ele>512</ele>
        <time>2023-07-23T06:52:13Z</time>
      </trkpt>
      <trkpt lat="42.17508" lon="0.8811">
        <ele>512</ele>
        <time>2023-07-23T06:52:14Z</time>
      </trkpt>
      <trkpt lat="42.17509" lon="0.88104">
        <ele>512.2</ele>
        <time>2023-07-23T06:52:15Z</time>
      </trkpt>
      <trkpt lat="42.17511" lon="0.88099">
        <ele>512.4</ele>
        <time>2023-07-23T06:52:16Z</time>
      </trkpt>
      <trkpt lat="42.17512" lon="0.88092">
        <ele>512.6</ele>
        <time>2023-07-23T06:52:17Z</time>
      </trkpt>
      <trkpt lat="42.17513" lon="0.88087">
        <ele>512.8</ele>
        <time>2023-07-23T06:52:18Z</time>
      </trkpt>
      <trkpt lat="42.17514" lon="0.88081">
        <ele>512.8</ele>
        <time>2023-07-23T06:52:19Z</time>
      </trkpt>
      <trkpt lat="42.17514" lon="0.88075">
        <ele>513</ele>
        <time>2023-07-23T06:52:20Z</time>
      </trkpt>
      <trkpt lat="42.17515" lon="0.8807">
        <ele>513</ele>
        <time>2023-07-23T06:52:21Z</time>
      </trkpt>
      <trkpt lat="42.17515" lon="0.88065">
        <ele>513</ele>
        <time>2023-07-23T06:52:22Z</time>
      </trkpt>
      <trkpt lat="42.17516" lon="0.88059">
        <ele>513</ele>
        <time>2023-07-23T06:52:23Z</time>
      </trkpt>
      <trkpt lat="42.17517" lon="0.88054">
        <ele>513.2</ele>
        <time>2023-07-23T06:52:24Z</time>
      </trkpt>
      <trkpt lat="42.17518" lon="0.88048">
        <ele>513.6</ele>
        <time>2023-07-23T06:52:25Z</time>
      </trkpt>
      <trkpt lat="42.1752" lon="0.88043">
        <ele>513.6</ele>
        <time>2023-07-23T06:52:26Z</time>
      </trkpt>
      <trkpt lat="42.17522" lon="0.88037">
        <ele>513.8</ele>
        <time>2023-07-23T06:52:27Z</time>
      </trkpt>
      <trkpt lat="42.17524" lon="0.88031">
        <ele>514</ele>
        <time>2023-07-23T06:52:28Z</time>
      </trkpt>
      <trkpt lat="42.17525" lon="0.88027">
        <ele>514.2</ele>
        <time>2023-07-23T06:52:29Z</time>
      </trkpt>
      <trkpt lat="42.17527" lon="0.88021">
        <ele>514.2</ele>
        <time>2023-07-23T06:52:30Z</time>
      </trkpt>
      <trkpt lat="42.17529" lon="0.88016">
        <ele>514.4</ele>
        <time>2023-07-23T06:52:31Z</time>
      </trkpt>
      <trkpt lat="42.17531" lon="0.88011">
        <ele>514.6</ele>
        <time>2023-07-23T06:52:32Z</time>
      </trkpt>
      <trkpt lat="42.17533" lon="0.88005">
        <ele>514.6</ele>
        <time>2023-07-23T06:52:33Z</time>
      </trkpt>
      <trkpt lat="42.17535" lon="0.88001">
        <ele>514.8</ele>
        <time>2023-07-23T06:52:34Z</time>
      </trkpt>
      <trkpt lat="42.17537" lon="0.87996">
        <ele>514.8</ele>
        <time>2023-07-23T06:52:35Z</time>
      </trkpt>
      <trkpt lat="42.17538" lon="0.87991">
        <ele>514.8</ele>
        <time>2023-07-23T06:52:36Z</time>
      </trkpt>
      <trkpt lat="42.17541" lon="0.87984">
        <ele>515</ele>
        <time>2023-07-23T06:52:37Z</time>
      </trkpt>
      <trkpt lat="42.17542" lon="0.87981">
        <ele>515.2</ele>
        <time>2023-07-23T06:52:38Z</time>
      </trkpt>
      <trkpt lat="42.17545" lon="0.87975">
        <ele>515.6</ele>
        <time>2023-07-23T06:52:39Z</time>
      </trkpt>
      <trkpt lat="42.17547" lon="0.87971">
        <ele>515.6</ele>
        <time>2023-07-23T06:52:40Z</time>
      </trkpt>
      <trkpt lat="42.17549" lon="0.87966">
        <ele>515.8</ele>
        <time>2023-07-23T06:52:41Z</time>
      </trkpt>
      <trkpt lat="42.17552" lon="0.87962">
        <ele>515.8</ele>
        <time>2023-07-23T06:52:42Z</time>
      </trkpt>
      <trkpt lat="42.17554" lon="0.87956">
        <ele>516</ele>
        <time>2023-07-23T06:52:43Z</time>
      </trkpt>
      <trkpt lat="42.17556" lon="0.87953">
        <ele>516</ele>
        <time>2023-07-23T06:52:44Z</time>
      </trkpt>
      <trkpt lat="42.17559" lon="0.87948">
        <ele>516.2</ele>
        <time>2023-07-23T06:52:45Z</time>
      </trkpt>
      <trkpt lat="42.17561" lon="0.87944">
        <ele>516.4</ele>
        <time>2023-07-23T06:52:46Z</time>
      </trkpt>
      <trkpt lat="42.17564" lon="0.8794">
        <ele>516.4</ele>
        <time>2023-07-23T06:52:47Z</time>
      </trkpt>
      <trkpt lat="42.17566" lon="0.87934">
        <ele>516.6</ele>
        <time>2023-07-23T06:52:48Z</time>
      </trkpt>
      <trkpt lat="42.17568" lon="0.87931">
        <ele>516.8</ele>
        <time>2023-07-23T06:52:49Z</time>
      </trkpt>
      <trkpt lat="42.1757" lon="0.87926">
        <ele>517</ele>
        <time>2023-07-23T06:52:50Z</time>
      </trkpt>
      <trkpt lat="42.17572" lon="0.87922">
        <ele>517</ele>
        <time>2023-07-23T06:52:51Z</time>
      </trkpt>
      <trkpt lat="42.17574" lon="0.87917">
        <ele>517.2</ele>
        <time>2023-07-23T06:52:52Z</time>
      </trkpt>
      <trkpt lat="42.17576" lon="0.87913">
        <ele>517.4</ele>
        <time>2023-07-23T06:52:53Z</time>
      </trkpt>
      <trkpt lat="42.17578" lon="0.87909">
        <ele>517.6</ele>
        <time>2023-07-23T06:52:54Z</time>
      </trkpt>
      <trkpt lat="42.1758" lon="0.87905">
        <ele>517.8</ele>
        <time>2023-07-23T06:52:55Z</time>
      </trkpt>
      <trkpt lat="42.17582" lon="0.87902">
        <ele>518</ele>
        <time>2023-07-23T06:52:56Z</time>
      </trkpt>
      <trkpt lat="42.17584" lon="0.87898">
        <ele>518.4</ele>
        <time>2023-07-23T06:52:57Z</time>
      </trkpt>
      <trkpt lat="42.17586" lon="0.87895">
        <ele>518.6</ele>
        <time>2023-07-23T06:52:58Z</time>
      </trkpt>
      <trkpt lat="42.17589" lon="0.87892">
        <ele>519</ele>
        <time>2023-07-23T06:52:59Z</time>
      </trkpt>
      <trkpt lat="42.17592" lon="0.87887">
        <ele>519.4</ele>
        <time>2023-07-23T06:53:00Z</time>
      </trkpt>
      <trkpt lat="42.17595" lon="0.87884">
        <ele>519.4</ele>
        <time>2023-07-23T06:53:01Z</time>
      </trkpt>
      <trkpt lat="42.17599" lon="0.8788">
        <ele>519.6</ele>
        <time>2023-07-23T06:53:02Z</time>
      </trkpt>
      <trkpt lat="42.17601" lon="0.87876">
        <ele>519.6</ele>
        <time>2023-07-23T06:53:03Z</time>
      </trkpt>
      <trkpt lat="42.17604" lon="0.87872">
        <ele>519.8</ele>
        <time>2023-07-23T06:53:04Z</time>
      </trkpt>
      <trkpt lat="42.17608" lon="0.87867">
        <ele>519.8</ele>
        <time>2023-07-23T06:53:05Z</time>
      </trkpt>
      <trkpt lat="42.17611" lon="0.87863">
        <ele>520</ele>
        <time>2023-07-23T06:53:06Z</time>
      </trkpt>
      <trkpt lat="42.17614" lon="0.8786">
        <ele>520.2</ele>
        <time>2023-07-23T06:53:07Z</time>
      </trkpt>
      <trkpt lat="42.17617" lon="0.87856">
        <ele>520.2</ele>
        <time>2023-07-23T06:53:08Z</time>
      </trkpt>
      <trkpt lat="42.1762" lon="0.87851">
        <ele>520.4</ele>
        <time>2023-07-23T06:53:09Z</time>
      </trkpt>
      <trkpt lat="42.17623" lon="0.87847">
        <ele>520.4</ele>
        <time>2023-07-23T06:53:10Z</time>
      </trkpt>
      <trkpt lat="42.17626" lon="0.87843">
        <ele>520.6</ele>
        <time>2023-07-23T06:53:11Z</time>
      </trkpt>
      <trkpt lat="42.17628" lon="0.8784">
        <ele>520.8</ele>
        <time>2023-07-23T06:53:12Z</time>
      </trkpt>
      <trkpt lat="42.17631" lon="0.87836">
        <ele>520.8</ele>
        <time>2023-07-23T06:53:13Z</time>
      </trkpt>
      <trkpt lat="42.17633" lon="0.87832">
        <ele>521</ele>
        <time>2023-07-23T06:53:14Z</time>
      </trkpt>
      <trkpt lat="42.17637" lon="0.87827">
        <ele>521</ele>
        <time>2023-07-23T06:53:15Z</time>
      </trkpt>
      <trkpt lat="42.17639" lon="0.87824">
        <ele>521</ele>
        <time>2023-07-23T06:53:16Z</time>
      </trkpt>
      <trkpt lat="42.17641" lon="0.8782">
        <ele>521</ele>
        <time>2023-07-23T06:53:17Z</time>
      </trkpt>
      <trkpt lat="42.17644" lon="0.87816">
        <ele>521.2</ele>
        <time>2023-07-23T06:53:18Z</time>
      </trkpt>
      <trkpt lat="42.17648" lon="0.87811">
        <ele>521.2</ele>
        <time>2023-07-23T06:53:19Z</time>
      </trkpt>
      <trkpt lat="42.1765" lon="0.87808">
        <ele>521.2</ele>
        <time>2023-07-23T06:53:20Z</time>
      </trkpt>
      <trkpt lat="42.17653" lon="0.87804">
        <ele>521.4</ele>
        <time>2023-07-23T06:53:21Z</time>
      </trkpt>
      <trkpt lat="42.17656" lon="0.878">
        <ele>521.6</ele>
        <time>2023-07-23T06:53:22Z</time>
      </trkpt>
      <trkpt lat="42.17659" lon="0.87797">
        <ele>521.6</ele>
        <time>2023-07-23T06:53:23Z</time>
      </trkpt>
      <trkpt lat="42.17663" lon="0.87792">
        <ele>521.8</ele>
        <time>2023-07-23T06:53:24Z</time>
      </trkpt>
      <trkpt lat="42.17666" lon="0.8779">
        <ele>522</ele>
        <time>2023-07-23T06:53:25Z</time>
      </trkpt>
      <trkpt lat="42.17669" lon="0.87786">
        <ele>522</ele>
        <time>2023-07-23T06:53:26Z</time>
      </trkpt>
      <trkpt lat="42.17672" lon="0.87783">
        <ele>522.2</ele>
        <time>2023-07-23T06:53:27Z</time>
      </trkpt>
      <trkpt lat="42.17675" lon="0.87779">
        <ele>522.2</ele>
        <time>2023-07-23T06:53:28Z</time>
      </trkpt>
      <trkpt lat="42.17678" lon="0.87776">
        <ele>522.4</ele>
        <time>2023-07-23T06:53:29Z</time>
      </trkpt>
      <trkpt lat="42.17681" lon="0.87775">
        <ele>522.6</ele>
        <time>2023-07-23T06:53:30Z</time>
      </trkpt>
      <trkpt lat="42.17685" lon="0.87775">
        <ele>522.8</ele>
        <time>2023-07-23T06:53:31Z</time>
      </trkpt>
      <trkpt lat="42.17688" lon="0.87778">
        <ele>522.8</ele>
        <time>2023-07-23T06:53:32Z</time>
      </trkpt>
      <trkpt lat="42.17691" lon="0.87782">
        <ele>523</ele>
        <time>2023-07-23T06:53:33Z</time>
      </trkpt>
      <trkpt lat="42.17693" lon="0.87786">
        <ele>523.2</ele>
        <time>2023-07-23T06:53:34Z</time>
      </trkpt>
      <trkpt lat="42.17696" lon="0.87791">
        <ele>523.4</ele>
        <time>2023-07-23T06:53:35Z</time>
      </trkpt>
      <trkpt lat="42.17699" lon="0.87795">
        <ele>523.6</ele>
        <time>2023-07-23T06:53:36Z</time>
      </trkpt>
      <trkpt lat="42.17702" lon="0.878">
        <ele>523.8</ele>
        <time>2023-07-23T06:53:37Z</time>
      </trkpt>
      <trkpt lat="42.17706" lon="0.87805">
        <ele>524</ele>
        <time>2023-07-23T06:53:38Z</time>
      </trkpt>
      <trkpt lat="42.17708" lon="0.87809">
        <ele>524.2</ele>
        <time>2023-07-23T06:53:39Z</time>
      </trkpt>
      <trkpt lat="42.17711" lon="0.87813">
        <ele>524.2</ele>
        <time>2023-07-23T06:53:40Z</time>
      </trkpt>
      <trkpt lat="42.17714" lon="0.87818">
        <ele>524.2</ele>
        <time>2023-07-23T06:53:41Z</time>
      </trkpt>
      <trkpt lat="42.17717" lon="0.87822">
        <ele>524.2</ele>
        <time>2023-07-23T06:53:42Z</time>
      </trkpt>
      <trkpt lat="42.17721" lon="0.87827">
        <ele>524.4</ele>
        <time>2023-07-23T06:53:43Z</time>
      </trkpt>
      <trkpt lat="42.17724" lon="0.87831">
        <ele>524.4</ele>
        <time>2023-07-23T06:53:44Z</time>
      </trkpt>
      <trkpt lat="42.17727" lon="0.87836">
        <ele>524.4</ele>
        <time>2023-07-23T06:53:45Z</time>
      </trkpt>
      <trkpt lat="42.1773" lon="0.8784">
        <ele>524.4</ele>
        <time>2023-07-23T06:53:46Z</time>
      </trkpt>
      <trkpt lat="42.17733" lon="0.87845">
        <ele>524.2</ele>
        <time>2023-07-23T06:53:47Z</time>
      </trkpt>
      <trkpt lat="42.17736" lon="0.8785">
        <ele>524.2</ele>
        <time>2023-07-23T06:53:48Z</time>
      </trkpt>
      <trkpt lat="42.17739" lon="0.87854">
        <ele>524.2</ele>
        <time>2023-07-23T06:53:49Z</time>
      </trkpt>
      <trkpt lat="42.17742" lon="0.87859">
        <ele>524.2</ele>
        <time>2023-07-23T06:53:50Z</time>
      </trkpt>
      <trkpt lat="42.17746" lon="0.87863">
        <ele>524.2</ele>
        <time>2023-07-23T06:53:51Z</time>
      </trkpt>
      <trkpt lat="42.17749" lon="0.87868">
        <ele>524.2</ele>
        <time>2023-07-23T06:53:52Z</time>
      </trkpt>
      <trkpt lat="42.17752" lon="0.87873">
        <ele>524.2</ele>
        <time>2023-07-23T06:53:53Z</time>
      </trkpt>
      <trkpt lat="42.17755" lon="0.87877">
        <ele>524.2</ele>
        <time>2023-07-23T06:53:54Z</time>
      </trkpt>
      <trkpt lat="42.17758" lon="0.87881">
        <ele>524.2</ele>
        <time>2023-07-23T06:53:55Z</time>
      </trkpt>
      <trkpt lat="42.17761" lon="0.87886">
        <ele>524.2</ele>
        <time>2023-07-23T06:53:56Z</time>
      </trkpt>
      <trkpt lat="42.17764" lon="0.8789">
        <ele>524.2</ele>
        <time>2023-07-23T06:53:57Z</time>
      </trkpt>
      <trkpt lat="42.17767" lon="0.87895">
        <ele>524.2</ele>
        <time>2023-07-23T06:53:58Z</time>
      </trkpt>
      <trkpt lat="42.17771" lon="0.87899">
        <ele>524.2</ele>
        <time>2023-07-23T06:53:59Z</time>
      </trkpt>
      <trkpt lat="42.17774" lon="0.87903">
        <ele>524.2</ele>
        <time>2023-07-23T06:54:00Z</time>
      </trkpt>
      <trkpt lat="42.17778" lon="0.87908">
        <ele>524.2</ele>
        <time>2023-07-23T06:54:01Z</time>
      </trkpt>
      <trkpt lat="42.17781" lon="0.87912">
        <ele>524.2</ele>
        <time>2023-07-23T06:54:02Z</time>
      </trkpt>
      <trkpt lat="42.17784" lon="0.87916">
        <ele>524.2</ele>
        <time>2023-07-23T06:54:03Z</time>
      </trkpt>
      <trkpt lat="42.17788" lon="0.87921">
        <ele>524.2</ele>
        <time>2023-07-23T06:54:04Z</time>
      </trkpt>
      <trkpt lat="42.17792" lon="0.87925">
        <ele>524.2</ele>
        <time>2023-07-23T06:54:05Z</time>
      </trkpt>
      <trkpt lat="42.17797" lon="0.87928">
        <ele>524.2</ele>
        <time>2023-07-23T06:54:06Z</time>
      </trkpt>
      <trkpt lat="42.17802" lon="0.87929">
        <ele>524.2</ele>
        <time>2023-07-23T06:54:07Z</time>
      </trkpt>
      <trkpt lat="42.17807" lon="0.87927">
        <ele>524</ele>
        <time>2023-07-23T06:54:08Z</time>
      </trkpt>
      <trkpt lat="42.17811" lon="0.87924">
        <ele>524</ele>
        <time>2023-07-23T06:54:09Z</time>
      </trkpt>
      <trkpt lat="42.17815" lon="0.87919">
        <ele>523.8</ele>
        <time>2023-07-23T06:54:10Z</time>
      </trkpt>
      <trkpt lat="42.17818" lon="0.87915">
        <ele>523.6</ele>
        <time>2023-07-23T06:54:11Z</time>
      </trkpt>
      <trkpt lat="42.17822" lon="0.87911">
        <ele>523.4</ele>
        <time>2023-07-23T06:54:12Z</time>
      </trkpt>
      <trkpt lat="42.17826" lon="0.87907">
        <ele>523.4</ele>
        <time>2023-07-23T06:54:13Z</time>
      </trkpt>
      <trkpt lat="42.1783" lon="0.87905">
        <ele>523.2</ele>
        <time>2023-07-23T06:54:14Z</time>
      </trkpt>
      <trkpt lat="42.17836" lon="0.87902">
        <ele>523.2</ele>
        <time>2023-07-23T06:54:15Z</time>
      </trkpt>
      <trkpt lat="42.17839" lon="0.87901">
        <ele>523.2</ele>
        <time>2023-07-23T06:54:16Z</time>
      </trkpt>
      <trkpt lat="42.17843" lon="0.879">
        <ele>523.2</ele>
        <time>2023-07-23T06:54:17Z</time>
      </trkpt>
      <trkpt lat="42.17848" lon="0.87899">
        <ele>523.2</ele>
        <time>2023-07-23T06:54:18Z</time>
      </trkpt>
      <trkpt lat="42.17852" lon="0.87898">
        <ele>523.2</ele>
        <time>2023-07-23T06:54:19Z</time>
      </trkpt>
      <trkpt lat="42.17856" lon="0.87897">
        <ele>523.6</ele>
        <time>2023-07-23T06:54:20Z</time>
      </trkpt>
      <trkpt lat="42.17861" lon="0.87898">
        <ele>523.6</ele>
        <time>2023-07-23T06:54:21Z</time>
      </trkpt>
      <trkpt lat="42.17866" lon="0.87898">
        <ele>523.6</ele>
        <time>2023-07-23T06:54:22Z</time>
      </trkpt>
      <trkpt lat="42.17871" lon="0.879">
        <ele>523.6</ele>
        <time>2023-07-23T06:54:23Z</time>
      </trkpt>
      <trkpt lat="42.17877" lon="0.87901">
        <ele>523.6</ele>
        <time>2023-07-23T06:54:24Z</time>
      </trkpt>
      <trkpt lat="42.17883" lon="0.87904">
        <ele>523.2</ele>
        <time>2023-07-23T06:54:25Z</time>
      </trkpt>
      <trkpt lat="42.17888" lon="0.87907">
        <ele>523.4</ele>
        <time>2023-07-23T06:54:26Z</time>
      </trkpt>
      <trkpt lat="42.17894" lon="0.8791">
        <ele>523.4</ele>
        <time>2023-07-23T06:54:27Z</time>
      </trkpt>
      <trkpt lat="42.17899" lon="0.87912">
        <ele>523.2</ele>
        <time>2023-07-23T06:54:28Z</time>
      </trkpt>
      <trkpt lat="42.17904" lon="0.87913">
        <ele>523.2</ele>
        <time>2023-07-23T06:54:29Z</time>
      </trkpt>
      <trkpt lat="42.17909" lon="0.87912">
        <ele>523.2</ele>
        <time>2023-07-23T06:54:30Z</time>
      </trkpt>
      <trkpt lat="42.17913" lon="0.8791">
        <ele>523</ele>
        <time>2023-07-23T06:54:31Z</time>
      </trkpt>
      <trkpt lat="42.17917" lon="0.87907">
        <ele>522.8</ele>
        <time>2023-07-23T06:54:32Z</time>
      </trkpt>
      <trkpt lat="42.17921" lon="0.87904">
        <ele>522.6</ele>
        <time>2023-07-23T06:54:33Z</time>
      </trkpt>
      <trkpt lat="42.17924" lon="0.87903">
        <ele>522.6</ele>
        <time>2023-07-23T06:54:34Z</time>
      </trkpt>
      <trkpt lat="42.17929" lon="0.87901">
        <ele>522.6</ele>
        <time>2023-07-23T06:54:35Z</time>
      </trkpt>
      <trkpt lat="42.17933" lon="0.879">
        <ele>522.6</ele>
        <time>2023-07-23T06:54:36Z</time>
      </trkpt>
      <trkpt lat="42.17936" lon="0.87897">
        <ele>522.6</ele>
        <time>2023-07-23T06:54:37Z</time>
      </trkpt>
      <trkpt lat="42.17939" lon="0.87895">
        <ele>522.6</ele>
        <time>2023-07-23T06:54:38Z</time>
      </trkpt>
      <trkpt lat="42.17942" lon="0.87891">
        <ele>522.8</ele>
        <time>2023-07-23T06:54:39Z</time>
      </trkpt>
      <trkpt lat="42.17944" lon="0.87886">
        <ele>522.8</ele>
        <time>2023-07-23T06:54:40Z</time>
      </trkpt>
      <trkpt lat="42.17946" lon="0.87881">
        <ele>523</ele>
        <time>2023-07-23T06:54:41Z</time>
      </trkpt>
      <trkpt lat="42.17947" lon="0.87875">
        <ele>523</ele>
        <time>2023-07-23T06:54:42Z</time>
      </trkpt>
      <trkpt lat="42.17949" lon="0.87869">
        <ele>523</ele>
        <time>2023-07-23T06:54:43Z</time>
      </trkpt>
      <trkpt lat="42.1795" lon="0.87862">
        <ele>523</ele>
        <time>2023-07-23T06:54:44Z</time>
      </trkpt>
      <trkpt lat="42.17951" lon="0.87857">
        <ele>523</ele>
        <time>2023-07-23T06:54:45Z</time>
      </trkpt>
      <trkpt lat="42.17953" lon="0.87851">
        <ele>523.2</ele>
        <time>2023-07-23T06:54:46Z</time>
      </trkpt>
      <trkpt lat="42.17955" lon="0.87844">
        <ele>523.2</ele>
        <time>2023-07-23T06:54:47Z</time>
      </trkpt>
      <trkpt lat="42.17956" lon="0.8784">
        <ele>523.2</ele>
        <time>2023-07-23T06:54:48Z</time>
      </trkpt>
      <trkpt lat="42.17957" lon="0.87835">
        <ele>523.4</ele>
        <time>2023-07-23T06:54:49Z</time>
      </trkpt>
      <trkpt lat="42.17958" lon="0.87831">
        <ele>523.6</ele>
        <time>2023-07-23T06:54:50Z</time>
      </trkpt>
      <trkpt lat="42.17958" lon="0.87827">
        <ele>523.6</ele>
        <time>2023-07-23T06:54:51Z</time>
      </trkpt>
      <trkpt lat="42.17958" lon="0.87822">
        <ele>523.8</ele>
        <time>2023-07-23T06:54:52Z</time>
      </trkpt>
      <trkpt lat="42.17958" lon="0.87818">
        <ele>523.8</ele>
        <time>2023-07-23T06:54:53Z</time>
      </trkpt>
      <trkpt lat="42.17958" lon="0.87813">
        <ele>524</ele>
        <time>2023-07-23T06:54:54Z</time>
      </trkpt>
      <trkpt lat="42.17957" lon="0.87808">
        <ele>524.8</ele>
        <time>2023-07-23T06:54:55Z</time>
      </trkpt>
      <trkpt lat="42.17957" lon="0.87803">
        <ele>525</ele>
        <time>2023-07-23T06:54:56Z</time>
      </trkpt>
      <trkpt lat="42.17957" lon="0.87798">
        <ele>525.4</ele>
        <time>2023-07-23T06:54:57Z</time>
      </trkpt>
      <trkpt lat="42.17956" lon="0.87793">
        <ele>525.8</ele>
        <time>2023-07-23T06:54:58Z</time>
      </trkpt>
      <trkpt lat="42.17956" lon="0.87788">
        <ele>525.8</ele>
        <time>2023-07-23T06:54:59Z</time>
      </trkpt>
      <trkpt lat="42.17957" lon="0.87783">
        <ele>526</ele>
        <time>2023-07-23T06:55:00Z</time>
      </trkpt>
      <trkpt lat="42.17958" lon="0.87779">
        <ele>526</ele>
        <time>2023-07-23T06:55:01Z</time>
      </trkpt>
      <trkpt lat="42.17961" lon="0.87777">
        <ele>526.4</ele>
        <time>2023-07-23T06:55:02Z</time>
      </trkpt>
      <trkpt lat="42.17965" lon="0.87775">
        <ele>526.4</ele>
        <time>2023-07-23T06:55:03Z</time>
      </trkpt>
      <trkpt lat="42.17968" lon="0.87775">
        <ele>526.6</ele>
        <time>2023-07-23T06:55:04Z</time>
      </trkpt>
      <trkpt lat="42.17971" lon="0.87776">
        <ele>526.8</ele>
        <time>2023-07-23T06:55:05Z</time>
      </trkpt>
      <trkpt lat="42.17975" lon="0.87777">
        <ele>526.8</ele>
        <time>2023-07-23T06:55:06Z</time>
      </trkpt>
      <trkpt lat="42.17977" lon="0.87778">
        <ele>527</ele>
        <time>2023-07-23T06:55:07Z</time>
      </trkpt>
      <trkpt lat="42.1798" lon="0.87781">
        <ele>527</ele>
        <time>2023-07-23T06:55:08Z</time>
      </trkpt>
      <trkpt lat="42.17984" lon="0.87782">
        <ele>527.2</ele>
        <time>2023-07-23T06:55:09Z</time>
      </trkpt>
      <trkpt lat="42.17988" lon="0.87784">
        <ele>527.4</ele>
        <time>2023-07-23T06:55:10Z</time>
      </trkpt>
      <trkpt lat="42.17992" lon="0.87785">
        <ele>527.6</ele>
        <time>2023-07-23T06:55:11Z</time>
      </trkpt>
      <trkpt lat="42.17996" lon="0.87786">
        <ele>527.8</ele>
        <time>2023-07-23T06:55:12Z</time>
      </trkpt>
      <trkpt lat="42.18" lon="0.87786">
        <ele>528</ele>
        <time>2023-07-23T06:55:13Z</time>
      </trkpt>
      <trkpt lat="42.18005" lon="0.87786">
        <ele>528.2</ele>
        <time>2023-07-23T06:55:14Z</time>
      </trkpt>
      <trkpt lat="42.18009" lon="0.87786">
        <ele>528.2</ele>
        <time>2023-07-23T06:55:15Z</time>
      </trkpt>
      <trkpt lat="42.18014" lon="0.87786">
        <ele>528.4</ele>
        <time>2023-07-23T06:55:16Z</time>
      </trkpt>
      <trkpt lat="42.18018" lon="0.87786">
        <ele>528.4</ele>
        <time>2023-07-23T06:55:17Z</time>
      </trkpt>
      <trkpt lat="42.18022" lon="0.87785">
        <ele>528.4</ele>
        <time>2023-07-23T06:55:18Z</time>
      </trkpt>
      <trkpt lat="42.18026" lon="0.87785">
        <ele>528.4</ele>
        <time>2023-07-23T06:55:19Z</time>
      </trkpt>
      <trkpt lat="42.1803" lon="0.87785">
        <ele>528.6</ele>
        <time>2023-07-23T06:55:20Z</time>
      </trkpt>
      <trkpt lat="42.18035" lon="0.87785">
        <ele>528.6</ele>
        <time>2023-07-23T06:55:21Z</time>
      </trkpt>
      <trkpt lat="42.18039" lon="0.87785">
        <ele>528.6</ele>
        <time>2023-07-23T06:55:22Z</time>
      </trkpt>
      <trkpt lat="42.18043" lon="0.87785">
        <ele>528.8</ele>
        <time>2023-07-23T06:55:23Z</time>
      </trkpt>
      <trkpt lat="42.18048" lon="0.87785">
        <ele>528.8</ele>
        <time>2023-07-23T06:55:24Z</time>
      </trkpt>
      <trkpt lat="42.18052" lon="0.87785">
        <ele>528.8</ele>
        <time>2023-07-23T06:55:25Z</time>
      </trkpt>
      <trkpt lat="42.18056" lon="0.87784">
        <ele>528.8</ele>
        <time>2023-07-23T06:55:26Z</time>
      </trkpt>
      <trkpt lat="42.1806" lon="0.87783">
        <ele>528.8</ele>
        <time>2023-07-23T06:55:27Z</time>
      </trkpt>
      <trkpt lat="42.18064" lon="0.87782">
        <ele>528.8</ele>
        <time>2023-07-23T06:55:28Z</time>
      </trkpt>
      <trkpt lat="42.18069" lon="0.8778">
        <ele>529</ele>
        <time>2023-07-23T06:55:29Z</time>
      </trkpt>
      <trkpt lat="42.18072" lon="0.87779">
        <ele>529</ele>
        <time>2023-07-23T06:55:30Z</time>
      </trkpt>
      <trkpt lat="42.18076" lon="0.87777">
        <ele>529</ele>
        <time>2023-07-23T06:55:31Z</time>
      </trkpt>
      <trkpt lat="42.18079" lon="0.87775">
        <ele>529</ele>
        <time>2023-07-23T06:55:32Z</time>
      </trkpt>
      <trkpt lat="42.18083" lon="0.87773">
        <ele>529.2</ele>
        <time>2023-07-23T06:55:33Z</time>
      </trkpt>
      <trkpt lat="42.18087" lon="0.8777">
        <ele>529.2</ele>
        <time>2023-07-23T06:55:34Z</time>
      </trkpt>
      <trkpt lat="42.1809" lon="0.87767">
        <ele>529.4</ele>
        <time>2023-07-23T06:55:35Z</time>
      </trkpt>
      <trkpt lat="42.18093" lon="0.87764">
        <ele>529.4</ele>
        <time>2023-07-23T06:55:36Z</time>
      </trkpt>
      <trkpt lat="42.18097" lon="0.87761">
        <ele>529.4</ele>
        <time>2023-07-23T06:55:37Z</time>
      </trkpt>
      <trkpt lat="42.181" lon="0.87758">
        <ele>529.4</ele>
        <time>2023-07-23T06:55:38Z</time>
      </trkpt>
      <trkpt lat="42.18103" lon="0.87755">
        <ele>529.6</ele>
        <time>2023-07-23T06:55:39Z</time>
      </trkpt>
      <trkpt lat="42.18106" lon="0.87752">
        <ele>529.8</ele>
        <time>2023-07-23T06:55:40Z</time>
      </trkpt>
      <trkpt lat="42.1811" lon="0.8775">
        <ele>530</ele>
        <time>2023-07-23T06:55:41Z</time>
      </trkpt>
      <trkpt lat="42.18114" lon="0.87747">
        <ele>530.2</ele>
        <time>2023-07-23T06:55:42Z</time>
      </trkpt>
      <trkpt lat="42.18117" lon="0.87746">
        <ele>530.4</ele>
        <time>2023-07-23T06:55:43Z</time>
      </trkpt>
      <trkpt lat="42.18121" lon="0.87744">
        <ele>530.4</ele>
        <time>2023-07-23T06:55:44Z</time>
      </trkpt>
      <trkpt lat="42.18124" lon="0.87741">
        <ele>530.6</ele>
        <time>2023-07-23T06:55:45Z</time>
      </trkpt>
      <trkpt lat="42.18126" lon="0.87739">
        <ele>530.6</ele>
        <time>2023-07-23T06:55:46Z</time>
      </trkpt>
      <trkpt lat="42.18129" lon="0.87736">
        <ele>530.8</ele>
        <time>2023-07-23T06:55:47Z</time>
      </trkpt>
      <trkpt lat="42.18131" lon="0.87734">
        <ele>530.8</ele>
        <time>2023-07-23T06:55:48Z</time>
      </trkpt>
      <trkpt lat="42.18134" lon="0.87733">
        <ele>531</ele>
        <time>2023-07-23T06:55:49Z</time>
      </trkpt>
      <trkpt lat="42.18137" lon="0.87732">
        <ele>531</ele>
        <time>2023-07-23T06:55:50Z</time>
      </trkpt>
      <trkpt lat="42.1814" lon="0.87732">
        <ele>531</ele>
        <time>2023-07-23T06:55:51Z</time>
      </trkpt>
      <trkpt lat="42.18143" lon="0.87732">
        <ele>531</ele>
        <time>2023-07-23T06:55:52Z</time>
      </trkpt>
      <trkpt lat="42.18146" lon="0.87733">
        <ele>531</ele>
        <time>2023-07-23T06:55:53Z</time>
      </trkpt>
      <trkpt lat="42.18149" lon="0.87733">
        <ele>531</ele>
        <time>2023-07-23T06:55:54Z</time>
      </trkpt>
      <trkpt lat="42.18152" lon="0.87732">
        <ele>531.2</ele>
        <time>2023-07-23T06:55:55Z</time>
      </trkpt>
      <trkpt lat="42.18155" lon="0.87732">
        <ele>531.2</ele>
        <time>2023-07-23T06:55:56Z</time>
      </trkpt>
      <trkpt lat="42.18157" lon="0.8773">
        <ele>531.2</ele>
        <time>2023-07-23T06:55:57Z</time>
      </trkpt>
      <trkpt lat="42.18159" lon="0.87729">
        <ele>531.4</ele>
        <time>2023-07-23T06:55:58Z</time>
      </trkpt>
      <trkpt lat="42.18161" lon="0.87728">
        <ele>531.6</ele>
        <time>2023-07-23T06:55:59Z</time>
      </trkpt>
      <trkpt lat="42.18163" lon="0.87727">
        <ele>531.8</ele>
        <time>2023-07-23T06:56:00Z</time>
      </trkpt>
      <trkpt lat="42.18166" lon="0.87728">
        <ele>532</ele>
        <time>2023-07-23T06:56:01Z</time>
      </trkpt>
      <trkpt lat="42.18169" lon="0.8773">
        <ele>532.2</ele>
        <time>2023-07-23T06:56:02Z</time>
      </trkpt>
      <trkpt lat="42.18173" lon="0.87731">
        <ele>532.2</ele>
        <time>2023-07-23T06:56:03Z</time>
      </trkpt>
      <trkpt lat="42.18176" lon="0.87733">
        <ele>532.4</ele>
        <time>2023-07-23T06:56:04Z</time>
      </trkpt>
      <trkpt lat="42.1818" lon="0.87735">
        <ele>532.6</ele>
        <time>2023-07-23T06:56:05Z</time>
      </trkpt>
      <trkpt lat="42.18183" lon="0.87737">
        <ele>532.6</ele>
        <time>2023-07-23T06:56:06Z</time>
      </trkpt>
      <trkpt lat="42.18187" lon="0.87738">
        <ele>532.6</ele>
        <time>2023-07-23T06:56:07Z</time>
      </trkpt>
      <trkpt lat="42.18191" lon="0.87739">
        <ele>532.8</ele>
        <time>2023-07-23T06:56:08Z</time>
      </trkpt>
      <trkpt lat="42.18195" lon="0.87739">
        <ele>532.8</ele>
        <time>2023-07-23T06:56:09Z</time>
      </trkpt>
      <trkpt lat="42.18199" lon="0.87738">
        <ele>533</ele>
        <time>2023-07-23T06:56:10Z</time>
      </trkpt>
      <trkpt lat="42.18204" lon="0.87738">
        <ele>533.2</ele>
        <time>2023-07-23T06:56:11Z</time>
      </trkpt>
      <trkpt lat="42.18208" lon="0.87737">
        <ele>533.2</ele>
        <time>2023-07-23T06:56:12Z</time>
      </trkpt>
      <trkpt lat="42.18212" lon="0.87737">
        <ele>533.2</ele>
        <time>2023-07-23T06:56:13Z</time>
      </trkpt>
      <trkpt lat="42.18216" lon="0.87736">
        <ele>533.2</ele>
        <time>2023-07-23T06:56:14Z</time>
      </trkpt>
      <trkpt lat="42.1822" lon="0.87736">
        <ele>533.4</ele>
        <time>2023-07-23T06:56:15Z</time>
      </trkpt>
      <trkpt lat="42.18224" lon="0.87737">
        <ele>533.4</ele>
        <time>2023-07-23T06:56:16Z</time>
      </trkpt>
      <trkpt lat="42.18227" lon="0.87738">
        <ele>533.6</ele>
        <time>2023-07-23T06:56:17Z</time>
      </trkpt>
      <trkpt lat="42.18231" lon="0.8774">
        <ele>533.8</ele>
        <time>2023-07-23T06:56:18Z</time>
      </trkpt>
      <trkpt lat="42.18235" lon="0.87741">
        <ele>534</ele>
        <time>2023-07-23T06:56:19Z</time>
      </trkpt>
      <trkpt lat="42.18238" lon="0.87744">
        <ele>534.2</ele>
        <time>2023-07-23T06:56:20Z</time>
      </trkpt>
      <trkpt lat="42.18242" lon="0.87746">
        <ele>534.4</ele>
        <time>2023-07-23T06:56:21Z</time>
      </trkpt>
      <trkpt lat="42.18245" lon="0.8775">
        <ele>534.6</ele>
        <time>2023-07-23T06:56:22Z</time>
      </trkpt>
      <trkpt lat="42.18248" lon="0.87752">
        <ele>534.8</ele>
        <time>2023-07-23T06:56:23Z</time>
      </trkpt>
      <trkpt lat="42.18251" lon="0.87755">
        <ele>535</ele>
        <time>2023-07-23T06:56:24Z</time>
      </trkpt>
      <trkpt lat="42.18254" lon="0.87759">
        <ele>535.4</ele>
        <time>2023-07-23T06:56:25Z</time>
      </trkpt>
      <trkpt lat="42.18256" lon="0.87762">
        <ele>535.6</ele>
        <time>2023-07-23T06:56:26Z</time>
      </trkpt>
      <trkpt lat="42.18259" lon="0.87766">
        <ele>536</ele>
        <time>2023-07-23T06:56:27Z</time>
      </trkpt>
      <trkpt lat="42.18261" lon="0.87771">
        <ele>536</ele>
        <time>2023-07-23T06:56:28Z</time>
      </trkpt>
      <trkpt lat="42.18263" lon="0.87776">
        <ele>536.2</ele>
        <time>2023-07-23T06:56:29Z</time>
      </trkpt>
      <trkpt lat="42.18265" lon="0.87781">
        <ele>536.4</ele>
        <time>2023-07-23T06:56:30Z</time>
      </trkpt>
      <trkpt lat="42.18268" lon="0.87786">
        <ele>536.4</ele>
        <time>2023-07-23T06:56:31Z</time>
      </trkpt>
      <trkpt lat="42.1827" lon="0.8779">
        <ele>536.6</ele>
        <time>2023-07-23T06:56:32Z</time>
      </trkpt>
      <trkpt lat="42.18272" lon="0.87795">
        <ele>536.8</ele>
        <time>2023-07-23T06:56:33Z</time>
      </trkpt>
      <trkpt lat="42.18274" lon="0.878">
        <ele>536.8</ele>
        <time>2023-07-23T06:56:34Z</time>
      </trkpt>
      <trkpt lat="42.18276" lon="0.87805">
        <ele>537</ele>
        <time>2023-07-23T06:56:35Z</time>
      </trkpt>
      <trkpt lat="42.18278" lon="0.87809">
        <ele>537.2</ele>
        <time>2023-07-23T06:56:36Z</time>
      </trkpt>
      <trkpt lat="42.1828" lon="0.87814">
        <ele>537.4</ele>
        <time>2023-07-23T06:56:37Z</time>
      </trkpt>
      <trkpt lat="42.18282" lon="0.87818">
        <ele>537.4</ele>
        <time>2023-07-23T06:56:38Z</time>
      </trkpt>
      <trkpt lat="42.18284" lon="0.87822">
        <ele>537.6</ele>
        <time>2023-07-23T06:56:39Z</time>
      </trkpt>
      <trkpt lat="42.18286" lon="0.87825">
        <ele>537.6</ele>
        <time>2023-07-23T06:56:40Z</time>
      </trkpt>
      <trkpt lat="42.18288" lon="0.87827">
        <ele>537.8</ele>
        <time>2023-07-23T06:56:41Z</time>
      </trkpt>
      <trkpt lat="42.1829" lon="0.87828">
        <ele>537.8</ele>
        <time>2023-07-23T06:56:42Z</time>
      </trkpt>
      <trkpt lat="42.18291" lon="0.87829">
        <ele>537.8</ele>
        <time>2023-07-23T06:56:43Z</time>
      </trkpt>
      <trkpt lat="42.18292" lon="0.87829">
        <ele>538</ele>
        <time>2023-07-23T06:56:44Z</time>
      </trkpt>
      <trkpt lat="42.18293" lon="0.87829">
        <ele>538</ele>
        <time>2023-07-23T06:56:45Z</time>
      </trkpt>
      <trkpt lat="42.18294" lon="0.8783">
        <ele>538.2</ele>
        <time>2023-07-23T06:56:46Z</time>
      </trkpt>
      <trkpt lat="42.18294" lon="0.87832">
        <ele>538.2</ele>
        <time>2023-07-23T06:56:47Z</time>
      </trkpt>
      <trkpt lat="42.18295" lon="0.87833">
        <ele>538.4</ele>
        <time>2023-07-23T06:56:48Z</time>
      </trkpt>
      <trkpt lat="42.18296" lon="0.87835">
        <ele>538.4</ele>
        <time>2023-07-23T06:56:49Z</time>
      </trkpt>
      <trkpt lat="42.18298" lon="0.87837">
        <ele>538.6</ele>
        <time>2023-07-23T06:56:50Z</time>
      </trkpt>
      <trkpt lat="42.18299" lon="0.87838">
        <ele>538.6</ele>
        <time>2023-07-23T06:56:51Z</time>
      </trkpt>
      <trkpt lat="42.183" lon="0.87839">
        <ele>538.6</ele>
        <time>2023-07-23T06:56:52Z</time>
      </trkpt>
      <trkpt lat="42.18301" lon="0.8784">
        <ele>538.6</ele>
        <time>2023-07-23T06:56:53Z</time>
      </trkpt>
      <trkpt lat="42.18302" lon="0.87842">
        <ele>538.8</ele>
        <time>2023-07-23T06:56:54Z</time>
      </trkpt>
      <trkpt lat="42.18303" lon="0.87843">
        <ele>538.8</ele>
        <time>2023-07-23T06:56:55Z</time>
      </trkpt>
      <trkpt lat="42.18304" lon="0.87845">
        <ele>538.8</ele>
        <time>2023-07-23T06:56:56Z</time>
      </trkpt>
      <trkpt lat="42.18305" lon="0.87846">
        <ele>539</ele>
        <time>2023-07-23T06:56:57Z</time>
      </trkpt>
      <trkpt lat="42.18306" lon="0.87848">
        <ele>539</ele>
        <time>2023-07-23T06:56:58Z</time>
      </trkpt>
      <trkpt lat="42.18307" lon="0.87851">
        <ele>539</ele>
        <time>2023-07-23T06:56:59Z</time>
      </trkpt>
      <trkpt lat="42.18309" lon="0.87853">
        <ele>539.2</ele>
        <time>2023-07-23T06:57:00Z</time>
      </trkpt>
      <trkpt lat="42.18311" lon="0.87856">
        <ele>539.2</ele>
        <time>2023-07-23T06:57:01Z</time>
      </trkpt>
      <trkpt lat="42.18312" lon="0.87858">
        <ele>539.4</ele>
        <time>2023-07-23T06:57:02Z</time>
      </trkpt>
      <trkpt lat="42.18314" lon="0.8786">
        <ele>539.4</ele>
        <time>2023-07-23T06:57:03Z</time>
      </trkpt>
      <trkpt lat="42.18316" lon="0.87863">
        <ele>539.4</ele>
        <time>2023-07-23T06:57:04Z</time>
      </trkpt>
      <trkpt lat="42.18318" lon="0.87866">
        <ele>539.6</ele>
        <time>2023-07-23T06:57:05Z</time>
      </trkpt>
      <trkpt lat="42.1832" lon="0.87868">
        <ele>539.6</ele>
        <time>2023-07-23T06:57:06Z</time>
      </trkpt>
      <trkpt lat="42.18322" lon="0.87871">
        <ele>539.6</ele>
        <time>2023-07-23T06:57:07Z</time>
      </trkpt>
      <trkpt lat="42.18324" lon="0.87873">
        <ele>539.6</ele>
        <time>2023-07-23T06:57:08Z</time>
      </trkpt>
      <trkpt lat="42.18326" lon="0.87876">
        <ele>539.8</ele>
        <time>2023-07-23T06:57:09Z</time>
      </trkpt>
      <trkpt lat="42.18328" lon="0.87879">
        <ele>539.8</ele>
        <time>2023-07-23T06:57:10Z</time>
      </trkpt>
      <trkpt lat="42.18331" lon="0.87881">
        <ele>540</ele>
        <time>2023-07-23T06:57:11Z</time>
      </trkpt>
      <trkpt lat="42.18333" lon="0.87884">
        <ele>540.2</ele>
        <time>2023-07-23T06:57:12Z</time>
      </trkpt>
      <trkpt lat="42.18334" lon="0.87885">
        <ele>540.2</ele>
        <time>2023-07-23T06:57:13Z</time>
      </trkpt>
      <trkpt lat="42.18335" lon="0.87886">
        <ele>540.4</ele>
        <time>2023-07-23T06:57:14Z</time>
      </trkpt>
      <trkpt lat="42.18335" lon="0.87886">
        <ele>540.4</ele>
        <time>2023-07-23T06:57:15Z</time>
      </trkpt>
      <trkpt lat="42.18336" lon="0.87887">
        <ele>540.6</ele>
        <time>2023-07-23T06:57:16Z</time>
      </trkpt>
      <trkpt lat="42.18337" lon="0.87889">
        <ele>540.6</ele>
        <time>2023-07-23T06:57:17Z</time>
      </trkpt>
      <trkpt lat="42.18338" lon="0.87891">
        <ele>540.6</ele>
        <time>2023-07-23T06:57:18Z</time>
      </trkpt>
      <trkpt lat="42.18339" lon="0.87892">
        <ele>540.8</ele>
        <time>2023-07-23T06:57:19Z</time>
      </trkpt>
      <trkpt lat="42.18341" lon="0.87893">
        <ele>540.8</ele>
        <time>2023-07-23T06:57:20Z</time>
      </trkpt>
      <trkpt lat="42.18342" lon="0.87894">
        <ele>540.8</ele>
        <time>2023-07-23T06:57:21Z</time>
      </trkpt>
      <trkpt lat="42.18344" lon="0.87896">
        <ele>540.8</ele>
        <time>2023-07-23T06:57:22Z</time>
      </trkpt>
      <trkpt lat="42.18345" lon="0.87897">
        <ele>540.8</ele>
        <time>2023-07-23T06:57:23Z</time>
      </trkpt>
      <trkpt lat="42.18346" lon="0.87899">
        <ele>540.8</ele>
        <time>2023-07-23T06:57:24Z</time>
      </trkpt>
      <trkpt lat="42.18348" lon="0.87901">
        <ele>540.8</ele>
        <time>2023-07-23T06:57:25Z</time>
      </trkpt>
      <trkpt lat="42.1835" lon="0.87903">
        <ele>540.8</ele>
        <time>2023-07-23T06:57:26Z</time>
      </trkpt>
      <trkpt lat="42.18351" lon="0.87904">
        <ele>540.8</ele>
        <time>2023-07-23T06:57:27Z</time>
      </trkpt>
      <trkpt lat="42.18353" lon="0.87905">
        <ele>540.6</ele>
        <time>2023-07-23T06:57:28Z</time>
      </trkpt>
      <trkpt lat="42.18355" lon="0.87905">
        <ele>540.6</ele>
        <time>2023-07-23T06:57:29Z</time>
      </trkpt>
      <trkpt lat="42.18358" lon="0.87903">
        <ele>540.6</ele>
        <time>2023-07-23T06:57:30Z</time>
      </trkpt>
      <trkpt lat="42.1836" lon="0.87902">
        <ele>540.4</ele>
        <time>2023-07-23T06:57:31Z</time>
      </trkpt>
      <trkpt lat="42.18363" lon="0.87901">
        <ele>540.4</ele>
        <time>2023-07-23T06:57:32Z</time>
      </trkpt>
      <trkpt lat="42.18366" lon="0.879">
        <ele>540.6</ele>
        <time>2023-07-23T06:57:33Z</time>
      </trkpt>
      <trkpt lat="42.18369" lon="0.87898">
        <ele>540.6</ele>
        <time>2023-07-23T06:57:34Z</time>
      </trkpt>
      <trkpt lat="42.18372" lon="0.87897">
        <ele>540.6</ele>
        <time>2023-07-23T06:57:35Z</time>
      </trkpt>
      <trkpt lat="42.18375" lon="0.87895">
        <ele>540.6</ele>
        <time>2023-07-23T06:57:36Z</time>
      </trkpt>
      <trkpt lat="42.18377" lon="0.87894">
        <ele>540.6</ele>
        <time>2023-07-23T06:57:37Z</time>
      </trkpt>
      <trkpt lat="42.1838" lon="0.87893">
        <ele>540.8</ele>
        <time>2023-07-23T06:57:38Z</time>
      </trkpt>
      <trkpt lat="42.18382" lon="0.87892">
        <ele>540.6</ele>
        <time>2023-07-23T06:57:39Z</time>
      </trkpt>
      <trkpt lat="42.18385" lon="0.87892">
        <ele>540.8</ele>
        <time>2023-07-23T06:57:40Z</time>
      </trkpt>
      <trkpt lat="42.18387" lon="0.87892">
        <ele>540.8</ele>
        <time>2023-07-23T06:57:41Z</time>
      </trkpt>
      <trkpt lat="42.1839" lon="0.87892">
        <ele>541</ele>
        <time>2023-07-23T06:57:42Z</time>
      </trkpt>
      <trkpt lat="42.18393" lon="0.87892">
        <ele>541.2</ele>
        <time>2023-07-23T06:57:43Z</time>
      </trkpt>
      <trkpt lat="42.18395" lon="0.87891">
        <ele>541.2</ele>
        <time>2023-07-23T06:57:44Z</time>
      </trkpt>
      <trkpt lat="42.18398" lon="0.8789">
        <ele>541.4</ele>
        <time>2023-07-23T06:57:45Z</time>
      </trkpt>
      <trkpt lat="42.18401" lon="0.87888">
        <ele>541.4</ele>
        <time>2023-07-23T06:57:46Z</time>
      </trkpt>
      <trkpt lat="42.18404" lon="0.87887">
        <ele>541.6</ele>
        <time>2023-07-23T06:57:47Z</time>
      </trkpt>
      <trkpt lat="42.18406" lon="0.87885">
        <ele>541.6</ele>
        <time>2023-07-23T06:57:48Z</time>
      </trkpt>
      <trkpt lat="42.18409" lon="0.87883">
        <ele>541.8</ele>
        <time>2023-07-23T06:57:49Z</time>
      </trkpt>
      <trkpt lat="42.18411" lon="0.8788">
        <ele>541.8</ele>
        <time>2023-07-23T06:57:50Z</time>
      </trkpt>
      <trkpt lat="42.18413" lon="0.87878">
        <ele>541.8</ele>
        <time>2023-07-23T06:57:51Z</time>
      </trkpt>
      <trkpt lat="42.18415" lon="0.87875">
        <ele>541.8</ele>
        <time>2023-07-23T06:57:52Z</time>
      </trkpt>
      <trkpt lat="42.18417" lon="0.87871">
        <ele>542</ele>
        <time>2023-07-23T06:57:53Z</time>
      </trkpt>
      <trkpt lat="42.18419" lon="0.87868">
        <ele>542.2</ele>
        <time>2023-07-23T06:57:54Z</time>
      </trkpt>
      <trkpt lat="42.1842" lon="0.87864">
        <ele>542.4</ele>
        <time>2023-07-23T06:57:55Z</time>
      </trkpt>
      <trkpt lat="42.18421" lon="0.87861">
        <ele>542.4</ele>
        <time>2023-07-23T06:57:56Z</time>
      </trkpt>
      <trkpt lat="42.18423" lon="0.87857">
        <ele>542.6</ele>
        <time>2023-07-23T06:57:57Z</time>
      </trkpt>
      <trkpt lat="42.18424" lon="0.87853">
        <ele>542.6</ele>
        <time>2023-07-23T06:57:58Z</time>
      </trkpt>
      <trkpt lat="42.18424" lon="0.87849">
        <ele>542.6</ele>
        <time>2023-07-23T06:57:59Z</time>
      </trkpt>
      <trkpt lat="42.18425" lon="0.87846">
        <ele>542.6</ele>
        <time>2023-07-23T06:58:00Z</time>
      </trkpt>
      <trkpt lat="42.18425" lon="0.87842">
        <ele>543.2</ele>
        <time>2023-07-23T06:58:01Z</time>
      </trkpt>
      <trkpt lat="42.18425" lon="0.87838">
        <ele>543.4</ele>
        <time>2023-07-23T06:58:02Z</time>
      </trkpt>
      <trkpt lat="42.18424" lon="0.87834">
        <ele>544</ele>
        <time>2023-07-23T06:58:03Z</time>
      </trkpt>
      <trkpt lat="42.18423" lon="0.8783">
        <ele>544.2</ele>
        <time>2023-07-23T06:58:04Z</time>
      </trkpt>
      <trkpt lat="42.18423" lon="0.87826">
        <ele>544.2</ele>
        <time>2023-07-23T06:58:05Z</time>
      </trkpt>
      <trkpt lat="42.18423" lon="0.87821">
        <ele>544.2</ele>
        <time>2023-07-23T06:58:06Z</time>
      </trkpt>
      <trkpt lat="42.18423" lon="0.87817">
        <ele>544.2</ele>
        <time>2023-07-23T06:58:07Z</time>
      </trkpt>
      <trkpt lat="42.18423" lon="0.87814">
        <ele>544.2</ele>
        <time>2023-07-23T06:58:08Z</time>
      </trkpt>
      <trkpt lat="42.18424" lon="0.87812">
        <ele>544.4</ele>
        <time>2023-07-23T06:58:09Z</time>
      </trkpt>
      <trkpt lat="42.18425" lon="0.8781">
        <ele>544.4</ele>
        <time>2023-07-23T06:58:10Z</time>
      </trkpt>
      <trkpt lat="42.18426" lon="0.87809">
        <ele>544.6</ele>
        <time>2023-07-23T06:58:11Z</time>
      </trkpt>
      <trkpt lat="42.18428" lon="0.87807">
        <ele>544.6</ele>
        <time>2023-07-23T06:58:12Z</time>
      </trkpt>
      <trkpt lat="42.18429" lon="0.87805">
        <ele>544.6</ele>
        <time>2023-07-23T06:58:13Z</time>
      </trkpt>
      <trkpt lat="42.18431" lon="0.87802">
        <ele>544.6</ele>
        <time>2023-07-23T06:58:14Z</time>
      </trkpt>
      <trkpt lat="42.18433" lon="0.878">
        <ele>544.6</ele>
        <time>2023-07-23T06:58:15Z</time>
      </trkpt>
      <trkpt lat="42.18436" lon="0.87799">
        <ele>544.6</ele>
        <time>2023-07-23T06:58:16Z</time>
      </trkpt>
      <trkpt lat="42.18439" lon="0.87798">
        <ele>544.6</ele>
        <time>2023-07-23T06:58:17Z</time>
      </trkpt>
      <trkpt lat="42.18442" lon="0.87798">
        <ele>544.6</ele>
        <time>2023-07-23T06:58:18Z</time>
      </trkpt>
      <trkpt lat="42.18445" lon="0.87799">
        <ele>544.6</ele>
        <time>2023-07-23T06:58:19Z</time>
      </trkpt>
      <trkpt lat="42.18447" lon="0.87799">
        <ele>544.8</ele>
        <time>2023-07-23T06:58:20Z</time>
      </trkpt>
      <trkpt lat="42.1845" lon="0.87798">
        <ele>545</ele>
        <time>2023-07-23T06:58:21Z</time>
      </trkpt>
      <trkpt lat="42.18451" lon="0.87798">
        <ele>545.2</ele>
        <time>2023-07-23T06:58:22Z</time>
      </trkpt>
      <trkpt lat="42.18452" lon="0.87798">
        <ele>545.2</ele>
        <time>2023-07-23T06:58:23Z</time>
      </trkpt>
      <trkpt lat="42.18453" lon="0.87798">
        <ele>545.4</ele>
        <time>2023-07-23T06:58:24Z</time>
      </trkpt>
      <trkpt lat="42.18455" lon="0.87797">
        <ele>545.4</ele>
        <time>2023-07-23T06:58:25Z</time>
      </trkpt>
      <trkpt lat="42.18456" lon="0.87797">
        <ele>545.4</ele>
        <time>2023-07-23T06:58:26Z</time>
      </trkpt>
      <trkpt lat="42.18458" lon="0.87797">
        <ele>545.4</ele>
        <time>2023-07-23T06:58:27Z</time>
      </trkpt>
      <trkpt lat="42.1846" lon="0.87797">
        <ele>545.4</ele>
        <time>2023-07-23T06:58:28Z</time>
      </trkpt>
      <trkpt lat="42.18462" lon="0.87798">
        <ele>545.4</ele>
        <time>2023-07-23T06:58:29Z</time>
      </trkpt>
      <trkpt lat="42.18464" lon="0.87798">
        <ele>545.4</ele>
        <time>2023-07-23T06:58:30Z</time>
      </trkpt>
      <trkpt lat="42.18467" lon="0.87799">
        <ele>545.4</ele>
        <time>2023-07-23T06:58:31Z</time>
      </trkpt>
      <trkpt lat="42.18469" lon="0.878">
        <ele>545.4</ele>
        <time>2023-07-23T06:58:32Z</time>
      </trkpt>
      <trkpt lat="42.18472" lon="0.87801">
        <ele>545.4</ele>
        <time>2023-07-23T06:58:33Z</time>
      </trkpt>
      <trkpt lat="42.18474" lon="0.87801">
        <ele>545.6</ele>
        <time>2023-07-23T06:58:34Z</time>
      </trkpt>
      <trkpt lat="42.18477" lon="0.87801">
        <ele>545.8</ele>
        <time>2023-07-23T06:58:35Z</time>
      </trkpt>
      <trkpt lat="42.1848" lon="0.878">
        <ele>546</ele>
        <time>2023-07-23T06:58:36Z</time>
      </trkpt>
      <trkpt lat="42.18483" lon="0.878">
        <ele>546</ele>
        <time>2023-07-23T06:58:37Z</time>
      </trkpt>
      <trkpt lat="42.18486" lon="0.87799">
        <ele>546.2</ele>
        <time>2023-07-23T06:58:38Z</time>
      </trkpt>
      <trkpt lat="42.18488" lon="0.87799">
        <ele>546.4</ele>
        <time>2023-07-23T06:58:39Z</time>
      </trkpt>
      <trkpt lat="42.18491" lon="0.87798">
        <ele>546.4</ele>
        <time>2023-07-23T06:58:40Z</time>
      </trkpt>
      <trkpt lat="42.18493" lon="0.87796">
        <ele>546.4</ele>
        <time>2023-07-23T06:58:41Z</time>
      </trkpt>
      <trkpt lat="42.18495" lon="0.87794">
        <ele>546.4</ele>
        <time>2023-07-23T06:58:42Z</time>
      </trkpt>
      <trkpt lat="42.18497" lon="0.87791">
        <ele>546.4</ele>
        <time>2023-07-23T06:58:43Z</time>
      </trkpt>
      <trkpt lat="42.18499" lon="0.87789">
        <ele>546.6</ele>
        <time>2023-07-23T06:58:44Z</time>
      </trkpt>
      <trkpt lat="42.18502" lon="0.87786">
        <ele>546.6</ele>
        <time>2023-07-23T06:58:45Z</time>
      </trkpt>
      <trkpt lat="42.18505" lon="0.87785">
        <ele>546.6</ele>
        <time>2023-07-23T06:58:46Z</time>
      </trkpt>
      <trkpt lat="42.18508" lon="0.87783">
        <ele>546.8</ele>
        <time>2023-07-23T06:58:47Z</time>
      </trkpt>
      <trkpt lat="42.18511" lon="0.87782">
        <ele>547</ele>
        <time>2023-07-23T06:58:48Z</time>
      </trkpt>
      <trkpt lat="42.18514" lon="0.8778">
        <ele>547.2</ele>
        <time>2023-07-23T06:58:49Z</time>
      </trkpt>
      <trkpt lat="42.18517" lon="0.87778">
        <ele>547.2</ele>
        <time>2023-07-23T06:58:50Z</time>
      </trkpt>
      <trkpt lat="42.1852" lon="0.87775">
        <ele>547.4</ele>
        <time>2023-07-23T06:58:51Z</time>
      </trkpt>
      <trkpt lat="42.18522" lon="0.87772">
        <ele>547.6</ele>
        <time>2023-07-23T06:58:52Z</time>
      </trkpt>
      <trkpt lat="42.18525" lon="0.87768">
        <ele>547.6</ele>
        <time>2023-07-23T06:58:53Z</time>
      </trkpt>
      <trkpt lat="42.18527" lon="0.87764">
        <ele>547.6</ele>
        <time>2023-07-23T06:58:54Z</time>
      </trkpt>
      <trkpt lat="42.18529" lon="0.8776">
        <ele>547.8</ele>
        <time>2023-07-23T06:58:55Z</time>
      </trkpt>
      <trkpt lat="42.18531" lon="0.87757">
        <ele>547.8</ele>
        <time>2023-07-23T06:58:56Z</time>
      </trkpt>
      <trkpt lat="42.18533" lon="0.87753">
        <ele>547.8</ele>
        <time>2023-07-23T06:58:57Z</time>
      </trkpt>
      <trkpt lat="42.18535" lon="0.87749">
        <ele>548.2</ele>
        <time>2023-07-23T06:58:58Z</time>
      </trkpt>
      <trkpt lat="42.18537" lon="0.87746">
        <ele>548.2</ele>
        <time>2023-07-23T06:58:59Z</time>
      </trkpt>
      <trkpt lat="42.18539" lon="0.87741">
        <ele>548.6</ele>
        <time>2023-07-23T06:59:00Z</time>
      </trkpt>
      <trkpt lat="42.18541" lon="0.87736">
        <ele>548.6</ele>
        <time>2023-07-23T06:59:01Z</time>
      </trkpt>
      <trkpt lat="42.18541" lon="0.87731">
        <ele>549</ele>
        <time>2023-07-23T06:59:02Z</time>
      </trkpt>
      <trkpt lat="42.18541" lon="0.87726">
        <ele>549</ele>
        <time>2023-07-23T06:59:03Z</time>
      </trkpt>
      <trkpt lat="42.18542" lon="0.87721">
        <ele>549.2</ele>
        <time>2023-07-23T06:59:04Z</time>
      </trkpt>
      <trkpt lat="42.18543" lon="0.87716">
        <ele>549.4</ele>
        <time>2023-07-23T06:59:05Z</time>
      </trkpt>
      <trkpt lat="42.18545" lon="0.87711">
        <ele>549.4</ele>
        <time>2023-07-23T06:59:06Z</time>
      </trkpt>
      <trkpt lat="42.18547" lon="0.87707">
        <ele>549.4</ele>
        <time>2023-07-23T06:59:07Z</time>
      </trkpt>
      <trkpt lat="42.1855" lon="0.87703">
        <ele>549.4</ele>
        <time>2023-07-23T06:59:08Z</time>
      </trkpt>
      <trkpt lat="42.18552" lon="0.87699">
        <ele>549.6</ele>
        <time>2023-07-23T06:59:09Z</time>
      </trkpt>
      <trkpt lat="42.18555" lon="0.87696">
        <ele>549.6</ele>
        <time>2023-07-23T06:59:10Z</time>
      </trkpt>
      <trkpt lat="42.18557" lon="0.87692">
        <ele>549.8</ele>
        <time>2023-07-23T06:59:11Z</time>
      </trkpt>
      <trkpt lat="42.1856" lon="0.87688">
        <ele>549.8</ele>
        <time>2023-07-23T06:59:12Z</time>
      </trkpt>
      <trkpt lat="42.18563" lon="0.87685">
        <ele>549.8</ele>
        <time>2023-07-23T06:59:13Z</time>
      </trkpt>
      <trkpt lat="42.18565" lon="0.87682">
        <ele>550</ele>
        <time>2023-07-23T06:59:14Z</time>
      </trkpt>
      <trkpt lat="42.18567" lon="0.87679">
        <ele>550</ele>
        <time>2023-07-23T06:59:15Z</time>
      </trkpt>
      <trkpt lat="42.18569" lon="0.87676">
        <ele>550.2</ele>
        <time>2023-07-23T06:59:16Z</time>
      </trkpt>
      <trkpt lat="42.18571" lon="0.87673">
        <ele>550.6</ele>
        <time>2023-07-23T06:59:17Z</time>
      </trkpt>
      <trkpt lat="42.18574" lon="0.8767">
        <ele>550.8</ele>
        <time>2023-07-23T06:59:18Z</time>
      </trkpt>
      <trkpt lat="42.18577" lon="0.87668">
        <ele>551.2</ele>
        <time>2023-07-23T06:59:19Z</time>
      </trkpt>
      <trkpt lat="42.1858" lon="0.87665">
        <ele>551.2</ele>
        <time>2023-07-23T06:59:20Z</time>
      </trkpt>
      <trkpt lat="42.18583" lon="0.87663">
        <ele>551.6</ele>
        <time>2023-07-23T06:59:21Z</time>
      </trkpt>
      <trkpt lat="42.18587" lon="0.87662">
        <ele>551.6</ele>
        <time>2023-07-23T06:59:22Z</time>
      </trkpt>
      <trkpt lat="42.18591" lon="0.87661">
        <ele>551.8</ele>
        <time>2023-07-23T06:59:23Z</time>
      </trkpt>
      <trkpt lat="42.18595" lon="0.8766">
        <ele>552.2</ele>
        <time>2023-07-23T06:59:24Z</time>
      </trkpt>
      <trkpt lat="42.18598" lon="0.8766">
        <ele>552.2</ele>
        <time>2023-07-23T06:59:25Z</time>
      </trkpt>
      <trkpt lat="42.18602" lon="0.8766">
        <ele>552.4</ele>
        <time>2023-07-23T06:59:26Z</time>
      </trkpt>
      <trkpt lat="42.18606" lon="0.87661">
        <ele>552.4</ele>
        <time>2023-07-23T06:59:27Z</time>
      </trkpt>
      <trkpt lat="42.18609" lon="0.87661">
        <ele>552.6</ele>
        <time>2023-07-23T06:59:28Z</time>
      </trkpt>
      <trkpt lat="42.18613" lon="0.87661">
        <ele>552.6</ele>
        <time>2023-07-23T06:59:29Z</time>
      </trkpt>
      <trkpt lat="42.18616" lon="0.87661">
        <ele>553.2</ele>
        <time>2023-07-23T06:59:30Z</time>
      </trkpt>
      <trkpt lat="42.1862" lon="0.87661">
        <ele>553.4</ele>
        <time>2023-07-23T06:59:31Z</time>
      </trkpt>
      <trkpt lat="42.18623" lon="0.87661">
        <ele>553.6</ele>
        <time>2023-07-23T06:59:32Z</time>
      </trkpt>
      <trkpt lat="42.18626" lon="0.8766">
        <ele>553.8</ele>
        <time>2023-07-23T06:59:33Z</time>
      </trkpt>
      <trkpt lat="42.18629" lon="0.8766">
        <ele>553.8</ele>
        <time>2023-07-23T06:59:34Z</time>
      </trkpt>
      <trkpt lat="42.18633" lon="0.87659">
        <ele>554</ele>
        <time>2023-07-23T06:59:35Z</time>
      </trkpt>
      <trkpt lat="42.18636" lon="0.87658">
        <ele>554</ele>
        <time>2023-07-23T06:59:36Z</time>
      </trkpt>
      <trkpt lat="42.1864" lon="0.87657">
        <ele>554.2</ele>
        <time>2023-07-23T06:59:37Z</time>
      </trkpt>
      <trkpt lat="42.18643" lon="0.87656">
        <ele>554.4</ele>
        <time>2023-07-23T06:59:38Z</time>
      </trkpt>
      <trkpt lat="42.18647" lon="0.87654">
        <ele>554.4</ele>
        <time>2023-07-23T06:59:39Z</time>
      </trkpt>
      <trkpt lat="42.18651" lon="0.87652">
        <ele>554.4</ele>
        <time>2023-07-23T06:59:40Z</time>
      </trkpt>
      <trkpt lat="42.18654" lon="0.87651">
        <ele>554.6</ele>
        <time>2023-07-23T06:59:41Z</time>
      </trkpt>
      <trkpt lat="42.18657" lon="0.87649">
        <ele>554.6</ele>
        <time>2023-07-23T06:59:42Z</time>
      </trkpt>
      <trkpt lat="42.18661" lon="0.87647">
        <ele>554.8</ele>
        <time>2023-07-23T06:59:43Z</time>
      </trkpt>
      <trkpt lat="42.18664" lon="0.87646">
        <ele>554.8</ele>
        <time>2023-07-23T06:59:44Z</time>
      </trkpt>
      <trkpt lat="42.18667" lon="0.87645">
        <ele>555</ele>
        <time>2023-07-23T06:59:45Z</time>
      </trkpt>
      <trkpt lat="42.1867" lon="0.87643">
        <ele>555.2</ele>
        <time>2023-07-23T06:59:46Z</time>
      </trkpt>
      <trkpt lat="42.18672" lon="0.8764">
        <ele>555.4</ele>
        <time>2023-07-23T06:59:47Z</time>
      </trkpt>
      <trkpt lat="42.18675" lon="0.87638">
        <ele>555.6</ele>
        <time>2023-07-23T06:59:48Z</time>
      </trkpt>
      <trkpt lat="42.18677" lon="0.87636">
        <ele>556</ele>
        <time>2023-07-23T06:59:49Z</time>
      </trkpt>
      <trkpt lat="42.1868" lon="0.87634">
        <ele>556.4</ele>
        <time>2023-07-23T06:59:50Z</time>
      </trkpt>
      <trkpt lat="42.18682" lon="0.87632">
        <ele>556.6</ele>
        <time>2023-07-23T06:59:51Z</time>
      </trkpt>
      <trkpt lat="42.18685" lon="0.8763">
        <ele>556.8</ele>
        <time>2023-07-23T06:59:52Z</time>
      </trkpt>
      <trkpt lat="42.18687" lon="0.87628">
        <ele>557</ele>
        <time>2023-07-23T06:59:53Z</time>
      </trkpt>
      <trkpt lat="42.1869" lon="0.87626">
        <ele>557.2</ele>
        <time>2023-07-23T06:59:54Z</time>
      </trkpt>
      <trkpt lat="42.18692" lon="0.87624">
        <ele>557.6</ele>
        <time>2023-07-23T06:59:55Z</time>
      </trkpt>
      <trkpt lat="42.18695" lon="0.87621">
        <ele>558</ele>
        <time>2023-07-23T06:59:56Z</time>
      </trkpt>
      <trkpt lat="42.18698" lon="0.87619">
        <ele>558.4</ele>
        <time>2023-07-23T06:59:57Z</time>
      </trkpt>
      <trkpt lat="42.18701" lon="0.87617">
        <ele>558.6</ele>
        <time>2023-07-23T06:59:58Z</time>
      </trkpt>
      <trkpt lat="42.18703" lon="0.87614">
        <ele>558.8</ele>
        <time>2023-07-23T06:59:59Z</time>
      </trkpt>
      <trkpt lat="42.18706" lon="0.87612">
        <ele>558.8</ele>
        <time>2023-07-23T07:00:00Z</time>
      </trkpt>
      <trkpt lat="42.18709" lon="0.87609">
        <ele>559.2</ele>
        <time>2023-07-23T07:00:01Z</time>
      </trkpt>
      <trkpt lat="42.18712" lon="0.87605">
        <ele>559.4</ele>
        <time>2023-07-23T07:00:02Z</time>
      </trkpt>
      <trkpt lat="42.18714" lon="0.876">
        <ele>559.4</ele>
        <time>2023-07-23T07:00:03Z</time>
      </trkpt>
      <trkpt lat="42.18716" lon="0.87593">
        <ele>559.6</ele>
        <time>2023-07-23T07:00:04Z</time>
      </trkpt>
      <trkpt lat="42.18719" lon="0.87587">
        <ele>559.6</ele>
        <time>2023-07-23T07:00:05Z</time>
      </trkpt>
      <trkpt lat="42.18721" lon="0.87581">
        <ele>559.6</ele>
        <time>2023-07-23T07:00:06Z</time>
      </trkpt>
      <trkpt lat="42.18723" lon="0.87576">
        <ele>559.6</ele>
        <time>2023-07-23T07:00:07Z</time>
      </trkpt>
      <trkpt lat="42.18726" lon="0.87571">
        <ele>559.6</ele>
        <time>2023-07-23T07:00:08Z</time>
      </trkpt>
      <trkpt lat="42.18729" lon="0.87566">
        <ele>559.6</ele>
        <time>2023-07-23T07:00:09Z</time>
      </trkpt>
      <trkpt lat="42.18732" lon="0.87562">
        <ele>559.8</ele>
        <time>2023-07-23T07:00:10Z</time>
      </trkpt>
      <trkpt lat="42.18734" lon="0.87559">
        <ele>559.8</ele>
        <time>2023-07-23T07:00:11Z</time>
      </trkpt>
      <trkpt lat="42.18737" lon="0.87556">
        <ele>559.8</ele>
        <time>2023-07-23T07:00:12Z</time>
      </trkpt>
      <trkpt lat="42.18741" lon="0.87553">
        <ele>560</ele>
        <time>2023-07-23T07:00:13Z</time>
      </trkpt>
      <trkpt lat="42.18744" lon="0.87551">
        <ele>560</ele>
        <time>2023-07-23T07:00:14Z</time>
      </trkpt>
      <trkpt lat="42.18748" lon="0.8755">
        <ele>560.2</ele>
        <time>2023-07-23T07:00:15Z</time>
      </trkpt>
      <trkpt lat="42.18752" lon="0.87547">
        <ele>560.4</ele>
        <time>2023-07-23T07:00:16Z</time>
      </trkpt>
      <trkpt lat="42.18755" lon="0.87545">
        <ele>560.6</ele>
        <time>2023-07-23T07:00:17Z</time>
      </trkpt>
      <trkpt lat="42.18757" lon="0.87541">
        <ele>560.6</ele>
        <time>2023-07-23T07:00:18Z</time>
      </trkpt>
      <trkpt lat="42.1876" lon="0.87537">
        <ele>560.6</ele>
        <time>2023-07-23T07:00:19Z</time>
      </trkpt>
      <trkpt lat="42.18762" lon="0.87535">
        <ele>560.8</ele>
        <time>2023-07-23T07:00:20Z</time>
      </trkpt>
      <trkpt lat="42.18764" lon="0.87531">
        <ele>560.8</ele>
        <time>2023-07-23T07:00:21Z</time>
      </trkpt>
      <trkpt lat="42.18766" lon="0.87527">
        <ele>561</ele>
        <time>2023-07-23T07:00:22Z</time>
      </trkpt>
      <trkpt lat="42.18768" lon="0.87524">
        <ele>561</ele>
        <time>2023-07-23T07:00:23Z</time>
      </trkpt>
      <trkpt lat="42.1877" lon="0.8752">
        <ele>561.2</ele>
        <time>2023-07-23T07:00:24Z</time>
      </trkpt>
      <trkpt lat="42.18773" lon="0.87516">
        <ele>561.2</ele>
        <time>2023-07-23T07:00:25Z</time>
      </trkpt>
      <trkpt lat="42.18775" lon="0.87512">
        <ele>561.4</ele>
        <time>2023-07-23T07:00:26Z</time>
      </trkpt>
      <trkpt lat="42.18778" lon="0.87508">
        <ele>561.8</ele>
        <time>2023-07-23T07:00:27Z</time>
      </trkpt>
      <trkpt lat="42.18782" lon="0.87505">
        <ele>562</ele>
        <time>2023-07-23T07:00:28Z</time>
      </trkpt>
      <trkpt lat="42.18786" lon="0.87503">
        <ele>562.2</ele>
        <time>2023-07-23T07:00:29Z</time>
      </trkpt>
      <trkpt lat="42.1879" lon="0.87501">
        <ele>562.4</ele>
        <time>2023-07-23T07:00:30Z</time>
      </trkpt>
      <trkpt lat="42.18794" lon="0.87499">
        <ele>562.4</ele>
        <time>2023-07-23T07:00:31Z</time>
      </trkpt>
      <trkpt lat="42.18798" lon="0.87498">
        <ele>562.4</ele>
        <time>2023-07-23T07:00:32Z</time>
      </trkpt>
      <trkpt lat="42.18802" lon="0.87497">
        <ele>562.4</ele>
        <time>2023-07-23T07:00:33Z</time>
      </trkpt>
      <trkpt lat="42.18807" lon="0.87496">
        <ele>562.4</ele>
        <time>2023-07-23T07:00:34Z</time>
      </trkpt>
      <trkpt lat="42.18811" lon="0.87495">
        <ele>562.6</ele>
        <time>2023-07-23T07:00:35Z</time>
      </trkpt>
      <trkpt lat="42.18815" lon="0.87494">
        <ele>562.6</ele>
        <time>2023-07-23T07:00:36Z</time>
      </trkpt>
      <trkpt lat="42.18818" lon="0.87494">
        <ele>562.6</ele>
        <time>2023-07-23T07:00:37Z</time>
      </trkpt>
      <trkpt lat="42.18822" lon="0.87494">
        <ele>562.8</ele>
        <time>2023-07-23T07:00:38Z</time>
      </trkpt>
      <trkpt lat="42.18826" lon="0.87494">
        <ele>563</ele>
        <time>2023-07-23T07:00:39Z</time>
      </trkpt>
      <trkpt lat="42.1883" lon="0.87494">
        <ele>563</ele>
        <time>2023-07-23T07:00:40Z</time>
      </trkpt>
      <trkpt lat="42.18834" lon="0.87493">
        <ele>563.2</ele>
        <time>2023-07-23T07:00:41Z</time>
      </trkpt>
      <trkpt lat="42.18839" lon="0.87494">
        <ele>563.4</ele>
        <time>2023-07-23T07:00:42Z</time>
      </trkpt>
      <trkpt lat="42.18842" lon="0.87494">
        <ele>563.4</ele>
        <time>2023-07-23T07:00:43Z</time>
      </trkpt>
      <trkpt lat="42.18845" lon="0.87494">
        <ele>563.6</ele>
        <time>2023-07-23T07:00:44Z</time>
      </trkpt>
      <trkpt lat="42.18849" lon="0.87495">
        <ele>563.6</ele>
        <time>2023-07-23T07:00:45Z</time>
      </trkpt>
      <trkpt lat="42.18853" lon="0.87495">
        <ele>563.8</ele>
        <time>2023-07-23T07:00:46Z</time>
      </trkpt>
      <trkpt lat="42.18857" lon="0.87495">
        <ele>563.8</ele>
        <time>2023-07-23T07:00:47Z</time>
      </trkpt>
      <trkpt lat="42.1886" lon="0.87495">
        <ele>564</ele>
        <time>2023-07-23T07:00:48Z</time>
      </trkpt>
      <trkpt lat="42.18863" lon="0.87495">
        <ele>564</ele>
        <time>2023-07-23T07:00:49Z</time>
      </trkpt>
      <trkpt lat="42.18867" lon="0.87495">
        <ele>564.4</ele>
        <time>2023-07-23T07:00:50Z</time>
      </trkpt>
      <trkpt lat="42.18871" lon="0.87495">
        <ele>564.4</ele>
        <time>2023-07-23T07:00:51Z</time>
      </trkpt>
      <trkpt lat="42.18874" lon="0.87494">
        <ele>564.4</ele>
        <time>2023-07-23T07:00:52Z</time>
      </trkpt>
      <trkpt lat="42.18878" lon="0.87492">
        <ele>564.8</ele>
        <time>2023-07-23T07:00:53Z</time>
      </trkpt>
      <trkpt lat="42.18881" lon="0.8749">
        <ele>565</ele>
        <time>2023-07-23T07:00:54Z</time>
      </trkpt>
      <trkpt lat="42.18883" lon="0.87488">
        <ele>565.2</ele>
        <time>2023-07-23T07:00:55Z</time>
      </trkpt>
      <trkpt lat="42.18885" lon="0.87484">
        <ele>565.6</ele>
        <time>2023-07-23T07:00:56Z</time>
      </trkpt>
      <trkpt lat="42.18886" lon="0.8748">
        <ele>565.6</ele>
        <time>2023-07-23T07:00:57Z</time>
      </trkpt>
      <trkpt lat="42.18888" lon="0.87476">
        <ele>565.8</ele>
        <time>2023-07-23T07:00:58Z</time>
      </trkpt>
      <trkpt lat="42.18889" lon="0.87471">
        <ele>566</ele>
        <time>2023-07-23T07:00:59Z</time>
      </trkpt>
      <trkpt lat="42.1889" lon="0.87466">
        <ele>566</ele>
        <time>2023-07-23T07:01:00Z</time>
      </trkpt>
      <trkpt lat="42.18891" lon="0.87461">
        <ele>566.2</ele>
        <time>2023-07-23T07:01:01Z</time>
      </trkpt>
      <trkpt lat="42.18892" lon="0.87456">
        <ele>566.4</ele>
        <time>2023-07-23T07:01:02Z</time>
      </trkpt>
      <trkpt lat="42.18893" lon="0.8745">
        <ele>566.6</ele>
        <time>2023-07-23T07:01:03Z</time>
      </trkpt>
      <trkpt lat="42.18895" lon="0.87445">
        <ele>566.6</ele>
        <time>2023-07-23T07:01:04Z</time>
      </trkpt>
      <trkpt lat="42.18896" lon="0.87439">
        <ele>567</ele>
        <time>2023-07-23T07:01:05Z</time>
      </trkpt>
      <trkpt lat="42.18897" lon="0.87434">
        <ele>567</ele>
        <time>2023-07-23T07:01:06Z</time>
      </trkpt>
      <trkpt lat="42.18898" lon="0.87429">
        <ele>567.2</ele>
        <time>2023-07-23T07:01:07Z</time>
      </trkpt>
      <trkpt lat="42.18899" lon="0.87424">
        <ele>567.2</ele>
        <time>2023-07-23T07:01:08Z</time>
      </trkpt>
      <trkpt lat="42.189" lon="0.87419">
        <ele>567.4</ele>
        <time>2023-07-23T07:01:09Z</time>
      </trkpt>
      <trkpt lat="42.18902" lon="0.87414">
        <ele>567.6</ele>
        <time>2023-07-23T07:01:10Z</time>
      </trkpt>
      <trkpt lat="42.18903" lon="0.8741">
        <ele>567.8</ele>
        <time>2023-07-23T07:01:11Z</time>
      </trkpt>
      <trkpt lat="42.18905" lon="0.87405">
        <ele>567.8</ele>
        <time>2023-07-23T07:01:12Z</time>
      </trkpt>
      <trkpt lat="42.18907" lon="0.87401">
        <ele>568</ele>
        <time>2023-07-23T07:01:13Z</time>
      </trkpt>
      <trkpt lat="42.18909" lon="0.87396">
        <ele>568.2</ele>
        <time>2023-07-23T07:01:14Z</time>
      </trkpt>
      <trkpt lat="42.18911" lon="0.87392">
        <ele>568.4</ele>
        <time>2023-07-23T07:01:15Z</time>
      </trkpt>
      <trkpt lat="42.18913" lon="0.87387">
        <ele>568.8</ele>
        <time>2023-07-23T07:01:16Z</time>
      </trkpt>
      <trkpt lat="42.18915" lon="0.87382">
        <ele>568.8</ele>
        <time>2023-07-23T07:01:17Z</time>
      </trkpt>
      <trkpt lat="42.18918" lon="0.87377">
        <ele>569</ele>
        <time>2023-07-23T07:01:18Z</time>
      </trkpt>
      <trkpt lat="42.1892" lon="0.87373">
        <ele>569.2</ele>
        <time>2023-07-23T07:01:19Z</time>
      </trkpt>
      <trkpt lat="42.18922" lon="0.8737">
        <ele>569.2</ele>
        <time>2023-07-23T07:01:20Z</time>
      </trkpt>
      <trkpt lat="42.18925" lon="0.87366">
        <ele>569.4</ele>
        <time>2023-07-23T07:01:21Z</time>
      </trkpt>
      <trkpt lat="42.18927" lon="0.87363">
        <ele>569.6</ele>
        <time>2023-07-23T07:01:22Z</time>
      </trkpt>
      <trkpt lat="42.18928" lon="0.87359">
        <ele>569.6</ele>
        <time>2023-07-23T07:01:23Z</time>
      </trkpt>
      <trkpt lat="42.1893" lon="0.87355">
        <ele>569.8</ele>
        <time>2023-07-23T07:01:24Z</time>
      </trkpt>
      <trkpt lat="42.18931" lon="0.87351">
        <ele>570</ele>
        <time>2023-07-23T07:01:25Z</time>
      </trkpt>
      <trkpt lat="42.18933" lon="0.87346">
        <ele>570.2</ele>
        <time>2023-07-23T07:01:26Z</time>
      </trkpt>
      <trkpt lat="42.18935" lon="0.87342">
        <ele>570.4</ele>
        <time>2023-07-23T07:01:27Z</time>
      </trkpt>
      <trkpt lat="42.18937" lon="0.87338">
        <ele>571</ele>
        <time>2023-07-23T07:01:28Z</time>
      </trkpt>
      <trkpt lat="42.1894" lon="0.87334">
        <ele>571.4</ele>
        <time>2023-07-23T07:01:29Z</time>
      </trkpt>
      <trkpt lat="42.18944" lon="0.87331">
        <ele>572</ele>
        <time>2023-07-23T07:01:30Z</time>
      </trkpt>
      <trkpt lat="42.18947" lon="0.87329">
        <ele>572.4</ele>
        <time>2023-07-23T07:01:31Z</time>
      </trkpt>
      <trkpt lat="42.18951" lon="0.87327">
        <ele>572.6</ele>
        <time>2023-07-23T07:01:32Z</time>
      </trkpt>
      <trkpt lat="42.18955" lon="0.87325">
        <ele>572.8</ele>
        <time>2023-07-23T07:01:33Z</time>
      </trkpt>
      <trkpt lat="42.18959" lon="0.87323">
        <ele>572.8</ele>
        <time>2023-07-23T07:01:34Z</time>
      </trkpt>
      <trkpt lat="42.18963" lon="0.87321">
        <ele>572.8</ele>
        <time>2023-07-23T07:01:35Z</time>
      </trkpt>
      <trkpt lat="42.18967" lon="0.87318">
        <ele>573</ele>
        <time>2023-07-23T07:01:36Z</time>
      </trkpt>
      <trkpt lat="42.18971" lon="0.87315">
        <ele>573</ele>
        <time>2023-07-23T07:01:37Z</time>
      </trkpt>
      <trkpt lat="42.18975" lon="0.87312">
        <ele>573</ele>
        <time>2023-07-23T07:01:38Z</time>
      </trkpt>
      <trkpt lat="42.18979" lon="0.87309">
        <ele>573</ele>
        <time>2023-07-23T07:01:39Z</time>
      </trkpt>
      <trkpt lat="42.18983" lon="0.87306">
        <ele>573</ele>
        <time>2023-07-23T07:01:40Z</time>
      </trkpt>
      <trkpt lat="42.18987" lon="0.87304">
        <ele>573.2</ele>
        <time>2023-07-23T07:01:41Z</time>
      </trkpt>
      <trkpt lat="42.1899" lon="0.87301">
        <ele>573.2</ele>
        <time>2023-07-23T07:01:42Z</time>
      </trkpt>
      <trkpt lat="42.18993" lon="0.87298">
        <ele>573.2</ele>
        <time>2023-07-23T07:01:43Z</time>
      </trkpt>
      <trkpt lat="42.18995" lon="0.87294">
        <ele>573.2</ele>
        <time>2023-07-23T07:01:44Z</time>
      </trkpt>
      <trkpt lat="42.18996" lon="0.8729">
        <ele>573.4</ele>
        <time>2023-07-23T07:01:45Z</time>
      </trkpt>
      <trkpt lat="42.18997" lon="0.87285">
        <ele>573.4</ele>
        <time>2023-07-23T07:01:46Z</time>
      </trkpt>
      <trkpt lat="42.18996" lon="0.8728">
        <ele>573.8</ele>
        <time>2023-07-23T07:01:47Z</time>
      </trkpt>
      <trkpt lat="42.18996" lon="0.87275">
        <ele>573.8</ele>
        <time>2023-07-23T07:01:48Z</time>
      </trkpt>
      <trkpt lat="42.18996" lon="0.8727">
        <ele>574.2</ele>
        <time>2023-07-23T07:01:49Z</time>
      </trkpt>
      <trkpt lat="42.18995" lon="0.87265">
        <ele>574.2</ele>
        <time>2023-07-23T07:01:50Z</time>
      </trkpt>
      <trkpt lat="42.18995" lon="0.8726">
        <ele>574.4</ele>
        <time>2023-07-23T07:01:51Z</time>
      </trkpt>
      <trkpt lat="42.18996" lon="0.87255">
        <ele>574.6</ele>
        <time>2023-07-23T07:01:52Z</time>
      </trkpt>
      <trkpt lat="42.18998" lon="0.8725">
        <ele>574.8</ele>
        <time>2023-07-23T07:01:53Z</time>
      </trkpt>
      <trkpt lat="42.19" lon="0.87246">
        <ele>575.2</ele>
        <time>2023-07-23T07:01:54Z</time>
      </trkpt>
      <trkpt lat="42.19002" lon="0.87241">
        <ele>575.4</ele>
        <time>2023-07-23T07:01:55Z</time>
      </trkpt>
      <trkpt lat="42.19004" lon="0.87237">
        <ele>575.8</ele>
        <time>2023-07-23T07:01:56Z</time>
      </trkpt>
      <trkpt lat="42.19007" lon="0.87233">
        <ele>575.8</ele>
        <time>2023-07-23T07:01:57Z</time>
      </trkpt>
      <trkpt lat="42.1901" lon="0.87229">
        <ele>575.8</ele>
        <time>2023-07-23T07:01:58Z</time>
      </trkpt>
      <trkpt lat="42.19012" lon="0.87225">
        <ele>576</ele>
        <time>2023-07-23T07:01:59Z</time>
      </trkpt>
      <trkpt lat="42.19015" lon="0.87221">
        <ele>576</ele>
        <time>2023-07-23T07:02:00Z</time>
      </trkpt>
      <trkpt lat="42.19019" lon="0.87218">
        <ele>576</ele>
        <time>2023-07-23T07:02:01Z</time>
      </trkpt>
      <trkpt lat="42.19022" lon="0.87215">
        <ele>576.2</ele>
        <time>2023-07-23T07:02:02Z</time>
      </trkpt>
      <trkpt lat="42.19025" lon="0.87212">
        <ele>576.2</ele>
        <time>2023-07-23T07:02:03Z</time>
      </trkpt>
      <trkpt lat="42.19028" lon="0.87209">
        <ele>576.4</ele>
        <time>2023-07-23T07:02:04Z</time>
      </trkpt>
      <trkpt lat="42.19031" lon="0.87207">
        <ele>576.6</ele>
        <time>2023-07-23T07:02:05Z</time>
      </trkpt>
      <trkpt lat="42.19035" lon="0.87204">
        <ele>576.6</ele>
        <time>2023-07-23T07:02:06Z</time>
      </trkpt>
      <trkpt lat="42.19039" lon="0.87202">
        <ele>576.6</ele>
        <time>2023-07-23T07:02:07Z</time>
      </trkpt>
      <trkpt lat="42.19043" lon="0.872">
        <ele>576.8</ele>
        <time>2023-07-23T07:02:08Z</time>
      </trkpt>
      <trkpt lat="42.19047" lon="0.87199">
        <ele>576.8</ele>
        <time>2023-07-23T07:02:09Z</time>
      </trkpt>
      <trkpt lat="42.19051" lon="0.87197">
        <ele>577</ele>
        <time>2023-07-23T07:02:10Z</time>
      </trkpt>
      <trkpt lat="42.19055" lon="0.87195">
        <ele>577.2</ele>
        <time>2023-07-23T07:02:11Z</time>
      </trkpt>
      <trkpt lat="42.1906" lon="0.87193">
        <ele>577.4</ele>
        <time>2023-07-23T07:02:12Z</time>
      </trkpt>
      <trkpt lat="42.19063" lon="0.87192">
        <ele>577.8</ele>
        <time>2023-07-23T07:02:13Z</time>
      </trkpt>
      <trkpt lat="42.19067" lon="0.87191">
        <ele>578</ele>
        <time>2023-07-23T07:02:14Z</time>
      </trkpt>
      <trkpt lat="42.19071" lon="0.8719">
        <ele>578.2</ele>
        <time>2023-07-23T07:02:15Z</time>
      </trkpt>
      <trkpt lat="42.19075" lon="0.87189">
        <ele>578.2</ele>
        <time>2023-07-23T07:02:16Z</time>
      </trkpt>
      <trkpt lat="42.19078" lon="0.87189">
        <ele>578.4</ele>
        <time>2023-07-23T07:02:17Z</time>
      </trkpt>
      <trkpt lat="42.19082" lon="0.87189">
        <ele>578.4</ele>
        <time>2023-07-23T07:02:18Z</time>
      </trkpt>
      <trkpt lat="42.19086" lon="0.87189">
        <ele>578.4</ele>
        <time>2023-07-23T07:02:19Z</time>
      </trkpt>
      <trkpt lat="42.1909" lon="0.8719">
        <ele>578.6</ele>
        <time>2023-07-23T07:02:20Z</time>
      </trkpt>
      <trkpt lat="42.19093" lon="0.8719">
        <ele>578.6</ele>
        <time>2023-07-23T07:02:21Z</time>
      </trkpt>
      <trkpt lat="42.19097" lon="0.8719">
        <ele>578.8</ele>
        <time>2023-07-23T07:02:22Z</time>
      </trkpt>
      <trkpt lat="42.19101" lon="0.87189">
        <ele>578.8</ele>
        <time>2023-07-23T07:02:23Z</time>
      </trkpt>
      <trkpt lat="42.19104" lon="0.87189">
        <ele>579</ele>
        <time>2023-07-23T07:02:24Z</time>
      </trkpt>
      <trkpt lat="42.19108" lon="0.87188">
        <ele>579.2</ele>
        <time>2023-07-23T07:02:25Z</time>
      </trkpt>
      <trkpt lat="42.19111" lon="0.87187">
        <ele>579.4</ele>
        <time>2023-07-23T07:02:26Z</time>
      </trkpt>
      <trkpt lat="42.19115" lon="0.87185">
        <ele>579.6</ele>
        <time>2023-07-23T07:02:27Z</time>
      </trkpt>
      <trkpt lat="42.19118" lon="0.87184">
        <ele>579.6</ele>
        <time>2023-07-23T07:02:28Z</time>
      </trkpt>
      <trkpt lat="42.19121" lon="0.87182">
        <ele>579.8</ele>
        <time>2023-07-23T07:02:29Z</time>
      </trkpt>
      <trkpt lat="42.19124" lon="0.8718">
        <ele>580.2</ele>
        <time>2023-07-23T07:02:30Z</time>
      </trkpt>
      <trkpt lat="42.19127" lon="0.87177">
        <ele>580.2</ele>
        <time>2023-07-23T07:02:31Z</time>
      </trkpt>
      <trkpt lat="42.1913" lon="0.87174">
        <ele>580.4</ele>
        <time>2023-07-23T07:02:32Z</time>
      </trkpt>
      <trkpt lat="42.19132" lon="0.8717">
        <ele>580.6</ele>
        <time>2023-07-23T07:02:33Z</time>
      </trkpt>
      <trkpt lat="42.19134" lon="0.87166">
        <ele>580.8</ele>
        <time>2023-07-23T07:02:34Z</time>
      </trkpt>
      <trkpt lat="42.19135" lon="0.87162">
        <ele>580.8</ele>
        <time>2023-07-23T07:02:35Z</time>
      </trkpt>
      <trkpt lat="42.19135" lon="0.87157">
        <ele>581</ele>
        <time>2023-07-23T07:02:36Z</time>
      </trkpt>
      <trkpt lat="42.19135" lon="0.87153">
        <ele>581.2</ele>
        <time>2023-07-23T07:02:37Z</time>
      </trkpt>
      <trkpt lat="42.19134" lon="0.87149">
        <ele>581.2</ele>
        <time>2023-07-23T07:02:38Z</time>
      </trkpt>
      <trkpt lat="42.19133" lon="0.87144">
        <ele>581.4</ele>
        <time>2023-07-23T07:02:39Z</time>
      </trkpt>
      <trkpt lat="42.19132" lon="0.8714">
        <ele>581.6</ele>
        <time>2023-07-23T07:02:40Z</time>
      </trkpt>
      <trkpt lat="42.19131" lon="0.87136">
        <ele>582</ele>
        <time>2023-07-23T07:02:41Z</time>
      </trkpt>
      <trkpt lat="42.1913" lon="0.87131">
        <ele>582.4</ele>
        <time>2023-07-23T07:02:42Z</time>
      </trkpt>
      <trkpt lat="42.1913" lon="0.87127">
        <ele>582.8</ele>
        <time>2023-07-23T07:02:43Z</time>
      </trkpt>
      <trkpt lat="42.19129" lon="0.87122">
        <ele>583.2</ele>
        <time>2023-07-23T07:02:44Z</time>
      </trkpt>
      <trkpt lat="42.19129" lon="0.87117">
        <ele>583.4</ele>
        <time>2023-07-23T07:02:45Z</time>
      </trkpt>
      <trkpt lat="42.19129" lon="0.87111">
        <ele>583.8</ele>
        <time>2023-07-23T07:02:46Z</time>
      </trkpt>
      <trkpt lat="42.19128" lon="0.87106">
        <ele>584</ele>
        <time>2023-07-23T07:02:47Z</time>
      </trkpt>
      <trkpt lat="42.19128" lon="0.87101">
        <ele>584.4</ele>
        <time>2023-07-23T07:02:48Z</time>
      </trkpt>
      <trkpt lat="42.19129" lon="0.87096">
        <ele>584.4</ele>
        <time>2023-07-23T07:02:49Z</time>
      </trkpt>
      <trkpt lat="42.19129" lon="0.8709">
        <ele>584.8</ele>
        <time>2023-07-23T07:02:50Z</time>
      </trkpt>
      <trkpt lat="42.19129" lon="0.87085">
        <ele>585</ele>
        <time>2023-07-23T07:02:51Z</time>
      </trkpt>
      <trkpt lat="42.1913" lon="0.87079">
        <ele>585.2</ele>
        <time>2023-07-23T07:02:52Z</time>
      </trkpt>
      <trkpt lat="42.19131" lon="0.87074">
        <ele>585.4</ele>
        <time>2023-07-23T07:02:53Z</time>
      </trkpt>
      <trkpt lat="42.19131" lon="0.87069">
        <ele>585.4</ele>
        <time>2023-07-23T07:02:54Z</time>
      </trkpt>
      <trkpt lat="42.19132" lon="0.87064">
        <ele>585.6</ele>
        <time>2023-07-23T07:02:55Z</time>
      </trkpt>
      <trkpt lat="42.19133" lon="0.87059">
        <ele>585.6</ele>
        <time>2023-07-23T07:02:56Z</time>
      </trkpt>
      <trkpt lat="42.19135" lon="0.87054">
        <ele>585.6</ele>
        <time>2023-07-23T07:02:57Z</time>
      </trkpt>
      <trkpt lat="42.19137" lon="0.87049">
        <ele>585.8</ele>
        <time>2023-07-23T07:02:58Z</time>
      </trkpt>
      <trkpt lat="42.19139" lon="0.87045">
        <ele>585.8</ele>
        <time>2023-07-23T07:02:59Z</time>
      </trkpt>
      <trkpt lat="42.19141" lon="0.87041">
        <ele>585.8</ele>
        <time>2023-07-23T07:03:00Z</time>
      </trkpt>
      <trkpt lat="42.19143" lon="0.87036">
        <ele>585.8</ele>
        <time>2023-07-23T07:03:01Z</time>
      </trkpt>
      <trkpt lat="42.19146" lon="0.87033">
        <ele>585.8</ele>
        <time>2023-07-23T07:03:02Z</time>
      </trkpt>
      <trkpt lat="42.19149" lon="0.87029">
        <ele>585.8</ele>
        <time>2023-07-23T07:03:03Z</time>
      </trkpt>
      <trkpt lat="42.19152" lon="0.87025">
        <ele>586</ele>
        <time>2023-07-23T07:03:04Z</time>
      </trkpt>
      <trkpt lat="42.19154" lon="0.87022">
        <ele>586.4</ele>
        <time>2023-07-23T07:03:05Z</time>
      </trkpt>
      <trkpt lat="42.19157" lon="0.87018">
        <ele>586.4</ele>
        <time>2023-07-23T07:03:06Z</time>
      </trkpt>
      <trkpt lat="42.1916" lon="0.87015">
        <ele>586.6</ele>
        <time>2023-07-23T07:03:07Z</time>
      </trkpt>
      <trkpt lat="42.19163" lon="0.87011">
        <ele>586.8</ele>
        <time>2023-07-23T07:03:08Z</time>
      </trkpt>
      <trkpt lat="42.19167" lon="0.87008">
        <ele>586.8</ele>
        <time>2023-07-23T07:03:09Z</time>
      </trkpt>
      <trkpt lat="42.1917" lon="0.87005">
        <ele>587.2</ele>
        <time>2023-07-23T07:03:10Z</time>
      </trkpt>
      <trkpt lat="42.19173" lon="0.87001">
        <ele>587.2</ele>
        <time>2023-07-23T07:03:11Z</time>
      </trkpt>
      <trkpt lat="42.19175" lon="0.86998">
        <ele>587.4</ele>
        <time>2023-07-23T07:03:12Z</time>
      </trkpt>
      <trkpt lat="42.19178" lon="0.86995">
        <ele>587.4</ele>
        <time>2023-07-23T07:03:13Z</time>
      </trkpt>
      <trkpt lat="42.19181" lon="0.86992">
        <ele>587.4</ele>
        <time>2023-07-23T07:03:14Z</time>
      </trkpt>
      <trkpt lat="42.19183" lon="0.86989">
        <ele>587.4</ele>
        <time>2023-07-23T07:03:15Z</time>
      </trkpt>
      <trkpt lat="42.19185" lon="0.86986">
        <ele>587.8</ele>
        <time>2023-07-23T07:03:16Z</time>
      </trkpt>
      <trkpt lat="42.19187" lon="0.86982">
        <ele>588</ele>
        <time>2023-07-23T07:03:17Z</time>
      </trkpt>
      <trkpt lat="42.19189" lon="0.86977">
        <ele>588.2</ele>
        <time>2023-07-23T07:03:18Z</time>
      </trkpt>
      <trkpt lat="42.1919" lon="0.86973">
        <ele>588.4</ele>
        <time>2023-07-23T07:03:19Z</time>
      </trkpt>
      <trkpt lat="42.19191" lon="0.86969">
        <ele>588.4</ele>
        <time>2023-07-23T07:03:20Z</time>
      </trkpt>
      <trkpt lat="42.19192" lon="0.86965">
        <ele>588.8</ele>
        <time>2023-07-23T07:03:21Z</time>
      </trkpt>
      <trkpt lat="42.19192" lon="0.8696">
        <ele>588.8</ele>
        <time>2023-07-23T07:03:22Z</time>
      </trkpt>
      <trkpt lat="42.19193" lon="0.86955">
        <ele>589.2</ele>
        <time>2023-07-23T07:03:23Z</time>
      </trkpt>
      <trkpt lat="42.19193" lon="0.8695">
        <ele>589.6</ele>
        <time>2023-07-23T07:03:24Z</time>
      </trkpt>
      <trkpt lat="42.19194" lon="0.86945">
        <ele>589.8</ele>
        <time>2023-07-23T07:03:25Z</time>
      </trkpt>
      <trkpt lat="42.19195" lon="0.86941">
        <ele>590</ele>
        <time>2023-07-23T07:03:26Z</time>
      </trkpt>
      <trkpt lat="42.19196" lon="0.86935">
        <ele>590.2</ele>
        <time>2023-07-23T07:03:27Z</time>
      </trkpt>
      <trkpt lat="42.19197" lon="0.86931">
        <ele>590.6</ele>
        <time>2023-07-23T07:03:28Z</time>
      </trkpt>
      <trkpt lat="42.19198" lon="0.86926">
        <ele>590.8</ele>
        <time>2023-07-23T07:03:29Z</time>
      </trkpt>
      <trkpt lat="42.19198" lon="0.86921">
        <ele>591.2</ele>
        <time>2023-07-23T07:03:30Z</time>
      </trkpt>
      <trkpt lat="42.19198" lon="0.86916">
        <ele>591.8</ele>
        <time>2023-07-23T07:03:31Z</time>
      </trkpt>
      <trkpt lat="42.19198" lon="0.86912">
        <ele>592.4</ele>
        <time>2023-07-23T07:03:32Z</time>
      </trkpt>
      <trkpt lat="42.19198" lon="0.86907">
        <ele>593.2</ele>
        <time>2023-07-23T07:03:33Z</time>
      </trkpt>
      <trkpt lat="42.19198" lon="0.86902">
        <ele>593.4</ele>
        <time>2023-07-23T07:03:34Z</time>
      </trkpt>
      <trkpt lat="42.19199" lon="0.86896">
        <ele>594</ele>
        <time>2023-07-23T07:03:35Z</time>
      </trkpt>
      <trkpt lat="42.19199" lon="0.86891">
        <ele>594.2</ele>
        <time>2023-07-23T07:03:36Z</time>
      </trkpt>
      <trkpt lat="42.19199" lon="0.86886">
        <ele>594.4</ele>
        <time>2023-07-23T07:03:37Z</time>
      </trkpt>
      <trkpt lat="42.192" lon="0.86881">
        <ele>595</ele>
        <time>2023-07-23T07:03:38Z</time>
      </trkpt>
      <trkpt lat="42.192" lon="0.86876">
        <ele>595.2</ele>
        <time>2023-07-23T07:03:39Z</time>
      </trkpt>
      <trkpt lat="42.19201" lon="0.86871">
        <ele>595.6</ele>
        <time>2023-07-23T07:03:40Z</time>
      </trkpt>
      <trkpt lat="42.19202" lon="0.86867">
        <ele>595.6</ele>
        <time>2023-07-23T07:03:41Z</time>
      </trkpt>
      <trkpt lat="42.19203" lon="0.86862">
        <ele>595.8</ele>
        <time>2023-07-23T07:03:42Z</time>
      </trkpt>
      <trkpt lat="42.19204" lon="0.86858">
        <ele>595.8</ele>
        <time>2023-07-23T07:03:43Z</time>
      </trkpt>
      <trkpt lat="42.19206" lon="0.86854">
        <ele>596</ele>
        <time>2023-07-23T07:03:44Z</time>
      </trkpt>
      <trkpt lat="42.19207" lon="0.8685">
        <ele>596.2</ele>
        <time>2023-07-23T07:03:45Z</time>
      </trkpt>
      <trkpt lat="42.19208" lon="0.86846">
        <ele>596.2</ele>
        <time>2023-07-23T07:03:46Z</time>
      </trkpt>
      <trkpt lat="42.1921" lon="0.86843">
        <ele>596.4</ele>
        <time>2023-07-23T07:03:47Z</time>
      </trkpt>
      <trkpt lat="42.19211" lon="0.86839">
        <ele>596.6</ele>
        <time>2023-07-23T07:03:48Z</time>
      </trkpt>
      <trkpt lat="42.19213" lon="0.86836">
        <ele>596.8</ele>
        <time>2023-07-23T07:03:49Z</time>
      </trkpt>
      <trkpt lat="42.19215" lon="0.86832">
        <ele>597</ele>
        <time>2023-07-23T07:03:50Z</time>
      </trkpt>
      <trkpt lat="42.19216" lon="0.86828">
        <ele>597</ele>
        <time>2023-07-23T07:03:51Z</time>
      </trkpt>
      <trkpt lat="42.19218" lon="0.86824">
        <ele>597.2</ele>
        <time>2023-07-23T07:03:52Z</time>
      </trkpt>
      <trkpt lat="42.19219" lon="0.86821">
        <ele>597.6</ele>
        <time>2023-07-23T07:03:53Z</time>
      </trkpt>
      <trkpt lat="42.19221" lon="0.86817">
        <ele>597.8</ele>
        <time>2023-07-23T07:03:54Z</time>
      </trkpt>
      <trkpt lat="42.19223" lon="0.86814">
        <ele>598</ele>
        <time>2023-07-23T07:03:55Z</time>
      </trkpt>
      <trkpt lat="42.19225" lon="0.8681">
        <ele>598.2</ele>
        <time>2023-07-23T07:03:56Z</time>
      </trkpt>
      <trkpt lat="42.19227" lon="0.86806">
        <ele>598.2</ele>
        <time>2023-07-23T07:03:57Z</time>
      </trkpt>
      <trkpt lat="42.19229" lon="0.86803">
        <ele>598.2</ele>
        <time>2023-07-23T07:03:58Z</time>
      </trkpt>
      <trkpt lat="42.19232" lon="0.868">
        <ele>598.2</ele>
        <time>2023-07-23T07:03:59Z</time>
      </trkpt>
      <trkpt lat="42.19236" lon="0.86799">
        <ele>598.2</ele>
        <time>2023-07-23T07:04:00Z</time>
      </trkpt>
      <trkpt lat="42.19241" lon="0.86798">
        <ele>598.2</ele>
        <time>2023-07-23T07:04:01Z</time>
      </trkpt>
      <trkpt lat="42.19247" lon="0.86798">
        <ele>598.2</ele>
        <time>2023-07-23T07:04:02Z</time>
      </trkpt>
      <trkpt lat="42.19252" lon="0.86798">
        <ele>598.2</ele>
        <time>2023-07-23T07:04:03Z</time>
      </trkpt>
      <trkpt lat="42.19258" lon="0.86798">
        <ele>598.2</ele>
        <time>2023-07-23T07:04:04Z</time>
      </trkpt>
      <trkpt lat="42.19264" lon="0.86797">
        <ele>597.8</ele>
        <time>2023-07-23T07:04:05Z</time>
      </trkpt>
      <trkpt lat="42.19269" lon="0.86797">
        <ele>597.6</ele>
        <time>2023-07-23T07:04:06Z</time>
      </trkpt>
      <trkpt lat="42.19274" lon="0.86798">
        <ele>597.2</ele>
        <time>2023-07-23T07:04:07Z</time>
      </trkpt>
      <trkpt lat="42.19278" lon="0.86799">
        <ele>597</ele>
        <time>2023-07-23T07:04:08Z</time>
      </trkpt>
      <trkpt lat="42.19283" lon="0.86799">
        <ele>596.8</ele>
        <time>2023-07-23T07:04:09Z</time>
      </trkpt>
      <trkpt lat="42.19287" lon="0.868">
        <ele>596.8</ele>
        <time>2023-07-23T07:04:10Z</time>
      </trkpt>
      <trkpt lat="42.19291" lon="0.868">
        <ele>596.8</ele>
        <time>2023-07-23T07:04:11Z</time>
      </trkpt>
      <trkpt lat="42.19295" lon="0.86799">
        <ele>596.6</ele>
        <time>2023-07-23T07:04:12Z</time>
      </trkpt>
      <trkpt lat="42.19298" lon="0.86798">
        <ele>596.6</ele>
        <time>2023-07-23T07:04:13Z</time>
      </trkpt>
      <trkpt lat="42.19302" lon="0.86797">
        <ele>596.6</ele>
        <time>2023-07-23T07:04:14Z</time>
      </trkpt>
      <trkpt lat="42.19305" lon="0.86796">
        <ele>596.8</ele>
        <time>2023-07-23T07:04:15Z</time>
      </trkpt>
      <trkpt lat="42.19309" lon="0.86794">
        <ele>596.8</ele>
        <time>2023-07-23T07:04:16Z</time>
      </trkpt>
      <trkpt lat="42.19312" lon="0.86792">
        <ele>597.2</ele>
        <time>2023-07-23T07:04:17Z</time>
      </trkpt>
      <trkpt lat="42.19314" lon="0.8679">
        <ele>597.4</ele>
        <time>2023-07-23T07:04:18Z</time>
      </trkpt>
      <trkpt lat="42.19317" lon="0.86788">
        <ele>597.4</ele>
        <time>2023-07-23T07:04:19Z</time>
      </trkpt>
      <trkpt lat="42.1932" lon="0.86786">
        <ele>597.8</ele>
        <time>2023-07-23T07:04:20Z</time>
      </trkpt>
      <trkpt lat="42.19322" lon="0.86783">
        <ele>597.8</ele>
        <time>2023-07-23T07:04:21Z</time>
      </trkpt>
      <trkpt lat="42.19324" lon="0.8678">
        <ele>598.8</ele>
        <time>2023-07-23T07:04:22Z</time>
      </trkpt>
      <trkpt lat="42.19327" lon="0.86777">
        <ele>599</ele>
        <time>2023-07-23T07:04:23Z</time>
      </trkpt>
      <trkpt lat="42.19329" lon="0.86773">
        <ele>599.4</ele>
        <time>2023-07-23T07:04:24Z</time>
      </trkpt>
      <trkpt lat="42.19331" lon="0.8677">
        <ele>599.6</ele>
        <time>2023-07-23T07:04:25Z</time>
      </trkpt>
      <trkpt lat="42.19334" lon="0.86765">
        <ele>599.8</ele>
        <time>2023-07-23T07:04:26Z</time>
      </trkpt>
      <trkpt lat="42.19336" lon="0.86761">
        <ele>600</ele>
        <time>2023-07-23T07:04:27Z</time>
      </trkpt>
      <trkpt lat="42.19337" lon="0.86757">
        <ele>600</ele>
        <time>2023-07-23T07:04:28Z</time>
      </trkpt>
      <trkpt lat="42.19338" lon="0.86753">
        <ele>600.2</ele>
        <time>2023-07-23T07:04:29Z</time>
      </trkpt>
      <trkpt lat="42.19339" lon="0.86749">
        <ele>600.4</ele>
        <time>2023-07-23T07:04:30Z</time>
      </trkpt>
      <trkpt lat="42.1934" lon="0.86745">
        <ele>600.6</ele>
        <time>2023-07-23T07:04:31Z</time>
      </trkpt>
      <trkpt lat="42.1934" lon="0.86741">
        <ele>600.8</ele>
        <time>2023-07-23T07:04:32Z</time>
      </trkpt>
      <trkpt lat="42.1934" lon="0.86736">
        <ele>601</ele>
        <time>2023-07-23T07:04:33Z</time>
      </trkpt>
      <trkpt lat="42.1934" lon="0.86732">
        <ele>601.2</ele>
        <time>2023-07-23T07:04:34Z</time>
      </trkpt>
      <trkpt lat="42.1934" lon="0.86729">
        <ele>601.2</ele>
        <time>2023-07-23T07:04:35Z</time>
      </trkpt>
      <trkpt lat="42.1934" lon="0.86727">
        <ele>601.8</ele>
        <time>2023-07-23T07:04:36Z</time>
      </trkpt>
      <trkpt lat="42.1934" lon="0.86725">
        <ele>601.8</ele>
        <time>2023-07-23T07:04:37Z</time>
      </trkpt>
      <trkpt lat="42.19339" lon="0.86723">
        <ele>602.4</ele>
        <time>2023-07-23T07:04:38Z</time>
      </trkpt>
      <trkpt lat="42.19339" lon="0.86723">
        <ele>602.8</ele>
        <time>2023-07-23T07:04:39Z</time>
      </trkpt>
      <trkpt lat="42.19338" lon="0.86723">
        <ele>602.8</ele>
        <time>2023-07-23T07:04:40Z</time>
      </trkpt>
      <trkpt lat="42.19338" lon="0.86723">
        <ele>603</ele>
        <time>2023-07-23T07:04:41Z</time>
      </trkpt>
      <trkpt lat="42.19339" lon="0.86724">
        <ele>603</ele>
        <time>2023-07-23T07:04:42Z</time>
      </trkpt>
      <trkpt lat="42.19339" lon="0.86727">
        <ele>603</ele>
        <time>2023-07-23T07:04:43Z</time>
      </trkpt>
      <trkpt lat="42.19339" lon="0.86731">
        <ele>603.2</ele>
        <time>2023-07-23T07:04:44Z</time>
      </trkpt>
      <trkpt lat="42.1934" lon="0.86735">
        <ele>603.2</ele>
        <time>2023-07-23T07:04:45Z</time>
      </trkpt>
      <trkpt lat="42.19339" lon="0.8674">
        <ele>603.2</ele>
        <time>2023-07-23T07:04:46Z</time>
      </trkpt>
      <trkpt lat="42.19339" lon="0.86745">
        <ele>603.2</ele>
        <time>2023-07-23T07:04:47Z</time>
      </trkpt>
      <trkpt lat="42.19338" lon="0.8675">
        <ele>603.2</ele>
        <time>2023-07-23T07:04:48Z</time>
      </trkpt>
      <trkpt lat="42.19337" lon="0.86756">
        <ele>603</ele>
        <time>2023-07-23T07:04:49Z</time>
      </trkpt>
      <trkpt lat="42.19336" lon="0.86762">
        <ele>603</ele>
        <time>2023-07-23T07:04:50Z</time>
      </trkpt>
      <trkpt lat="42.19333" lon="0.86767">
        <ele>602.8</ele>
        <time>2023-07-23T07:04:51Z</time>
      </trkpt>
      <trkpt lat="42.19331" lon="0.86772">
        <ele>602.6</ele>
        <time>2023-07-23T07:04:52Z</time>
      </trkpt>
      <trkpt lat="42.19328" lon="0.86777">
        <ele>602.4</ele>
        <time>2023-07-23T07:04:53Z</time>
      </trkpt>
      <trkpt lat="42.19325" lon="0.86781">
        <ele>602.2</ele>
        <time>2023-07-23T07:04:54Z</time>
      </trkpt>
      <trkpt lat="42.19322" lon="0.86785">
        <ele>601.8</ele>
        <time>2023-07-23T07:04:55Z</time>
      </trkpt>
      <trkpt lat="42.19319" lon="0.86788">
        <ele>601.8</ele>
        <time>2023-07-23T07:04:56Z</time>
      </trkpt>
      <trkpt lat="42.19316" lon="0.86792">
        <ele>601.6</ele>
        <time>2023-07-23T07:04:57Z</time>
      </trkpt>
      <trkpt lat="42.19313" lon="0.86794">
        <ele>601.4</ele>
        <time>2023-07-23T07:04:58Z</time>
      </trkpt>
      <trkpt lat="42.19311" lon="0.86795">
        <ele>601.4</ele>
        <time>2023-07-23T07:04:59Z</time>
      </trkpt>
      <trkpt lat="42.19308" lon="0.86797">
        <ele>601.2</ele>
        <time>2023-07-23T07:05:00Z</time>
      </trkpt>
      <trkpt lat="42.19308" lon="0.868">
        <ele>601</ele>
        <time>2023-07-23T07:05:01Z</time>
      </trkpt>
      <trkpt lat="42.1931" lon="0.86802">
        <ele>600.6</ele>
        <time>2023-07-23T07:05:02Z</time>
      </trkpt>
      <trkpt lat="42.19312" lon="0.86803">
        <ele>600.4</ele>
        <time>2023-07-23T07:05:03Z</time>
      </trkpt>
      <trkpt lat="42.19315" lon="0.86801">
        <ele>600</ele>
        <time>2023-07-23T07:05:04Z</time>
      </trkpt>
      <trkpt lat="42.19318" lon="0.86799">
        <ele>599.4</ele>
        <time>2023-07-23T07:05:05Z</time>
      </trkpt>
      <trkpt lat="42.19321" lon="0.86796">
        <ele>599.2</ele>
        <time>2023-07-23T07:05:06Z</time>
      </trkpt>
      <trkpt lat="42.19325" lon="0.86794">
        <ele>599</ele>
        <time>2023-07-23T07:05:07Z</time>
      </trkpt>
      <trkpt lat="42.19328" lon="0.86791">
        <ele>598.8</ele>
        <time>2023-07-23T07:05:08Z</time>
      </trkpt>
      <trkpt lat="42.19332" lon="0.86788">
        <ele>598.4</ele>
        <time>2023-07-23T07:05:09Z</time>
      </trkpt>
      <trkpt lat="42.19335" lon="0.86785">
        <ele>598.2</ele>
        <time>2023-07-23T07:05:10Z</time>
      </trkpt>
      <trkpt lat="42.19339" lon="0.86782">
        <ele>598</ele>
        <time>2023-07-23T07:05:11Z</time>
      </trkpt>
      <trkpt lat="42.19342" lon="0.8678">
        <ele>597.8</ele>
        <time>2023-07-23T07:05:12Z</time>
      </trkpt>
      <trkpt lat="42.19345" lon="0.86778">
        <ele>597.8</ele>
        <time>2023-07-23T07:05:13Z</time>
      </trkpt>
      <trkpt lat="42.19348" lon="0.86775">
        <ele>597.8</ele>
        <time>2023-07-23T07:05:14Z</time>
      </trkpt>
      <trkpt lat="42.19351" lon="0.86772">
        <ele>597.8</ele>
        <time>2023-07-23T07:05:15Z</time>
      </trkpt>
      <trkpt lat="42.19353" lon="0.86769">
        <ele>597.8</ele>
        <time>2023-07-23T07:05:16Z</time>
      </trkpt>
      <trkpt lat="42.19356" lon="0.86765">
        <ele>597.8</ele>
        <time>2023-07-23T07:05:17Z</time>
      </trkpt>
      <trkpt lat="42.19358" lon="0.86762">
        <ele>598.2</ele>
        <time>2023-07-23T07:05:18Z</time>
      </trkpt>
      <trkpt lat="42.19361" lon="0.86759">
        <ele>598.6</ele>
        <time>2023-07-23T07:05:19Z</time>
      </trkpt>
      <trkpt lat="42.19364" lon="0.86755">
        <ele>598.8</ele>
        <time>2023-07-23T07:05:20Z</time>
      </trkpt>
      <trkpt lat="42.19366" lon="0.86752">
        <ele>599</ele>
        <time>2023-07-23T07:05:21Z</time>
      </trkpt>
      <trkpt lat="42.19368" lon="0.8675">
        <ele>599</ele>
        <time>2023-07-23T07:05:22Z</time>
      </trkpt>
      <trkpt lat="42.19371" lon="0.86748">
        <ele>599.2</ele>
        <time>2023-07-23T07:05:23Z</time>
      </trkpt>
      <trkpt lat="42.19374" lon="0.86746">
        <ele>599.4</ele>
        <time>2023-07-23T07:05:24Z</time>
      </trkpt>
      <trkpt lat="42.19376" lon="0.86743">
        <ele>599.8</ele>
        <time>2023-07-23T07:05:25Z</time>
      </trkpt>
      <trkpt lat="42.19379" lon="0.8674">
        <ele>600</ele>
        <time>2023-07-23T07:05:26Z</time>
      </trkpt>
      <trkpt lat="42.19382" lon="0.86737">
        <ele>600.2</ele>
        <time>2023-07-23T07:05:27Z</time>
      </trkpt>
      <trkpt lat="42.19385" lon="0.86735">
        <ele>600.2</ele>
        <time>2023-07-23T07:05:28Z</time>
      </trkpt>
      <trkpt lat="42.19388" lon="0.86733">
        <ele>600.4</ele>
        <time>2023-07-23T07:05:29Z</time>
      </trkpt>
      <trkpt lat="42.19391" lon="0.86731">
        <ele>600.4</ele>
        <time>2023-07-23T07:05:30Z</time>
      </trkpt>
      <trkpt lat="42.19394" lon="0.8673">
        <ele>600.6</ele>
        <time>2023-07-23T07:05:31Z</time>
      </trkpt>
      <trkpt lat="42.19397" lon="0.86728">
        <ele>600.8</ele>
        <time>2023-07-23T07:05:32Z</time>
      </trkpt>
      <trkpt lat="42.194" lon="0.86726">
        <ele>601.2</ele>
        <time>2023-07-23T07:05:33Z</time>
      </trkpt>
      <trkpt lat="42.19403" lon="0.86724">
        <ele>601.6</ele>
        <time>2023-07-23T07:05:34Z</time>
      </trkpt>
      <trkpt lat="42.19406" lon="0.86722">
        <ele>602</ele>
        <time>2023-07-23T07:05:35Z</time>
      </trkpt>
      <trkpt lat="42.19409" lon="0.8672">
        <ele>602.2</ele>
        <time>2023-07-23T07:05:36Z</time>
      </trkpt>
      <trkpt lat="42.19412" lon="0.86717">
        <ele>602.8</ele>
        <time>2023-07-23T07:05:37Z</time>
      </trkpt>
      <trkpt lat="42.19414" lon="0.86715">
        <ele>603.2</ele>
        <time>2023-07-23T07:05:38Z</time>
      </trkpt>
      <trkpt lat="42.19417" lon="0.86712">
        <ele>603.4</ele>
        <time>2023-07-23T07:05:39Z</time>
      </trkpt>
      <trkpt lat="42.19419" lon="0.86709">
        <ele>603.8</ele>
        <time>2023-07-23T07:05:40Z</time>
      </trkpt>
      <trkpt lat="42.19422" lon="0.86707">
        <ele>604</ele>
        <time>2023-07-23T07:05:41Z</time>
      </trkpt>
      <trkpt lat="42.19424" lon="0.86704">
        <ele>604.4</ele>
        <time>2023-07-23T07:05:42Z</time>
      </trkpt>
      <trkpt lat="42.19427" lon="0.86702">
        <ele>604.8</ele>
        <time>2023-07-23T07:05:43Z</time>
      </trkpt>
      <trkpt lat="42.19429" lon="0.86699">
        <ele>605.2</ele>
        <time>2023-07-23T07:05:44Z</time>
      </trkpt>
      <trkpt lat="42.19432" lon="0.86696">
        <ele>605.6</ele>
        <time>2023-07-23T07:05:45Z</time>
      </trkpt>
      <trkpt lat="42.19435" lon="0.86694">
        <ele>605.8</ele>
        <time>2023-07-23T07:05:46Z</time>
      </trkpt>
      <trkpt lat="42.19438" lon="0.86693">
        <ele>606.2</ele>
        <time>2023-07-23T07:05:47Z</time>
      </trkpt>
      <trkpt lat="42.19441" lon="0.86691">
        <ele>606.4</ele>
        <time>2023-07-23T07:05:48Z</time>
      </trkpt>
      <trkpt lat="42.19444" lon="0.86689">
        <ele>606.8</ele>
        <time>2023-07-23T07:05:49Z</time>
      </trkpt>
      <trkpt lat="42.19447" lon="0.86686">
        <ele>607</ele>
        <time>2023-07-23T07:05:50Z</time>
      </trkpt>
      <trkpt lat="42.1945" lon="0.86684">
        <ele>607.6</ele>
        <time>2023-07-23T07:05:51Z</time>
      </trkpt>
      <trkpt lat="42.19453" lon="0.86682">
        <ele>608.4</ele>
        <time>2023-07-23T07:05:52Z</time>
      </trkpt>
      <trkpt lat="42.19457" lon="0.86681">
        <ele>608.8</ele>
        <time>2023-07-23T07:05:53Z</time>
      </trkpt>
      <trkpt lat="42.19461" lon="0.8668">
        <ele>609.4</ele>
        <time>2023-07-23T07:05:54Z</time>
      </trkpt>
      <trkpt lat="42.19464" lon="0.86679">
        <ele>609.6</ele>
        <time>2023-07-23T07:05:55Z</time>
      </trkpt>
      <trkpt lat="42.19468" lon="0.86678">
        <ele>609.8</ele>
        <time>2023-07-23T07:05:56Z</time>
      </trkpt>
      <trkpt lat="42.19472" lon="0.86678">
        <ele>609.8</ele>
        <time>2023-07-23T07:05:57Z</time>
      </trkpt>
      <trkpt lat="42.19476" lon="0.86677">
        <ele>610</ele>
        <time>2023-07-23T07:05:58Z</time>
      </trkpt>
      <trkpt lat="42.19479" lon="0.86677">
        <ele>610.2</ele>
        <time>2023-07-23T07:05:59Z</time>
      </trkpt>
      <trkpt lat="42.19483" lon="0.86677">
        <ele>610.4</ele>
        <time>2023-07-23T07:06:00Z</time>
      </trkpt>
      <trkpt lat="42.19486" lon="0.86677">
        <ele>610.6</ele>
        <time>2023-07-23T07:06:01Z</time>
      </trkpt>
      <trkpt lat="42.19489" lon="0.86677">
        <ele>610.8</ele>
        <time>2023-07-23T07:06:02Z</time>
      </trkpt>
      <trkpt lat="42.19492" lon="0.86677">
        <ele>611</ele>
        <time>2023-07-23T07:06:03Z</time>
      </trkpt>
      <trkpt lat="42.19496" lon="0.86677">
        <ele>611.4</ele>
        <time>2023-07-23T07:06:04Z</time>
      </trkpt>
      <trkpt lat="42.19499" lon="0.86677">
        <ele>611.8</ele>
        <time>2023-07-23T07:06:05Z</time>
      </trkpt>
      <trkpt lat="42.19502" lon="0.86677">
        <ele>612.6</ele>
        <time>2023-07-23T07:06:06Z</time>
      </trkpt>
      <trkpt lat="42.19506" lon="0.86677">
        <ele>613</ele>
        <time>2023-07-23T07:06:07Z</time>
      </trkpt>
      <trkpt lat="42.19509" lon="0.86678">
        <ele>613.6</ele>
        <time>2023-07-23T07:06:08Z</time>
      </trkpt>
      <trkpt lat="42.19512" lon="0.86678">
        <ele>613.8</ele>
        <time>2023-07-23T07:06:09Z</time>
      </trkpt>
      <trkpt lat="42.19515" lon="0.86678">
        <ele>614.2</ele>
        <time>2023-07-23T07:06:10Z</time>
      </trkpt>
      <trkpt lat="42.19518" lon="0.86678">
        <ele>614.4</ele>
        <time>2023-07-23T07:06:11Z</time>
      </trkpt>
      <trkpt lat="42.19521" lon="0.86678">
        <ele>614.8</ele>
        <time>2023-07-23T07:06:12Z</time>
      </trkpt>
      <trkpt lat="42.19524" lon="0.86678">
        <ele>615.4</ele>
        <time>2023-07-23T07:06:13Z</time>
      </trkpt>
      <trkpt lat="42.19527" lon="0.86677">
        <ele>615.6</ele>
        <time>2023-07-23T07:06:14Z</time>
      </trkpt>
      <trkpt lat="42.1953" lon="0.86676">
        <ele>616</ele>
        <time>2023-07-23T07:06:15Z</time>
      </trkpt>
      <trkpt lat="42.19533" lon="0.86675">
        <ele>616.2</ele>
        <time>2023-07-23T07:06:16Z</time>
      </trkpt>
      <trkpt lat="42.19536" lon="0.86673">
        <ele>617</ele>
        <time>2023-07-23T07:06:17Z</time>
      </trkpt>
      <trkpt lat="42.19539" lon="0.86672">
        <ele>617.4</ele>
        <time>2023-07-23T07:06:18Z</time>
      </trkpt>
      <trkpt lat="42.19542" lon="0.86671">
        <ele>617.8</ele>
        <time>2023-07-23T07:06:19Z</time>
      </trkpt>
      <trkpt lat="42.19545" lon="0.8667">
        <ele>618.6</ele>
        <time>2023-07-23T07:06:20Z</time>
      </trkpt>
      <trkpt lat="42.19547" lon="0.86669">
        <ele>618.8</ele>
        <time>2023-07-23T07:06:21Z</time>
      </trkpt>
      <trkpt lat="42.1955" lon="0.86668">
        <ele>619.8</ele>
        <time>2023-07-23T07:06:22Z</time>
      </trkpt>
      <trkpt lat="42.19553" lon="0.86669">
        <ele>620.2</ele>
        <time>2023-07-23T07:06:23Z</time>
      </trkpt>
      <trkpt lat="42.19556" lon="0.86668">
        <ele>621</ele>
        <time>2023-07-23T07:06:24Z</time>
      </trkpt>
      <trkpt lat="42.19558" lon="0.86668">
        <ele>621.8</ele>
        <time>2023-07-23T07:06:25Z</time>
      </trkpt>
      <trkpt lat="42.19561" lon="0.86668">
        <ele>622</ele>
        <time>2023-07-23T07:06:26Z</time>
      </trkpt>
      <trkpt lat="42.19563" lon="0.86669">
        <ele>622.6</ele>
        <time>2023-07-23T07:06:27Z</time>
      </trkpt>
      <trkpt lat="42.19566" lon="0.86669">
        <ele>622.8</ele>
        <time>2023-07-23T07:06:28Z</time>
      </trkpt>
      <trkpt lat="42.19569" lon="0.86669">
        <ele>623.2</ele>
        <time>2023-07-23T07:06:29Z</time>
      </trkpt>
      <trkpt lat="42.19572" lon="0.86669">
        <ele>623.6</ele>
        <time>2023-07-23T07:06:30Z</time>
      </trkpt>
      <trkpt lat="42.19576" lon="0.86669">
        <ele>623.8</ele>
        <time>2023-07-23T07:06:31Z</time>
      </trkpt>
      <trkpt lat="42.19579" lon="0.8667">
        <ele>624</ele>
        <time>2023-07-23T07:06:32Z</time>
      </trkpt>
      <trkpt lat="42.19584" lon="0.86671">
        <ele>624</ele>
        <time>2023-07-23T07:06:33Z</time>
      </trkpt>
      <trkpt lat="42.1959" lon="0.8667">
        <ele>624.2</ele>
        <time>2023-07-23T07:06:34Z</time>
      </trkpt>
      <trkpt lat="42.19595" lon="0.86668">
        <ele>624.2</ele>
        <time>2023-07-23T07:06:35Z</time>
      </trkpt>
      <trkpt lat="42.196" lon="0.86665">
        <ele>624.2</ele>
        <time>2023-07-23T07:06:36Z</time>
      </trkpt>
      <trkpt lat="42.19605" lon="0.86664">
        <ele>623.8</ele>
        <time>2023-07-23T07:06:37Z</time>
      </trkpt>
      <trkpt lat="42.1961" lon="0.86663">
        <ele>623.4</ele>
        <time>2023-07-23T07:06:38Z</time>
      </trkpt>
      <trkpt lat="42.19614" lon="0.86663">
        <ele>623</ele>
        <time>2023-07-23T07:06:39Z</time>
      </trkpt>
      <trkpt lat="42.19618" lon="0.86664">
        <ele>623</ele>
        <time>2023-07-23T07:06:40Z</time>
      </trkpt>
      <trkpt lat="42.19622" lon="0.86665">
        <ele>622.8</ele>
        <time>2023-07-23T07:06:41Z</time>
      </trkpt>
      <trkpt lat="42.19626" lon="0.86667">
        <ele>622.8</ele>
        <time>2023-07-23T07:06:42Z</time>
      </trkpt>
      <trkpt lat="42.19629" lon="0.86668">
        <ele>622.8</ele>
        <time>2023-07-23T07:06:43Z</time>
      </trkpt>
      <trkpt lat="42.19633" lon="0.86671">
        <ele>622.8</ele>
        <time>2023-07-23T07:06:44Z</time>
      </trkpt>
      <trkpt lat="42.19637" lon="0.86674">
        <ele>622.8</ele>
        <time>2023-07-23T07:06:45Z</time>
      </trkpt>
      <trkpt lat="42.19639" lon="0.86677">
        <ele>623</ele>
        <time>2023-07-23T07:06:46Z</time>
      </trkpt>
      <trkpt lat="42.19641" lon="0.8668">
        <ele>623</ele>
        <time>2023-07-23T07:06:47Z</time>
      </trkpt>
      <trkpt lat="42.19644" lon="0.86681">
        <ele>623.6</ele>
        <time>2023-07-23T07:06:48Z</time>
      </trkpt>
      <trkpt lat="42.19646" lon="0.86681">
        <ele>624</ele>
        <time>2023-07-23T07:06:49Z</time>
      </trkpt>
      <trkpt lat="42.19649" lon="0.86681">
        <ele>624.4</ele>
        <time>2023-07-23T07:06:50Z</time>
      </trkpt>
      <trkpt lat="42.19652" lon="0.86681">
        <ele>624.8</ele>
        <time>2023-07-23T07:06:51Z</time>
      </trkpt>
      <trkpt lat="42.19655" lon="0.86681">
        <ele>626</ele>
        <time>2023-07-23T07:06:52Z</time>
      </trkpt>
      <trkpt lat="42.19657" lon="0.86681">
        <ele>626.8</ele>
        <time>2023-07-23T07:06:53Z</time>
      </trkpt>
      <trkpt lat="42.19659" lon="0.86679">
        <ele>627</ele>
        <time>2023-07-23T07:06:54Z</time>
      </trkpt>
      <trkpt lat="42.19662" lon="0.86677">
        <ele>627.2</ele>
        <time>2023-07-23T07:06:55Z</time>
      </trkpt>
      <trkpt lat="42.19664" lon="0.86675">
        <ele>627.8</ele>
        <time>2023-07-23T07:06:56Z</time>
      </trkpt>
      <trkpt lat="42.19667" lon="0.86673">
        <ele>628.4</ele>
        <time>2023-07-23T07:06:57Z</time>
      </trkpt>
      <trkpt lat="42.19669" lon="0.86671">
        <ele>628.6</ele>
        <time>2023-07-23T07:06:58Z</time>
      </trkpt>
      <trkpt lat="42.19672" lon="0.8667">
        <ele>629</ele>
        <time>2023-07-23T07:06:59Z</time>
      </trkpt>
      <trkpt lat="42.19675" lon="0.86668">
        <ele>629.4</ele>
        <time>2023-07-23T07:07:00Z</time>
      </trkpt>
      <trkpt lat="42.19676" lon="0.86667">
        <ele>629.6</ele>
        <time>2023-07-23T07:07:01Z</time>
      </trkpt>
      <trkpt lat="42.19679" lon="0.86665">
        <ele>629.8</ele>
        <time>2023-07-23T07:07:02Z</time>
      </trkpt>
      <trkpt lat="42.19681" lon="0.86664">
        <ele>630</ele>
        <time>2023-07-23T07:07:03Z</time>
      </trkpt>
      <trkpt lat="42.19684" lon="0.86662">
        <ele>630.6</ele>
        <time>2023-07-23T07:07:04Z</time>
      </trkpt>
      <trkpt lat="42.19686" lon="0.86661">
        <ele>630.8</ele>
        <time>2023-07-23T07:07:05Z</time>
      </trkpt>
      <trkpt lat="42.19688" lon="0.8666">
        <ele>631.2</ele>
        <time>2023-07-23T07:07:06Z</time>
      </trkpt>
      <trkpt lat="42.19691" lon="0.86659">
        <ele>631.4</ele>
        <time>2023-07-23T07:07:07Z</time>
      </trkpt>
      <trkpt lat="42.19694" lon="0.86658">
        <ele>631.4</ele>
        <time>2023-07-23T07:07:08Z</time>
      </trkpt>
      <trkpt lat="42.19696" lon="0.86656">
        <ele>631.6</ele>
        <time>2023-07-23T07:07:09Z</time>
      </trkpt>
      <trkpt lat="42.19699" lon="0.86655">
        <ele>631.6</ele>
        <time>2023-07-23T07:07:10Z</time>
      </trkpt>
      <trkpt lat="42.19701" lon="0.86654">
        <ele>632</ele>
        <time>2023-07-23T07:07:11Z</time>
      </trkpt>
      <trkpt lat="42.19704" lon="0.86653">
        <ele>632.2</ele>
        <time>2023-07-23T07:07:12Z</time>
      </trkpt>
      <trkpt lat="42.19707" lon="0.86653">
        <ele>632.2</ele>
        <time>2023-07-23T07:07:13Z</time>
      </trkpt>
      <trkpt lat="42.19709" lon="0.86652">
        <ele>632.4</ele>
        <time>2023-07-23T07:07:14Z</time>
      </trkpt>
      <trkpt lat="42.19712" lon="0.86652">
        <ele>632.6</ele>
        <time>2023-07-23T07:07:15Z</time>
      </trkpt>
      <trkpt lat="42.19714" lon="0.86652">
        <ele>633</ele>
        <time>2023-07-23T07:07:16Z</time>
      </trkpt>
      <trkpt lat="42.19717" lon="0.86652">
        <ele>633</ele>
        <time>2023-07-23T07:07:17Z</time>
      </trkpt>
      <trkpt lat="42.19719" lon="0.86653">
        <ele>633.6</ele>
        <time>2023-07-23T07:07:18Z</time>
      </trkpt>
      <trkpt lat="42.19722" lon="0.86654">
        <ele>634</ele>
        <time>2023-07-23T07:07:19Z</time>
      </trkpt>
      <trkpt lat="42.19723" lon="0.86655">
        <ele>634.2</ele>
        <time>2023-07-23T07:07:20Z</time>
      </trkpt>
      <trkpt lat="42.19726" lon="0.86656">
        <ele>634.6</ele>
        <time>2023-07-23T07:07:21Z</time>
      </trkpt>
      <trkpt lat="42.19728" lon="0.86656">
        <ele>634.8</ele>
        <time>2023-07-23T07:07:22Z</time>
      </trkpt>
      <trkpt lat="42.19732" lon="0.86657">
        <ele>635.4</ele>
        <time>2023-07-23T07:07:23Z</time>
      </trkpt>
      <trkpt lat="42.19734" lon="0.86658">
        <ele>635.8</ele>
        <time>2023-07-23T07:07:24Z</time>
      </trkpt>
      <trkpt lat="42.19736" lon="0.86658">
        <ele>636.6</ele>
        <time>2023-07-23T07:07:25Z</time>
      </trkpt>
      <trkpt lat="42.19738" lon="0.86659">
        <ele>637.2</ele>
        <time>2023-07-23T07:07:26Z</time>
      </trkpt>
      <trkpt lat="42.1974" lon="0.86659">
        <ele>637.6</ele>
        <time>2023-07-23T07:07:27Z</time>
      </trkpt>
      <trkpt lat="42.19742" lon="0.86658">
        <ele>638</ele>
        <time>2023-07-23T07:07:28Z</time>
      </trkpt>
      <trkpt lat="42.19744" lon="0.86657">
        <ele>638.2</ele>
        <time>2023-07-23T07:07:29Z</time>
      </trkpt>
      <trkpt lat="42.19746" lon="0.86656">
        <ele>639</ele>
        <time>2023-07-23T07:07:30Z</time>
      </trkpt>
      <trkpt lat="42.19748" lon="0.86655">
        <ele>639.2</ele>
        <time>2023-07-23T07:07:31Z</time>
      </trkpt>
      <trkpt lat="42.1975" lon="0.86654">
        <ele>639.8</ele>
        <time>2023-07-23T07:07:32Z</time>
      </trkpt>
      <trkpt lat="42.19751" lon="0.86653">
        <ele>640.2</ele>
        <time>2023-07-23T07:07:33Z</time>
      </trkpt>
      <trkpt lat="42.19753" lon="0.86652">
        <ele>640.6</ele>
        <time>2023-07-23T07:07:34Z</time>
      </trkpt>
      <trkpt lat="42.19755" lon="0.86651">
        <ele>641.6</ele>
        <time>2023-07-23T07:07:35Z</time>
      </trkpt>
      <trkpt lat="42.19757" lon="0.8665">
        <ele>642.2</ele>
        <time>2023-07-23T07:07:36Z</time>
      </trkpt>
      <trkpt lat="42.19759" lon="0.86649">
        <ele>643</ele>
        <time>2023-07-23T07:07:37Z</time>
      </trkpt>
      <trkpt lat="42.19761" lon="0.86648">
        <ele>643.2</ele>
        <time>2023-07-23T07:07:38Z</time>
      </trkpt>
      <trkpt lat="42.19763" lon="0.86647">
        <ele>643.6</ele>
        <time>2023-07-23T07:07:39Z</time>
      </trkpt>
      <trkpt lat="42.19765" lon="0.86647">
        <ele>644</ele>
        <time>2023-07-23T07:07:40Z</time>
      </trkpt>
      <trkpt lat="42.19767" lon="0.86647">
        <ele>644.2</ele>
        <time>2023-07-23T07:07:41Z</time>
      </trkpt>
      <trkpt lat="42.19769" lon="0.86647">
        <ele>644.8</ele>
        <time>2023-07-23T07:07:42Z</time>
      </trkpt>
      <trkpt lat="42.19771" lon="0.86647">
        <ele>645.2</ele>
        <time>2023-07-23T07:07:43Z</time>
      </trkpt>
      <trkpt lat="42.19773" lon="0.86647">
        <ele>645.6</ele>
        <time>2023-07-23T07:07:44Z</time>
      </trkpt>
      <trkpt lat="42.19775" lon="0.86647">
        <ele>645.8</ele>
        <time>2023-07-23T07:07:45Z</time>
      </trkpt>
      <trkpt lat="42.19777" lon="0.86648">
        <ele>646</ele>
        <time>2023-07-23T07:07:46Z</time>
      </trkpt>
      <trkpt lat="42.19779" lon="0.86648">
        <ele>646.2</ele>
        <time>2023-07-23T07:07:47Z</time>
      </trkpt>
      <trkpt lat="42.19781" lon="0.86648">
        <ele>646.4</ele>
        <time>2023-07-23T07:07:48Z</time>
      </trkpt>
      <trkpt lat="42.19783" lon="0.86649">
        <ele>646.4</ele>
        <time>2023-07-23T07:07:49Z</time>
      </trkpt>
      <trkpt lat="42.19785" lon="0.86649">
        <ele>646.8</ele>
        <time>2023-07-23T07:07:50Z</time>
      </trkpt>
      <trkpt lat="42.19787" lon="0.86651">
        <ele>647</ele>
        <time>2023-07-23T07:07:51Z</time>
      </trkpt>
      <trkpt lat="42.19788" lon="0.86652">
        <ele>647.2</ele>
        <time>2023-07-23T07:07:52Z</time>
      </trkpt>
      <trkpt lat="42.1979" lon="0.86653">
        <ele>647.6</ele>
        <time>2023-07-23T07:07:53Z</time>
      </trkpt>
      <trkpt lat="42.19792" lon="0.86653">
        <ele>648</ele>
        <time>2023-07-23T07:07:54Z</time>
      </trkpt>
      <trkpt lat="42.19794" lon="0.86654">
        <ele>648.2</ele>
        <time>2023-07-23T07:07:55Z</time>
      </trkpt>
      <trkpt lat="42.19796" lon="0.86653">
        <ele>648.4</ele>
        <time>2023-07-23T07:07:56Z</time>
      </trkpt>
      <trkpt lat="42.19799" lon="0.86652">
        <ele>648.6</ele>
        <time>2023-07-23T07:07:57Z</time>
      </trkpt>
      <trkpt lat="42.19801" lon="0.86652">
        <ele>648.8</ele>
        <time>2023-07-23T07:07:58Z</time>
      </trkpt>
      <trkpt lat="42.19804" lon="0.86652">
        <ele>649</ele>
        <time>2023-07-23T07:07:59Z</time>
      </trkpt>
      <trkpt lat="42.19806" lon="0.86652">
        <ele>649</ele>
        <time>2023-07-23T07:08:00Z</time>
      </trkpt>
      <trkpt lat="42.19808" lon="0.86652">
        <ele>649.2</ele>
        <time>2023-07-23T07:08:01Z</time>
      </trkpt>
      <trkpt lat="42.1981" lon="0.86652">
        <ele>649.2</ele>
        <time>2023-07-23T07:08:02Z</time>
      </trkpt>
      <trkpt lat="42.19812" lon="0.86653">
        <ele>649.4</ele>
        <time>2023-07-23T07:08:03Z</time>
      </trkpt>
      <trkpt lat="42.19814" lon="0.86654">
        <ele>649.4</ele>
        <time>2023-07-23T07:08:04Z</time>
      </trkpt>
      <trkpt lat="42.19816" lon="0.86654">
        <ele>649.6</ele>
        <time>2023-07-23T07:08:05Z</time>
      </trkpt>
      <trkpt lat="42.19818" lon="0.86654">
        <ele>650.2</ele>
        <time>2023-07-23T07:08:06Z</time>
      </trkpt>
      <trkpt lat="42.1982" lon="0.86654">
        <ele>650.4</ele>
        <time>2023-07-23T07:08:07Z</time>
      </trkpt>
      <trkpt lat="42.19822" lon="0.86654">
        <ele>651</ele>
        <time>2023-07-23T07:08:08Z</time>
      </trkpt>
      <trkpt lat="42.19825" lon="0.86655">
        <ele>651.2</ele>
        <time>2023-07-23T07:08:09Z</time>
      </trkpt>
      <trkpt lat="42.19827" lon="0.86655">
        <ele>651.6</ele>
        <time>2023-07-23T07:08:10Z</time>
      </trkpt>
      <trkpt lat="42.19829" lon="0.86655">
        <ele>652</ele>
        <time>2023-07-23T07:08:11Z</time>
      </trkpt>
      <trkpt lat="42.19831" lon="0.86653">
        <ele>652.4</ele>
        <time>2023-07-23T07:08:12Z</time>
      </trkpt>
      <trkpt lat="42.19833" lon="0.86652">
        <ele>652.8</ele>
        <time>2023-07-23T07:08:13Z</time>
      </trkpt>
      <trkpt lat="42.19836" lon="0.86651">
        <ele>652.8</ele>
        <time>2023-07-23T07:08:14Z</time>
      </trkpt>
      <trkpt lat="42.19838" lon="0.8665">
        <ele>653.2</ele>
        <time>2023-07-23T07:08:15Z</time>
      </trkpt>
      <trkpt lat="42.19841" lon="0.8665">
        <ele>653.4</ele>
        <time>2023-07-23T07:08:16Z</time>
      </trkpt>
      <trkpt lat="42.19844" lon="0.8665">
        <ele>653.8</ele>
        <time>2023-07-23T07:08:17Z</time>
      </trkpt>
      <trkpt lat="42.19847" lon="0.86649">
        <ele>654</ele>
        <time>2023-07-23T07:08:18Z</time>
      </trkpt>
      <trkpt lat="42.19849" lon="0.86647">
        <ele>654.4</ele>
        <time>2023-07-23T07:08:19Z</time>
      </trkpt>
      <trkpt lat="42.19852" lon="0.86647">
        <ele>654.6</ele>
        <time>2023-07-23T07:08:20Z</time>
      </trkpt>
      <trkpt lat="42.19854" lon="0.86645">
        <ele>654.8</ele>
        <time>2023-07-23T07:08:21Z</time>
      </trkpt>
      <trkpt lat="42.19856" lon="0.86644">
        <ele>655.4</ele>
        <time>2023-07-23T07:08:22Z</time>
      </trkpt>
      <trkpt lat="42.19858" lon="0.86644">
        <ele>655.8</ele>
        <time>2023-07-23T07:08:23Z</time>
      </trkpt>
      <trkpt lat="42.19859" lon="0.86644">
        <ele>656.6</ele>
        <time>2023-07-23T07:08:24Z</time>
      </trkpt>
      <trkpt lat="42.19861" lon="0.86644">
        <ele>657</ele>
        <time>2023-07-23T07:08:25Z</time>
      </trkpt>
      <trkpt lat="42.19863" lon="0.86645">
        <ele>657.6</ele>
        <time>2023-07-23T07:08:26Z</time>
      </trkpt>
      <trkpt lat="42.19865" lon="0.86646">
        <ele>658.2</ele>
        <time>2023-07-23T07:08:27Z</time>
      </trkpt>
      <trkpt lat="42.19868" lon="0.86646">
        <ele>658.4</ele>
        <time>2023-07-23T07:08:28Z</time>
      </trkpt>
      <trkpt lat="42.1987" lon="0.86646">
        <ele>659.2</ele>
        <time>2023-07-23T07:08:29Z</time>
      </trkpt>
      <trkpt lat="42.19872" lon="0.86646">
        <ele>659.8</ele>
        <time>2023-07-23T07:08:30Z</time>
      </trkpt>
      <trkpt lat="42.19874" lon="0.86646">
        <ele>660.2</ele>
        <time>2023-07-23T07:08:31Z</time>
      </trkpt>
      <trkpt lat="42.19877" lon="0.86646">
        <ele>660.4</ele>
        <time>2023-07-23T07:08:32Z</time>
      </trkpt>
      <trkpt lat="42.19879" lon="0.86645">
        <ele>660.8</ele>
        <time>2023-07-23T07:08:33Z</time>
      </trkpt>
      <trkpt lat="42.19881" lon="0.86645">
        <ele>661.2</ele>
        <time>2023-07-23T07:08:34Z</time>
      </trkpt>
      <trkpt lat="42.19883" lon="0.86645">
        <ele>661.6</ele>
        <time>2023-07-23T07:08:35Z</time>
      </trkpt>
      <trkpt lat="42.19884" lon="0.86644">
        <ele>662</ele>
        <time>2023-07-23T07:08:36Z</time>
      </trkpt>
      <trkpt lat="42.19886" lon="0.86642">
        <ele>662.4</ele>
        <time>2023-07-23T07:08:37Z</time>
      </trkpt>
      <trkpt lat="42.19888" lon="0.86641">
        <ele>663.2</ele>
        <time>2023-07-23T07:08:38Z</time>
      </trkpt>
      <trkpt lat="42.1989" lon="0.86638">
        <ele>663.8</ele>
        <time>2023-07-23T07:08:39Z</time>
      </trkpt>
      <trkpt lat="42.19891" lon="0.86637">
        <ele>664</ele>
        <time>2023-07-23T07:08:40Z</time>
      </trkpt>
      <trkpt lat="42.19893" lon="0.86635">
        <ele>664.2</ele>
        <time>2023-07-23T07:08:41Z</time>
      </trkpt>
      <trkpt lat="42.19896" lon="0.86634">
        <ele>664.4</ele>
        <time>2023-07-23T07:08:42Z</time>
      </trkpt>
      <trkpt lat="42.19898" lon="0.86633">
        <ele>664.6</ele>
        <time>2023-07-23T07:08:43Z</time>
      </trkpt>
      <trkpt lat="42.19901" lon="0.86632">
        <ele>664.6</ele>
        <time>2023-07-23T07:08:44Z</time>
      </trkpt>
      <trkpt lat="42.19904" lon="0.86632">
        <ele>664.6</ele>
        <time>2023-07-23T07:08:45Z</time>
      </trkpt>
      <trkpt lat="42.19906" lon="0.86631">
        <ele>664.8</ele>
        <time>2023-07-23T07:08:46Z</time>
      </trkpt>
      <trkpt lat="42.19909" lon="0.86631">
        <ele>664.8</ele>
        <time>2023-07-23T07:08:47Z</time>
      </trkpt>
      <trkpt lat="42.19911" lon="0.86631">
        <ele>664.8</ele>
        <time>2023-07-23T07:08:48Z</time>
      </trkpt>
      <trkpt lat="42.19914" lon="0.86631">
        <ele>664.8</ele>
        <time>2023-07-23T07:08:49Z</time>
      </trkpt>
      <trkpt lat="42.19918" lon="0.8663">
        <ele>664.8</ele>
        <time>2023-07-23T07:08:50Z</time>
      </trkpt>
      <trkpt lat="42.19921" lon="0.86629">
        <ele>664.8</ele>
        <time>2023-07-23T07:08:51Z</time>
      </trkpt>
      <trkpt lat="42.19925" lon="0.86626">
        <ele>664.6</ele>
        <time>2023-07-23T07:08:52Z</time>
      </trkpt>
      <trkpt lat="42.19928" lon="0.86623">
        <ele>664.6</ele>
        <time>2023-07-23T07:08:53Z</time>
      </trkpt>
      <trkpt lat="42.1993" lon="0.8662">
        <ele>664.6</ele>
        <time>2023-07-23T07:08:54Z</time>
      </trkpt>
      <trkpt lat="42.19933" lon="0.86618">
        <ele>664.4</ele>
        <time>2023-07-23T07:08:55Z</time>
      </trkpt>
      <trkpt lat="42.19935" lon="0.86616">
        <ele>664.4</ele>
        <time>2023-07-23T07:08:56Z</time>
      </trkpt>
      <trkpt lat="42.19938" lon="0.86614">
        <ele>664.2</ele>
        <time>2023-07-23T07:08:57Z</time>
      </trkpt>
      <trkpt lat="42.1994" lon="0.86613">
        <ele>664.2</ele>
        <time>2023-07-23T07:08:58Z</time>
      </trkpt>
      <trkpt lat="42.19942" lon="0.86611">
        <ele>664.2</ele>
        <time>2023-07-23T07:08:59Z</time>
      </trkpt>
      <trkpt lat="42.19944" lon="0.86609">
        <ele>664.2</ele>
        <time>2023-07-23T07:09:00Z</time>
      </trkpt>
      <trkpt lat="42.19946" lon="0.86608">
        <ele>664.2</ele>
        <time>2023-07-23T07:09:01Z</time>
      </trkpt>
      <trkpt lat="42.19948" lon="0.86605">
        <ele>664.2</ele>
        <time>2023-07-23T07:09:02Z</time>
      </trkpt>
      <trkpt lat="42.1995" lon="0.86603">
        <ele>664.2</ele>
        <time>2023-07-23T07:09:03Z</time>
      </trkpt>
      <trkpt lat="42.19951" lon="0.86601">
        <ele>664.4</ele>
        <time>2023-07-23T07:09:04Z</time>
      </trkpt>
      <trkpt lat="42.19952" lon="0.866">
        <ele>664.4</ele>
        <time>2023-07-23T07:09:05Z</time>
      </trkpt>
      <trkpt lat="42.19952" lon="0.86599">
        <ele>664.4</ele>
        <time>2023-07-23T07:09:06Z</time>
      </trkpt>
      <trkpt lat="42.19953" lon="0.86598">
        <ele>664.4</ele>
        <time>2023-07-23T07:09:07Z</time>
      </trkpt>
      <trkpt lat="42.19953" lon="0.86597">
        <ele>664.4</ele>
        <time>2023-07-23T07:09:08Z</time>
      </trkpt>
      <trkpt lat="42.19953" lon="0.86596">
        <ele>664.4</ele>
        <time>2023-07-23T07:09:09Z</time>
      </trkpt>
      <trkpt lat="42.19953" lon="0.86594">
        <ele>664.4</ele>
        <time>2023-07-23T07:09:10Z</time>
      </trkpt>
      <trkpt lat="42.19952" lon="0.86594">
        <ele>664.4</ele>
        <time>2023-07-23T07:09:11Z</time>
      </trkpt>
      <trkpt lat="42.19951" lon="0.86594">
        <ele>664.4</ele>
        <time>2023-07-23T07:09:12Z</time>
      </trkpt>
      <trkpt lat="42.1995" lon="0.86595">
        <ele>664.4</ele>
        <time>2023-07-23T07:09:13Z</time>
      </trkpt>
      <trkpt lat="42.1995" lon="0.86597">
        <ele>664.4</ele>
        <time>2023-07-23T07:09:14Z</time>
      </trkpt>
      <trkpt lat="42.1995" lon="0.86599">
        <ele>664.4</ele>
        <time>2023-07-23T07:09:15Z</time>
      </trkpt>
      <trkpt lat="42.1995" lon="0.86602">
        <ele>664.4</ele>
        <time>2023-07-23T07:09:16Z</time>
      </trkpt>
      <trkpt lat="42.19949" lon="0.86604">
        <ele>664.4</ele>
        <time>2023-07-23T07:09:17Z</time>
      </trkpt>
      <trkpt lat="42.19948" lon="0.86607">
        <ele>664.2</ele>
        <time>2023-07-23T07:09:18Z</time>
      </trkpt>
      <trkpt lat="42.19945" lon="0.86609">
        <ele>664.2</ele>
        <time>2023-07-23T07:09:19Z</time>
      </trkpt>
      <trkpt lat="42.19943" lon="0.86611">
        <ele>664.2</ele>
        <time>2023-07-23T07:09:20Z</time>
      </trkpt>
      <trkpt lat="42.19941" lon="0.86612">
        <ele>664</ele>
        <time>2023-07-23T07:09:21Z</time>
      </trkpt>
      <trkpt lat="42.19939" lon="0.86614">
        <ele>664</ele>
        <time>2023-07-23T07:09:22Z</time>
      </trkpt>
      <trkpt lat="42.19936" lon="0.86616">
        <ele>664</ele>
        <time>2023-07-23T07:09:23Z</time>
      </trkpt>
      <trkpt lat="42.19933" lon="0.86618">
        <ele>664</ele>
        <time>2023-07-23T07:09:24Z</time>
      </trkpt>
      <trkpt lat="42.1993" lon="0.8662">
        <ele>664.2</ele>
        <time>2023-07-23T07:09:25Z</time>
      </trkpt>
      <trkpt lat="42.19928" lon="0.86623">
        <ele>664</ele>
        <time>2023-07-23T07:09:26Z</time>
      </trkpt>
      <trkpt lat="42.19925" lon="0.86625">
        <ele>664</ele>
        <time>2023-07-23T07:09:27Z</time>
      </trkpt>
      <trkpt lat="42.19923" lon="0.86627">
        <ele>664</ele>
        <time>2023-07-23T07:09:28Z</time>
      </trkpt>
      <trkpt lat="42.19921" lon="0.86629">
        <ele>664</ele>
        <time>2023-07-23T07:09:29Z</time>
      </trkpt>
      <trkpt lat="42.19919" lon="0.8663">
        <ele>664</ele>
        <time>2023-07-23T07:09:30Z</time>
      </trkpt>
      <trkpt lat="42.19917" lon="0.8663">
        <ele>664.2</ele>
        <time>2023-07-23T07:09:31Z</time>
      </trkpt>
      <trkpt lat="42.19915" lon="0.86631">
        <ele>664.2</ele>
        <time>2023-07-23T07:09:32Z</time>
      </trkpt>
      <trkpt lat="42.19913" lon="0.86632">
        <ele>664.2</ele>
        <time>2023-07-23T07:09:33Z</time>
      </trkpt>
      <trkpt lat="42.19912" lon="0.86632">
        <ele>664</ele>
        <time>2023-07-23T07:09:34Z</time>
      </trkpt>
      <trkpt lat="42.19911" lon="0.86633">
        <ele>664</ele>
        <time>2023-07-23T07:09:35Z</time>
      </trkpt>
      <trkpt lat="42.19909" lon="0.86633">
        <ele>664.2</ele>
        <time>2023-07-23T07:09:36Z</time>
      </trkpt>
      <trkpt lat="42.19908" lon="0.86632">
        <ele>664.2</ele>
        <time>2023-07-23T07:09:37Z</time>
      </trkpt>
      <trkpt lat="42.19906" lon="0.86632">
        <ele>664</ele>
        <time>2023-07-23T07:09:38Z</time>
      </trkpt>
      <trkpt lat="42.19906" lon="0.86633">
        <ele>664.4</ele>
        <time>2023-07-23T07:09:39Z</time>
      </trkpt>
      <trkpt lat="42.19906" lon="0.86634">
        <ele>664.4</ele>
        <time>2023-07-23T07:09:40Z</time>
      </trkpt>
      <trkpt lat="42.19907" lon="0.86634">
        <ele>664.2</ele>
        <time>2023-07-23T07:09:41Z</time>
      </trkpt>
      <trkpt lat="42.19907" lon="0.86633">
        <ele>664.2</ele>
        <time>2023-07-23T07:09:42Z</time>
      </trkpt>
      <trkpt lat="42.19908" lon="0.86633">
        <ele>664.4</ele>
        <time>2023-07-23T07:09:43Z</time>
      </trkpt>
      <trkpt lat="42.19908" lon="0.86633">
        <ele>664.4</ele>
        <time>2023-07-23T07:09:44Z</time>
      </trkpt>
      <trkpt lat="42.19912" lon="0.86634">
        <ele>664.4</ele>
        <time>2023-07-23T07:09:56Z</time>
      </trkpt>
      <trkpt lat="42.19914" lon="0.86634">
        <ele>664.4</ele>
        <time>2023-07-23T07:09:57Z</time>
      </trkpt>
      <trkpt lat="42.19917" lon="0.86633">
        <ele>664.4</ele>
        <time>2023-07-23T07:09:58Z</time>
      </trkpt>
      <trkpt lat="42.1992" lon="0.86631">
        <ele>664.2</ele>
        <time>2023-07-23T07:09:59Z</time>
      </trkpt>
      <trkpt lat="42.19922" lon="0.86629">
        <ele>664.2</ele>
        <time>2023-07-23T07:10:00Z</time>
      </trkpt>
      <trkpt lat="42.19924" lon="0.86627">
        <ele>664</ele>
        <time>2023-07-23T07:10:01Z</time>
      </trkpt>
      <trkpt lat="42.19926" lon="0.86626">
        <ele>664</ele>
        <time>2023-07-23T07:10:02Z</time>
      </trkpt>
      <trkpt lat="42.19927" lon="0.86625">
        <ele>664</ele>
        <time>2023-07-23T07:10:03Z</time>
      </trkpt>
      <trkpt lat="42.19928" lon="0.86625">
        <ele>664</ele>
        <time>2023-07-23T07:10:04Z</time>
      </trkpt>
      <trkpt lat="42.19928" lon="0.86625">
        <ele>663.8</ele>
        <time>2023-07-23T07:10:05Z</time>
      </trkpt>
      <trkpt lat="42.19928" lon="0.86625">
        <ele>663.8</ele>
        <time>2023-07-23T07:10:06Z</time>
      </trkpt>
      <trkpt lat="42.19924" lon="0.86628">
        <ele>663.2</ele>
        <time>2023-07-23T07:10:46Z</time>
      </trkpt>
      <trkpt lat="42.19921" lon="0.8663">
        <ele>663.2</ele>
        <time>2023-07-23T07:10:47Z</time>
      </trkpt>
      <trkpt lat="42.19918" lon="0.86631">
        <ele>663</ele>
        <time>2023-07-23T07:10:48Z</time>
      </trkpt>
      <trkpt lat="42.19915" lon="0.86631">
        <ele>663</ele>
        <time>2023-07-23T07:10:49Z</time>
      </trkpt>
      <trkpt lat="42.19912" lon="0.86632">
        <ele>663.2</ele>
        <time>2023-07-23T07:10:50Z</time>
      </trkpt>
      <trkpt lat="42.1991" lon="0.86632">
        <ele>663.2</ele>
        <time>2023-07-23T07:10:51Z</time>
      </trkpt>
      <trkpt lat="42.19906" lon="0.86632">
        <ele>663.2</ele>
        <time>2023-07-23T07:10:52Z</time>
      </trkpt>
      <trkpt lat="42.19904" lon="0.86632">
        <ele>663.4</ele>
        <time>2023-07-23T07:10:53Z</time>
      </trkpt>
      <trkpt lat="42.19902" lon="0.86633">
        <ele>663.4</ele>
        <time>2023-07-23T07:10:54Z</time>
      </trkpt>
      <trkpt lat="42.19899" lon="0.86633">
        <ele>663.8</ele>
        <time>2023-07-23T07:10:55Z</time>
      </trkpt>
      <trkpt lat="42.19896" lon="0.86634">
        <ele>664</ele>
        <time>2023-07-23T07:10:56Z</time>
      </trkpt>
      <trkpt lat="42.19893" lon="0.86635">
        <ele>664.2</ele>
        <time>2023-07-23T07:10:57Z</time>
      </trkpt>
      <trkpt lat="42.19891" lon="0.86637">
        <ele>664.2</ele>
        <time>2023-07-23T07:10:58Z</time>
      </trkpt>
      <trkpt lat="42.19888" lon="0.86638">
        <ele>664.4</ele>
        <time>2023-07-23T07:10:59Z</time>
      </trkpt>
      <trkpt lat="42.19886" lon="0.86641">
        <ele>664.6</ele>
        <time>2023-07-23T07:11:00Z</time>
      </trkpt>
      <trkpt lat="42.19884" lon="0.86643">
        <ele>664.6</ele>
        <time>2023-07-23T07:11:01Z</time>
      </trkpt>
      <trkpt lat="42.19882" lon="0.86645">
        <ele>664.8</ele>
        <time>2023-07-23T07:11:02Z</time>
      </trkpt>
      <trkpt lat="42.19879" lon="0.86648">
        <ele>664.8</ele>
        <time>2023-07-23T07:11:03Z</time>
      </trkpt>
      <trkpt lat="42.19877" lon="0.8665">
        <ele>665</ele>
        <time>2023-07-23T07:11:04Z</time>
      </trkpt>
      <trkpt lat="42.19875" lon="0.86652">
        <ele>665</ele>
        <time>2023-07-23T07:11:05Z</time>
      </trkpt>
      <trkpt lat="42.19873" lon="0.86654">
        <ele>665</ele>
        <time>2023-07-23T07:11:06Z</time>
      </trkpt>
      <trkpt lat="42.19871" lon="0.86656">
        <ele>665.2</ele>
        <time>2023-07-23T07:11:07Z</time>
      </trkpt>
      <trkpt lat="42.19869" lon="0.86658">
        <ele>665.4</ele>
        <time>2023-07-23T07:11:08Z</time>
      </trkpt>
      <trkpt lat="42.19867" lon="0.8666">
        <ele>665.6</ele>
        <time>2023-07-23T07:11:09Z</time>
      </trkpt>
      <trkpt lat="42.19866" lon="0.86662">
        <ele>665.8</ele>
        <time>2023-07-23T07:11:10Z</time>
      </trkpt>
      <trkpt lat="42.19866" lon="0.86665">
        <ele>666.2</ele>
        <time>2023-07-23T07:11:11Z</time>
      </trkpt>
      <trkpt lat="42.19866" lon="0.86668">
        <ele>666.2</ele>
        <time>2023-07-23T07:11:12Z</time>
      </trkpt>
      <trkpt lat="42.19867" lon="0.8667">
        <ele>666.2</ele>
        <time>2023-07-23T07:11:13Z</time>
      </trkpt>
      <trkpt lat="42.19868" lon="0.86671">
        <ele>666.4</ele>
        <time>2023-07-23T07:11:14Z</time>
      </trkpt>
      <trkpt lat="42.1987" lon="0.86671">
        <ele>666.4</ele>
        <time>2023-07-23T07:11:15Z</time>
      </trkpt>
      <trkpt lat="42.19873" lon="0.8667">
        <ele>666.6</ele>
        <time>2023-07-23T07:11:16Z</time>
      </trkpt>
      <trkpt lat="42.19875" lon="0.86667">
        <ele>666.6</ele>
        <time>2023-07-23T07:11:17Z</time>
      </trkpt>
      <trkpt lat="42.19877" lon="0.86665">
        <ele>666.6</ele>
        <time>2023-07-23T07:11:18Z</time>
      </trkpt>
      <trkpt lat="42.19879" lon="0.86663">
        <ele>666.6</ele>
        <time>2023-07-23T07:11:19Z</time>
      </trkpt>
      <trkpt lat="42.19881" lon="0.8666">
        <ele>666.8</ele>
        <time>2023-07-23T07:11:20Z</time>
      </trkpt>
      <trkpt lat="42.19883" lon="0.86659">
        <ele>666.8</ele>
        <time>2023-07-23T07:11:21Z</time>
      </trkpt>
      <trkpt lat="42.19885" lon="0.86657">
        <ele>666.8</ele>
        <time>2023-07-23T07:11:22Z</time>
      </trkpt>
      <trkpt lat="42.19887" lon="0.86655">
        <ele>666.8</ele>
        <time>2023-07-23T07:11:23Z</time>
      </trkpt>
      <trkpt lat="42.1989" lon="0.86652">
        <ele>666.8</ele>
        <time>2023-07-23T07:11:24Z</time>
      </trkpt>
      <trkpt lat="42.19892" lon="0.8665">
        <ele>667</ele>
        <time>2023-07-23T07:11:25Z</time>
      </trkpt>
      <trkpt lat="42.19894" lon="0.86648">
        <ele>667</ele>
        <time>2023-07-23T07:11:26Z</time>
      </trkpt>
      <trkpt lat="42.19896" lon="0.86646">
        <ele>667.2</ele>
        <time>2023-07-23T07:11:27Z</time>
      </trkpt>
      <trkpt lat="42.19898" lon="0.86646">
        <ele>667.4</ele>
        <time>2023-07-23T07:11:28Z</time>
      </trkpt>
      <trkpt lat="42.199" lon="0.86645">
        <ele>667.4</ele>
        <time>2023-07-23T07:11:29Z</time>
      </trkpt>
      <trkpt lat="42.19901" lon="0.86646">
        <ele>667.6</ele>
        <time>2023-07-23T07:11:30Z</time>
      </trkpt>
      <trkpt lat="42.19902" lon="0.86646">
        <ele>667.8</ele>
        <time>2023-07-23T07:11:31Z</time>
      </trkpt>
      <trkpt lat="42.19904" lon="0.86646">
        <ele>668</ele>
        <time>2023-07-23T07:11:32Z</time>
      </trkpt>
      <trkpt lat="42.19905" lon="0.86647">
        <ele>668.2</ele>
        <time>2023-07-23T07:11:33Z</time>
      </trkpt>
      <trkpt lat="42.19906" lon="0.86647">
        <ele>668.4</ele>
        <time>2023-07-23T07:11:34Z</time>
      </trkpt>
      <trkpt lat="42.19907" lon="0.86646">
        <ele>668.4</ele>
        <time>2023-07-23T07:11:35Z</time>
      </trkpt>
      <trkpt lat="42.19908" lon="0.86646">
        <ele>668.6</ele>
        <time>2023-07-23T07:11:36Z</time>
      </trkpt>
      <trkpt lat="42.19909" lon="0.86645">
        <ele>668.6</ele>
        <time>2023-07-23T07:11:37Z</time>
      </trkpt>
      <trkpt lat="42.1991" lon="0.86645">
        <ele>668.8</ele>
        <time>2023-07-23T07:11:38Z</time>
      </trkpt>
      <trkpt lat="42.1991" lon="0.86645">
        <ele>669</ele>
        <time>2023-07-23T07:11:39Z</time>
      </trkpt>
      <trkpt lat="42.1991" lon="0.86645">
        <ele>669.2</ele>
        <time>2023-07-23T07:11:40Z</time>
      </trkpt>
      <trkpt lat="42.19915" lon="0.86647">
        <ele>670</ele>
        <time>2023-07-23T07:11:58Z</time>
      </trkpt>
      <trkpt lat="42.19917" lon="0.86648">
        <ele>670</ele>
        <time>2023-07-23T07:11:59Z</time>
      </trkpt>
      <trkpt lat="42.19919" lon="0.86649">
        <ele>670.2</ele>
        <time>2023-07-23T07:12:00Z</time>
      </trkpt>
      <trkpt lat="42.19921" lon="0.86649">
        <ele>670.2</ele>
        <time>2023-07-23T07:12:01Z</time>
      </trkpt>
      <trkpt lat="42.19922" lon="0.86649">
        <ele>670.2</ele>
        <time>2023-07-23T07:12:02Z</time>
      </trkpt>
      <trkpt lat="42.19924" lon="0.86649">
        <ele>670.4</ele>
        <time>2023-07-23T07:12:03Z</time>
      </trkpt>
      <trkpt lat="42.19926" lon="0.86648">
        <ele>670.4</ele>
        <time>2023-07-23T07:12:04Z</time>
      </trkpt>
      <trkpt lat="42.19928" lon="0.86647">
        <ele>670.6</ele>
        <time>2023-07-23T07:12:05Z</time>
      </trkpt>
      <trkpt lat="42.19932" lon="0.86645">
        <ele>670.6</ele>
        <time>2023-07-23T07:12:06Z</time>
      </trkpt>
      <trkpt lat="42.19934" lon="0.86644">
        <ele>670.6</ele>
        <time>2023-07-23T07:12:07Z</time>
      </trkpt>
      <trkpt lat="42.19936" lon="0.86642">
        <ele>670.8</ele>
        <time>2023-07-23T07:12:08Z</time>
      </trkpt>
      <trkpt lat="42.19938" lon="0.86641">
        <ele>670.8</ele>
        <time>2023-07-23T07:12:09Z</time>
      </trkpt>
      <trkpt lat="42.19939" lon="0.8664">
        <ele>671.2</ele>
        <time>2023-07-23T07:12:10Z</time>
      </trkpt>
      <trkpt lat="42.19941" lon="0.86638">
        <ele>671.6</ele>
        <time>2023-07-23T07:12:11Z</time>
      </trkpt>
      <trkpt lat="42.19943" lon="0.86637">
        <ele>671.8</ele>
        <time>2023-07-23T07:12:12Z</time>
      </trkpt>
      <trkpt lat="42.19946" lon="0.86636">
        <ele>672</ele>
        <time>2023-07-23T07:12:13Z</time>
      </trkpt>
      <trkpt lat="42.19949" lon="0.86635">
        <ele>672.2</ele>
        <time>2023-07-23T07:12:14Z</time>
      </trkpt>
      <trkpt lat="42.19951" lon="0.86635">
        <ele>672.6</ele>
        <time>2023-07-23T07:12:15Z</time>
      </trkpt>
      <trkpt lat="42.19954" lon="0.86635">
        <ele>673</ele>
        <time>2023-07-23T07:12:16Z</time>
      </trkpt>
      <trkpt lat="42.19956" lon="0.86635">
        <ele>673.8</ele>
        <time>2023-07-23T07:12:17Z</time>
      </trkpt>
      <trkpt lat="42.19959" lon="0.86634">
        <ele>674.6</ele>
        <time>2023-07-23T07:12:18Z</time>
      </trkpt>
      <trkpt lat="42.19961" lon="0.86633">
        <ele>675</ele>
        <time>2023-07-23T07:12:19Z</time>
      </trkpt>
      <trkpt lat="42.19963" lon="0.86632">
        <ele>675.6</ele>
        <time>2023-07-23T07:12:20Z</time>
      </trkpt>
      <trkpt lat="42.19965" lon="0.86632">
        <ele>675.8</ele>
        <time>2023-07-23T07:12:21Z</time>
      </trkpt>
      <trkpt lat="42.19968" lon="0.86631">
        <ele>676.4</ele>
        <time>2023-07-23T07:12:22Z</time>
      </trkpt>
      <trkpt lat="42.1997" lon="0.8663">
        <ele>676.6</ele>
        <time>2023-07-23T07:12:23Z</time>
      </trkpt>
      <trkpt lat="42.19973" lon="0.8663">
        <ele>677.2</ele>
        <time>2023-07-23T07:12:24Z</time>
      </trkpt>
      <trkpt lat="42.19975" lon="0.86629">
        <ele>677.6</ele>
        <time>2023-07-23T07:12:25Z</time>
      </trkpt>
      <trkpt lat="42.19978" lon="0.86628">
        <ele>678</ele>
        <time>2023-07-23T07:12:26Z</time>
      </trkpt>
      <trkpt lat="42.1998" lon="0.86627">
        <ele>678.6</ele>
        <time>2023-07-23T07:12:27Z</time>
      </trkpt>
      <trkpt lat="42.19983" lon="0.86626">
        <ele>678.6</ele>
        <time>2023-07-23T07:12:28Z</time>
      </trkpt>
      <trkpt lat="42.19985" lon="0.86625">
        <ele>678.8</ele>
        <time>2023-07-23T07:12:29Z</time>
      </trkpt>
      <trkpt lat="42.19987" lon="0.86625">
        <ele>679</ele>
        <time>2023-07-23T07:12:30Z</time>
      </trkpt>
      <trkpt lat="42.1999" lon="0.86624">
        <ele>679.4</ele>
        <time>2023-07-23T07:12:31Z</time>
      </trkpt>
      <trkpt lat="42.19993" lon="0.86624">
        <ele>679.6</ele>
        <time>2023-07-23T07:12:32Z</time>
      </trkpt>
      <trkpt lat="42.19995" lon="0.86624">
        <ele>679.8</ele>
        <time>2023-07-23T07:12:33Z</time>
      </trkpt>
      <trkpt lat="42.19997" lon="0.86624">
        <ele>680</ele>
        <time>2023-07-23T07:12:34Z</time>
      </trkpt>
      <trkpt lat="42.2" lon="0.86624">
        <ele>680.2</ele>
        <time>2023-07-23T07:12:35Z</time>
      </trkpt>
      <trkpt lat="42.20002" lon="0.86624">
        <ele>680.4</ele>
        <time>2023-07-23T07:12:36Z</time>
      </trkpt>
      <trkpt lat="42.20003" lon="0.86624">
        <ele>680.6</ele>
        <time>2023-07-23T07:12:37Z</time>
      </trkpt>
      <trkpt lat="42.20005" lon="0.86625">
        <ele>681</ele>
        <time>2023-07-23T07:12:38Z</time>
      </trkpt>
      <trkpt lat="42.20007" lon="0.86625">
        <ele>681.2</ele>
        <time>2023-07-23T07:12:39Z</time>
      </trkpt>
      <trkpt lat="42.20009" lon="0.86625">
        <ele>681.4</ele>
        <time>2023-07-23T07:12:40Z</time>
      </trkpt>
      <trkpt lat="42.20011" lon="0.86625">
        <ele>681.6</ele>
        <time>2023-07-23T07:12:41Z</time>
      </trkpt>
      <trkpt lat="42.20013" lon="0.86626">
        <ele>682</ele>
        <time>2023-07-23T07:12:42Z</time>
      </trkpt>
      <trkpt lat="42.20015" lon="0.86627">
        <ele>682.4</ele>
        <time>2023-07-23T07:12:43Z</time>
      </trkpt>
      <trkpt lat="42.20017" lon="0.86627">
        <ele>683.4</ele>
        <time>2023-07-23T07:12:44Z</time>
      </trkpt>
      <trkpt lat="42.20019" lon="0.86627">
        <ele>683.6</ele>
        <time>2023-07-23T07:12:45Z</time>
      </trkpt>
      <trkpt lat="42.20021" lon="0.86628">
        <ele>684.2</ele>
        <time>2023-07-23T07:12:46Z</time>
      </trkpt>
      <trkpt lat="42.20023" lon="0.86628">
        <ele>684.2</ele>
        <time>2023-07-23T07:12:47Z</time>
      </trkpt>
      <trkpt lat="42.20025" lon="0.86628">
        <ele>684.6</ele>
        <time>2023-07-23T07:12:48Z</time>
      </trkpt>
      <trkpt lat="42.20027" lon="0.86628">
        <ele>684.8</ele>
        <time>2023-07-23T07:12:49Z</time>
      </trkpt>
      <trkpt lat="42.20028" lon="0.86629">
        <ele>685.4</ele>
        <time>2023-07-23T07:12:50Z</time>
      </trkpt>
      <trkpt lat="42.2003" lon="0.86629">
        <ele>685.8</ele>
        <time>2023-07-23T07:12:51Z</time>
      </trkpt>
      <trkpt lat="42.20032" lon="0.86629">
        <ele>685.8</ele>
        <time>2023-07-23T07:12:52Z</time>
      </trkpt>
      <trkpt lat="42.20034" lon="0.86629">
        <ele>686.2</ele>
        <time>2023-07-23T07:12:53Z</time>
      </trkpt>
      <trkpt lat="42.20036" lon="0.86629">
        <ele>686.2</ele>
        <time>2023-07-23T07:12:54Z</time>
      </trkpt>
      <trkpt lat="42.20037" lon="0.86629">
        <ele>687</ele>
        <time>2023-07-23T07:12:55Z</time>
      </trkpt>
      <trkpt lat="42.20039" lon="0.86629">
        <ele>687.4</ele>
        <time>2023-07-23T07:12:56Z</time>
      </trkpt>
      <trkpt lat="42.20041" lon="0.86629">
        <ele>687.8</ele>
        <time>2023-07-23T07:12:57Z</time>
      </trkpt>
      <trkpt lat="42.20043" lon="0.86629">
        <ele>688.4</ele>
        <time>2023-07-23T07:12:58Z</time>
      </trkpt>
      <trkpt lat="42.20046" lon="0.86629">
        <ele>688.6</ele>
        <time>2023-07-23T07:12:59Z</time>
      </trkpt>
      <trkpt lat="42.20048" lon="0.86629">
        <ele>688.8</ele>
        <time>2023-07-23T07:13:00Z</time>
      </trkpt>
      <trkpt lat="42.2005" lon="0.86629">
        <ele>689</ele>
        <time>2023-07-23T07:13:01Z</time>
      </trkpt>
      <trkpt lat="42.20052" lon="0.86629">
        <ele>689.2</ele>
        <time>2023-07-23T07:13:02Z</time>
      </trkpt>
      <trkpt lat="42.20054" lon="0.86629">
        <ele>689.4</ele>
        <time>2023-07-23T07:13:03Z</time>
      </trkpt>
      <trkpt lat="42.20056" lon="0.8663">
        <ele>689.6</ele>
        <time>2023-07-23T07:13:04Z</time>
      </trkpt>
      <trkpt lat="42.20058" lon="0.8663">
        <ele>689.8</ele>
        <time>2023-07-23T07:13:05Z</time>
      </trkpt>
      <trkpt lat="42.2006" lon="0.8663">
        <ele>690</ele>
        <time>2023-07-23T07:13:06Z</time>
      </trkpt>
      <trkpt lat="42.20061" lon="0.8663">
        <ele>690.2</ele>
        <time>2023-07-23T07:13:07Z</time>
      </trkpt>
      <trkpt lat="42.20063" lon="0.86629">
        <ele>690.6</ele>
        <time>2023-07-23T07:13:08Z</time>
      </trkpt>
      <trkpt lat="42.20065" lon="0.86629">
        <ele>691</ele>
        <time>2023-07-23T07:13:09Z</time>
      </trkpt>
      <trkpt lat="42.20067" lon="0.86629">
        <ele>691.2</ele>
        <time>2023-07-23T07:13:10Z</time>
      </trkpt>
      <trkpt lat="42.20069" lon="0.86629">
        <ele>691.6</ele>
        <time>2023-07-23T07:13:11Z</time>
      </trkpt>
      <trkpt lat="42.20071" lon="0.86629">
        <ele>692</ele>
        <time>2023-07-23T07:13:12Z</time>
      </trkpt>
      <trkpt lat="42.20072" lon="0.86628">
        <ele>692.4</ele>
        <time>2023-07-23T07:13:13Z</time>
      </trkpt>
      <trkpt lat="42.20074" lon="0.86628">
        <ele>692.8</ele>
        <time>2023-07-23T07:13:14Z</time>
      </trkpt>
      <trkpt lat="42.20077" lon="0.86627">
        <ele>693</ele>
        <time>2023-07-23T07:13:15Z</time>
      </trkpt>
      <trkpt lat="42.20079" lon="0.86627">
        <ele>693.4</ele>
        <time>2023-07-23T07:13:16Z</time>
      </trkpt>
      <trkpt lat="42.20081" lon="0.86627">
        <ele>693.6</ele>
        <time>2023-07-23T07:13:17Z</time>
      </trkpt>
      <trkpt lat="42.20083" lon="0.86627">
        <ele>694</ele>
        <time>2023-07-23T07:13:18Z</time>
      </trkpt>
      <trkpt lat="42.20085" lon="0.86626">
        <ele>694.2</ele>
        <time>2023-07-23T07:13:19Z</time>
      </trkpt>
      <trkpt lat="42.20087" lon="0.86627">
        <ele>694.4</ele>
        <time>2023-07-23T07:13:20Z</time>
      </trkpt>
      <trkpt lat="42.20089" lon="0.86627">
        <ele>694.6</ele>
        <time>2023-07-23T07:13:21Z</time>
      </trkpt>
      <trkpt lat="42.20091" lon="0.86628">
        <ele>694.8</ele>
        <time>2023-07-23T07:13:22Z</time>
      </trkpt>
      <trkpt lat="42.20093" lon="0.86628">
        <ele>695</ele>
        <time>2023-07-23T07:13:23Z</time>
      </trkpt>
      <trkpt lat="42.20095" lon="0.86629">
        <ele>695.4</ele>
        <time>2023-07-23T07:13:24Z</time>
      </trkpt>
      <trkpt lat="42.20097" lon="0.86631">
        <ele>695.4</ele>
        <time>2023-07-23T07:13:25Z</time>
      </trkpt>
      <trkpt lat="42.20099" lon="0.86632">
        <ele>695.8</ele>
        <time>2023-07-23T07:13:26Z</time>
      </trkpt>
      <trkpt lat="42.201" lon="0.86634">
        <ele>696</ele>
        <time>2023-07-23T07:13:27Z</time>
      </trkpt>
      <trkpt lat="42.20102" lon="0.86635">
        <ele>696.4</ele>
        <time>2023-07-23T07:13:28Z</time>
      </trkpt>
      <trkpt lat="42.20104" lon="0.86637">
        <ele>696.6</ele>
        <time>2023-07-23T07:13:29Z</time>
      </trkpt>
      <trkpt lat="42.20105" lon="0.86638">
        <ele>696.6</ele>
        <time>2023-07-23T07:13:30Z</time>
      </trkpt>
      <trkpt lat="42.20107" lon="0.8664">
        <ele>697</ele>
        <time>2023-07-23T07:13:31Z</time>
      </trkpt>
      <trkpt lat="42.20108" lon="0.86642">
        <ele>697.2</ele>
        <time>2023-07-23T07:13:32Z</time>
      </trkpt>
      <trkpt lat="42.20109" lon="0.86643">
        <ele>697.6</ele>
        <time>2023-07-23T07:13:33Z</time>
      </trkpt>
      <trkpt lat="42.20111" lon="0.86645">
        <ele>697.8</ele>
        <time>2023-07-23T07:13:34Z</time>
      </trkpt>
      <trkpt lat="42.20112" lon="0.86647">
        <ele>698</ele>
        <time>2023-07-23T07:13:35Z</time>
      </trkpt>
      <trkpt lat="42.20114" lon="0.86649">
        <ele>698.2</ele>
        <time>2023-07-23T07:13:36Z</time>
      </trkpt>
      <trkpt lat="42.20115" lon="0.8665">
        <ele>699</ele>
        <time>2023-07-23T07:13:37Z</time>
      </trkpt>
      <trkpt lat="42.20117" lon="0.86652">
        <ele>699.4</ele>
        <time>2023-07-23T07:13:38Z</time>
      </trkpt>
      <trkpt lat="42.20118" lon="0.86654">
        <ele>699.8</ele>
        <time>2023-07-23T07:13:39Z</time>
      </trkpt>
      <trkpt lat="42.2012" lon="0.86656">
        <ele>700.2</ele>
        <time>2023-07-23T07:13:40Z</time>
      </trkpt>
      <trkpt lat="42.20121" lon="0.86657">
        <ele>700.4</ele>
        <time>2023-07-23T07:13:41Z</time>
      </trkpt>
      <trkpt lat="42.20123" lon="0.86659">
        <ele>700.8</ele>
        <time>2023-07-23T07:13:42Z</time>
      </trkpt>
      <trkpt lat="42.20124" lon="0.8666">
        <ele>701</ele>
        <time>2023-07-23T07:13:43Z</time>
      </trkpt>
      <trkpt lat="42.20126" lon="0.86661">
        <ele>701.4</ele>
        <time>2023-07-23T07:13:44Z</time>
      </trkpt>
      <trkpt lat="42.20128" lon="0.86662">
        <ele>701.8</ele>
        <time>2023-07-23T07:13:45Z</time>
      </trkpt>
      <trkpt lat="42.2013" lon="0.86663">
        <ele>702</ele>
        <time>2023-07-23T07:13:46Z</time>
      </trkpt>
      <trkpt lat="42.20132" lon="0.86664">
        <ele>702.4</ele>
        <time>2023-07-23T07:13:47Z</time>
      </trkpt>
      <trkpt lat="42.20135" lon="0.86665">
        <ele>702.8</ele>
        <time>2023-07-23T07:13:48Z</time>
      </trkpt>
      <trkpt lat="42.20136" lon="0.86666">
        <ele>703.6</ele>
        <time>2023-07-23T07:13:49Z</time>
      </trkpt>
      <trkpt lat="42.20138" lon="0.86665">
        <ele>704</ele>
        <time>2023-07-23T07:13:50Z</time>
      </trkpt>
      <trkpt lat="42.20141" lon="0.86665">
        <ele>704.2</ele>
        <time>2023-07-23T07:13:51Z</time>
      </trkpt>
      <trkpt lat="42.20143" lon="0.86664">
        <ele>704.6</ele>
        <time>2023-07-23T07:13:52Z</time>
      </trkpt>
      <trkpt lat="42.20145" lon="0.86664">
        <ele>704.8</ele>
        <time>2023-07-23T07:13:53Z</time>
      </trkpt>
      <trkpt lat="42.20147" lon="0.86663">
        <ele>705.2</ele>
        <time>2023-07-23T07:13:54Z</time>
      </trkpt>
      <trkpt lat="42.20149" lon="0.86662">
        <ele>705.4</ele>
        <time>2023-07-23T07:13:55Z</time>
      </trkpt>
      <trkpt lat="42.20151" lon="0.86661">
        <ele>705.8</ele>
        <time>2023-07-23T07:13:56Z</time>
      </trkpt>
      <trkpt lat="42.20153" lon="0.8666">
        <ele>706.2</ele>
        <time>2023-07-23T07:13:57Z</time>
      </trkpt>
      <trkpt lat="42.20155" lon="0.86659">
        <ele>706.4</ele>
        <time>2023-07-23T07:13:58Z</time>
      </trkpt>
      <trkpt lat="42.20157" lon="0.86659">
        <ele>706.8</ele>
        <time>2023-07-23T07:13:59Z</time>
      </trkpt>
      <trkpt lat="42.20159" lon="0.86658">
        <ele>707</ele>
        <time>2023-07-23T07:14:00Z</time>
      </trkpt>
      <trkpt lat="42.20161" lon="0.86657">
        <ele>707.4</ele>
        <time>2023-07-23T07:14:01Z</time>
      </trkpt>
      <trkpt lat="42.20163" lon="0.86656">
        <ele>707.6</ele>
        <time>2023-07-23T07:14:02Z</time>
      </trkpt>
      <trkpt lat="42.20165" lon="0.86655">
        <ele>708.2</ele>
        <time>2023-07-23T07:14:03Z</time>
      </trkpt>
      <trkpt lat="42.20166" lon="0.86654">
        <ele>708.4</ele>
        <time>2023-07-23T07:14:04Z</time>
      </trkpt>
      <trkpt lat="42.20169" lon="0.86654">
        <ele>708.6</ele>
        <time>2023-07-23T07:14:05Z</time>
      </trkpt>
      <trkpt lat="42.20171" lon="0.86653">
        <ele>709</ele>
        <time>2023-07-23T07:14:06Z</time>
      </trkpt>
      <trkpt lat="42.20174" lon="0.86653">
        <ele>709.2</ele>
        <time>2023-07-23T07:14:07Z</time>
      </trkpt>
      <trkpt lat="42.20176" lon="0.86653">
        <ele>709.6</ele>
        <time>2023-07-23T07:14:08Z</time>
      </trkpt>
      <trkpt lat="42.20178" lon="0.86652">
        <ele>709.6</ele>
        <time>2023-07-23T07:14:09Z</time>
      </trkpt>
      <trkpt lat="42.20181" lon="0.86652">
        <ele>709.8</ele>
        <time>2023-07-23T07:14:10Z</time>
      </trkpt>
      <trkpt lat="42.20183" lon="0.86651">
        <ele>710.4</ele>
        <time>2023-07-23T07:14:11Z</time>
      </trkpt>
      <trkpt lat="42.20186" lon="0.8665">
        <ele>710.6</ele>
        <time>2023-07-23T07:14:12Z</time>
      </trkpt>
      <trkpt lat="42.20188" lon="0.86649">
        <ele>710.8</ele>
        <time>2023-07-23T07:14:13Z</time>
      </trkpt>
      <trkpt lat="42.2019" lon="0.86648">
        <ele>711</ele>
        <time>2023-07-23T07:14:14Z</time>
      </trkpt>
      <trkpt lat="42.20192" lon="0.86647">
        <ele>711.2</ele>
        <time>2023-07-23T07:14:15Z</time>
      </trkpt>
      <trkpt lat="42.20195" lon="0.86646">
        <ele>711.4</ele>
        <time>2023-07-23T07:14:16Z</time>
      </trkpt>
      <trkpt lat="42.20197" lon="0.86645">
        <ele>711.6</ele>
        <time>2023-07-23T07:14:17Z</time>
      </trkpt>
      <trkpt lat="42.20199" lon="0.86645">
        <ele>711.6</ele>
        <time>2023-07-23T07:14:18Z</time>
      </trkpt>
      <trkpt lat="42.20202" lon="0.86644">
        <ele>711.6</ele>
        <time>2023-07-23T07:14:19Z</time>
      </trkpt>
      <trkpt lat="42.20204" lon="0.86644">
        <ele>711.8</ele>
        <time>2023-07-23T07:14:20Z</time>
      </trkpt>
      <trkpt lat="42.20206" lon="0.86643">
        <ele>712</ele>
        <time>2023-07-23T07:14:21Z</time>
      </trkpt>
      <trkpt lat="42.20208" lon="0.86642">
        <ele>712.2</ele>
        <time>2023-07-23T07:14:22Z</time>
      </trkpt>
      <trkpt lat="42.20211" lon="0.86641">
        <ele>712.2</ele>
        <time>2023-07-23T07:14:23Z</time>
      </trkpt>
      <trkpt lat="42.20213" lon="0.86639">
        <ele>712.4</ele>
        <time>2023-07-23T07:14:24Z</time>
      </trkpt>
      <trkpt lat="42.20215" lon="0.86638">
        <ele>712.6</ele>
        <time>2023-07-23T07:14:25Z</time>
      </trkpt>
      <trkpt lat="42.20216" lon="0.86636">
        <ele>712.8</ele>
        <time>2023-07-23T07:14:26Z</time>
      </trkpt>
      <trkpt lat="42.20218" lon="0.86634">
        <ele>713</ele>
        <time>2023-07-23T07:14:27Z</time>
      </trkpt>
      <trkpt lat="42.2022" lon="0.86631">
        <ele>713.2</ele>
        <time>2023-07-23T07:14:28Z</time>
      </trkpt>
      <trkpt lat="42.20222" lon="0.86629">
        <ele>713.2</ele>
        <time>2023-07-23T07:14:29Z</time>
      </trkpt>
      <trkpt lat="42.20223" lon="0.86627">
        <ele>713.4</ele>
        <time>2023-07-23T07:14:30Z</time>
      </trkpt>
      <trkpt lat="42.20225" lon="0.86625">
        <ele>713.4</ele>
        <time>2023-07-23T07:14:31Z</time>
      </trkpt>
      <trkpt lat="42.20227" lon="0.86623">
        <ele>713.6</ele>
        <time>2023-07-23T07:14:32Z</time>
      </trkpt>
      <trkpt lat="42.20228" lon="0.86621">
        <ele>713.6</ele>
        <time>2023-07-23T07:14:33Z</time>
      </trkpt>
      <trkpt lat="42.2023" lon="0.86619">
        <ele>713.6</ele>
        <time>2023-07-23T07:14:34Z</time>
      </trkpt>
      <trkpt lat="42.20232" lon="0.86618">
        <ele>713.8</ele>
        <time>2023-07-23T07:14:35Z</time>
      </trkpt>
      <trkpt lat="42.20234" lon="0.86617">
        <ele>714</ele>
        <time>2023-07-23T07:14:36Z</time>
      </trkpt>
      <trkpt lat="42.20236" lon="0.86616">
        <ele>714.2</ele>
        <time>2023-07-23T07:14:37Z</time>
      </trkpt>
      <trkpt lat="42.20238" lon="0.86615">
        <ele>714.2</ele>
        <time>2023-07-23T07:14:38Z</time>
      </trkpt>
      <trkpt lat="42.2024" lon="0.86615">
        <ele>714.4</ele>
        <time>2023-07-23T07:14:39Z</time>
      </trkpt>
      <trkpt lat="42.20242" lon="0.86614">
        <ele>714.6</ele>
        <time>2023-07-23T07:14:40Z</time>
      </trkpt>
      <trkpt lat="42.20244" lon="0.86614">
        <ele>714.6</ele>
        <time>2023-07-23T07:14:41Z</time>
      </trkpt>
      <trkpt lat="42.20246" lon="0.86613">
        <ele>714.8</ele>
        <time>2023-07-23T07:14:42Z</time>
      </trkpt>
      <trkpt lat="42.20248" lon="0.86612">
        <ele>715</ele>
        <time>2023-07-23T07:14:43Z</time>
      </trkpt>
      <trkpt lat="42.2025" lon="0.86611">
        <ele>715.4</ele>
        <time>2023-07-23T07:14:44Z</time>
      </trkpt>
      <trkpt lat="42.20252" lon="0.8661">
        <ele>715.6</ele>
        <time>2023-07-23T07:14:45Z</time>
      </trkpt>
      <trkpt lat="42.20254" lon="0.86608">
        <ele>715.8</ele>
        <time>2023-07-23T07:14:46Z</time>
      </trkpt>
      <trkpt lat="42.20256" lon="0.86607">
        <ele>716</ele>
        <time>2023-07-23T07:14:47Z</time>
      </trkpt>
      <trkpt lat="42.20257" lon="0.86606">
        <ele>716.6</ele>
        <time>2023-07-23T07:14:48Z</time>
      </trkpt>
      <trkpt lat="42.20259" lon="0.86605">
        <ele>717</ele>
        <time>2023-07-23T07:14:49Z</time>
      </trkpt>
      <trkpt lat="42.20261" lon="0.86604">
        <ele>717.2</ele>
        <time>2023-07-23T07:14:50Z</time>
      </trkpt>
      <trkpt lat="42.20263" lon="0.86604">
        <ele>717.4</ele>
        <time>2023-07-23T07:14:51Z</time>
      </trkpt>
      <trkpt lat="42.20265" lon="0.86603">
        <ele>717.6</ele>
        <time>2023-07-23T07:14:52Z</time>
      </trkpt>
      <trkpt lat="42.20267" lon="0.86602">
        <ele>718</ele>
        <time>2023-07-23T07:14:53Z</time>
      </trkpt>
      <trkpt lat="42.20269" lon="0.86601">
        <ele>718</ele>
        <time>2023-07-23T07:14:54Z</time>
      </trkpt>
      <trkpt lat="42.20271" lon="0.86601">
        <ele>718.2</ele>
        <time>2023-07-23T07:14:55Z</time>
      </trkpt>
      <trkpt lat="42.20273" lon="0.86601">
        <ele>718.4</ele>
        <time>2023-07-23T07:14:56Z</time>
      </trkpt>
      <trkpt lat="42.20276" lon="0.866">
        <ele>718.6</ele>
        <time>2023-07-23T07:14:57Z</time>
      </trkpt>
      <trkpt lat="42.20278" lon="0.86599">
        <ele>719</ele>
        <time>2023-07-23T07:14:58Z</time>
      </trkpt>
      <trkpt lat="42.20279" lon="0.86599">
        <ele>719</ele>
        <time>2023-07-23T07:14:59Z</time>
      </trkpt>
      <trkpt lat="42.20281" lon="0.86598">
        <ele>719.6</ele>
        <time>2023-07-23T07:15:00Z</time>
      </trkpt>
      <trkpt lat="42.20283" lon="0.86597">
        <ele>719.8</ele>
        <time>2023-07-23T07:15:01Z</time>
      </trkpt>
      <trkpt lat="42.20285" lon="0.86596">
        <ele>720.4</ele>
        <time>2023-07-23T07:15:02Z</time>
      </trkpt>
      <trkpt lat="42.20287" lon="0.86595">
        <ele>720.8</ele>
        <time>2023-07-23T07:15:03Z</time>
      </trkpt>
      <trkpt lat="42.20288" lon="0.86593">
        <ele>721.2</ele>
        <time>2023-07-23T07:15:04Z</time>
      </trkpt>
      <trkpt lat="42.2029" lon="0.86592">
        <ele>721.8</ele>
        <time>2023-07-23T07:15:05Z</time>
      </trkpt>
      <trkpt lat="42.20291" lon="0.86591">
        <ele>721.8</ele>
        <time>2023-07-23T07:15:06Z</time>
      </trkpt>
      <trkpt lat="42.20293" lon="0.8659">
        <ele>722.2</ele>
        <time>2023-07-23T07:15:07Z</time>
      </trkpt>
      <trkpt lat="42.20294" lon="0.86588">
        <ele>722.4</ele>
        <time>2023-07-23T07:15:08Z</time>
      </trkpt>
      <trkpt lat="42.20295" lon="0.86588">
        <ele>722.8</ele>
        <time>2023-07-23T07:15:09Z</time>
      </trkpt>
      <trkpt lat="42.20296" lon="0.86587">
        <ele>723.2</ele>
        <time>2023-07-23T07:15:10Z</time>
      </trkpt>
      <trkpt lat="42.20297" lon="0.86587">
        <ele>723.6</ele>
        <time>2023-07-23T07:15:11Z</time>
      </trkpt>
      <trkpt lat="42.20298" lon="0.86587">
        <ele>724</ele>
        <time>2023-07-23T07:15:12Z</time>
      </trkpt>
      <trkpt lat="42.20299" lon="0.86587">
        <ele>724.2</ele>
        <time>2023-07-23T07:15:13Z</time>
      </trkpt>
      <trkpt lat="42.203" lon="0.86587">
        <ele>724.4</ele>
        <time>2023-07-23T07:15:14Z</time>
      </trkpt>
      <trkpt lat="42.203" lon="0.86587">
        <ele>724.6</ele>
        <time>2023-07-23T07:15:15Z</time>
      </trkpt>
      <trkpt lat="42.203" lon="0.86587">
        <ele>724.8</ele>
        <time>2023-07-23T07:15:16Z</time>
      </trkpt>
      <trkpt lat="42.203" lon="0.86587">
        <ele>724.8</ele>
        <time>2023-07-23T07:15:17Z</time>
      </trkpt>
      <trkpt lat="42.20301" lon="0.86591">
        <ele>725.4</ele>
        <time>2023-07-23T07:15:31Z</time>
      </trkpt>
      <trkpt lat="42.203" lon="0.86595">
        <ele>725.4</ele>
        <time>2023-07-23T07:15:32Z</time>
      </trkpt>
      <trkpt lat="42.20299" lon="0.86598">
        <ele>725.4</ele>
        <time>2023-07-23T07:15:33Z</time>
      </trkpt>
      <trkpt lat="42.20298" lon="0.866">
        <ele>725.4</ele>
        <time>2023-07-23T07:15:34Z</time>
      </trkpt>
      <trkpt lat="42.20297" lon="0.86603">
        <ele>725.6</ele>
        <time>2023-07-23T07:15:35Z</time>
      </trkpt>
      <trkpt lat="42.20295" lon="0.86605">
        <ele>725.8</ele>
        <time>2023-07-23T07:15:36Z</time>
      </trkpt>
      <trkpt lat="42.20293" lon="0.86607">
        <ele>725.8</ele>
        <time>2023-07-23T07:15:37Z</time>
      </trkpt>
      <trkpt lat="42.20292" lon="0.86609">
        <ele>725.8</ele>
        <time>2023-07-23T07:15:38Z</time>
      </trkpt>
      <trkpt lat="42.2029" lon="0.86611">
        <ele>726</ele>
        <time>2023-07-23T07:15:39Z</time>
      </trkpt>
      <trkpt lat="42.20288" lon="0.86613">
        <ele>726</ele>
        <time>2023-07-23T07:15:40Z</time>
      </trkpt>
      <trkpt lat="42.20287" lon="0.86615">
        <ele>726.2</ele>
        <time>2023-07-23T07:15:41Z</time>
      </trkpt>
      <trkpt lat="42.20285" lon="0.86616">
        <ele>726.6</ele>
        <time>2023-07-23T07:15:42Z</time>
      </trkpt>
      <trkpt lat="42.20284" lon="0.86618">
        <ele>727</ele>
        <time>2023-07-23T07:15:43Z</time>
      </trkpt>
      <trkpt lat="42.20283" lon="0.8662">
        <ele>727</ele>
        <time>2023-07-23T07:15:44Z</time>
      </trkpt>
      <trkpt lat="42.20282" lon="0.86623">
        <ele>727.6</ele>
        <time>2023-07-23T07:15:45Z</time>
      </trkpt>
      <trkpt lat="42.20281" lon="0.86625">
        <ele>727.6</ele>
        <time>2023-07-23T07:15:46Z</time>
      </trkpt>
      <trkpt lat="42.2028" lon="0.86627">
        <ele>728</ele>
        <time>2023-07-23T07:15:47Z</time>
      </trkpt>
      <trkpt lat="42.2028" lon="0.86628">
        <ele>728.2</ele>
        <time>2023-07-23T07:15:48Z</time>
      </trkpt>
      <trkpt lat="42.2028" lon="0.86629">
        <ele>728.4</ele>
        <time>2023-07-23T07:15:49Z</time>
      </trkpt>
      <trkpt lat="42.20281" lon="0.8663">
        <ele>728.6</ele>
        <time>2023-07-23T07:15:50Z</time>
      </trkpt>
      <trkpt lat="42.20282" lon="0.86629">
        <ele>728.6</ele>
        <time>2023-07-23T07:15:51Z</time>
      </trkpt>
      <trkpt lat="42.20283" lon="0.86628">
        <ele>728.6</ele>
        <time>2023-07-23T07:15:52Z</time>
      </trkpt>
      <trkpt lat="42.20283" lon="0.86626">
        <ele>728.8</ele>
        <time>2023-07-23T07:15:53Z</time>
      </trkpt>
      <trkpt lat="42.20284" lon="0.86624">
        <ele>728.8</ele>
        <time>2023-07-23T07:15:54Z</time>
      </trkpt>
      <trkpt lat="42.20286" lon="0.86622">
        <ele>728.8</ele>
        <time>2023-07-23T07:15:55Z</time>
      </trkpt>
      <trkpt lat="42.20288" lon="0.86621">
        <ele>728.8</ele>
        <time>2023-07-23T07:15:56Z</time>
      </trkpt>
      <trkpt lat="42.2029" lon="0.86619">
        <ele>728.6</ele>
        <time>2023-07-23T07:15:57Z</time>
      </trkpt>
      <trkpt lat="42.20292" lon="0.86618">
        <ele>728.8</ele>
        <time>2023-07-23T07:15:58Z</time>
      </trkpt>
      <trkpt lat="42.20294" lon="0.86616">
        <ele>728.6</ele>
        <time>2023-07-23T07:15:59Z</time>
      </trkpt>
      <trkpt lat="42.20296" lon="0.86614">
        <ele>728.8</ele>
        <time>2023-07-23T07:16:00Z</time>
      </trkpt>
      <trkpt lat="42.20298" lon="0.86613">
        <ele>728.8</ele>
        <time>2023-07-23T07:16:01Z</time>
      </trkpt>
      <trkpt lat="42.203" lon="0.86611">
        <ele>728.8</ele>
        <time>2023-07-23T07:16:02Z</time>
      </trkpt>
      <trkpt lat="42.20302" lon="0.86609">
        <ele>729</ele>
        <time>2023-07-23T07:16:03Z</time>
      </trkpt>
      <trkpt lat="42.20304" lon="0.86607">
        <ele>729.2</ele>
        <time>2023-07-23T07:16:04Z</time>
      </trkpt>
      <trkpt lat="42.20305" lon="0.86605">
        <ele>729.2</ele>
        <time>2023-07-23T07:16:05Z</time>
      </trkpt>
      <trkpt lat="42.20307" lon="0.86602">
        <ele>729.6</ele>
        <time>2023-07-23T07:16:06Z</time>
      </trkpt>
      <trkpt lat="42.20309" lon="0.866">
        <ele>729.6</ele>
        <time>2023-07-23T07:16:07Z</time>
      </trkpt>
      <trkpt lat="42.20311" lon="0.86599">
        <ele>729.8</ele>
        <time>2023-07-23T07:16:08Z</time>
      </trkpt>
      <trkpt lat="42.20312" lon="0.86597">
        <ele>730</ele>
        <time>2023-07-23T07:16:09Z</time>
      </trkpt>
      <trkpt lat="42.20314" lon="0.86596">
        <ele>730.4</ele>
        <time>2023-07-23T07:16:10Z</time>
      </trkpt>
      <trkpt lat="42.20317" lon="0.86595">
        <ele>731</ele>
        <time>2023-07-23T07:16:11Z</time>
      </trkpt>
      <trkpt lat="42.20319" lon="0.86593">
        <ele>731</ele>
        <time>2023-07-23T07:16:12Z</time>
      </trkpt>
      <trkpt lat="42.20321" lon="0.86592">
        <ele>731.2</ele>
        <time>2023-07-23T07:16:13Z</time>
      </trkpt>
      <trkpt lat="42.20323" lon="0.8659">
        <ele>731.6</ele>
        <time>2023-07-23T07:16:14Z</time>
      </trkpt>
      <trkpt lat="42.20325" lon="0.86588">
        <ele>731.6</ele>
        <time>2023-07-23T07:16:15Z</time>
      </trkpt>
      <trkpt lat="42.20327" lon="0.86587">
        <ele>731.8</ele>
        <time>2023-07-23T07:16:16Z</time>
      </trkpt>
      <trkpt lat="42.20329" lon="0.86585">
        <ele>731.8</ele>
        <time>2023-07-23T07:16:17Z</time>
      </trkpt>
      <trkpt lat="42.20331" lon="0.86584">
        <ele>732.4</ele>
        <time>2023-07-23T07:16:18Z</time>
      </trkpt>
      <trkpt lat="42.20333" lon="0.86583">
        <ele>732.8</ele>
        <time>2023-07-23T07:16:19Z</time>
      </trkpt>
      <trkpt lat="42.20335" lon="0.86582">
        <ele>733.4</ele>
        <time>2023-07-23T07:16:20Z</time>
      </trkpt>
      <trkpt lat="42.20336" lon="0.8658">
        <ele>733.8</ele>
        <time>2023-07-23T07:16:21Z</time>
      </trkpt>
      <trkpt lat="42.20338" lon="0.86578">
        <ele>734</ele>
        <time>2023-07-23T07:16:22Z</time>
      </trkpt>
      <trkpt lat="42.20339" lon="0.86576">
        <ele>734.8</ele>
        <time>2023-07-23T07:16:23Z</time>
      </trkpt>
      <trkpt lat="42.20341" lon="0.86574">
        <ele>735</ele>
        <time>2023-07-23T07:16:24Z</time>
      </trkpt>
      <trkpt lat="42.20343" lon="0.86573">
        <ele>735.4</ele>
        <time>2023-07-23T07:16:25Z</time>
      </trkpt>
      <trkpt lat="42.20345" lon="0.86571">
        <ele>735.6</ele>
        <time>2023-07-23T07:16:26Z</time>
      </trkpt>
      <trkpt lat="42.20347" lon="0.86568">
        <ele>736</ele>
        <time>2023-07-23T07:16:27Z</time>
      </trkpt>
      <trkpt lat="42.20349" lon="0.86566">
        <ele>736.2</ele>
        <time>2023-07-23T07:16:28Z</time>
      </trkpt>
      <trkpt lat="42.20351" lon="0.86563">
        <ele>736.4</ele>
        <time>2023-07-23T07:16:29Z</time>
      </trkpt>
      <trkpt lat="42.20352" lon="0.86561">
        <ele>736.8</ele>
        <time>2023-07-23T07:16:30Z</time>
      </trkpt>
      <trkpt lat="42.20354" lon="0.86558">
        <ele>736.8</ele>
        <time>2023-07-23T07:16:31Z</time>
      </trkpt>
      <trkpt lat="42.20355" lon="0.86555">
        <ele>737</ele>
        <time>2023-07-23T07:16:32Z</time>
      </trkpt>
      <trkpt lat="42.20356" lon="0.86552">
        <ele>737</ele>
        <time>2023-07-23T07:16:33Z</time>
      </trkpt>
      <trkpt lat="42.20356" lon="0.86549">
        <ele>737.4</ele>
        <time>2023-07-23T07:16:34Z</time>
      </trkpt>
      <trkpt lat="42.20357" lon="0.86546">
        <ele>737.8</ele>
        <time>2023-07-23T07:16:35Z</time>
      </trkpt>
      <trkpt lat="42.20357" lon="0.86543">
        <ele>737.8</ele>
        <time>2023-07-23T07:16:36Z</time>
      </trkpt>
      <trkpt lat="42.20358" lon="0.86541">
        <ele>738</ele>
        <time>2023-07-23T07:16:37Z</time>
      </trkpt>
      <trkpt lat="42.20358" lon="0.86539">
        <ele>738</ele>
        <time>2023-07-23T07:16:38Z</time>
      </trkpt>
      <trkpt lat="42.20358" lon="0.86537">
        <ele>738.4</ele>
        <time>2023-07-23T07:16:39Z</time>
      </trkpt>
      <trkpt lat="42.20359" lon="0.86535">
        <ele>738.8</ele>
        <time>2023-07-23T07:16:40Z</time>
      </trkpt>
      <trkpt lat="42.20359" lon="0.86534">
        <ele>738.8</ele>
        <time>2023-07-23T07:16:41Z</time>
      </trkpt>
      <trkpt lat="42.20359" lon="0.86533">
        <ele>739.2</ele>
        <time>2023-07-23T07:16:42Z</time>
      </trkpt>
      <trkpt lat="42.20359" lon="0.86533">
        <ele>739.2</ele>
        <time>2023-07-23T07:16:43Z</time>
      </trkpt>
      <trkpt lat="42.20359" lon="0.86533">
        <ele>739.6</ele>
        <time>2023-07-23T07:16:44Z</time>
      </trkpt>
      <trkpt lat="42.2036" lon="0.86528">
        <ele>740.2</ele>
        <time>2023-07-23T07:17:44Z</time>
      </trkpt>
      <trkpt lat="42.20361" lon="0.86525">
        <ele>740.2</ele>
        <time>2023-07-23T07:17:45Z</time>
      </trkpt>
      <trkpt lat="42.20362" lon="0.86522">
        <ele>740.2</ele>
        <time>2023-07-23T07:17:46Z</time>
      </trkpt>
      <trkpt lat="42.20363" lon="0.86519">
        <ele>740.2</ele>
        <time>2023-07-23T07:17:47Z</time>
      </trkpt>
      <trkpt lat="42.20365" lon="0.86516">
        <ele>740.2</ele>
        <time>2023-07-23T07:17:48Z</time>
      </trkpt>
      <trkpt lat="42.20367" lon="0.86513">
        <ele>740.2</ele>
        <time>2023-07-23T07:17:49Z</time>
      </trkpt>
      <trkpt lat="42.20368" lon="0.8651">
        <ele>740.4</ele>
        <time>2023-07-23T07:17:50Z</time>
      </trkpt>
      <trkpt lat="42.2037" lon="0.86507">
        <ele>740.4</ele>
        <time>2023-07-23T07:17:51Z</time>
      </trkpt>
      <trkpt lat="42.20372" lon="0.86505">
        <ele>740.6</ele>
        <time>2023-07-23T07:17:52Z</time>
      </trkpt>
      <trkpt lat="42.20373" lon="0.86503">
        <ele>741</ele>
        <time>2023-07-23T07:17:53Z</time>
      </trkpt>
      <trkpt lat="42.20375" lon="0.865">
        <ele>741.2</ele>
        <time>2023-07-23T07:17:54Z</time>
      </trkpt>
      <trkpt lat="42.20376" lon="0.86498">
        <ele>741.8</ele>
        <time>2023-07-23T07:17:55Z</time>
      </trkpt>
      <trkpt lat="42.20378" lon="0.86496">
        <ele>742</ele>
        <time>2023-07-23T07:17:56Z</time>
      </trkpt>
      <trkpt lat="42.2038" lon="0.86495">
        <ele>742.4</ele>
        <time>2023-07-23T07:17:57Z</time>
      </trkpt>
      <trkpt lat="42.20381" lon="0.86493">
        <ele>742.8</ele>
        <time>2023-07-23T07:17:58Z</time>
      </trkpt>
      <trkpt lat="42.20383" lon="0.86491">
        <ele>742.8</ele>
        <time>2023-07-23T07:17:59Z</time>
      </trkpt>
      <trkpt lat="42.20384" lon="0.86489">
        <ele>743.2</ele>
        <time>2023-07-23T07:18:00Z</time>
      </trkpt>
      <trkpt lat="42.20386" lon="0.86487">
        <ele>743.2</ele>
        <time>2023-07-23T07:18:01Z</time>
      </trkpt>
      <trkpt lat="42.20387" lon="0.86484">
        <ele>743.6</ele>
        <time>2023-07-23T07:18:02Z</time>
      </trkpt>
      <trkpt lat="42.20388" lon="0.86482">
        <ele>743.8</ele>
        <time>2023-07-23T07:18:03Z</time>
      </trkpt>
      <trkpt lat="42.20389" lon="0.86479">
        <ele>744</ele>
        <time>2023-07-23T07:18:04Z</time>
      </trkpt>
      <trkpt lat="42.20389" lon="0.86476">
        <ele>744.2</ele>
        <time>2023-07-23T07:18:05Z</time>
      </trkpt>
      <trkpt lat="42.2039" lon="0.86473">
        <ele>744.4</ele>
        <time>2023-07-23T07:18:06Z</time>
      </trkpt>
      <trkpt lat="42.2039" lon="0.8647">
        <ele>744.8</ele>
        <time>2023-07-23T07:18:07Z</time>
      </trkpt>
      <trkpt lat="42.20391" lon="0.86467">
        <ele>744.8</ele>
        <time>2023-07-23T07:18:08Z</time>
      </trkpt>
      <trkpt lat="42.20392" lon="0.86464">
        <ele>745.2</ele>
        <time>2023-07-23T07:18:09Z</time>
      </trkpt>
      <trkpt lat="42.20393" lon="0.86461">
        <ele>745.4</ele>
        <time>2023-07-23T07:18:10Z</time>
      </trkpt>
      <trkpt lat="42.20393" lon="0.86459">
        <ele>746.2</ele>
        <time>2023-07-23T07:18:11Z</time>
      </trkpt>
      <trkpt lat="42.20393" lon="0.86456">
        <ele>746.6</ele>
        <time>2023-07-23T07:18:12Z</time>
      </trkpt>
      <trkpt lat="42.20394" lon="0.86454">
        <ele>746.8</ele>
        <time>2023-07-23T07:18:13Z</time>
      </trkpt>
      <trkpt lat="42.20395" lon="0.86452">
        <ele>747.2</ele>
        <time>2023-07-23T07:18:14Z</time>
      </trkpt>
      <trkpt lat="42.20396" lon="0.8645">
        <ele>747.4</ele>
        <time>2023-07-23T07:18:15Z</time>
      </trkpt>
      <trkpt lat="42.20397" lon="0.86447">
        <ele>747.6</ele>
        <time>2023-07-23T07:18:16Z</time>
      </trkpt>
      <trkpt lat="42.20399" lon="0.86445">
        <ele>747.8</ele>
        <time>2023-07-23T07:18:17Z</time>
      </trkpt>
      <trkpt lat="42.204" lon="0.86442">
        <ele>748.4</ele>
        <time>2023-07-23T07:18:18Z</time>
      </trkpt>
      <trkpt lat="42.20401" lon="0.8644">
        <ele>748.8</ele>
        <time>2023-07-23T07:18:19Z</time>
      </trkpt>
      <trkpt lat="42.20402" lon="0.86439">
        <ele>749</ele>
        <time>2023-07-23T07:18:20Z</time>
      </trkpt>
      <trkpt lat="42.20404" lon="0.86438">
        <ele>749.4</ele>
        <time>2023-07-23T07:18:21Z</time>
      </trkpt>
      <trkpt lat="42.20406" lon="0.86436">
        <ele>749.6</ele>
        <time>2023-07-23T07:18:22Z</time>
      </trkpt>
      <trkpt lat="42.20407" lon="0.86435">
        <ele>750</ele>
        <time>2023-07-23T07:18:23Z</time>
      </trkpt>
      <trkpt lat="42.20408" lon="0.86433">
        <ele>750.2</ele>
        <time>2023-07-23T07:18:24Z</time>
      </trkpt>
      <trkpt lat="42.2041" lon="0.86431">
        <ele>750.2</ele>
        <time>2023-07-23T07:18:25Z</time>
      </trkpt>
      <trkpt lat="42.20411" lon="0.86429">
        <ele>750.6</ele>
        <time>2023-07-23T07:18:26Z</time>
      </trkpt>
      <trkpt lat="42.20413" lon="0.86427">
        <ele>751</ele>
        <time>2023-07-23T07:18:27Z</time>
      </trkpt>
      <trkpt lat="42.20414" lon="0.86426">
        <ele>751.4</ele>
        <time>2023-07-23T07:18:28Z</time>
      </trkpt>
      <trkpt lat="42.20416" lon="0.86425">
        <ele>751.6</ele>
        <time>2023-07-23T07:18:29Z</time>
      </trkpt>
      <trkpt lat="42.20418" lon="0.86424">
        <ele>752.2</ele>
        <time>2023-07-23T07:18:30Z</time>
      </trkpt>
      <trkpt lat="42.20419" lon="0.86422">
        <ele>752.6</ele>
        <time>2023-07-23T07:18:31Z</time>
      </trkpt>
      <trkpt lat="42.20421" lon="0.86421">
        <ele>752.8</ele>
        <time>2023-07-23T07:18:32Z</time>
      </trkpt>
      <trkpt lat="42.20423" lon="0.8642">
        <ele>753</ele>
        <time>2023-07-23T07:18:33Z</time>
      </trkpt>
      <trkpt lat="42.20424" lon="0.86418">
        <ele>753.2</ele>
        <time>2023-07-23T07:18:34Z</time>
      </trkpt>
      <trkpt lat="42.20425" lon="0.86416">
        <ele>753.6</ele>
        <time>2023-07-23T07:18:35Z</time>
      </trkpt>
      <trkpt lat="42.20426" lon="0.86415">
        <ele>753.6</ele>
        <time>2023-07-23T07:18:36Z</time>
      </trkpt>
      <trkpt lat="42.20428" lon="0.86413">
        <ele>754.2</ele>
        <time>2023-07-23T07:18:37Z</time>
      </trkpt>
      <trkpt lat="42.20429" lon="0.86411">
        <ele>754.4</ele>
        <time>2023-07-23T07:18:38Z</time>
      </trkpt>
      <trkpt lat="42.20431" lon="0.86409">
        <ele>754.6</ele>
        <time>2023-07-23T07:18:39Z</time>
      </trkpt>
      <trkpt lat="42.20432" lon="0.86408">
        <ele>755</ele>
        <time>2023-07-23T07:18:40Z</time>
      </trkpt>
      <trkpt lat="42.20434" lon="0.86407">
        <ele>755</ele>
        <time>2023-07-23T07:18:41Z</time>
      </trkpt>
      <trkpt lat="42.20434" lon="0.86408">
        <ele>755.6</ele>
        <time>2023-07-23T07:18:42Z</time>
      </trkpt>
      <trkpt lat="42.20434" lon="0.86408">
        <ele>756</ele>
        <time>2023-07-23T07:18:43Z</time>
      </trkpt>
      <trkpt lat="42.20434" lon="0.86408">
        <ele>756.4</ele>
        <time>2023-07-23T07:18:44Z</time>
      </trkpt>
      <trkpt lat="42.20438" lon="0.86403">
        <ele>760</ele>
        <time>2023-07-23T07:19:15Z</time>
      </trkpt>
      <trkpt lat="42.20439" lon="0.864">
        <ele>760</ele>
        <time>2023-07-23T07:19:16Z</time>
      </trkpt>
      <trkpt lat="42.20441" lon="0.86397">
        <ele>760</ele>
        <time>2023-07-23T07:19:17Z</time>
      </trkpt>
      <trkpt lat="42.20442" lon="0.86394">
        <ele>760.2</ele>
        <time>2023-07-23T07:19:18Z</time>
      </trkpt>
      <trkpt lat="42.20444" lon="0.86391">
        <ele>760.2</ele>
        <time>2023-07-23T07:19:19Z</time>
      </trkpt>
      <trkpt lat="42.20446" lon="0.86388">
        <ele>760.2</ele>
        <time>2023-07-23T07:19:20Z</time>
      </trkpt>
      <trkpt lat="42.20447" lon="0.86384">
        <ele>760.4</ele>
        <time>2023-07-23T07:19:21Z</time>
      </trkpt>
      <trkpt lat="42.20448" lon="0.86383">
        <ele>760.6</ele>
        <time>2023-07-23T07:19:22Z</time>
      </trkpt>
      <trkpt lat="42.20448" lon="0.86382">
        <ele>761</ele>
        <time>2023-07-23T07:19:23Z</time>
      </trkpt>
      <trkpt lat="42.20453" lon="0.86374">
        <ele>763</ele>
        <time>2023-07-23T07:19:34Z</time>
      </trkpt>
      <trkpt lat="42.20454" lon="0.86373">
        <ele>763</ele>
        <time>2023-07-23T07:19:35Z</time>
      </trkpt>
      <trkpt lat="42.20455" lon="0.8637">
        <ele>763.2</ele>
        <time>2023-07-23T07:19:36Z</time>
      </trkpt>
      <trkpt lat="42.20456" lon="0.86368">
        <ele>763.2</ele>
        <time>2023-07-23T07:19:37Z</time>
      </trkpt>
      <trkpt lat="42.20458" lon="0.86367">
        <ele>763.2</ele>
        <time>2023-07-23T07:19:38Z</time>
      </trkpt>
      <trkpt lat="42.20459" lon="0.86365">
        <ele>763.4</ele>
        <time>2023-07-23T07:19:39Z</time>
      </trkpt>
      <trkpt lat="42.2046" lon="0.86363">
        <ele>763.4</ele>
        <time>2023-07-23T07:19:40Z</time>
      </trkpt>
      <trkpt lat="42.20461" lon="0.86361">
        <ele>763.8</ele>
        <time>2023-07-23T07:19:41Z</time>
      </trkpt>
      <trkpt lat="42.20461" lon="0.86358">
        <ele>764.2</ele>
        <time>2023-07-23T07:19:42Z</time>
      </trkpt>
      <trkpt lat="42.20462" lon="0.86355">
        <ele>764.4</ele>
        <time>2023-07-23T07:19:43Z</time>
      </trkpt>
      <trkpt lat="42.20463" lon="0.86352">
        <ele>764.6</ele>
        <time>2023-07-23T07:19:44Z</time>
      </trkpt>
      <trkpt lat="42.20464" lon="0.86351">
        <ele>764.8</ele>
        <time>2023-07-23T07:19:45Z</time>
      </trkpt>
      <trkpt lat="42.20465" lon="0.86349">
        <ele>765.2</ele>
        <time>2023-07-23T07:19:46Z</time>
      </trkpt>
      <trkpt lat="42.20467" lon="0.86347">
        <ele>765.4</ele>
        <time>2023-07-23T07:19:47Z</time>
      </trkpt>
      <trkpt lat="42.20468" lon="0.86346">
        <ele>765.8</ele>
        <time>2023-07-23T07:19:48Z</time>
      </trkpt>
      <trkpt lat="42.20469" lon="0.86343">
        <ele>765.8</ele>
        <time>2023-07-23T07:19:49Z</time>
      </trkpt>
      <trkpt lat="42.2047" lon="0.86342">
        <ele>766</ele>
        <time>2023-07-23T07:19:50Z</time>
      </trkpt>
      <trkpt lat="42.20471" lon="0.86339">
        <ele>766</ele>
        <time>2023-07-23T07:19:51Z</time>
      </trkpt>
      <trkpt lat="42.20472" lon="0.86337">
        <ele>766.2</ele>
        <time>2023-07-23T07:19:52Z</time>
      </trkpt>
      <trkpt lat="42.20473" lon="0.86335">
        <ele>766.8</ele>
        <time>2023-07-23T07:19:53Z</time>
      </trkpt>
      <trkpt lat="42.20474" lon="0.86333">
        <ele>767.4</ele>
        <time>2023-07-23T07:19:54Z</time>
      </trkpt>
      <trkpt lat="42.20475" lon="0.86333">
        <ele>768</ele>
        <time>2023-07-23T07:19:55Z</time>
      </trkpt>
      <trkpt lat="42.20477" lon="0.86332">
        <ele>768.4</ele>
        <time>2023-07-23T07:19:56Z</time>
      </trkpt>
      <trkpt lat="42.20478" lon="0.86332">
        <ele>768.6</ele>
        <time>2023-07-23T07:19:57Z</time>
      </trkpt>
      <trkpt lat="42.20479" lon="0.86331">
        <ele>768.8</ele>
        <time>2023-07-23T07:19:58Z</time>
      </trkpt>
      <trkpt lat="42.2048" lon="0.8633">
        <ele>769.2</ele>
        <time>2023-07-23T07:19:59Z</time>
      </trkpt>
      <trkpt lat="42.20482" lon="0.86329">
        <ele>769.8</ele>
        <time>2023-07-23T07:20:00Z</time>
      </trkpt>
      <trkpt lat="42.20482" lon="0.86328">
        <ele>770</ele>
        <time>2023-07-23T07:20:01Z</time>
      </trkpt>
      <trkpt lat="42.20483" lon="0.86327">
        <ele>770.4</ele>
        <time>2023-07-23T07:20:02Z</time>
      </trkpt>
      <trkpt lat="42.20484" lon="0.86326">
        <ele>770.8</ele>
        <time>2023-07-23T07:20:03Z</time>
      </trkpt>
      <trkpt lat="42.20485" lon="0.86326">
        <ele>771.2</ele>
        <time>2023-07-23T07:20:04Z</time>
      </trkpt>
      <trkpt lat="42.20485" lon="0.86326">
        <ele>771.6</ele>
        <time>2023-07-23T07:20:05Z</time>
      </trkpt>
      <trkpt lat="42.20485" lon="0.86326">
        <ele>771.6</ele>
        <time>2023-07-23T07:20:06Z</time>
      </trkpt>
      <trkpt lat="42.20485" lon="0.86326">
        <ele>772</ele>
        <time>2023-07-23T07:20:07Z</time>
      </trkpt>
      <trkpt lat="42.2049" lon="0.86324">
        <ele>773.8</ele>
        <time>2023-07-23T07:20:31Z</time>
      </trkpt>
      <trkpt lat="42.20492" lon="0.86322">
        <ele>773.8</ele>
        <time>2023-07-23T07:20:32Z</time>
      </trkpt>
      <trkpt lat="42.20494" lon="0.8632">
        <ele>773.8</ele>
        <time>2023-07-23T07:20:33Z</time>
      </trkpt>
      <trkpt lat="42.20496" lon="0.86317">
        <ele>773.8</ele>
        <time>2023-07-23T07:20:34Z</time>
      </trkpt>
      <trkpt lat="42.20497" lon="0.86316">
        <ele>773.8</ele>
        <time>2023-07-23T07:20:35Z</time>
      </trkpt>
      <trkpt lat="42.20499" lon="0.86315">
        <ele>773.8</ele>
        <time>2023-07-23T07:20:36Z</time>
      </trkpt>
      <trkpt lat="42.20501" lon="0.86314">
        <ele>773.8</ele>
        <time>2023-07-23T07:20:37Z</time>
      </trkpt>
      <trkpt lat="42.20502" lon="0.86312">
        <ele>774.2</ele>
        <time>2023-07-23T07:20:38Z</time>
      </trkpt>
      <trkpt lat="42.20502" lon="0.8631">
        <ele>774.4</ele>
        <time>2023-07-23T07:20:39Z</time>
      </trkpt>
      <trkpt lat="42.20501" lon="0.86309">
        <ele>774.8</ele>
        <time>2023-07-23T07:20:40Z</time>
      </trkpt>
      <trkpt lat="42.205" lon="0.86309">
        <ele>774.8</ele>
        <time>2023-07-23T07:20:41Z</time>
      </trkpt>
      <trkpt lat="42.20499" lon="0.86308">
        <ele>775.2</ele>
        <time>2023-07-23T07:20:42Z</time>
      </trkpt>
      <trkpt lat="42.20497" lon="0.86308">
        <ele>775.4</ele>
        <time>2023-07-23T07:20:43Z</time>
      </trkpt>
      <trkpt lat="42.20496" lon="0.86309">
        <ele>775.6</ele>
        <time>2023-07-23T07:20:44Z</time>
      </trkpt>
      <trkpt lat="42.20495" lon="0.86309">
        <ele>776</ele>
        <time>2023-07-23T07:20:45Z</time>
      </trkpt>
      <trkpt lat="42.20493" lon="0.8631">
        <ele>776.2</ele>
        <time>2023-07-23T07:20:46Z</time>
      </trkpt>
      <trkpt lat="42.20492" lon="0.8631">
        <ele>776.6</ele>
        <time>2023-07-23T07:20:47Z</time>
      </trkpt>
      <trkpt lat="42.2049" lon="0.86311">
        <ele>776.8</ele>
        <time>2023-07-23T07:20:48Z</time>
      </trkpt>
      <trkpt lat="42.20488" lon="0.86312">
        <ele>776.8</ele>
        <time>2023-07-23T07:20:49Z</time>
      </trkpt>
      <trkpt lat="42.20485" lon="0.86313">
        <ele>777.2</ele>
        <time>2023-07-23T07:20:50Z</time>
      </trkpt>
      <trkpt lat="42.20483" lon="0.86314">
        <ele>777.4</ele>
        <time>2023-07-23T07:20:51Z</time>
      </trkpt>
      <trkpt lat="42.20482" lon="0.86315">
        <ele>777.8</ele>
        <time>2023-07-23T07:20:52Z</time>
      </trkpt>
      <trkpt lat="42.20481" lon="0.86316">
        <ele>777.8</ele>
        <time>2023-07-23T07:20:53Z</time>
      </trkpt>
      <trkpt lat="42.2048" lon="0.86316">
        <ele>778</ele>
        <time>2023-07-23T07:20:54Z</time>
      </trkpt>
      <trkpt lat="42.2048" lon="0.86316">
        <ele>778.4</ele>
        <time>2023-07-23T07:20:55Z</time>
      </trkpt>
      <trkpt lat="42.2048" lon="0.86316">
        <ele>778.4</ele>
        <time>2023-07-23T07:20:56Z</time>
      </trkpt>
      <trkpt lat="42.2048" lon="0.86316">
        <ele>778.6</ele>
        <time>2023-07-23T07:20:57Z</time>
      </trkpt>
      <trkpt lat="42.20476" lon="0.86318">
        <ele>778.8</ele>
        <time>2023-07-23T07:21:02Z</time>
      </trkpt>
      <trkpt lat="42.20475" lon="0.86319">
        <ele>778.8</ele>
        <time>2023-07-23T07:21:03Z</time>
      </trkpt>
      <trkpt lat="42.20472" lon="0.86322">
        <ele>778.8</ele>
        <time>2023-07-23T07:21:04Z</time>
      </trkpt>
      <trkpt lat="42.20469" lon="0.86324">
        <ele>778.8</ele>
        <time>2023-07-23T07:21:05Z</time>
      </trkpt>
      <trkpt lat="42.20466" lon="0.86326">
        <ele>778.6</ele>
        <time>2023-07-23T07:21:06Z</time>
      </trkpt>
      <trkpt lat="42.20463" lon="0.86327">
        <ele>778.4</ele>
        <time>2023-07-23T07:21:07Z</time>
      </trkpt>
      <trkpt lat="42.20461" lon="0.86329">
        <ele>778.2</ele>
        <time>2023-07-23T07:21:08Z</time>
      </trkpt>
      <trkpt lat="42.20458" lon="0.86332">
        <ele>777.8</ele>
        <time>2023-07-23T07:21:09Z</time>
      </trkpt>
      <trkpt lat="42.20456" lon="0.86335">
        <ele>777.6</ele>
        <time>2023-07-23T07:21:10Z</time>
      </trkpt>
      <trkpt lat="42.20453" lon="0.86337">
        <ele>777.2</ele>
        <time>2023-07-23T07:21:11Z</time>
      </trkpt>
      <trkpt lat="42.20451" lon="0.86338">
        <ele>777</ele>
        <time>2023-07-23T07:21:12Z</time>
      </trkpt>
      <trkpt lat="42.2045" lon="0.8634">
        <ele>776.8</ele>
        <time>2023-07-23T07:21:13Z</time>
      </trkpt>
      <trkpt lat="42.20449" lon="0.8634">
        <ele>776.8</ele>
        <time>2023-07-23T07:21:14Z</time>
      </trkpt>
      <trkpt lat="42.20449" lon="0.8634">
        <ele>776.6</ele>
        <time>2023-07-23T07:21:15Z</time>
      </trkpt>
      <trkpt lat="42.20449" lon="0.8634">
        <ele>776.6</ele>
        <time>2023-07-23T07:21:16Z</time>
      </trkpt>
      <trkpt lat="42.20447" lon="0.86335">
        <ele>775.8</ele>
        <time>2023-07-23T07:26:52Z</time>
      </trkpt>
      <trkpt lat="42.20448" lon="0.86333">
        <ele>775.8</ele>
        <time>2023-07-23T07:26:53Z</time>
      </trkpt>
      <trkpt lat="42.20448" lon="0.86332">
        <ele>775.8</ele>
        <time>2023-07-23T07:26:54Z</time>
      </trkpt>
      <trkpt lat="42.20449" lon="0.86331">
        <ele>775.8</ele>
        <time>2023-07-23T07:26:55Z</time>
      </trkpt>
      <trkpt lat="42.2045" lon="0.8633">
        <ele>775.8</ele>
        <time>2023-07-23T07:26:56Z</time>
      </trkpt>
      <trkpt lat="42.2045" lon="0.86329">
        <ele>775.8</ele>
        <time>2023-07-23T07:26:57Z</time>
      </trkpt>
      <trkpt lat="42.20451" lon="0.86328">
        <ele>775.8</ele>
        <time>2023-07-23T07:26:58Z</time>
      </trkpt>
      <trkpt lat="42.20451" lon="0.86328">
        <ele>775.8</ele>
        <time>2023-07-23T07:26:59Z</time>
      </trkpt>
      <trkpt lat="42.20451" lon="0.86328">
        <ele>776</ele>
        <time>2023-07-23T07:27:00Z</time>
      </trkpt>
      <trkpt lat="42.20453" lon="0.86325">
        <ele>776.8</ele>
        <time>2023-07-23T07:27:17Z</time>
      </trkpt>
      <trkpt lat="42.20454" lon="0.86323">
        <ele>776.8</ele>
        <time>2023-07-23T07:27:18Z</time>
      </trkpt>
      <trkpt lat="42.20456" lon="0.86321">
        <ele>776.8</ele>
        <time>2023-07-23T07:27:19Z</time>
      </trkpt>
      <trkpt lat="42.20458" lon="0.86319">
        <ele>777.2</ele>
        <time>2023-07-23T07:27:20Z</time>
      </trkpt>
      <trkpt lat="42.20459" lon="0.86317">
        <ele>777.4</ele>
        <time>2023-07-23T07:27:21Z</time>
      </trkpt>
      <trkpt lat="42.20461" lon="0.86315">
        <ele>777.6</ele>
        <time>2023-07-23T07:27:22Z</time>
      </trkpt>
      <trkpt lat="42.20462" lon="0.86313">
        <ele>777.4</ele>
        <time>2023-07-23T07:27:23Z</time>
      </trkpt>
      <trkpt lat="42.20463" lon="0.86311">
        <ele>777.8</ele>
        <time>2023-07-23T07:27:24Z</time>
      </trkpt>
      <trkpt lat="42.20464" lon="0.8631">
        <ele>777.8</ele>
        <time>2023-07-23T07:27:25Z</time>
      </trkpt>
      <trkpt lat="42.20465" lon="0.86308">
        <ele>778.4</ele>
        <time>2023-07-23T07:27:26Z</time>
      </trkpt>
      <trkpt lat="42.20466" lon="0.86307">
        <ele>779</ele>
        <time>2023-07-23T07:27:27Z</time>
      </trkpt>
      <trkpt lat="42.20467" lon="0.86306">
        <ele>779.4</ele>
        <time>2023-07-23T07:27:28Z</time>
      </trkpt>
      <trkpt lat="42.20468" lon="0.86304">
        <ele>780.2</ele>
        <time>2023-07-23T07:27:29Z</time>
      </trkpt>
      <trkpt lat="42.20469" lon="0.86303">
        <ele>780.2</ele>
        <time>2023-07-23T07:27:30Z</time>
      </trkpt>
      <trkpt lat="42.2047" lon="0.86301">
        <ele>780.6</ele>
        <time>2023-07-23T07:27:31Z</time>
      </trkpt>
      <trkpt lat="42.20472" lon="0.863">
        <ele>781.4</ele>
        <time>2023-07-23T07:27:32Z</time>
      </trkpt>
      <trkpt lat="42.20473" lon="0.86297">
        <ele>781.6</ele>
        <time>2023-07-23T07:27:33Z</time>
      </trkpt>
      <trkpt lat="42.20474" lon="0.86295">
        <ele>782.4</ele>
        <time>2023-07-23T07:27:34Z</time>
      </trkpt>
      <trkpt lat="42.20475" lon="0.86293">
        <ele>782.6</ele>
        <time>2023-07-23T07:27:35Z</time>
      </trkpt>
      <trkpt lat="42.20476" lon="0.86291">
        <ele>783.2</ele>
        <time>2023-07-23T07:27:36Z</time>
      </trkpt>
      <trkpt lat="42.20477" lon="0.8629">
        <ele>783.6</ele>
        <time>2023-07-23T07:27:37Z</time>
      </trkpt>
      <trkpt lat="42.20479" lon="0.86288">
        <ele>784.2</ele>
        <time>2023-07-23T07:27:38Z</time>
      </trkpt>
      <trkpt lat="42.2048" lon="0.86287">
        <ele>784.8</ele>
        <time>2023-07-23T07:27:39Z</time>
      </trkpt>
      <trkpt lat="42.20481" lon="0.86285">
        <ele>785</ele>
        <time>2023-07-23T07:27:40Z</time>
      </trkpt>
      <trkpt lat="42.20482" lon="0.86283">
        <ele>785.4</ele>
        <time>2023-07-23T07:27:41Z</time>
      </trkpt>
      <trkpt lat="42.20483" lon="0.86281">
        <ele>785.8</ele>
        <time>2023-07-23T07:27:42Z</time>
      </trkpt>
      <trkpt lat="42.20484" lon="0.86279">
        <ele>786.4</ele>
        <time>2023-07-23T07:27:43Z</time>
      </trkpt>
      <trkpt lat="42.20485" lon="0.86277">
        <ele>786.6</ele>
        <time>2023-07-23T07:27:44Z</time>
      </trkpt>
      <trkpt lat="42.20486" lon="0.86275">
        <ele>787.2</ele>
        <time>2023-07-23T07:27:45Z</time>
      </trkpt>
      <trkpt lat="42.20487" lon="0.86273">
        <ele>787.6</ele>
        <time>2023-07-23T07:27:46Z</time>
      </trkpt>
      <trkpt lat="42.20489" lon="0.86271">
        <ele>787.8</ele>
        <time>2023-07-23T07:27:47Z</time>
      </trkpt>
      <trkpt lat="42.2049" lon="0.8627">
        <ele>788.4</ele>
        <time>2023-07-23T07:27:48Z</time>
      </trkpt>
      <trkpt lat="42.20492" lon="0.86268">
        <ele>788.6</ele>
        <time>2023-07-23T07:27:49Z</time>
      </trkpt>
      <trkpt lat="42.20493" lon="0.86267">
        <ele>789.2</ele>
        <time>2023-07-23T07:27:50Z</time>
      </trkpt>
      <trkpt lat="42.20494" lon="0.86265">
        <ele>789.6</ele>
        <time>2023-07-23T07:27:51Z</time>
      </trkpt>
      <trkpt lat="42.20495" lon="0.86263">
        <ele>790.4</ele>
        <time>2023-07-23T07:27:52Z</time>
      </trkpt>
      <trkpt lat="42.20496" lon="0.86262">
        <ele>790.8</ele>
        <time>2023-07-23T07:27:53Z</time>
      </trkpt>
      <trkpt lat="42.20497" lon="0.86259">
        <ele>791.2</ele>
        <time>2023-07-23T07:27:54Z</time>
      </trkpt>
      <trkpt lat="42.20498" lon="0.86257">
        <ele>792.2</ele>
        <time>2023-07-23T07:27:55Z</time>
      </trkpt>
      <trkpt lat="42.20499" lon="0.86256">
        <ele>792.6</ele>
        <time>2023-07-23T07:27:56Z</time>
      </trkpt>
      <trkpt lat="42.205" lon="0.86253">
        <ele>793.4</ele>
        <time>2023-07-23T07:27:57Z</time>
      </trkpt>
      <trkpt lat="42.20501" lon="0.86252">
        <ele>794.2</ele>
        <time>2023-07-23T07:27:58Z</time>
      </trkpt>
      <trkpt lat="42.20502" lon="0.8625">
        <ele>794.6</ele>
        <time>2023-07-23T07:27:59Z</time>
      </trkpt>
      <trkpt lat="42.20503" lon="0.86248">
        <ele>794.8</ele>
        <time>2023-07-23T07:28:00Z</time>
      </trkpt>
      <trkpt lat="42.20504" lon="0.86246">
        <ele>795.2</ele>
        <time>2023-07-23T07:28:01Z</time>
      </trkpt>
      <trkpt lat="42.20505" lon="0.86244">
        <ele>796</ele>
        <time>2023-07-23T07:28:02Z</time>
      </trkpt>
      <trkpt lat="42.20506" lon="0.86242">
        <ele>796.4</ele>
        <time>2023-07-23T07:28:03Z</time>
      </trkpt>
      <trkpt lat="42.20507" lon="0.8624">
        <ele>796.6</ele>
        <time>2023-07-23T07:28:04Z</time>
      </trkpt>
      <trkpt lat="42.20508" lon="0.86238">
        <ele>797</ele>
        <time>2023-07-23T07:28:05Z</time>
      </trkpt>
      <trkpt lat="42.20508" lon="0.86237">
        <ele>797.2</ele>
        <time>2023-07-23T07:28:06Z</time>
      </trkpt>
      <trkpt lat="42.20509" lon="0.86235">
        <ele>797.8</ele>
        <time>2023-07-23T07:28:07Z</time>
      </trkpt>
      <trkpt lat="42.2051" lon="0.86234">
        <ele>798</ele>
        <time>2023-07-23T07:28:08Z</time>
      </trkpt>
      <trkpt lat="42.20512" lon="0.86233">
        <ele>798.4</ele>
        <time>2023-07-23T07:28:09Z</time>
      </trkpt>
      <trkpt lat="42.20513" lon="0.86231">
        <ele>798.6</ele>
        <time>2023-07-23T07:28:10Z</time>
      </trkpt>
      <trkpt lat="42.20513" lon="0.8623">
        <ele>798.8</ele>
        <time>2023-07-23T07:28:11Z</time>
      </trkpt>
      <trkpt lat="42.20514" lon="0.86228">
        <ele>799</ele>
        <time>2023-07-23T07:28:12Z</time>
      </trkpt>
      <trkpt lat="42.20515" lon="0.86226">
        <ele>799.2</ele>
        <time>2023-07-23T07:28:13Z</time>
      </trkpt>
      <trkpt lat="42.20516" lon="0.86224">
        <ele>799.4</ele>
        <time>2023-07-23T07:28:14Z</time>
      </trkpt>
      <trkpt lat="42.20517" lon="0.86223">
        <ele>799.4</ele>
        <time>2023-07-23T07:28:15Z</time>
      </trkpt>
      <trkpt lat="42.20518" lon="0.86221">
        <ele>799.6</ele>
        <time>2023-07-23T07:28:16Z</time>
      </trkpt>
      <trkpt lat="42.20519" lon="0.86219">
        <ele>799.6</ele>
        <time>2023-07-23T07:28:17Z</time>
      </trkpt>
      <trkpt lat="42.2052" lon="0.86218">
        <ele>799.6</ele>
        <time>2023-07-23T07:28:18Z</time>
      </trkpt>
      <trkpt lat="42.20521" lon="0.86216">
        <ele>799.8</ele>
        <time>2023-07-23T07:28:19Z</time>
      </trkpt>
      <trkpt lat="42.20522" lon="0.86214">
        <ele>799.8</ele>
        <time>2023-07-23T07:28:20Z</time>
      </trkpt>
      <trkpt lat="42.20523" lon="0.86212">
        <ele>800</ele>
        <time>2023-07-23T07:28:21Z</time>
      </trkpt>
      <trkpt lat="42.20524" lon="0.8621">
        <ele>800</ele>
        <time>2023-07-23T07:28:22Z</time>
      </trkpt>
      <trkpt lat="42.20525" lon="0.86209">
        <ele>800.2</ele>
        <time>2023-07-23T07:28:23Z</time>
      </trkpt>
      <trkpt lat="42.20525" lon="0.86207">
        <ele>800.4</ele>
        <time>2023-07-23T07:28:24Z</time>
      </trkpt>
      <trkpt lat="42.20527" lon="0.86205">
        <ele>800.4</ele>
        <time>2023-07-23T07:28:25Z</time>
      </trkpt>
      <trkpt lat="42.20527" lon="0.86203">
        <ele>800.4</ele>
        <time>2023-07-23T07:28:26Z</time>
      </trkpt>
      <trkpt lat="42.20529" lon="0.86201">
        <ele>800.6</ele>
        <time>2023-07-23T07:28:27Z</time>
      </trkpt>
      <trkpt lat="42.2053" lon="0.86198">
        <ele>800.6</ele>
        <time>2023-07-23T07:28:28Z</time>
      </trkpt>
      <trkpt lat="42.20531" lon="0.86196">
        <ele>800.8</ele>
        <time>2023-07-23T07:28:29Z</time>
      </trkpt>
      <trkpt lat="42.20532" lon="0.86193">
        <ele>801</ele>
        <time>2023-07-23T07:28:30Z</time>
      </trkpt>
      <trkpt lat="42.20534" lon="0.86191">
        <ele>801</ele>
        <time>2023-07-23T07:28:31Z</time>
      </trkpt>
      <trkpt lat="42.20535" lon="0.86188">
        <ele>801</ele>
        <time>2023-07-23T07:28:32Z</time>
      </trkpt>
      <trkpt lat="42.20537" lon="0.86185">
        <ele>801</ele>
        <time>2023-07-23T07:28:33Z</time>
      </trkpt>
      <trkpt lat="42.20538" lon="0.86182">
        <ele>801</ele>
        <time>2023-07-23T07:28:34Z</time>
      </trkpt>
      <trkpt lat="42.2054" lon="0.86178">
        <ele>801.2</ele>
        <time>2023-07-23T07:28:35Z</time>
      </trkpt>
      <trkpt lat="42.20541" lon="0.86175">
        <ele>801.2</ele>
        <time>2023-07-23T07:28:36Z</time>
      </trkpt>
      <trkpt lat="42.20543" lon="0.86172">
        <ele>801.2</ele>
        <time>2023-07-23T07:28:37Z</time>
      </trkpt>
      <trkpt lat="42.20545" lon="0.86169">
        <ele>801.2</ele>
        <time>2023-07-23T07:28:38Z</time>
      </trkpt>
      <trkpt lat="42.20547" lon="0.86166">
        <ele>801</ele>
        <time>2023-07-23T07:28:39Z</time>
      </trkpt>
      <trkpt lat="42.20548" lon="0.86163">
        <ele>801</ele>
        <time>2023-07-23T07:28:40Z</time>
      </trkpt>
      <trkpt lat="42.2055" lon="0.8616">
        <ele>801</ele>
        <time>2023-07-23T07:28:41Z</time>
      </trkpt>
      <trkpt lat="42.20552" lon="0.86158">
        <ele>801</ele>
        <time>2023-07-23T07:28:42Z</time>
      </trkpt>
      <trkpt lat="42.20554" lon="0.86155">
        <ele>801</ele>
        <time>2023-07-23T07:28:43Z</time>
      </trkpt>
      <trkpt lat="42.20556" lon="0.86151">
        <ele>801</ele>
        <time>2023-07-23T07:28:44Z</time>
      </trkpt>
      <trkpt lat="42.20558" lon="0.86147">
        <ele>801</ele>
        <time>2023-07-23T07:28:45Z</time>
      </trkpt>
      <trkpt lat="42.2056" lon="0.86144">
        <ele>801</ele>
        <time>2023-07-23T07:28:46Z</time>
      </trkpt>
      <trkpt lat="42.20562" lon="0.86142">
        <ele>801</ele>
        <time>2023-07-23T07:28:47Z</time>
      </trkpt>
      <trkpt lat="42.20564" lon="0.86139">
        <ele>801</ele>
        <time>2023-07-23T07:28:48Z</time>
      </trkpt>
      <trkpt lat="42.20565" lon="0.86136">
        <ele>801</ele>
        <time>2023-07-23T07:28:49Z</time>
      </trkpt>
      <trkpt lat="42.20567" lon="0.86134">
        <ele>801</ele>
        <time>2023-07-23T07:28:50Z</time>
      </trkpt>
      <trkpt lat="42.20569" lon="0.86132">
        <ele>801</ele>
        <time>2023-07-23T07:28:51Z</time>
      </trkpt>
      <trkpt lat="42.20571" lon="0.86129">
        <ele>801.2</ele>
        <time>2023-07-23T07:28:52Z</time>
      </trkpt>
      <trkpt lat="42.20573" lon="0.86127">
        <ele>801.2</ele>
        <time>2023-07-23T07:28:53Z</time>
      </trkpt>
      <trkpt lat="42.20575" lon="0.86125">
        <ele>801.2</ele>
        <time>2023-07-23T07:28:54Z</time>
      </trkpt>
      <trkpt lat="42.20577" lon="0.86123">
        <ele>801.4</ele>
        <time>2023-07-23T07:28:55Z</time>
      </trkpt>
      <trkpt lat="42.20579" lon="0.86121">
        <ele>801.6</ele>
        <time>2023-07-23T07:28:56Z</time>
      </trkpt>
      <trkpt lat="42.20581" lon="0.86119">
        <ele>802</ele>
        <time>2023-07-23T07:28:57Z</time>
      </trkpt>
      <trkpt lat="42.20583" lon="0.86117">
        <ele>802.2</ele>
        <time>2023-07-23T07:28:58Z</time>
      </trkpt>
      <trkpt lat="42.20585" lon="0.86115">
        <ele>802.4</ele>
        <time>2023-07-23T07:28:59Z</time>
      </trkpt>
      <trkpt lat="42.20587" lon="0.86114">
        <ele>802.4</ele>
        <time>2023-07-23T07:29:00Z</time>
      </trkpt>
      <trkpt lat="42.20589" lon="0.86112">
        <ele>802.4</ele>
        <time>2023-07-23T07:29:01Z</time>
      </trkpt>
      <trkpt lat="42.2059" lon="0.8611">
        <ele>802.6</ele>
        <time>2023-07-23T07:29:02Z</time>
      </trkpt>
      <trkpt lat="42.20592" lon="0.86108">
        <ele>802.6</ele>
        <time>2023-07-23T07:29:03Z</time>
      </trkpt>
      <trkpt lat="42.20594" lon="0.86107">
        <ele>802.8</ele>
        <time>2023-07-23T07:29:04Z</time>
      </trkpt>
      <trkpt lat="42.20595" lon="0.86105">
        <ele>803.2</ele>
        <time>2023-07-23T07:29:05Z</time>
      </trkpt>
      <trkpt lat="42.20597" lon="0.86103">
        <ele>803.6</ele>
        <time>2023-07-23T07:29:06Z</time>
      </trkpt>
      <trkpt lat="42.20599" lon="0.86102">
        <ele>803.6</ele>
        <time>2023-07-23T07:29:07Z</time>
      </trkpt>
      <trkpt lat="42.20601" lon="0.861">
        <ele>804</ele>
        <time>2023-07-23T07:29:08Z</time>
      </trkpt>
      <trkpt lat="42.20603" lon="0.86099">
        <ele>804.4</ele>
        <time>2023-07-23T07:29:09Z</time>
      </trkpt>
      <trkpt lat="42.20605" lon="0.86097">
        <ele>804.6</ele>
        <time>2023-07-23T07:29:10Z</time>
      </trkpt>
      <trkpt lat="42.20607" lon="0.86095">
        <ele>805</ele>
        <time>2023-07-23T07:29:11Z</time>
      </trkpt>
      <trkpt lat="42.20609" lon="0.86093">
        <ele>805</ele>
        <time>2023-07-23T07:29:12Z</time>
      </trkpt>
      <trkpt lat="42.20611" lon="0.86091">
        <ele>805.4</ele>
        <time>2023-07-23T07:29:13Z</time>
      </trkpt>
      <trkpt lat="42.20613" lon="0.86089">
        <ele>805.8</ele>
        <time>2023-07-23T07:29:14Z</time>
      </trkpt>
      <trkpt lat="42.20615" lon="0.86087">
        <ele>806</ele>
        <time>2023-07-23T07:29:15Z</time>
      </trkpt>
      <trkpt lat="42.20616" lon="0.86085">
        <ele>806.4</ele>
        <time>2023-07-23T07:29:16Z</time>
      </trkpt>
      <trkpt lat="42.20618" lon="0.86083">
        <ele>806.6</ele>
        <time>2023-07-23T07:29:17Z</time>
      </trkpt>
      <trkpt lat="42.2062" lon="0.86081">
        <ele>807.4</ele>
        <time>2023-07-23T07:29:18Z</time>
      </trkpt>
      <trkpt lat="42.20621" lon="0.86078">
        <ele>807.6</ele>
        <time>2023-07-23T07:29:19Z</time>
      </trkpt>
      <trkpt lat="42.20623" lon="0.86076">
        <ele>808.2</ele>
        <time>2023-07-23T07:29:20Z</time>
      </trkpt>
      <trkpt lat="42.20624" lon="0.86074">
        <ele>808.6</ele>
        <time>2023-07-23T07:29:21Z</time>
      </trkpt>
      <trkpt lat="42.20626" lon="0.86071">
        <ele>808.8</ele>
        <time>2023-07-23T07:29:22Z</time>
      </trkpt>
      <trkpt lat="42.20627" lon="0.86068">
        <ele>809.2</ele>
        <time>2023-07-23T07:29:23Z</time>
      </trkpt>
      <trkpt lat="42.20628" lon="0.86066">
        <ele>809.6</ele>
        <time>2023-07-23T07:29:24Z</time>
      </trkpt>
      <trkpt lat="42.20629" lon="0.86063">
        <ele>810.2</ele>
        <time>2023-07-23T07:29:25Z</time>
      </trkpt>
      <trkpt lat="42.20631" lon="0.86061">
        <ele>810.6</ele>
        <time>2023-07-23T07:29:26Z</time>
      </trkpt>
      <trkpt lat="42.20632" lon="0.86058">
        <ele>811</ele>
        <time>2023-07-23T07:29:27Z</time>
      </trkpt>
      <trkpt lat="42.20633" lon="0.86056">
        <ele>811.4</ele>
        <time>2023-07-23T07:29:28Z</time>
      </trkpt>
      <trkpt lat="42.20634" lon="0.86054">
        <ele>811.6</ele>
        <time>2023-07-23T07:29:29Z</time>
      </trkpt>
      <trkpt lat="42.20636" lon="0.86052">
        <ele>811.8</ele>
        <time>2023-07-23T07:29:30Z</time>
      </trkpt>
      <trkpt lat="42.20637" lon="0.86049">
        <ele>812</ele>
        <time>2023-07-23T07:29:31Z</time>
      </trkpt>
      <trkpt lat="42.20638" lon="0.86046">
        <ele>812.4</ele>
        <time>2023-07-23T07:29:32Z</time>
      </trkpt>
      <trkpt lat="42.20639" lon="0.86044">
        <ele>812.8</ele>
        <time>2023-07-23T07:29:33Z</time>
      </trkpt>
      <trkpt lat="42.20639" lon="0.8604">
        <ele>813.2</ele>
        <time>2023-07-23T07:29:34Z</time>
      </trkpt>
      <trkpt lat="42.2064" lon="0.86037">
        <ele>813.8</ele>
        <time>2023-07-23T07:29:35Z</time>
      </trkpt>
      <trkpt lat="42.20641" lon="0.86034">
        <ele>814.2</ele>
        <time>2023-07-23T07:29:36Z</time>
      </trkpt>
      <trkpt lat="42.20642" lon="0.86031">
        <ele>814.6</ele>
        <time>2023-07-23T07:29:37Z</time>
      </trkpt>
      <trkpt lat="42.20643" lon="0.86028">
        <ele>814.8</ele>
        <time>2023-07-23T07:29:38Z</time>
      </trkpt>
      <trkpt lat="42.20644" lon="0.86025">
        <ele>815.2</ele>
        <time>2023-07-23T07:29:39Z</time>
      </trkpt>
      <trkpt lat="42.20645" lon="0.86022">
        <ele>815.6</ele>
        <time>2023-07-23T07:29:40Z</time>
      </trkpt>
      <trkpt lat="42.20646" lon="0.86019">
        <ele>815.8</ele>
        <time>2023-07-23T07:29:41Z</time>
      </trkpt>
      <trkpt lat="42.20647" lon="0.86016">
        <ele>816</ele>
        <time>2023-07-23T07:29:42Z</time>
      </trkpt>
      <trkpt lat="42.20648" lon="0.86013">
        <ele>816</ele>
        <time>2023-07-23T07:29:43Z</time>
      </trkpt>
      <trkpt lat="42.20649" lon="0.8601">
        <ele>816.4</ele>
        <time>2023-07-23T07:29:44Z</time>
      </trkpt>
      <trkpt lat="42.2065" lon="0.86006">
        <ele>817</ele>
        <time>2023-07-23T07:29:45Z</time>
      </trkpt>
      <trkpt lat="42.20651" lon="0.86003">
        <ele>817.4</ele>
        <time>2023-07-23T07:29:46Z</time>
      </trkpt>
      <trkpt lat="42.20652" lon="0.86">
        <ele>817.8</ele>
        <time>2023-07-23T07:29:47Z</time>
      </trkpt>
      <trkpt lat="42.20652" lon="0.85996">
        <ele>818.2</ele>
        <time>2023-07-23T07:29:48Z</time>
      </trkpt>
      <trkpt lat="42.20653" lon="0.85993">
        <ele>818.8</ele>
        <time>2023-07-23T07:29:49Z</time>
      </trkpt>
      <trkpt lat="42.20654" lon="0.85989">
        <ele>818.8</ele>
        <time>2023-07-23T07:29:50Z</time>
      </trkpt>
      <trkpt lat="42.20655" lon="0.85986">
        <ele>819.2</ele>
        <time>2023-07-23T07:29:51Z</time>
      </trkpt>
      <trkpt lat="42.20656" lon="0.85983">
        <ele>819.6</ele>
        <time>2023-07-23T07:29:52Z</time>
      </trkpt>
      <trkpt lat="42.20657" lon="0.8598">
        <ele>819.8</ele>
        <time>2023-07-23T07:29:53Z</time>
      </trkpt>
      <trkpt lat="42.20657" lon="0.85977">
        <ele>820</ele>
        <time>2023-07-23T07:29:54Z</time>
      </trkpt>
      <trkpt lat="42.20658" lon="0.85974">
        <ele>820.2</ele>
        <time>2023-07-23T07:29:55Z</time>
      </trkpt>
      <trkpt lat="42.20659" lon="0.85971">
        <ele>820.6</ele>
        <time>2023-07-23T07:29:56Z</time>
      </trkpt>
      <trkpt lat="42.20659" lon="0.85967">
        <ele>820.8</ele>
        <time>2023-07-23T07:29:57Z</time>
      </trkpt>
      <trkpt lat="42.2066" lon="0.85964">
        <ele>821.6</ele>
        <time>2023-07-23T07:29:58Z</time>
      </trkpt>
      <trkpt lat="42.2066" lon="0.85961">
        <ele>822.2</ele>
        <time>2023-07-23T07:29:59Z</time>
      </trkpt>
      <trkpt lat="42.20661" lon="0.85958">
        <ele>822.4</ele>
        <time>2023-07-23T07:30:00Z</time>
      </trkpt>
      <trkpt lat="42.20662" lon="0.85955">
        <ele>822.8</ele>
        <time>2023-07-23T07:30:01Z</time>
      </trkpt>
      <trkpt lat="42.20663" lon="0.85952">
        <ele>823</ele>
        <time>2023-07-23T07:30:02Z</time>
      </trkpt>
      <trkpt lat="42.20664" lon="0.85949">
        <ele>823.4</ele>
        <time>2023-07-23T07:30:03Z</time>
      </trkpt>
      <trkpt lat="42.20664" lon="0.85946">
        <ele>823.8</ele>
        <time>2023-07-23T07:30:04Z</time>
      </trkpt>
      <trkpt lat="42.20665" lon="0.85943">
        <ele>824</ele>
        <time>2023-07-23T07:30:05Z</time>
      </trkpt>
      <trkpt lat="42.20666" lon="0.85941">
        <ele>824.6</ele>
        <time>2023-07-23T07:30:06Z</time>
      </trkpt>
      <trkpt lat="42.20667" lon="0.85938">
        <ele>824.8</ele>
        <time>2023-07-23T07:30:07Z</time>
      </trkpt>
      <trkpt lat="42.20668" lon="0.85935">
        <ele>825.2</ele>
        <time>2023-07-23T07:30:08Z</time>
      </trkpt>
      <trkpt lat="42.20669" lon="0.85932">
        <ele>825.4</ele>
        <time>2023-07-23T07:30:09Z</time>
      </trkpt>
      <trkpt lat="42.2067" lon="0.85929">
        <ele>825.8</ele>
        <time>2023-07-23T07:30:10Z</time>
      </trkpt>
      <trkpt lat="42.2067" lon="0.85926">
        <ele>826.2</ele>
        <time>2023-07-23T07:30:11Z</time>
      </trkpt>
      <trkpt lat="42.20671" lon="0.85923">
        <ele>826.2</ele>
        <time>2023-07-23T07:30:12Z</time>
      </trkpt>
      <trkpt lat="42.20672" lon="0.8592">
        <ele>826.6</ele>
        <time>2023-07-23T07:30:13Z</time>
      </trkpt>
      <trkpt lat="42.20672" lon="0.85917">
        <ele>826.6</ele>
        <time>2023-07-23T07:30:14Z</time>
      </trkpt>
      <trkpt lat="42.20673" lon="0.85915">
        <ele>827.2</ele>
        <time>2023-07-23T07:30:15Z</time>
      </trkpt>
      <trkpt lat="42.20674" lon="0.85912">
        <ele>827.4</ele>
        <time>2023-07-23T07:30:16Z</time>
      </trkpt>
      <trkpt lat="42.20675" lon="0.8591">
        <ele>828</ele>
        <time>2023-07-23T07:30:17Z</time>
      </trkpt>
      <trkpt lat="42.20676" lon="0.85909">
        <ele>828.6</ele>
        <time>2023-07-23T07:30:18Z</time>
      </trkpt>
      <trkpt lat="42.20677" lon="0.85907">
        <ele>829</ele>
        <time>2023-07-23T07:30:19Z</time>
      </trkpt>
      <trkpt lat="42.20677" lon="0.85906">
        <ele>829.4</ele>
        <time>2023-07-23T07:30:20Z</time>
      </trkpt>
      <trkpt lat="42.20678" lon="0.85906">
        <ele>829.6</ele>
        <time>2023-07-23T07:30:21Z</time>
      </trkpt>
      <trkpt lat="42.20678" lon="0.85906">
        <ele>830</ele>
        <time>2023-07-23T07:30:22Z</time>
      </trkpt>
      <trkpt lat="42.20678" lon="0.85906">
        <ele>830.2</ele>
        <time>2023-07-23T07:30:23Z</time>
      </trkpt>
      <trkpt lat="42.2068" lon="0.85908">
        <ele>830.2</ele>
        <time>2023-07-23T07:31:54Z</time>
      </trkpt>
      <trkpt lat="42.20682" lon="0.8591">
        <ele>830.2</ele>
        <time>2023-07-23T07:31:55Z</time>
      </trkpt>
      <trkpt lat="42.20684" lon="0.85912">
        <ele>830.2</ele>
        <time>2023-07-23T07:31:56Z</time>
      </trkpt>
      <trkpt lat="42.20687" lon="0.85913">
        <ele>830.2</ele>
        <time>2023-07-23T07:31:57Z</time>
      </trkpt>
      <trkpt lat="42.20689" lon="0.85914">
        <ele>830.2</ele>
        <time>2023-07-23T07:31:58Z</time>
      </trkpt>
      <trkpt lat="42.20693" lon="0.85914">
        <ele>830.2</ele>
        <time>2023-07-23T07:31:59Z</time>
      </trkpt>
      <trkpt lat="42.20696" lon="0.85913">
        <ele>830</ele>
        <time>2023-07-23T07:32:00Z</time>
      </trkpt>
      <trkpt lat="42.20701" lon="0.85912">
        <ele>830</ele>
        <time>2023-07-23T07:32:01Z</time>
      </trkpt>
      <trkpt lat="42.20705" lon="0.85911">
        <ele>829.8</ele>
        <time>2023-07-23T07:32:02Z</time>
      </trkpt>
      <trkpt lat="42.20709" lon="0.8591">
        <ele>829.4</ele>
        <time>2023-07-23T07:32:03Z</time>
      </trkpt>
      <trkpt lat="42.20714" lon="0.85908">
        <ele>829.4</ele>
        <time>2023-07-23T07:32:04Z</time>
      </trkpt>
      <trkpt lat="42.2072" lon="0.85905">
        <ele>829</ele>
        <time>2023-07-23T07:32:05Z</time>
      </trkpt>
      <trkpt lat="42.20726" lon="0.85902">
        <ele>828.8</ele>
        <time>2023-07-23T07:32:06Z</time>
      </trkpt>
      <trkpt lat="42.20731" lon="0.85899">
        <ele>828.2</ele>
        <time>2023-07-23T07:32:07Z</time>
      </trkpt>
      <trkpt lat="42.20735" lon="0.85897">
        <ele>827.8</ele>
        <time>2023-07-23T07:32:08Z</time>
      </trkpt>
      <trkpt lat="42.20738" lon="0.85897">
        <ele>827.6</ele>
        <time>2023-07-23T07:32:09Z</time>
      </trkpt>
      <trkpt lat="42.20741" lon="0.85899">
        <ele>827.2</ele>
        <time>2023-07-23T07:32:10Z</time>
      </trkpt>
      <trkpt lat="42.20744" lon="0.85901">
        <ele>827</ele>
        <time>2023-07-23T07:32:11Z</time>
      </trkpt>
      <trkpt lat="42.20746" lon="0.85904">
        <ele>827</ele>
        <time>2023-07-23T07:32:12Z</time>
      </trkpt>
      <trkpt lat="42.20748" lon="0.85908">
        <ele>827</ele>
        <time>2023-07-23T07:32:13Z</time>
      </trkpt>
      <trkpt lat="42.20749" lon="0.85912">
        <ele>827</ele>
        <time>2023-07-23T07:32:14Z</time>
      </trkpt>
      <trkpt lat="42.2075" lon="0.85916">
        <ele>827</ele>
        <time>2023-07-23T07:32:15Z</time>
      </trkpt>
      <trkpt lat="42.2075" lon="0.8592">
        <ele>827</ele>
        <time>2023-07-23T07:32:16Z</time>
      </trkpt>
      <trkpt lat="42.2075" lon="0.85925">
        <ele>827.2</ele>
        <time>2023-07-23T07:32:17Z</time>
      </trkpt>
      <trkpt lat="42.20749" lon="0.85928">
        <ele>827.2</ele>
        <time>2023-07-23T07:32:18Z</time>
      </trkpt>
      <trkpt lat="42.20749" lon="0.85932">
        <ele>827.4</ele>
        <time>2023-07-23T07:32:19Z</time>
      </trkpt>
      <trkpt lat="42.20748" lon="0.85937">
        <ele>827.6</ele>
        <time>2023-07-23T07:32:20Z</time>
      </trkpt>
      <trkpt lat="42.20747" lon="0.8594">
        <ele>827.8</ele>
        <time>2023-07-23T07:32:21Z</time>
      </trkpt>
      <trkpt lat="42.20746" lon="0.85945">
        <ele>828.2</ele>
        <time>2023-07-23T07:32:22Z</time>
      </trkpt>
      <trkpt lat="42.20746" lon="0.85949">
        <ele>828.4</ele>
        <time>2023-07-23T07:32:23Z</time>
      </trkpt>
      <trkpt lat="42.20745" lon="0.85952">
        <ele>828.8</ele>
        <time>2023-07-23T07:32:24Z</time>
      </trkpt>
      <trkpt lat="42.20745" lon="0.85955">
        <ele>829.2</ele>
        <time>2023-07-23T07:32:25Z</time>
      </trkpt>
      <trkpt lat="42.20744" lon="0.85959">
        <ele>829.6</ele>
        <time>2023-07-23T07:32:26Z</time>
      </trkpt>
      <trkpt lat="42.20744" lon="0.85963">
        <ele>830.2</ele>
        <time>2023-07-23T07:32:27Z</time>
      </trkpt>
      <trkpt lat="42.20744" lon="0.85966">
        <ele>830.4</ele>
        <time>2023-07-23T07:32:28Z</time>
      </trkpt>
      <trkpt lat="42.20744" lon="0.8597">
        <ele>831</ele>
        <time>2023-07-23T07:32:29Z</time>
      </trkpt>
      <trkpt lat="42.20743" lon="0.85974">
        <ele>831</ele>
        <time>2023-07-23T07:32:30Z</time>
      </trkpt>
      <trkpt lat="42.20742" lon="0.85978">
        <ele>831.4</ele>
        <time>2023-07-23T07:32:31Z</time>
      </trkpt>
      <trkpt lat="42.20742" lon="0.85981">
        <ele>831.6</ele>
        <time>2023-07-23T07:32:32Z</time>
      </trkpt>
      <trkpt lat="42.20742" lon="0.85984">
        <ele>832.2</ele>
        <time>2023-07-23T07:32:33Z</time>
      </trkpt>
      <trkpt lat="42.20741" lon="0.85988">
        <ele>832.4</ele>
        <time>2023-07-23T07:32:34Z</time>
      </trkpt>
      <trkpt lat="42.20741" lon="0.85991">
        <ele>832.4</ele>
        <time>2023-07-23T07:32:35Z</time>
      </trkpt>
      <trkpt lat="42.20741" lon="0.85995">
        <ele>833</ele>
        <time>2023-07-23T07:32:36Z</time>
      </trkpt>
      <trkpt lat="42.20741" lon="0.85999">
        <ele>833.4</ele>
        <time>2023-07-23T07:32:37Z</time>
      </trkpt>
      <trkpt lat="42.20741" lon="0.86002">
        <ele>833.8</ele>
        <time>2023-07-23T07:32:38Z</time>
      </trkpt>
      <trkpt lat="42.2074" lon="0.86006">
        <ele>834</ele>
        <time>2023-07-23T07:32:39Z</time>
      </trkpt>
      <trkpt lat="42.2074" lon="0.8601">
        <ele>834</ele>
        <time>2023-07-23T07:32:40Z</time>
      </trkpt>
      <trkpt lat="42.20739" lon="0.86014">
        <ele>834.2</ele>
        <time>2023-07-23T07:32:41Z</time>
      </trkpt>
      <trkpt lat="42.20738" lon="0.86018">
        <ele>834.4</ele>
        <time>2023-07-23T07:32:42Z</time>
      </trkpt>
      <trkpt lat="42.20737" lon="0.86023">
        <ele>834.6</ele>
        <time>2023-07-23T07:32:43Z</time>
      </trkpt>
      <trkpt lat="42.20736" lon="0.86026">
        <ele>834.8</ele>
        <time>2023-07-23T07:32:44Z</time>
      </trkpt>
      <trkpt lat="42.20736" lon="0.8603">
        <ele>835</ele>
        <time>2023-07-23T07:32:45Z</time>
      </trkpt>
      <trkpt lat="42.20735" lon="0.86034">
        <ele>835.2</ele>
        <time>2023-07-23T07:32:46Z</time>
      </trkpt>
      <trkpt lat="42.20734" lon="0.86038">
        <ele>835.2</ele>
        <time>2023-07-23T07:32:47Z</time>
      </trkpt>
      <trkpt lat="42.20734" lon="0.86042">
        <ele>835.4</ele>
        <time>2023-07-23T07:32:48Z</time>
      </trkpt>
      <trkpt lat="42.20734" lon="0.86046">
        <ele>835.4</ele>
        <time>2023-07-23T07:32:49Z</time>
      </trkpt>
      <trkpt lat="42.20734" lon="0.8605">
        <ele>835.6</ele>
        <time>2023-07-23T07:32:50Z</time>
      </trkpt>
      <trkpt lat="42.20734" lon="0.86052">
        <ele>835.6</ele>
        <time>2023-07-23T07:32:51Z</time>
      </trkpt>
      <trkpt lat="42.20734" lon="0.86055">
        <ele>835.6</ele>
        <time>2023-07-23T07:32:52Z</time>
      </trkpt>
      <trkpt lat="42.20734" lon="0.86059">
        <ele>835.6</ele>
        <time>2023-07-23T07:32:53Z</time>
      </trkpt>
      <trkpt lat="42.20733" lon="0.86063">
        <ele>835.6</ele>
        <time>2023-07-23T07:32:54Z</time>
      </trkpt>
      <trkpt lat="42.20733" lon="0.86067">
        <ele>835.6</ele>
        <time>2023-07-23T07:32:55Z</time>
      </trkpt>
      <trkpt lat="42.20733" lon="0.86071">
        <ele>835.6</ele>
        <time>2023-07-23T07:32:56Z</time>
      </trkpt>
      <trkpt lat="42.20733" lon="0.86076">
        <ele>835.6</ele>
        <time>2023-07-23T07:32:57Z</time>
      </trkpt>
      <trkpt lat="42.20733" lon="0.86079">
        <ele>835.8</ele>
        <time>2023-07-23T07:32:58Z</time>
      </trkpt>
      <trkpt lat="42.20733" lon="0.86081">
        <ele>835.8</ele>
        <time>2023-07-23T07:32:59Z</time>
      </trkpt>
      <trkpt lat="42.20734" lon="0.86083">
        <ele>835.8</ele>
        <time>2023-07-23T07:33:00Z</time>
      </trkpt>
      <trkpt lat="42.20735" lon="0.86085">
        <ele>835.8</ele>
        <time>2023-07-23T07:33:01Z</time>
      </trkpt>
      <trkpt lat="42.20737" lon="0.86084">
        <ele>835.8</ele>
        <time>2023-07-23T07:33:02Z</time>
      </trkpt>
      <trkpt lat="42.20738" lon="0.86083">
        <ele>835.8</ele>
        <time>2023-07-23T07:33:03Z</time>
      </trkpt>
      <trkpt lat="42.20739" lon="0.86081">
        <ele>836</ele>
        <time>2023-07-23T07:33:04Z</time>
      </trkpt>
      <trkpt lat="42.2074" lon="0.8608">
        <ele>836</ele>
        <time>2023-07-23T07:33:05Z</time>
      </trkpt>
      <trkpt lat="42.2074" lon="0.86078">
        <ele>836</ele>
        <time>2023-07-23T07:33:06Z</time>
      </trkpt>
      <trkpt lat="42.2074" lon="0.86076">
        <ele>836</ele>
        <time>2023-07-23T07:33:07Z</time>
      </trkpt>
      <trkpt lat="42.20741" lon="0.86073">
        <ele>836</ele>
        <time>2023-07-23T07:33:08Z</time>
      </trkpt>
      <trkpt lat="42.20742" lon="0.86071">
        <ele>836</ele>
        <time>2023-07-23T07:33:09Z</time>
      </trkpt>
      <trkpt lat="42.20743" lon="0.86068">
        <ele>836.2</ele>
        <time>2023-07-23T07:33:10Z</time>
      </trkpt>
      <trkpt lat="42.20745" lon="0.86065">
        <ele>836.2</ele>
        <time>2023-07-23T07:33:11Z</time>
      </trkpt>
      <trkpt lat="42.20746" lon="0.86062">
        <ele>836.4</ele>
        <time>2023-07-23T07:33:12Z</time>
      </trkpt>
      <trkpt lat="42.20748" lon="0.8606">
        <ele>836.4</ele>
        <time>2023-07-23T07:33:13Z</time>
      </trkpt>
      <trkpt lat="42.2075" lon="0.86057">
        <ele>836.6</ele>
        <time>2023-07-23T07:33:14Z</time>
      </trkpt>
      <trkpt lat="42.20752" lon="0.86054">
        <ele>836.6</ele>
        <time>2023-07-23T07:33:15Z</time>
      </trkpt>
      <trkpt lat="42.20754" lon="0.86051">
        <ele>836.8</ele>
        <time>2023-07-23T07:33:16Z</time>
      </trkpt>
      <trkpt lat="42.20755" lon="0.86048">
        <ele>837</ele>
        <time>2023-07-23T07:33:17Z</time>
      </trkpt>
      <trkpt lat="42.20757" lon="0.86045">
        <ele>837.2</ele>
        <time>2023-07-23T07:33:18Z</time>
      </trkpt>
      <trkpt lat="42.20758" lon="0.86042">
        <ele>837.4</ele>
        <time>2023-07-23T07:33:19Z</time>
      </trkpt>
      <trkpt lat="42.20759" lon="0.86039">
        <ele>837.4</ele>
        <time>2023-07-23T07:33:20Z</time>
      </trkpt>
      <trkpt lat="42.20761" lon="0.86036">
        <ele>837.6</ele>
        <time>2023-07-23T07:33:21Z</time>
      </trkpt>
      <trkpt lat="42.20762" lon="0.86032">
        <ele>837.8</ele>
        <time>2023-07-23T07:33:22Z</time>
      </trkpt>
      <trkpt lat="42.20764" lon="0.86029">
        <ele>838</ele>
        <time>2023-07-23T07:33:23Z</time>
      </trkpt>
      <trkpt lat="42.20766" lon="0.86026">
        <ele>838</ele>
        <time>2023-07-23T07:33:24Z</time>
      </trkpt>
      <trkpt lat="42.20768" lon="0.86023">
        <ele>838.2</ele>
        <time>2023-07-23T07:33:25Z</time>
      </trkpt>
      <trkpt lat="42.20769" lon="0.8602">
        <ele>838.8</ele>
        <time>2023-07-23T07:33:26Z</time>
      </trkpt>
      <trkpt lat="42.20771" lon="0.86018">
        <ele>839</ele>
        <time>2023-07-23T07:33:27Z</time>
      </trkpt>
      <trkpt lat="42.20773" lon="0.86015">
        <ele>839.2</ele>
        <time>2023-07-23T07:33:28Z</time>
      </trkpt>
      <trkpt lat="42.20774" lon="0.86011">
        <ele>839.4</ele>
        <time>2023-07-23T07:33:29Z</time>
      </trkpt>
      <trkpt lat="42.20775" lon="0.86008">
        <ele>839.6</ele>
        <time>2023-07-23T07:33:30Z</time>
      </trkpt>
      <trkpt lat="42.20777" lon="0.86005">
        <ele>839.6</ele>
        <time>2023-07-23T07:33:31Z</time>
      </trkpt>
      <trkpt lat="42.20778" lon="0.86001">
        <ele>839.8</ele>
        <time>2023-07-23T07:33:32Z</time>
      </trkpt>
      <trkpt lat="42.2078" lon="0.85999">
        <ele>840.2</ele>
        <time>2023-07-23T07:33:33Z</time>
      </trkpt>
      <trkpt lat="42.20781" lon="0.85996">
        <ele>840.4</ele>
        <time>2023-07-23T07:33:34Z</time>
      </trkpt>
      <trkpt lat="42.20783" lon="0.85993">
        <ele>840.6</ele>
        <time>2023-07-23T07:33:35Z</time>
      </trkpt>
      <trkpt lat="42.20785" lon="0.85989">
        <ele>841</ele>
        <time>2023-07-23T07:33:36Z</time>
      </trkpt>
      <trkpt lat="42.20786" lon="0.85986">
        <ele>841.2</ele>
        <time>2023-07-23T07:33:37Z</time>
      </trkpt>
      <trkpt lat="42.20788" lon="0.85983">
        <ele>841.6</ele>
        <time>2023-07-23T07:33:38Z</time>
      </trkpt>
      <trkpt lat="42.2079" lon="0.85981">
        <ele>841.8</ele>
        <time>2023-07-23T07:33:39Z</time>
      </trkpt>
      <trkpt lat="42.20791" lon="0.85978">
        <ele>842.2</ele>
        <time>2023-07-23T07:33:40Z</time>
      </trkpt>
      <trkpt lat="42.20793" lon="0.85975">
        <ele>842.4</ele>
        <time>2023-07-23T07:33:41Z</time>
      </trkpt>
      <trkpt lat="42.20795" lon="0.85972">
        <ele>842.4</ele>
        <time>2023-07-23T07:33:42Z</time>
      </trkpt>
      <trkpt lat="42.20797" lon="0.85969">
        <ele>842.6</ele>
        <time>2023-07-23T07:33:43Z</time>
      </trkpt>
      <trkpt lat="42.20799" lon="0.85966">
        <ele>842.8</ele>
        <time>2023-07-23T07:33:44Z</time>
      </trkpt>
      <trkpt lat="42.20801" lon="0.85964">
        <ele>843</ele>
        <time>2023-07-23T07:33:45Z</time>
      </trkpt>
      <trkpt lat="42.20803" lon="0.85962">
        <ele>843.2</ele>
        <time>2023-07-23T07:33:46Z</time>
      </trkpt>
      <trkpt lat="42.20805" lon="0.85959">
        <ele>843.2</ele>
        <time>2023-07-23T07:33:47Z</time>
      </trkpt>
      <trkpt lat="42.20807" lon="0.85956">
        <ele>843.6</ele>
        <time>2023-07-23T07:33:48Z</time>
      </trkpt>
      <trkpt lat="42.20809" lon="0.85954">
        <ele>843.6</ele>
        <time>2023-07-23T07:33:49Z</time>
      </trkpt>
      <trkpt lat="42.20811" lon="0.85951">
        <ele>844</ele>
        <time>2023-07-23T07:33:50Z</time>
      </trkpt>
      <trkpt lat="42.20813" lon="0.85948">
        <ele>844</ele>
        <time>2023-07-23T07:33:51Z</time>
      </trkpt>
      <trkpt lat="42.20815" lon="0.85946">
        <ele>844.2</ele>
        <time>2023-07-23T07:33:52Z</time>
      </trkpt>
      <trkpt lat="42.20817" lon="0.85943">
        <ele>844.4</ele>
        <time>2023-07-23T07:33:53Z</time>
      </trkpt>
      <trkpt lat="42.20819" lon="0.85941">
        <ele>844.6</ele>
        <time>2023-07-23T07:33:54Z</time>
      </trkpt>
      <trkpt lat="42.20822" lon="0.85938">
        <ele>844.8</ele>
        <time>2023-07-23T07:33:55Z</time>
      </trkpt>
      <trkpt lat="42.20824" lon="0.85936">
        <ele>844.8</ele>
        <time>2023-07-23T07:33:56Z</time>
      </trkpt>
      <trkpt lat="42.20826" lon="0.85933">
        <ele>845.2</ele>
        <time>2023-07-23T07:33:57Z</time>
      </trkpt>
      <trkpt lat="42.20827" lon="0.85931">
        <ele>845.4</ele>
        <time>2023-07-23T07:33:58Z</time>
      </trkpt>
      <trkpt lat="42.2083" lon="0.85929">
        <ele>845.6</ele>
        <time>2023-07-23T07:33:59Z</time>
      </trkpt>
      <trkpt lat="42.20831" lon="0.85926">
        <ele>845.8</ele>
        <time>2023-07-23T07:34:00Z</time>
      </trkpt>
      <trkpt lat="42.20833" lon="0.85924">
        <ele>845.8</ele>
        <time>2023-07-23T07:34:01Z</time>
      </trkpt>
      <trkpt lat="42.20835" lon="0.85922">
        <ele>846</ele>
        <time>2023-07-23T07:34:02Z</time>
      </trkpt>
      <trkpt lat="42.20837" lon="0.85919">
        <ele>846.2</ele>
        <time>2023-07-23T07:34:03Z</time>
      </trkpt>
      <trkpt lat="42.20839" lon="0.85916">
        <ele>846.6</ele>
        <time>2023-07-23T07:34:04Z</time>
      </trkpt>
      <trkpt lat="42.2084" lon="0.85914">
        <ele>846.8</ele>
        <time>2023-07-23T07:34:05Z</time>
      </trkpt>
      <trkpt lat="42.20842" lon="0.85911">
        <ele>847</ele>
        <time>2023-07-23T07:34:06Z</time>
      </trkpt>
      <trkpt lat="42.20844" lon="0.85908">
        <ele>847.4</ele>
        <time>2023-07-23T07:34:07Z</time>
      </trkpt>
      <trkpt lat="42.20845" lon="0.85906">
        <ele>847.6</ele>
        <time>2023-07-23T07:34:08Z</time>
      </trkpt>
      <trkpt lat="42.20847" lon="0.85903">
        <ele>847.6</ele>
        <time>2023-07-23T07:34:09Z</time>
      </trkpt>
      <trkpt lat="42.20848" lon="0.859">
        <ele>847.8</ele>
        <time>2023-07-23T07:34:10Z</time>
      </trkpt>
      <trkpt lat="42.2085" lon="0.85898">
        <ele>847.8</ele>
        <time>2023-07-23T07:34:11Z</time>
      </trkpt>
      <trkpt lat="42.20851" lon="0.85895">
        <ele>848</ele>
        <time>2023-07-23T07:34:12Z</time>
      </trkpt>
      <trkpt lat="42.20853" lon="0.85892">
        <ele>848</ele>
        <time>2023-07-23T07:34:13Z</time>
      </trkpt>
      <trkpt lat="42.20854" lon="0.85889">
        <ele>848.4</ele>
        <time>2023-07-23T07:34:14Z</time>
      </trkpt>
      <trkpt lat="42.20856" lon="0.85886">
        <ele>848.4</ele>
        <time>2023-07-23T07:34:15Z</time>
      </trkpt>
      <trkpt lat="42.20857" lon="0.85883">
        <ele>848.8</ele>
        <time>2023-07-23T07:34:16Z</time>
      </trkpt>
      <trkpt lat="42.20858" lon="0.8588">
        <ele>848.8</ele>
        <time>2023-07-23T07:34:17Z</time>
      </trkpt>
      <trkpt lat="42.2086" lon="0.85877">
        <ele>849.2</ele>
        <time>2023-07-23T07:34:18Z</time>
      </trkpt>
      <trkpt lat="42.20861" lon="0.85874">
        <ele>849.6</ele>
        <time>2023-07-23T07:34:19Z</time>
      </trkpt>
      <trkpt lat="42.20862" lon="0.85871">
        <ele>849.6</ele>
        <time>2023-07-23T07:34:20Z</time>
      </trkpt>
      <trkpt lat="42.20863" lon="0.85868">
        <ele>849.8</ele>
        <time>2023-07-23T07:34:21Z</time>
      </trkpt>
      <trkpt lat="42.20864" lon="0.85865">
        <ele>849.8</ele>
        <time>2023-07-23T07:34:22Z</time>
      </trkpt>
      <trkpt lat="42.20865" lon="0.85861">
        <ele>850.2</ele>
        <time>2023-07-23T07:34:23Z</time>
      </trkpt>
      <trkpt lat="42.20866" lon="0.85858">
        <ele>850.6</ele>
        <time>2023-07-23T07:34:24Z</time>
      </trkpt>
      <trkpt lat="42.20867" lon="0.85855">
        <ele>850.8</ele>
        <time>2023-07-23T07:34:25Z</time>
      </trkpt>
      <trkpt lat="42.20867" lon="0.85852">
        <ele>851</ele>
        <time>2023-07-23T07:34:26Z</time>
      </trkpt>
      <trkpt lat="42.20868" lon="0.85849">
        <ele>851.2</ele>
        <time>2023-07-23T07:34:27Z</time>
      </trkpt>
      <trkpt lat="42.20869" lon="0.85846">
        <ele>851.6</ele>
        <time>2023-07-23T07:34:28Z</time>
      </trkpt>
      <trkpt lat="42.2087" lon="0.85843">
        <ele>851.8</ele>
        <time>2023-07-23T07:34:29Z</time>
      </trkpt>
      <trkpt lat="42.20871" lon="0.85839">
        <ele>852.2</ele>
        <time>2023-07-23T07:34:30Z</time>
      </trkpt>
      <trkpt lat="42.20871" lon="0.85836">
        <ele>852.4</ele>
        <time>2023-07-23T07:34:31Z</time>
      </trkpt>
      <trkpt lat="42.20872" lon="0.85833">
        <ele>852.6</ele>
        <time>2023-07-23T07:34:32Z</time>
      </trkpt>
      <trkpt lat="42.20873" lon="0.8583">
        <ele>852.8</ele>
        <time>2023-07-23T07:34:33Z</time>
      </trkpt>
      <trkpt lat="42.20873" lon="0.85826">
        <ele>853</ele>
        <time>2023-07-23T07:34:34Z</time>
      </trkpt>
      <trkpt lat="42.20874" lon="0.85823">
        <ele>853.2</ele>
        <time>2023-07-23T07:34:35Z</time>
      </trkpt>
      <trkpt lat="42.20875" lon="0.8582">
        <ele>853.2</ele>
        <time>2023-07-23T07:34:36Z</time>
      </trkpt>
      <trkpt lat="42.20875" lon="0.85817">
        <ele>853.6</ele>
        <time>2023-07-23T07:34:37Z</time>
      </trkpt>
      <trkpt lat="42.20876" lon="0.85813">
        <ele>853.8</ele>
        <time>2023-07-23T07:34:38Z</time>
      </trkpt>
      <trkpt lat="42.20877" lon="0.8581">
        <ele>854</ele>
        <time>2023-07-23T07:34:39Z</time>
      </trkpt>
      <trkpt lat="42.20878" lon="0.85807">
        <ele>854.4</ele>
        <time>2023-07-23T07:34:40Z</time>
      </trkpt>
      <trkpt lat="42.20879" lon="0.85804">
        <ele>854.2</ele>
        <time>2023-07-23T07:34:41Z</time>
      </trkpt>
      <trkpt lat="42.20881" lon="0.85801">
        <ele>854.4</ele>
        <time>2023-07-23T07:34:42Z</time>
      </trkpt>
      <trkpt lat="42.20882" lon="0.85798">
        <ele>854.8</ele>
        <time>2023-07-23T07:34:43Z</time>
      </trkpt>
      <trkpt lat="42.20883" lon="0.85794">
        <ele>854.8</ele>
        <time>2023-07-23T07:34:44Z</time>
      </trkpt>
      <trkpt lat="42.20885" lon="0.85791">
        <ele>855</ele>
        <time>2023-07-23T07:34:45Z</time>
      </trkpt>
      <trkpt lat="42.20886" lon="0.85788">
        <ele>855</ele>
        <time>2023-07-23T07:34:46Z</time>
      </trkpt>
      <trkpt lat="42.20888" lon="0.85785">
        <ele>855.2</ele>
        <time>2023-07-23T07:34:47Z</time>
      </trkpt>
      <trkpt lat="42.20889" lon="0.85782">
        <ele>855.2</ele>
        <time>2023-07-23T07:34:48Z</time>
      </trkpt>
      <trkpt lat="42.20891" lon="0.85779">
        <ele>855.6</ele>
        <time>2023-07-23T07:34:49Z</time>
      </trkpt>
      <trkpt lat="42.20893" lon="0.85776">
        <ele>855.8</ele>
        <time>2023-07-23T07:34:50Z</time>
      </trkpt>
      <trkpt lat="42.20894" lon="0.85773">
        <ele>856</ele>
        <time>2023-07-23T07:34:51Z</time>
      </trkpt>
      <trkpt lat="42.20896" lon="0.8577">
        <ele>856.4</ele>
        <time>2023-07-23T07:34:52Z</time>
      </trkpt>
      <trkpt lat="42.20898" lon="0.85767">
        <ele>856.4</ele>
        <time>2023-07-23T07:34:53Z</time>
      </trkpt>
      <trkpt lat="42.209" lon="0.85764">
        <ele>856.6</ele>
        <time>2023-07-23T07:34:54Z</time>
      </trkpt>
      <trkpt lat="42.20901" lon="0.85761">
        <ele>856.6</ele>
        <time>2023-07-23T07:34:55Z</time>
      </trkpt>
      <trkpt lat="42.20903" lon="0.85758">
        <ele>856.8</ele>
        <time>2023-07-23T07:34:56Z</time>
      </trkpt>
      <trkpt lat="42.20905" lon="0.85756">
        <ele>857.6</ele>
        <time>2023-07-23T07:34:57Z</time>
      </trkpt>
      <trkpt lat="42.20907" lon="0.85753">
        <ele>857.8</ele>
        <time>2023-07-23T07:34:58Z</time>
      </trkpt>
      <trkpt lat="42.20909" lon="0.8575">
        <ele>858</ele>
        <time>2023-07-23T07:34:59Z</time>
      </trkpt>
      <trkpt lat="42.20911" lon="0.85747">
        <ele>858.2</ele>
        <time>2023-07-23T07:35:00Z</time>
      </trkpt>
      <trkpt lat="42.20913" lon="0.85744">
        <ele>858.2</ele>
        <time>2023-07-23T07:35:01Z</time>
      </trkpt>
      <trkpt lat="42.20914" lon="0.85741">
        <ele>858.6</ele>
        <time>2023-07-23T07:35:02Z</time>
      </trkpt>
      <trkpt lat="42.20916" lon="0.85738">
        <ele>859</ele>
        <time>2023-07-23T07:35:03Z</time>
      </trkpt>
      <trkpt lat="42.20918" lon="0.85735">
        <ele>859.2</ele>
        <time>2023-07-23T07:35:04Z</time>
      </trkpt>
      <trkpt lat="42.2092" lon="0.85732">
        <ele>859.4</ele>
        <time>2023-07-23T07:35:05Z</time>
      </trkpt>
      <trkpt lat="42.20921" lon="0.85729">
        <ele>859.8</ele>
        <time>2023-07-23T07:35:06Z</time>
      </trkpt>
      <trkpt lat="42.20922" lon="0.85726">
        <ele>859.8</ele>
        <time>2023-07-23T07:35:07Z</time>
      </trkpt>
      <trkpt lat="42.20924" lon="0.85723">
        <ele>860.2</ele>
        <time>2023-07-23T07:35:08Z</time>
      </trkpt>
      <trkpt lat="42.20926" lon="0.85721">
        <ele>860.4</ele>
        <time>2023-07-23T07:35:09Z</time>
      </trkpt>
      <trkpt lat="42.20927" lon="0.85718">
        <ele>860.4</ele>
        <time>2023-07-23T07:35:10Z</time>
      </trkpt>
      <trkpt lat="42.20929" lon="0.85715">
        <ele>860.6</ele>
        <time>2023-07-23T07:35:11Z</time>
      </trkpt>
      <trkpt lat="42.2093" lon="0.85712">
        <ele>860.8</ele>
        <time>2023-07-23T07:35:12Z</time>
      </trkpt>
      <trkpt lat="42.20931" lon="0.85709">
        <ele>861</ele>
        <time>2023-07-23T07:35:13Z</time>
      </trkpt>
      <trkpt lat="42.20933" lon="0.85707">
        <ele>861.2</ele>
        <time>2023-07-23T07:35:14Z</time>
      </trkpt>
      <trkpt lat="42.20934" lon="0.85704">
        <ele>861.4</ele>
        <time>2023-07-23T07:35:15Z</time>
      </trkpt>
      <trkpt lat="42.20936" lon="0.85701">
        <ele>861.4</ele>
        <time>2023-07-23T07:35:16Z</time>
      </trkpt>
      <trkpt lat="42.20938" lon="0.85698">
        <ele>861.6</ele>
        <time>2023-07-23T07:35:17Z</time>
      </trkpt>
      <trkpt lat="42.20939" lon="0.85696">
        <ele>862</ele>
        <time>2023-07-23T07:35:18Z</time>
      </trkpt>
      <trkpt lat="42.20941" lon="0.85693">
        <ele>862.4</ele>
        <time>2023-07-23T07:35:19Z</time>
      </trkpt>
      <trkpt lat="42.20943" lon="0.8569">
        <ele>862.6</ele>
        <time>2023-07-23T07:35:20Z</time>
      </trkpt>
      <trkpt lat="42.20944" lon="0.85688">
        <ele>863</ele>
        <time>2023-07-23T07:35:21Z</time>
      </trkpt>
      <trkpt lat="42.20946" lon="0.85685">
        <ele>863</ele>
        <time>2023-07-23T07:35:22Z</time>
      </trkpt>
      <trkpt lat="42.20948" lon="0.85682">
        <ele>863.2</ele>
        <time>2023-07-23T07:35:23Z</time>
      </trkpt>
      <trkpt lat="42.2095" lon="0.8568">
        <ele>863.4</ele>
        <time>2023-07-23T07:35:24Z</time>
      </trkpt>
      <trkpt lat="42.20952" lon="0.85677">
        <ele>863.6</ele>
        <time>2023-07-23T07:35:25Z</time>
      </trkpt>
      <trkpt lat="42.20953" lon="0.85675">
        <ele>863.8</ele>
        <time>2023-07-23T07:35:26Z</time>
      </trkpt>
      <trkpt lat="42.20955" lon="0.85672">
        <ele>863.8</ele>
        <time>2023-07-23T07:35:27Z</time>
      </trkpt>
      <trkpt lat="42.20957" lon="0.85669">
        <ele>864</ele>
        <time>2023-07-23T07:35:28Z</time>
      </trkpt>
      <trkpt lat="42.20959" lon="0.85667">
        <ele>864.2</ele>
        <time>2023-07-23T07:35:29Z</time>
      </trkpt>
      <trkpt lat="42.20961" lon="0.85665">
        <ele>864.4</ele>
        <time>2023-07-23T07:35:30Z</time>
      </trkpt>
      <trkpt lat="42.20963" lon="0.85662">
        <ele>864.6</ele>
        <time>2023-07-23T07:35:31Z</time>
      </trkpt>
      <trkpt lat="42.20965" lon="0.85659">
        <ele>865</ele>
        <time>2023-07-23T07:35:32Z</time>
      </trkpt>
      <trkpt lat="42.20967" lon="0.85657">
        <ele>865.2</ele>
        <time>2023-07-23T07:35:33Z</time>
      </trkpt>
      <trkpt lat="42.20969" lon="0.85654">
        <ele>865.2</ele>
        <time>2023-07-23T07:35:34Z</time>
      </trkpt>
      <trkpt lat="42.20971" lon="0.85652">
        <ele>865.6</ele>
        <time>2023-07-23T07:35:35Z</time>
      </trkpt>
      <trkpt lat="42.20973" lon="0.8565">
        <ele>865.6</ele>
        <time>2023-07-23T07:35:36Z</time>
      </trkpt>
      <trkpt lat="42.20975" lon="0.85647">
        <ele>866</ele>
        <time>2023-07-23T07:35:37Z</time>
      </trkpt>
      <trkpt lat="42.20977" lon="0.85645">
        <ele>866</ele>
        <time>2023-07-23T07:35:38Z</time>
      </trkpt>
      <trkpt lat="42.20979" lon="0.85643">
        <ele>866.2</ele>
        <time>2023-07-23T07:35:39Z</time>
      </trkpt>
      <trkpt lat="42.20981" lon="0.8564">
        <ele>866.6</ele>
        <time>2023-07-23T07:35:40Z</time>
      </trkpt>
      <trkpt lat="42.20983" lon="0.85638">
        <ele>866.6</ele>
        <time>2023-07-23T07:35:41Z</time>
      </trkpt>
      <trkpt lat="42.20985" lon="0.85636">
        <ele>866.8</ele>
        <time>2023-07-23T07:35:42Z</time>
      </trkpt>
      <trkpt lat="42.20988" lon="0.85633">
        <ele>867</ele>
        <time>2023-07-23T07:35:43Z</time>
      </trkpt>
      <trkpt lat="42.2099" lon="0.85631">
        <ele>867.2</ele>
        <time>2023-07-23T07:35:44Z</time>
      </trkpt>
      <trkpt lat="42.20992" lon="0.85628">
        <ele>867.6</ele>
        <time>2023-07-23T07:35:45Z</time>
      </trkpt>
      <trkpt lat="42.20994" lon="0.85626">
        <ele>867.8</ele>
        <time>2023-07-23T07:35:46Z</time>
      </trkpt>
      <trkpt lat="42.20996" lon="0.85623">
        <ele>867.8</ele>
        <time>2023-07-23T07:35:47Z</time>
      </trkpt>
      <trkpt lat="42.20998" lon="0.85621">
        <ele>868</ele>
        <time>2023-07-23T07:35:48Z</time>
      </trkpt>
      <trkpt lat="42.21" lon="0.85618">
        <ele>868</ele>
        <time>2023-07-23T07:35:49Z</time>
      </trkpt>
      <trkpt lat="42.21002" lon="0.85615">
        <ele>868.2</ele>
        <time>2023-07-23T07:35:50Z</time>
      </trkpt>
      <trkpt lat="42.21004" lon="0.85613">
        <ele>868.6</ele>
        <time>2023-07-23T07:35:51Z</time>
      </trkpt>
      <trkpt lat="42.21007" lon="0.8561">
        <ele>868.8</ele>
        <time>2023-07-23T07:35:52Z</time>
      </trkpt>
      <trkpt lat="42.21009" lon="0.85608">
        <ele>869</ele>
        <time>2023-07-23T07:35:53Z</time>
      </trkpt>
      <trkpt lat="42.21011" lon="0.85605">
        <ele>869.4</ele>
        <time>2023-07-23T07:35:54Z</time>
      </trkpt>
      <trkpt lat="42.21013" lon="0.85602">
        <ele>869.6</ele>
        <time>2023-07-23T07:35:55Z</time>
      </trkpt>
      <trkpt lat="42.21015" lon="0.85599">
        <ele>869.8</ele>
        <time>2023-07-23T07:35:56Z</time>
      </trkpt>
      <trkpt lat="42.21017" lon="0.85596">
        <ele>869.8</ele>
        <time>2023-07-23T07:35:57Z</time>
      </trkpt>
      <trkpt lat="42.2102" lon="0.85593">
        <ele>869.8</ele>
        <time>2023-07-23T07:35:58Z</time>
      </trkpt>
      <trkpt lat="42.21022" lon="0.8559">
        <ele>870</ele>
        <time>2023-07-23T07:35:59Z</time>
      </trkpt>
      <trkpt lat="42.21024" lon="0.85588">
        <ele>870</ele>
        <time>2023-07-23T07:36:00Z</time>
      </trkpt>
      <trkpt lat="42.21026" lon="0.85585">
        <ele>870</ele>
        <time>2023-07-23T07:36:01Z</time>
      </trkpt>
      <trkpt lat="42.21028" lon="0.85582">
        <ele>870.2</ele>
        <time>2023-07-23T07:36:02Z</time>
      </trkpt>
      <trkpt lat="42.2103" lon="0.85579">
        <ele>870.4</ele>
        <time>2023-07-23T07:36:03Z</time>
      </trkpt>
      <trkpt lat="42.21032" lon="0.85577">
        <ele>870.6</ele>
        <time>2023-07-23T07:36:04Z</time>
      </trkpt>
      <trkpt lat="42.21034" lon="0.85574">
        <ele>870.8</ele>
        <time>2023-07-23T07:36:05Z</time>
      </trkpt>
      <trkpt lat="42.21037" lon="0.85572">
        <ele>870.8</ele>
        <time>2023-07-23T07:36:06Z</time>
      </trkpt>
      <trkpt lat="42.21038" lon="0.8557">
        <ele>871</ele>
        <time>2023-07-23T07:36:07Z</time>
      </trkpt>
      <trkpt lat="42.2104" lon="0.85567">
        <ele>871.4</ele>
        <time>2023-07-23T07:36:08Z</time>
      </trkpt>
      <trkpt lat="42.21042" lon="0.85565">
        <ele>871.4</ele>
        <time>2023-07-23T07:36:09Z</time>
      </trkpt>
      <trkpt lat="42.21044" lon="0.85562">
        <ele>871.6</ele>
        <time>2023-07-23T07:36:10Z</time>
      </trkpt>
      <trkpt lat="42.21046" lon="0.85559">
        <ele>871.8</ele>
        <time>2023-07-23T07:36:11Z</time>
      </trkpt>
      <trkpt lat="42.21048" lon="0.85556">
        <ele>871.8</ele>
        <time>2023-07-23T07:36:12Z</time>
      </trkpt>
      <trkpt lat="42.2105" lon="0.85554">
        <ele>872</ele>
        <time>2023-07-23T07:36:13Z</time>
      </trkpt>
      <trkpt lat="42.21052" lon="0.85551">
        <ele>872</ele>
        <time>2023-07-23T07:36:14Z</time>
      </trkpt>
      <trkpt lat="42.21055" lon="0.85548">
        <ele>872.2</ele>
        <time>2023-07-23T07:36:15Z</time>
      </trkpt>
      <trkpt lat="42.21057" lon="0.85545">
        <ele>872.4</ele>
        <time>2023-07-23T07:36:16Z</time>
      </trkpt>
      <trkpt lat="42.21059" lon="0.85541">
        <ele>872.2</ele>
        <time>2023-07-23T07:36:17Z</time>
      </trkpt>
      <trkpt lat="42.2106" lon="0.85538">
        <ele>872.4</ele>
        <time>2023-07-23T07:36:18Z</time>
      </trkpt>
      <trkpt lat="42.21062" lon="0.85535">
        <ele>872.6</ele>
        <time>2023-07-23T07:36:19Z</time>
      </trkpt>
      <trkpt lat="42.21064" lon="0.85531">
        <ele>872.8</ele>
        <time>2023-07-23T07:36:20Z</time>
      </trkpt>
      <trkpt lat="42.21066" lon="0.85528">
        <ele>872.8</ele>
        <time>2023-07-23T07:36:21Z</time>
      </trkpt>
      <trkpt lat="42.21068" lon="0.85525">
        <ele>872.8</ele>
        <time>2023-07-23T07:36:22Z</time>
      </trkpt>
      <trkpt lat="42.21069" lon="0.85521">
        <ele>873</ele>
        <time>2023-07-23T07:36:23Z</time>
      </trkpt>
      <trkpt lat="42.21071" lon="0.85518">
        <ele>873</ele>
        <time>2023-07-23T07:36:24Z</time>
      </trkpt>
      <trkpt lat="42.21073" lon="0.85515">
        <ele>873.2</ele>
        <time>2023-07-23T07:36:25Z</time>
      </trkpt>
      <trkpt lat="42.21074" lon="0.85511">
        <ele>873.4</ele>
        <time>2023-07-23T07:36:26Z</time>
      </trkpt>
      <trkpt lat="42.21075" lon="0.85507">
        <ele>873.6</ele>
        <time>2023-07-23T07:36:27Z</time>
      </trkpt>
      <trkpt lat="42.21077" lon="0.85503">
        <ele>873.6</ele>
        <time>2023-07-23T07:36:28Z</time>
      </trkpt>
      <trkpt lat="42.21078" lon="0.855">
        <ele>873.8</ele>
        <time>2023-07-23T07:36:29Z</time>
      </trkpt>
      <trkpt lat="42.21079" lon="0.85497">
        <ele>874</ele>
        <time>2023-07-23T07:36:30Z</time>
      </trkpt>
      <trkpt lat="42.2108" lon="0.85493">
        <ele>874</ele>
        <time>2023-07-23T07:36:31Z</time>
      </trkpt>
      <trkpt lat="42.2108" lon="0.85489">
        <ele>874.4</ele>
        <time>2023-07-23T07:36:32Z</time>
      </trkpt>
      <trkpt lat="42.21081" lon="0.85486">
        <ele>874.6</ele>
        <time>2023-07-23T07:36:33Z</time>
      </trkpt>
      <trkpt lat="42.21082" lon="0.85482">
        <ele>875</ele>
        <time>2023-07-23T07:36:34Z</time>
      </trkpt>
      <trkpt lat="42.21082" lon="0.85478">
        <ele>875.2</ele>
        <time>2023-07-23T07:36:35Z</time>
      </trkpt>
      <trkpt lat="42.21083" lon="0.85475">
        <ele>875.4</ele>
        <time>2023-07-23T07:36:36Z</time>
      </trkpt>
      <trkpt lat="42.21083" lon="0.85471">
        <ele>875.8</ele>
        <time>2023-07-23T07:36:37Z</time>
      </trkpt>
      <trkpt lat="42.21083" lon="0.85467">
        <ele>876</ele>
        <time>2023-07-23T07:36:38Z</time>
      </trkpt>
      <trkpt lat="42.21083" lon="0.85464">
        <ele>876.2</ele>
        <time>2023-07-23T07:36:39Z</time>
      </trkpt>
      <trkpt lat="42.21084" lon="0.8546">
        <ele>876.4</ele>
        <time>2023-07-23T07:36:40Z</time>
      </trkpt>
      <trkpt lat="42.21084" lon="0.85457">
        <ele>876.8</ele>
        <time>2023-07-23T07:36:41Z</time>
      </trkpt>
      <trkpt lat="42.21084" lon="0.85453">
        <ele>877</ele>
        <time>2023-07-23T07:36:42Z</time>
      </trkpt>
      <trkpt lat="42.21084" lon="0.85449">
        <ele>877.2</ele>
        <time>2023-07-23T07:36:43Z</time>
      </trkpt>
      <trkpt lat="42.21085" lon="0.85446">
        <ele>877.4</ele>
        <time>2023-07-23T07:36:44Z</time>
      </trkpt>
      <trkpt lat="42.21085" lon="0.85443">
        <ele>877.6</ele>
        <time>2023-07-23T07:36:45Z</time>
      </trkpt>
      <trkpt lat="42.21086" lon="0.85439">
        <ele>877.8</ele>
        <time>2023-07-23T07:36:46Z</time>
      </trkpt>
      <trkpt lat="42.21086" lon="0.85436">
        <ele>878</ele>
        <time>2023-07-23T07:36:47Z</time>
      </trkpt>
      <trkpt lat="42.21087" lon="0.85433">
        <ele>878.2</ele>
        <time>2023-07-23T07:36:48Z</time>
      </trkpt>
      <trkpt lat="42.21088" lon="0.8543">
        <ele>878.8</ele>
        <time>2023-07-23T07:36:49Z</time>
      </trkpt>
      <trkpt lat="42.21088" lon="0.85427">
        <ele>878.8</ele>
        <time>2023-07-23T07:36:50Z</time>
      </trkpt>
      <trkpt lat="42.21089" lon="0.85424">
        <ele>879.2</ele>
        <time>2023-07-23T07:36:51Z</time>
      </trkpt>
      <trkpt lat="42.2109" lon="0.85421">
        <ele>879.4</ele>
        <time>2023-07-23T07:36:52Z</time>
      </trkpt>
      <trkpt lat="42.21091" lon="0.85418">
        <ele>879.8</ele>
        <time>2023-07-23T07:36:53Z</time>
      </trkpt>
      <trkpt lat="42.21092" lon="0.85415">
        <ele>880.2</ele>
        <time>2023-07-23T07:36:54Z</time>
      </trkpt>
      <trkpt lat="42.21094" lon="0.85412">
        <ele>880.6</ele>
        <time>2023-07-23T07:36:55Z</time>
      </trkpt>
      <trkpt lat="42.21095" lon="0.85409">
        <ele>881</ele>
        <time>2023-07-23T07:36:56Z</time>
      </trkpt>
      <trkpt lat="42.21096" lon="0.85406">
        <ele>881.2</ele>
        <time>2023-07-23T07:36:57Z</time>
      </trkpt>
      <trkpt lat="42.21097" lon="0.85403">
        <ele>881.4</ele>
        <time>2023-07-23T07:36:58Z</time>
      </trkpt>
      <trkpt lat="42.21098" lon="0.854">
        <ele>881.6</ele>
        <time>2023-07-23T07:36:59Z</time>
      </trkpt>
      <trkpt lat="42.211" lon="0.85397">
        <ele>881.8</ele>
        <time>2023-07-23T07:37:00Z</time>
      </trkpt>
      <trkpt lat="42.21101" lon="0.85394">
        <ele>882</ele>
        <time>2023-07-23T07:37:01Z</time>
      </trkpt>
      <trkpt lat="42.21102" lon="0.85391">
        <ele>882.4</ele>
        <time>2023-07-23T07:37:02Z</time>
      </trkpt>
      <trkpt lat="42.21103" lon="0.85388">
        <ele>882.8</ele>
        <time>2023-07-23T07:37:03Z</time>
      </trkpt>
      <trkpt lat="42.21104" lon="0.85386">
        <ele>883</ele>
        <time>2023-07-23T07:37:04Z</time>
      </trkpt>
      <trkpt lat="42.21105" lon="0.85383">
        <ele>883.2</ele>
        <time>2023-07-23T07:37:05Z</time>
      </trkpt>
      <trkpt lat="42.21107" lon="0.8538">
        <ele>883.4</ele>
        <time>2023-07-23T07:37:06Z</time>
      </trkpt>
      <trkpt lat="42.21108" lon="0.85378">
        <ele>883.6</ele>
        <time>2023-07-23T07:37:07Z</time>
      </trkpt>
      <trkpt lat="42.21109" lon="0.85374">
        <ele>884</ele>
        <time>2023-07-23T07:37:08Z</time>
      </trkpt>
      <trkpt lat="42.2111" lon="0.85371">
        <ele>884.2</ele>
        <time>2023-07-23T07:37:09Z</time>
      </trkpt>
      <trkpt lat="42.21111" lon="0.85368">
        <ele>884.4</ele>
        <time>2023-07-23T07:37:10Z</time>
      </trkpt>
      <trkpt lat="42.21112" lon="0.85365">
        <ele>884.6</ele>
        <time>2023-07-23T07:37:11Z</time>
      </trkpt>
      <trkpt lat="42.21114" lon="0.85362">
        <ele>884.8</ele>
        <time>2023-07-23T07:37:12Z</time>
      </trkpt>
      <trkpt lat="42.21115" lon="0.85359">
        <ele>885</ele>
        <time>2023-07-23T07:37:13Z</time>
      </trkpt>
      <trkpt lat="42.21116" lon="0.85356">
        <ele>885.2</ele>
        <time>2023-07-23T07:37:14Z</time>
      </trkpt>
      <trkpt lat="42.21117" lon="0.85352">
        <ele>885.6</ele>
        <time>2023-07-23T07:37:15Z</time>
      </trkpt>
      <trkpt lat="42.21118" lon="0.85349">
        <ele>885.8</ele>
        <time>2023-07-23T07:37:16Z</time>
      </trkpt>
      <trkpt lat="42.21119" lon="0.85346">
        <ele>886</ele>
        <time>2023-07-23T07:37:17Z</time>
      </trkpt>
      <trkpt lat="42.2112" lon="0.85343">
        <ele>886.4</ele>
        <time>2023-07-23T07:37:18Z</time>
      </trkpt>
      <trkpt lat="42.21122" lon="0.8534">
        <ele>886.6</ele>
        <time>2023-07-23T07:37:19Z</time>
      </trkpt>
      <trkpt lat="42.21123" lon="0.85337">
        <ele>887</ele>
        <time>2023-07-23T07:37:20Z</time>
      </trkpt>
      <trkpt lat="42.21124" lon="0.85334">
        <ele>887.2</ele>
        <time>2023-07-23T07:37:21Z</time>
      </trkpt>
      <trkpt lat="42.21125" lon="0.8533">
        <ele>887.6</ele>
        <time>2023-07-23T07:37:22Z</time>
      </trkpt>
      <trkpt lat="42.21127" lon="0.85327">
        <ele>887.8</ele>
        <time>2023-07-23T07:37:23Z</time>
      </trkpt>
      <trkpt lat="42.21128" lon="0.85324">
        <ele>887.8</ele>
        <time>2023-07-23T07:37:24Z</time>
      </trkpt>
      <trkpt lat="42.21129" lon="0.85321">
        <ele>888.2</ele>
        <time>2023-07-23T07:37:25Z</time>
      </trkpt>
      <trkpt lat="42.2113" lon="0.85318">
        <ele>888.4</ele>
        <time>2023-07-23T07:37:26Z</time>
      </trkpt>
      <trkpt lat="42.21132" lon="0.85315">
        <ele>888.6</ele>
        <time>2023-07-23T07:37:27Z</time>
      </trkpt>
      <trkpt lat="42.21133" lon="0.85312">
        <ele>888.6</ele>
        <time>2023-07-23T07:37:28Z</time>
      </trkpt>
      <trkpt lat="42.21134" lon="0.85309">
        <ele>888.8</ele>
        <time>2023-07-23T07:37:29Z</time>
      </trkpt>
      <trkpt lat="42.21136" lon="0.85305">
        <ele>889</ele>
        <time>2023-07-23T07:37:30Z</time>
      </trkpt>
      <trkpt lat="42.21137" lon="0.85303">
        <ele>889.2</ele>
        <time>2023-07-23T07:37:31Z</time>
      </trkpt>
      <trkpt lat="42.21139" lon="0.853">
        <ele>889.4</ele>
        <time>2023-07-23T07:37:32Z</time>
      </trkpt>
      <trkpt lat="42.21141" lon="0.85297">
        <ele>889.4</ele>
        <time>2023-07-23T07:37:33Z</time>
      </trkpt>
      <trkpt lat="42.21142" lon="0.85295">
        <ele>889.6</ele>
        <time>2023-07-23T07:37:34Z</time>
      </trkpt>
      <trkpt lat="42.21143" lon="0.85292">
        <ele>889.6</ele>
        <time>2023-07-23T07:37:35Z</time>
      </trkpt>
      <trkpt lat="42.21145" lon="0.85289">
        <ele>889.8</ele>
        <time>2023-07-23T07:37:36Z</time>
      </trkpt>
      <trkpt lat="42.21146" lon="0.85286">
        <ele>890</ele>
        <time>2023-07-23T07:37:37Z</time>
      </trkpt>
      <trkpt lat="42.21148" lon="0.85284">
        <ele>890</ele>
        <time>2023-07-23T07:37:38Z</time>
      </trkpt>
      <trkpt lat="42.2115" lon="0.85282">
        <ele>890.2</ele>
        <time>2023-07-23T07:37:39Z</time>
      </trkpt>
      <trkpt lat="42.21151" lon="0.85279">
        <ele>890.2</ele>
        <time>2023-07-23T07:37:40Z</time>
      </trkpt>
      <trkpt lat="42.21153" lon="0.85276">
        <ele>890.6</ele>
        <time>2023-07-23T07:37:41Z</time>
      </trkpt>
      <trkpt lat="42.21154" lon="0.85273">
        <ele>890.8</ele>
        <time>2023-07-23T07:37:42Z</time>
      </trkpt>
      <trkpt lat="42.21155" lon="0.85271">
        <ele>891</ele>
        <time>2023-07-23T07:37:43Z</time>
      </trkpt>
      <trkpt lat="42.21157" lon="0.85268">
        <ele>891.6</ele>
        <time>2023-07-23T07:37:44Z</time>
      </trkpt>
      <trkpt lat="42.21159" lon="0.85265">
        <ele>891.6</ele>
        <time>2023-07-23T07:37:45Z</time>
      </trkpt>
      <trkpt lat="42.2116" lon="0.85262">
        <ele>892</ele>
        <time>2023-07-23T07:37:46Z</time>
      </trkpt>
      <trkpt lat="42.21161" lon="0.85259">
        <ele>892.2</ele>
        <time>2023-07-23T07:37:47Z</time>
      </trkpt>
      <trkpt lat="42.21163" lon="0.85256">
        <ele>892.4</ele>
        <time>2023-07-23T07:37:48Z</time>
      </trkpt>
      <trkpt lat="42.21164" lon="0.85253">
        <ele>892.4</ele>
        <time>2023-07-23T07:37:49Z</time>
      </trkpt>
      <trkpt lat="42.21165" lon="0.8525">
        <ele>892.6</ele>
        <time>2023-07-23T07:37:50Z</time>
      </trkpt>
      <trkpt lat="42.21166" lon="0.85247">
        <ele>893</ele>
        <time>2023-07-23T07:37:51Z</time>
      </trkpt>
      <trkpt lat="42.21168" lon="0.85244">
        <ele>893.2</ele>
        <time>2023-07-23T07:37:52Z</time>
      </trkpt>
      <trkpt lat="42.21169" lon="0.85241">
        <ele>893.6</ele>
        <time>2023-07-23T07:37:53Z</time>
      </trkpt>
      <trkpt lat="42.2117" lon="0.85237">
        <ele>893.6</ele>
        <time>2023-07-23T07:37:54Z</time>
      </trkpt>
      <trkpt lat="42.21171" lon="0.85234">
        <ele>893.8</ele>
        <time>2023-07-23T07:37:55Z</time>
      </trkpt>
      <trkpt lat="42.21172" lon="0.85231">
        <ele>894.2</ele>
        <time>2023-07-23T07:37:56Z</time>
      </trkpt>
      <trkpt lat="42.21173" lon="0.85227">
        <ele>894.2</ele>
        <time>2023-07-23T07:37:57Z</time>
      </trkpt>
      <trkpt lat="42.21174" lon="0.85224">
        <ele>894.4</ele>
        <time>2023-07-23T07:37:58Z</time>
      </trkpt>
      <trkpt lat="42.21175" lon="0.85221">
        <ele>894.6</ele>
        <time>2023-07-23T07:37:59Z</time>
      </trkpt>
      <trkpt lat="42.21176" lon="0.85218">
        <ele>895</ele>
        <time>2023-07-23T07:38:00Z</time>
      </trkpt>
      <trkpt lat="42.21176" lon="0.85214">
        <ele>895.2</ele>
        <time>2023-07-23T07:38:01Z</time>
      </trkpt>
      <trkpt lat="42.21177" lon="0.85211">
        <ele>895.4</ele>
        <time>2023-07-23T07:38:02Z</time>
      </trkpt>
      <trkpt lat="42.21177" lon="0.85208">
        <ele>895.6</ele>
        <time>2023-07-23T07:38:03Z</time>
      </trkpt>
      <trkpt lat="42.21177" lon="0.85204">
        <ele>895.8</ele>
        <time>2023-07-23T07:38:04Z</time>
      </trkpt>
      <trkpt lat="42.21177" lon="0.85201">
        <ele>895.8</ele>
        <time>2023-07-23T07:38:05Z</time>
      </trkpt>
      <trkpt lat="42.21178" lon="0.85198">
        <ele>896</ele>
        <time>2023-07-23T07:38:06Z</time>
      </trkpt>
      <trkpt lat="42.21178" lon="0.85195">
        <ele>896.2</ele>
        <time>2023-07-23T07:38:07Z</time>
      </trkpt>
      <trkpt lat="42.21178" lon="0.85192">
        <ele>896.4</ele>
        <time>2023-07-23T07:38:08Z</time>
      </trkpt>
      <trkpt lat="42.21178" lon="0.85189">
        <ele>896.6</ele>
        <time>2023-07-23T07:38:09Z</time>
      </trkpt>
      <trkpt lat="42.21178" lon="0.85185">
        <ele>896.8</ele>
        <time>2023-07-23T07:38:10Z</time>
      </trkpt>
      <trkpt lat="42.21178" lon="0.85182">
        <ele>896.8</ele>
        <time>2023-07-23T07:38:11Z</time>
      </trkpt>
      <trkpt lat="42.21178" lon="0.85178">
        <ele>897.2</ele>
        <time>2023-07-23T07:38:12Z</time>
      </trkpt>
      <trkpt lat="42.21179" lon="0.85175">
        <ele>897.6</ele>
        <time>2023-07-23T07:38:13Z</time>
      </trkpt>
      <trkpt lat="42.21179" lon="0.85172">
        <ele>897.8</ele>
        <time>2023-07-23T07:38:14Z</time>
      </trkpt>
      <trkpt lat="42.21179" lon="0.85169">
        <ele>898.2</ele>
        <time>2023-07-23T07:38:15Z</time>
      </trkpt>
      <trkpt lat="42.2118" lon="0.85166">
        <ele>898.2</ele>
        <time>2023-07-23T07:38:16Z</time>
      </trkpt>
      <trkpt lat="42.2118" lon="0.85163">
        <ele>898.4</ele>
        <time>2023-07-23T07:38:17Z</time>
      </trkpt>
      <trkpt lat="42.2118" lon="0.8516">
        <ele>898.4</ele>
        <time>2023-07-23T07:38:18Z</time>
      </trkpt>
      <trkpt lat="42.21181" lon="0.85157">
        <ele>899</ele>
        <time>2023-07-23T07:38:19Z</time>
      </trkpt>
      <trkpt lat="42.21181" lon="0.85154">
        <ele>899.2</ele>
        <time>2023-07-23T07:38:20Z</time>
      </trkpt>
      <trkpt lat="42.21181" lon="0.85151">
        <ele>899.4</ele>
        <time>2023-07-23T07:38:21Z</time>
      </trkpt>
      <trkpt lat="42.21182" lon="0.85148">
        <ele>899.6</ele>
        <time>2023-07-23T07:38:22Z</time>
      </trkpt>
      <trkpt lat="42.21182" lon="0.85145">
        <ele>900</ele>
        <time>2023-07-23T07:38:23Z</time>
      </trkpt>
      <trkpt lat="42.21183" lon="0.85142">
        <ele>900.2</ele>
        <time>2023-07-23T07:38:24Z</time>
      </trkpt>
      <trkpt lat="42.21183" lon="0.85139">
        <ele>900.4</ele>
        <time>2023-07-23T07:38:25Z</time>
      </trkpt>
      <trkpt lat="42.21184" lon="0.85136">
        <ele>900.4</ele>
        <time>2023-07-23T07:38:26Z</time>
      </trkpt>
      <trkpt lat="42.21184" lon="0.85133">
        <ele>901</ele>
        <time>2023-07-23T07:38:27Z</time>
      </trkpt>
      <trkpt lat="42.21185" lon="0.85129">
        <ele>901</ele>
        <time>2023-07-23T07:38:28Z</time>
      </trkpt>
      <trkpt lat="42.21186" lon="0.85126">
        <ele>901.4</ele>
        <time>2023-07-23T07:38:29Z</time>
      </trkpt>
      <trkpt lat="42.21187" lon="0.85122">
        <ele>901.4</ele>
        <time>2023-07-23T07:38:30Z</time>
      </trkpt>
      <trkpt lat="42.21188" lon="0.85118">
        <ele>901.6</ele>
        <time>2023-07-23T07:38:31Z</time>
      </trkpt>
      <trkpt lat="42.21189" lon="0.85115">
        <ele>901.8</ele>
        <time>2023-07-23T07:38:32Z</time>
      </trkpt>
      <trkpt lat="42.21189" lon="0.85111">
        <ele>902</ele>
        <time>2023-07-23T07:38:33Z</time>
      </trkpt>
      <trkpt lat="42.2119" lon="0.85108">
        <ele>902.4</ele>
        <time>2023-07-23T07:38:34Z</time>
      </trkpt>
      <trkpt lat="42.2119" lon="0.85104">
        <ele>902.8</ele>
        <time>2023-07-23T07:38:35Z</time>
      </trkpt>
      <trkpt lat="42.21191" lon="0.851">
        <ele>903.2</ele>
        <time>2023-07-23T07:38:36Z</time>
      </trkpt>
      <trkpt lat="42.21192" lon="0.85097">
        <ele>903.2</ele>
        <time>2023-07-23T07:38:37Z</time>
      </trkpt>
      <trkpt lat="42.21193" lon="0.85093">
        <ele>903.8</ele>
        <time>2023-07-23T07:38:38Z</time>
      </trkpt>
      <trkpt lat="42.21194" lon="0.85089">
        <ele>904.2</ele>
        <time>2023-07-23T07:38:39Z</time>
      </trkpt>
      <trkpt lat="42.21195" lon="0.85086">
        <ele>904.2</ele>
        <time>2023-07-23T07:38:40Z</time>
      </trkpt>
      <trkpt lat="42.21196" lon="0.85082">
        <ele>904.6</ele>
        <time>2023-07-23T07:38:41Z</time>
      </trkpt>
      <trkpt lat="42.21197" lon="0.85078">
        <ele>905</ele>
        <time>2023-07-23T07:38:42Z</time>
      </trkpt>
      <trkpt lat="42.21198" lon="0.85075">
        <ele>905.6</ele>
        <time>2023-07-23T07:38:43Z</time>
      </trkpt>
      <trkpt lat="42.21199" lon="0.85071">
        <ele>906</ele>
        <time>2023-07-23T07:38:44Z</time>
      </trkpt>
      <trkpt lat="42.212" lon="0.85067">
        <ele>906.2</ele>
        <time>2023-07-23T07:38:45Z</time>
      </trkpt>
      <trkpt lat="42.21201" lon="0.85064">
        <ele>906.6</ele>
        <time>2023-07-23T07:38:46Z</time>
      </trkpt>
      <trkpt lat="42.21202" lon="0.8506">
        <ele>906.8</ele>
        <time>2023-07-23T07:38:47Z</time>
      </trkpt>
      <trkpt lat="42.21203" lon="0.85057">
        <ele>907.2</ele>
        <time>2023-07-23T07:38:48Z</time>
      </trkpt>
      <trkpt lat="42.21204" lon="0.85053">
        <ele>907.6</ele>
        <time>2023-07-23T07:38:49Z</time>
      </trkpt>
      <trkpt lat="42.21205" lon="0.85049">
        <ele>908.2</ele>
        <time>2023-07-23T07:38:50Z</time>
      </trkpt>
      <trkpt lat="42.21206" lon="0.85045">
        <ele>908.8</ele>
        <time>2023-07-23T07:38:51Z</time>
      </trkpt>
      <trkpt lat="42.21207" lon="0.85041">
        <ele>909</ele>
        <time>2023-07-23T07:38:52Z</time>
      </trkpt>
      <trkpt lat="42.21208" lon="0.85038">
        <ele>909.4</ele>
        <time>2023-07-23T07:38:53Z</time>
      </trkpt>
      <trkpt lat="42.2121" lon="0.85034">
        <ele>909.8</ele>
        <time>2023-07-23T07:38:54Z</time>
      </trkpt>
      <trkpt lat="42.21211" lon="0.8503">
        <ele>910</ele>
        <time>2023-07-23T07:38:55Z</time>
      </trkpt>
      <trkpt lat="42.21212" lon="0.85027">
        <ele>910.2</ele>
        <time>2023-07-23T07:38:56Z</time>
      </trkpt>
      <trkpt lat="42.21214" lon="0.85023">
        <ele>910.6</ele>
        <time>2023-07-23T07:38:57Z</time>
      </trkpt>
      <trkpt lat="42.21216" lon="0.8502">
        <ele>911</ele>
        <time>2023-07-23T07:38:58Z</time>
      </trkpt>
      <trkpt lat="42.21217" lon="0.85017">
        <ele>911.2</ele>
        <time>2023-07-23T07:38:59Z</time>
      </trkpt>
      <trkpt lat="42.21219" lon="0.85014">
        <ele>911.6</ele>
        <time>2023-07-23T07:39:00Z</time>
      </trkpt>
      <trkpt lat="42.21221" lon="0.85011">
        <ele>911.8</ele>
        <time>2023-07-23T07:39:01Z</time>
      </trkpt>
      <trkpt lat="42.21223" lon="0.85008">
        <ele>912.2</ele>
        <time>2023-07-23T07:39:02Z</time>
      </trkpt>
      <trkpt lat="42.21224" lon="0.85004">
        <ele>912.4</ele>
        <time>2023-07-23T07:39:03Z</time>
      </trkpt>
      <trkpt lat="42.21226" lon="0.85001">
        <ele>912.6</ele>
        <time>2023-07-23T07:39:04Z</time>
      </trkpt>
      <trkpt lat="42.21227" lon="0.84998">
        <ele>913</ele>
        <time>2023-07-23T07:39:05Z</time>
      </trkpt>
      <trkpt lat="42.21229" lon="0.84995">
        <ele>913.2</ele>
        <time>2023-07-23T07:39:06Z</time>
      </trkpt>
      <trkpt lat="42.2123" lon="0.84992">
        <ele>913.4</ele>
        <time>2023-07-23T07:39:07Z</time>
      </trkpt>
      <trkpt lat="42.21231" lon="0.84988">
        <ele>913.6</ele>
        <time>2023-07-23T07:39:08Z</time>
      </trkpt>
      <trkpt lat="42.21233" lon="0.84985">
        <ele>914</ele>
        <time>2023-07-23T07:39:09Z</time>
      </trkpt>
      <trkpt lat="42.21234" lon="0.84982">
        <ele>914.6</ele>
        <time>2023-07-23T07:39:10Z</time>
      </trkpt>
      <trkpt lat="42.21235" lon="0.84979">
        <ele>914.8</ele>
        <time>2023-07-23T07:39:11Z</time>
      </trkpt>
      <trkpt lat="42.21236" lon="0.84976">
        <ele>915.4</ele>
        <time>2023-07-23T07:39:12Z</time>
      </trkpt>
      <trkpt lat="42.21237" lon="0.84972">
        <ele>915.4</ele>
        <time>2023-07-23T07:39:13Z</time>
      </trkpt>
      <trkpt lat="42.21239" lon="0.84969">
        <ele>915.6</ele>
        <time>2023-07-23T07:39:14Z</time>
      </trkpt>
      <trkpt lat="42.2124" lon="0.84966">
        <ele>916.2</ele>
        <time>2023-07-23T07:39:15Z</time>
      </trkpt>
      <trkpt lat="42.21241" lon="0.84962">
        <ele>916.4</ele>
        <time>2023-07-23T07:39:16Z</time>
      </trkpt>
      <trkpt lat="42.21242" lon="0.84959">
        <ele>916.8</ele>
        <time>2023-07-23T07:39:17Z</time>
      </trkpt>
      <trkpt lat="42.21243" lon="0.84955">
        <ele>917</ele>
        <time>2023-07-23T07:39:18Z</time>
      </trkpt>
      <trkpt lat="42.21244" lon="0.84952">
        <ele>917.4</ele>
        <time>2023-07-23T07:39:19Z</time>
      </trkpt>
      <trkpt lat="42.21245" lon="0.84948">
        <ele>917.6</ele>
        <time>2023-07-23T07:39:20Z</time>
      </trkpt>
      <trkpt lat="42.21247" lon="0.84945">
        <ele>918.2</ele>
        <time>2023-07-23T07:39:21Z</time>
      </trkpt>
      <trkpt lat="42.21248" lon="0.84941">
        <ele>918.6</ele>
        <time>2023-07-23T07:39:22Z</time>
      </trkpt>
      <trkpt lat="42.21249" lon="0.84938">
        <ele>919</ele>
        <time>2023-07-23T07:39:23Z</time>
      </trkpt>
      <trkpt lat="42.2125" lon="0.84935">
        <ele>919.4</ele>
        <time>2023-07-23T07:39:24Z</time>
      </trkpt>
      <trkpt lat="42.21252" lon="0.84932">
        <ele>919.6</ele>
        <time>2023-07-23T07:39:25Z</time>
      </trkpt>
      <trkpt lat="42.21254" lon="0.84928">
        <ele>920</ele>
        <time>2023-07-23T07:39:26Z</time>
      </trkpt>
      <trkpt lat="42.21256" lon="0.84926">
        <ele>920.2</ele>
        <time>2023-07-23T07:39:27Z</time>
      </trkpt>
      <trkpt lat="42.21258" lon="0.84924">
        <ele>920.4</ele>
        <time>2023-07-23T07:39:28Z</time>
      </trkpt>
      <trkpt lat="42.2126" lon="0.84921">
        <ele>920.6</ele>
        <time>2023-07-23T07:39:29Z</time>
      </trkpt>
      <trkpt lat="42.21262" lon="0.84919">
        <ele>920.6</ele>
        <time>2023-07-23T07:39:30Z</time>
      </trkpt>
      <trkpt lat="42.21264" lon="0.84917">
        <ele>920.8</ele>
        <time>2023-07-23T07:39:31Z</time>
      </trkpt>
      <trkpt lat="42.21267" lon="0.84915">
        <ele>921</ele>
        <time>2023-07-23T07:39:32Z</time>
      </trkpt>
      <trkpt lat="42.21269" lon="0.84914">
        <ele>921</ele>
        <time>2023-07-23T07:39:33Z</time>
      </trkpt>
      <trkpt lat="42.21271" lon="0.84912">
        <ele>921.4</ele>
        <time>2023-07-23T07:39:34Z</time>
      </trkpt>
      <trkpt lat="42.21274" lon="0.84911">
        <ele>921.6</ele>
        <time>2023-07-23T07:39:35Z</time>
      </trkpt>
      <trkpt lat="42.21276" lon="0.8491">
        <ele>922</ele>
        <time>2023-07-23T07:39:36Z</time>
      </trkpt>
      <trkpt lat="42.21278" lon="0.84909">
        <ele>922</ele>
        <time>2023-07-23T07:39:37Z</time>
      </trkpt>
      <trkpt lat="42.21281" lon="0.84908">
        <ele>922.4</ele>
        <time>2023-07-23T07:39:38Z</time>
      </trkpt>
      <trkpt lat="42.21283" lon="0.84907">
        <ele>922.6</ele>
        <time>2023-07-23T07:39:39Z</time>
      </trkpt>
      <trkpt lat="42.21286" lon="0.84906">
        <ele>922.8</ele>
        <time>2023-07-23T07:39:40Z</time>
      </trkpt>
      <trkpt lat="42.21288" lon="0.84904">
        <ele>923</ele>
        <time>2023-07-23T07:39:41Z</time>
      </trkpt>
      <trkpt lat="42.2129" lon="0.84901">
        <ele>923.2</ele>
        <time>2023-07-23T07:39:42Z</time>
      </trkpt>
      <trkpt lat="42.21292" lon="0.84898">
        <ele>923.8</ele>
        <time>2023-07-23T07:39:43Z</time>
      </trkpt>
      <trkpt lat="42.21293" lon="0.84895">
        <ele>923.8</ele>
        <time>2023-07-23T07:39:44Z</time>
      </trkpt>
      <trkpt lat="42.21295" lon="0.84891">
        <ele>924.2</ele>
        <time>2023-07-23T07:39:45Z</time>
      </trkpt>
      <trkpt lat="42.21295" lon="0.84887">
        <ele>924.4</ele>
        <time>2023-07-23T07:39:46Z</time>
      </trkpt>
      <trkpt lat="42.21295" lon="0.84883">
        <ele>924.8</ele>
        <time>2023-07-23T07:39:47Z</time>
      </trkpt>
      <trkpt lat="42.21294" lon="0.84879">
        <ele>925.4</ele>
        <time>2023-07-23T07:39:48Z</time>
      </trkpt>
      <trkpt lat="42.21293" lon="0.84875">
        <ele>925.4</ele>
        <time>2023-07-23T07:39:49Z</time>
      </trkpt>
      <trkpt lat="42.21291" lon="0.84872">
        <ele>925.8</ele>
        <time>2023-07-23T07:39:50Z</time>
      </trkpt>
      <trkpt lat="42.21289" lon="0.84867">
        <ele>926</ele>
        <time>2023-07-23T07:39:51Z</time>
      </trkpt>
      <trkpt lat="42.21287" lon="0.84863">
        <ele>926.2</ele>
        <time>2023-07-23T07:39:52Z</time>
      </trkpt>
      <trkpt lat="42.21285" lon="0.84859">
        <ele>926.6</ele>
        <time>2023-07-23T07:39:53Z</time>
      </trkpt>
      <trkpt lat="42.21282" lon="0.84855">
        <ele>926.6</ele>
        <time>2023-07-23T07:39:54Z</time>
      </trkpt>
      <trkpt lat="42.21279" lon="0.84851">
        <ele>926.8</ele>
        <time>2023-07-23T07:39:55Z</time>
      </trkpt>
      <trkpt lat="42.21276" lon="0.84847">
        <ele>926.8</ele>
        <time>2023-07-23T07:39:56Z</time>
      </trkpt>
      <trkpt lat="42.21273" lon="0.84844">
        <ele>927</ele>
        <time>2023-07-23T07:39:57Z</time>
      </trkpt>
      <trkpt lat="42.2127" lon="0.8484">
        <ele>927</ele>
        <time>2023-07-23T07:39:58Z</time>
      </trkpt>
      <trkpt lat="42.21268" lon="0.84836">
        <ele>927</ele>
        <time>2023-07-23T07:39:59Z</time>
      </trkpt>
      <trkpt lat="42.21265" lon="0.84832">
        <ele>927</ele>
        <time>2023-07-23T07:40:00Z</time>
      </trkpt>
      <trkpt lat="42.21262" lon="0.84829">
        <ele>927</ele>
        <time>2023-07-23T07:40:01Z</time>
      </trkpt>
      <trkpt lat="42.2126" lon="0.84825">
        <ele>927</ele>
        <time>2023-07-23T07:40:02Z</time>
      </trkpt>
      <trkpt lat="42.21257" lon="0.84822">
        <ele>927</ele>
        <time>2023-07-23T07:40:03Z</time>
      </trkpt>
      <trkpt lat="42.21255" lon="0.84818">
        <ele>927.4</ele>
        <time>2023-07-23T07:40:04Z</time>
      </trkpt>
      <trkpt lat="42.21253" lon="0.84815">
        <ele>927.6</ele>
        <time>2023-07-23T07:40:05Z</time>
      </trkpt>
      <trkpt lat="42.21251" lon="0.84811">
        <ele>927.6</ele>
        <time>2023-07-23T07:40:06Z</time>
      </trkpt>
      <trkpt lat="42.2125" lon="0.84808">
        <ele>927.8</ele>
        <time>2023-07-23T07:40:07Z</time>
      </trkpt>
      <trkpt lat="42.21249" lon="0.84804">
        <ele>928</ele>
        <time>2023-07-23T07:40:08Z</time>
      </trkpt>
      <trkpt lat="42.21247" lon="0.84801">
        <ele>928.4</ele>
        <time>2023-07-23T07:40:09Z</time>
      </trkpt>
      <trkpt lat="42.21245" lon="0.84797">
        <ele>928.2</ele>
        <time>2023-07-23T07:40:10Z</time>
      </trkpt>
      <trkpt lat="42.21243" lon="0.84793">
        <ele>928.8</ele>
        <time>2023-07-23T07:40:11Z</time>
      </trkpt>
      <trkpt lat="42.21241" lon="0.84788">
        <ele>929</ele>
        <time>2023-07-23T07:40:12Z</time>
      </trkpt>
      <trkpt lat="42.21238" lon="0.84784">
        <ele>929.2</ele>
        <time>2023-07-23T07:40:13Z</time>
      </trkpt>
      <trkpt lat="42.21236" lon="0.8478">
        <ele>929.2</ele>
        <time>2023-07-23T07:40:14Z</time>
      </trkpt>
      <trkpt lat="42.21233" lon="0.84777">
        <ele>929.2</ele>
        <time>2023-07-23T07:40:15Z</time>
      </trkpt>
      <trkpt lat="42.21229" lon="0.84774">
        <ele>929.2</ele>
        <time>2023-07-23T07:40:16Z</time>
      </trkpt>
      <trkpt lat="42.21225" lon="0.84773">
        <ele>929.2</ele>
        <time>2023-07-23T07:40:17Z</time>
      </trkpt>
      <trkpt lat="42.21221" lon="0.84772">
        <ele>929.2</ele>
        <time>2023-07-23T07:40:18Z</time>
      </trkpt>
      <trkpt lat="42.21218" lon="0.84773">
        <ele>929.2</ele>
        <time>2023-07-23T07:40:19Z</time>
      </trkpt>
      <trkpt lat="42.21214" lon="0.84775">
        <ele>929.2</ele>
        <time>2023-07-23T07:40:20Z</time>
      </trkpt>
      <trkpt lat="42.21211" lon="0.84777">
        <ele>929.2</ele>
        <time>2023-07-23T07:40:21Z</time>
      </trkpt>
      <trkpt lat="42.21207" lon="0.84779">
        <ele>929.4</ele>
        <time>2023-07-23T07:40:22Z</time>
      </trkpt>
      <trkpt lat="42.21203" lon="0.84781">
        <ele>929.4</ele>
        <time>2023-07-23T07:40:23Z</time>
      </trkpt>
      <trkpt lat="42.21199" lon="0.84784">
        <ele>929.4</ele>
        <time>2023-07-23T07:40:24Z</time>
      </trkpt>
      <trkpt lat="42.21195" lon="0.84786">
        <ele>929.6</ele>
        <time>2023-07-23T07:40:25Z</time>
      </trkpt>
      <trkpt lat="42.2119" lon="0.84788">
        <ele>929.6</ele>
        <time>2023-07-23T07:40:26Z</time>
      </trkpt>
      <trkpt lat="42.21186" lon="0.84789">
        <ele>929.8</ele>
        <time>2023-07-23T07:40:27Z</time>
      </trkpt>
      <trkpt lat="42.21181" lon="0.84789">
        <ele>929.8</ele>
        <time>2023-07-23T07:40:28Z</time>
      </trkpt>
      <trkpt lat="42.21174" lon="0.84787">
        <ele>929.8</ele>
        <time>2023-07-23T07:40:29Z</time>
      </trkpt>
      <trkpt lat="42.21174" lon="0.84787">
        <ele>929.8</ele>
        <time>2023-07-23T07:40:30Z</time>
      </trkpt>
      <trkpt lat="42.21167" lon="0.8478">
        <ele>929.8</ele>
        <time>2023-07-23T07:40:31Z</time>
      </trkpt>
      <trkpt lat="42.21167" lon="0.8478">
        <ele>929.8</ele>
        <time>2023-07-23T07:40:32Z</time>
      </trkpt>
      <trkpt lat="42.21161" lon="0.84771">
        <ele>929.8</ele>
        <time>2023-07-23T07:40:33Z</time>
      </trkpt>
      <trkpt lat="42.21158" lon="0.84765">
        <ele>929.8</ele>
        <time>2023-07-23T07:40:34Z</time>
      </trkpt>
      <trkpt lat="42.21158" lon="0.84765">
        <ele>929.8</ele>
        <time>2023-07-23T07:40:35Z</time>
      </trkpt>
      <trkpt lat="42.21152" lon="0.84754">
        <ele>929.8</ele>
        <time>2023-07-23T07:40:36Z</time>
      </trkpt>
      <trkpt lat="42.21149" lon="0.84749">
        <ele>929.6</ele>
        <time>2023-07-23T07:40:37Z</time>
      </trkpt>
      <trkpt lat="42.21149" lon="0.84749">
        <ele>929.6</ele>
        <time>2023-07-23T07:40:38Z</time>
      </trkpt>
      <trkpt lat="42.21144" lon="0.84738">
        <ele>929.4</ele>
        <time>2023-07-23T07:40:39Z</time>
      </trkpt>
      <trkpt lat="42.21141" lon="0.84733">
        <ele>929.4</ele>
        <time>2023-07-23T07:40:40Z</time>
      </trkpt>
      <trkpt lat="42.21141" lon="0.84733">
        <ele>929.2</ele>
        <time>2023-07-23T07:40:41Z</time>
      </trkpt>
      <trkpt lat="42.21135" lon="0.84723">
        <ele>929.2</ele>
        <time>2023-07-23T07:40:42Z</time>
      </trkpt>
      <trkpt lat="42.21135" lon="0.84723">
        <ele>929.2</ele>
        <time>2023-07-23T07:40:43Z</time>
      </trkpt>
      <trkpt lat="42.21132" lon="0.84718">
        <ele>929.2</ele>
        <time>2023-07-23T07:40:44Z</time>
      </trkpt>
      <trkpt lat="42.2113" lon="0.84712">
        <ele>929.2</ele>
        <time>2023-07-23T07:40:45Z</time>
      </trkpt>
      <trkpt lat="42.21127" lon="0.84707">
        <ele>929.2</ele>
        <time>2023-07-23T07:40:46Z</time>
      </trkpt>
      <trkpt lat="42.21125" lon="0.84702">
        <ele>929</ele>
        <time>2023-07-23T07:40:47Z</time>
      </trkpt>
      <trkpt lat="42.2112" lon="0.84691">
        <ele>929</ele>
        <time>2023-07-23T07:40:48Z</time>
      </trkpt>
      <trkpt lat="42.2112" lon="0.84691">
        <ele>929</ele>
        <time>2023-07-23T07:40:49Z</time>
      </trkpt>
      <trkpt lat="42.21117" lon="0.84685">
        <ele>929</ele>
        <time>2023-07-23T07:40:50Z</time>
      </trkpt>
      <trkpt lat="42.21114" lon="0.84679">
        <ele>928.8</ele>
        <time>2023-07-23T07:40:51Z</time>
      </trkpt>
      <trkpt lat="42.21111" lon="0.84673">
        <ele>928.8</ele>
        <time>2023-07-23T07:40:52Z</time>
      </trkpt>
      <trkpt lat="42.21103" lon="0.84664">
        <ele>928.8</ele>
        <time>2023-07-23T07:40:53Z</time>
      </trkpt>
      <trkpt lat="42.21103" lon="0.84664">
        <ele>928.8</ele>
        <time>2023-07-23T07:40:54Z</time>
      </trkpt>
      <trkpt lat="42.21096" lon="0.84656">
        <ele>928.8</ele>
        <time>2023-07-23T07:40:55Z</time>
      </trkpt>
      <trkpt lat="42.21091" lon="0.84653">
        <ele>928.8</ele>
        <time>2023-07-23T07:40:56Z</time>
      </trkpt>
      <trkpt lat="42.21087" lon="0.84652">
        <ele>928.8</ele>
        <time>2023-07-23T07:40:57Z</time>
      </trkpt>
      <trkpt lat="42.21087" lon="0.84652">
        <ele>928.8</ele>
        <time>2023-07-23T07:40:58Z</time>
      </trkpt>
      <trkpt lat="42.21083" lon="0.84653">
        <ele>928.8</ele>
        <time>2023-07-23T07:40:59Z</time>
      </trkpt>
      <trkpt lat="42.21076" lon="0.8466">
        <ele>928.8</ele>
        <time>2023-07-23T07:41:00Z</time>
      </trkpt>
      <trkpt lat="42.21073" lon="0.84665">
        <ele>928.8</ele>
        <time>2023-07-23T07:41:01Z</time>
      </trkpt>
      <trkpt lat="42.21072" lon="0.84669">
        <ele>928.8</ele>
        <time>2023-07-23T07:41:02Z</time>
      </trkpt>
      <trkpt lat="42.21071" lon="0.84673">
        <ele>928.8</ele>
        <time>2023-07-23T07:41:03Z</time>
      </trkpt>
      <trkpt lat="42.2107" lon="0.84678">
        <ele>928.8</ele>
        <time>2023-07-23T07:41:04Z</time>
      </trkpt>
      <trkpt lat="42.21069" lon="0.84683">
        <ele>929</ele>
        <time>2023-07-23T07:41:05Z</time>
      </trkpt>
      <trkpt lat="42.21069" lon="0.84683">
        <ele>929.2</ele>
        <time>2023-07-23T07:41:06Z</time>
      </trkpt>
      <trkpt lat="42.21065" lon="0.84692">
        <ele>929.4</ele>
        <time>2023-07-23T07:41:07Z</time>
      </trkpt>
      <trkpt lat="42.21064" lon="0.84697">
        <ele>929.6</ele>
        <time>2023-07-23T07:41:08Z</time>
      </trkpt>
      <trkpt lat="42.21063" lon="0.84702">
        <ele>929.8</ele>
        <time>2023-07-23T07:41:09Z</time>
      </trkpt>
      <trkpt lat="42.21062" lon="0.84707">
        <ele>930</ele>
        <time>2023-07-23T07:41:10Z</time>
      </trkpt>
      <trkpt lat="42.21062" lon="0.84707">
        <ele>930.4</ele>
        <time>2023-07-23T07:41:11Z</time>
      </trkpt>
      <trkpt lat="42.21058" lon="0.84718">
        <ele>930.4</ele>
        <time>2023-07-23T07:41:12Z</time>
      </trkpt>
      <trkpt lat="42.21058" lon="0.84718">
        <ele>930.6</ele>
        <time>2023-07-23T07:41:13Z</time>
      </trkpt>
      <trkpt lat="42.21055" lon="0.84727">
        <ele>930.6</ele>
        <time>2023-07-23T07:41:14Z</time>
      </trkpt>
      <trkpt lat="42.21055" lon="0.84727">
        <ele>930.8</ele>
        <time>2023-07-23T07:41:15Z</time>
      </trkpt>
      <trkpt lat="42.21053" lon="0.84732">
        <ele>930.8</ele>
        <time>2023-07-23T07:41:16Z</time>
      </trkpt>
      <trkpt lat="42.21046" lon="0.84739">
        <ele>930.8</ele>
        <time>2023-07-23T07:41:17Z</time>
      </trkpt>
      <trkpt lat="42.21046" lon="0.84739">
        <ele>930.8</ele>
        <time>2023-07-23T07:41:18Z</time>
      </trkpt>
      <trkpt lat="42.21038" lon="0.84743">
        <ele>930.8</ele>
        <time>2023-07-23T07:41:19Z</time>
      </trkpt>
      <trkpt lat="42.21038" lon="0.84743">
        <ele>930.8</ele>
        <time>2023-07-23T07:41:20Z</time>
      </trkpt>
      <trkpt lat="42.21028" lon="0.84743">
        <ele>930.8</ele>
        <time>2023-07-23T07:41:21Z</time>
      </trkpt>
      <trkpt lat="42.21024" lon="0.84742">
        <ele>930.8</ele>
        <time>2023-07-23T07:41:22Z</time>
      </trkpt>
      <trkpt lat="42.2102" lon="0.84742">
        <ele>930.8</ele>
        <time>2023-07-23T07:41:23Z</time>
      </trkpt>
      <trkpt lat="42.21015" lon="0.84742">
        <ele>930.8</ele>
        <time>2023-07-23T07:41:24Z</time>
      </trkpt>
      <trkpt lat="42.2101" lon="0.84742">
        <ele>930.6</ele>
        <time>2023-07-23T07:41:25Z</time>
      </trkpt>
      <trkpt lat="42.21006" lon="0.84741">
        <ele>930.4</ele>
        <time>2023-07-23T07:41:26Z</time>
      </trkpt>
      <trkpt lat="42.21006" lon="0.84741">
        <ele>930.4</ele>
        <time>2023-07-23T07:41:27Z</time>
      </trkpt>
      <trkpt lat="42.21001" lon="0.84741">
        <ele>930.4</ele>
        <time>2023-07-23T07:41:28Z</time>
      </trkpt>
      <trkpt lat="42.20994" lon="0.8474">
        <ele>930.2</ele>
        <time>2023-07-23T07:41:29Z</time>
      </trkpt>
      <trkpt lat="42.20989" lon="0.84739">
        <ele>930.2</ele>
        <time>2023-07-23T07:41:30Z</time>
      </trkpt>
      <trkpt lat="42.20985" lon="0.84739">
        <ele>930.2</ele>
        <time>2023-07-23T07:41:31Z</time>
      </trkpt>
      <trkpt lat="42.20982" lon="0.84738">
        <ele>930.2</ele>
        <time>2023-07-23T07:41:32Z</time>
      </trkpt>
      <trkpt lat="42.20982" lon="0.84738">
        <ele>930.4</ele>
        <time>2023-07-23T07:41:33Z</time>
      </trkpt>
      <trkpt lat="42.20975" lon="0.84737">
        <ele>930.4</ele>
        <time>2023-07-23T07:41:34Z</time>
      </trkpt>
      <trkpt lat="42.20971" lon="0.84736">
        <ele>930.8</ele>
        <time>2023-07-23T07:41:35Z</time>
      </trkpt>
      <trkpt lat="42.20967" lon="0.84735">
        <ele>930.8</ele>
        <time>2023-07-23T07:41:36Z</time>
      </trkpt>
      <trkpt lat="42.20963" lon="0.84735">
        <ele>931</ele>
        <time>2023-07-23T07:41:37Z</time>
      </trkpt>
      <trkpt lat="42.2096" lon="0.84734">
        <ele>931.2</ele>
        <time>2023-07-23T07:41:38Z</time>
      </trkpt>
      <trkpt lat="42.2096" lon="0.84734">
        <ele>931.4</ele>
        <time>2023-07-23T07:41:39Z</time>
      </trkpt>
      <trkpt lat="42.20953" lon="0.84731">
        <ele>931.6</ele>
        <time>2023-07-23T07:41:40Z</time>
      </trkpt>
      <trkpt lat="42.20949" lon="0.84729">
        <ele>931.8</ele>
        <time>2023-07-23T07:41:41Z</time>
      </trkpt>
      <trkpt lat="42.20946" lon="0.84728">
        <ele>932</ele>
        <time>2023-07-23T07:41:42Z</time>
      </trkpt>
      <trkpt lat="42.20943" lon="0.84726">
        <ele>932.2</ele>
        <time>2023-07-23T07:41:43Z</time>
      </trkpt>
      <trkpt lat="42.2094" lon="0.84724">
        <ele>932.4</ele>
        <time>2023-07-23T07:41:44Z</time>
      </trkpt>
      <trkpt lat="42.20936" lon="0.84722">
        <ele>932.6</ele>
        <time>2023-07-23T07:41:45Z</time>
      </trkpt>
      <trkpt lat="42.20933" lon="0.8472">
        <ele>932.8</ele>
        <time>2023-07-23T07:41:46Z</time>
      </trkpt>
      <trkpt lat="42.2093" lon="0.84717">
        <ele>933</ele>
        <time>2023-07-23T07:41:47Z</time>
      </trkpt>
      <trkpt lat="42.20926" lon="0.84715">
        <ele>933</ele>
        <time>2023-07-23T07:41:48Z</time>
      </trkpt>
      <trkpt lat="42.20926" lon="0.84715">
        <ele>933.2</ele>
        <time>2023-07-23T07:41:49Z</time>
      </trkpt>
      <trkpt lat="42.2092" lon="0.8471">
        <ele>933.4</ele>
        <time>2023-07-23T07:41:50Z</time>
      </trkpt>
      <trkpt lat="42.20917" lon="0.84707">
        <ele>933.6</ele>
        <time>2023-07-23T07:41:51Z</time>
      </trkpt>
      <trkpt lat="42.20914" lon="0.84704">
        <ele>934</ele>
        <time>2023-07-23T07:41:52Z</time>
      </trkpt>
      <trkpt lat="42.2091" lon="0.84702">
        <ele>934</ele>
        <time>2023-07-23T07:41:53Z</time>
      </trkpt>
      <trkpt lat="42.2091" lon="0.84702">
        <ele>934.2</ele>
        <time>2023-07-23T07:41:54Z</time>
      </trkpt>
      <trkpt lat="42.20904" lon="0.84697">
        <ele>934.2</ele>
        <time>2023-07-23T07:41:55Z</time>
      </trkpt>
      <trkpt lat="42.20901" lon="0.84694">
        <ele>934.6</ele>
        <time>2023-07-23T07:41:56Z</time>
      </trkpt>
      <trkpt lat="42.20898" lon="0.84692">
        <ele>934.4</ele>
        <time>2023-07-23T07:41:57Z</time>
      </trkpt>
      <trkpt lat="42.20898" lon="0.84692">
        <ele>934.6</ele>
        <time>2023-07-23T07:41:58Z</time>
      </trkpt>
      <trkpt lat="42.20892" lon="0.84687">
        <ele>934.8</ele>
        <time>2023-07-23T07:41:59Z</time>
      </trkpt>
      <trkpt lat="42.20888" lon="0.84685">
        <ele>934.8</ele>
        <time>2023-07-23T07:42:00Z</time>
      </trkpt>
      <trkpt lat="42.20885" lon="0.84682">
        <ele>935</ele>
        <time>2023-07-23T07:42:01Z</time>
      </trkpt>
      <trkpt lat="42.20882" lon="0.84679">
        <ele>935</ele>
        <time>2023-07-23T07:42:02Z</time>
      </trkpt>
      <trkpt lat="42.2088" lon="0.84676">
        <ele>935.2</ele>
        <time>2023-07-23T07:42:03Z</time>
      </trkpt>
      <trkpt lat="42.20877" lon="0.84673">
        <ele>935.4</ele>
        <time>2023-07-23T07:42:04Z</time>
      </trkpt>
      <trkpt lat="42.20875" lon="0.84669">
        <ele>935.6</ele>
        <time>2023-07-23T07:42:05Z</time>
      </trkpt>
      <trkpt lat="42.20873" lon="0.84665">
        <ele>935.8</ele>
        <time>2023-07-23T07:42:06Z</time>
      </trkpt>
      <trkpt lat="42.20872" lon="0.84661">
        <ele>935.8</ele>
        <time>2023-07-23T07:42:07Z</time>
      </trkpt>
      <trkpt lat="42.20872" lon="0.84661">
        <ele>936</ele>
        <time>2023-07-23T07:42:08Z</time>
      </trkpt>
      <trkpt lat="42.20871" lon="0.84652">
        <ele>936.2</ele>
        <time>2023-07-23T07:42:09Z</time>
      </trkpt>
      <trkpt lat="42.20871" lon="0.84648">
        <ele>936.4</ele>
        <time>2023-07-23T07:42:10Z</time>
      </trkpt>
      <trkpt lat="42.20871" lon="0.84643">
        <ele>936.8</ele>
        <time>2023-07-23T07:42:11Z</time>
      </trkpt>
      <trkpt lat="42.20872" lon="0.84639">
        <ele>936.8</ele>
        <time>2023-07-23T07:42:12Z</time>
      </trkpt>
      <trkpt lat="42.20873" lon="0.84635">
        <ele>937.2</ele>
        <time>2023-07-23T07:42:13Z</time>
      </trkpt>
      <trkpt lat="42.20875" lon="0.84631">
        <ele>937.4</ele>
        <time>2023-07-23T07:42:14Z</time>
      </trkpt>
      <trkpt lat="42.20876" lon="0.84628">
        <ele>937.8</ele>
        <time>2023-07-23T07:42:15Z</time>
      </trkpt>
      <trkpt lat="42.20877" lon="0.84624">
        <ele>938</ele>
        <time>2023-07-23T07:42:16Z</time>
      </trkpt>
      <trkpt lat="42.20879" lon="0.84621">
        <ele>938.2</ele>
        <time>2023-07-23T07:42:17Z</time>
      </trkpt>
      <trkpt lat="42.20881" lon="0.84618">
        <ele>938.6</ele>
        <time>2023-07-23T07:42:18Z</time>
      </trkpt>
      <trkpt lat="42.20881" lon="0.84618">
        <ele>938.6</ele>
        <time>2023-07-23T07:42:19Z</time>
      </trkpt>
      <trkpt lat="42.20884" lon="0.84611">
        <ele>939</ele>
        <time>2023-07-23T07:42:20Z</time>
      </trkpt>
      <trkpt lat="42.20886" lon="0.84608">
        <ele>939.2</ele>
        <time>2023-07-23T07:42:21Z</time>
      </trkpt>
      <trkpt lat="42.20886" lon="0.84608">
        <ele>939.4</ele>
        <time>2023-07-23T07:42:22Z</time>
      </trkpt>
      <trkpt lat="42.20889" lon="0.846">
        <ele>939.6</ele>
        <time>2023-07-23T07:42:23Z</time>
      </trkpt>
      <trkpt lat="42.2089" lon="0.84596">
        <ele>939.8</ele>
        <time>2023-07-23T07:42:24Z</time>
      </trkpt>
      <trkpt lat="42.20891" lon="0.84592">
        <ele>940</ele>
        <time>2023-07-23T07:42:25Z</time>
      </trkpt>
      <trkpt lat="42.20892" lon="0.84587">
        <ele>940.2</ele>
        <time>2023-07-23T07:42:26Z</time>
      </trkpt>
      <trkpt lat="42.20893" lon="0.84583">
        <ele>940.4</ele>
        <time>2023-07-23T07:42:27Z</time>
      </trkpt>
      <trkpt lat="42.20893" lon="0.84579">
        <ele>940.4</ele>
        <time>2023-07-23T07:42:28Z</time>
      </trkpt>
      <trkpt lat="42.20894" lon="0.84575">
        <ele>940.8</ele>
        <time>2023-07-23T07:42:29Z</time>
      </trkpt>
      <trkpt lat="42.20894" lon="0.8457">
        <ele>941.2</ele>
        <time>2023-07-23T07:42:30Z</time>
      </trkpt>
      <trkpt lat="42.20894" lon="0.84566">
        <ele>941.6</ele>
        <time>2023-07-23T07:42:31Z</time>
      </trkpt>
      <trkpt lat="42.20895" lon="0.84561">
        <ele>942</ele>
        <time>2023-07-23T07:42:32Z</time>
      </trkpt>
      <trkpt lat="42.20895" lon="0.84557">
        <ele>942.2</ele>
        <time>2023-07-23T07:42:33Z</time>
      </trkpt>
      <trkpt lat="42.20895" lon="0.84553">
        <ele>942.4</ele>
        <time>2023-07-23T07:42:34Z</time>
      </trkpt>
      <trkpt lat="42.20896" lon="0.84548">
        <ele>942.6</ele>
        <time>2023-07-23T07:42:35Z</time>
      </trkpt>
      <trkpt lat="42.20896" lon="0.84544">
        <ele>943</ele>
        <time>2023-07-23T07:42:36Z</time>
      </trkpt>
      <trkpt lat="42.20896" lon="0.84539">
        <ele>943.2</ele>
        <time>2023-07-23T07:42:37Z</time>
      </trkpt>
      <trkpt lat="42.20897" lon="0.84535">
        <ele>943.4</ele>
        <time>2023-07-23T07:42:38Z</time>
      </trkpt>
      <trkpt lat="42.20897" lon="0.8453">
        <ele>943.6</ele>
        <time>2023-07-23T07:42:39Z</time>
      </trkpt>
      <trkpt lat="42.20897" lon="0.84526">
        <ele>943.8</ele>
        <time>2023-07-23T07:42:40Z</time>
      </trkpt>
      <trkpt lat="42.20897" lon="0.84526">
        <ele>944</ele>
        <time>2023-07-23T07:42:41Z</time>
      </trkpt>
      <trkpt lat="42.20898" lon="0.84517">
        <ele>944.2</ele>
        <time>2023-07-23T07:42:42Z</time>
      </trkpt>
      <trkpt lat="42.20899" lon="0.84512">
        <ele>944.2</ele>
        <time>2023-07-23T07:42:43Z</time>
      </trkpt>
      <trkpt lat="42.20899" lon="0.84512">
        <ele>944.2</ele>
        <time>2023-07-23T07:42:44Z</time>
      </trkpt>
      <trkpt lat="42.209" lon="0.84503">
        <ele>944.2</ele>
        <time>2023-07-23T07:42:45Z</time>
      </trkpt>
      <trkpt lat="42.209" lon="0.84498">
        <ele>944.6</ele>
        <time>2023-07-23T07:42:46Z</time>
      </trkpt>
      <trkpt lat="42.20901" lon="0.84493">
        <ele>944.8</ele>
        <time>2023-07-23T07:42:47Z</time>
      </trkpt>
      <trkpt lat="42.20902" lon="0.84489">
        <ele>945</ele>
        <time>2023-07-23T07:42:48Z</time>
      </trkpt>
      <trkpt lat="42.20903" lon="0.84484">
        <ele>945.2</ele>
        <time>2023-07-23T07:42:49Z</time>
      </trkpt>
      <trkpt lat="42.20903" lon="0.84484">
        <ele>945.2</ele>
        <time>2023-07-23T07:42:50Z</time>
      </trkpt>
      <trkpt lat="42.20905" lon="0.84474">
        <ele>945.2</ele>
        <time>2023-07-23T07:42:51Z</time>
      </trkpt>
      <trkpt lat="42.20905" lon="0.84474">
        <ele>945.4</ele>
        <time>2023-07-23T07:42:52Z</time>
      </trkpt>
      <trkpt lat="42.20907" lon="0.84465">
        <ele>945.4</ele>
        <time>2023-07-23T07:42:53Z</time>
      </trkpt>
      <trkpt lat="42.20909" lon="0.84461">
        <ele>945.4</ele>
        <time>2023-07-23T07:42:54Z</time>
      </trkpt>
      <trkpt lat="42.20909" lon="0.84461">
        <ele>945.6</ele>
        <time>2023-07-23T07:42:55Z</time>
      </trkpt>
      <trkpt lat="42.20912" lon="0.84452">
        <ele>945.4</ele>
        <time>2023-07-23T07:42:56Z</time>
      </trkpt>
      <trkpt lat="42.20914" lon="0.84448">
        <ele>945.6</ele>
        <time>2023-07-23T07:42:57Z</time>
      </trkpt>
      <trkpt lat="42.20915" lon="0.84443">
        <ele>946</ele>
        <time>2023-07-23T07:42:58Z</time>
      </trkpt>
      <trkpt lat="42.20915" lon="0.84438">
        <ele>946</ele>
        <time>2023-07-23T07:42:59Z</time>
      </trkpt>
      <trkpt lat="42.20915" lon="0.84433">
        <ele>946.2</ele>
        <time>2023-07-23T07:43:00Z</time>
      </trkpt>
      <trkpt lat="42.20912" lon="0.84428">
        <ele>946.4</ele>
        <time>2023-07-23T07:43:01Z</time>
      </trkpt>
      <trkpt lat="42.20909" lon="0.84425">
        <ele>946.4</ele>
        <time>2023-07-23T07:43:02Z</time>
      </trkpt>
      <trkpt lat="42.20905" lon="0.84424">
        <ele>946.4</ele>
        <time>2023-07-23T07:43:03Z</time>
      </trkpt>
      <trkpt lat="42.20901" lon="0.84425">
        <ele>946.4</ele>
        <time>2023-07-23T07:43:04Z</time>
      </trkpt>
      <trkpt lat="42.20897" lon="0.84426">
        <ele>946.4</ele>
        <time>2023-07-23T07:43:05Z</time>
      </trkpt>
      <trkpt lat="42.20893" lon="0.84428">
        <ele>946.4</ele>
        <time>2023-07-23T07:43:06Z</time>
      </trkpt>
      <trkpt lat="42.2089" lon="0.8443">
        <ele>946.6</ele>
        <time>2023-07-23T07:43:07Z</time>
      </trkpt>
      <trkpt lat="42.20886" lon="0.84432">
        <ele>946.6</ele>
        <time>2023-07-23T07:43:08Z</time>
      </trkpt>
      <trkpt lat="42.20882" lon="0.84434">
        <ele>946.8</ele>
        <time>2023-07-23T07:43:09Z</time>
      </trkpt>
      <trkpt lat="42.20877" lon="0.84437">
        <ele>946.8</ele>
        <time>2023-07-23T07:43:10Z</time>
      </trkpt>
      <trkpt lat="42.20874" lon="0.84439">
        <ele>946.8</ele>
        <time>2023-07-23T07:43:11Z</time>
      </trkpt>
      <trkpt lat="42.20871" lon="0.84441">
        <ele>947</ele>
        <time>2023-07-23T07:43:12Z</time>
      </trkpt>
      <trkpt lat="42.20867" lon="0.84442">
        <ele>947.2</ele>
        <time>2023-07-23T07:43:13Z</time>
      </trkpt>
      <trkpt lat="42.20863" lon="0.84444">
        <ele>947.2</ele>
        <time>2023-07-23T07:43:14Z</time>
      </trkpt>
      <trkpt lat="42.2086" lon="0.84446">
        <ele>947.4</ele>
        <time>2023-07-23T07:43:15Z</time>
      </trkpt>
      <trkpt lat="42.2086" lon="0.84446">
        <ele>947.6</ele>
        <time>2023-07-23T07:43:16Z</time>
      </trkpt>
      <trkpt lat="42.20852" lon="0.8445">
        <ele>947.6</ele>
        <time>2023-07-23T07:43:17Z</time>
      </trkpt>
      <trkpt lat="42.20848" lon="0.84451">
        <ele>947.8</ele>
        <time>2023-07-23T07:43:18Z</time>
      </trkpt>
      <trkpt lat="42.20848" lon="0.84451">
        <ele>947.8</ele>
        <time>2023-07-23T07:43:19Z</time>
      </trkpt>
      <trkpt lat="42.2084" lon="0.84455">
        <ele>948</ele>
        <time>2023-07-23T07:43:20Z</time>
      </trkpt>
      <trkpt lat="42.20837" lon="0.84457">
        <ele>948</ele>
        <time>2023-07-23T07:43:21Z</time>
      </trkpt>
      <trkpt lat="42.20834" lon="0.84459">
        <ele>948</ele>
        <time>2023-07-23T07:43:22Z</time>
      </trkpt>
      <trkpt lat="42.20831" lon="0.84461">
        <ele>948.2</ele>
        <time>2023-07-23T07:43:23Z</time>
      </trkpt>
      <trkpt lat="42.20831" lon="0.84461">
        <ele>948.2</ele>
        <time>2023-07-23T07:43:24Z</time>
      </trkpt>
      <trkpt lat="42.20826" lon="0.84466">
        <ele>948.2</ele>
        <time>2023-07-23T07:43:25Z</time>
      </trkpt>
      <trkpt lat="42.20824" lon="0.84468">
        <ele>948.4</ele>
        <time>2023-07-23T07:43:26Z</time>
      </trkpt>
      <trkpt lat="42.20824" lon="0.84468">
        <ele>948.6</ele>
        <time>2023-07-23T07:43:27Z</time>
      </trkpt>
      <trkpt lat="42.20821" lon="0.84473">
        <ele>948.6</ele>
        <time>2023-07-23T07:43:28Z</time>
      </trkpt>
      <trkpt lat="42.2082" lon="0.84476">
        <ele>948.6</ele>
        <time>2023-07-23T07:43:29Z</time>
      </trkpt>
      <trkpt lat="42.20819" lon="0.84478">
        <ele>948.8</ele>
        <time>2023-07-23T07:43:30Z</time>
      </trkpt>
      <trkpt lat="42.20818" lon="0.84479">
        <ele>949</ele>
        <time>2023-07-23T07:43:31Z</time>
      </trkpt>
      <trkpt lat="42.20818" lon="0.84479">
        <ele>949.2</ele>
        <time>2023-07-23T07:43:32Z</time>
      </trkpt>
      <trkpt lat="42.20818" lon="0.84479">
        <ele>949.4</ele>
        <time>2023-07-23T07:43:33Z</time>
      </trkpt>
      <trkpt lat="42.20818" lon="0.84479">
        <ele>949.4</ele>
        <time>2023-07-23T07:43:34Z</time>
      </trkpt>
      <trkpt lat="42.20816" lon="0.84479">
        <ele>949.4</ele>
        <time>2023-07-23T07:43:51Z</time>
      </trkpt>
      <trkpt lat="42.20813" lon="0.84477">
        <ele>949.4</ele>
        <time>2023-07-23T07:43:52Z</time>
      </trkpt>
      <trkpt lat="42.20811" lon="0.84476">
        <ele>949.4</ele>
        <time>2023-07-23T07:43:53Z</time>
      </trkpt>
      <trkpt lat="42.20809" lon="0.84474">
        <ele>949.4</ele>
        <time>2023-07-23T07:43:54Z</time>
      </trkpt>
      <trkpt lat="42.20808" lon="0.84473">
        <ele>949.4</ele>
        <time>2023-07-23T07:43:55Z</time>
      </trkpt>
      <trkpt lat="42.20806" lon="0.84471">
        <ele>949.4</ele>
        <time>2023-07-23T07:43:56Z</time>
      </trkpt>
      <trkpt lat="42.20806" lon="0.84471">
        <ele>949.4</ele>
        <time>2023-07-23T07:43:57Z</time>
      </trkpt>
      <trkpt lat="42.20805" lon="0.84469">
        <ele>949.6</ele>
        <time>2023-07-23T07:43:58Z</time>
      </trkpt>
      <trkpt lat="42.20803" lon="0.84464">
        <ele>949.6</ele>
        <time>2023-07-23T07:43:59Z</time>
      </trkpt>
      <trkpt lat="42.20803" lon="0.84464">
        <ele>949.8</ele>
        <time>2023-07-23T07:44:00Z</time>
      </trkpt>
      <trkpt lat="42.208" lon="0.84457">
        <ele>949.8</ele>
        <time>2023-07-23T07:44:01Z</time>
      </trkpt>
      <trkpt lat="42.20798" lon="0.84454">
        <ele>950</ele>
        <time>2023-07-23T07:44:02Z</time>
      </trkpt>
      <trkpt lat="42.20798" lon="0.84454">
        <ele>950</ele>
        <time>2023-07-23T07:44:03Z</time>
      </trkpt>
      <trkpt lat="42.20797" lon="0.8445">
        <ele>950.2</ele>
        <time>2023-07-23T07:44:04Z</time>
      </trkpt>
      <trkpt lat="42.20794" lon="0.84442">
        <ele>950.4</ele>
        <time>2023-07-23T07:44:05Z</time>
      </trkpt>
      <trkpt lat="42.20793" lon="0.84438">
        <ele>950.4</ele>
        <time>2023-07-23T07:44:06Z</time>
      </trkpt>
      <trkpt lat="42.20792" lon="0.84433">
        <ele>950.6</ele>
        <time>2023-07-23T07:44:07Z</time>
      </trkpt>
      <trkpt lat="42.20791" lon="0.84429">
        <ele>950.8</ele>
        <time>2023-07-23T07:44:08Z</time>
      </trkpt>
      <trkpt lat="42.20791" lon="0.84429">
        <ele>951</ele>
        <time>2023-07-23T07:44:09Z</time>
      </trkpt>
      <trkpt lat="42.20788" lon="0.8442">
        <ele>951.2</ele>
        <time>2023-07-23T07:44:10Z</time>
      </trkpt>
      <trkpt lat="42.20788" lon="0.84415">
        <ele>951.6</ele>
        <time>2023-07-23T07:44:11Z</time>
      </trkpt>
      <trkpt lat="42.20788" lon="0.84415">
        <ele>952</ele>
        <time>2023-07-23T07:44:12Z</time>
      </trkpt>
      <trkpt lat="42.20787" lon="0.84406">
        <ele>952.2</ele>
        <time>2023-07-23T07:44:13Z</time>
      </trkpt>
      <trkpt lat="42.20786" lon="0.84401">
        <ele>952.6</ele>
        <time>2023-07-23T07:44:14Z</time>
      </trkpt>
      <trkpt lat="42.20785" lon="0.84397">
        <ele>952.8</ele>
        <time>2023-07-23T07:44:15Z</time>
      </trkpt>
      <trkpt lat="42.20785" lon="0.84397">
        <ele>952.8</ele>
        <time>2023-07-23T07:44:16Z</time>
      </trkpt>
      <trkpt lat="42.20784" lon="0.84392">
        <ele>953.2</ele>
        <time>2023-07-23T07:44:17Z</time>
      </trkpt>
      <trkpt lat="42.20784" lon="0.84383">
        <ele>953.2</ele>
        <time>2023-07-23T07:44:18Z</time>
      </trkpt>
      <trkpt lat="42.20785" lon="0.84379">
        <ele>953.6</ele>
        <time>2023-07-23T07:44:19Z</time>
      </trkpt>
      <trkpt lat="42.20786" lon="0.84377">
        <ele>953.6</ele>
        <time>2023-07-23T07:44:20Z</time>
      </trkpt>
      <trkpt lat="42.20789" lon="0.84376">
        <ele>954</ele>
        <time>2023-07-23T07:44:21Z</time>
      </trkpt>
      <trkpt lat="42.20792" lon="0.84377">
        <ele>953.8</ele>
        <time>2023-07-23T07:44:22Z</time>
      </trkpt>
      <trkpt lat="42.20794" lon="0.84378">
        <ele>954.4</ele>
        <time>2023-07-23T07:44:23Z</time>
      </trkpt>
      <trkpt lat="42.20796" lon="0.84381">
        <ele>954.6</ele>
        <time>2023-07-23T07:44:24Z</time>
      </trkpt>
      <trkpt lat="42.20798" lon="0.84384">
        <ele>954.8</ele>
        <time>2023-07-23T07:44:25Z</time>
      </trkpt>
      <trkpt lat="42.208" lon="0.84387">
        <ele>955.2</ele>
        <time>2023-07-23T07:44:26Z</time>
      </trkpt>
      <trkpt lat="42.20802" lon="0.84391">
        <ele>955.2</ele>
        <time>2023-07-23T07:44:27Z</time>
      </trkpt>
      <trkpt lat="42.20804" lon="0.84394">
        <ele>955.6</ele>
        <time>2023-07-23T07:44:28Z</time>
      </trkpt>
      <trkpt lat="42.20806" lon="0.84397">
        <ele>955.8</ele>
        <time>2023-07-23T07:44:29Z</time>
      </trkpt>
      <trkpt lat="42.20809" lon="0.844">
        <ele>956</ele>
        <time>2023-07-23T07:44:30Z</time>
      </trkpt>
      <trkpt lat="42.20811" lon="0.84402">
        <ele>956.2</ele>
        <time>2023-07-23T07:44:31Z</time>
      </trkpt>
      <trkpt lat="42.20814" lon="0.84404">
        <ele>956.6</ele>
        <time>2023-07-23T07:44:32Z</time>
      </trkpt>
      <trkpt lat="42.20816" lon="0.84407">
        <ele>956.8</ele>
        <time>2023-07-23T07:44:33Z</time>
      </trkpt>
      <trkpt lat="42.20819" lon="0.84409">
        <ele>957</ele>
        <time>2023-07-23T07:44:34Z</time>
      </trkpt>
      <trkpt lat="42.20821" lon="0.84412">
        <ele>957.2</ele>
        <time>2023-07-23T07:44:35Z</time>
      </trkpt>
      <trkpt lat="42.20824" lon="0.84413">
        <ele>957.6</ele>
        <time>2023-07-23T07:44:36Z</time>
      </trkpt>
      <trkpt lat="42.20828" lon="0.84414">
        <ele>957.6</ele>
        <time>2023-07-23T07:44:37Z</time>
      </trkpt>
      <trkpt lat="42.2083" lon="0.84414">
        <ele>958</ele>
        <time>2023-07-23T07:44:38Z</time>
      </trkpt>
      <trkpt lat="42.20833" lon="0.84413">
        <ele>958</ele>
        <time>2023-07-23T07:44:39Z</time>
      </trkpt>
      <trkpt lat="42.20835" lon="0.84412">
        <ele>958.4</ele>
        <time>2023-07-23T07:44:40Z</time>
      </trkpt>
      <trkpt lat="42.20837" lon="0.8441">
        <ele>958.4</ele>
        <time>2023-07-23T07:44:41Z</time>
      </trkpt>
      <trkpt lat="42.20839" lon="0.84408">
        <ele>958.6</ele>
        <time>2023-07-23T07:44:42Z</time>
      </trkpt>
      <trkpt lat="42.2084" lon="0.84405">
        <ele>958.6</ele>
        <time>2023-07-23T07:44:43Z</time>
      </trkpt>
      <trkpt lat="42.2084" lon="0.84401">
        <ele>958.6</ele>
        <time>2023-07-23T07:44:44Z</time>
      </trkpt>
      <trkpt lat="42.2084" lon="0.84401">
        <ele>958.8</ele>
        <time>2023-07-23T07:44:45Z</time>
      </trkpt>
      <trkpt lat="42.20838" lon="0.84395">
        <ele>958.8</ele>
        <time>2023-07-23T07:44:46Z</time>
      </trkpt>
      <trkpt lat="42.20836" lon="0.84392">
        <ele>959.2</ele>
        <time>2023-07-23T07:44:47Z</time>
      </trkpt>
      <trkpt lat="42.20834" lon="0.8439">
        <ele>959.2</ele>
        <time>2023-07-23T07:44:48Z</time>
      </trkpt>
      <trkpt lat="42.20832" lon="0.84388">
        <ele>959.4</ele>
        <time>2023-07-23T07:44:49Z</time>
      </trkpt>
      <trkpt lat="42.20829" lon="0.84386">
        <ele>960</ele>
        <time>2023-07-23T07:44:50Z</time>
      </trkpt>
      <trkpt lat="42.20828" lon="0.84384">
        <ele>960</ele>
        <time>2023-07-23T07:44:51Z</time>
      </trkpt>
      <trkpt lat="42.20826" lon="0.84381">
        <ele>960.4</ele>
        <time>2023-07-23T07:44:52Z</time>
      </trkpt>
      <trkpt lat="42.20824" lon="0.84378">
        <ele>960.6</ele>
        <time>2023-07-23T07:44:53Z</time>
      </trkpt>
      <trkpt lat="42.20822" lon="0.84375">
        <ele>960.8</ele>
        <time>2023-07-23T07:44:54Z</time>
      </trkpt>
      <trkpt lat="42.20821" lon="0.84371">
        <ele>961.2</ele>
        <time>2023-07-23T07:44:55Z</time>
      </trkpt>
      <trkpt lat="42.20821" lon="0.84368">
        <ele>961.2</ele>
        <time>2023-07-23T07:44:56Z</time>
      </trkpt>
      <trkpt lat="42.2082" lon="0.84363">
        <ele>961.4</ele>
        <time>2023-07-23T07:44:57Z</time>
      </trkpt>
      <trkpt lat="42.2082" lon="0.84359">
        <ele>961.6</ele>
        <time>2023-07-23T07:44:58Z</time>
      </trkpt>
      <trkpt lat="42.2082" lon="0.84356">
        <ele>962</ele>
        <time>2023-07-23T07:44:59Z</time>
      </trkpt>
      <trkpt lat="42.2082" lon="0.84351">
        <ele>962</ele>
        <time>2023-07-23T07:45:00Z</time>
      </trkpt>
      <trkpt lat="42.20821" lon="0.84348">
        <ele>962.4</ele>
        <time>2023-07-23T07:45:01Z</time>
      </trkpt>
      <trkpt lat="42.20822" lon="0.84344">
        <ele>962.6</ele>
        <time>2023-07-23T07:45:02Z</time>
      </trkpt>
      <trkpt lat="42.20823" lon="0.84341">
        <ele>962.6</ele>
        <time>2023-07-23T07:45:03Z</time>
      </trkpt>
      <trkpt lat="42.20825" lon="0.84338">
        <ele>962.8</ele>
        <time>2023-07-23T07:45:04Z</time>
      </trkpt>
      <trkpt lat="42.20826" lon="0.84335">
        <ele>962.8</ele>
        <time>2023-07-23T07:45:05Z</time>
      </trkpt>
      <trkpt lat="42.20828" lon="0.84332">
        <ele>963</ele>
        <time>2023-07-23T07:45:06Z</time>
      </trkpt>
      <trkpt lat="42.20831" lon="0.8433">
        <ele>963.2</ele>
        <time>2023-07-23T07:45:07Z</time>
      </trkpt>
      <trkpt lat="42.20833" lon="0.84327">
        <ele>963.4</ele>
        <time>2023-07-23T07:45:08Z</time>
      </trkpt>
      <trkpt lat="42.20835" lon="0.84325">
        <ele>963.8</ele>
        <time>2023-07-23T07:45:09Z</time>
      </trkpt>
      <trkpt lat="42.20837" lon="0.84323">
        <ele>964</ele>
        <time>2023-07-23T07:45:10Z</time>
      </trkpt>
      <trkpt lat="42.20839" lon="0.84321">
        <ele>964.4</ele>
        <time>2023-07-23T07:45:11Z</time>
      </trkpt>
      <trkpt lat="42.20842" lon="0.84318">
        <ele>964.4</ele>
        <time>2023-07-23T07:45:12Z</time>
      </trkpt>
      <trkpt lat="42.20842" lon="0.84318">
        <ele>964.6</ele>
        <time>2023-07-23T07:45:13Z</time>
      </trkpt>
      <trkpt lat="42.20846" lon="0.84314">
        <ele>964.6</ele>
        <time>2023-07-23T07:45:14Z</time>
      </trkpt>
      <trkpt lat="42.20848" lon="0.84311">
        <ele>964.8</ele>
        <time>2023-07-23T07:45:15Z</time>
      </trkpt>
      <trkpt lat="42.2085" lon="0.84308">
        <ele>964.8</ele>
        <time>2023-07-23T07:45:16Z</time>
      </trkpt>
      <trkpt lat="42.20852" lon="0.84306">
        <ele>964.8</ele>
        <time>2023-07-23T07:45:17Z</time>
      </trkpt>
      <trkpt lat="42.20854" lon="0.84303">
        <ele>965</ele>
        <time>2023-07-23T07:45:18Z</time>
      </trkpt>
      <trkpt lat="42.20856" lon="0.843">
        <ele>965</ele>
        <time>2023-07-23T07:45:19Z</time>
      </trkpt>
      <trkpt lat="42.20856" lon="0.843">
        <ele>965.2</ele>
        <time>2023-07-23T07:45:20Z</time>
      </trkpt>
      <trkpt lat="42.20859" lon="0.84294">
        <ele>965.2</ele>
        <time>2023-07-23T07:45:21Z</time>
      </trkpt>
      <trkpt lat="42.20861" lon="0.84292">
        <ele>965.4</ele>
        <time>2023-07-23T07:45:22Z</time>
      </trkpt>
      <trkpt lat="42.20864" lon="0.84289">
        <ele>965.6</ele>
        <time>2023-07-23T07:45:23Z</time>
      </trkpt>
      <trkpt lat="42.20866" lon="0.84287">
        <ele>965.8</ele>
        <time>2023-07-23T07:45:24Z</time>
      </trkpt>
      <trkpt lat="42.20868" lon="0.84284">
        <ele>966</ele>
        <time>2023-07-23T07:45:25Z</time>
      </trkpt>
      <trkpt lat="42.2087" lon="0.84281">
        <ele>966.2</ele>
        <time>2023-07-23T07:45:26Z</time>
      </trkpt>
      <trkpt lat="42.20872" lon="0.84278">
        <ele>966.4</ele>
        <time>2023-07-23T07:45:27Z</time>
      </trkpt>
      <trkpt lat="42.20873" lon="0.84274">
        <ele>966.6</ele>
        <time>2023-07-23T07:45:28Z</time>
      </trkpt>
      <trkpt lat="42.20874" lon="0.84271">
        <ele>966.8</ele>
        <time>2023-07-23T07:45:29Z</time>
      </trkpt>
      <trkpt lat="42.20875" lon="0.84267">
        <ele>967</ele>
        <time>2023-07-23T07:45:30Z</time>
      </trkpt>
      <trkpt lat="42.20876" lon="0.84263">
        <ele>967.4</ele>
        <time>2023-07-23T07:45:31Z</time>
      </trkpt>
      <trkpt lat="42.20876" lon="0.84259">
        <ele>968</ele>
        <time>2023-07-23T07:45:32Z</time>
      </trkpt>
      <trkpt lat="42.20876" lon="0.84255">
        <ele>968.4</ele>
        <time>2023-07-23T07:45:33Z</time>
      </trkpt>
      <trkpt lat="42.20876" lon="0.84251">
        <ele>968.4</ele>
        <time>2023-07-23T07:45:34Z</time>
      </trkpt>
      <trkpt lat="42.20875" lon="0.84247">
        <ele>968.6</ele>
        <time>2023-07-23T07:45:35Z</time>
      </trkpt>
      <trkpt lat="42.20874" lon="0.84243">
        <ele>968.8</ele>
        <time>2023-07-23T07:45:36Z</time>
      </trkpt>
      <trkpt lat="42.20873" lon="0.84239">
        <ele>969.2</ele>
        <time>2023-07-23T07:45:37Z</time>
      </trkpt>
      <trkpt lat="42.20872" lon="0.84234">
        <ele>969.4</ele>
        <time>2023-07-23T07:45:38Z</time>
      </trkpt>
      <trkpt lat="42.20871" lon="0.8423">
        <ele>969.8</ele>
        <time>2023-07-23T07:45:39Z</time>
      </trkpt>
      <trkpt lat="42.20871" lon="0.84226">
        <ele>970</ele>
        <time>2023-07-23T07:45:40Z</time>
      </trkpt>
      <trkpt lat="42.2087" lon="0.84221">
        <ele>970</ele>
        <time>2023-07-23T07:45:41Z</time>
      </trkpt>
      <trkpt lat="42.20869" lon="0.84217">
        <ele>970.4</ele>
        <time>2023-07-23T07:45:42Z</time>
      </trkpt>
      <trkpt lat="42.20867" lon="0.84213">
        <ele>970.6</ele>
        <time>2023-07-23T07:45:43Z</time>
      </trkpt>
      <trkpt lat="42.20866" lon="0.84209">
        <ele>971</ele>
        <time>2023-07-23T07:45:44Z</time>
      </trkpt>
      <trkpt lat="42.20865" lon="0.84205">
        <ele>971</ele>
        <time>2023-07-23T07:45:45Z</time>
      </trkpt>
      <trkpt lat="42.20863" lon="0.84201">
        <ele>971.2</ele>
        <time>2023-07-23T07:45:46Z</time>
      </trkpt>
      <trkpt lat="42.20863" lon="0.84201">
        <ele>971.8</ele>
        <time>2023-07-23T07:45:47Z</time>
      </trkpt>
      <trkpt lat="42.2086" lon="0.84193">
        <ele>972.2</ele>
        <time>2023-07-23T07:45:48Z</time>
      </trkpt>
      <trkpt lat="42.20859" lon="0.84189">
        <ele>972.4</ele>
        <time>2023-07-23T07:45:49Z</time>
      </trkpt>
      <trkpt lat="42.20857" lon="0.84185">
        <ele>972.6</ele>
        <time>2023-07-23T07:45:50Z</time>
      </trkpt>
      <trkpt lat="42.20856" lon="0.84182">
        <ele>973</ele>
        <time>2023-07-23T07:45:51Z</time>
      </trkpt>
      <trkpt lat="42.20855" lon="0.84178">
        <ele>973.2</ele>
        <time>2023-07-23T07:45:52Z</time>
      </trkpt>
      <trkpt lat="42.20853" lon="0.84174">
        <ele>973.4</ele>
        <time>2023-07-23T07:45:53Z</time>
      </trkpt>
      <trkpt lat="42.20852" lon="0.84171">
        <ele>973.6</ele>
        <time>2023-07-23T07:45:54Z</time>
      </trkpt>
      <trkpt lat="42.20851" lon="0.84168">
        <ele>973.8</ele>
        <time>2023-07-23T07:45:55Z</time>
      </trkpt>
      <trkpt lat="42.2085" lon="0.84165">
        <ele>974</ele>
        <time>2023-07-23T07:45:56Z</time>
      </trkpt>
      <trkpt lat="42.20849" lon="0.84161">
        <ele>974.2</ele>
        <time>2023-07-23T07:45:57Z</time>
      </trkpt>
      <trkpt lat="42.20848" lon="0.84158">
        <ele>974.4</ele>
        <time>2023-07-23T07:45:58Z</time>
      </trkpt>
      <trkpt lat="42.20847" lon="0.84154">
        <ele>974.8</ele>
        <time>2023-07-23T07:45:59Z</time>
      </trkpt>
      <trkpt lat="42.20846" lon="0.8415">
        <ele>975</ele>
        <time>2023-07-23T07:46:00Z</time>
      </trkpt>
      <trkpt lat="42.20845" lon="0.84146">
        <ele>975.4</ele>
        <time>2023-07-23T07:46:01Z</time>
      </trkpt>
      <trkpt lat="42.20845" lon="0.84142">
        <ele>975.6</ele>
        <time>2023-07-23T07:46:02Z</time>
      </trkpt>
      <trkpt lat="42.20845" lon="0.84137">
        <ele>975.8</ele>
        <time>2023-07-23T07:46:03Z</time>
      </trkpt>
      <trkpt lat="42.20845" lon="0.84133">
        <ele>975.8</ele>
        <time>2023-07-23T07:46:04Z</time>
      </trkpt>
      <trkpt lat="42.20844" lon="0.8413">
        <ele>976</ele>
        <time>2023-07-23T07:46:05Z</time>
      </trkpt>
      <trkpt lat="42.20844" lon="0.84126">
        <ele>976.2</ele>
        <time>2023-07-23T07:46:06Z</time>
      </trkpt>
      <trkpt lat="42.20844" lon="0.84122">
        <ele>976.4</ele>
        <time>2023-07-23T07:46:07Z</time>
      </trkpt>
      <trkpt lat="42.20844" lon="0.84118">
        <ele>976.6</ele>
        <time>2023-07-23T07:46:08Z</time>
      </trkpt>
      <trkpt lat="42.20843" lon="0.84114">
        <ele>976.8</ele>
        <time>2023-07-23T07:46:09Z</time>
      </trkpt>
      <trkpt lat="42.20843" lon="0.84111">
        <ele>977.2</ele>
        <time>2023-07-23T07:46:10Z</time>
      </trkpt>
      <trkpt lat="42.20842" lon="0.84107">
        <ele>977.6</ele>
        <time>2023-07-23T07:46:11Z</time>
      </trkpt>
      <trkpt lat="42.20842" lon="0.84107">
        <ele>977.6</ele>
        <time>2023-07-23T07:46:12Z</time>
      </trkpt>
      <trkpt lat="42.20841" lon="0.841">
        <ele>977.8</ele>
        <time>2023-07-23T07:46:13Z</time>
      </trkpt>
      <trkpt lat="42.2084" lon="0.84097">
        <ele>978</ele>
        <time>2023-07-23T07:46:14Z</time>
      </trkpt>
      <trkpt lat="42.20839" lon="0.84094">
        <ele>978.2</ele>
        <time>2023-07-23T07:46:15Z</time>
      </trkpt>
      <trkpt lat="42.20838" lon="0.84091">
        <ele>978.2</ele>
        <time>2023-07-23T07:46:16Z</time>
      </trkpt>
      <trkpt lat="42.20837" lon="0.84088">
        <ele>978.6</ele>
        <time>2023-07-23T07:46:17Z</time>
      </trkpt>
      <trkpt lat="42.20836" lon="0.84085">
        <ele>978.6</ele>
        <time>2023-07-23T07:46:18Z</time>
      </trkpt>
      <trkpt lat="42.20835" lon="0.84082">
        <ele>978.8</ele>
        <time>2023-07-23T07:46:19Z</time>
      </trkpt>
      <trkpt lat="42.20834" lon="0.84078">
        <ele>979</ele>
        <time>2023-07-23T07:46:20Z</time>
      </trkpt>
      <trkpt lat="42.20833" lon="0.84075">
        <ele>979</ele>
        <time>2023-07-23T07:46:21Z</time>
      </trkpt>
      <trkpt lat="42.20832" lon="0.84072">
        <ele>979.2</ele>
        <time>2023-07-23T07:46:22Z</time>
      </trkpt>
      <trkpt lat="42.20832" lon="0.84072">
        <ele>979.2</ele>
        <time>2023-07-23T07:46:23Z</time>
      </trkpt>
      <trkpt lat="42.20832" lon="0.84064">
        <ele>979.2</ele>
        <time>2023-07-23T07:46:24Z</time>
      </trkpt>
      <trkpt lat="42.20832" lon="0.8406">
        <ele>979.4</ele>
        <time>2023-07-23T07:46:25Z</time>
      </trkpt>
      <trkpt lat="42.20833" lon="0.84056">
        <ele>979.4</ele>
        <time>2023-07-23T07:46:26Z</time>
      </trkpt>
      <trkpt lat="42.20834" lon="0.84052">
        <ele>979.8</ele>
        <time>2023-07-23T07:46:27Z</time>
      </trkpt>
      <trkpt lat="42.20835" lon="0.84048">
        <ele>979.8</ele>
        <time>2023-07-23T07:46:28Z</time>
      </trkpt>
      <trkpt lat="42.20836" lon="0.84044">
        <ele>980</ele>
        <time>2023-07-23T07:46:29Z</time>
      </trkpt>
      <trkpt lat="42.20837" lon="0.8404">
        <ele>980.2</ele>
        <time>2023-07-23T07:46:30Z</time>
      </trkpt>
      <trkpt lat="42.20838" lon="0.84036">
        <ele>980.4</ele>
        <time>2023-07-23T07:46:31Z</time>
      </trkpt>
      <trkpt lat="42.2084" lon="0.84033">
        <ele>980.6</ele>
        <time>2023-07-23T07:46:32Z</time>
      </trkpt>
      <trkpt lat="42.20841" lon="0.84029">
        <ele>981</ele>
        <time>2023-07-23T07:46:33Z</time>
      </trkpt>
      <trkpt lat="42.20842" lon="0.84026">
        <ele>981.2</ele>
        <time>2023-07-23T07:46:34Z</time>
      </trkpt>
      <trkpt lat="42.20843" lon="0.84022">
        <ele>981.4</ele>
        <time>2023-07-23T07:46:35Z</time>
      </trkpt>
      <trkpt lat="42.20844" lon="0.8402">
        <ele>981.8</ele>
        <time>2023-07-23T07:46:36Z</time>
      </trkpt>
      <trkpt lat="42.20846" lon="0.84016">
        <ele>982</ele>
        <time>2023-07-23T07:46:37Z</time>
      </trkpt>
      <trkpt lat="42.20847" lon="0.84012">
        <ele>982</ele>
        <time>2023-07-23T07:46:38Z</time>
      </trkpt>
      <trkpt lat="42.20848" lon="0.84009">
        <ele>982.2</ele>
        <time>2023-07-23T07:46:39Z</time>
      </trkpt>
      <trkpt lat="42.2085" lon="0.84005">
        <ele>982.4</ele>
        <time>2023-07-23T07:46:40Z</time>
      </trkpt>
      <trkpt lat="42.20851" lon="0.84001">
        <ele>982.8</ele>
        <time>2023-07-23T07:46:41Z</time>
      </trkpt>
      <trkpt lat="42.20852" lon="0.83998">
        <ele>983</ele>
        <time>2023-07-23T07:46:42Z</time>
      </trkpt>
      <trkpt lat="42.20853" lon="0.83994">
        <ele>983.4</ele>
        <time>2023-07-23T07:46:43Z</time>
      </trkpt>
      <trkpt lat="42.20854" lon="0.83991">
        <ele>983.6</ele>
        <time>2023-07-23T07:46:44Z</time>
      </trkpt>
      <trkpt lat="42.20855" lon="0.83988">
        <ele>983.6</ele>
        <time>2023-07-23T07:46:45Z</time>
      </trkpt>
      <trkpt lat="42.20856" lon="0.83984">
        <ele>983.8</ele>
        <time>2023-07-23T07:46:46Z</time>
      </trkpt>
      <trkpt lat="42.20856" lon="0.83981">
        <ele>984</ele>
        <time>2023-07-23T07:46:47Z</time>
      </trkpt>
      <trkpt lat="42.20858" lon="0.83977">
        <ele>984.2</ele>
        <time>2023-07-23T07:46:48Z</time>
      </trkpt>
      <trkpt lat="42.20858" lon="0.83974">
        <ele>984.4</ele>
        <time>2023-07-23T07:46:49Z</time>
      </trkpt>
      <trkpt lat="42.20859" lon="0.8397">
        <ele>984.6</ele>
        <time>2023-07-23T07:46:50Z</time>
      </trkpt>
      <trkpt lat="42.20859" lon="0.8397">
        <ele>984.8</ele>
        <time>2023-07-23T07:46:51Z</time>
      </trkpt>
      <trkpt lat="42.20861" lon="0.83963">
        <ele>984.6</ele>
        <time>2023-07-23T07:46:52Z</time>
      </trkpt>
      <trkpt lat="42.20863" lon="0.8396">
        <ele>985</ele>
        <time>2023-07-23T07:46:53Z</time>
      </trkpt>
      <trkpt lat="42.20865" lon="0.83959">
        <ele>985</ele>
        <time>2023-07-23T07:46:54Z</time>
      </trkpt>
      <trkpt lat="42.20867" lon="0.8396">
        <ele>985.2</ele>
        <time>2023-07-23T07:46:55Z</time>
      </trkpt>
      <trkpt lat="42.20869" lon="0.83961">
        <ele>985.4</ele>
        <time>2023-07-23T07:46:56Z</time>
      </trkpt>
      <trkpt lat="42.2087" lon="0.83963">
        <ele>985.4</ele>
        <time>2023-07-23T07:46:57Z</time>
      </trkpt>
      <trkpt lat="42.20871" lon="0.83967">
        <ele>985.6</ele>
        <time>2023-07-23T07:46:58Z</time>
      </trkpt>
      <trkpt lat="42.20871" lon="0.83969">
        <ele>985.8</ele>
        <time>2023-07-23T07:46:59Z</time>
      </trkpt>
      <trkpt lat="42.2087" lon="0.83972">
        <ele>986</ele>
        <time>2023-07-23T07:47:00Z</time>
      </trkpt>
      <trkpt lat="42.20869" lon="0.83976">
        <ele>986.2</ele>
        <time>2023-07-23T07:47:01Z</time>
      </trkpt>
      <trkpt lat="42.20868" lon="0.83979">
        <ele>986.4</ele>
        <time>2023-07-23T07:47:02Z</time>
      </trkpt>
      <trkpt lat="42.20867" lon="0.83983">
        <ele>986.8</ele>
        <time>2023-07-23T07:47:03Z</time>
      </trkpt>
      <trkpt lat="42.20866" lon="0.83986">
        <ele>987</ele>
        <time>2023-07-23T07:47:04Z</time>
      </trkpt>
      <trkpt lat="42.20865" lon="0.8399">
        <ele>987.4</ele>
        <time>2023-07-23T07:47:05Z</time>
      </trkpt>
      <trkpt lat="42.20865" lon="0.83994">
        <ele>987.6</ele>
        <time>2023-07-23T07:47:06Z</time>
      </trkpt>
      <trkpt lat="42.20864" lon="0.83998">
        <ele>988.2</ele>
        <time>2023-07-23T07:47:07Z</time>
      </trkpt>
      <trkpt lat="42.20864" lon="0.84002">
        <ele>988.6</ele>
        <time>2023-07-23T07:47:08Z</time>
      </trkpt>
      <trkpt lat="42.20864" lon="0.84006">
        <ele>988.6</ele>
        <time>2023-07-23T07:47:09Z</time>
      </trkpt>
      <trkpt lat="42.20864" lon="0.84006">
        <ele>988.8</ele>
        <time>2023-07-23T07:47:10Z</time>
      </trkpt>
      <trkpt lat="42.20863" lon="0.84013">
        <ele>989</ele>
        <time>2023-07-23T07:47:11Z</time>
      </trkpt>
      <trkpt lat="42.20863" lon="0.84018">
        <ele>989.2</ele>
        <time>2023-07-23T07:47:12Z</time>
      </trkpt>
      <trkpt lat="42.20863" lon="0.84022">
        <ele>989.2</ele>
        <time>2023-07-23T07:47:13Z</time>
      </trkpt>
      <trkpt lat="42.20863" lon="0.84026">
        <ele>989.6</ele>
        <time>2023-07-23T07:47:14Z</time>
      </trkpt>
      <trkpt lat="42.20863" lon="0.84032">
        <ele>989.8</ele>
        <time>2023-07-23T07:47:15Z</time>
      </trkpt>
      <trkpt lat="42.20863" lon="0.84037">
        <ele>990</ele>
        <time>2023-07-23T07:47:16Z</time>
      </trkpt>
      <trkpt lat="42.20863" lon="0.84043">
        <ele>990.4</ele>
        <time>2023-07-23T07:47:17Z</time>
      </trkpt>
      <trkpt lat="42.20863" lon="0.84047">
        <ele>990.4</ele>
        <time>2023-07-23T07:47:18Z</time>
      </trkpt>
      <trkpt lat="42.20864" lon="0.84052">
        <ele>990.8</ele>
        <time>2023-07-23T07:47:19Z</time>
      </trkpt>
      <trkpt lat="42.20864" lon="0.84058">
        <ele>990.8</ele>
        <time>2023-07-23T07:47:20Z</time>
      </trkpt>
      <trkpt lat="42.20865" lon="0.84063">
        <ele>991.2</ele>
        <time>2023-07-23T07:47:21Z</time>
      </trkpt>
      <trkpt lat="42.20866" lon="0.84069">
        <ele>991.4</ele>
        <time>2023-07-23T07:47:22Z</time>
      </trkpt>
      <trkpt lat="42.20868" lon="0.84074">
        <ele>991.6</ele>
        <time>2023-07-23T07:47:23Z</time>
      </trkpt>
      <trkpt lat="42.20869" lon="0.8408">
        <ele>992</ele>
        <time>2023-07-23T07:47:24Z</time>
      </trkpt>
      <trkpt lat="42.2087" lon="0.84084">
        <ele>992.2</ele>
        <time>2023-07-23T07:47:25Z</time>
      </trkpt>
      <trkpt lat="42.20872" lon="0.84089">
        <ele>992.6</ele>
        <time>2023-07-23T07:47:26Z</time>
      </trkpt>
      <trkpt lat="42.20874" lon="0.84093">
        <ele>992.8</ele>
        <time>2023-07-23T07:47:27Z</time>
      </trkpt>
      <trkpt lat="42.20877" lon="0.84098">
        <ele>993.2</ele>
        <time>2023-07-23T07:47:28Z</time>
      </trkpt>
      <trkpt lat="42.20879" lon="0.84103">
        <ele>993.6</ele>
        <time>2023-07-23T07:47:29Z</time>
      </trkpt>
      <trkpt lat="42.20882" lon="0.84107">
        <ele>993.6</ele>
        <time>2023-07-23T07:47:30Z</time>
      </trkpt>
      <trkpt lat="42.20884" lon="0.84111">
        <ele>994</ele>
        <time>2023-07-23T07:47:31Z</time>
      </trkpt>
      <trkpt lat="42.20887" lon="0.84115">
        <ele>994</ele>
        <time>2023-07-23T07:47:32Z</time>
      </trkpt>
      <trkpt lat="42.2089" lon="0.8412">
        <ele>994.2</ele>
        <time>2023-07-23T07:47:33Z</time>
      </trkpt>
      <trkpt lat="42.20892" lon="0.84124">
        <ele>994.4</ele>
        <time>2023-07-23T07:47:34Z</time>
      </trkpt>
      <trkpt lat="42.20895" lon="0.84128">
        <ele>994.4</ele>
        <time>2023-07-23T07:47:35Z</time>
      </trkpt>
      <trkpt lat="42.20897" lon="0.84132">
        <ele>994.8</ele>
        <time>2023-07-23T07:47:36Z</time>
      </trkpt>
      <trkpt lat="42.209" lon="0.84136">
        <ele>994.8</ele>
        <time>2023-07-23T07:47:37Z</time>
      </trkpt>
      <trkpt lat="42.20902" lon="0.8414">
        <ele>995</ele>
        <time>2023-07-23T07:47:38Z</time>
      </trkpt>
      <trkpt lat="42.20902" lon="0.8414">
        <ele>995.2</ele>
        <time>2023-07-23T07:47:39Z</time>
      </trkpt>
      <trkpt lat="42.20906" lon="0.84149">
        <ele>995.4</ele>
        <time>2023-07-23T07:47:40Z</time>
      </trkpt>
      <trkpt lat="42.20909" lon="0.84154">
        <ele>995.6</ele>
        <time>2023-07-23T07:47:41Z</time>
      </trkpt>
      <trkpt lat="42.20909" lon="0.84154">
        <ele>996</ele>
        <time>2023-07-23T07:47:42Z</time>
      </trkpt>
      <trkpt lat="42.20913" lon="0.84162">
        <ele>996.6</ele>
        <time>2023-07-23T07:47:43Z</time>
      </trkpt>
      <trkpt lat="42.20915" lon="0.84167">
        <ele>996.6</ele>
        <time>2023-07-23T07:47:44Z</time>
      </trkpt>
      <trkpt lat="42.20918" lon="0.84171">
        <ele>997</ele>
        <time>2023-07-23T07:47:45Z</time>
      </trkpt>
      <trkpt lat="42.20921" lon="0.84175">
        <ele>997.2</ele>
        <time>2023-07-23T07:47:46Z</time>
      </trkpt>
      <trkpt lat="42.20925" lon="0.84178">
        <ele>997.8</ele>
        <time>2023-07-23T07:47:47Z</time>
      </trkpt>
      <trkpt lat="42.20929" lon="0.84179">
        <ele>998</ele>
        <time>2023-07-23T07:47:48Z</time>
      </trkpt>
      <trkpt lat="42.20933" lon="0.84179">
        <ele>998</ele>
        <time>2023-07-23T07:47:49Z</time>
      </trkpt>
      <trkpt lat="42.20937" lon="0.84177">
        <ele>998.2</ele>
        <time>2023-07-23T07:47:50Z</time>
      </trkpt>
      <trkpt lat="42.20941" lon="0.84176">
        <ele>998.4</ele>
        <time>2023-07-23T07:47:51Z</time>
      </trkpt>
      <trkpt lat="42.20945" lon="0.84173">
        <ele>998.6</ele>
        <time>2023-07-23T07:47:52Z</time>
      </trkpt>
      <trkpt lat="42.20949" lon="0.8417">
        <ele>999</ele>
        <time>2023-07-23T07:47:53Z</time>
      </trkpt>
      <trkpt lat="42.20952" lon="0.84167">
        <ele>999.2</ele>
        <time>2023-07-23T07:47:54Z</time>
      </trkpt>
      <trkpt lat="42.20955" lon="0.84164">
        <ele>999.6</ele>
        <time>2023-07-23T07:47:55Z</time>
      </trkpt>
      <trkpt lat="42.20957" lon="0.84159">
        <ele>999.8</ele>
        <time>2023-07-23T07:47:56Z</time>
      </trkpt>
      <trkpt lat="42.2096" lon="0.84155">
        <ele>1000</ele>
        <time>2023-07-23T07:47:57Z</time>
      </trkpt>
      <trkpt lat="42.20963" lon="0.84151">
        <ele>1000.6</ele>
        <time>2023-07-23T07:47:58Z</time>
      </trkpt>
      <trkpt lat="42.20965" lon="0.84148">
        <ele>1001.2</ele>
        <time>2023-07-23T07:47:59Z</time>
      </trkpt>
      <trkpt lat="42.20968" lon="0.84144">
        <ele>1001.6</ele>
        <time>2023-07-23T07:48:00Z</time>
      </trkpt>
      <trkpt lat="42.20971" lon="0.8414">
        <ele>1001.6</ele>
        <time>2023-07-23T07:48:01Z</time>
      </trkpt>
      <trkpt lat="42.20973" lon="0.84137">
        <ele>1002</ele>
        <time>2023-07-23T07:48:02Z</time>
      </trkpt>
      <trkpt lat="42.20973" lon="0.84137">
        <ele>1002</ele>
        <time>2023-07-23T07:48:03Z</time>
      </trkpt>
      <trkpt lat="42.20979" lon="0.84132">
        <ele>1002.6</ele>
        <time>2023-07-23T07:48:04Z</time>
      </trkpt>
      <trkpt lat="42.20982" lon="0.84128">
        <ele>1002.8</ele>
        <time>2023-07-23T07:48:05Z</time>
      </trkpt>
      <trkpt lat="42.20984" lon="0.84125">
        <ele>1003.4</ele>
        <time>2023-07-23T07:48:06Z</time>
      </trkpt>
      <trkpt lat="42.20987" lon="0.84121">
        <ele>1004</ele>
        <time>2023-07-23T07:48:07Z</time>
      </trkpt>
      <trkpt lat="42.20989" lon="0.84116">
        <ele>1004.2</ele>
        <time>2023-07-23T07:48:08Z</time>
      </trkpt>
      <trkpt lat="42.20992" lon="0.84113">
        <ele>1004.6</ele>
        <time>2023-07-23T07:48:09Z</time>
      </trkpt>
      <trkpt lat="42.20995" lon="0.84108">
        <ele>1004.8</ele>
        <time>2023-07-23T07:48:10Z</time>
      </trkpt>
      <trkpt lat="42.20997" lon="0.84103">
        <ele>1005.2</ele>
        <time>2023-07-23T07:48:11Z</time>
      </trkpt>
      <trkpt lat="42.20999" lon="0.84099">
        <ele>1005.6</ele>
        <time>2023-07-23T07:48:12Z</time>
      </trkpt>
      <trkpt lat="42.21001" lon="0.84094">
        <ele>1006.2</ele>
        <time>2023-07-23T07:48:13Z</time>
      </trkpt>
      <trkpt lat="42.21003" lon="0.8409">
        <ele>1006.6</ele>
        <time>2023-07-23T07:48:14Z</time>
      </trkpt>
      <trkpt lat="42.21005" lon="0.84086">
        <ele>1006.8</ele>
        <time>2023-07-23T07:48:15Z</time>
      </trkpt>
      <trkpt lat="42.21007" lon="0.84081">
        <ele>1007.6</ele>
        <time>2023-07-23T07:48:16Z</time>
      </trkpt>
      <trkpt lat="42.2101" lon="0.84076">
        <ele>1007.8</ele>
        <time>2023-07-23T07:48:17Z</time>
      </trkpt>
      <trkpt lat="42.21012" lon="0.84072">
        <ele>1008.8</ele>
        <time>2023-07-23T07:48:18Z</time>
      </trkpt>
      <trkpt lat="42.21014" lon="0.84068">
        <ele>1009.4</ele>
        <time>2023-07-23T07:48:19Z</time>
      </trkpt>
      <trkpt lat="42.21017" lon="0.84064">
        <ele>1009.6</ele>
        <time>2023-07-23T07:48:20Z</time>
      </trkpt>
      <trkpt lat="42.21018" lon="0.84061">
        <ele>1010.4</ele>
        <time>2023-07-23T07:48:21Z</time>
      </trkpt>
      <trkpt lat="42.2102" lon="0.84057">
        <ele>1010.8</ele>
        <time>2023-07-23T07:48:22Z</time>
      </trkpt>
      <trkpt lat="42.21022" lon="0.84053">
        <ele>1011.2</ele>
        <time>2023-07-23T07:48:23Z</time>
      </trkpt>
      <trkpt lat="42.21024" lon="0.84049">
        <ele>1011.4</ele>
        <time>2023-07-23T07:48:24Z</time>
      </trkpt>
      <trkpt lat="42.21027" lon="0.84045">
        <ele>1012.2</ele>
        <time>2023-07-23T07:48:25Z</time>
      </trkpt>
      <trkpt lat="42.21029" lon="0.84041">
        <ele>1013</ele>
        <time>2023-07-23T07:48:26Z</time>
      </trkpt>
      <trkpt lat="42.21032" lon="0.84038">
        <ele>1013.2</ele>
        <time>2023-07-23T07:48:27Z</time>
      </trkpt>
      <trkpt lat="42.21035" lon="0.84034">
        <ele>1014</ele>
        <time>2023-07-23T07:48:28Z</time>
      </trkpt>
      <trkpt lat="42.21038" lon="0.8403">
        <ele>1014.4</ele>
        <time>2023-07-23T07:48:29Z</time>
      </trkpt>
      <trkpt lat="42.2104" lon="0.84026">
        <ele>1014.8</ele>
        <time>2023-07-23T07:48:30Z</time>
      </trkpt>
      <trkpt lat="42.21043" lon="0.84022">
        <ele>1015</ele>
        <time>2023-07-23T07:48:31Z</time>
      </trkpt>
      <trkpt lat="42.21045" lon="0.84018">
        <ele>1015.4</ele>
        <time>2023-07-23T07:48:32Z</time>
      </trkpt>
      <trkpt lat="42.21047" lon="0.84013">
        <ele>1015.8</ele>
        <time>2023-07-23T07:48:33Z</time>
      </trkpt>
      <trkpt lat="42.21049" lon="0.8401">
        <ele>1016</ele>
        <time>2023-07-23T07:48:34Z</time>
      </trkpt>
      <trkpt lat="42.21052" lon="0.84006">
        <ele>1016.4</ele>
        <time>2023-07-23T07:48:35Z</time>
      </trkpt>
      <trkpt lat="42.21055" lon="0.84003">
        <ele>1016.6</ele>
        <time>2023-07-23T07:48:36Z</time>
      </trkpt>
      <trkpt lat="42.21058" lon="0.83999">
        <ele>1017.4</ele>
        <time>2023-07-23T07:48:37Z</time>
      </trkpt>
      <trkpt lat="42.2106" lon="0.83995">
        <ele>1017.6</ele>
        <time>2023-07-23T07:48:38Z</time>
      </trkpt>
      <trkpt lat="42.21063" lon="0.83992">
        <ele>1018</ele>
        <time>2023-07-23T07:48:39Z</time>
      </trkpt>
      <trkpt lat="42.21067" lon="0.83988">
        <ele>1018.4</ele>
        <time>2023-07-23T07:48:40Z</time>
      </trkpt>
      <trkpt lat="42.2107" lon="0.83984">
        <ele>1018.6</ele>
        <time>2023-07-23T07:48:41Z</time>
      </trkpt>
      <trkpt lat="42.21073" lon="0.83981">
        <ele>1019.2</ele>
        <time>2023-07-23T07:48:42Z</time>
      </trkpt>
      <trkpt lat="42.21076" lon="0.83977">
        <ele>1019.6</ele>
        <time>2023-07-23T07:48:43Z</time>
      </trkpt>
      <trkpt lat="42.21079" lon="0.83974">
        <ele>1020</ele>
        <time>2023-07-23T07:48:44Z</time>
      </trkpt>
      <trkpt lat="42.21083" lon="0.8397">
        <ele>1020</ele>
        <time>2023-07-23T07:48:45Z</time>
      </trkpt>
      <trkpt lat="42.21086" lon="0.83966">
        <ele>1020</ele>
        <time>2023-07-23T07:48:46Z</time>
      </trkpt>
      <trkpt lat="42.21089" lon="0.83963">
        <ele>1020.8</ele>
        <time>2023-07-23T07:48:47Z</time>
      </trkpt>
      <trkpt lat="42.21091" lon="0.83958">
        <ele>1021</ele>
        <time>2023-07-23T07:48:48Z</time>
      </trkpt>
      <trkpt lat="42.21094" lon="0.83953">
        <ele>1021.6</ele>
        <time>2023-07-23T07:48:49Z</time>
      </trkpt>
      <trkpt lat="42.21097" lon="0.83949">
        <ele>1021.8</ele>
        <time>2023-07-23T07:48:50Z</time>
      </trkpt>
      <trkpt lat="42.211" lon="0.83943">
        <ele>1022.4</ele>
        <time>2023-07-23T07:48:51Z</time>
      </trkpt>
      <trkpt lat="42.21103" lon="0.83939">
        <ele>1022.8</ele>
        <time>2023-07-23T07:48:52Z</time>
      </trkpt>
      <trkpt lat="42.21105" lon="0.83934">
        <ele>1023</ele>
        <time>2023-07-23T07:48:53Z</time>
      </trkpt>
      <trkpt lat="42.21109" lon="0.8393">
        <ele>1023.2</ele>
        <time>2023-07-23T07:48:54Z</time>
      </trkpt>
      <trkpt lat="42.21112" lon="0.83925">
        <ele>1023.6</ele>
        <time>2023-07-23T07:48:55Z</time>
      </trkpt>
      <trkpt lat="42.21117" lon="0.83919">
        <ele>1024.2</ele>
        <time>2023-07-23T07:48:56Z</time>
      </trkpt>
      <trkpt lat="42.21119" lon="0.83916">
        <ele>1024.4</ele>
        <time>2023-07-23T07:48:57Z</time>
      </trkpt>
      <trkpt lat="42.21122" lon="0.83911">
        <ele>1024.6</ele>
        <time>2023-07-23T07:48:58Z</time>
      </trkpt>
      <trkpt lat="42.21125" lon="0.83906">
        <ele>1024.6</ele>
        <time>2023-07-23T07:48:59Z</time>
      </trkpt>
      <trkpt lat="42.2113" lon="0.83902">
        <ele>1024.8</ele>
        <time>2023-07-23T07:49:00Z</time>
      </trkpt>
      <trkpt lat="42.21134" lon="0.83899">
        <ele>1024.8</ele>
        <time>2023-07-23T07:49:01Z</time>
      </trkpt>
      <trkpt lat="42.21138" lon="0.83895">
        <ele>1024.8</ele>
        <time>2023-07-23T07:49:02Z</time>
      </trkpt>
      <trkpt lat="42.21142" lon="0.83893">
        <ele>1024.8</ele>
        <time>2023-07-23T07:49:03Z</time>
      </trkpt>
      <trkpt lat="42.21147" lon="0.83894">
        <ele>1024.8</ele>
        <time>2023-07-23T07:49:04Z</time>
      </trkpt>
      <trkpt lat="42.21151" lon="0.83897">
        <ele>1024.8</ele>
        <time>2023-07-23T07:49:05Z</time>
      </trkpt>
      <trkpt lat="42.21153" lon="0.839">
        <ele>1024.6</ele>
        <time>2023-07-23T07:49:06Z</time>
      </trkpt>
      <trkpt lat="42.21155" lon="0.83906">
        <ele>1024.4</ele>
        <time>2023-07-23T07:49:07Z</time>
      </trkpt>
      <trkpt lat="42.21156" lon="0.83912">
        <ele>1024</ele>
        <time>2023-07-23T07:49:08Z</time>
      </trkpt>
      <trkpt lat="42.21156" lon="0.83917">
        <ele>1023.8</ele>
        <time>2023-07-23T07:49:09Z</time>
      </trkpt>
      <trkpt lat="42.21156" lon="0.83923">
        <ele>1023.6</ele>
        <time>2023-07-23T07:49:10Z</time>
      </trkpt>
      <trkpt lat="42.21156" lon="0.83929">
        <ele>1023.4</ele>
        <time>2023-07-23T07:49:11Z</time>
      </trkpt>
      <trkpt lat="42.21156" lon="0.83935">
        <ele>1023.4</ele>
        <time>2023-07-23T07:49:12Z</time>
      </trkpt>
      <trkpt lat="42.21157" lon="0.83941">
        <ele>1023.4</ele>
        <time>2023-07-23T07:49:13Z</time>
      </trkpt>
      <trkpt lat="42.21159" lon="0.83947">
        <ele>1023.4</ele>
        <time>2023-07-23T07:49:14Z</time>
      </trkpt>
      <trkpt lat="42.21162" lon="0.83953">
        <ele>1023.4</ele>
        <time>2023-07-23T07:49:15Z</time>
      </trkpt>
      <trkpt lat="42.21164" lon="0.83959">
        <ele>1023.4</ele>
        <time>2023-07-23T07:49:16Z</time>
      </trkpt>
      <trkpt lat="42.21164" lon="0.83959">
        <ele>1023.4</ele>
        <time>2023-07-23T07:49:17Z</time>
      </trkpt>
      <trkpt lat="42.21166" lon="0.83972">
        <ele>1023.4</ele>
        <time>2023-07-23T07:49:18Z</time>
      </trkpt>
      <trkpt lat="42.21166" lon="0.83978">
        <ele>1023.6</ele>
        <time>2023-07-23T07:49:19Z</time>
      </trkpt>
      <trkpt lat="42.21165" lon="0.83985">
        <ele>1023.8</ele>
        <time>2023-07-23T07:49:20Z</time>
      </trkpt>
      <trkpt lat="42.21165" lon="0.83991">
        <ele>1023.8</ele>
        <time>2023-07-23T07:49:21Z</time>
      </trkpt>
      <trkpt lat="42.21165" lon="0.83991">
        <ele>1023.8</ele>
        <time>2023-07-23T07:49:22Z</time>
      </trkpt>
      <trkpt lat="42.21164" lon="0.84004">
        <ele>1023.8</ele>
        <time>2023-07-23T07:49:23Z</time>
      </trkpt>
      <trkpt lat="42.21164" lon="0.8401">
        <ele>1024</ele>
        <time>2023-07-23T07:49:24Z</time>
      </trkpt>
      <trkpt lat="42.21165" lon="0.84016">
        <ele>1024</ele>
        <time>2023-07-23T07:49:25Z</time>
      </trkpt>
      <trkpt lat="42.21165" lon="0.84022">
        <ele>1024</ele>
        <time>2023-07-23T07:49:26Z</time>
      </trkpt>
      <trkpt lat="42.21165" lon="0.84022">
        <ele>1024</ele>
        <time>2023-07-23T07:49:27Z</time>
      </trkpt>
      <trkpt lat="42.21166" lon="0.84035">
        <ele>1024.2</ele>
        <time>2023-07-23T07:49:28Z</time>
      </trkpt>
      <trkpt lat="42.21166" lon="0.84041">
        <ele>1024.2</ele>
        <time>2023-07-23T07:49:29Z</time>
      </trkpt>
      <trkpt lat="42.21167" lon="0.84046">
        <ele>1024.2</ele>
        <time>2023-07-23T07:49:30Z</time>
      </trkpt>
      <trkpt lat="42.21168" lon="0.84052">
        <ele>1024.4</ele>
        <time>2023-07-23T07:49:31Z</time>
      </trkpt>
      <trkpt lat="42.21168" lon="0.84058">
        <ele>1024.8</ele>
        <time>2023-07-23T07:49:32Z</time>
      </trkpt>
      <trkpt lat="42.21169" lon="0.84063">
        <ele>1025.2</ele>
        <time>2023-07-23T07:49:33Z</time>
      </trkpt>
      <trkpt lat="42.2117" lon="0.84069">
        <ele>1025.8</ele>
        <time>2023-07-23T07:49:34Z</time>
      </trkpt>
      <trkpt lat="42.21171" lon="0.84074">
        <ele>1025.8</ele>
        <time>2023-07-23T07:49:35Z</time>
      </trkpt>
      <trkpt lat="42.21172" lon="0.84079">
        <ele>1026.4</ele>
        <time>2023-07-23T07:49:36Z</time>
      </trkpt>
      <trkpt lat="42.21172" lon="0.84084">
        <ele>1026.8</ele>
        <time>2023-07-23T07:49:37Z</time>
      </trkpt>
      <trkpt lat="42.21173" lon="0.84089">
        <ele>1027</ele>
        <time>2023-07-23T07:49:38Z</time>
      </trkpt>
      <trkpt lat="42.21174" lon="0.84095">
        <ele>1027.2</ele>
        <time>2023-07-23T07:49:39Z</time>
      </trkpt>
      <trkpt lat="42.21175" lon="0.841">
        <ele>1027.4</ele>
        <time>2023-07-23T07:49:40Z</time>
      </trkpt>
      <trkpt lat="42.21175" lon="0.84106">
        <ele>1027.8</ele>
        <time>2023-07-23T07:49:41Z</time>
      </trkpt>
      <trkpt lat="42.21176" lon="0.84111">
        <ele>1028.2</ele>
        <time>2023-07-23T07:49:42Z</time>
      </trkpt>
      <trkpt lat="42.21176" lon="0.84116">
        <ele>1028.6</ele>
        <time>2023-07-23T07:49:43Z</time>
      </trkpt>
      <trkpt lat="42.21176" lon="0.84122">
        <ele>1028.8</ele>
        <time>2023-07-23T07:49:44Z</time>
      </trkpt>
      <trkpt lat="42.21176" lon="0.84127">
        <ele>1028.8</ele>
        <time>2023-07-23T07:49:45Z</time>
      </trkpt>
      <trkpt lat="42.21176" lon="0.84132">
        <ele>1029.4</ele>
        <time>2023-07-23T07:49:46Z</time>
      </trkpt>
      <trkpt lat="42.21177" lon="0.84137">
        <ele>1029.8</ele>
        <time>2023-07-23T07:49:47Z</time>
      </trkpt>
      <trkpt lat="42.21177" lon="0.84142">
        <ele>1030.4</ele>
        <time>2023-07-23T07:49:48Z</time>
      </trkpt>
      <trkpt lat="42.21177" lon="0.84147">
        <ele>1030.6</ele>
        <time>2023-07-23T07:49:49Z</time>
      </trkpt>
      <trkpt lat="42.21178" lon="0.84152">
        <ele>1031.8</ele>
        <time>2023-07-23T07:49:50Z</time>
      </trkpt>
      <trkpt lat="42.21179" lon="0.84157">
        <ele>1032.6</ele>
        <time>2023-07-23T07:49:51Z</time>
      </trkpt>
      <trkpt lat="42.21179" lon="0.84162">
        <ele>1032.8</ele>
        <time>2023-07-23T07:49:52Z</time>
      </trkpt>
      <trkpt lat="42.2118" lon="0.84166">
        <ele>1033.4</ele>
        <time>2023-07-23T07:49:53Z</time>
      </trkpt>
      <trkpt lat="42.2118" lon="0.84171">
        <ele>1033.6</ele>
        <time>2023-07-23T07:49:54Z</time>
      </trkpt>
      <trkpt lat="42.2118" lon="0.84176">
        <ele>1034</ele>
        <time>2023-07-23T07:49:55Z</time>
      </trkpt>
      <trkpt lat="42.21181" lon="0.84181">
        <ele>1034.4</ele>
        <time>2023-07-23T07:49:56Z</time>
      </trkpt>
      <trkpt lat="42.21182" lon="0.84186">
        <ele>1035.2</ele>
        <time>2023-07-23T07:49:57Z</time>
      </trkpt>
      <trkpt lat="42.21183" lon="0.8419">
        <ele>1035.6</ele>
        <time>2023-07-23T07:49:58Z</time>
      </trkpt>
      <trkpt lat="42.21185" lon="0.84195">
        <ele>1035.8</ele>
        <time>2023-07-23T07:49:59Z</time>
      </trkpt>
      <trkpt lat="42.21187" lon="0.84199">
        <ele>1036.2</ele>
        <time>2023-07-23T07:50:00Z</time>
      </trkpt>
      <trkpt lat="42.21189" lon="0.84202">
        <ele>1036.4</ele>
        <time>2023-07-23T07:50:01Z</time>
      </trkpt>
      <trkpt lat="42.21192" lon="0.84206">
        <ele>1036.8</ele>
        <time>2023-07-23T07:50:02Z</time>
      </trkpt>
      <trkpt lat="42.21196" lon="0.84209">
        <ele>1037</ele>
        <time>2023-07-23T07:50:03Z</time>
      </trkpt>
      <trkpt lat="42.21199" lon="0.84212">
        <ele>1037</ele>
        <time>2023-07-23T07:50:04Z</time>
      </trkpt>
      <trkpt lat="42.21202" lon="0.84215">
        <ele>1037.2</ele>
        <time>2023-07-23T07:50:05Z</time>
      </trkpt>
      <trkpt lat="42.21205" lon="0.84218">
        <ele>1037.4</ele>
        <time>2023-07-23T07:50:06Z</time>
      </trkpt>
      <trkpt lat="42.21208" lon="0.84221">
        <ele>1038</ele>
        <time>2023-07-23T07:50:07Z</time>
      </trkpt>
      <trkpt lat="42.21211" lon="0.84223">
        <ele>1038.4</ele>
        <time>2023-07-23T07:50:08Z</time>
      </trkpt>
      <trkpt lat="42.21214" lon="0.84225">
        <ele>1038.8</ele>
        <time>2023-07-23T07:50:09Z</time>
      </trkpt>
      <trkpt lat="42.21218" lon="0.84227">
        <ele>1039.6</ele>
        <time>2023-07-23T07:50:10Z</time>
      </trkpt>
      <trkpt lat="42.21221" lon="0.84228">
        <ele>1039.6</ele>
        <time>2023-07-23T07:50:11Z</time>
      </trkpt>
      <trkpt lat="42.21225" lon="0.84227">
        <ele>1040.2</ele>
        <time>2023-07-23T07:50:12Z</time>
      </trkpt>
      <trkpt lat="42.21228" lon="0.84227">
        <ele>1040.4</ele>
        <time>2023-07-23T07:50:13Z</time>
      </trkpt>
      <trkpt lat="42.21232" lon="0.84226">
        <ele>1040.8</ele>
        <time>2023-07-23T07:50:14Z</time>
      </trkpt>
      <trkpt lat="42.21235" lon="0.84224">
        <ele>1040.8</ele>
        <time>2023-07-23T07:50:15Z</time>
      </trkpt>
      <trkpt lat="42.21238" lon="0.84221">
        <ele>1041</ele>
        <time>2023-07-23T07:50:16Z</time>
      </trkpt>
      <trkpt lat="42.2124" lon="0.84218">
        <ele>1041.4</ele>
        <time>2023-07-23T07:50:17Z</time>
      </trkpt>
      <trkpt lat="42.21243" lon="0.84214">
        <ele>1041.6</ele>
        <time>2023-07-23T07:50:18Z</time>
      </trkpt>
      <trkpt lat="42.21245" lon="0.84211">
        <ele>1042</ele>
        <time>2023-07-23T07:50:19Z</time>
      </trkpt>
      <trkpt lat="42.21247" lon="0.84208">
        <ele>1042.2</ele>
        <time>2023-07-23T07:50:20Z</time>
      </trkpt>
      <trkpt lat="42.21249" lon="0.84203">
        <ele>1042.6</ele>
        <time>2023-07-23T07:50:21Z</time>
      </trkpt>
      <trkpt lat="42.21251" lon="0.84199">
        <ele>1042.8</ele>
        <time>2023-07-23T07:50:22Z</time>
      </trkpt>
      <trkpt lat="42.21253" lon="0.84195">
        <ele>1043</ele>
        <time>2023-07-23T07:50:23Z</time>
      </trkpt>
      <trkpt lat="42.21255" lon="0.84191">
        <ele>1043.4</ele>
        <time>2023-07-23T07:50:24Z</time>
      </trkpt>
      <trkpt lat="42.21255" lon="0.84187">
        <ele>1043.6</ele>
        <time>2023-07-23T07:50:25Z</time>
      </trkpt>
      <trkpt lat="42.21256" lon="0.84182">
        <ele>1044</ele>
        <time>2023-07-23T07:50:26Z</time>
      </trkpt>
      <trkpt lat="42.21255" lon="0.84178">
        <ele>1044.2</ele>
        <time>2023-07-23T07:50:27Z</time>
      </trkpt>
      <trkpt lat="42.21254" lon="0.84173">
        <ele>1044.6</ele>
        <time>2023-07-23T07:50:28Z</time>
      </trkpt>
      <trkpt lat="42.21251" lon="0.8417">
        <ele>1044.8</ele>
        <time>2023-07-23T07:50:29Z</time>
      </trkpt>
      <trkpt lat="42.21248" lon="0.84167">
        <ele>1045.4</ele>
        <time>2023-07-23T07:50:30Z</time>
      </trkpt>
      <trkpt lat="42.21245" lon="0.84165">
        <ele>1046.2</ele>
        <time>2023-07-23T07:50:31Z</time>
      </trkpt>
      <trkpt lat="42.21242" lon="0.84164">
        <ele>1046.6</ele>
        <time>2023-07-23T07:50:32Z</time>
      </trkpt>
      <trkpt lat="42.21239" lon="0.84161">
        <ele>1047.2</ele>
        <time>2023-07-23T07:50:33Z</time>
      </trkpt>
      <trkpt lat="42.21236" lon="0.84158">
        <ele>1047.4</ele>
        <time>2023-07-23T07:50:34Z</time>
      </trkpt>
      <trkpt lat="42.21233" lon="0.84154">
        <ele>1047.8</ele>
        <time>2023-07-23T07:50:35Z</time>
      </trkpt>
      <trkpt lat="42.21232" lon="0.84151">
        <ele>1048.2</ele>
        <time>2023-07-23T07:50:36Z</time>
      </trkpt>
      <trkpt lat="42.2123" lon="0.84145">
        <ele>1048.6</ele>
        <time>2023-07-23T07:50:37Z</time>
      </trkpt>
      <trkpt lat="42.2123" lon="0.8414">
        <ele>1049</ele>
        <time>2023-07-23T07:50:38Z</time>
      </trkpt>
      <trkpt lat="42.21231" lon="0.84135">
        <ele>1049</ele>
        <time>2023-07-23T07:50:39Z</time>
      </trkpt>
      <trkpt lat="42.21232" lon="0.84131">
        <ele>1049.4</ele>
        <time>2023-07-23T07:50:40Z</time>
      </trkpt>
      <trkpt lat="42.21233" lon="0.84125">
        <ele>1049.6</ele>
        <time>2023-07-23T07:50:41Z</time>
      </trkpt>
      <trkpt lat="42.21233" lon="0.8412">
        <ele>1050</ele>
        <time>2023-07-23T07:50:42Z</time>
      </trkpt>
      <trkpt lat="42.21234" lon="0.84115">
        <ele>1050.4</ele>
        <time>2023-07-23T07:50:43Z</time>
      </trkpt>
      <trkpt lat="42.21235" lon="0.8411">
        <ele>1050.4</ele>
        <time>2023-07-23T07:50:44Z</time>
      </trkpt>
      <trkpt lat="42.21235" lon="0.84107">
        <ele>1051.2</ele>
        <time>2023-07-23T07:50:45Z</time>
      </trkpt>
      <trkpt lat="42.21236" lon="0.84101">
        <ele>1051.4</ele>
        <time>2023-07-23T07:50:46Z</time>
      </trkpt>
      <trkpt lat="42.21236" lon="0.84097">
        <ele>1052.2</ele>
        <time>2023-07-23T07:50:47Z</time>
      </trkpt>
      <trkpt lat="42.21236" lon="0.84091">
        <ele>1052.6</ele>
        <time>2023-07-23T07:50:48Z</time>
      </trkpt>
      <trkpt lat="42.21236" lon="0.84087">
        <ele>1053</ele>
        <time>2023-07-23T07:50:49Z</time>
      </trkpt>
      <trkpt lat="42.21237" lon="0.84082">
        <ele>1053.6</ele>
        <time>2023-07-23T07:50:50Z</time>
      </trkpt>
      <trkpt lat="42.21237" lon="0.84079">
        <ele>1053.8</ele>
        <time>2023-07-23T07:50:51Z</time>
      </trkpt>
      <trkpt lat="42.21237" lon="0.84074">
        <ele>1054.4</ele>
        <time>2023-07-23T07:50:52Z</time>
      </trkpt>
      <trkpt lat="42.21238" lon="0.84069">
        <ele>1054.6</ele>
        <time>2023-07-23T07:50:53Z</time>
      </trkpt>
      <trkpt lat="42.21238" lon="0.84065">
        <ele>1055.2</ele>
        <time>2023-07-23T07:50:54Z</time>
      </trkpt>
      <trkpt lat="42.21239" lon="0.84061">
        <ele>1055.4</ele>
        <time>2023-07-23T07:50:55Z</time>
      </trkpt>
      <trkpt lat="42.2124" lon="0.84056">
        <ele>1055.6</ele>
        <time>2023-07-23T07:50:56Z</time>
      </trkpt>
      <trkpt lat="42.2124" lon="0.84051">
        <ele>1056</ele>
        <time>2023-07-23T07:50:57Z</time>
      </trkpt>
      <trkpt lat="42.21241" lon="0.84046">
        <ele>1056.2</ele>
        <time>2023-07-23T07:50:58Z</time>
      </trkpt>
      <trkpt lat="42.21242" lon="0.84042">
        <ele>1056.4</ele>
        <time>2023-07-23T07:50:59Z</time>
      </trkpt>
      <trkpt lat="42.21243" lon="0.84037">
        <ele>1056.6</ele>
        <time>2023-07-23T07:51:00Z</time>
      </trkpt>
      <trkpt lat="42.21244" lon="0.84032">
        <ele>1057</ele>
        <time>2023-07-23T07:51:01Z</time>
      </trkpt>
      <trkpt lat="42.21244" lon="0.84027">
        <ele>1057.4</ele>
        <time>2023-07-23T07:51:02Z</time>
      </trkpt>
      <trkpt lat="42.21246" lon="0.84023">
        <ele>1057.4</ele>
        <time>2023-07-23T07:51:03Z</time>
      </trkpt>
      <trkpt lat="42.21247" lon="0.84019">
        <ele>1057.8</ele>
        <time>2023-07-23T07:51:04Z</time>
      </trkpt>
      <trkpt lat="42.21248" lon="0.84015">
        <ele>1058.2</ele>
        <time>2023-07-23T07:51:05Z</time>
      </trkpt>
      <trkpt lat="42.21249" lon="0.8401">
        <ele>1058.8</ele>
        <time>2023-07-23T07:51:06Z</time>
      </trkpt>
      <trkpt lat="42.21251" lon="0.84006">
        <ele>1058.8</ele>
        <time>2023-07-23T07:51:07Z</time>
      </trkpt>
      <trkpt lat="42.21252" lon="0.84001">
        <ele>1059.4</ele>
        <time>2023-07-23T07:51:08Z</time>
      </trkpt>
      <trkpt lat="42.21253" lon="0.83996">
        <ele>1059.8</ele>
        <time>2023-07-23T07:51:09Z</time>
      </trkpt>
      <trkpt lat="42.21254" lon="0.83991">
        <ele>1060</ele>
        <time>2023-07-23T07:51:10Z</time>
      </trkpt>
      <trkpt lat="42.21254" lon="0.83986">
        <ele>1060.4</ele>
        <time>2023-07-23T07:51:11Z</time>
      </trkpt>
      <trkpt lat="42.21255" lon="0.8398">
        <ele>1060.4</ele>
        <time>2023-07-23T07:51:12Z</time>
      </trkpt>
      <trkpt lat="42.21255" lon="0.83975">
        <ele>1060.6</ele>
        <time>2023-07-23T07:51:13Z</time>
      </trkpt>
      <trkpt lat="42.21255" lon="0.8397">
        <ele>1060.6</ele>
        <time>2023-07-23T07:51:14Z</time>
      </trkpt>
      <trkpt lat="42.21255" lon="0.83965">
        <ele>1060.8</ele>
        <time>2023-07-23T07:51:15Z</time>
      </trkpt>
      <trkpt lat="42.21255" lon="0.83961">
        <ele>1061.4</ele>
        <time>2023-07-23T07:51:16Z</time>
      </trkpt>
      <trkpt lat="42.21256" lon="0.83955">
        <ele>1061.6</ele>
        <time>2023-07-23T07:51:17Z</time>
      </trkpt>
      <trkpt lat="42.21255" lon="0.8395">
        <ele>1061.8</ele>
        <time>2023-07-23T07:51:18Z</time>
      </trkpt>
      <trkpt lat="42.21255" lon="0.83945">
        <ele>1062</ele>
        <time>2023-07-23T07:51:19Z</time>
      </trkpt>
      <trkpt lat="42.21255" lon="0.8394">
        <ele>1062.2</ele>
        <time>2023-07-23T07:51:20Z</time>
      </trkpt>
      <trkpt lat="42.21254" lon="0.83936">
        <ele>1062.4</ele>
        <time>2023-07-23T07:51:21Z</time>
      </trkpt>
      <trkpt lat="42.21254" lon="0.8393">
        <ele>1062.8</ele>
        <time>2023-07-23T07:51:22Z</time>
      </trkpt>
      <trkpt lat="42.21253" lon="0.83926">
        <ele>1063.2</ele>
        <time>2023-07-23T07:51:23Z</time>
      </trkpt>
      <trkpt lat="42.21253" lon="0.83921">
        <ele>1063.4</ele>
        <time>2023-07-23T07:51:24Z</time>
      </trkpt>
      <trkpt lat="42.21252" lon="0.83916">
        <ele>1063.8</ele>
        <time>2023-07-23T07:51:25Z</time>
      </trkpt>
      <trkpt lat="42.21251" lon="0.83911">
        <ele>1064</ele>
        <time>2023-07-23T07:51:26Z</time>
      </trkpt>
      <trkpt lat="42.2125" lon="0.83906">
        <ele>1064.2</ele>
        <time>2023-07-23T07:51:27Z</time>
      </trkpt>
      <trkpt lat="42.21249" lon="0.83902">
        <ele>1064.4</ele>
        <time>2023-07-23T07:51:28Z</time>
      </trkpt>
      <trkpt lat="42.21249" lon="0.83897">
        <ele>1064.6</ele>
        <time>2023-07-23T07:51:29Z</time>
      </trkpt>
      <trkpt lat="42.21248" lon="0.83892">
        <ele>1065.2</ele>
        <time>2023-07-23T07:51:30Z</time>
      </trkpt>
      <trkpt lat="42.21248" lon="0.83887">
        <ele>1065.6</ele>
        <time>2023-07-23T07:51:31Z</time>
      </trkpt>
      <trkpt lat="42.21247" lon="0.83882">
        <ele>1066</ele>
        <time>2023-07-23T07:51:32Z</time>
      </trkpt>
      <trkpt lat="42.21247" lon="0.83877">
        <ele>1066.2</ele>
        <time>2023-07-23T07:51:33Z</time>
      </trkpt>
      <trkpt lat="42.21247" lon="0.83872">
        <ele>1066.6</ele>
        <time>2023-07-23T07:51:34Z</time>
      </trkpt>
      <trkpt lat="42.21246" lon="0.83867">
        <ele>1067.2</ele>
        <time>2023-07-23T07:51:35Z</time>
      </trkpt>
      <trkpt lat="42.21246" lon="0.83862">
        <ele>1067.4</ele>
        <time>2023-07-23T07:51:36Z</time>
      </trkpt>
      <trkpt lat="42.21246" lon="0.83857">
        <ele>1067.8</ele>
        <time>2023-07-23T07:51:37Z</time>
      </trkpt>
      <trkpt lat="42.21246" lon="0.83852">
        <ele>1067.8</ele>
        <time>2023-07-23T07:51:38Z</time>
      </trkpt>
      <trkpt lat="42.21245" lon="0.83847">
        <ele>1068</ele>
        <time>2023-07-23T07:51:39Z</time>
      </trkpt>
      <trkpt lat="42.21245" lon="0.83841">
        <ele>1068</ele>
        <time>2023-07-23T07:51:40Z</time>
      </trkpt>
      <trkpt lat="42.21245" lon="0.83836">
        <ele>1068.4</ele>
        <time>2023-07-23T07:51:41Z</time>
      </trkpt>
      <trkpt lat="42.21244" lon="0.83831">
        <ele>1068.8</ele>
        <time>2023-07-23T07:51:42Z</time>
      </trkpt>
      <trkpt lat="42.21243" lon="0.83826">
        <ele>1069</ele>
        <time>2023-07-23T07:51:43Z</time>
      </trkpt>
      <trkpt lat="42.21243" lon="0.83821">
        <ele>1069.6</ele>
        <time>2023-07-23T07:51:44Z</time>
      </trkpt>
      <trkpt lat="42.21242" lon="0.83817">
        <ele>1069.8</ele>
        <time>2023-07-23T07:51:45Z</time>
      </trkpt>
      <trkpt lat="42.21242" lon="0.83812">
        <ele>1070.2</ele>
        <time>2023-07-23T07:51:46Z</time>
      </trkpt>
      <trkpt lat="42.21241" lon="0.83806">
        <ele>1070.4</ele>
        <time>2023-07-23T07:51:47Z</time>
      </trkpt>
      <trkpt lat="42.21241" lon="0.83806">
        <ele>1070.8</ele>
        <time>2023-07-23T07:51:48Z</time>
      </trkpt>
      <trkpt lat="42.21239" lon="0.83796">
        <ele>1071</ele>
        <time>2023-07-23T07:51:49Z</time>
      </trkpt>
      <trkpt lat="42.21238" lon="0.83791">
        <ele>1071.4</ele>
        <time>2023-07-23T07:51:50Z</time>
      </trkpt>
      <trkpt lat="42.21237" lon="0.83786">
        <ele>1071.8</ele>
        <time>2023-07-23T07:51:51Z</time>
      </trkpt>
      <trkpt lat="42.21236" lon="0.83781">
        <ele>1072</ele>
        <time>2023-07-23T07:51:52Z</time>
      </trkpt>
      <trkpt lat="42.21236" lon="0.83776">
        <ele>1072.2</ele>
        <time>2023-07-23T07:51:53Z</time>
      </trkpt>
      <trkpt lat="42.21235" lon="0.83771">
        <ele>1072.4</ele>
        <time>2023-07-23T07:51:54Z</time>
      </trkpt>
      <trkpt lat="42.21234" lon="0.83766">
        <ele>1072.8</ele>
        <time>2023-07-23T07:51:55Z</time>
      </trkpt>
      <trkpt lat="42.21233" lon="0.83762">
        <ele>1073.4</ele>
        <time>2023-07-23T07:51:56Z</time>
      </trkpt>
      <trkpt lat="42.21232" lon="0.83757">
        <ele>1073.8</ele>
        <time>2023-07-23T07:51:57Z</time>
      </trkpt>
      <trkpt lat="42.21232" lon="0.83752">
        <ele>1074</ele>
        <time>2023-07-23T07:51:58Z</time>
      </trkpt>
      <trkpt lat="42.21231" lon="0.83747">
        <ele>1074.2</ele>
        <time>2023-07-23T07:51:59Z</time>
      </trkpt>
      <trkpt lat="42.21231" lon="0.83743">
        <ele>1075</ele>
        <time>2023-07-23T07:52:00Z</time>
      </trkpt>
      <trkpt lat="42.2123" lon="0.83738">
        <ele>1075.4</ele>
        <time>2023-07-23T07:52:01Z</time>
      </trkpt>
      <trkpt lat="42.21229" lon="0.83733">
        <ele>1075.6</ele>
        <time>2023-07-23T07:52:02Z</time>
      </trkpt>
      <trkpt lat="42.21229" lon="0.83728">
        <ele>1076</ele>
        <time>2023-07-23T07:52:03Z</time>
      </trkpt>
      <trkpt lat="42.21228" lon="0.83723">
        <ele>1076.2</ele>
        <time>2023-07-23T07:52:04Z</time>
      </trkpt>
      <trkpt lat="42.21227" lon="0.83719">
        <ele>1076.4</ele>
        <time>2023-07-23T07:52:05Z</time>
      </trkpt>
      <trkpt lat="42.21226" lon="0.83714">
        <ele>1076.6</ele>
        <time>2023-07-23T07:52:06Z</time>
      </trkpt>
      <trkpt lat="42.21225" lon="0.8371">
        <ele>1077.2</ele>
        <time>2023-07-23T07:52:07Z</time>
      </trkpt>
      <trkpt lat="42.21225" lon="0.83705">
        <ele>1077.6</ele>
        <time>2023-07-23T07:52:08Z</time>
      </trkpt>
      <trkpt lat="42.21224" lon="0.83701">
        <ele>1077.8</ele>
        <time>2023-07-23T07:52:09Z</time>
      </trkpt>
      <trkpt lat="42.21224" lon="0.83697">
        <ele>1078</ele>
        <time>2023-07-23T07:52:10Z</time>
      </trkpt>
      <trkpt lat="42.21223" lon="0.83691">
        <ele>1078.2</ele>
        <time>2023-07-23T07:52:11Z</time>
      </trkpt>
      <trkpt lat="42.21223" lon="0.83686">
        <ele>1078.6</ele>
        <time>2023-07-23T07:52:12Z</time>
      </trkpt>
      <trkpt lat="42.21223" lon="0.83682">
        <ele>1078.8</ele>
        <time>2023-07-23T07:52:13Z</time>
      </trkpt>
      <trkpt lat="42.21222" lon="0.83676">
        <ele>1079</ele>
        <time>2023-07-23T07:52:14Z</time>
      </trkpt>
      <trkpt lat="42.21222" lon="0.83671">
        <ele>1079.4</ele>
        <time>2023-07-23T07:52:15Z</time>
      </trkpt>
      <trkpt lat="42.21221" lon="0.83666">
        <ele>1079.6</ele>
        <time>2023-07-23T07:52:16Z</time>
      </trkpt>
      <trkpt lat="42.21221" lon="0.83661">
        <ele>1080.2</ele>
        <time>2023-07-23T07:52:17Z</time>
      </trkpt>
      <trkpt lat="42.21221" lon="0.83656">
        <ele>1080.4</ele>
        <time>2023-07-23T07:52:18Z</time>
      </trkpt>
      <trkpt lat="42.2122" lon="0.83652">
        <ele>1081</ele>
        <time>2023-07-23T07:52:19Z</time>
      </trkpt>
      <trkpt lat="42.2122" lon="0.83646">
        <ele>1081.2</ele>
        <time>2023-07-23T07:52:20Z</time>
      </trkpt>
      <trkpt lat="42.2122" lon="0.83641">
        <ele>1081.6</ele>
        <time>2023-07-23T07:52:21Z</time>
      </trkpt>
      <trkpt lat="42.21221" lon="0.83636">
        <ele>1082</ele>
        <time>2023-07-23T07:52:22Z</time>
      </trkpt>
      <trkpt lat="42.21222" lon="0.83631">
        <ele>1082.2</ele>
        <time>2023-07-23T07:52:23Z</time>
      </trkpt>
      <trkpt lat="42.21222" lon="0.83628">
        <ele>1082.6</ele>
        <time>2023-07-23T07:52:24Z</time>
      </trkpt>
      <trkpt lat="42.21223" lon="0.83622">
        <ele>1082.8</ele>
        <time>2023-07-23T07:52:25Z</time>
      </trkpt>
      <trkpt lat="42.21223" lon="0.83617">
        <ele>1083</ele>
        <time>2023-07-23T07:52:26Z</time>
      </trkpt>
      <trkpt lat="42.21222" lon="0.83612">
        <ele>1083.2</ele>
        <time>2023-07-23T07:52:27Z</time>
      </trkpt>
      <trkpt lat="42.2122" lon="0.83608">
        <ele>1083.2</ele>
        <time>2023-07-23T07:52:28Z</time>
      </trkpt>
      <trkpt lat="42.21217" lon="0.83606">
        <ele>1083.4</ele>
        <time>2023-07-23T07:52:29Z</time>
      </trkpt>
      <trkpt lat="42.21213" lon="0.83604">
        <ele>1083.4</ele>
        <time>2023-07-23T07:52:30Z</time>
      </trkpt>
      <trkpt lat="42.21209" lon="0.83604">
        <ele>1083.4</ele>
        <time>2023-07-23T07:52:31Z</time>
      </trkpt>
      <trkpt lat="42.21205" lon="0.83604">
        <ele>1083.4</ele>
        <time>2023-07-23T07:52:32Z</time>
      </trkpt>
      <trkpt lat="42.21201" lon="0.83604">
        <ele>1083.6</ele>
        <time>2023-07-23T07:52:33Z</time>
      </trkpt>
      <trkpt lat="42.21198" lon="0.83606">
        <ele>1083.8</ele>
        <time>2023-07-23T07:52:34Z</time>
      </trkpt>
      <trkpt lat="42.21194" lon="0.83607">
        <ele>1083.8</ele>
        <time>2023-07-23T07:52:35Z</time>
      </trkpt>
      <trkpt lat="42.21191" lon="0.83609">
        <ele>1083.8</ele>
        <time>2023-07-23T07:52:36Z</time>
      </trkpt>
      <trkpt lat="42.21187" lon="0.83611">
        <ele>1084</ele>
        <time>2023-07-23T07:52:37Z</time>
      </trkpt>
      <trkpt lat="42.21184" lon="0.83613">
        <ele>1084.4</ele>
        <time>2023-07-23T07:52:38Z</time>
      </trkpt>
      <trkpt lat="42.2118" lon="0.83616">
        <ele>1084.8</ele>
        <time>2023-07-23T07:52:39Z</time>
      </trkpt>
      <trkpt lat="42.21177" lon="0.83619">
        <ele>1085.2</ele>
        <time>2023-07-23T07:52:40Z</time>
      </trkpt>
      <trkpt lat="42.21173" lon="0.83622">
        <ele>1085.2</ele>
        <time>2023-07-23T07:52:41Z</time>
      </trkpt>
      <trkpt lat="42.2117" lon="0.83625">
        <ele>1085.4</ele>
        <time>2023-07-23T07:52:42Z</time>
      </trkpt>
      <trkpt lat="42.21166" lon="0.83628">
        <ele>1085.8</ele>
        <time>2023-07-23T07:52:43Z</time>
      </trkpt>
      <trkpt lat="42.21163" lon="0.83631">
        <ele>1085.8</ele>
        <time>2023-07-23T07:52:44Z</time>
      </trkpt>
      <trkpt lat="42.2116" lon="0.83634">
        <ele>1086.2</ele>
        <time>2023-07-23T07:52:45Z</time>
      </trkpt>
      <trkpt lat="42.21157" lon="0.83636">
        <ele>1086.2</ele>
        <time>2023-07-23T07:52:46Z</time>
      </trkpt>
      <trkpt lat="42.21154" lon="0.83639">
        <ele>1086.4</ele>
        <time>2023-07-23T07:52:47Z</time>
      </trkpt>
      <trkpt lat="42.2115" lon="0.83641">
        <ele>1086.6</ele>
        <time>2023-07-23T07:52:48Z</time>
      </trkpt>
      <trkpt lat="42.21147" lon="0.83644">
        <ele>1086.8</ele>
        <time>2023-07-23T07:52:49Z</time>
      </trkpt>
      <trkpt lat="42.21145" lon="0.83647">
        <ele>1086.8</ele>
        <time>2023-07-23T07:52:50Z</time>
      </trkpt>
      <trkpt lat="42.21142" lon="0.83651">
        <ele>1087.2</ele>
        <time>2023-07-23T07:52:51Z</time>
      </trkpt>
      <trkpt lat="42.21139" lon="0.83654">
        <ele>1087.6</ele>
        <time>2023-07-23T07:52:52Z</time>
      </trkpt>
      <trkpt lat="42.21136" lon="0.83658">
        <ele>1087.8</ele>
        <time>2023-07-23T07:52:53Z</time>
      </trkpt>
      <trkpt lat="42.21133" lon="0.83661">
        <ele>1088.4</ele>
        <time>2023-07-23T07:52:54Z</time>
      </trkpt>
      <trkpt lat="42.2113" lon="0.83664">
        <ele>1088.6</ele>
        <time>2023-07-23T07:52:55Z</time>
      </trkpt>
      <trkpt lat="42.21127" lon="0.83667">
        <ele>1088.8</ele>
        <time>2023-07-23T07:52:56Z</time>
      </trkpt>
      <trkpt lat="42.21124" lon="0.8367">
        <ele>1089.2</ele>
        <time>2023-07-23T07:52:57Z</time>
      </trkpt>
      <trkpt lat="42.21121" lon="0.83674">
        <ele>1089.2</ele>
        <time>2023-07-23T07:52:58Z</time>
      </trkpt>
      <trkpt lat="42.21118" lon="0.83676">
        <ele>1089.2</ele>
        <time>2023-07-23T07:52:59Z</time>
      </trkpt>
      <trkpt lat="42.21114" lon="0.8368">
        <ele>1089.4</ele>
        <time>2023-07-23T07:53:00Z</time>
      </trkpt>
      <trkpt lat="42.21111" lon="0.83684">
        <ele>1090</ele>
        <time>2023-07-23T07:53:01Z</time>
      </trkpt>
      <trkpt lat="42.21108" lon="0.83688">
        <ele>1090.4</ele>
        <time>2023-07-23T07:53:02Z</time>
      </trkpt>
      <trkpt lat="42.21106" lon="0.83692">
        <ele>1090.6</ele>
        <time>2023-07-23T07:53:03Z</time>
      </trkpt>
      <trkpt lat="42.21103" lon="0.83696">
        <ele>1091</ele>
        <time>2023-07-23T07:53:04Z</time>
      </trkpt>
      <trkpt lat="42.211" lon="0.83699">
        <ele>1091.2</ele>
        <time>2023-07-23T07:53:05Z</time>
      </trkpt>
      <trkpt lat="42.21096" lon="0.837">
        <ele>1091.6</ele>
        <time>2023-07-23T07:53:06Z</time>
      </trkpt>
      <trkpt lat="42.21092" lon="0.83699">
        <ele>1091.8</ele>
        <time>2023-07-23T07:53:07Z</time>
      </trkpt>
      <trkpt lat="42.21089" lon="0.83696">
        <ele>1092.2</ele>
        <time>2023-07-23T07:53:08Z</time>
      </trkpt>
      <trkpt lat="42.21088" lon="0.83691">
        <ele>1092.4</ele>
        <time>2023-07-23T07:53:09Z</time>
      </trkpt>
      <trkpt lat="42.21088" lon="0.83686">
        <ele>1092.4</ele>
        <time>2023-07-23T07:53:10Z</time>
      </trkpt>
      <trkpt lat="42.2109" lon="0.83681">
        <ele>1092.6</ele>
        <time>2023-07-23T07:53:11Z</time>
      </trkpt>
      <trkpt lat="42.21093" lon="0.83677">
        <ele>1092.6</ele>
        <time>2023-07-23T07:53:12Z</time>
      </trkpt>
      <trkpt lat="42.21096" lon="0.83674">
        <ele>1092.8</ele>
        <time>2023-07-23T07:53:13Z</time>
      </trkpt>
      <trkpt lat="42.21099" lon="0.83672">
        <ele>1093</ele>
        <time>2023-07-23T07:53:14Z</time>
      </trkpt>
      <trkpt lat="42.21102" lon="0.83669">
        <ele>1093</ele>
        <time>2023-07-23T07:53:15Z</time>
      </trkpt>
      <trkpt lat="42.21105" lon="0.83666">
        <ele>1093.2</ele>
        <time>2023-07-23T07:53:16Z</time>
      </trkpt>
      <trkpt lat="42.21108" lon="0.83663">
        <ele>1093.4</ele>
        <time>2023-07-23T07:53:17Z</time>
      </trkpt>
      <trkpt lat="42.2111" lon="0.8366">
        <ele>1093.4</ele>
        <time>2023-07-23T07:53:18Z</time>
      </trkpt>
      <trkpt lat="42.21113" lon="0.83656">
        <ele>1093.6</ele>
        <time>2023-07-23T07:53:19Z</time>
      </trkpt>
      <trkpt lat="42.21115" lon="0.83652">
        <ele>1093.8</ele>
        <time>2023-07-23T07:53:20Z</time>
      </trkpt>
      <trkpt lat="42.21118" lon="0.83649">
        <ele>1094.4</ele>
        <time>2023-07-23T07:53:21Z</time>
      </trkpt>
      <trkpt lat="42.2112" lon="0.83645">
        <ele>1094.6</ele>
        <time>2023-07-23T07:53:22Z</time>
      </trkpt>
      <trkpt lat="42.21122" lon="0.83641">
        <ele>1095.2</ele>
        <time>2023-07-23T07:53:23Z</time>
      </trkpt>
      <trkpt lat="42.21124" lon="0.83637">
        <ele>1095.2</ele>
        <time>2023-07-23T07:53:24Z</time>
      </trkpt>
      <trkpt lat="42.21126" lon="0.83633">
        <ele>1095.6</ele>
        <time>2023-07-23T07:53:25Z</time>
      </trkpt>
      <trkpt lat="42.21128" lon="0.83629">
        <ele>1095.8</ele>
        <time>2023-07-23T07:53:26Z</time>
      </trkpt>
      <trkpt lat="42.2113" lon="0.83625">
        <ele>1096</ele>
        <time>2023-07-23T07:53:27Z</time>
      </trkpt>
      <trkpt lat="42.21132" lon="0.83621">
        <ele>1096.4</ele>
        <time>2023-07-23T07:53:28Z</time>
      </trkpt>
      <trkpt lat="42.21135" lon="0.83617">
        <ele>1096.4</ele>
        <time>2023-07-23T07:53:29Z</time>
      </trkpt>
      <trkpt lat="42.21137" lon="0.83614">
        <ele>1097.2</ele>
        <time>2023-07-23T07:53:30Z</time>
      </trkpt>
      <trkpt lat="42.2114" lon="0.8361">
        <ele>1097.4</ele>
        <time>2023-07-23T07:53:31Z</time>
      </trkpt>
      <trkpt lat="42.21143" lon="0.83607">
        <ele>1098</ele>
        <time>2023-07-23T07:53:32Z</time>
      </trkpt>
      <trkpt lat="42.21146" lon="0.83604">
        <ele>1098.4</ele>
        <time>2023-07-23T07:53:33Z</time>
      </trkpt>
      <trkpt lat="42.21148" lon="0.83601">
        <ele>1098.6</ele>
        <time>2023-07-23T07:53:34Z</time>
      </trkpt>
      <trkpt lat="42.21151" lon="0.83598">
        <ele>1098.8</ele>
        <time>2023-07-23T07:53:35Z</time>
      </trkpt>
      <trkpt lat="42.21153" lon="0.83596">
        <ele>1099</ele>
        <time>2023-07-23T07:53:36Z</time>
      </trkpt>
      <trkpt lat="42.21156" lon="0.83593">
        <ele>1099.2</ele>
        <time>2023-07-23T07:53:37Z</time>
      </trkpt>
      <trkpt lat="42.21159" lon="0.8359">
        <ele>1099.4</ele>
        <time>2023-07-23T07:53:38Z</time>
      </trkpt>
      <trkpt lat="42.21161" lon="0.83586">
        <ele>1100.2</ele>
        <time>2023-07-23T07:53:39Z</time>
      </trkpt>
      <trkpt lat="42.21163" lon="0.83583">
        <ele>1100.6</ele>
        <time>2023-07-23T07:53:40Z</time>
      </trkpt>
      <trkpt lat="42.21166" lon="0.8358">
        <ele>1101.2</ele>
        <time>2023-07-23T07:53:41Z</time>
      </trkpt>
      <trkpt lat="42.21168" lon="0.83578">
        <ele>1101.6</ele>
        <time>2023-07-23T07:53:42Z</time>
      </trkpt>
      <trkpt lat="42.21171" lon="0.83575">
        <ele>1101.8</ele>
        <time>2023-07-23T07:53:43Z</time>
      </trkpt>
      <trkpt lat="42.21174" lon="0.83571">
        <ele>1102</ele>
        <time>2023-07-23T07:53:44Z</time>
      </trkpt>
      <trkpt lat="42.21177" lon="0.83569">
        <ele>1102.2</ele>
        <time>2023-07-23T07:53:45Z</time>
      </trkpt>
      <trkpt lat="42.2118" lon="0.83568">
        <ele>1102.6</ele>
        <time>2023-07-23T07:53:46Z</time>
      </trkpt>
      <trkpt lat="42.21183" lon="0.83566">
        <ele>1102.8</ele>
        <time>2023-07-23T07:53:47Z</time>
      </trkpt>
      <trkpt lat="42.21187" lon="0.83564">
        <ele>1103</ele>
        <time>2023-07-23T07:53:48Z</time>
      </trkpt>
      <trkpt lat="42.2119" lon="0.83562">
        <ele>1103.4</ele>
        <time>2023-07-23T07:53:49Z</time>
      </trkpt>
      <trkpt lat="42.21193" lon="0.83561">
        <ele>1103.6</ele>
        <time>2023-07-23T07:53:50Z</time>
      </trkpt>
      <trkpt lat="42.21195" lon="0.83559">
        <ele>1104</ele>
        <time>2023-07-23T07:53:51Z</time>
      </trkpt>
      <trkpt lat="42.21199" lon="0.83557">
        <ele>1104</ele>
        <time>2023-07-23T07:53:52Z</time>
      </trkpt>
      <trkpt lat="42.21202" lon="0.83556">
        <ele>1104.8</ele>
        <time>2023-07-23T07:53:53Z</time>
      </trkpt>
      <trkpt lat="42.21206" lon="0.83554">
        <ele>1105.6</ele>
        <time>2023-07-23T07:53:54Z</time>
      </trkpt>
      <trkpt lat="42.21209" lon="0.83553">
        <ele>1105.8</ele>
        <time>2023-07-23T07:53:55Z</time>
      </trkpt>
      <trkpt lat="42.21212" lon="0.83551">
        <ele>1106</ele>
        <time>2023-07-23T07:53:56Z</time>
      </trkpt>
      <trkpt lat="42.21215" lon="0.8355">
        <ele>1106</ele>
        <time>2023-07-23T07:53:57Z</time>
      </trkpt>
      <trkpt lat="42.21219" lon="0.83548">
        <ele>1106.4</ele>
        <time>2023-07-23T07:53:58Z</time>
      </trkpt>
      <trkpt lat="42.21222" lon="0.83547">
        <ele>1106.6</ele>
        <time>2023-07-23T07:53:59Z</time>
      </trkpt>
      <trkpt lat="42.21226" lon="0.83546">
        <ele>1107.2</ele>
        <time>2023-07-23T07:54:00Z</time>
      </trkpt>
      <trkpt lat="42.21229" lon="0.83545">
        <ele>1107.8</ele>
        <time>2023-07-23T07:54:01Z</time>
      </trkpt>
      <trkpt lat="42.21232" lon="0.83544">
        <ele>1107.8</ele>
        <time>2023-07-23T07:54:02Z</time>
      </trkpt>
      <trkpt lat="42.21236" lon="0.83544">
        <ele>1108</ele>
        <time>2023-07-23T07:54:03Z</time>
      </trkpt>
      <trkpt lat="42.21239" lon="0.83545">
        <ele>1108.2</ele>
        <time>2023-07-23T07:54:04Z</time>
      </trkpt>
      <trkpt lat="42.21243" lon="0.83544">
        <ele>1108.4</ele>
        <time>2023-07-23T07:54:05Z</time>
      </trkpt>
      <trkpt lat="42.21245" lon="0.83543">
        <ele>1108.6</ele>
        <time>2023-07-23T07:54:06Z</time>
      </trkpt>
      <trkpt lat="42.21249" lon="0.83542">
        <ele>1109.2</ele>
        <time>2023-07-23T07:54:07Z</time>
      </trkpt>
      <trkpt lat="42.21252" lon="0.83541">
        <ele>1109.6</ele>
        <time>2023-07-23T07:54:08Z</time>
      </trkpt>
      <trkpt lat="42.21255" lon="0.83539">
        <ele>1109.8</ele>
        <time>2023-07-23T07:54:09Z</time>
      </trkpt>
      <trkpt lat="42.21258" lon="0.83537">
        <ele>1110.2</ele>
        <time>2023-07-23T07:54:10Z</time>
      </trkpt>
      <trkpt lat="42.2126" lon="0.83535">
        <ele>1110.6</ele>
        <time>2023-07-23T07:54:11Z</time>
      </trkpt>
      <trkpt lat="42.21263" lon="0.83532">
        <ele>1110.8</ele>
        <time>2023-07-23T07:54:12Z</time>
      </trkpt>
      <trkpt lat="42.21266" lon="0.83529">
        <ele>1111</ele>
        <time>2023-07-23T07:54:13Z</time>
      </trkpt>
      <trkpt lat="42.21269" lon="0.83527">
        <ele>1111.2</ele>
        <time>2023-07-23T07:54:14Z</time>
      </trkpt>
      <trkpt lat="42.21272" lon="0.83525">
        <ele>1111.6</ele>
        <time>2023-07-23T07:54:15Z</time>
      </trkpt>
      <trkpt lat="42.21275" lon="0.83525">
        <ele>1111.8</ele>
        <time>2023-07-23T07:54:16Z</time>
      </trkpt>
      <trkpt lat="42.21279" lon="0.83525">
        <ele>1112.2</ele>
        <time>2023-07-23T07:54:17Z</time>
      </trkpt>
      <trkpt lat="42.21283" lon="0.83527">
        <ele>1112.4</ele>
        <time>2023-07-23T07:54:18Z</time>
      </trkpt>
      <trkpt lat="42.21285" lon="0.8353">
        <ele>1112.4</ele>
        <time>2023-07-23T07:54:19Z</time>
      </trkpt>
      <trkpt lat="42.21287" lon="0.83534">
        <ele>1112.6</ele>
        <time>2023-07-23T07:54:20Z</time>
      </trkpt>
      <trkpt lat="42.21289" lon="0.83538">
        <ele>1113</ele>
        <time>2023-07-23T07:54:21Z</time>
      </trkpt>
      <trkpt lat="42.2129" lon="0.83543">
        <ele>1113.4</ele>
        <time>2023-07-23T07:54:22Z</time>
      </trkpt>
      <trkpt lat="42.21291" lon="0.83548">
        <ele>1113.8</ele>
        <time>2023-07-23T07:54:23Z</time>
      </trkpt>
      <trkpt lat="42.21292" lon="0.83553">
        <ele>1114.2</ele>
        <time>2023-07-23T07:54:24Z</time>
      </trkpt>
      <trkpt lat="42.21293" lon="0.83558">
        <ele>1114.4</ele>
        <time>2023-07-23T07:54:25Z</time>
      </trkpt>
      <trkpt lat="42.21293" lon="0.83563">
        <ele>1115</ele>
        <time>2023-07-23T07:54:26Z</time>
      </trkpt>
      <trkpt lat="42.21294" lon="0.83568">
        <ele>1115.2</ele>
        <time>2023-07-23T07:54:27Z</time>
      </trkpt>
      <trkpt lat="42.21295" lon="0.83573">
        <ele>1115.6</ele>
        <time>2023-07-23T07:54:28Z</time>
      </trkpt>
      <trkpt lat="42.21295" lon="0.83578">
        <ele>1115.8</ele>
        <time>2023-07-23T07:54:29Z</time>
      </trkpt>
      <trkpt lat="42.21295" lon="0.83582">
        <ele>1115.8</ele>
        <time>2023-07-23T07:54:30Z</time>
      </trkpt>
      <trkpt lat="42.21296" lon="0.83587">
        <ele>1116.2</ele>
        <time>2023-07-23T07:54:31Z</time>
      </trkpt>
      <trkpt lat="42.21296" lon="0.83591">
        <ele>1116.4</ele>
        <time>2023-07-23T07:54:32Z</time>
      </trkpt>
      <trkpt lat="42.21296" lon="0.83595">
        <ele>1116.8</ele>
        <time>2023-07-23T07:54:33Z</time>
      </trkpt>
      <trkpt lat="42.21296" lon="0.836">
        <ele>1117</ele>
        <time>2023-07-23T07:54:34Z</time>
      </trkpt>
      <trkpt lat="42.21296" lon="0.83605">
        <ele>1117.4</ele>
        <time>2023-07-23T07:54:35Z</time>
      </trkpt>
      <trkpt lat="42.21297" lon="0.8361">
        <ele>1117.8</ele>
        <time>2023-07-23T07:54:36Z</time>
      </trkpt>
      <trkpt lat="42.21297" lon="0.83614">
        <ele>1118</ele>
        <time>2023-07-23T07:54:37Z</time>
      </trkpt>
      <trkpt lat="42.21297" lon="0.83619">
        <ele>1118.4</ele>
        <time>2023-07-23T07:54:38Z</time>
      </trkpt>
      <trkpt lat="42.21298" lon="0.83624">
        <ele>1118.6</ele>
        <time>2023-07-23T07:54:39Z</time>
      </trkpt>
      <trkpt lat="42.21298" lon="0.83629">
        <ele>1118.8</ele>
        <time>2023-07-23T07:54:40Z</time>
      </trkpt>
      <trkpt lat="42.21298" lon="0.83634">
        <ele>1119</ele>
        <time>2023-07-23T07:54:41Z</time>
      </trkpt>
      <trkpt lat="42.21298" lon="0.83639">
        <ele>1119.2</ele>
        <time>2023-07-23T07:54:42Z</time>
      </trkpt>
      <trkpt lat="42.21298" lon="0.83643">
        <ele>1119.4</ele>
        <time>2023-07-23T07:54:43Z</time>
      </trkpt>
      <trkpt lat="42.21299" lon="0.83649">
        <ele>1119.6</ele>
        <time>2023-07-23T07:54:44Z</time>
      </trkpt>
      <trkpt lat="42.21301" lon="0.83653">
        <ele>1120</ele>
        <time>2023-07-23T07:54:45Z</time>
      </trkpt>
      <trkpt lat="42.21304" lon="0.83656">
        <ele>1120.2</ele>
        <time>2023-07-23T07:54:46Z</time>
      </trkpt>
      <trkpt lat="42.21307" lon="0.83657">
        <ele>1120.6</ele>
        <time>2023-07-23T07:54:47Z</time>
      </trkpt>
      <trkpt lat="42.2131" lon="0.83658">
        <ele>1121</ele>
        <time>2023-07-23T07:54:48Z</time>
      </trkpt>
      <trkpt lat="42.21314" lon="0.83656">
        <ele>1121</ele>
        <time>2023-07-23T07:54:49Z</time>
      </trkpt>
      <trkpt lat="42.21317" lon="0.83653">
        <ele>1121.4</ele>
        <time>2023-07-23T07:54:50Z</time>
      </trkpt>
      <trkpt lat="42.21319" lon="0.83649">
        <ele>1121.4</ele>
        <time>2023-07-23T07:54:51Z</time>
      </trkpt>
      <trkpt lat="42.2132" lon="0.83646">
        <ele>1122</ele>
        <time>2023-07-23T07:54:52Z</time>
      </trkpt>
      <trkpt lat="42.21322" lon="0.83642">
        <ele>1122</ele>
        <time>2023-07-23T07:54:53Z</time>
      </trkpt>
      <trkpt lat="42.21325" lon="0.83637">
        <ele>1122.4</ele>
        <time>2023-07-23T07:54:54Z</time>
      </trkpt>
      <trkpt lat="42.21327" lon="0.83633">
        <ele>1122.6</ele>
        <time>2023-07-23T07:54:55Z</time>
      </trkpt>
      <trkpt lat="42.21329" lon="0.83629">
        <ele>1122.8</ele>
        <time>2023-07-23T07:54:56Z</time>
      </trkpt>
      <trkpt lat="42.21331" lon="0.83626">
        <ele>1123.2</ele>
        <time>2023-07-23T07:54:57Z</time>
      </trkpt>
      <trkpt lat="42.21333" lon="0.83622">
        <ele>1123.4</ele>
        <time>2023-07-23T07:54:58Z</time>
      </trkpt>
      <trkpt lat="42.21335" lon="0.83618">
        <ele>1123.4</ele>
        <time>2023-07-23T07:54:59Z</time>
      </trkpt>
      <trkpt lat="42.21336" lon="0.83614">
        <ele>1123.6</ele>
        <time>2023-07-23T07:55:00Z</time>
      </trkpt>
      <trkpt lat="42.21337" lon="0.8361">
        <ele>1124.4</ele>
        <time>2023-07-23T07:55:01Z</time>
      </trkpt>
      <trkpt lat="42.21338" lon="0.83605">
        <ele>1125</ele>
        <time>2023-07-23T07:55:02Z</time>
      </trkpt>
      <trkpt lat="42.21338" lon="0.836">
        <ele>1125.2</ele>
        <time>2023-07-23T07:55:03Z</time>
      </trkpt>
      <trkpt lat="42.21337" lon="0.83595">
        <ele>1125.8</ele>
        <time>2023-07-23T07:55:04Z</time>
      </trkpt>
      <trkpt lat="42.21335" lon="0.83591">
        <ele>1126</ele>
        <time>2023-07-23T07:55:05Z</time>
      </trkpt>
      <trkpt lat="42.21333" lon="0.83588">
        <ele>1126.4</ele>
        <time>2023-07-23T07:55:06Z</time>
      </trkpt>
      <trkpt lat="42.21331" lon="0.83584">
        <ele>1126.8</ele>
        <time>2023-07-23T07:55:07Z</time>
      </trkpt>
      <trkpt lat="42.21329" lon="0.83581">
        <ele>1127.2</ele>
        <time>2023-07-23T07:55:08Z</time>
      </trkpt>
      <trkpt lat="42.21327" lon="0.83577">
        <ele>1128</ele>
        <time>2023-07-23T07:55:09Z</time>
      </trkpt>
      <trkpt lat="42.21326" lon="0.83573">
        <ele>1128.4</ele>
        <time>2023-07-23T07:55:10Z</time>
      </trkpt>
      <trkpt lat="42.21325" lon="0.8357">
        <ele>1129</ele>
        <time>2023-07-23T07:55:11Z</time>
      </trkpt>
      <trkpt lat="42.21324" lon="0.83565">
        <ele>1129.2</ele>
        <time>2023-07-23T07:55:12Z</time>
      </trkpt>
      <trkpt lat="42.21324" lon="0.8356">
        <ele>1129.8</ele>
        <time>2023-07-23T07:55:13Z</time>
      </trkpt>
      <trkpt lat="42.21324" lon="0.83556">
        <ele>1130.2</ele>
        <time>2023-07-23T07:55:14Z</time>
      </trkpt>
      <trkpt lat="42.21324" lon="0.83551">
        <ele>1130.4</ele>
        <time>2023-07-23T07:55:15Z</time>
      </trkpt>
      <trkpt lat="42.21324" lon="0.83546">
        <ele>1130.8</ele>
        <time>2023-07-23T07:55:16Z</time>
      </trkpt>
      <trkpt lat="42.21324" lon="0.83542">
        <ele>1131</ele>
        <time>2023-07-23T07:55:17Z</time>
      </trkpt>
      <trkpt lat="42.21324" lon="0.83537">
        <ele>1131.8</ele>
        <time>2023-07-23T07:55:18Z</time>
      </trkpt>
      <trkpt lat="42.21324" lon="0.83533">
        <ele>1132.2</ele>
        <time>2023-07-23T07:55:19Z</time>
      </trkpt>
      <trkpt lat="42.21324" lon="0.83528">
        <ele>1133</ele>
        <time>2023-07-23T07:55:20Z</time>
      </trkpt>
      <trkpt lat="42.21324" lon="0.83525">
        <ele>1133.4</ele>
        <time>2023-07-23T07:55:21Z</time>
      </trkpt>
      <trkpt lat="42.21324" lon="0.83521">
        <ele>1133.6</ele>
        <time>2023-07-23T07:55:22Z</time>
      </trkpt>
      <trkpt lat="42.21324" lon="0.83517">
        <ele>1133.8</ele>
        <time>2023-07-23T07:55:23Z</time>
      </trkpt>
      <trkpt lat="42.21324" lon="0.83511">
        <ele>1134</ele>
        <time>2023-07-23T07:55:24Z</time>
      </trkpt>
      <trkpt lat="42.21324" lon="0.83507">
        <ele>1134.6</ele>
        <time>2023-07-23T07:55:25Z</time>
      </trkpt>
      <trkpt lat="42.21324" lon="0.83503">
        <ele>1134.8</ele>
        <time>2023-07-23T07:55:26Z</time>
      </trkpt>
      <trkpt lat="42.21325" lon="0.83498">
        <ele>1135.4</ele>
        <time>2023-07-23T07:55:27Z</time>
      </trkpt>
      <trkpt lat="42.21325" lon="0.83494">
        <ele>1136</ele>
        <time>2023-07-23T07:55:28Z</time>
      </trkpt>
      <trkpt lat="42.21325" lon="0.83489">
        <ele>1136.4</ele>
        <time>2023-07-23T07:55:29Z</time>
      </trkpt>
      <trkpt lat="42.21325" lon="0.83485">
        <ele>1137</ele>
        <time>2023-07-23T07:55:30Z</time>
      </trkpt>
      <trkpt lat="42.21325" lon="0.83481">
        <ele>1137.2</ele>
        <time>2023-07-23T07:55:31Z</time>
      </trkpt>
      <trkpt lat="42.21324" lon="0.83476">
        <ele>1137.6</ele>
        <time>2023-07-23T07:55:32Z</time>
      </trkpt>
      <trkpt lat="42.21323" lon="0.83472">
        <ele>1138</ele>
        <time>2023-07-23T07:55:33Z</time>
      </trkpt>
      <trkpt lat="42.21322" lon="0.83468">
        <ele>1138.4</ele>
        <time>2023-07-23T07:55:34Z</time>
      </trkpt>
      <trkpt lat="42.21322" lon="0.83464">
        <ele>1139</ele>
        <time>2023-07-23T07:55:35Z</time>
      </trkpt>
      <trkpt lat="42.21321" lon="0.8346">
        <ele>1139</ele>
        <time>2023-07-23T07:55:36Z</time>
      </trkpt>
      <trkpt lat="42.2132" lon="0.83456">
        <ele>1139.4</ele>
        <time>2023-07-23T07:55:37Z</time>
      </trkpt>
      <trkpt lat="42.21319" lon="0.83452">
        <ele>1139.8</ele>
        <time>2023-07-23T07:55:38Z</time>
      </trkpt>
      <trkpt lat="42.21318" lon="0.83448">
        <ele>1140</ele>
        <time>2023-07-23T07:55:39Z</time>
      </trkpt>
      <trkpt lat="42.21317" lon="0.83445">
        <ele>1140</ele>
        <time>2023-07-23T07:55:40Z</time>
      </trkpt>
      <trkpt lat="42.21316" lon="0.83442">
        <ele>1140.6</ele>
        <time>2023-07-23T07:55:41Z</time>
      </trkpt>
      <trkpt lat="42.21316" lon="0.8344">
        <ele>1141</ele>
        <time>2023-07-23T07:55:42Z</time>
      </trkpt>
      <trkpt lat="42.21315" lon="0.83439">
        <ele>1141.2</ele>
        <time>2023-07-23T07:55:43Z</time>
      </trkpt>
      <trkpt lat="42.21315" lon="0.83439">
        <ele>1141.8</ele>
        <time>2023-07-23T07:55:44Z</time>
      </trkpt>
      <trkpt lat="42.21315" lon="0.83439">
        <ele>1142</ele>
        <time>2023-07-23T07:55:45Z</time>
      </trkpt>
      <trkpt lat="42.21312" lon="0.83431">
        <ele>1143.2</ele>
        <time>2023-07-23T07:55:52Z</time>
      </trkpt>
      <trkpt lat="42.2131" lon="0.83429">
        <ele>1143.2</ele>
        <time>2023-07-23T07:55:53Z</time>
      </trkpt>
      <trkpt lat="42.21308" lon="0.83427">
        <ele>1143.4</ele>
        <time>2023-07-23T07:55:54Z</time>
      </trkpt>
      <trkpt lat="42.21306" lon="0.83426">
        <ele>1143.4</ele>
        <time>2023-07-23T07:55:55Z</time>
      </trkpt>
      <trkpt lat="42.21303" lon="0.83425">
        <ele>1143.6</ele>
        <time>2023-07-23T07:55:56Z</time>
      </trkpt>
      <trkpt lat="42.213" lon="0.83425">
        <ele>1143.6</ele>
        <time>2023-07-23T07:55:57Z</time>
      </trkpt>
      <trkpt lat="42.21298" lon="0.83425">
        <ele>1143.8</ele>
        <time>2023-07-23T07:55:58Z</time>
      </trkpt>
      <trkpt lat="42.21294" lon="0.83425">
        <ele>1144</ele>
        <time>2023-07-23T07:55:59Z</time>
      </trkpt>
      <trkpt lat="42.21291" lon="0.83426">
        <ele>1144.4</ele>
        <time>2023-07-23T07:56:00Z</time>
      </trkpt>
      <trkpt lat="42.21289" lon="0.83427">
        <ele>1144.6</ele>
        <time>2023-07-23T07:56:01Z</time>
      </trkpt>
      <trkpt lat="42.21285" lon="0.83429">
        <ele>1144.8</ele>
        <time>2023-07-23T07:56:02Z</time>
      </trkpt>
      <trkpt lat="42.21282" lon="0.83431">
        <ele>1145.4</ele>
        <time>2023-07-23T07:56:03Z</time>
      </trkpt>
      <trkpt lat="42.21279" lon="0.83432">
        <ele>1145.8</ele>
        <time>2023-07-23T07:56:04Z</time>
      </trkpt>
      <trkpt lat="42.21276" lon="0.83434">
        <ele>1146.2</ele>
        <time>2023-07-23T07:56:05Z</time>
      </trkpt>
      <trkpt lat="42.21273" lon="0.83435">
        <ele>1146.2</ele>
        <time>2023-07-23T07:56:06Z</time>
      </trkpt>
      <trkpt lat="42.2127" lon="0.83436">
        <ele>1146.6</ele>
        <time>2023-07-23T07:56:07Z</time>
      </trkpt>
      <trkpt lat="42.21267" lon="0.83438">
        <ele>1146.6</ele>
        <time>2023-07-23T07:56:08Z</time>
      </trkpt>
      <trkpt lat="42.21264" lon="0.83439">
        <ele>1146.6</ele>
        <time>2023-07-23T07:56:09Z</time>
      </trkpt>
      <trkpt lat="42.21261" lon="0.83441">
        <ele>1147</ele>
        <time>2023-07-23T07:56:10Z</time>
      </trkpt>
      <trkpt lat="42.21259" lon="0.83443">
        <ele>1147</ele>
        <time>2023-07-23T07:56:11Z</time>
      </trkpt>
      <trkpt lat="42.21256" lon="0.83444">
        <ele>1147.4</ele>
        <time>2023-07-23T07:56:12Z</time>
      </trkpt>
      <trkpt lat="42.21253" lon="0.83445">
        <ele>1147.6</ele>
        <time>2023-07-23T07:56:13Z</time>
      </trkpt>
      <trkpt lat="42.21249" lon="0.83447">
        <ele>1148.2</ele>
        <time>2023-07-23T07:56:14Z</time>
      </trkpt>
      <trkpt lat="42.21246" lon="0.83448">
        <ele>1148.6</ele>
        <time>2023-07-23T07:56:15Z</time>
      </trkpt>
      <trkpt lat="42.21244" lon="0.8345">
        <ele>1148.8</ele>
        <time>2023-07-23T07:56:16Z</time>
      </trkpt>
      <trkpt lat="42.2124" lon="0.83451">
        <ele>1149</ele>
        <time>2023-07-23T07:56:17Z</time>
      </trkpt>
      <trkpt lat="42.21237" lon="0.83453">
        <ele>1149.2</ele>
        <time>2023-07-23T07:56:18Z</time>
      </trkpt>
      <trkpt lat="42.21234" lon="0.83455">
        <ele>1149.6</ele>
        <time>2023-07-23T07:56:19Z</time>
      </trkpt>
      <trkpt lat="42.2123" lon="0.83456">
        <ele>1150.2</ele>
        <time>2023-07-23T07:56:20Z</time>
      </trkpt>
      <trkpt lat="42.21228" lon="0.83456">
        <ele>1150.2</ele>
        <time>2023-07-23T07:56:21Z</time>
      </trkpt>
      <trkpt lat="42.21224" lon="0.83457">
        <ele>1150.6</ele>
        <time>2023-07-23T07:56:22Z</time>
      </trkpt>
      <trkpt lat="42.21221" lon="0.83457">
        <ele>1150.6</ele>
        <time>2023-07-23T07:56:23Z</time>
      </trkpt>
      <trkpt lat="42.21218" lon="0.83457">
        <ele>1151</ele>
        <time>2023-07-23T07:56:24Z</time>
      </trkpt>
      <trkpt lat="42.21215" lon="0.83457">
        <ele>1151</ele>
        <time>2023-07-23T07:56:25Z</time>
      </trkpt>
      <trkpt lat="42.21211" lon="0.83457">
        <ele>1151.2</ele>
        <time>2023-07-23T07:56:26Z</time>
      </trkpt>
      <trkpt lat="42.21209" lon="0.83457">
        <ele>1151.6</ele>
        <time>2023-07-23T07:56:27Z</time>
      </trkpt>
      <trkpt lat="42.21205" lon="0.83456">
        <ele>1151.8</ele>
        <time>2023-07-23T07:56:28Z</time>
      </trkpt>
      <trkpt lat="42.21202" lon="0.83456">
        <ele>1152</ele>
        <time>2023-07-23T07:56:29Z</time>
      </trkpt>
      <trkpt lat="42.212" lon="0.83454">
        <ele>1152.2</ele>
        <time>2023-07-23T07:56:30Z</time>
      </trkpt>
      <trkpt lat="42.21198" lon="0.83452">
        <ele>1152.4</ele>
        <time>2023-07-23T07:56:31Z</time>
      </trkpt>
      <trkpt lat="42.21197" lon="0.83451">
        <ele>1152.4</ele>
        <time>2023-07-23T07:56:32Z</time>
      </trkpt>
      <trkpt lat="42.21195" lon="0.83449">
        <ele>1152.6</ele>
        <time>2023-07-23T07:56:33Z</time>
      </trkpt>
      <trkpt lat="42.21194" lon="0.83449">
        <ele>1152.8</ele>
        <time>2023-07-23T07:56:34Z</time>
      </trkpt>
      <trkpt lat="42.21194" lon="0.83449">
        <ele>1153</ele>
        <time>2023-07-23T07:56:35Z</time>
      </trkpt>
      <trkpt lat="42.21194" lon="0.83449">
        <ele>1153.2</ele>
        <time>2023-07-23T07:56:36Z</time>
      </trkpt>
      <trkpt lat="42.21194" lon="0.83449">
        <ele>1153.2</ele>
        <time>2023-07-23T07:56:37Z</time>
      </trkpt>
      <trkpt lat="42.21197" lon="0.83448">
        <ele>1154.6</ele>
        <time>2023-07-23T08:08:52Z</time>
      </trkpt>
      <trkpt lat="42.21199" lon="0.83447">
        <ele>1154.6</ele>
        <time>2023-07-23T08:08:53Z</time>
      </trkpt>
      <trkpt lat="42.21202" lon="0.83446">
        <ele>1154.6</ele>
        <time>2023-07-23T08:08:54Z</time>
      </trkpt>
      <trkpt lat="42.21204" lon="0.83445">
        <ele>1154.8</ele>
        <time>2023-07-23T08:08:55Z</time>
      </trkpt>
      <trkpt lat="42.21206" lon="0.83445">
        <ele>1154.8</ele>
        <time>2023-07-23T08:08:56Z</time>
      </trkpt>
      <trkpt lat="42.21209" lon="0.83444">
        <ele>1154.8</ele>
        <time>2023-07-23T08:08:57Z</time>
      </trkpt>
      <trkpt lat="42.21211" lon="0.83445">
        <ele>1154.8</ele>
        <time>2023-07-23T08:08:58Z</time>
      </trkpt>
      <trkpt lat="42.21214" lon="0.83445">
        <ele>1154.8</ele>
        <time>2023-07-23T08:08:59Z</time>
      </trkpt>
      <trkpt lat="42.21217" lon="0.83445">
        <ele>1155</ele>
        <time>2023-07-23T08:09:00Z</time>
      </trkpt>
      <trkpt lat="42.2122" lon="0.83445">
        <ele>1155.2</ele>
        <time>2023-07-23T08:09:01Z</time>
      </trkpt>
      <trkpt lat="42.21223" lon="0.83444">
        <ele>1155.4</ele>
        <time>2023-07-23T08:09:02Z</time>
      </trkpt>
      <trkpt lat="42.21226" lon="0.83443">
        <ele>1155.6</ele>
        <time>2023-07-23T08:09:03Z</time>
      </trkpt>
      <trkpt lat="42.21229" lon="0.83442">
        <ele>1155.6</ele>
        <time>2023-07-23T08:09:04Z</time>
      </trkpt>
      <trkpt lat="42.21231" lon="0.8344">
        <ele>1156</ele>
        <time>2023-07-23T08:09:05Z</time>
      </trkpt>
      <trkpt lat="42.21234" lon="0.83438">
        <ele>1156</ele>
        <time>2023-07-23T08:09:06Z</time>
      </trkpt>
      <trkpt lat="42.21237" lon="0.83435">
        <ele>1156.4</ele>
        <time>2023-07-23T08:09:07Z</time>
      </trkpt>
      <trkpt lat="42.2124" lon="0.83433">
        <ele>1156.6</ele>
        <time>2023-07-23T08:09:08Z</time>
      </trkpt>
      <trkpt lat="42.21242" lon="0.8343">
        <ele>1156.6</ele>
        <time>2023-07-23T08:09:09Z</time>
      </trkpt>
      <trkpt lat="42.21244" lon="0.83427">
        <ele>1156.8</ele>
        <time>2023-07-23T08:09:10Z</time>
      </trkpt>
      <trkpt lat="42.21246" lon="0.83424">
        <ele>1156.8</ele>
        <time>2023-07-23T08:09:11Z</time>
      </trkpt>
      <trkpt lat="42.21249" lon="0.83421">
        <ele>1156.8</ele>
        <time>2023-07-23T08:09:12Z</time>
      </trkpt>
      <trkpt lat="42.21251" lon="0.83418">
        <ele>1156.8</ele>
        <time>2023-07-23T08:09:13Z</time>
      </trkpt>
      <trkpt lat="42.21254" lon="0.83415">
        <ele>1157</ele>
        <time>2023-07-23T08:09:14Z</time>
      </trkpt>
      <trkpt lat="42.21256" lon="0.83412">
        <ele>1157</ele>
        <time>2023-07-23T08:09:15Z</time>
      </trkpt>
      <trkpt lat="42.21259" lon="0.83409">
        <ele>1157.2</ele>
        <time>2023-07-23T08:09:16Z</time>
      </trkpt>
      <trkpt lat="42.21262" lon="0.83406">
        <ele>1157.4</ele>
        <time>2023-07-23T08:09:17Z</time>
      </trkpt>
      <trkpt lat="42.21265" lon="0.83403">
        <ele>1157.6</ele>
        <time>2023-07-23T08:09:18Z</time>
      </trkpt>
      <trkpt lat="42.21268" lon="0.834">
        <ele>1157.8</ele>
        <time>2023-07-23T08:09:19Z</time>
      </trkpt>
      <trkpt lat="42.21271" lon="0.83398">
        <ele>1157.8</ele>
        <time>2023-07-23T08:09:20Z</time>
      </trkpt>
      <trkpt lat="42.21273" lon="0.83396">
        <ele>1158</ele>
        <time>2023-07-23T08:09:21Z</time>
      </trkpt>
      <trkpt lat="42.21276" lon="0.83393">
        <ele>1158.4</ele>
        <time>2023-07-23T08:09:22Z</time>
      </trkpt>
      <trkpt lat="42.21279" lon="0.83391">
        <ele>1158.8</ele>
        <time>2023-07-23T08:09:23Z</time>
      </trkpt>
      <trkpt lat="42.21282" lon="0.83388">
        <ele>1159</ele>
        <time>2023-07-23T08:09:24Z</time>
      </trkpt>
      <trkpt lat="42.21285" lon="0.83385">
        <ele>1159.4</ele>
        <time>2023-07-23T08:09:25Z</time>
      </trkpt>
      <trkpt lat="42.21287" lon="0.83382">
        <ele>1159.6</ele>
        <time>2023-07-23T08:09:26Z</time>
      </trkpt>
      <trkpt lat="42.2129" lon="0.8338">
        <ele>1159.8</ele>
        <time>2023-07-23T08:09:27Z</time>
      </trkpt>
      <trkpt lat="42.21292" lon="0.83377">
        <ele>1160.2</ele>
        <time>2023-07-23T08:09:28Z</time>
      </trkpt>
      <trkpt lat="42.21295" lon="0.83375">
        <ele>1160.6</ele>
        <time>2023-07-23T08:09:29Z</time>
      </trkpt>
      <trkpt lat="42.21298" lon="0.83373">
        <ele>1161.2</ele>
        <time>2023-07-23T08:09:30Z</time>
      </trkpt>
      <trkpt lat="42.21301" lon="0.83371">
        <ele>1161.4</ele>
        <time>2023-07-23T08:09:31Z</time>
      </trkpt>
      <trkpt lat="42.21304" lon="0.83369">
        <ele>1162</ele>
        <time>2023-07-23T08:09:32Z</time>
      </trkpt>
      <trkpt lat="42.21307" lon="0.83368">
        <ele>1162.2</ele>
        <time>2023-07-23T08:09:33Z</time>
      </trkpt>
      <trkpt lat="42.2131" lon="0.83368">
        <ele>1162.6</ele>
        <time>2023-07-23T08:09:34Z</time>
      </trkpt>
      <trkpt lat="42.21314" lon="0.83368">
        <ele>1162.8</ele>
        <time>2023-07-23T08:09:35Z</time>
      </trkpt>
      <trkpt lat="42.21317" lon="0.83368">
        <ele>1163</ele>
        <time>2023-07-23T08:09:36Z</time>
      </trkpt>
      <trkpt lat="42.2132" lon="0.83368">
        <ele>1163.4</ele>
        <time>2023-07-23T08:09:37Z</time>
      </trkpt>
      <trkpt lat="42.21324" lon="0.83368">
        <ele>1163.6</ele>
        <time>2023-07-23T08:09:38Z</time>
      </trkpt>
      <trkpt lat="42.21327" lon="0.83369">
        <ele>1163.8</ele>
        <time>2023-07-23T08:09:39Z</time>
      </trkpt>
      <trkpt lat="42.2133" lon="0.8337">
        <ele>1164.2</ele>
        <time>2023-07-23T08:09:40Z</time>
      </trkpt>
      <trkpt lat="42.21333" lon="0.83372">
        <ele>1164.4</ele>
        <time>2023-07-23T08:09:41Z</time>
      </trkpt>
      <trkpt lat="42.21336" lon="0.83374">
        <ele>1164.6</ele>
        <time>2023-07-23T08:09:42Z</time>
      </trkpt>
      <trkpt lat="42.21339" lon="0.83376">
        <ele>1164.8</ele>
        <time>2023-07-23T08:09:43Z</time>
      </trkpt>
      <trkpt lat="42.21342" lon="0.83379">
        <ele>1165.2</ele>
        <time>2023-07-23T08:09:44Z</time>
      </trkpt>
      <trkpt lat="42.21345" lon="0.83382">
        <ele>1165.6</ele>
        <time>2023-07-23T08:09:45Z</time>
      </trkpt>
      <trkpt lat="42.21347" lon="0.83385">
        <ele>1165.6</ele>
        <time>2023-07-23T08:09:46Z</time>
      </trkpt>
      <trkpt lat="42.21349" lon="0.83389">
        <ele>1166.2</ele>
        <time>2023-07-23T08:09:47Z</time>
      </trkpt>
      <trkpt lat="42.21352" lon="0.83392">
        <ele>1166.2</ele>
        <time>2023-07-23T08:09:48Z</time>
      </trkpt>
      <trkpt lat="42.21354" lon="0.83396">
        <ele>1166.8</ele>
        <time>2023-07-23T08:09:49Z</time>
      </trkpt>
      <trkpt lat="42.21356" lon="0.83399">
        <ele>1167</ele>
        <time>2023-07-23T08:09:50Z</time>
      </trkpt>
      <trkpt lat="42.21358" lon="0.83403">
        <ele>1167.4</ele>
        <time>2023-07-23T08:09:51Z</time>
      </trkpt>
      <trkpt lat="42.2136" lon="0.83407">
        <ele>1167.6</ele>
        <time>2023-07-23T08:09:52Z</time>
      </trkpt>
      <trkpt lat="42.21362" lon="0.83411">
        <ele>1167.8</ele>
        <time>2023-07-23T08:09:53Z</time>
      </trkpt>
      <trkpt lat="42.21363" lon="0.83415">
        <ele>1168.2</ele>
        <time>2023-07-23T08:09:54Z</time>
      </trkpt>
      <trkpt lat="42.21364" lon="0.83419">
        <ele>1168.4</ele>
        <time>2023-07-23T08:09:55Z</time>
      </trkpt>
      <trkpt lat="42.21365" lon="0.83424">
        <ele>1168.6</ele>
        <time>2023-07-23T08:09:56Z</time>
      </trkpt>
      <trkpt lat="42.21365" lon="0.83428">
        <ele>1168.8</ele>
        <time>2023-07-23T08:09:57Z</time>
      </trkpt>
      <trkpt lat="42.21366" lon="0.83432">
        <ele>1168.8</ele>
        <time>2023-07-23T08:09:58Z</time>
      </trkpt>
      <trkpt lat="42.21367" lon="0.83436">
        <ele>1169.2</ele>
        <time>2023-07-23T08:09:59Z</time>
      </trkpt>
      <trkpt lat="42.21369" lon="0.8344">
        <ele>1169.4</ele>
        <time>2023-07-23T08:10:00Z</time>
      </trkpt>
      <trkpt lat="42.2137" lon="0.83443">
        <ele>1169.8</ele>
        <time>2023-07-23T08:10:01Z</time>
      </trkpt>
      <trkpt lat="42.21372" lon="0.83446">
        <ele>1170.2</ele>
        <time>2023-07-23T08:10:02Z</time>
      </trkpt>
      <trkpt lat="42.21375" lon="0.83448">
        <ele>1170.4</ele>
        <time>2023-07-23T08:10:03Z</time>
      </trkpt>
      <trkpt lat="42.21378" lon="0.8345">
        <ele>1170.6</ele>
        <time>2023-07-23T08:10:04Z</time>
      </trkpt>
      <trkpt lat="42.21381" lon="0.83451">
        <ele>1170.6</ele>
        <time>2023-07-23T08:10:05Z</time>
      </trkpt>
      <trkpt lat="42.21385" lon="0.83451">
        <ele>1170.6</ele>
        <time>2023-07-23T08:10:06Z</time>
      </trkpt>
      <trkpt lat="42.21388" lon="0.83451">
        <ele>1171.4</ele>
        <time>2023-07-23T08:10:07Z</time>
      </trkpt>
      <trkpt lat="42.21392" lon="0.8345">
        <ele>1171.2</ele>
        <time>2023-07-23T08:10:08Z</time>
      </trkpt>
      <trkpt lat="42.21395" lon="0.83448">
        <ele>1171.6</ele>
        <time>2023-07-23T08:10:09Z</time>
      </trkpt>
      <trkpt lat="42.21399" lon="0.83447">
        <ele>1171.6</ele>
        <time>2023-07-23T08:10:10Z</time>
      </trkpt>
      <trkpt lat="42.21402" lon="0.83445">
        <ele>1171.8</ele>
        <time>2023-07-23T08:10:11Z</time>
      </trkpt>
      <trkpt lat="42.21405" lon="0.83444">
        <ele>1172</ele>
        <time>2023-07-23T08:10:12Z</time>
      </trkpt>
      <trkpt lat="42.21408" lon="0.83441">
        <ele>1172</ele>
        <time>2023-07-23T08:10:13Z</time>
      </trkpt>
      <trkpt lat="42.2141" lon="0.83438">
        <ele>1172.4</ele>
        <time>2023-07-23T08:10:14Z</time>
      </trkpt>
      <trkpt lat="42.21412" lon="0.83435">
        <ele>1172.4</ele>
        <time>2023-07-23T08:10:15Z</time>
      </trkpt>
      <trkpt lat="42.21413" lon="0.83431">
        <ele>1172.6</ele>
        <time>2023-07-23T08:10:16Z</time>
      </trkpt>
      <trkpt lat="42.21413" lon="0.83427">
        <ele>1172.6</ele>
        <time>2023-07-23T08:10:17Z</time>
      </trkpt>
      <trkpt lat="42.21412" lon="0.83422">
        <ele>1172.8</ele>
        <time>2023-07-23T08:10:18Z</time>
      </trkpt>
      <trkpt lat="42.21411" lon="0.83418">
        <ele>1173</ele>
        <time>2023-07-23T08:10:19Z</time>
      </trkpt>
      <trkpt lat="42.21409" lon="0.83414">
        <ele>1173.2</ele>
        <time>2023-07-23T08:10:20Z</time>
      </trkpt>
      <trkpt lat="42.21407" lon="0.8341">
        <ele>1173.6</ele>
        <time>2023-07-23T08:10:21Z</time>
      </trkpt>
      <trkpt lat="42.21405" lon="0.83406">
        <ele>1173.6</ele>
        <time>2023-07-23T08:10:22Z</time>
      </trkpt>
      <trkpt lat="42.21403" lon="0.83402">
        <ele>1173.8</ele>
        <time>2023-07-23T08:10:23Z</time>
      </trkpt>
      <trkpt lat="42.21401" lon="0.83399">
        <ele>1174</ele>
        <time>2023-07-23T08:10:24Z</time>
      </trkpt>
      <trkpt lat="42.21398" lon="0.83395">
        <ele>1174.2</ele>
        <time>2023-07-23T08:10:25Z</time>
      </trkpt>
      <trkpt lat="42.21395" lon="0.83392">
        <ele>1174.4</ele>
        <time>2023-07-23T08:10:26Z</time>
      </trkpt>
      <trkpt lat="42.21393" lon="0.83389">
        <ele>1174.4</ele>
        <time>2023-07-23T08:10:27Z</time>
      </trkpt>
      <trkpt lat="42.2139" lon="0.83387">
        <ele>1174.6</ele>
        <time>2023-07-23T08:10:28Z</time>
      </trkpt>
      <trkpt lat="42.21388" lon="0.83384">
        <ele>1174.8</ele>
        <time>2023-07-23T08:10:29Z</time>
      </trkpt>
      <trkpt lat="42.21384" lon="0.8338">
        <ele>1174.8</ele>
        <time>2023-07-23T08:10:30Z</time>
      </trkpt>
      <trkpt lat="42.21381" lon="0.83378">
        <ele>1175.2</ele>
        <time>2023-07-23T08:10:31Z</time>
      </trkpt>
      <trkpt lat="42.21379" lon="0.83375">
        <ele>1175.4</ele>
        <time>2023-07-23T08:10:32Z</time>
      </trkpt>
      <trkpt lat="42.21379" lon="0.83375">
        <ele>1175.6</ele>
        <time>2023-07-23T08:10:33Z</time>
      </trkpt>
      <trkpt lat="42.21374" lon="0.83369">
        <ele>1175.6</ele>
        <time>2023-07-23T08:10:34Z</time>
      </trkpt>
      <trkpt lat="42.2137" lon="0.83366">
        <ele>1175.8</ele>
        <time>2023-07-23T08:10:35Z</time>
      </trkpt>
      <trkpt lat="42.21367" lon="0.83363">
        <ele>1176</ele>
        <time>2023-07-23T08:10:36Z</time>
      </trkpt>
      <trkpt lat="42.21365" lon="0.8336">
        <ele>1176</ele>
        <time>2023-07-23T08:10:37Z</time>
      </trkpt>
      <trkpt lat="42.21362" lon="0.83357">
        <ele>1176</ele>
        <time>2023-07-23T08:10:38Z</time>
      </trkpt>
      <trkpt lat="42.21359" lon="0.83353">
        <ele>1176.2</ele>
        <time>2023-07-23T08:10:39Z</time>
      </trkpt>
      <trkpt lat="42.21357" lon="0.8335">
        <ele>1176.2</ele>
        <time>2023-07-23T08:10:40Z</time>
      </trkpt>
      <trkpt lat="42.21354" lon="0.83347">
        <ele>1176.4</ele>
        <time>2023-07-23T08:10:41Z</time>
      </trkpt>
      <trkpt lat="42.21352" lon="0.83343">
        <ele>1176.6</ele>
        <time>2023-07-23T08:10:42Z</time>
      </trkpt>
      <trkpt lat="42.2135" lon="0.8334">
        <ele>1176.8</ele>
        <time>2023-07-23T08:10:43Z</time>
      </trkpt>
      <trkpt lat="42.21349" lon="0.83337">
        <ele>1176.8</ele>
        <time>2023-07-23T08:10:44Z</time>
      </trkpt>
      <trkpt lat="42.21346" lon="0.83333">
        <ele>1176.8</ele>
        <time>2023-07-23T08:10:45Z</time>
      </trkpt>
      <trkpt lat="42.21345" lon="0.83329">
        <ele>1177.2</ele>
        <time>2023-07-23T08:10:46Z</time>
      </trkpt>
      <trkpt lat="42.21342" lon="0.83326">
        <ele>1177.2</ele>
        <time>2023-07-23T08:10:47Z</time>
      </trkpt>
      <trkpt lat="42.2134" lon="0.83322">
        <ele>1177.4</ele>
        <time>2023-07-23T08:10:48Z</time>
      </trkpt>
      <trkpt lat="42.21338" lon="0.83319">
        <ele>1177.4</ele>
        <time>2023-07-23T08:10:49Z</time>
      </trkpt>
      <trkpt lat="42.21336" lon="0.83315">
        <ele>1177.8</ele>
        <time>2023-07-23T08:10:50Z</time>
      </trkpt>
      <trkpt lat="42.21335" lon="0.8331">
        <ele>1178</ele>
        <time>2023-07-23T08:10:51Z</time>
      </trkpt>
      <trkpt lat="42.21333" lon="0.83306">
        <ele>1178</ele>
        <time>2023-07-23T08:10:52Z</time>
      </trkpt>
      <trkpt lat="42.21332" lon="0.83302">
        <ele>1178</ele>
        <time>2023-07-23T08:10:53Z</time>
      </trkpt>
      <trkpt lat="42.21331" lon="0.83296">
        <ele>1178</ele>
        <time>2023-07-23T08:10:54Z</time>
      </trkpt>
      <trkpt lat="42.21329" lon="0.83292">
        <ele>1178.6</ele>
        <time>2023-07-23T08:10:55Z</time>
      </trkpt>
      <trkpt lat="42.21328" lon="0.83288">
        <ele>1178.8</ele>
        <time>2023-07-23T08:10:56Z</time>
      </trkpt>
      <trkpt lat="42.21326" lon="0.83283">
        <ele>1178.8</ele>
        <time>2023-07-23T08:10:57Z</time>
      </trkpt>
      <trkpt lat="42.21325" lon="0.83278">
        <ele>1179</ele>
        <time>2023-07-23T08:10:58Z</time>
      </trkpt>
      <trkpt lat="42.21324" lon="0.83273">
        <ele>1179.6</ele>
        <time>2023-07-23T08:10:59Z</time>
      </trkpt>
      <trkpt lat="42.21322" lon="0.83269">
        <ele>1180.2</ele>
        <time>2023-07-23T08:11:00Z</time>
      </trkpt>
      <trkpt lat="42.21321" lon="0.83265">
        <ele>1180.4</ele>
        <time>2023-07-23T08:11:01Z</time>
      </trkpt>
      <trkpt lat="42.21319" lon="0.8326">
        <ele>1181</ele>
        <time>2023-07-23T08:11:02Z</time>
      </trkpt>
      <trkpt lat="42.21318" lon="0.83256">
        <ele>1181.8</ele>
        <time>2023-07-23T08:11:03Z</time>
      </trkpt>
      <trkpt lat="42.21317" lon="0.83252">
        <ele>1182.2</ele>
        <time>2023-07-23T08:11:04Z</time>
      </trkpt>
      <trkpt lat="42.21316" lon="0.83247">
        <ele>1182.6</ele>
        <time>2023-07-23T08:11:05Z</time>
      </trkpt>
      <trkpt lat="42.21314" lon="0.83243">
        <ele>1182.8</ele>
        <time>2023-07-23T08:11:06Z</time>
      </trkpt>
      <trkpt lat="42.21313" lon="0.83239">
        <ele>1183</ele>
        <time>2023-07-23T08:11:07Z</time>
      </trkpt>
      <trkpt lat="42.21312" lon="0.83235">
        <ele>1183.2</ele>
        <time>2023-07-23T08:11:08Z</time>
      </trkpt>
      <trkpt lat="42.21311" lon="0.8323">
        <ele>1183.6</ele>
        <time>2023-07-23T08:11:09Z</time>
      </trkpt>
      <trkpt lat="42.2131" lon="0.83226">
        <ele>1184.2</ele>
        <time>2023-07-23T08:11:10Z</time>
      </trkpt>
      <trkpt lat="42.21309" lon="0.83221">
        <ele>1184.4</ele>
        <time>2023-07-23T08:11:11Z</time>
      </trkpt>
      <trkpt lat="42.21308" lon="0.83216">
        <ele>1184.8</ele>
        <time>2023-07-23T08:11:12Z</time>
      </trkpt>
      <trkpt lat="42.21307" lon="0.83212">
        <ele>1185</ele>
        <time>2023-07-23T08:11:13Z</time>
      </trkpt>
      <trkpt lat="42.21306" lon="0.83208">
        <ele>1185.4</ele>
        <time>2023-07-23T08:11:14Z</time>
      </trkpt>
      <trkpt lat="42.21305" lon="0.83204">
        <ele>1185.6</ele>
        <time>2023-07-23T08:11:15Z</time>
      </trkpt>
      <trkpt lat="42.21305" lon="0.83199">
        <ele>1185.6</ele>
        <time>2023-07-23T08:11:16Z</time>
      </trkpt>
      <trkpt lat="42.21305" lon="0.83194">
        <ele>1186</ele>
        <time>2023-07-23T08:11:17Z</time>
      </trkpt>
      <trkpt lat="42.21304" lon="0.8319">
        <ele>1186.4</ele>
        <time>2023-07-23T08:11:18Z</time>
      </trkpt>
      <trkpt lat="42.21304" lon="0.83184">
        <ele>1186.8</ele>
        <time>2023-07-23T08:11:19Z</time>
      </trkpt>
      <trkpt lat="42.21304" lon="0.83179">
        <ele>1187.2</ele>
        <time>2023-07-23T08:11:20Z</time>
      </trkpt>
      <trkpt lat="42.21304" lon="0.83175">
        <ele>1187.2</ele>
        <time>2023-07-23T08:11:21Z</time>
      </trkpt>
      <trkpt lat="42.21304" lon="0.8317">
        <ele>1187.6</ele>
        <time>2023-07-23T08:11:22Z</time>
      </trkpt>
      <trkpt lat="42.21304" lon="0.83166">
        <ele>1187.6</ele>
        <time>2023-07-23T08:11:23Z</time>
      </trkpt>
      <trkpt lat="42.21304" lon="0.83162">
        <ele>1188</ele>
        <time>2023-07-23T08:11:24Z</time>
      </trkpt>
      <trkpt lat="42.21305" lon="0.83156">
        <ele>1188.2</ele>
        <time>2023-07-23T08:11:25Z</time>
      </trkpt>
      <trkpt lat="42.21305" lon="0.83151">
        <ele>1188.4</ele>
        <time>2023-07-23T08:11:26Z</time>
      </trkpt>
      <trkpt lat="42.21306" lon="0.83146">
        <ele>1188.8</ele>
        <time>2023-07-23T08:11:27Z</time>
      </trkpt>
      <trkpt lat="42.21306" lon="0.83141">
        <ele>1188.8</ele>
        <time>2023-07-23T08:11:28Z</time>
      </trkpt>
      <trkpt lat="42.21307" lon="0.83137">
        <ele>1189</ele>
        <time>2023-07-23T08:11:29Z</time>
      </trkpt>
      <trkpt lat="42.21308" lon="0.83132">
        <ele>1189.4</ele>
        <time>2023-07-23T08:11:30Z</time>
      </trkpt>
      <trkpt lat="42.21309" lon="0.83127">
        <ele>1189.6</ele>
        <time>2023-07-23T08:11:31Z</time>
      </trkpt>
      <trkpt lat="42.21311" lon="0.83122">
        <ele>1189.8</ele>
        <time>2023-07-23T08:11:32Z</time>
      </trkpt>
      <trkpt lat="42.21313" lon="0.83118">
        <ele>1190</ele>
        <time>2023-07-23T08:11:33Z</time>
      </trkpt>
      <trkpt lat="42.21315" lon="0.83113">
        <ele>1190.4</ele>
        <time>2023-07-23T08:11:34Z</time>
      </trkpt>
      <trkpt lat="42.21317" lon="0.83109">
        <ele>1190.6</ele>
        <time>2023-07-23T08:11:35Z</time>
      </trkpt>
      <trkpt lat="42.21319" lon="0.83104">
        <ele>1191</ele>
        <time>2023-07-23T08:11:36Z</time>
      </trkpt>
      <trkpt lat="42.21321" lon="0.831">
        <ele>1191.4</ele>
        <time>2023-07-23T08:11:37Z</time>
      </trkpt>
      <trkpt lat="42.21323" lon="0.83097">
        <ele>1191.4</ele>
        <time>2023-07-23T08:11:38Z</time>
      </trkpt>
      <trkpt lat="42.21325" lon="0.83092">
        <ele>1191.6</ele>
        <time>2023-07-23T08:11:39Z</time>
      </trkpt>
      <trkpt lat="42.21328" lon="0.83088">
        <ele>1191.8</ele>
        <time>2023-07-23T08:11:40Z</time>
      </trkpt>
      <trkpt lat="42.2133" lon="0.83084">
        <ele>1192.2</ele>
        <time>2023-07-23T08:11:41Z</time>
      </trkpt>
      <trkpt lat="42.21332" lon="0.8308">
        <ele>1192.4</ele>
        <time>2023-07-23T08:11:42Z</time>
      </trkpt>
      <trkpt lat="42.21334" lon="0.83077">
        <ele>1192.4</ele>
        <time>2023-07-23T08:11:43Z</time>
      </trkpt>
      <trkpt lat="42.21337" lon="0.83073">
        <ele>1192.6</ele>
        <time>2023-07-23T08:11:44Z</time>
      </trkpt>
      <trkpt lat="42.21339" lon="0.8307">
        <ele>1192.6</ele>
        <time>2023-07-23T08:11:45Z</time>
      </trkpt>
      <trkpt lat="42.21342" lon="0.83066">
        <ele>1192.6</ele>
        <time>2023-07-23T08:11:46Z</time>
      </trkpt>
      <trkpt lat="42.21344" lon="0.83063">
        <ele>1193</ele>
        <time>2023-07-23T08:11:47Z</time>
      </trkpt>
      <trkpt lat="42.21347" lon="0.83059">
        <ele>1193.2</ele>
        <time>2023-07-23T08:11:48Z</time>
      </trkpt>
      <trkpt lat="42.21348" lon="0.83055">
        <ele>1193.6</ele>
        <time>2023-07-23T08:11:49Z</time>
      </trkpt>
      <trkpt lat="42.2135" lon="0.8305">
        <ele>1194</ele>
        <time>2023-07-23T08:11:50Z</time>
      </trkpt>
      <trkpt lat="42.21351" lon="0.83045">
        <ele>1194.6</ele>
        <time>2023-07-23T08:11:51Z</time>
      </trkpt>
      <trkpt lat="42.2135" lon="0.8304">
        <ele>1194.6</ele>
        <time>2023-07-23T08:11:52Z</time>
      </trkpt>
      <trkpt lat="42.2135" lon="0.83035">
        <ele>1194.8</ele>
        <time>2023-07-23T08:11:53Z</time>
      </trkpt>
      <trkpt lat="42.21349" lon="0.8303">
        <ele>1195</ele>
        <time>2023-07-23T08:11:54Z</time>
      </trkpt>
      <trkpt lat="42.21348" lon="0.83024">
        <ele>1195</ele>
        <time>2023-07-23T08:11:55Z</time>
      </trkpt>
      <trkpt lat="42.21346" lon="0.83019">
        <ele>1195.4</ele>
        <time>2023-07-23T08:11:56Z</time>
      </trkpt>
      <trkpt lat="42.21344" lon="0.83013">
        <ele>1195.4</ele>
        <time>2023-07-23T08:11:57Z</time>
      </trkpt>
      <trkpt lat="42.21342" lon="0.83007">
        <ele>1195.6</ele>
        <time>2023-07-23T08:11:58Z</time>
      </trkpt>
      <trkpt lat="42.2134" lon="0.83001">
        <ele>1195.8</ele>
        <time>2023-07-23T08:11:59Z</time>
      </trkpt>
      <trkpt lat="42.21338" lon="0.82995">
        <ele>1195.8</ele>
        <time>2023-07-23T08:12:00Z</time>
      </trkpt>
      <trkpt lat="42.21336" lon="0.82989">
        <ele>1195.8</ele>
        <time>2023-07-23T08:12:01Z</time>
      </trkpt>
      <trkpt lat="42.21335" lon="0.82982">
        <ele>1196</ele>
        <time>2023-07-23T08:12:02Z</time>
      </trkpt>
      <trkpt lat="42.21333" lon="0.82976">
        <ele>1195.8</ele>
        <time>2023-07-23T08:12:03Z</time>
      </trkpt>
      <trkpt lat="42.21331" lon="0.8297">
        <ele>1195.6</ele>
        <time>2023-07-23T08:12:04Z</time>
      </trkpt>
      <trkpt lat="42.2133" lon="0.82963">
        <ele>1195.6</ele>
        <time>2023-07-23T08:12:05Z</time>
      </trkpt>
      <trkpt lat="42.21328" lon="0.82956">
        <ele>1195.4</ele>
        <time>2023-07-23T08:12:06Z</time>
      </trkpt>
      <trkpt lat="42.21327" lon="0.8295">
        <ele>1195.2</ele>
        <time>2023-07-23T08:12:07Z</time>
      </trkpt>
      <trkpt lat="42.21326" lon="0.82944">
        <ele>1194.8</ele>
        <time>2023-07-23T08:12:08Z</time>
      </trkpt>
      <trkpt lat="42.21325" lon="0.82938">
        <ele>1194.6</ele>
        <time>2023-07-23T08:12:09Z</time>
      </trkpt>
      <trkpt lat="42.21324" lon="0.82932">
        <ele>1194.4</ele>
        <time>2023-07-23T08:12:10Z</time>
      </trkpt>
      <trkpt lat="42.21324" lon="0.82925">
        <ele>1194.4</ele>
        <time>2023-07-23T08:12:11Z</time>
      </trkpt>
      <trkpt lat="42.21323" lon="0.82918">
        <ele>1194.2</ele>
        <time>2023-07-23T08:12:12Z</time>
      </trkpt>
      <trkpt lat="42.21323" lon="0.82911">
        <ele>1194.2</ele>
        <time>2023-07-23T08:12:13Z</time>
      </trkpt>
      <trkpt lat="42.21324" lon="0.82905">
        <ele>1194.2</ele>
        <time>2023-07-23T08:12:14Z</time>
      </trkpt>
      <trkpt lat="42.21325" lon="0.82898">
        <ele>1194.2</ele>
        <time>2023-07-23T08:12:15Z</time>
      </trkpt>
      <trkpt lat="42.21326" lon="0.82892">
        <ele>1194.2</ele>
        <time>2023-07-23T08:12:16Z</time>
      </trkpt>
      <trkpt lat="42.21327" lon="0.82886">
        <ele>1194</ele>
        <time>2023-07-23T08:12:17Z</time>
      </trkpt>
      <trkpt lat="42.21329" lon="0.8288">
        <ele>1194</ele>
        <time>2023-07-23T08:12:18Z</time>
      </trkpt>
      <trkpt lat="42.2133" lon="0.82876">
        <ele>1194</ele>
        <time>2023-07-23T08:12:19Z</time>
      </trkpt>
      <trkpt lat="42.21332" lon="0.82869">
        <ele>1194</ele>
        <time>2023-07-23T08:12:20Z</time>
      </trkpt>
      <trkpt lat="42.21334" lon="0.82864">
        <ele>1193.8</ele>
        <time>2023-07-23T08:12:21Z</time>
      </trkpt>
      <trkpt lat="42.21335" lon="0.82858">
        <ele>1193.8</ele>
        <time>2023-07-23T08:12:22Z</time>
      </trkpt>
      <trkpt lat="42.21336" lon="0.82853">
        <ele>1193.8</ele>
        <time>2023-07-23T08:12:23Z</time>
      </trkpt>
      <trkpt lat="42.21337" lon="0.82849">
        <ele>1193.8</ele>
        <time>2023-07-23T08:12:24Z</time>
      </trkpt>
      <trkpt lat="42.21339" lon="0.82844">
        <ele>1193.8</ele>
        <time>2023-07-23T08:12:25Z</time>
      </trkpt>
      <trkpt lat="42.2134" lon="0.8284">
        <ele>1193.8</ele>
        <time>2023-07-23T08:12:26Z</time>
      </trkpt>
      <trkpt lat="42.21342" lon="0.82836">
        <ele>1194</ele>
        <time>2023-07-23T08:12:27Z</time>
      </trkpt>
      <trkpt lat="42.21343" lon="0.82831">
        <ele>1194.4</ele>
        <time>2023-07-23T08:12:28Z</time>
      </trkpt>
      <trkpt lat="42.21344" lon="0.82828">
        <ele>1194.4</ele>
        <time>2023-07-23T08:12:29Z</time>
      </trkpt>
      <trkpt lat="42.21346" lon="0.82823">
        <ele>1194.4</ele>
        <time>2023-07-23T08:12:30Z</time>
      </trkpt>
      <trkpt lat="42.21348" lon="0.82818">
        <ele>1194.4</ele>
        <time>2023-07-23T08:12:31Z</time>
      </trkpt>
      <trkpt lat="42.21349" lon="0.82814">
        <ele>1194.6</ele>
        <time>2023-07-23T08:12:32Z</time>
      </trkpt>
      <trkpt lat="42.21351" lon="0.8281">
        <ele>1194.6</ele>
        <time>2023-07-23T08:12:33Z</time>
      </trkpt>
      <trkpt lat="42.21352" lon="0.82806">
        <ele>1194.6</ele>
        <time>2023-07-23T08:12:34Z</time>
      </trkpt>
      <trkpt lat="42.21353" lon="0.82803">
        <ele>1194.8</ele>
        <time>2023-07-23T08:12:35Z</time>
      </trkpt>
      <trkpt lat="42.21355" lon="0.82798">
        <ele>1194.8</ele>
        <time>2023-07-23T08:12:36Z</time>
      </trkpt>
      <trkpt lat="42.21356" lon="0.82794">
        <ele>1195.2</ele>
        <time>2023-07-23T08:12:37Z</time>
      </trkpt>
      <trkpt lat="42.21357" lon="0.8279">
        <ele>1195.4</ele>
        <time>2023-07-23T08:12:38Z</time>
      </trkpt>
      <trkpt lat="42.21359" lon="0.82786">
        <ele>1195.4</ele>
        <time>2023-07-23T08:12:39Z</time>
      </trkpt>
      <trkpt lat="42.2136" lon="0.82782">
        <ele>1195.8</ele>
        <time>2023-07-23T08:12:40Z</time>
      </trkpt>
      <trkpt lat="42.21361" lon="0.82779">
        <ele>1196</ele>
        <time>2023-07-23T08:12:41Z</time>
      </trkpt>
      <trkpt lat="42.21362" lon="0.82775">
        <ele>1196.4</ele>
        <time>2023-07-23T08:12:42Z</time>
      </trkpt>
      <trkpt lat="42.21363" lon="0.82771">
        <ele>1196.6</ele>
        <time>2023-07-23T08:12:43Z</time>
      </trkpt>
      <trkpt lat="42.21364" lon="0.82767">
        <ele>1196.8</ele>
        <time>2023-07-23T08:12:44Z</time>
      </trkpt>
      <trkpt lat="42.21366" lon="0.82764">
        <ele>1196.8</ele>
        <time>2023-07-23T08:12:45Z</time>
      </trkpt>
      <trkpt lat="42.21368" lon="0.8276">
        <ele>1197</ele>
        <time>2023-07-23T08:12:46Z</time>
      </trkpt>
      <trkpt lat="42.21369" lon="0.82755">
        <ele>1197.2</ele>
        <time>2023-07-23T08:12:47Z</time>
      </trkpt>
      <trkpt lat="42.21371" lon="0.82751">
        <ele>1197.2</ele>
        <time>2023-07-23T08:12:48Z</time>
      </trkpt>
      <trkpt lat="42.21372" lon="0.82747">
        <ele>1197.2</ele>
        <time>2023-07-23T08:12:49Z</time>
      </trkpt>
      <trkpt lat="42.21374" lon="0.82743">
        <ele>1197.4</ele>
        <time>2023-07-23T08:12:50Z</time>
      </trkpt>
      <trkpt lat="42.21376" lon="0.82738">
        <ele>1197.4</ele>
        <time>2023-07-23T08:12:51Z</time>
      </trkpt>
      <trkpt lat="42.21378" lon="0.82734">
        <ele>1197.4</ele>
        <time>2023-07-23T08:12:52Z</time>
      </trkpt>
      <trkpt lat="42.21379" lon="0.8273">
        <ele>1197.6</ele>
        <time>2023-07-23T08:12:53Z</time>
      </trkpt>
      <trkpt lat="42.21381" lon="0.82726">
        <ele>1198</ele>
        <time>2023-07-23T08:12:54Z</time>
      </trkpt>
      <trkpt lat="42.21382" lon="0.82722">
        <ele>1198.2</ele>
        <time>2023-07-23T08:12:55Z</time>
      </trkpt>
      <trkpt lat="42.21384" lon="0.82719">
        <ele>1198.4</ele>
        <time>2023-07-23T08:12:56Z</time>
      </trkpt>
      <trkpt lat="42.21385" lon="0.82715">
        <ele>1198.6</ele>
        <time>2023-07-23T08:12:57Z</time>
      </trkpt>
      <trkpt lat="42.21387" lon="0.82711">
        <ele>1198.8</ele>
        <time>2023-07-23T08:12:58Z</time>
      </trkpt>
      <trkpt lat="42.21389" lon="0.82708">
        <ele>1199</ele>
        <time>2023-07-23T08:12:59Z</time>
      </trkpt>
      <trkpt lat="42.2139" lon="0.82704">
        <ele>1199</ele>
        <time>2023-07-23T08:13:00Z</time>
      </trkpt>
      <trkpt lat="42.21392" lon="0.827">
        <ele>1199.2</ele>
        <time>2023-07-23T08:13:01Z</time>
      </trkpt>
      <trkpt lat="42.21394" lon="0.82697">
        <ele>1199.2</ele>
        <time>2023-07-23T08:13:02Z</time>
      </trkpt>
      <trkpt lat="42.21395" lon="0.82693">
        <ele>1199.2</ele>
        <time>2023-07-23T08:13:03Z</time>
      </trkpt>
      <trkpt lat="42.21397" lon="0.82689">
        <ele>1199.2</ele>
        <time>2023-07-23T08:13:04Z</time>
      </trkpt>
      <trkpt lat="42.21399" lon="0.82684">
        <ele>1199.2</ele>
        <time>2023-07-23T08:13:05Z</time>
      </trkpt>
      <trkpt lat="42.214" lon="0.8268">
        <ele>1199.4</ele>
        <time>2023-07-23T08:13:06Z</time>
      </trkpt>
      <trkpt lat="42.21402" lon="0.82675">
        <ele>1199.4</ele>
        <time>2023-07-23T08:13:07Z</time>
      </trkpt>
      <trkpt lat="42.21403" lon="0.8267">
        <ele>1199.4</ele>
        <time>2023-07-23T08:13:08Z</time>
      </trkpt>
      <trkpt lat="42.21405" lon="0.82665">
        <ele>1199.6</ele>
        <time>2023-07-23T08:13:09Z</time>
      </trkpt>
      <trkpt lat="42.21407" lon="0.8266">
        <ele>1199.8</ele>
        <time>2023-07-23T08:13:10Z</time>
      </trkpt>
      <trkpt lat="42.21408" lon="0.82655">
        <ele>1199.8</ele>
        <time>2023-07-23T08:13:11Z</time>
      </trkpt>
      <trkpt lat="42.2141" lon="0.82651">
        <ele>1200</ele>
        <time>2023-07-23T08:13:12Z</time>
      </trkpt>
      <trkpt lat="42.21412" lon="0.82646">
        <ele>1200</ele>
        <time>2023-07-23T08:13:13Z</time>
      </trkpt>
      <trkpt lat="42.21414" lon="0.82641">
        <ele>1200.2</ele>
        <time>2023-07-23T08:13:14Z</time>
      </trkpt>
      <trkpt lat="42.21415" lon="0.82636">
        <ele>1200.2</ele>
        <time>2023-07-23T08:13:15Z</time>
      </trkpt>
      <trkpt lat="42.21416" lon="0.82631">
        <ele>1200.2</ele>
        <time>2023-07-23T08:13:16Z</time>
      </trkpt>
      <trkpt lat="42.21418" lon="0.82627">
        <ele>1200.4</ele>
        <time>2023-07-23T08:13:17Z</time>
      </trkpt>
      <trkpt lat="42.2142" lon="0.82622">
        <ele>1200.4</ele>
        <time>2023-07-23T08:13:18Z</time>
      </trkpt>
      <trkpt lat="42.21421" lon="0.82617">
        <ele>1200.4</ele>
        <time>2023-07-23T08:13:19Z</time>
      </trkpt>
      <trkpt lat="42.21422" lon="0.82612">
        <ele>1200.4</ele>
        <time>2023-07-23T08:13:20Z</time>
      </trkpt>
      <trkpt lat="42.21424" lon="0.82607">
        <ele>1200.4</ele>
        <time>2023-07-23T08:13:21Z</time>
      </trkpt>
      <trkpt lat="42.21425" lon="0.82603">
        <ele>1200.6</ele>
        <time>2023-07-23T08:13:22Z</time>
      </trkpt>
      <trkpt lat="42.21426" lon="0.82599">
        <ele>1200.6</ele>
        <time>2023-07-23T08:13:23Z</time>
      </trkpt>
      <trkpt lat="42.21427" lon="0.82593">
        <ele>1200.6</ele>
        <time>2023-07-23T08:13:24Z</time>
      </trkpt>
      <trkpt lat="42.21427" lon="0.82588">
        <ele>1200.6</ele>
        <time>2023-07-23T08:13:25Z</time>
      </trkpt>
      <trkpt lat="42.21428" lon="0.82583">
        <ele>1200.6</ele>
        <time>2023-07-23T08:13:26Z</time>
      </trkpt>
      <trkpt lat="42.21428" lon="0.82577">
        <ele>1200.6</ele>
        <time>2023-07-23T08:13:27Z</time>
      </trkpt>
      <trkpt lat="42.21428" lon="0.82571">
        <ele>1200.6</ele>
        <time>2023-07-23T08:13:28Z</time>
      </trkpt>
      <trkpt lat="42.21427" lon="0.82565">
        <ele>1200.4</ele>
        <time>2023-07-23T08:13:29Z</time>
      </trkpt>
      <trkpt lat="42.21427" lon="0.82559">
        <ele>1200.4</ele>
        <time>2023-07-23T08:13:30Z</time>
      </trkpt>
      <trkpt lat="42.21426" lon="0.82553">
        <ele>1200.4</ele>
        <time>2023-07-23T08:13:31Z</time>
      </trkpt>
      <trkpt lat="42.21425" lon="0.82547">
        <ele>1200.6</ele>
        <time>2023-07-23T08:13:32Z</time>
      </trkpt>
      <trkpt lat="42.21425" lon="0.8254">
        <ele>1200.6</ele>
        <time>2023-07-23T08:13:33Z</time>
      </trkpt>
      <trkpt lat="42.21425" lon="0.82534">
        <ele>1200.6</ele>
        <time>2023-07-23T08:13:34Z</time>
      </trkpt>
      <trkpt lat="42.21424" lon="0.82528">
        <ele>1200.6</ele>
        <time>2023-07-23T08:13:35Z</time>
      </trkpt>
      <trkpt lat="42.21423" lon="0.8252">
        <ele>1200.6</ele>
        <time>2023-07-23T08:13:36Z</time>
      </trkpt>
      <trkpt lat="42.21422" lon="0.82514">
        <ele>1200.6</ele>
        <time>2023-07-23T08:13:37Z</time>
      </trkpt>
      <trkpt lat="42.21421" lon="0.82507">
        <ele>1200.6</ele>
        <time>2023-07-23T08:13:38Z</time>
      </trkpt>
      <trkpt lat="42.2142" lon="0.82501">
        <ele>1200.6</ele>
        <time>2023-07-23T08:13:39Z</time>
      </trkpt>
      <trkpt lat="42.2142" lon="0.82494">
        <ele>1200.6</ele>
        <time>2023-07-23T08:13:40Z</time>
      </trkpt>
      <trkpt lat="42.21419" lon="0.82488">
        <ele>1200.6</ele>
        <time>2023-07-23T08:13:41Z</time>
      </trkpt>
      <trkpt lat="42.21417" lon="0.82482">
        <ele>1200.6</ele>
        <time>2023-07-23T08:13:42Z</time>
      </trkpt>
      <trkpt lat="42.21415" lon="0.82476">
        <ele>1200.6</ele>
        <time>2023-07-23T08:13:43Z</time>
      </trkpt>
      <trkpt lat="42.21414" lon="0.82471">
        <ele>1200.6</ele>
        <time>2023-07-23T08:13:44Z</time>
      </trkpt>
      <trkpt lat="42.21412" lon="0.82463">
        <ele>1200.6</ele>
        <time>2023-07-23T08:13:45Z</time>
      </trkpt>
      <trkpt lat="42.21411" lon="0.82457">
        <ele>1200.6</ele>
        <time>2023-07-23T08:13:46Z</time>
      </trkpt>
      <trkpt lat="42.2141" lon="0.82451">
        <ele>1200.6</ele>
        <time>2023-07-23T08:13:47Z</time>
      </trkpt>
      <trkpt lat="42.21408" lon="0.82446">
        <ele>1200.8</ele>
        <time>2023-07-23T08:13:48Z</time>
      </trkpt>
      <trkpt lat="42.21408" lon="0.8244">
        <ele>1200.8</ele>
        <time>2023-07-23T08:13:49Z</time>
      </trkpt>
      <trkpt lat="42.21408" lon="0.82434">
        <ele>1200.8</ele>
        <time>2023-07-23T08:13:50Z</time>
      </trkpt>
      <trkpt lat="42.21409" lon="0.82428">
        <ele>1200.8</ele>
        <time>2023-07-23T08:13:51Z</time>
      </trkpt>
      <trkpt lat="42.21412" lon="0.82424">
        <ele>1200.8</ele>
        <time>2023-07-23T08:13:52Z</time>
      </trkpt>
      <trkpt lat="42.21415" lon="0.8242">
        <ele>1200.8</ele>
        <time>2023-07-23T08:13:53Z</time>
      </trkpt>
      <trkpt lat="42.21419" lon="0.82417">
        <ele>1200.8</ele>
        <time>2023-07-23T08:13:54Z</time>
      </trkpt>
      <trkpt lat="42.21424" lon="0.82414">
        <ele>1200.8</ele>
        <time>2023-07-23T08:13:55Z</time>
      </trkpt>
      <trkpt lat="42.21428" lon="0.82412">
        <ele>1200.8</ele>
        <time>2023-07-23T08:13:56Z</time>
      </trkpt>
      <trkpt lat="42.21433" lon="0.8241">
        <ele>1200.8</ele>
        <time>2023-07-23T08:13:57Z</time>
      </trkpt>
      <trkpt lat="42.21437" lon="0.82408">
        <ele>1200.8</ele>
        <time>2023-07-23T08:13:58Z</time>
      </trkpt>
      <trkpt lat="42.21441" lon="0.82406">
        <ele>1200.2</ele>
        <time>2023-07-23T08:13:59Z</time>
      </trkpt>
      <trkpt lat="42.21446" lon="0.82402">
        <ele>1200</ele>
        <time>2023-07-23T08:14:00Z</time>
      </trkpt>
      <trkpt lat="42.2145" lon="0.82398">
        <ele>1200</ele>
        <time>2023-07-23T08:14:01Z</time>
      </trkpt>
      <trkpt lat="42.21453" lon="0.82394">
        <ele>1200</ele>
        <time>2023-07-23T08:14:02Z</time>
      </trkpt>
      <trkpt lat="42.21455" lon="0.82388">
        <ele>1200</ele>
        <time>2023-07-23T08:14:03Z</time>
      </trkpt>
      <trkpt lat="42.21456" lon="0.82382">
        <ele>1200</ele>
        <time>2023-07-23T08:14:04Z</time>
      </trkpt>
      <trkpt lat="42.21457" lon="0.82377">
        <ele>1200</ele>
        <time>2023-07-23T08:14:05Z</time>
      </trkpt>
      <trkpt lat="42.21458" lon="0.82372">
        <ele>1200.2</ele>
        <time>2023-07-23T08:14:06Z</time>
      </trkpt>
      <trkpt lat="42.21459" lon="0.82366">
        <ele>1200.2</ele>
        <time>2023-07-23T08:14:07Z</time>
      </trkpt>
      <trkpt lat="42.21461" lon="0.8236">
        <ele>1200.2</ele>
        <time>2023-07-23T08:14:08Z</time>
      </trkpt>
      <trkpt lat="42.21461" lon="0.82354">
        <ele>1200.6</ele>
        <time>2023-07-23T08:14:09Z</time>
      </trkpt>
      <trkpt lat="42.21461" lon="0.82347">
        <ele>1200.8</ele>
        <time>2023-07-23T08:14:10Z</time>
      </trkpt>
      <trkpt lat="42.2146" lon="0.8234">
        <ele>1201.4</ele>
        <time>2023-07-23T08:14:11Z</time>
      </trkpt>
      <trkpt lat="42.21459" lon="0.82334">
        <ele>1201.8</ele>
        <time>2023-07-23T08:14:12Z</time>
      </trkpt>
      <trkpt lat="42.21459" lon="0.82327">
        <ele>1202</ele>
        <time>2023-07-23T08:14:13Z</time>
      </trkpt>
      <trkpt lat="42.2146" lon="0.82321">
        <ele>1202</ele>
        <time>2023-07-23T08:14:14Z</time>
      </trkpt>
      <trkpt lat="42.21462" lon="0.82316">
        <ele>1202.2</ele>
        <time>2023-07-23T08:14:15Z</time>
      </trkpt>
      <trkpt lat="42.21464" lon="0.82309">
        <ele>1202.2</ele>
        <time>2023-07-23T08:14:16Z</time>
      </trkpt>
      <trkpt lat="42.21466" lon="0.82303">
        <ele>1202.4</ele>
        <time>2023-07-23T08:14:17Z</time>
      </trkpt>
      <trkpt lat="42.21468" lon="0.82297">
        <ele>1202.4</ele>
        <time>2023-07-23T08:14:18Z</time>
      </trkpt>
      <trkpt lat="42.21468" lon="0.82291">
        <ele>1202.8</ele>
        <time>2023-07-23T08:14:19Z</time>
      </trkpt>
      <trkpt lat="42.21467" lon="0.82285">
        <ele>1202.8</ele>
        <time>2023-07-23T08:14:20Z</time>
      </trkpt>
      <trkpt lat="42.21466" lon="0.82277">
        <ele>1203.2</ele>
        <time>2023-07-23T08:14:21Z</time>
      </trkpt>
      <trkpt lat="42.21465" lon="0.82271">
        <ele>1203.2</ele>
        <time>2023-07-23T08:14:22Z</time>
      </trkpt>
      <trkpt lat="42.21465" lon="0.82264">
        <ele>1204</ele>
        <time>2023-07-23T08:14:23Z</time>
      </trkpt>
      <trkpt lat="42.21465" lon="0.82259">
        <ele>1204.4</ele>
        <time>2023-07-23T08:14:24Z</time>
      </trkpt>
      <trkpt lat="42.21464" lon="0.82251">
        <ele>1204.6</ele>
        <time>2023-07-23T08:14:25Z</time>
      </trkpt>
      <trkpt lat="42.21464" lon="0.82244">
        <ele>1204.8</ele>
        <time>2023-07-23T08:14:26Z</time>
      </trkpt>
      <trkpt lat="42.21464" lon="0.82238">
        <ele>1205.2</ele>
        <time>2023-07-23T08:14:27Z</time>
      </trkpt>
      <trkpt lat="42.21464" lon="0.82232">
        <ele>1205.8</ele>
        <time>2023-07-23T08:14:28Z</time>
      </trkpt>
      <trkpt lat="42.21466" lon="0.82226">
        <ele>1206.4</ele>
        <time>2023-07-23T08:14:29Z</time>
      </trkpt>
      <trkpt lat="42.21469" lon="0.8222">
        <ele>1206.8</ele>
        <time>2023-07-23T08:14:30Z</time>
      </trkpt>
      <trkpt lat="42.21472" lon="0.82215">
        <ele>1207.2</ele>
        <time>2023-07-23T08:14:31Z</time>
      </trkpt>
      <trkpt lat="42.21475" lon="0.8221">
        <ele>1207.4</ele>
        <time>2023-07-23T08:14:32Z</time>
      </trkpt>
      <trkpt lat="42.21478" lon="0.82204">
        <ele>1207.8</ele>
        <time>2023-07-23T08:14:33Z</time>
      </trkpt>
      <trkpt lat="42.2148" lon="0.82198">
        <ele>1207.8</ele>
        <time>2023-07-23T08:14:34Z</time>
      </trkpt>
      <trkpt lat="42.21481" lon="0.82192">
        <ele>1208.2</ele>
        <time>2023-07-23T08:14:35Z</time>
      </trkpt>
      <trkpt lat="42.21483" lon="0.82185">
        <ele>1208.6</ele>
        <time>2023-07-23T08:14:36Z</time>
      </trkpt>
      <trkpt lat="42.21484" lon="0.82179">
        <ele>1208.8</ele>
        <time>2023-07-23T08:14:37Z</time>
      </trkpt>
      <trkpt lat="42.21485" lon="0.82174">
        <ele>1209</ele>
        <time>2023-07-23T08:14:38Z</time>
      </trkpt>
      <trkpt lat="42.21486" lon="0.82168">
        <ele>1209.2</ele>
        <time>2023-07-23T08:14:39Z</time>
      </trkpt>
      <trkpt lat="42.21486" lon="0.82162">
        <ele>1209.2</ele>
        <time>2023-07-23T08:14:40Z</time>
      </trkpt>
      <trkpt lat="42.21484" lon="0.82156">
        <ele>1209.6</ele>
        <time>2023-07-23T08:14:41Z</time>
      </trkpt>
      <trkpt lat="42.21481" lon="0.82151">
        <ele>1209.8</ele>
        <time>2023-07-23T08:14:42Z</time>
      </trkpt>
      <trkpt lat="42.21478" lon="0.82147">
        <ele>1210.8</ele>
        <time>2023-07-23T08:14:43Z</time>
      </trkpt>
      <trkpt lat="42.21475" lon="0.82142">
        <ele>1211.4</ele>
        <time>2023-07-23T08:14:44Z</time>
      </trkpt>
      <trkpt lat="42.21473" lon="0.82138">
        <ele>1211.8</ele>
        <time>2023-07-23T08:14:45Z</time>
      </trkpt>
      <trkpt lat="42.21471" lon="0.82132">
        <ele>1212</ele>
        <time>2023-07-23T08:14:46Z</time>
      </trkpt>
      <trkpt lat="42.2147" lon="0.82127">
        <ele>1212</ele>
        <time>2023-07-23T08:14:47Z</time>
      </trkpt>
      <trkpt lat="42.21469" lon="0.82121">
        <ele>1212.4</ele>
        <time>2023-07-23T08:14:48Z</time>
      </trkpt>
      <trkpt lat="42.21468" lon="0.82116">
        <ele>1212.6</ele>
        <time>2023-07-23T08:14:49Z</time>
      </trkpt>
      <trkpt lat="42.21468" lon="0.8211">
        <ele>1212.8</ele>
        <time>2023-07-23T08:14:50Z</time>
      </trkpt>
      <trkpt lat="42.21468" lon="0.82106">
        <ele>1213</ele>
        <time>2023-07-23T08:14:51Z</time>
      </trkpt>
      <trkpt lat="42.21469" lon="0.821">
        <ele>1213.4</ele>
        <time>2023-07-23T08:14:52Z</time>
      </trkpt>
      <trkpt lat="42.2147" lon="0.82094">
        <ele>1213.8</ele>
        <time>2023-07-23T08:14:53Z</time>
      </trkpt>
      <trkpt lat="42.21471" lon="0.82089">
        <ele>1214</ele>
        <time>2023-07-23T08:14:54Z</time>
      </trkpt>
      <trkpt lat="42.21472" lon="0.82084">
        <ele>1214.4</ele>
        <time>2023-07-23T08:14:55Z</time>
      </trkpt>
      <trkpt lat="42.21474" lon="0.82079">
        <ele>1214.8</ele>
        <time>2023-07-23T08:14:56Z</time>
      </trkpt>
      <trkpt lat="42.21475" lon="0.82074">
        <ele>1215.2</ele>
        <time>2023-07-23T08:14:57Z</time>
      </trkpt>
      <trkpt lat="42.21477" lon="0.82069">
        <ele>1215.4</ele>
        <time>2023-07-23T08:14:58Z</time>
      </trkpt>
      <trkpt lat="42.21479" lon="0.82064">
        <ele>1215.8</ele>
        <time>2023-07-23T08:14:59Z</time>
      </trkpt>
      <trkpt lat="42.21481" lon="0.8206">
        <ele>1216</ele>
        <time>2023-07-23T08:15:00Z</time>
      </trkpt>
      <trkpt lat="42.21483" lon="0.82055">
        <ele>1216.2</ele>
        <time>2023-07-23T08:15:01Z</time>
      </trkpt>
      <trkpt lat="42.21485" lon="0.82051">
        <ele>1216.6</ele>
        <time>2023-07-23T08:15:02Z</time>
      </trkpt>
      <trkpt lat="42.21487" lon="0.82046">
        <ele>1216.8</ele>
        <time>2023-07-23T08:15:03Z</time>
      </trkpt>
      <trkpt lat="42.2149" lon="0.82042">
        <ele>1217.2</ele>
        <time>2023-07-23T08:15:04Z</time>
      </trkpt>
      <trkpt lat="42.21492" lon="0.82037">
        <ele>1217.6</ele>
        <time>2023-07-23T08:15:05Z</time>
      </trkpt>
      <trkpt lat="42.21494" lon="0.82032">
        <ele>1217.8</ele>
        <time>2023-07-23T08:15:06Z</time>
      </trkpt>
      <trkpt lat="42.21496" lon="0.82028">
        <ele>1218.2</ele>
        <time>2023-07-23T08:15:07Z</time>
      </trkpt>
      <trkpt lat="42.21498" lon="0.82022">
        <ele>1218.4</ele>
        <time>2023-07-23T08:15:08Z</time>
      </trkpt>
      <trkpt lat="42.215" lon="0.82018">
        <ele>1219</ele>
        <time>2023-07-23T08:15:09Z</time>
      </trkpt>
      <trkpt lat="42.21502" lon="0.82013">
        <ele>1219.6</ele>
        <time>2023-07-23T08:15:10Z</time>
      </trkpt>
      <trkpt lat="42.21503" lon="0.82009">
        <ele>1219.8</ele>
        <time>2023-07-23T08:15:11Z</time>
      </trkpt>
      <trkpt lat="42.21505" lon="0.82004">
        <ele>1220</ele>
        <time>2023-07-23T08:15:12Z</time>
      </trkpt>
      <trkpt lat="42.21507" lon="0.82">
        <ele>1220</ele>
        <time>2023-07-23T08:15:13Z</time>
      </trkpt>
      <trkpt lat="42.21508" lon="0.81996">
        <ele>1220.2</ele>
        <time>2023-07-23T08:15:14Z</time>
      </trkpt>
      <trkpt lat="42.21508" lon="0.81991">
        <ele>1220.4</ele>
        <time>2023-07-23T08:15:15Z</time>
      </trkpt>
      <trkpt lat="42.21507" lon="0.81985">
        <ele>1220.6</ele>
        <time>2023-07-23T08:15:16Z</time>
      </trkpt>
      <trkpt lat="42.21505" lon="0.81981">
        <ele>1221</ele>
        <time>2023-07-23T08:15:17Z</time>
      </trkpt>
      <trkpt lat="42.21503" lon="0.81977">
        <ele>1221.4</ele>
        <time>2023-07-23T08:15:18Z</time>
      </trkpt>
      <trkpt lat="42.21499" lon="0.81974">
        <ele>1222</ele>
        <time>2023-07-23T08:15:19Z</time>
      </trkpt>
      <trkpt lat="42.21495" lon="0.81972">
        <ele>1222</ele>
        <time>2023-07-23T08:15:20Z</time>
      </trkpt>
      <trkpt lat="42.21491" lon="0.81972">
        <ele>1222.2</ele>
        <time>2023-07-23T08:15:21Z</time>
      </trkpt>
      <trkpt lat="42.21487" lon="0.81971">
        <ele>1222.4</ele>
        <time>2023-07-23T08:15:22Z</time>
      </trkpt>
      <trkpt lat="42.21482" lon="0.81971">
        <ele>1222.8</ele>
        <time>2023-07-23T08:15:23Z</time>
      </trkpt>
      <trkpt lat="42.21478" lon="0.8197">
        <ele>1223</ele>
        <time>2023-07-23T08:15:24Z</time>
      </trkpt>
      <trkpt lat="42.21473" lon="0.8197">
        <ele>1223.2</ele>
        <time>2023-07-23T08:15:25Z</time>
      </trkpt>
      <trkpt lat="42.21468" lon="0.8197">
        <ele>1223.6</ele>
        <time>2023-07-23T08:15:26Z</time>
      </trkpt>
      <trkpt lat="42.21464" lon="0.81969">
        <ele>1224</ele>
        <time>2023-07-23T08:15:27Z</time>
      </trkpt>
      <trkpt lat="42.2146" lon="0.81969">
        <ele>1224.4</ele>
        <time>2023-07-23T08:15:28Z</time>
      </trkpt>
      <trkpt lat="42.21456" lon="0.81968">
        <ele>1224.8</ele>
        <time>2023-07-23T08:15:29Z</time>
      </trkpt>
      <trkpt lat="42.21452" lon="0.81966">
        <ele>1225</ele>
        <time>2023-07-23T08:15:30Z</time>
      </trkpt>
      <trkpt lat="42.21448" lon="0.81964">
        <ele>1225.6</ele>
        <time>2023-07-23T08:15:31Z</time>
      </trkpt>
      <trkpt lat="42.21444" lon="0.81961">
        <ele>1226</ele>
        <time>2023-07-23T08:15:32Z</time>
      </trkpt>
      <trkpt lat="42.21441" lon="0.81958">
        <ele>1226.4</ele>
        <time>2023-07-23T08:15:33Z</time>
      </trkpt>
      <trkpt lat="42.21437" lon="0.81956">
        <ele>1226.6</ele>
        <time>2023-07-23T08:15:34Z</time>
      </trkpt>
      <trkpt lat="42.21433" lon="0.81954">
        <ele>1227</ele>
        <time>2023-07-23T08:15:35Z</time>
      </trkpt>
      <trkpt lat="42.21429" lon="0.81952">
        <ele>1227.4</ele>
        <time>2023-07-23T08:15:36Z</time>
      </trkpt>
      <trkpt lat="42.21425" lon="0.81951">
        <ele>1227.6</ele>
        <time>2023-07-23T08:15:37Z</time>
      </trkpt>
      <trkpt lat="42.21421" lon="0.8195">
        <ele>1228</ele>
        <time>2023-07-23T08:15:38Z</time>
      </trkpt>
      <trkpt lat="42.21418" lon="0.81948">
        <ele>1228.2</ele>
        <time>2023-07-23T08:15:39Z</time>
      </trkpt>
      <trkpt lat="42.21414" lon="0.81947">
        <ele>1228.2</ele>
        <time>2023-07-23T08:15:40Z</time>
      </trkpt>
      <trkpt lat="42.2141" lon="0.81945">
        <ele>1228.6</ele>
        <time>2023-07-23T08:15:41Z</time>
      </trkpt>
      <trkpt lat="42.21407" lon="0.81942">
        <ele>1229</ele>
        <time>2023-07-23T08:15:42Z</time>
      </trkpt>
      <trkpt lat="42.21404" lon="0.81939">
        <ele>1229.6</ele>
        <time>2023-07-23T08:15:43Z</time>
      </trkpt>
      <trkpt lat="42.21401" lon="0.81935">
        <ele>1229.8</ele>
        <time>2023-07-23T08:15:44Z</time>
      </trkpt>
      <trkpt lat="42.21397" lon="0.81932">
        <ele>1230.4</ele>
        <time>2023-07-23T08:15:45Z</time>
      </trkpt>
      <trkpt lat="42.21393" lon="0.8193">
        <ele>1230.6</ele>
        <time>2023-07-23T08:15:46Z</time>
      </trkpt>
      <trkpt lat="42.21389" lon="0.81928">
        <ele>1231</ele>
        <time>2023-07-23T08:15:47Z</time>
      </trkpt>
      <trkpt lat="42.21385" lon="0.81928">
        <ele>1231.4</ele>
        <time>2023-07-23T08:15:48Z</time>
      </trkpt>
      <trkpt lat="42.21381" lon="0.81928">
        <ele>1231.6</ele>
        <time>2023-07-23T08:15:49Z</time>
      </trkpt>
      <trkpt lat="42.21378" lon="0.81927">
        <ele>1232</ele>
        <time>2023-07-23T08:15:50Z</time>
      </trkpt>
      <trkpt lat="42.21374" lon="0.81925">
        <ele>1232.2</ele>
        <time>2023-07-23T08:15:51Z</time>
      </trkpt>
      <trkpt lat="42.21371" lon="0.81921">
        <ele>1232.6</ele>
        <time>2023-07-23T08:15:52Z</time>
      </trkpt>
      <trkpt lat="42.21369" lon="0.81917">
        <ele>1232.8</ele>
        <time>2023-07-23T08:15:53Z</time>
      </trkpt>
      <trkpt lat="42.21367" lon="0.81913">
        <ele>1233.8</ele>
        <time>2023-07-23T08:15:54Z</time>
      </trkpt>
      <trkpt lat="42.21366" lon="0.81908">
        <ele>1234.4</ele>
        <time>2023-07-23T08:15:55Z</time>
      </trkpt>
      <trkpt lat="42.21364" lon="0.81903">
        <ele>1234.6</ele>
        <time>2023-07-23T08:15:56Z</time>
      </trkpt>
      <trkpt lat="42.21364" lon="0.81898">
        <ele>1235</ele>
        <time>2023-07-23T08:15:57Z</time>
      </trkpt>
      <trkpt lat="42.21363" lon="0.81894">
        <ele>1235.2</ele>
        <time>2023-07-23T08:15:58Z</time>
      </trkpt>
      <trkpt lat="42.21363" lon="0.8189">
        <ele>1235.4</ele>
        <time>2023-07-23T08:15:59Z</time>
      </trkpt>
      <trkpt lat="42.21363" lon="0.81884">
        <ele>1235.6</ele>
        <time>2023-07-23T08:16:00Z</time>
      </trkpt>
      <trkpt lat="42.21363" lon="0.8188">
        <ele>1235.8</ele>
        <time>2023-07-23T08:16:01Z</time>
      </trkpt>
      <trkpt lat="42.21365" lon="0.81876">
        <ele>1236.2</ele>
        <time>2023-07-23T08:16:02Z</time>
      </trkpt>
      <trkpt lat="42.21368" lon="0.81873">
        <ele>1236.6</ele>
        <time>2023-07-23T08:16:03Z</time>
      </trkpt>
      <trkpt lat="42.21371" lon="0.81871">
        <ele>1237</ele>
        <time>2023-07-23T08:16:04Z</time>
      </trkpt>
      <trkpt lat="42.21374" lon="0.8187">
        <ele>1237.2</ele>
        <time>2023-07-23T08:16:05Z</time>
      </trkpt>
      <trkpt lat="42.21378" lon="0.8187">
        <ele>1237.8</ele>
        <time>2023-07-23T08:16:06Z</time>
      </trkpt>
      <trkpt lat="42.21382" lon="0.8187">
        <ele>1238</ele>
        <time>2023-07-23T08:16:07Z</time>
      </trkpt>
      <trkpt lat="42.21386" lon="0.81871">
        <ele>1238.2</ele>
        <time>2023-07-23T08:16:08Z</time>
      </trkpt>
      <trkpt lat="42.2139" lon="0.81872">
        <ele>1238.4</ele>
        <time>2023-07-23T08:16:09Z</time>
      </trkpt>
      <trkpt lat="42.21394" lon="0.81873">
        <ele>1238.6</ele>
        <time>2023-07-23T08:16:10Z</time>
      </trkpt>
      <trkpt lat="42.21398" lon="0.81874">
        <ele>1239</ele>
        <time>2023-07-23T08:16:11Z</time>
      </trkpt>
      <trkpt lat="42.21402" lon="0.81874">
        <ele>1239.4</ele>
        <time>2023-07-23T08:16:12Z</time>
      </trkpt>
      <trkpt lat="42.21406" lon="0.81875">
        <ele>1239.4</ele>
        <time>2023-07-23T08:16:13Z</time>
      </trkpt>
      <trkpt lat="42.21409" lon="0.81876">
        <ele>1239.8</ele>
        <time>2023-07-23T08:16:14Z</time>
      </trkpt>
      <trkpt lat="42.21413" lon="0.81876">
        <ele>1239.8</ele>
        <time>2023-07-23T08:16:15Z</time>
      </trkpt>
      <trkpt lat="42.21417" lon="0.81877">
        <ele>1240.4</ele>
        <time>2023-07-23T08:16:16Z</time>
      </trkpt>
      <trkpt lat="42.21421" lon="0.81877">
        <ele>1240.6</ele>
        <time>2023-07-23T08:16:17Z</time>
      </trkpt>
      <trkpt lat="42.21424" lon="0.81877">
        <ele>1241</ele>
        <time>2023-07-23T08:16:18Z</time>
      </trkpt>
      <trkpt lat="42.21428" lon="0.81877">
        <ele>1241.2</ele>
        <time>2023-07-23T08:16:19Z</time>
      </trkpt>
      <trkpt lat="42.21432" lon="0.81876">
        <ele>1241.2</ele>
        <time>2023-07-23T08:16:20Z</time>
      </trkpt>
      <trkpt lat="42.21436" lon="0.81876">
        <ele>1241.6</ele>
        <time>2023-07-23T08:16:21Z</time>
      </trkpt>
      <trkpt lat="42.2144" lon="0.81875">
        <ele>1241.8</ele>
        <time>2023-07-23T08:16:22Z</time>
      </trkpt>
      <trkpt lat="42.21444" lon="0.81874">
        <ele>1242.2</ele>
        <time>2023-07-23T08:16:23Z</time>
      </trkpt>
      <trkpt lat="42.21448" lon="0.81872">
        <ele>1242.6</ele>
        <time>2023-07-23T08:16:24Z</time>
      </trkpt>
      <trkpt lat="42.21452" lon="0.81871">
        <ele>1242.8</ele>
        <time>2023-07-23T08:16:25Z</time>
      </trkpt>
      <trkpt lat="42.21455" lon="0.8187">
        <ele>1243.6</ele>
        <time>2023-07-23T08:16:26Z</time>
      </trkpt>
      <trkpt lat="42.21459" lon="0.81869">
        <ele>1243.8</ele>
        <time>2023-07-23T08:16:27Z</time>
      </trkpt>
      <trkpt lat="42.21463" lon="0.81868">
        <ele>1244.2</ele>
        <time>2023-07-23T08:16:28Z</time>
      </trkpt>
      <trkpt lat="42.21468" lon="0.81868">
        <ele>1244.6</ele>
        <time>2023-07-23T08:16:29Z</time>
      </trkpt>
      <trkpt lat="42.21472" lon="0.81868">
        <ele>1245</ele>
        <time>2023-07-23T08:16:30Z</time>
      </trkpt>
      <trkpt lat="42.21476" lon="0.81868">
        <ele>1245.4</ele>
        <time>2023-07-23T08:16:31Z</time>
      </trkpt>
      <trkpt lat="42.2148" lon="0.81867">
        <ele>1245.6</ele>
        <time>2023-07-23T08:16:32Z</time>
      </trkpt>
      <trkpt lat="42.21484" lon="0.81866">
        <ele>1246</ele>
        <time>2023-07-23T08:16:33Z</time>
      </trkpt>
      <trkpt lat="42.21489" lon="0.81865">
        <ele>1246</ele>
        <time>2023-07-23T08:16:34Z</time>
      </trkpt>
      <trkpt lat="42.21493" lon="0.81864">
        <ele>1246.2</ele>
        <time>2023-07-23T08:16:35Z</time>
      </trkpt>
      <trkpt lat="42.21497" lon="0.81862">
        <ele>1246.4</ele>
        <time>2023-07-23T08:16:36Z</time>
      </trkpt>
      <trkpt lat="42.21501" lon="0.8186">
        <ele>1246.6</ele>
        <time>2023-07-23T08:16:37Z</time>
      </trkpt>
      <trkpt lat="42.21504" lon="0.81857">
        <ele>1247</ele>
        <time>2023-07-23T08:16:38Z</time>
      </trkpt>
      <trkpt lat="42.21507" lon="0.81853">
        <ele>1247.2</ele>
        <time>2023-07-23T08:16:39Z</time>
      </trkpt>
      <trkpt lat="42.2151" lon="0.81849">
        <ele>1247.6</ele>
        <time>2023-07-23T08:16:40Z</time>
      </trkpt>
      <trkpt lat="42.21513" lon="0.81845">
        <ele>1248</ele>
        <time>2023-07-23T08:16:41Z</time>
      </trkpt>
      <trkpt lat="42.21516" lon="0.81841">
        <ele>1248.6</ele>
        <time>2023-07-23T08:16:42Z</time>
      </trkpt>
      <trkpt lat="42.2152" lon="0.81837">
        <ele>1249</ele>
        <time>2023-07-23T08:16:43Z</time>
      </trkpt>
      <trkpt lat="42.21523" lon="0.81833">
        <ele>1249.2</ele>
        <time>2023-07-23T08:16:44Z</time>
      </trkpt>
      <trkpt lat="42.21526" lon="0.81831">
        <ele>1249.6</ele>
        <time>2023-07-23T08:16:45Z</time>
      </trkpt>
      <trkpt lat="42.2153" lon="0.81827">
        <ele>1249.6</ele>
        <time>2023-07-23T08:16:46Z</time>
      </trkpt>
      <trkpt lat="42.21533" lon="0.81824">
        <ele>1249.8</ele>
        <time>2023-07-23T08:16:47Z</time>
      </trkpt>
      <trkpt lat="42.21537" lon="0.8182">
        <ele>1250</ele>
        <time>2023-07-23T08:16:48Z</time>
      </trkpt>
      <trkpt lat="42.21539" lon="0.81817">
        <ele>1250.4</ele>
        <time>2023-07-23T08:16:49Z</time>
      </trkpt>
      <trkpt lat="42.21543" lon="0.81812">
        <ele>1250.8</ele>
        <time>2023-07-23T08:16:50Z</time>
      </trkpt>
      <trkpt lat="42.21545" lon="0.81806">
        <ele>1251</ele>
        <time>2023-07-23T08:16:51Z</time>
      </trkpt>
      <trkpt lat="42.21547" lon="0.818">
        <ele>1251.6</ele>
        <time>2023-07-23T08:16:52Z</time>
      </trkpt>
      <trkpt lat="42.21549" lon="0.81795">
        <ele>1251.6</ele>
        <time>2023-07-23T08:16:53Z</time>
      </trkpt>
      <trkpt lat="42.21551" lon="0.81788">
        <ele>1252.2</ele>
        <time>2023-07-23T08:16:54Z</time>
      </trkpt>
      <trkpt lat="42.21553" lon="0.81783">
        <ele>1253.2</ele>
        <time>2023-07-23T08:16:55Z</time>
      </trkpt>
      <trkpt lat="42.21555" lon="0.81777">
        <ele>1253.6</ele>
        <time>2023-07-23T08:16:56Z</time>
      </trkpt>
      <trkpt lat="42.21557" lon="0.81772">
        <ele>1254.2</ele>
        <time>2023-07-23T08:16:57Z</time>
      </trkpt>
      <trkpt lat="42.2156" lon="0.81767">
        <ele>1254.4</ele>
        <time>2023-07-23T08:16:58Z</time>
      </trkpt>
      <trkpt lat="42.21561" lon="0.81763">
        <ele>1254.8</ele>
        <time>2023-07-23T08:16:59Z</time>
      </trkpt>
      <trkpt lat="42.21564" lon="0.81756">
        <ele>1255</ele>
        <time>2023-07-23T08:17:00Z</time>
      </trkpt>
      <trkpt lat="42.21565" lon="0.81751">
        <ele>1255.4</ele>
        <time>2023-07-23T08:17:01Z</time>
      </trkpt>
      <trkpt lat="42.21566" lon="0.81745">
        <ele>1255.8</ele>
        <time>2023-07-23T08:17:02Z</time>
      </trkpt>
      <trkpt lat="42.21567" lon="0.81739">
        <ele>1256</ele>
        <time>2023-07-23T08:17:03Z</time>
      </trkpt>
      <trkpt lat="42.21568" lon="0.81733">
        <ele>1256.8</ele>
        <time>2023-07-23T08:17:04Z</time>
      </trkpt>
      <trkpt lat="42.2157" lon="0.81727">
        <ele>1257</ele>
        <time>2023-07-23T08:17:05Z</time>
      </trkpt>
      <trkpt lat="42.21572" lon="0.81721">
        <ele>1257.4</ele>
        <time>2023-07-23T08:17:06Z</time>
      </trkpt>
      <trkpt lat="42.21574" lon="0.81717">
        <ele>1257.8</ele>
        <time>2023-07-23T08:17:07Z</time>
      </trkpt>
      <trkpt lat="42.21576" lon="0.81712">
        <ele>1257.8</ele>
        <time>2023-07-23T08:17:08Z</time>
      </trkpt>
      <trkpt lat="42.21578" lon="0.81707">
        <ele>1258.4</ele>
        <time>2023-07-23T08:17:09Z</time>
      </trkpt>
      <trkpt lat="42.21582" lon="0.81701">
        <ele>1258.8</ele>
        <time>2023-07-23T08:17:10Z</time>
      </trkpt>
      <trkpt lat="42.21584" lon="0.81697">
        <ele>1259.2</ele>
        <time>2023-07-23T08:17:11Z</time>
      </trkpt>
      <trkpt lat="42.21586" lon="0.81693">
        <ele>1259.2</ele>
        <time>2023-07-23T08:17:12Z</time>
      </trkpt>
      <trkpt lat="42.21589" lon="0.81689">
        <ele>1259.6</ele>
        <time>2023-07-23T08:17:13Z</time>
      </trkpt>
      <trkpt lat="42.21592" lon="0.81684">
        <ele>1260</ele>
        <time>2023-07-23T08:17:14Z</time>
      </trkpt>
      <trkpt lat="42.21594" lon="0.81681">
        <ele>1260.2</ele>
        <time>2023-07-23T08:17:15Z</time>
      </trkpt>
      <trkpt lat="42.21597" lon="0.81677">
        <ele>1260.8</ele>
        <time>2023-07-23T08:17:16Z</time>
      </trkpt>
      <trkpt lat="42.21599" lon="0.81672">
        <ele>1261.2</ele>
        <time>2023-07-23T08:17:17Z</time>
      </trkpt>
      <trkpt lat="42.21602" lon="0.81668">
        <ele>1261.6</ele>
        <time>2023-07-23T08:17:18Z</time>
      </trkpt>
      <trkpt lat="42.21604" lon="0.81663">
        <ele>1262</ele>
        <time>2023-07-23T08:17:19Z</time>
      </trkpt>
      <trkpt lat="42.21605" lon="0.81658">
        <ele>1262.4</ele>
        <time>2023-07-23T08:17:20Z</time>
      </trkpt>
      <trkpt lat="42.21607" lon="0.81653">
        <ele>1263</ele>
        <time>2023-07-23T08:17:21Z</time>
      </trkpt>
      <trkpt lat="42.21608" lon="0.81648">
        <ele>1263</ele>
        <time>2023-07-23T08:17:22Z</time>
      </trkpt>
      <trkpt lat="42.21609" lon="0.81642">
        <ele>1263.2</ele>
        <time>2023-07-23T08:17:23Z</time>
      </trkpt>
      <trkpt lat="42.21609" lon="0.81637">
        <ele>1263.6</ele>
        <time>2023-07-23T08:17:24Z</time>
      </trkpt>
      <trkpt lat="42.21609" lon="0.81631">
        <ele>1264.4</ele>
        <time>2023-07-23T08:17:25Z</time>
      </trkpt>
      <trkpt lat="42.21609" lon="0.81625">
        <ele>1264.8</ele>
        <time>2023-07-23T08:17:26Z</time>
      </trkpt>
      <trkpt lat="42.21609" lon="0.8162">
        <ele>1265.4</ele>
        <time>2023-07-23T08:17:27Z</time>
      </trkpt>
      <trkpt lat="42.21609" lon="0.81614">
        <ele>1265.8</ele>
        <time>2023-07-23T08:17:28Z</time>
      </trkpt>
      <trkpt lat="42.2161" lon="0.81608">
        <ele>1266</ele>
        <time>2023-07-23T08:17:29Z</time>
      </trkpt>
      <trkpt lat="42.2161" lon="0.81603">
        <ele>1266.4</ele>
        <time>2023-07-23T08:17:30Z</time>
      </trkpt>
      <trkpt lat="42.21611" lon="0.81597">
        <ele>1266.6</ele>
        <time>2023-07-23T08:17:31Z</time>
      </trkpt>
      <trkpt lat="42.21612" lon="0.81592">
        <ele>1266.8</ele>
        <time>2023-07-23T08:17:32Z</time>
      </trkpt>
      <trkpt lat="42.21614" lon="0.81588">
        <ele>1267</ele>
        <time>2023-07-23T08:17:33Z</time>
      </trkpt>
      <trkpt lat="42.21616" lon="0.81584">
        <ele>1267.2</ele>
        <time>2023-07-23T08:17:34Z</time>
      </trkpt>
      <trkpt lat="42.2162" lon="0.81582">
        <ele>1267.8</ele>
        <time>2023-07-23T08:17:35Z</time>
      </trkpt>
      <trkpt lat="42.21624" lon="0.81581">
        <ele>1268</ele>
        <time>2023-07-23T08:17:36Z</time>
      </trkpt>
      <trkpt lat="42.21628" lon="0.8158">
        <ele>1268.2</ele>
        <time>2023-07-23T08:17:37Z</time>
      </trkpt>
      <trkpt lat="42.21632" lon="0.81579">
        <ele>1268.6</ele>
        <time>2023-07-23T08:17:38Z</time>
      </trkpt>
      <trkpt lat="42.21636" lon="0.81578">
        <ele>1268.6</ele>
        <time>2023-07-23T08:17:39Z</time>
      </trkpt>
      <trkpt lat="42.2164" lon="0.81577">
        <ele>1268.8</ele>
        <time>2023-07-23T08:17:40Z</time>
      </trkpt>
      <trkpt lat="42.21644" lon="0.81577">
        <ele>1269</ele>
        <time>2023-07-23T08:17:41Z</time>
      </trkpt>
      <trkpt lat="42.21648" lon="0.81576">
        <ele>1269.4</ele>
        <time>2023-07-23T08:17:42Z</time>
      </trkpt>
      <trkpt lat="42.21652" lon="0.81575">
        <ele>1269.4</ele>
        <time>2023-07-23T08:17:43Z</time>
      </trkpt>
      <trkpt lat="42.21656" lon="0.81574">
        <ele>1269.6</ele>
        <time>2023-07-23T08:17:44Z</time>
      </trkpt>
      <trkpt lat="42.2166" lon="0.81574">
        <ele>1269.8</ele>
        <time>2023-07-23T08:17:45Z</time>
      </trkpt>
      <trkpt lat="42.21664" lon="0.81573">
        <ele>1269.8</ele>
        <time>2023-07-23T08:17:46Z</time>
      </trkpt>
      <trkpt lat="42.21667" lon="0.81572">
        <ele>1269.8</ele>
        <time>2023-07-23T08:17:47Z</time>
      </trkpt>
      <trkpt lat="42.21671" lon="0.81571">
        <ele>1270</ele>
        <time>2023-07-23T08:17:48Z</time>
      </trkpt>
      <trkpt lat="42.21674" lon="0.8157">
        <ele>1270</ele>
        <time>2023-07-23T08:17:49Z</time>
      </trkpt>
      <trkpt lat="42.21678" lon="0.81568">
        <ele>1270.2</ele>
        <time>2023-07-23T08:17:50Z</time>
      </trkpt>
      <trkpt lat="42.21681" lon="0.81567">
        <ele>1270.2</ele>
        <time>2023-07-23T08:17:51Z</time>
      </trkpt>
      <trkpt lat="42.21685" lon="0.81566">
        <ele>1270.6</ele>
        <time>2023-07-23T08:17:52Z</time>
      </trkpt>
      <trkpt lat="42.21688" lon="0.81564">
        <ele>1270.8</ele>
        <time>2023-07-23T08:17:53Z</time>
      </trkpt>
      <trkpt lat="42.21691" lon="0.81562">
        <ele>1270.8</ele>
        <time>2023-07-23T08:17:54Z</time>
      </trkpt>
      <trkpt lat="42.21695" lon="0.81559">
        <ele>1270.8</ele>
        <time>2023-07-23T08:17:55Z</time>
      </trkpt>
      <trkpt lat="42.21698" lon="0.81557">
        <ele>1271</ele>
        <time>2023-07-23T08:17:56Z</time>
      </trkpt>
      <trkpt lat="42.21701" lon="0.81554">
        <ele>1271.2</ele>
        <time>2023-07-23T08:17:57Z</time>
      </trkpt>
      <trkpt lat="42.21703" lon="0.8155">
        <ele>1271.2</ele>
        <time>2023-07-23T08:17:58Z</time>
      </trkpt>
      <trkpt lat="42.21706" lon="0.81547">
        <ele>1271.4</ele>
        <time>2023-07-23T08:17:59Z</time>
      </trkpt>
      <trkpt lat="42.21709" lon="0.81543">
        <ele>1271.6</ele>
        <time>2023-07-23T08:18:00Z</time>
      </trkpt>
      <trkpt lat="42.21712" lon="0.8154">
        <ele>1271.8</ele>
        <time>2023-07-23T08:18:01Z</time>
      </trkpt>
      <trkpt lat="42.21715" lon="0.81538">
        <ele>1271.8</ele>
        <time>2023-07-23T08:18:02Z</time>
      </trkpt>
      <trkpt lat="42.21719" lon="0.81536">
        <ele>1272</ele>
        <time>2023-07-23T08:18:03Z</time>
      </trkpt>
      <trkpt lat="42.21722" lon="0.81535">
        <ele>1272</ele>
        <time>2023-07-23T08:18:04Z</time>
      </trkpt>
      <trkpt lat="42.21726" lon="0.81537">
        <ele>1272</ele>
        <time>2023-07-23T08:18:05Z</time>
      </trkpt>
      <trkpt lat="42.21729" lon="0.81539">
        <ele>1272.2</ele>
        <time>2023-07-23T08:18:06Z</time>
      </trkpt>
      <trkpt lat="42.21732" lon="0.81543">
        <ele>1272.4</ele>
        <time>2023-07-23T08:18:07Z</time>
      </trkpt>
      <trkpt lat="42.21734" lon="0.81547">
        <ele>1272.6</ele>
        <time>2023-07-23T08:18:08Z</time>
      </trkpt>
      <trkpt lat="42.21736" lon="0.81552">
        <ele>1272.6</ele>
        <time>2023-07-23T08:18:09Z</time>
      </trkpt>
      <trkpt lat="42.21738" lon="0.81558">
        <ele>1272.8</ele>
        <time>2023-07-23T08:18:10Z</time>
      </trkpt>
      <trkpt lat="42.2174" lon="0.81564">
        <ele>1272.8</ele>
        <time>2023-07-23T08:18:11Z</time>
      </trkpt>
      <trkpt lat="42.21741" lon="0.8157">
        <ele>1272.8</ele>
        <time>2023-07-23T08:18:12Z</time>
      </trkpt>
      <trkpt lat="42.21743" lon="0.81576">
        <ele>1273.2</ele>
        <time>2023-07-23T08:18:13Z</time>
      </trkpt>
      <trkpt lat="42.21745" lon="0.81582">
        <ele>1273.4</ele>
        <time>2023-07-23T08:18:14Z</time>
      </trkpt>
      <trkpt lat="42.21746" lon="0.81588">
        <ele>1273.4</ele>
        <time>2023-07-23T08:18:15Z</time>
      </trkpt>
      <trkpt lat="42.21748" lon="0.81594">
        <ele>1273.6</ele>
        <time>2023-07-23T08:18:16Z</time>
      </trkpt>
      <trkpt lat="42.21749" lon="0.816">
        <ele>1273.6</ele>
        <time>2023-07-23T08:18:17Z</time>
      </trkpt>
      <trkpt lat="42.2175" lon="0.81606">
        <ele>1273.6</ele>
        <time>2023-07-23T08:18:18Z</time>
      </trkpt>
      <trkpt lat="42.21751" lon="0.81612">
        <ele>1273.8</ele>
        <time>2023-07-23T08:18:19Z</time>
      </trkpt>
      <trkpt lat="42.21752" lon="0.81618">
        <ele>1273.8</ele>
        <time>2023-07-23T08:18:20Z</time>
      </trkpt>
      <trkpt lat="42.21753" lon="0.81624">
        <ele>1274</ele>
        <time>2023-07-23T08:18:21Z</time>
      </trkpt>
      <trkpt lat="42.21753" lon="0.8163">
        <ele>1274</ele>
        <time>2023-07-23T08:18:22Z</time>
      </trkpt>
      <trkpt lat="42.21754" lon="0.81636">
        <ele>1274</ele>
        <time>2023-07-23T08:18:23Z</time>
      </trkpt>
      <trkpt lat="42.21756" lon="0.81642">
        <ele>1274.2</ele>
        <time>2023-07-23T08:18:24Z</time>
      </trkpt>
      <trkpt lat="42.21757" lon="0.81647">
        <ele>1274.2</ele>
        <time>2023-07-23T08:18:25Z</time>
      </trkpt>
      <trkpt lat="42.21758" lon="0.81652">
        <ele>1274.2</ele>
        <time>2023-07-23T08:18:26Z</time>
      </trkpt>
      <trkpt lat="42.21759" lon="0.81657">
        <ele>1274.2</ele>
        <time>2023-07-23T08:18:27Z</time>
      </trkpt>
      <trkpt lat="42.21761" lon="0.81661">
        <ele>1274.2</ele>
        <time>2023-07-23T08:18:28Z</time>
      </trkpt>
      <trkpt lat="42.21763" lon="0.81666">
        <ele>1274</ele>
        <time>2023-07-23T08:18:29Z</time>
      </trkpt>
      <trkpt lat="42.21765" lon="0.81671">
        <ele>1274.4</ele>
        <time>2023-07-23T08:18:30Z</time>
      </trkpt>
      <trkpt lat="42.21767" lon="0.81676">
        <ele>1274.2</ele>
        <time>2023-07-23T08:18:31Z</time>
      </trkpt>
      <trkpt lat="42.21769" lon="0.81681">
        <ele>1274.2</ele>
        <time>2023-07-23T08:18:32Z</time>
      </trkpt>
      <trkpt lat="42.2177" lon="0.81686">
        <ele>1274.4</ele>
        <time>2023-07-23T08:18:33Z</time>
      </trkpt>
      <trkpt lat="42.21772" lon="0.81691">
        <ele>1274.8</ele>
        <time>2023-07-23T08:18:34Z</time>
      </trkpt>
      <trkpt lat="42.21774" lon="0.81695">
        <ele>1275.2</ele>
        <time>2023-07-23T08:18:35Z</time>
      </trkpt>
      <trkpt lat="42.21777" lon="0.817">
        <ele>1275.2</ele>
        <time>2023-07-23T08:18:36Z</time>
      </trkpt>
      <trkpt lat="42.2178" lon="0.81704">
        <ele>1275.4</ele>
        <time>2023-07-23T08:18:37Z</time>
      </trkpt>
      <trkpt lat="42.21783" lon="0.81709">
        <ele>1275.4</ele>
        <time>2023-07-23T08:18:38Z</time>
      </trkpt>
      <trkpt lat="42.21786" lon="0.81713">
        <ele>1275.4</ele>
        <time>2023-07-23T08:18:39Z</time>
      </trkpt>
      <trkpt lat="42.21789" lon="0.81717">
        <ele>1275.6</ele>
        <time>2023-07-23T08:18:40Z</time>
      </trkpt>
      <trkpt lat="42.21792" lon="0.81721">
        <ele>1275.6</ele>
        <time>2023-07-23T08:18:41Z</time>
      </trkpt>
      <trkpt lat="42.21795" lon="0.81725">
        <ele>1275.6</ele>
        <time>2023-07-23T08:18:42Z</time>
      </trkpt>
      <trkpt lat="42.21798" lon="0.81729">
        <ele>1275.4</ele>
        <time>2023-07-23T08:18:43Z</time>
      </trkpt>
      <trkpt lat="42.21801" lon="0.81733">
        <ele>1275.6</ele>
        <time>2023-07-23T08:18:44Z</time>
      </trkpt>
      <trkpt lat="42.21804" lon="0.81737">
        <ele>1275.6</ele>
        <time>2023-07-23T08:18:45Z</time>
      </trkpt>
      <trkpt lat="42.21807" lon="0.81741">
        <ele>1275.8</ele>
        <time>2023-07-23T08:18:46Z</time>
      </trkpt>
      <trkpt lat="42.21811" lon="0.81744">
        <ele>1276</ele>
        <time>2023-07-23T08:18:47Z</time>
      </trkpt>
      <trkpt lat="42.21814" lon="0.81748">
        <ele>1276.2</ele>
        <time>2023-07-23T08:18:48Z</time>
      </trkpt>
      <trkpt lat="42.21817" lon="0.81751">
        <ele>1276.2</ele>
        <time>2023-07-23T08:18:49Z</time>
      </trkpt>
      <trkpt lat="42.2182" lon="0.81755">
        <ele>1276.4</ele>
        <time>2023-07-23T08:18:50Z</time>
      </trkpt>
      <trkpt lat="42.21823" lon="0.81758">
        <ele>1276.6</ele>
        <time>2023-07-23T08:18:51Z</time>
      </trkpt>
      <trkpt lat="42.21827" lon="0.81761">
        <ele>1276.6</ele>
        <time>2023-07-23T08:18:52Z</time>
      </trkpt>
      <trkpt lat="42.2183" lon="0.81764">
        <ele>1276.8</ele>
        <time>2023-07-23T08:18:53Z</time>
      </trkpt>
      <trkpt lat="42.21834" lon="0.81767">
        <ele>1277</ele>
        <time>2023-07-23T08:18:54Z</time>
      </trkpt>
      <trkpt lat="42.21837" lon="0.81769">
        <ele>1277.2</ele>
        <time>2023-07-23T08:18:55Z</time>
      </trkpt>
      <trkpt lat="42.21841" lon="0.81772">
        <ele>1277.4</ele>
        <time>2023-07-23T08:18:56Z</time>
      </trkpt>
      <trkpt lat="42.21844" lon="0.81774">
        <ele>1277.6</ele>
        <time>2023-07-23T08:18:57Z</time>
      </trkpt>
      <trkpt lat="42.21848" lon="0.81776">
        <ele>1277.8</ele>
        <time>2023-07-23T08:18:58Z</time>
      </trkpt>
      <trkpt lat="42.21851" lon="0.81779">
        <ele>1278</ele>
        <time>2023-07-23T08:18:59Z</time>
      </trkpt>
      <trkpt lat="42.21855" lon="0.81781">
        <ele>1278.2</ele>
        <time>2023-07-23T08:19:00Z</time>
      </trkpt>
      <trkpt lat="42.21859" lon="0.81783">
        <ele>1278.6</ele>
        <time>2023-07-23T08:19:01Z</time>
      </trkpt>
      <trkpt lat="42.21863" lon="0.81785">
        <ele>1278.8</ele>
        <time>2023-07-23T08:19:02Z</time>
      </trkpt>
      <trkpt lat="42.21866" lon="0.81788">
        <ele>1279.2</ele>
        <time>2023-07-23T08:19:03Z</time>
      </trkpt>
      <trkpt lat="42.21869" lon="0.8179">
        <ele>1279.2</ele>
        <time>2023-07-23T08:19:04Z</time>
      </trkpt>
      <trkpt lat="42.21873" lon="0.81792">
        <ele>1279.4</ele>
        <time>2023-07-23T08:19:05Z</time>
      </trkpt>
      <trkpt lat="42.21876" lon="0.81795">
        <ele>1279.6</ele>
        <time>2023-07-23T08:19:06Z</time>
      </trkpt>
      <trkpt lat="42.21879" lon="0.81797">
        <ele>1279.8</ele>
        <time>2023-07-23T08:19:07Z</time>
      </trkpt>
      <trkpt lat="42.21882" lon="0.818">
        <ele>1279.8</ele>
        <time>2023-07-23T08:19:08Z</time>
      </trkpt>
      <trkpt lat="42.21885" lon="0.81802">
        <ele>1280.2</ele>
        <time>2023-07-23T08:19:09Z</time>
      </trkpt>
      <trkpt lat="42.21889" lon="0.81805">
        <ele>1280.6</ele>
        <time>2023-07-23T08:19:10Z</time>
      </trkpt>
      <trkpt lat="42.21892" lon="0.81808">
        <ele>1281</ele>
        <time>2023-07-23T08:19:11Z</time>
      </trkpt>
      <trkpt lat="42.21895" lon="0.8181">
        <ele>1281.2</ele>
        <time>2023-07-23T08:19:12Z</time>
      </trkpt>
      <trkpt lat="42.21899" lon="0.81812">
        <ele>1281.6</ele>
        <time>2023-07-23T08:19:13Z</time>
      </trkpt>
      <trkpt lat="42.21902" lon="0.81815">
        <ele>1281.8</ele>
        <time>2023-07-23T08:19:14Z</time>
      </trkpt>
      <trkpt lat="42.21905" lon="0.81817">
        <ele>1282</ele>
        <time>2023-07-23T08:19:15Z</time>
      </trkpt>
      <trkpt lat="42.21908" lon="0.81819">
        <ele>1282.2</ele>
        <time>2023-07-23T08:19:16Z</time>
      </trkpt>
      <trkpt lat="42.21912" lon="0.81821">
        <ele>1282.4</ele>
        <time>2023-07-23T08:19:17Z</time>
      </trkpt>
      <trkpt lat="42.21915" lon="0.81822">
        <ele>1282.6</ele>
        <time>2023-07-23T08:19:18Z</time>
      </trkpt>
      <trkpt lat="42.21918" lon="0.81824">
        <ele>1282.8</ele>
        <time>2023-07-23T08:19:19Z</time>
      </trkpt>
      <trkpt lat="42.21921" lon="0.81826">
        <ele>1283</ele>
        <time>2023-07-23T08:19:20Z</time>
      </trkpt>
      <trkpt lat="42.21924" lon="0.81828">
        <ele>1282.8</ele>
        <time>2023-07-23T08:19:21Z</time>
      </trkpt>
      <trkpt lat="42.21927" lon="0.8183">
        <ele>1282.8</ele>
        <time>2023-07-23T08:19:22Z</time>
      </trkpt>
      <trkpt lat="42.2193" lon="0.81831">
        <ele>1283</ele>
        <time>2023-07-23T08:19:23Z</time>
      </trkpt>
      <trkpt lat="42.21934" lon="0.81833">
        <ele>1283</ele>
        <time>2023-07-23T08:19:24Z</time>
      </trkpt>
      <trkpt lat="42.21937" lon="0.81833">
        <ele>1283</ele>
        <time>2023-07-23T08:19:25Z</time>
      </trkpt>
      <trkpt lat="42.21941" lon="0.81833">
        <ele>1283.2</ele>
        <time>2023-07-23T08:19:26Z</time>
      </trkpt>
      <trkpt lat="42.21944" lon="0.81834">
        <ele>1283.4</ele>
        <time>2023-07-23T08:19:27Z</time>
      </trkpt>
      <trkpt lat="42.21948" lon="0.81835">
        <ele>1283.4</ele>
        <time>2023-07-23T08:19:28Z</time>
      </trkpt>
      <trkpt lat="42.21952" lon="0.81835">
        <ele>1283.6</ele>
        <time>2023-07-23T08:19:29Z</time>
      </trkpt>
      <trkpt lat="42.21955" lon="0.81836">
        <ele>1283.6</ele>
        <time>2023-07-23T08:19:30Z</time>
      </trkpt>
      <trkpt lat="42.21959" lon="0.81837">
        <ele>1283.8</ele>
        <time>2023-07-23T08:19:31Z</time>
      </trkpt>
      <trkpt lat="42.21962" lon="0.81838">
        <ele>1284.4</ele>
        <time>2023-07-23T08:19:32Z</time>
      </trkpt>
      <trkpt lat="42.21965" lon="0.81838">
        <ele>1284.6</ele>
        <time>2023-07-23T08:19:33Z</time>
      </trkpt>
      <trkpt lat="42.21968" lon="0.81839">
        <ele>1285</ele>
        <time>2023-07-23T08:19:34Z</time>
      </trkpt>
      <trkpt lat="42.21971" lon="0.81839">
        <ele>1285.2</ele>
        <time>2023-07-23T08:19:35Z</time>
      </trkpt>
      <trkpt lat="42.21975" lon="0.81839">
        <ele>1285.8</ele>
        <time>2023-07-23T08:19:36Z</time>
      </trkpt>
      <trkpt lat="42.21978" lon="0.81838">
        <ele>1286.2</ele>
        <time>2023-07-23T08:19:37Z</time>
      </trkpt>
      <trkpt lat="42.21982" lon="0.81837">
        <ele>1286.6</ele>
        <time>2023-07-23T08:19:38Z</time>
      </trkpt>
      <trkpt lat="42.21985" lon="0.81836">
        <ele>1287.2</ele>
        <time>2023-07-23T08:19:39Z</time>
      </trkpt>
      <trkpt lat="42.21988" lon="0.81835">
        <ele>1287.4</ele>
        <time>2023-07-23T08:19:40Z</time>
      </trkpt>
      <trkpt lat="42.21992" lon="0.81834">
        <ele>1287.6</ele>
        <time>2023-07-23T08:19:41Z</time>
      </trkpt>
      <trkpt lat="42.21995" lon="0.81832">
        <ele>1287.8</ele>
        <time>2023-07-23T08:19:42Z</time>
      </trkpt>
      <trkpt lat="42.21999" lon="0.8183">
        <ele>1288.2</ele>
        <time>2023-07-23T08:19:43Z</time>
      </trkpt>
      <trkpt lat="42.22002" lon="0.81827">
        <ele>1289</ele>
        <time>2023-07-23T08:19:44Z</time>
      </trkpt>
      <trkpt lat="42.22005" lon="0.81825">
        <ele>1289.2</ele>
        <time>2023-07-23T08:19:45Z</time>
      </trkpt>
      <trkpt lat="42.22008" lon="0.81822">
        <ele>1289.6</ele>
        <time>2023-07-23T08:19:46Z</time>
      </trkpt>
      <trkpt lat="42.22011" lon="0.8182">
        <ele>1289.8</ele>
        <time>2023-07-23T08:19:47Z</time>
      </trkpt>
      <trkpt lat="42.22013" lon="0.81818">
        <ele>1290</ele>
        <time>2023-07-23T08:19:48Z</time>
      </trkpt>
      <trkpt lat="42.22015" lon="0.81817">
        <ele>1290.2</ele>
        <time>2023-07-23T08:19:49Z</time>
      </trkpt>
      <trkpt lat="42.22016" lon="0.81816">
        <ele>1290.2</ele>
        <time>2023-07-23T08:19:50Z</time>
      </trkpt>
      <trkpt lat="42.22018" lon="0.81817">
        <ele>1290.4</ele>
        <time>2023-07-23T08:19:51Z</time>
      </trkpt>
      <trkpt lat="42.22018" lon="0.81818">
        <ele>1290.4</ele>
        <time>2023-07-23T08:19:52Z</time>
      </trkpt>
      <trkpt lat="42.22018" lon="0.8182">
        <ele>1290.4</ele>
        <time>2023-07-23T08:19:53Z</time>
      </trkpt>
      <trkpt lat="42.22017" lon="0.81822">
        <ele>1290.2</ele>
        <time>2023-07-23T08:19:54Z</time>
      </trkpt>
      <trkpt lat="42.22016" lon="0.81824">
        <ele>1290.4</ele>
        <time>2023-07-23T08:19:55Z</time>
      </trkpt>
      <trkpt lat="42.22015" lon="0.81825">
        <ele>1290.4</ele>
        <time>2023-07-23T08:19:56Z</time>
      </trkpt>
      <trkpt lat="42.22013" lon="0.81826">
        <ele>1290.4</ele>
        <time>2023-07-23T08:19:57Z</time>
      </trkpt>
      <trkpt lat="42.22012" lon="0.81827">
        <ele>1290.4</ele>
        <time>2023-07-23T08:19:58Z</time>
      </trkpt>
      <trkpt lat="42.2201" lon="0.81826">
        <ele>1290.4</ele>
        <time>2023-07-23T08:19:59Z</time>
      </trkpt>
      <trkpt lat="42.22008" lon="0.81826">
        <ele>1290.4</ele>
        <time>2023-07-23T08:20:00Z</time>
      </trkpt>
      <trkpt lat="42.22007" lon="0.81825">
        <ele>1290.4</ele>
        <time>2023-07-23T08:20:01Z</time>
      </trkpt>
      <trkpt lat="42.22005" lon="0.81825">
        <ele>1290.4</ele>
        <time>2023-07-23T08:20:02Z</time>
      </trkpt>
      <trkpt lat="42.22003" lon="0.81825">
        <ele>1290.6</ele>
        <time>2023-07-23T08:20:03Z</time>
      </trkpt>
      <trkpt lat="42.22001" lon="0.81827">
        <ele>1290.6</ele>
        <time>2023-07-23T08:20:04Z</time>
      </trkpt>
      <trkpt lat="42.21999" lon="0.81828">
        <ele>1290.4</ele>
        <time>2023-07-23T08:20:05Z</time>
      </trkpt>
      <trkpt lat="42.21998" lon="0.8183">
        <ele>1290.4</ele>
        <time>2023-07-23T08:20:06Z</time>
      </trkpt>
      <trkpt lat="42.21996" lon="0.81832">
        <ele>1290.4</ele>
        <time>2023-07-23T08:20:07Z</time>
      </trkpt>
      <trkpt lat="42.21994" lon="0.81834">
        <ele>1290.4</ele>
        <time>2023-07-23T08:20:08Z</time>
      </trkpt>
      <trkpt lat="42.21992" lon="0.81836">
        <ele>1290.4</ele>
        <time>2023-07-23T08:20:09Z</time>
      </trkpt>
      <trkpt lat="42.2199" lon="0.81839">
        <ele>1290.4</ele>
        <time>2023-07-23T08:20:10Z</time>
      </trkpt>
      <trkpt lat="42.21989" lon="0.81841">
        <ele>1290.4</ele>
        <time>2023-07-23T08:20:11Z</time>
      </trkpt>
      <trkpt lat="42.21988" lon="0.81843">
        <ele>1290.4</ele>
        <time>2023-07-23T08:20:12Z</time>
      </trkpt>
      <trkpt lat="42.21987" lon="0.81846">
        <ele>1290.4</ele>
        <time>2023-07-23T08:20:13Z</time>
      </trkpt>
      <trkpt lat="42.21985" lon="0.81847">
        <ele>1290.4</ele>
        <time>2023-07-23T08:20:14Z</time>
      </trkpt>
      <trkpt lat="42.21984" lon="0.81849">
        <ele>1290.4</ele>
        <time>2023-07-23T08:20:15Z</time>
      </trkpt>
      <trkpt lat="42.21983" lon="0.8185">
        <ele>1290.6</ele>
        <time>2023-07-23T08:20:16Z</time>
      </trkpt>
      <trkpt lat="42.21981" lon="0.81851">
        <ele>1290.6</ele>
        <time>2023-07-23T08:20:17Z</time>
      </trkpt>
      <trkpt lat="42.2198" lon="0.81852">
        <ele>1290.6</ele>
        <time>2023-07-23T08:20:18Z</time>
      </trkpt>
      <trkpt lat="42.21979" lon="0.81854">
        <ele>1290.8</ele>
        <time>2023-07-23T08:20:19Z</time>
      </trkpt>
      <trkpt lat="42.21978" lon="0.81856">
        <ele>1291</ele>
        <time>2023-07-23T08:20:20Z</time>
      </trkpt>
      <trkpt lat="42.21979" lon="0.81857">
        <ele>1291</ele>
        <time>2023-07-23T08:20:21Z</time>
      </trkpt>
      <trkpt lat="42.21981" lon="0.81857">
        <ele>1291</ele>
        <time>2023-07-23T08:20:22Z</time>
      </trkpt>
      <trkpt lat="42.21982" lon="0.81856">
        <ele>1291</ele>
        <time>2023-07-23T08:20:23Z</time>
      </trkpt>
      <trkpt lat="42.21983" lon="0.81855">
        <ele>1291</ele>
        <time>2023-07-23T08:20:24Z</time>
      </trkpt>
      <trkpt lat="42.21984" lon="0.81853">
        <ele>1291</ele>
        <time>2023-07-23T08:20:25Z</time>
      </trkpt>
      <trkpt lat="42.21984" lon="0.81851">
        <ele>1291</ele>
        <time>2023-07-23T08:20:26Z</time>
      </trkpt>
      <trkpt lat="42.21985" lon="0.81849">
        <ele>1291</ele>
        <time>2023-07-23T08:20:27Z</time>
      </trkpt>
      <trkpt lat="42.21984" lon="0.81848">
        <ele>1291</ele>
        <time>2023-07-23T08:20:28Z</time>
      </trkpt>
      <trkpt lat="42.21984" lon="0.81847">
        <ele>1291</ele>
        <time>2023-07-23T08:20:29Z</time>
      </trkpt>
      <trkpt lat="42.21984" lon="0.81847">
        <ele>1291</ele>
        <time>2023-07-23T08:20:30Z</time>
      </trkpt>
      <trkpt lat="42.21984" lon="0.81847">
        <ele>1291</ele>
        <time>2023-07-23T08:20:31Z</time>
      </trkpt>
      <trkpt lat="42.21986" lon="0.81844">
        <ele>1290.8</ele>
        <time>2023-07-23T08:21:03Z</time>
      </trkpt>
      <trkpt lat="42.21989" lon="0.8184">
        <ele>1290.8</ele>
        <time>2023-07-23T08:21:04Z</time>
      </trkpt>
      <trkpt lat="42.21992" lon="0.81838">
        <ele>1290.8</ele>
        <time>2023-07-23T08:21:05Z</time>
      </trkpt>
      <trkpt lat="42.21995" lon="0.81836">
        <ele>1290.8</ele>
        <time>2023-07-23T08:21:06Z</time>
      </trkpt>
      <trkpt lat="42.21998" lon="0.81833">
        <ele>1290.8</ele>
        <time>2023-07-23T08:21:07Z</time>
      </trkpt>
      <trkpt lat="42.22001" lon="0.8183">
        <ele>1290.4</ele>
        <time>2023-07-23T08:21:08Z</time>
      </trkpt>
      <trkpt lat="42.22004" lon="0.81828">
        <ele>1290.4</ele>
        <time>2023-07-23T08:21:09Z</time>
      </trkpt>
      <trkpt lat="42.22006" lon="0.81825">
        <ele>1290.4</ele>
        <time>2023-07-23T08:21:10Z</time>
      </trkpt>
      <trkpt lat="42.22009" lon="0.81822">
        <ele>1290.2</ele>
        <time>2023-07-23T08:21:11Z</time>
      </trkpt>
      <trkpt lat="42.22012" lon="0.81819">
        <ele>1290.2</ele>
        <time>2023-07-23T08:21:12Z</time>
      </trkpt>
      <trkpt lat="42.22015" lon="0.81816">
        <ele>1290.2</ele>
        <time>2023-07-23T08:21:13Z</time>
      </trkpt>
      <trkpt lat="42.22018" lon="0.81813">
        <ele>1290</ele>
        <time>2023-07-23T08:21:14Z</time>
      </trkpt>
      <trkpt lat="42.2202" lon="0.8181">
        <ele>1290</ele>
        <time>2023-07-23T08:21:15Z</time>
      </trkpt>
      <trkpt lat="42.22023" lon="0.81807">
        <ele>1289.8</ele>
        <time>2023-07-23T08:21:16Z</time>
      </trkpt>
      <trkpt lat="42.22026" lon="0.81804">
        <ele>1289.8</ele>
        <time>2023-07-23T08:21:17Z</time>
      </trkpt>
      <trkpt lat="42.2203" lon="0.81801">
        <ele>1289.8</ele>
        <time>2023-07-23T08:21:18Z</time>
      </trkpt>
      <trkpt lat="42.22033" lon="0.81798">
        <ele>1289.8</ele>
        <time>2023-07-23T08:21:19Z</time>
      </trkpt>
      <trkpt lat="42.22037" lon="0.81796">
        <ele>1289.8</ele>
        <time>2023-07-23T08:21:20Z</time>
      </trkpt>
      <trkpt lat="42.2204" lon="0.81796">
        <ele>1289.6</ele>
        <time>2023-07-23T08:21:21Z</time>
      </trkpt>
      <trkpt lat="42.22045" lon="0.81795">
        <ele>1289.4</ele>
        <time>2023-07-23T08:21:22Z</time>
      </trkpt>
      <trkpt lat="42.2205" lon="0.81794">
        <ele>1289.4</ele>
        <time>2023-07-23T08:21:23Z</time>
      </trkpt>
      <trkpt lat="42.22054" lon="0.81793">
        <ele>1289</ele>
        <time>2023-07-23T08:21:24Z</time>
      </trkpt>
      <trkpt lat="42.22058" lon="0.81793">
        <ele>1289</ele>
        <time>2023-07-23T08:21:25Z</time>
      </trkpt>
      <trkpt lat="42.22064" lon="0.81792">
        <ele>1288.8</ele>
        <time>2023-07-23T08:21:26Z</time>
      </trkpt>
      <trkpt lat="42.22069" lon="0.81791">
        <ele>1288.8</ele>
        <time>2023-07-23T08:21:27Z</time>
      </trkpt>
      <trkpt lat="42.22075" lon="0.8179">
        <ele>1288.6</ele>
        <time>2023-07-23T08:21:28Z</time>
      </trkpt>
      <trkpt lat="42.2208" lon="0.81789">
        <ele>1288.2</ele>
        <time>2023-07-23T08:21:29Z</time>
      </trkpt>
      <trkpt lat="42.22085" lon="0.81788">
        <ele>1288</ele>
        <time>2023-07-23T08:21:30Z</time>
      </trkpt>
      <trkpt lat="42.2209" lon="0.81786">
        <ele>1287.8</ele>
        <time>2023-07-23T08:21:31Z</time>
      </trkpt>
      <trkpt lat="42.22097" lon="0.81784">
        <ele>1287.6</ele>
        <time>2023-07-23T08:21:32Z</time>
      </trkpt>
      <trkpt lat="42.22103" lon="0.81782">
        <ele>1286.8</ele>
        <time>2023-07-23T08:21:33Z</time>
      </trkpt>
      <trkpt lat="42.22109" lon="0.8178">
        <ele>1286.8</ele>
        <time>2023-07-23T08:21:34Z</time>
      </trkpt>
      <trkpt lat="42.22122" lon="0.81778">
        <ele>1286</ele>
        <time>2023-07-23T08:21:36Z</time>
      </trkpt>
      <trkpt lat="42.22129" lon="0.81777">
        <ele>1285.6</ele>
        <time>2023-07-23T08:21:37Z</time>
      </trkpt>
      <trkpt lat="42.22137" lon="0.81776">
        <ele>1285.4</ele>
        <time>2023-07-23T08:21:38Z</time>
      </trkpt>
      <trkpt lat="42.22144" lon="0.81778">
        <ele>1285.4</ele>
        <time>2023-07-23T08:21:39Z</time>
      </trkpt>
      <trkpt lat="42.22151" lon="0.81781">
        <ele>1285</ele>
        <time>2023-07-23T08:21:40Z</time>
      </trkpt>
      <trkpt lat="42.22156" lon="0.81785">
        <ele>1284.2</ele>
        <time>2023-07-23T08:21:41Z</time>
      </trkpt>
      <trkpt lat="42.22164" lon="0.81791">
        <ele>1284</ele>
        <time>2023-07-23T08:21:42Z</time>
      </trkpt>
      <trkpt lat="42.2217" lon="0.81799">
        <ele>1283.4</ele>
        <time>2023-07-23T08:21:43Z</time>
      </trkpt>
      <trkpt lat="42.22175" lon="0.81807">
        <ele>1282.8</ele>
        <time>2023-07-23T08:21:44Z</time>
      </trkpt>
      <trkpt lat="42.22179" lon="0.81814">
        <ele>1282.2</ele>
        <time>2023-07-23T08:21:45Z</time>
      </trkpt>
      <trkpt lat="42.22182" lon="0.81827">
        <ele>1281.8</ele>
        <time>2023-07-23T08:21:46Z</time>
      </trkpt>
      <trkpt lat="42.22183" lon="0.81837">
        <ele>1281</ele>
        <time>2023-07-23T08:21:47Z</time>
      </trkpt>
      <trkpt lat="42.22184" lon="0.81848">
        <ele>1279.6</ele>
        <time>2023-07-23T08:21:48Z</time>
      </trkpt>
      <trkpt lat="42.22184" lon="0.81858">
        <ele>1278.8</ele>
        <time>2023-07-23T08:21:49Z</time>
      </trkpt>
      <trkpt lat="42.22185" lon="0.81866">
        <ele>1277.4</ele>
        <time>2023-07-23T08:21:50Z</time>
      </trkpt>
      <trkpt lat="42.22185" lon="0.81875">
        <ele>1276.8</ele>
        <time>2023-07-23T08:21:51Z</time>
      </trkpt>
      <trkpt lat="42.22186" lon="0.81886">
        <ele>1276.2</ele>
        <time>2023-07-23T08:21:52Z</time>
      </trkpt>
      <trkpt lat="42.22187" lon="0.81896">
        <ele>1275.2</ele>
        <time>2023-07-23T08:21:53Z</time>
      </trkpt>
      <trkpt lat="42.22188" lon="0.81906">
        <ele>1275</ele>
        <time>2023-07-23T08:21:54Z</time>
      </trkpt>
      <trkpt lat="42.22189" lon="0.81928">
        <ele>1273.8</ele>
        <time>2023-07-23T08:21:56Z</time>
      </trkpt>
      <trkpt lat="42.22189" lon="0.81938">
        <ele>1272.8</ele>
        <time>2023-07-23T08:21:57Z</time>
      </trkpt>
      <trkpt lat="42.22189" lon="0.81949">
        <ele>1272.4</ele>
        <time>2023-07-23T08:21:58Z</time>
      </trkpt>
      <trkpt lat="42.22188" lon="0.8196">
        <ele>1271.6</ele>
        <time>2023-07-23T08:21:59Z</time>
      </trkpt>
      <trkpt lat="42.22188" lon="0.8197">
        <ele>1271</ele>
        <time>2023-07-23T08:22:00Z</time>
      </trkpt>
      <trkpt lat="42.22188" lon="0.81979">
        <ele>1270.8</ele>
        <time>2023-07-23T08:22:01Z</time>
      </trkpt>
      <trkpt lat="42.22188" lon="0.81987">
        <ele>1270</ele>
        <time>2023-07-23T08:22:02Z</time>
      </trkpt>
      <trkpt lat="42.2219" lon="0.81996">
        <ele>1269.4</ele>
        <time>2023-07-23T08:22:03Z</time>
      </trkpt>
      <trkpt lat="42.22192" lon="0.82002">
        <ele>1267.8</ele>
        <time>2023-07-23T08:22:04Z</time>
      </trkpt>
      <trkpt lat="42.22193" lon="0.82007">
        <ele>1267.2</ele>
        <time>2023-07-23T08:22:05Z</time>
      </trkpt>
      <trkpt lat="42.22195" lon="0.82011">
        <ele>1265.8</ele>
        <time>2023-07-23T08:22:06Z</time>
      </trkpt>
      <trkpt lat="42.22196" lon="0.82013">
        <ele>1264.8</ele>
        <time>2023-07-23T08:22:07Z</time>
      </trkpt>
      <trkpt lat="42.22197" lon="0.82015">
        <ele>1264.6</ele>
        <time>2023-07-23T08:22:08Z</time>
      </trkpt>
      <trkpt lat="42.22199" lon="0.82016">
        <ele>1264</ele>
        <time>2023-07-23T08:22:09Z</time>
      </trkpt>
      <trkpt lat="42.222" lon="0.82016">
        <ele>1264</ele>
        <time>2023-07-23T08:22:10Z</time>
      </trkpt>
      <trkpt lat="42.222" lon="0.82016">
        <ele>1263.4</ele>
        <time>2023-07-23T08:22:11Z</time>
      </trkpt>
      <trkpt lat="42.222" lon="0.82016">
        <ele>1263.2</ele>
        <time>2023-07-23T08:22:12Z</time>
      </trkpt>
      <trkpt lat="42.222" lon="0.82016">
        <ele>1263</ele>
        <time>2023-07-23T08:22:13Z</time>
      </trkpt>
      <trkpt lat="42.22204" lon="0.82013">
        <ele>1260.6</ele>
        <time>2023-07-23T08:24:37Z</time>
      </trkpt>
      <trkpt lat="42.22206" lon="0.82011">
        <ele>1260.6</ele>
        <time>2023-07-23T08:24:38Z</time>
      </trkpt>
      <trkpt lat="42.22209" lon="0.82009">
        <ele>1260.6</ele>
        <time>2023-07-23T08:24:39Z</time>
      </trkpt>
      <trkpt lat="42.22212" lon="0.82007">
        <ele>1260.4</ele>
        <time>2023-07-23T08:24:40Z</time>
      </trkpt>
      <trkpt lat="42.22215" lon="0.82004">
        <ele>1260.4</ele>
        <time>2023-07-23T08:24:41Z</time>
      </trkpt>
      <trkpt lat="42.22218" lon="0.82001">
        <ele>1260.4</ele>
        <time>2023-07-23T08:24:42Z</time>
      </trkpt>
      <trkpt lat="42.22221" lon="0.81998">
        <ele>1260.4</ele>
        <time>2023-07-23T08:24:43Z</time>
      </trkpt>
      <trkpt lat="42.22226" lon="0.81993">
        <ele>1260.2</ele>
        <time>2023-07-23T08:24:44Z</time>
      </trkpt>
      <trkpt lat="42.2223" lon="0.81989">
        <ele>1260</ele>
        <time>2023-07-23T08:24:45Z</time>
      </trkpt>
      <trkpt lat="42.22234" lon="0.81985">
        <ele>1260</ele>
        <time>2023-07-23T08:24:46Z</time>
      </trkpt>
      <trkpt lat="42.22239" lon="0.81981">
        <ele>1259.8</ele>
        <time>2023-07-23T08:24:47Z</time>
      </trkpt>
      <trkpt lat="42.22244" lon="0.81977">
        <ele>1259.6</ele>
        <time>2023-07-23T08:24:48Z</time>
      </trkpt>
      <trkpt lat="42.22249" lon="0.81972">
        <ele>1259</ele>
        <time>2023-07-23T08:24:49Z</time>
      </trkpt>
      <trkpt lat="42.22254" lon="0.81967">
        <ele>1258.8</ele>
        <time>2023-07-23T08:24:50Z</time>
      </trkpt>
      <trkpt lat="42.22257" lon="0.81962">
        <ele>1258.2</ele>
        <time>2023-07-23T08:24:51Z</time>
      </trkpt>
      <trkpt lat="42.22262" lon="0.81955">
        <ele>1257.8</ele>
        <time>2023-07-23T08:24:52Z</time>
      </trkpt>
      <trkpt lat="42.22266" lon="0.8195">
        <ele>1257.4</ele>
        <time>2023-07-23T08:24:53Z</time>
      </trkpt>
      <trkpt lat="42.22272" lon="0.81947">
        <ele>1256.8</ele>
        <time>2023-07-23T08:24:54Z</time>
      </trkpt>
      <trkpt lat="42.22277" lon="0.81946">
        <ele>1256.6</ele>
        <time>2023-07-23T08:24:55Z</time>
      </trkpt>
      <trkpt lat="42.22284" lon="0.81946">
        <ele>1256.2</ele>
        <time>2023-07-23T08:24:56Z</time>
      </trkpt>
      <trkpt lat="42.22289" lon="0.81945">
        <ele>1256</ele>
        <time>2023-07-23T08:24:57Z</time>
      </trkpt>
      <trkpt lat="42.22296" lon="0.81942">
        <ele>1255.6</ele>
        <time>2023-07-23T08:24:58Z</time>
      </trkpt>
      <trkpt lat="42.22307" lon="0.81933">
        <ele>1255.2</ele>
        <time>2023-07-23T08:25:00Z</time>
      </trkpt>
      <trkpt lat="42.22313" lon="0.81929">
        <ele>1254.6</ele>
        <time>2023-07-23T08:25:01Z</time>
      </trkpt>
      <trkpt lat="42.22318" lon="0.81924">
        <ele>1254.4</ele>
        <time>2023-07-23T08:25:02Z</time>
      </trkpt>
      <trkpt lat="42.22324" lon="0.8192">
        <ele>1253.8</ele>
        <time>2023-07-23T08:25:03Z</time>
      </trkpt>
      <trkpt lat="42.2233" lon="0.81917">
        <ele>1253.2</ele>
        <time>2023-07-23T08:25:04Z</time>
      </trkpt>
      <trkpt lat="42.22336" lon="0.81916">
        <ele>1252.8</ele>
        <time>2023-07-23T08:25:05Z</time>
      </trkpt>
      <trkpt lat="42.22341" lon="0.81918">
        <ele>1252.4</ele>
        <time>2023-07-23T08:25:06Z</time>
      </trkpt>
      <trkpt lat="42.22345" lon="0.81924">
        <ele>1252.2</ele>
        <time>2023-07-23T08:25:07Z</time>
      </trkpt>
      <trkpt lat="42.22346" lon="0.81932">
        <ele>1251.8</ele>
        <time>2023-07-23T08:25:08Z</time>
      </trkpt>
      <trkpt lat="42.22348" lon="0.8194">
        <ele>1251.6</ele>
        <time>2023-07-23T08:25:09Z</time>
      </trkpt>
      <trkpt lat="42.2235" lon="0.81948">
        <ele>1251.2</ele>
        <time>2023-07-23T08:25:10Z</time>
      </trkpt>
      <trkpt lat="42.22353" lon="0.81957">
        <ele>1250.6</ele>
        <time>2023-07-23T08:25:11Z</time>
      </trkpt>
      <trkpt lat="42.22357" lon="0.81966">
        <ele>1250.2</ele>
        <time>2023-07-23T08:25:12Z</time>
      </trkpt>
      <trkpt lat="42.2236" lon="0.81977">
        <ele>1249.8</ele>
        <time>2023-07-23T08:25:13Z</time>
      </trkpt>
      <trkpt lat="42.22361" lon="0.81988">
        <ele>1249.6</ele>
        <time>2023-07-23T08:25:14Z</time>
      </trkpt>
      <trkpt lat="42.2236" lon="0.81998">
        <ele>1248.8</ele>
        <time>2023-07-23T08:25:15Z</time>
      </trkpt>
      <trkpt lat="42.22358" lon="0.82009">
        <ele>1248.2</ele>
        <time>2023-07-23T08:25:16Z</time>
      </trkpt>
      <trkpt lat="42.22357" lon="0.8202">
        <ele>1248</ele>
        <time>2023-07-23T08:25:17Z</time>
      </trkpt>
      <trkpt lat="42.22355" lon="0.82031">
        <ele>1247.2</ele>
        <time>2023-07-23T08:25:18Z</time>
      </trkpt>
      <trkpt lat="42.22355" lon="0.82042">
        <ele>1246.6</ele>
        <time>2023-07-23T08:25:19Z</time>
      </trkpt>
      <trkpt lat="42.22354" lon="0.82053">
        <ele>1246.2</ele>
        <time>2023-07-23T08:25:20Z</time>
      </trkpt>
      <trkpt lat="42.22355" lon="0.82064">
        <ele>1245.6</ele>
        <time>2023-07-23T08:25:21Z</time>
      </trkpt>
      <trkpt lat="42.22356" lon="0.82074">
        <ele>1244.6</ele>
        <time>2023-07-23T08:25:22Z</time>
      </trkpt>
      <trkpt lat="42.2236" lon="0.82084">
        <ele>1244</ele>
        <time>2023-07-23T08:25:23Z</time>
      </trkpt>
      <trkpt lat="42.22365" lon="0.82094">
        <ele>1243.2</ele>
        <time>2023-07-23T08:25:24Z</time>
      </trkpt>
      <trkpt lat="42.22368" lon="0.82105">
        <ele>1242</ele>
        <time>2023-07-23T08:25:25Z</time>
      </trkpt>
      <trkpt lat="42.22371" lon="0.82116">
        <ele>1241.2</ele>
        <time>2023-07-23T08:25:26Z</time>
      </trkpt>
      <trkpt lat="42.22371" lon="0.82127">
        <ele>1240.2</ele>
        <time>2023-07-23T08:25:27Z</time>
      </trkpt>
      <trkpt lat="42.22371" lon="0.82139">
        <ele>1239.4</ele>
        <time>2023-07-23T08:25:28Z</time>
      </trkpt>
      <trkpt lat="42.22373" lon="0.8215">
        <ele>1239.2</ele>
        <time>2023-07-23T08:25:29Z</time>
      </trkpt>
      <trkpt lat="42.22377" lon="0.82173">
        <ele>1237.8</ele>
        <time>2023-07-23T08:25:31Z</time>
      </trkpt>
      <trkpt lat="42.22379" lon="0.82185">
        <ele>1237</ele>
        <time>2023-07-23T08:25:32Z</time>
      </trkpt>
      <trkpt lat="42.22378" lon="0.82197">
        <ele>1236.6</ele>
        <time>2023-07-23T08:25:33Z</time>
      </trkpt>
      <trkpt lat="42.22375" lon="0.82208">
        <ele>1236</ele>
        <time>2023-07-23T08:25:34Z</time>
      </trkpt>
      <trkpt lat="42.22371" lon="0.82219">
        <ele>1235</ele>
        <time>2023-07-23T08:25:35Z</time>
      </trkpt>
      <trkpt lat="42.22367" lon="0.8223">
        <ele>1234.4</ele>
        <time>2023-07-23T08:25:36Z</time>
      </trkpt>
      <trkpt lat="42.22363" lon="0.82242">
        <ele>1232.8</ele>
        <time>2023-07-23T08:25:37Z</time>
      </trkpt>
      <trkpt lat="42.22359" lon="0.82253">
        <ele>1232.4</ele>
        <time>2023-07-23T08:25:38Z</time>
      </trkpt>
      <trkpt lat="42.22356" lon="0.82264">
        <ele>1231</ele>
        <time>2023-07-23T08:25:39Z</time>
      </trkpt>
      <trkpt lat="42.22354" lon="0.82275">
        <ele>1230.2</ele>
        <time>2023-07-23T08:25:40Z</time>
      </trkpt>
      <trkpt lat="42.22352" lon="0.82284">
        <ele>1229.8</ele>
        <time>2023-07-23T08:25:41Z</time>
      </trkpt>
      <trkpt lat="42.22352" lon="0.82291">
        <ele>1228.8</ele>
        <time>2023-07-23T08:25:42Z</time>
      </trkpt>
      <trkpt lat="42.22353" lon="0.82297">
        <ele>1228.4</ele>
        <time>2023-07-23T08:25:43Z</time>
      </trkpt>
      <trkpt lat="42.22357" lon="0.82301">
        <ele>1227.6</ele>
        <time>2023-07-23T08:25:44Z</time>
      </trkpt>
      <trkpt lat="42.22361" lon="0.82303">
        <ele>1227.2</ele>
        <time>2023-07-23T08:25:45Z</time>
      </trkpt>
      <trkpt lat="42.22366" lon="0.82304">
        <ele>1226.6</ele>
        <time>2023-07-23T08:25:46Z</time>
      </trkpt>
      <trkpt lat="42.22371" lon="0.82304">
        <ele>1226</ele>
        <time>2023-07-23T08:25:47Z</time>
      </trkpt>
      <trkpt lat="42.22375" lon="0.82304">
        <ele>1225.8</ele>
        <time>2023-07-23T08:25:48Z</time>
      </trkpt>
      <trkpt lat="42.22378" lon="0.82304">
        <ele>1225</ele>
        <time>2023-07-23T08:25:49Z</time>
      </trkpt>
      <trkpt lat="42.22379" lon="0.82304">
        <ele>1224.8</ele>
        <time>2023-07-23T08:25:50Z</time>
      </trkpt>
      <trkpt lat="42.22379" lon="0.82304">
        <ele>1224.2</ele>
        <time>2023-07-23T08:25:51Z</time>
      </trkpt>
      <trkpt lat="42.22379" lon="0.82304">
        <ele>1223.8</ele>
        <time>2023-07-23T08:25:52Z</time>
      </trkpt>
      <trkpt lat="42.22387" lon="0.82304">
        <ele>1222.6</ele>
        <time>2023-07-23T08:25:58Z</time>
      </trkpt>
      <trkpt lat="42.22392" lon="0.82306">
        <ele>1222.4</ele>
        <time>2023-07-23T08:26:00Z</time>
      </trkpt>
      <trkpt lat="42.22395" lon="0.82308">
        <ele>1222</ele>
        <time>2023-07-23T08:26:01Z</time>
      </trkpt>
      <trkpt lat="42.22398" lon="0.82311">
        <ele>1222</ele>
        <time>2023-07-23T08:26:02Z</time>
      </trkpt>
      <trkpt lat="42.22403" lon="0.82315">
        <ele>1221.8</ele>
        <time>2023-07-23T08:26:03Z</time>
      </trkpt>
      <trkpt lat="42.22413" lon="0.82323">
        <ele>1221.4</ele>
        <time>2023-07-23T08:26:05Z</time>
      </trkpt>
      <trkpt lat="42.22422" lon="0.82327">
        <ele>1220.4</ele>
        <time>2023-07-23T08:26:07Z</time>
      </trkpt>
      <trkpt lat="42.22426" lon="0.82328">
        <ele>1219.8</ele>
        <time>2023-07-23T08:26:08Z</time>
      </trkpt>
      <trkpt lat="42.22431" lon="0.82326">
        <ele>1219.4</ele>
        <time>2023-07-23T08:26:09Z</time>
      </trkpt>
      <trkpt lat="42.22435" lon="0.82323">
        <ele>1218.8</ele>
        <time>2023-07-23T08:26:10Z</time>
      </trkpt>
      <trkpt lat="42.22438" lon="0.8232">
        <ele>1218.4</ele>
        <time>2023-07-23T08:26:11Z</time>
      </trkpt>
      <trkpt lat="42.22442" lon="0.82315">
        <ele>1218.2</ele>
        <time>2023-07-23T08:26:12Z</time>
      </trkpt>
      <trkpt lat="42.22446" lon="0.8231">
        <ele>1217.8</ele>
        <time>2023-07-23T08:26:13Z</time>
      </trkpt>
      <trkpt lat="42.22449" lon="0.82304">
        <ele>1217.6</ele>
        <time>2023-07-23T08:26:14Z</time>
      </trkpt>
      <trkpt lat="42.22452" lon="0.82298">
        <ele>1217.4</ele>
        <time>2023-07-23T08:26:15Z</time>
      </trkpt>
      <trkpt lat="42.22454" lon="0.82294">
        <ele>1217.4</ele>
        <time>2023-07-23T08:26:16Z</time>
      </trkpt>
      <trkpt lat="42.22457" lon="0.82287">
        <ele>1217</ele>
        <time>2023-07-23T08:26:17Z</time>
      </trkpt>
      <trkpt lat="42.2246" lon="0.82279">
        <ele>1216.2</ele>
        <time>2023-07-23T08:26:18Z</time>
      </trkpt>
      <trkpt lat="42.22464" lon="0.82269">
        <ele>1216</ele>
        <time>2023-07-23T08:26:19Z</time>
      </trkpt>
      <trkpt lat="42.22467" lon="0.8226">
        <ele>1215.6</ele>
        <time>2023-07-23T08:26:20Z</time>
      </trkpt>
      <trkpt lat="42.2247" lon="0.82253">
        <ele>1215.4</ele>
        <time>2023-07-23T08:26:21Z</time>
      </trkpt>
      <trkpt lat="42.22474" lon="0.82244">
        <ele>1214.4</ele>
        <time>2023-07-23T08:26:22Z</time>
      </trkpt>
      <trkpt lat="42.22479" lon="0.82235">
        <ele>1213.4</ele>
        <time>2023-07-23T08:26:23Z</time>
      </trkpt>
      <trkpt lat="42.22484" lon="0.82225">
        <ele>1213</ele>
        <time>2023-07-23T08:26:24Z</time>
      </trkpt>
      <trkpt lat="42.22489" lon="0.82217">
        <ele>1212.6</ele>
        <time>2023-07-23T08:26:25Z</time>
      </trkpt>
      <trkpt lat="42.22492" lon="0.8221">
        <ele>1212</ele>
        <time>2023-07-23T08:26:26Z</time>
      </trkpt>
      <trkpt lat="42.22495" lon="0.82206">
        <ele>1210.6</ele>
        <time>2023-07-23T08:26:27Z</time>
      </trkpt>
      <trkpt lat="42.22499" lon="0.82202">
        <ele>1210</ele>
        <time>2023-07-23T08:26:28Z</time>
      </trkpt>
      <trkpt lat="42.22504" lon="0.82201">
        <ele>1209.2</ele>
        <time>2023-07-23T08:26:29Z</time>
      </trkpt>
      <trkpt lat="42.22507" lon="0.82203">
        <ele>1208.2</ele>
        <time>2023-07-23T08:26:30Z</time>
      </trkpt>
      <trkpt lat="42.22509" lon="0.82207">
        <ele>1207.8</ele>
        <time>2023-07-23T08:26:31Z</time>
      </trkpt>
      <trkpt lat="42.2251" lon="0.82213">
        <ele>1207.2</ele>
        <time>2023-07-23T08:26:32Z</time>
      </trkpt>
      <trkpt lat="42.22512" lon="0.82219">
        <ele>1207</ele>
        <time>2023-07-23T08:26:33Z</time>
      </trkpt>
      <trkpt lat="42.22515" lon="0.82226">
        <ele>1206.4</ele>
        <time>2023-07-23T08:26:34Z</time>
      </trkpt>
      <trkpt lat="42.22518" lon="0.82233">
        <ele>1205.4</ele>
        <time>2023-07-23T08:26:35Z</time>
      </trkpt>
      <trkpt lat="42.22523" lon="0.82241">
        <ele>1205.2</ele>
        <time>2023-07-23T08:26:36Z</time>
      </trkpt>
      <trkpt lat="42.22528" lon="0.82249">
        <ele>1204.8</ele>
        <time>2023-07-23T08:26:37Z</time>
      </trkpt>
      <trkpt lat="42.22534" lon="0.82256">
        <ele>1204.6</ele>
        <time>2023-07-23T08:26:38Z</time>
      </trkpt>
      <trkpt lat="42.22546" lon="0.82273">
        <ele>1204.2</ele>
        <time>2023-07-23T08:26:40Z</time>
      </trkpt>
      <trkpt lat="42.22557" lon="0.82287">
        <ele>1203</ele>
        <time>2023-07-23T08:26:42Z</time>
      </trkpt>
      <trkpt lat="42.22564" lon="0.82293">
        <ele>1202.6</ele>
        <time>2023-07-23T08:26:43Z</time>
      </trkpt>
      <trkpt lat="42.22572" lon="0.82297">
        <ele>1201.4</ele>
        <time>2023-07-23T08:26:44Z</time>
      </trkpt>
      <trkpt lat="42.22579" lon="0.82297">
        <ele>1200.8</ele>
        <time>2023-07-23T08:26:45Z</time>
      </trkpt>
      <trkpt lat="42.22584" lon="0.82295">
        <ele>1200.2</ele>
        <time>2023-07-23T08:26:46Z</time>
      </trkpt>
      <trkpt lat="42.22587" lon="0.82292">
        <ele>1199.4</ele>
        <time>2023-07-23T08:26:47Z</time>
      </trkpt>
      <trkpt lat="42.2259" lon="0.82288">
        <ele>1198.8</ele>
        <time>2023-07-23T08:26:48Z</time>
      </trkpt>
      <trkpt lat="42.22592" lon="0.82284">
        <ele>1198</ele>
        <time>2023-07-23T08:26:49Z</time>
      </trkpt>
      <trkpt lat="42.22593" lon="0.8228">
        <ele>1198</ele>
        <time>2023-07-23T08:26:50Z</time>
      </trkpt>
      <trkpt lat="42.22596" lon="0.82275">
        <ele>1197.6</ele>
        <time>2023-07-23T08:26:51Z</time>
      </trkpt>
      <trkpt lat="42.22597" lon="0.82272">
        <ele>1197.4</ele>
        <time>2023-07-23T08:26:52Z</time>
      </trkpt>
      <trkpt lat="42.226" lon="0.82268">
        <ele>1197.4</ele>
        <time>2023-07-23T08:26:53Z</time>
      </trkpt>
      <trkpt lat="42.22601" lon="0.82264">
        <ele>1197.4</ele>
        <time>2023-07-23T08:26:54Z</time>
      </trkpt>
      <trkpt lat="42.22603" lon="0.8226">
        <ele>1197.4</ele>
        <time>2023-07-23T08:26:55Z</time>
      </trkpt>
      <trkpt lat="42.22605" lon="0.82257">
        <ele>1197.6</ele>
        <time>2023-07-23T08:26:56Z</time>
      </trkpt>
      <trkpt lat="42.22607" lon="0.82253">
        <ele>1197.8</ele>
        <time>2023-07-23T08:26:57Z</time>
      </trkpt>
      <trkpt lat="42.22609" lon="0.8225">
        <ele>1198</ele>
        <time>2023-07-23T08:26:58Z</time>
      </trkpt>
      <trkpt lat="42.22611" lon="0.82246">
        <ele>1198.4</ele>
        <time>2023-07-23T08:26:59Z</time>
      </trkpt>
      <trkpt lat="42.22613" lon="0.82242">
        <ele>1198.4</ele>
        <time>2023-07-23T08:27:00Z</time>
      </trkpt>
      <trkpt lat="42.22615" lon="0.82238">
        <ele>1198.8</ele>
        <time>2023-07-23T08:27:01Z</time>
      </trkpt>
      <trkpt lat="42.22616" lon="0.82235">
        <ele>1198.8</ele>
        <time>2023-07-23T08:27:02Z</time>
      </trkpt>
      <trkpt lat="42.22617" lon="0.82231">
        <ele>1199</ele>
        <time>2023-07-23T08:27:03Z</time>
      </trkpt>
      <trkpt lat="42.22619" lon="0.82227">
        <ele>1199.4</ele>
        <time>2023-07-23T08:27:04Z</time>
      </trkpt>
      <trkpt lat="42.22621" lon="0.82223">
        <ele>1199.8</ele>
        <time>2023-07-23T08:27:05Z</time>
      </trkpt>
      <trkpt lat="42.22622" lon="0.8222">
        <ele>1200.2</ele>
        <time>2023-07-23T08:27:06Z</time>
      </trkpt>
      <trkpt lat="42.22624" lon="0.82217">
        <ele>1200.4</ele>
        <time>2023-07-23T08:27:07Z</time>
      </trkpt>
      <trkpt lat="42.22625" lon="0.82215">
        <ele>1201</ele>
        <time>2023-07-23T08:27:08Z</time>
      </trkpt>
      <trkpt lat="42.22626" lon="0.82211">
        <ele>1201.4</ele>
        <time>2023-07-23T08:27:09Z</time>
      </trkpt>
      <trkpt lat="42.22628" lon="0.82207">
        <ele>1201.8</ele>
        <time>2023-07-23T08:27:10Z</time>
      </trkpt>
      <trkpt lat="42.22629" lon="0.82203">
        <ele>1201.8</ele>
        <time>2023-07-23T08:27:11Z</time>
      </trkpt>
      <trkpt lat="42.2263" lon="0.82199">
        <ele>1202</ele>
        <time>2023-07-23T08:27:12Z</time>
      </trkpt>
      <trkpt lat="42.2263" lon="0.82195">
        <ele>1202.2</ele>
        <time>2023-07-23T08:27:13Z</time>
      </trkpt>
      <trkpt lat="42.22631" lon="0.82191">
        <ele>1202.4</ele>
        <time>2023-07-23T08:27:14Z</time>
      </trkpt>
      <trkpt lat="42.22632" lon="0.82187">
        <ele>1202.8</ele>
        <time>2023-07-23T08:27:15Z</time>
      </trkpt>
      <trkpt lat="42.22633" lon="0.82182">
        <ele>1203</ele>
        <time>2023-07-23T08:27:16Z</time>
      </trkpt>
      <trkpt lat="42.22634" lon="0.82177">
        <ele>1203.4</ele>
        <time>2023-07-23T08:27:17Z</time>
      </trkpt>
      <trkpt lat="42.22635" lon="0.82174">
        <ele>1203.8</ele>
        <time>2023-07-23T08:27:18Z</time>
      </trkpt>
      <trkpt lat="42.22635" lon="0.82169">
        <ele>1203.8</ele>
        <time>2023-07-23T08:27:19Z</time>
      </trkpt>
      <trkpt lat="42.22636" lon="0.82165">
        <ele>1204</ele>
        <time>2023-07-23T08:27:20Z</time>
      </trkpt>
      <trkpt lat="42.22637" lon="0.8216">
        <ele>1204.2</ele>
        <time>2023-07-23T08:27:21Z</time>
      </trkpt>
      <trkpt lat="42.22638" lon="0.82156">
        <ele>1204.8</ele>
        <time>2023-07-23T08:27:22Z</time>
      </trkpt>
      <trkpt lat="42.2264" lon="0.82153">
        <ele>1205.4</ele>
        <time>2023-07-23T08:27:23Z</time>
      </trkpt>
      <trkpt lat="42.22644" lon="0.82151">
        <ele>1205.6</ele>
        <time>2023-07-23T08:27:24Z</time>
      </trkpt>
      <trkpt lat="42.22647" lon="0.8215">
        <ele>1206</ele>
        <time>2023-07-23T08:27:25Z</time>
      </trkpt>
      <trkpt lat="42.2265" lon="0.82151">
        <ele>1206.2</ele>
        <time>2023-07-23T08:27:26Z</time>
      </trkpt>
      <trkpt lat="42.22653" lon="0.82154">
        <ele>1206.2</ele>
        <time>2023-07-23T08:27:27Z</time>
      </trkpt>
      <trkpt lat="42.22655" lon="0.82157">
        <ele>1206.4</ele>
        <time>2023-07-23T08:27:28Z</time>
      </trkpt>
      <trkpt lat="42.22657" lon="0.82159">
        <ele>1206.4</ele>
        <time>2023-07-23T08:27:29Z</time>
      </trkpt>
      <trkpt lat="42.22658" lon="0.82163">
        <ele>1206.6</ele>
        <time>2023-07-23T08:27:30Z</time>
      </trkpt>
      <trkpt lat="42.22661" lon="0.82166">
        <ele>1206.8</ele>
        <time>2023-07-23T08:27:31Z</time>
      </trkpt>
      <trkpt lat="42.22664" lon="0.82169">
        <ele>1206.8</ele>
        <time>2023-07-23T08:27:32Z</time>
      </trkpt>
      <trkpt lat="42.22667" lon="0.82171">
        <ele>1207</ele>
        <time>2023-07-23T08:27:33Z</time>
      </trkpt>
      <trkpt lat="42.22669" lon="0.82172">
        <ele>1207.4</ele>
        <time>2023-07-23T08:27:34Z</time>
      </trkpt>
      <trkpt lat="42.22672" lon="0.82173">
        <ele>1207.8</ele>
        <time>2023-07-23T08:27:35Z</time>
      </trkpt>
      <trkpt lat="42.22676" lon="0.82174">
        <ele>1207.8</ele>
        <time>2023-07-23T08:27:36Z</time>
      </trkpt>
      <trkpt lat="42.22679" lon="0.82174">
        <ele>1208.4</ele>
        <time>2023-07-23T08:27:37Z</time>
      </trkpt>
      <trkpt lat="42.22682" lon="0.82174">
        <ele>1208.4</ele>
        <time>2023-07-23T08:27:38Z</time>
      </trkpt>
      <trkpt lat="42.22684" lon="0.82173">
        <ele>1208.8</ele>
        <time>2023-07-23T08:27:39Z</time>
      </trkpt>
      <trkpt lat="42.22687" lon="0.82171">
        <ele>1208.8</ele>
        <time>2023-07-23T08:27:40Z</time>
      </trkpt>
      <trkpt lat="42.22689" lon="0.82169">
        <ele>1209.2</ele>
        <time>2023-07-23T08:27:41Z</time>
      </trkpt>
      <trkpt lat="42.22692" lon="0.82166">
        <ele>1209.6</ele>
        <time>2023-07-23T08:27:42Z</time>
      </trkpt>
      <trkpt lat="42.22694" lon="0.82163">
        <ele>1209.6</ele>
        <time>2023-07-23T08:27:43Z</time>
      </trkpt>
      <trkpt lat="42.22695" lon="0.8216">
        <ele>1210</ele>
        <time>2023-07-23T08:27:44Z</time>
      </trkpt>
      <trkpt lat="42.22697" lon="0.82156">
        <ele>1210</ele>
        <time>2023-07-23T08:27:45Z</time>
      </trkpt>
      <trkpt lat="42.22698" lon="0.82152">
        <ele>1210.2</ele>
        <time>2023-07-23T08:27:46Z</time>
      </trkpt>
      <trkpt lat="42.227" lon="0.82148">
        <ele>1210.6</ele>
        <time>2023-07-23T08:27:47Z</time>
      </trkpt>
      <trkpt lat="42.22702" lon="0.82145">
        <ele>1211</ele>
        <time>2023-07-23T08:27:48Z</time>
      </trkpt>
      <trkpt lat="42.22703" lon="0.82142">
        <ele>1211.4</ele>
        <time>2023-07-23T08:27:49Z</time>
      </trkpt>
      <trkpt lat="42.22705" lon="0.82138">
        <ele>1211.4</ele>
        <time>2023-07-23T08:27:50Z</time>
      </trkpt>
      <trkpt lat="42.22706" lon="0.82134">
        <ele>1211.8</ele>
        <time>2023-07-23T08:27:51Z</time>
      </trkpt>
      <trkpt lat="42.22708" lon="0.8213">
        <ele>1212.2</ele>
        <time>2023-07-23T08:27:52Z</time>
      </trkpt>
      <trkpt lat="42.2271" lon="0.82126">
        <ele>1212.8</ele>
        <time>2023-07-23T08:27:53Z</time>
      </trkpt>
      <trkpt lat="42.22711" lon="0.82123">
        <ele>1213.4</ele>
        <time>2023-07-23T08:27:54Z</time>
      </trkpt>
      <trkpt lat="42.22713" lon="0.8212">
        <ele>1213.4</ele>
        <time>2023-07-23T08:27:55Z</time>
      </trkpt>
      <trkpt lat="42.22714" lon="0.82116">
        <ele>1213.8</ele>
        <time>2023-07-23T08:27:56Z</time>
      </trkpt>
      <trkpt lat="42.22716" lon="0.82112">
        <ele>1214</ele>
        <time>2023-07-23T08:27:57Z</time>
      </trkpt>
      <trkpt lat="42.22718" lon="0.82108">
        <ele>1214.4</ele>
        <time>2023-07-23T08:27:58Z</time>
      </trkpt>
      <trkpt lat="42.2272" lon="0.82104">
        <ele>1214.4</ele>
        <time>2023-07-23T08:27:59Z</time>
      </trkpt>
      <trkpt lat="42.22722" lon="0.82101">
        <ele>1214.8</ele>
        <time>2023-07-23T08:28:00Z</time>
      </trkpt>
      <trkpt lat="42.22724" lon="0.82097">
        <ele>1215</ele>
        <time>2023-07-23T08:28:01Z</time>
      </trkpt>
      <trkpt lat="42.22725" lon="0.82092">
        <ele>1215</ele>
        <time>2023-07-23T08:28:02Z</time>
      </trkpt>
      <trkpt lat="42.22728" lon="0.82087">
        <ele>1215.4</ele>
        <time>2023-07-23T08:28:03Z</time>
      </trkpt>
      <trkpt lat="42.2273" lon="0.82083">
        <ele>1215.4</ele>
        <time>2023-07-23T08:28:04Z</time>
      </trkpt>
      <trkpt lat="42.22732" lon="0.82079">
        <ele>1215.6</ele>
        <time>2023-07-23T08:28:05Z</time>
      </trkpt>
      <trkpt lat="42.22734" lon="0.82075">
        <ele>1216.2</ele>
        <time>2023-07-23T08:28:06Z</time>
      </trkpt>
      <trkpt lat="42.22736" lon="0.8207">
        <ele>1216.8</ele>
        <time>2023-07-23T08:28:07Z</time>
      </trkpt>
      <trkpt lat="42.22738" lon="0.82066">
        <ele>1217.2</ele>
        <time>2023-07-23T08:28:08Z</time>
      </trkpt>
      <trkpt lat="42.2274" lon="0.82062">
        <ele>1217.6</ele>
        <time>2023-07-23T08:28:09Z</time>
      </trkpt>
      <trkpt lat="42.22741" lon="0.82059">
        <ele>1218.2</ele>
        <time>2023-07-23T08:28:10Z</time>
      </trkpt>
      <trkpt lat="42.22743" lon="0.82056">
        <ele>1218.4</ele>
        <time>2023-07-23T08:28:11Z</time>
      </trkpt>
      <trkpt lat="42.22744" lon="0.82051">
        <ele>1219</ele>
        <time>2023-07-23T08:28:12Z</time>
      </trkpt>
      <trkpt lat="42.22746" lon="0.82046">
        <ele>1219.8</ele>
        <time>2023-07-23T08:28:13Z</time>
      </trkpt>
      <trkpt lat="42.22747" lon="0.82042">
        <ele>1220.2</ele>
        <time>2023-07-23T08:28:14Z</time>
      </trkpt>
      <trkpt lat="42.22748" lon="0.82036">
        <ele>1220.6</ele>
        <time>2023-07-23T08:28:15Z</time>
      </trkpt>
      <trkpt lat="42.22749" lon="0.82033">
        <ele>1220.6</ele>
        <time>2023-07-23T08:28:16Z</time>
      </trkpt>
      <trkpt lat="42.2275" lon="0.82029">
        <ele>1220.8</ele>
        <time>2023-07-23T08:28:17Z</time>
      </trkpt>
      <trkpt lat="42.22751" lon="0.82025">
        <ele>1221.4</ele>
        <time>2023-07-23T08:28:18Z</time>
      </trkpt>
      <trkpt lat="42.22752" lon="0.82022">
        <ele>1221.6</ele>
        <time>2023-07-23T08:28:19Z</time>
      </trkpt>
      <trkpt lat="42.22753" lon="0.8202">
        <ele>1222.2</ele>
        <time>2023-07-23T08:28:20Z</time>
      </trkpt>
      <trkpt lat="42.22755" lon="0.82016">
        <ele>1222.2</ele>
        <time>2023-07-23T08:28:21Z</time>
      </trkpt>
      <trkpt lat="42.22757" lon="0.82012">
        <ele>1222.6</ele>
        <time>2023-07-23T08:28:22Z</time>
      </trkpt>
      <trkpt lat="42.22758" lon="0.82008">
        <ele>1222.8</ele>
        <time>2023-07-23T08:28:23Z</time>
      </trkpt>
      <trkpt lat="42.22759" lon="0.82005">
        <ele>1223</ele>
        <time>2023-07-23T08:28:24Z</time>
      </trkpt>
      <trkpt lat="42.22761" lon="0.82001">
        <ele>1223.2</ele>
        <time>2023-07-23T08:28:25Z</time>
      </trkpt>
      <trkpt lat="42.22762" lon="0.81997">
        <ele>1223.4</ele>
        <time>2023-07-23T08:28:26Z</time>
      </trkpt>
      <trkpt lat="42.22763" lon="0.81992">
        <ele>1224</ele>
        <time>2023-07-23T08:28:27Z</time>
      </trkpt>
      <trkpt lat="42.22763" lon="0.81985">
        <ele>1224.4</ele>
        <time>2023-07-23T08:28:28Z</time>
      </trkpt>
      <trkpt lat="42.22764" lon="0.8198">
        <ele>1225</ele>
        <time>2023-07-23T08:28:29Z</time>
      </trkpt>
      <trkpt lat="42.22764" lon="0.81974">
        <ele>1225.2</ele>
        <time>2023-07-23T08:28:30Z</time>
      </trkpt>
      <trkpt lat="42.22765" lon="0.81969">
        <ele>1225.6</ele>
        <time>2023-07-23T08:28:31Z</time>
      </trkpt>
      <trkpt lat="42.22766" lon="0.81963">
        <ele>1225.8</ele>
        <time>2023-07-23T08:28:32Z</time>
      </trkpt>
      <trkpt lat="42.22768" lon="0.81959">
        <ele>1226</ele>
        <time>2023-07-23T08:28:33Z</time>
      </trkpt>
      <trkpt lat="42.22772" lon="0.81955">
        <ele>1226.2</ele>
        <time>2023-07-23T08:28:34Z</time>
      </trkpt>
      <trkpt lat="42.22777" lon="0.81953">
        <ele>1226.4</ele>
        <time>2023-07-23T08:28:35Z</time>
      </trkpt>
      <trkpt lat="42.2278" lon="0.81952">
        <ele>1226.4</ele>
        <time>2023-07-23T08:28:36Z</time>
      </trkpt>
      <trkpt lat="42.22784" lon="0.81953">
        <ele>1226.6</ele>
        <time>2023-07-23T08:28:37Z</time>
      </trkpt>
      <trkpt lat="42.22788" lon="0.81953">
        <ele>1226.8</ele>
        <time>2023-07-23T08:28:38Z</time>
      </trkpt>
      <trkpt lat="42.22793" lon="0.81954">
        <ele>1227</ele>
        <time>2023-07-23T08:28:39Z</time>
      </trkpt>
      <trkpt lat="42.22796" lon="0.81953">
        <ele>1227</ele>
        <time>2023-07-23T08:28:40Z</time>
      </trkpt>
      <trkpt lat="42.22799" lon="0.81952">
        <ele>1227</ele>
        <time>2023-07-23T08:28:41Z</time>
      </trkpt>
      <trkpt lat="42.22802" lon="0.81949">
        <ele>1227.2</ele>
        <time>2023-07-23T08:28:42Z</time>
      </trkpt>
      <trkpt lat="42.22805" lon="0.81946">
        <ele>1227.2</ele>
        <time>2023-07-23T08:28:43Z</time>
      </trkpt>
      <trkpt lat="42.22809" lon="0.81943">
        <ele>1227.2</ele>
        <time>2023-07-23T08:28:44Z</time>
      </trkpt>
      <trkpt lat="42.22812" lon="0.81941">
        <ele>1227.4</ele>
        <time>2023-07-23T08:28:45Z</time>
      </trkpt>
      <trkpt lat="42.22815" lon="0.81938">
        <ele>1227.4</ele>
        <time>2023-07-23T08:28:46Z</time>
      </trkpt>
      <trkpt lat="42.22817" lon="0.81936">
        <ele>1227.8</ele>
        <time>2023-07-23T08:28:47Z</time>
      </trkpt>
      <trkpt lat="42.2282" lon="0.81932">
        <ele>1228</ele>
        <time>2023-07-23T08:28:48Z</time>
      </trkpt>
      <trkpt lat="42.22823" lon="0.81928">
        <ele>1228.2</ele>
        <time>2023-07-23T08:28:49Z</time>
      </trkpt>
      <trkpt lat="42.22826" lon="0.81925">
        <ele>1228.4</ele>
        <time>2023-07-23T08:28:50Z</time>
      </trkpt>
      <trkpt lat="42.22828" lon="0.81921">
        <ele>1228.6</ele>
        <time>2023-07-23T08:28:51Z</time>
      </trkpt>
      <trkpt lat="42.22831" lon="0.81917">
        <ele>1228.8</ele>
        <time>2023-07-23T08:28:52Z</time>
      </trkpt>
      <trkpt lat="42.22833" lon="0.81914">
        <ele>1229</ele>
        <time>2023-07-23T08:28:53Z</time>
      </trkpt>
      <trkpt lat="42.22837" lon="0.81909">
        <ele>1229.4</ele>
        <time>2023-07-23T08:28:54Z</time>
      </trkpt>
      <trkpt lat="42.2284" lon="0.81906">
        <ele>1230</ele>
        <time>2023-07-23T08:28:55Z</time>
      </trkpt>
      <trkpt lat="42.22842" lon="0.81903">
        <ele>1230.4</ele>
        <time>2023-07-23T08:28:56Z</time>
      </trkpt>
      <trkpt lat="42.22845" lon="0.81901">
        <ele>1230.4</ele>
        <time>2023-07-23T08:28:57Z</time>
      </trkpt>
      <trkpt lat="42.22849" lon="0.81899">
        <ele>1230.8</ele>
        <time>2023-07-23T08:28:58Z</time>
      </trkpt>
      <trkpt lat="42.22851" lon="0.81898">
        <ele>1231</ele>
        <time>2023-07-23T08:28:59Z</time>
      </trkpt>
      <trkpt lat="42.22855" lon="0.81895">
        <ele>1231.4</ele>
        <time>2023-07-23T08:29:00Z</time>
      </trkpt>
      <trkpt lat="42.22858" lon="0.81893">
        <ele>1231.8</ele>
        <time>2023-07-23T08:29:01Z</time>
      </trkpt>
      <trkpt lat="42.22861" lon="0.8189">
        <ele>1232.4</ele>
        <time>2023-07-23T08:29:02Z</time>
      </trkpt>
      <trkpt lat="42.22863" lon="0.81887">
        <ele>1233</ele>
        <time>2023-07-23T08:29:03Z</time>
      </trkpt>
      <trkpt lat="42.22865" lon="0.81881">
        <ele>1233.2</ele>
        <time>2023-07-23T08:29:04Z</time>
      </trkpt>
      <trkpt lat="42.22867" lon="0.81877">
        <ele>1233.4</ele>
        <time>2023-07-23T08:29:05Z</time>
      </trkpt>
      <trkpt lat="42.22869" lon="0.81872">
        <ele>1233.6</ele>
        <time>2023-07-23T08:29:06Z</time>
      </trkpt>
      <trkpt lat="42.22871" lon="0.81868">
        <ele>1234</ele>
        <time>2023-07-23T08:29:07Z</time>
      </trkpt>
      <trkpt lat="42.22874" lon="0.81864">
        <ele>1234.6</ele>
        <time>2023-07-23T08:29:08Z</time>
      </trkpt>
      <trkpt lat="42.22877" lon="0.81861">
        <ele>1234.6</ele>
        <time>2023-07-23T08:29:09Z</time>
      </trkpt>
      <trkpt lat="42.22881" lon="0.8186">
        <ele>1234.8</ele>
        <time>2023-07-23T08:29:10Z</time>
      </trkpt>
      <trkpt lat="42.22885" lon="0.8186">
        <ele>1234.8</ele>
        <time>2023-07-23T08:29:11Z</time>
      </trkpt>
      <trkpt lat="42.22889" lon="0.81861">
        <ele>1234.8</ele>
        <time>2023-07-23T08:29:12Z</time>
      </trkpt>
      <trkpt lat="42.22892" lon="0.81864">
        <ele>1234.8</ele>
        <time>2023-07-23T08:29:13Z</time>
      </trkpt>
      <trkpt lat="42.22894" lon="0.81868">
        <ele>1234.8</ele>
        <time>2023-07-23T08:29:14Z</time>
      </trkpt>
      <trkpt lat="42.22896" lon="0.81873">
        <ele>1234.8</ele>
        <time>2023-07-23T08:29:15Z</time>
      </trkpt>
      <trkpt lat="42.22897" lon="0.81878">
        <ele>1235</ele>
        <time>2023-07-23T08:29:16Z</time>
      </trkpt>
      <trkpt lat="42.22898" lon="0.81883">
        <ele>1235</ele>
        <time>2023-07-23T08:29:17Z</time>
      </trkpt>
      <trkpt lat="42.22899" lon="0.81888">
        <ele>1235.2</ele>
        <time>2023-07-23T08:29:18Z</time>
      </trkpt>
      <trkpt lat="42.229" lon="0.81892">
        <ele>1235.4</ele>
        <time>2023-07-23T08:29:19Z</time>
      </trkpt>
      <trkpt lat="42.22901" lon="0.81897">
        <ele>1236</ele>
        <time>2023-07-23T08:29:20Z</time>
      </trkpt>
      <trkpt lat="42.22903" lon="0.81902">
        <ele>1236.2</ele>
        <time>2023-07-23T08:29:21Z</time>
      </trkpt>
      <trkpt lat="42.22904" lon="0.81906">
        <ele>1237.2</ele>
        <time>2023-07-23T08:29:22Z</time>
      </trkpt>
      <trkpt lat="42.22906" lon="0.81911">
        <ele>1237.4</ele>
        <time>2023-07-23T08:29:23Z</time>
      </trkpt>
      <trkpt lat="42.22908" lon="0.81915">
        <ele>1238</ele>
        <time>2023-07-23T08:29:24Z</time>
      </trkpt>
      <trkpt lat="42.22911" lon="0.81918">
        <ele>1238.2</ele>
        <time>2023-07-23T08:29:25Z</time>
      </trkpt>
      <trkpt lat="42.22914" lon="0.81922">
        <ele>1238.6</ele>
        <time>2023-07-23T08:29:26Z</time>
      </trkpt>
      <trkpt lat="42.22917" lon="0.81925">
        <ele>1239</ele>
        <time>2023-07-23T08:29:27Z</time>
      </trkpt>
      <trkpt lat="42.22919" lon="0.81928">
        <ele>1239.2</ele>
        <time>2023-07-23T08:29:28Z</time>
      </trkpt>
      <trkpt lat="42.22923" lon="0.81931">
        <ele>1239.6</ele>
        <time>2023-07-23T08:29:29Z</time>
      </trkpt>
      <trkpt lat="42.22926" lon="0.81933">
        <ele>1239.8</ele>
        <time>2023-07-23T08:29:30Z</time>
      </trkpt>
      <trkpt lat="42.22929" lon="0.81936">
        <ele>1240</ele>
        <time>2023-07-23T08:29:31Z</time>
      </trkpt>
      <trkpt lat="42.22932" lon="0.81939">
        <ele>1240</ele>
        <time>2023-07-23T08:29:32Z</time>
      </trkpt>
      <trkpt lat="42.22935" lon="0.81941">
        <ele>1240.4</ele>
        <time>2023-07-23T08:29:33Z</time>
      </trkpt>
      <trkpt lat="42.22938" lon="0.81944">
        <ele>1240.6</ele>
        <time>2023-07-23T08:29:34Z</time>
      </trkpt>
      <trkpt lat="42.2294" lon="0.81947">
        <ele>1240.8</ele>
        <time>2023-07-23T08:29:35Z</time>
      </trkpt>
      <trkpt lat="42.22943" lon="0.81951">
        <ele>1241.2</ele>
        <time>2023-07-23T08:29:36Z</time>
      </trkpt>
      <trkpt lat="42.22945" lon="0.81955">
        <ele>1241.4</ele>
        <time>2023-07-23T08:29:37Z</time>
      </trkpt>
      <trkpt lat="42.22947" lon="0.81959">
        <ele>1241.6</ele>
        <time>2023-07-23T08:29:38Z</time>
      </trkpt>
      <trkpt lat="42.22948" lon="0.81963">
        <ele>1241.6</ele>
        <time>2023-07-23T08:29:39Z</time>
      </trkpt>
      <trkpt lat="42.2295" lon="0.81967">
        <ele>1241.8</ele>
        <time>2023-07-23T08:29:40Z</time>
      </trkpt>
      <trkpt lat="42.22951" lon="0.81971">
        <ele>1242.2</ele>
        <time>2023-07-23T08:29:41Z</time>
      </trkpt>
      <trkpt lat="42.22953" lon="0.81975">
        <ele>1242.6</ele>
        <time>2023-07-23T08:29:42Z</time>
      </trkpt>
      <trkpt lat="42.22954" lon="0.81979">
        <ele>1243.2</ele>
        <time>2023-07-23T08:29:43Z</time>
      </trkpt>
      <trkpt lat="42.22955" lon="0.81984">
        <ele>1243.4</ele>
        <time>2023-07-23T08:29:44Z</time>
      </trkpt>
      <trkpt lat="42.22957" lon="0.81988">
        <ele>1244</ele>
        <time>2023-07-23T08:29:45Z</time>
      </trkpt>
      <trkpt lat="42.22958" lon="0.81991">
        <ele>1244.4</ele>
        <time>2023-07-23T08:29:46Z</time>
      </trkpt>
      <trkpt lat="42.22959" lon="0.81996">
        <ele>1244.8</ele>
        <time>2023-07-23T08:29:47Z</time>
      </trkpt>
      <trkpt lat="42.2296" lon="0.82">
        <ele>1245.2</ele>
        <time>2023-07-23T08:29:48Z</time>
      </trkpt>
      <trkpt lat="42.22961" lon="0.82004">
        <ele>1245.4</ele>
        <time>2023-07-23T08:29:49Z</time>
      </trkpt>
      <trkpt lat="42.22963" lon="0.82009">
        <ele>1245.8</ele>
        <time>2023-07-23T08:29:50Z</time>
      </trkpt>
      <trkpt lat="42.22964" lon="0.82013">
        <ele>1246</ele>
        <time>2023-07-23T08:29:51Z</time>
      </trkpt>
      <trkpt lat="42.22966" lon="0.82017">
        <ele>1246.2</ele>
        <time>2023-07-23T08:29:52Z</time>
      </trkpt>
      <trkpt lat="42.22968" lon="0.82021">
        <ele>1246.6</ele>
        <time>2023-07-23T08:29:53Z</time>
      </trkpt>
      <trkpt lat="42.2297" lon="0.82025">
        <ele>1246.8</ele>
        <time>2023-07-23T08:29:54Z</time>
      </trkpt>
      <trkpt lat="42.22973" lon="0.82028">
        <ele>1247.2</ele>
        <time>2023-07-23T08:29:55Z</time>
      </trkpt>
      <trkpt lat="42.22976" lon="0.8203">
        <ele>1247.4</ele>
        <time>2023-07-23T08:29:56Z</time>
      </trkpt>
      <trkpt lat="42.22979" lon="0.82032">
        <ele>1247.8</ele>
        <time>2023-07-23T08:29:57Z</time>
      </trkpt>
      <trkpt lat="42.22982" lon="0.82034">
        <ele>1248</ele>
        <time>2023-07-23T08:29:58Z</time>
      </trkpt>
      <trkpt lat="42.22986" lon="0.82034">
        <ele>1248.2</ele>
        <time>2023-07-23T08:29:59Z</time>
      </trkpt>
      <trkpt lat="42.22989" lon="0.82033">
        <ele>1248.6</ele>
        <time>2023-07-23T08:30:00Z</time>
      </trkpt>
      <trkpt lat="42.22992" lon="0.82032">
        <ele>1248.8</ele>
        <time>2023-07-23T08:30:01Z</time>
      </trkpt>
      <trkpt lat="42.22996" lon="0.82031">
        <ele>1249.2</ele>
        <time>2023-07-23T08:30:02Z</time>
      </trkpt>
      <trkpt lat="42.22999" lon="0.8203">
        <ele>1249.4</ele>
        <time>2023-07-23T08:30:03Z</time>
      </trkpt>
      <trkpt lat="42.23002" lon="0.82028">
        <ele>1249.2</ele>
        <time>2023-07-23T08:30:04Z</time>
      </trkpt>
      <trkpt lat="42.23005" lon="0.82026">
        <ele>1249.6</ele>
        <time>2023-07-23T08:30:05Z</time>
      </trkpt>
      <trkpt lat="42.23008" lon="0.82024">
        <ele>1249.6</ele>
        <time>2023-07-23T08:30:06Z</time>
      </trkpt>
      <trkpt lat="42.23011" lon="0.82022">
        <ele>1249.8</ele>
        <time>2023-07-23T08:30:07Z</time>
      </trkpt>
      <trkpt lat="42.23014" lon="0.82019">
        <ele>1250</ele>
        <time>2023-07-23T08:30:08Z</time>
      </trkpt>
      <trkpt lat="42.23017" lon="0.82017">
        <ele>1250.4</ele>
        <time>2023-07-23T08:30:09Z</time>
      </trkpt>
      <trkpt lat="42.2302" lon="0.82015">
        <ele>1250.6</ele>
        <time>2023-07-23T08:30:10Z</time>
      </trkpt>
      <trkpt lat="42.23023" lon="0.82012">
        <ele>1251</ele>
        <time>2023-07-23T08:30:11Z</time>
      </trkpt>
      <trkpt lat="42.23026" lon="0.82011">
        <ele>1251.2</ele>
        <time>2023-07-23T08:30:12Z</time>
      </trkpt>
      <trkpt lat="42.23028" lon="0.8201">
        <ele>1251.4</ele>
        <time>2023-07-23T08:30:13Z</time>
      </trkpt>
      <trkpt lat="42.23031" lon="0.82008">
        <ele>1251.8</ele>
        <time>2023-07-23T08:30:14Z</time>
      </trkpt>
      <trkpt lat="42.23034" lon="0.82005">
        <ele>1252.4</ele>
        <time>2023-07-23T08:30:15Z</time>
      </trkpt>
      <trkpt lat="42.23037" lon="0.82003">
        <ele>1252.6</ele>
        <time>2023-07-23T08:30:16Z</time>
      </trkpt>
      <trkpt lat="42.2304" lon="0.82001">
        <ele>1253.2</ele>
        <time>2023-07-23T08:30:17Z</time>
      </trkpt>
      <trkpt lat="42.23042" lon="0.82">
        <ele>1253.2</ele>
        <time>2023-07-23T08:30:18Z</time>
      </trkpt>
      <trkpt lat="42.23045" lon="0.81997">
        <ele>1253.8</ele>
        <time>2023-07-23T08:30:19Z</time>
      </trkpt>
      <trkpt lat="42.23048" lon="0.81995">
        <ele>1254</ele>
        <time>2023-07-23T08:30:20Z</time>
      </trkpt>
      <trkpt lat="42.23051" lon="0.81993">
        <ele>1254.6</ele>
        <time>2023-07-23T08:30:21Z</time>
      </trkpt>
      <trkpt lat="42.23053" lon="0.81991">
        <ele>1255.2</ele>
        <time>2023-07-23T08:30:22Z</time>
      </trkpt>
      <trkpt lat="42.23056" lon="0.81989">
        <ele>1255.4</ele>
        <time>2023-07-23T08:30:23Z</time>
      </trkpt>
      <trkpt lat="42.23059" lon="0.81987">
        <ele>1255.8</ele>
        <time>2023-07-23T08:30:24Z</time>
      </trkpt>
      <trkpt lat="42.23062" lon="0.81984">
        <ele>1255.8</ele>
        <time>2023-07-23T08:30:25Z</time>
      </trkpt>
      <trkpt lat="42.23065" lon="0.81982">
        <ele>1256.2</ele>
        <time>2023-07-23T08:30:26Z</time>
      </trkpt>
      <trkpt lat="42.23068" lon="0.81979">
        <ele>1256.4</ele>
        <time>2023-07-23T08:30:27Z</time>
      </trkpt>
      <trkpt lat="42.2307" lon="0.81976">
        <ele>1256.8</ele>
        <time>2023-07-23T08:30:28Z</time>
      </trkpt>
      <trkpt lat="42.23073" lon="0.81973">
        <ele>1257</ele>
        <time>2023-07-23T08:30:29Z</time>
      </trkpt>
      <trkpt lat="42.23076" lon="0.81969">
        <ele>1257</ele>
        <time>2023-07-23T08:30:30Z</time>
      </trkpt>
      <trkpt lat="42.23077" lon="0.81967">
        <ele>1257.2</ele>
        <time>2023-07-23T08:30:31Z</time>
      </trkpt>
      <trkpt lat="42.23079" lon="0.81964">
        <ele>1257.4</ele>
        <time>2023-07-23T08:30:32Z</time>
      </trkpt>
      <trkpt lat="42.23081" lon="0.81961">
        <ele>1257.6</ele>
        <time>2023-07-23T08:30:33Z</time>
      </trkpt>
      <trkpt lat="42.23083" lon="0.81958">
        <ele>1257.8</ele>
        <time>2023-07-23T08:30:34Z</time>
      </trkpt>
      <trkpt lat="42.23085" lon="0.81955">
        <ele>1258.2</ele>
        <time>2023-07-23T08:30:35Z</time>
      </trkpt>
      <trkpt lat="42.23088" lon="0.81951">
        <ele>1258.6</ele>
        <time>2023-07-23T08:30:36Z</time>
      </trkpt>
      <trkpt lat="42.23091" lon="0.81948">
        <ele>1258.6</ele>
        <time>2023-07-23T08:30:37Z</time>
      </trkpt>
      <trkpt lat="42.23093" lon="0.81945">
        <ele>1259</ele>
        <time>2023-07-23T08:30:38Z</time>
      </trkpt>
      <trkpt lat="42.23096" lon="0.81941">
        <ele>1259.2</ele>
        <time>2023-07-23T08:30:39Z</time>
      </trkpt>
      <trkpt lat="42.23097" lon="0.81937">
        <ele>1259.8</ele>
        <time>2023-07-23T08:30:40Z</time>
      </trkpt>
      <trkpt lat="42.23099" lon="0.81933">
        <ele>1260.2</ele>
        <time>2023-07-23T08:30:41Z</time>
      </trkpt>
      <trkpt lat="42.23102" lon="0.81928">
        <ele>1260.4</ele>
        <time>2023-07-23T08:30:42Z</time>
      </trkpt>
      <trkpt lat="42.23104" lon="0.81924">
        <ele>1260.6</ele>
        <time>2023-07-23T08:30:43Z</time>
      </trkpt>
      <trkpt lat="42.23106" lon="0.81919">
        <ele>1260.8</ele>
        <time>2023-07-23T08:30:44Z</time>
      </trkpt>
      <trkpt lat="42.23108" lon="0.81913">
        <ele>1261.2</ele>
        <time>2023-07-23T08:30:45Z</time>
      </trkpt>
      <trkpt lat="42.23111" lon="0.81904">
        <ele>1261.4</ele>
        <time>2023-07-23T08:30:46Z</time>
      </trkpt>
      <trkpt lat="42.23113" lon="0.81899">
        <ele>1261.6</ele>
        <time>2023-07-23T08:30:47Z</time>
      </trkpt>
      <trkpt lat="42.23115" lon="0.81894">
        <ele>1262.4</ele>
        <time>2023-07-23T08:30:48Z</time>
      </trkpt>
      <trkpt lat="42.23115" lon="0.81894">
        <ele>1262.6</ele>
        <time>2023-07-23T08:30:49Z</time>
      </trkpt>
      <trkpt lat="42.23121" lon="0.81889">
        <ele>1263</ele>
        <time>2023-07-23T08:30:50Z</time>
      </trkpt>
      <trkpt lat="42.23125" lon="0.81886">
        <ele>1263</ele>
        <time>2023-07-23T08:30:51Z</time>
      </trkpt>
      <trkpt lat="42.23128" lon="0.81884">
        <ele>1263.4</ele>
        <time>2023-07-23T08:30:52Z</time>
      </trkpt>
      <trkpt lat="42.23131" lon="0.81882">
        <ele>1263.6</ele>
        <time>2023-07-23T08:30:53Z</time>
      </trkpt>
      <trkpt lat="42.23133" lon="0.81879">
        <ele>1264</ele>
        <time>2023-07-23T08:30:54Z</time>
      </trkpt>
      <trkpt lat="42.23136" lon="0.81878">
        <ele>1264.8</ele>
        <time>2023-07-23T08:30:55Z</time>
      </trkpt>
      <trkpt lat="42.23138" lon="0.81877">
        <ele>1265.2</ele>
        <time>2023-07-23T08:30:56Z</time>
      </trkpt>
      <trkpt lat="42.23142" lon="0.81873">
        <ele>1265.6</ele>
        <time>2023-07-23T08:30:57Z</time>
      </trkpt>
      <trkpt lat="42.23144" lon="0.81869">
        <ele>1266</ele>
        <time>2023-07-23T08:30:58Z</time>
      </trkpt>
      <trkpt lat="42.23146" lon="0.81867">
        <ele>1266.4</ele>
        <time>2023-07-23T08:30:59Z</time>
      </trkpt>
      <trkpt lat="42.23148" lon="0.81863">
        <ele>1266.6</ele>
        <time>2023-07-23T08:31:00Z</time>
      </trkpt>
      <trkpt lat="42.23151" lon="0.81859">
        <ele>1266.8</ele>
        <time>2023-07-23T08:31:01Z</time>
      </trkpt>
      <trkpt lat="42.23153" lon="0.81855">
        <ele>1267</ele>
        <time>2023-07-23T08:31:02Z</time>
      </trkpt>
      <trkpt lat="42.23154" lon="0.81851">
        <ele>1267.4</ele>
        <time>2023-07-23T08:31:03Z</time>
      </trkpt>
      <trkpt lat="42.23157" lon="0.81848">
        <ele>1267.8</ele>
        <time>2023-07-23T08:31:04Z</time>
      </trkpt>
      <trkpt lat="42.23159" lon="0.81843">
        <ele>1268.2</ele>
        <time>2023-07-23T08:31:05Z</time>
      </trkpt>
      <trkpt lat="42.23162" lon="0.8184">
        <ele>1268.8</ele>
        <time>2023-07-23T08:31:06Z</time>
      </trkpt>
      <trkpt lat="42.23164" lon="0.81836">
        <ele>1269.2</ele>
        <time>2023-07-23T08:31:07Z</time>
      </trkpt>
      <trkpt lat="42.23165" lon="0.81832">
        <ele>1269.4</ele>
        <time>2023-07-23T08:31:08Z</time>
      </trkpt>
      <trkpt lat="42.23167" lon="0.81829">
        <ele>1269.8</ele>
        <time>2023-07-23T08:31:09Z</time>
      </trkpt>
      <trkpt lat="42.23169" lon="0.81826">
        <ele>1269.6</ele>
        <time>2023-07-23T08:31:10Z</time>
      </trkpt>
      <trkpt lat="42.23171" lon="0.81822">
        <ele>1270</ele>
        <time>2023-07-23T08:31:11Z</time>
      </trkpt>
      <trkpt lat="42.23173" lon="0.81817">
        <ele>1270.6</ele>
        <time>2023-07-23T08:31:12Z</time>
      </trkpt>
      <trkpt lat="42.23175" lon="0.81814">
        <ele>1270.8</ele>
        <time>2023-07-23T08:31:13Z</time>
      </trkpt>
      <trkpt lat="42.23177" lon="0.81809">
        <ele>1271.2</ele>
        <time>2023-07-23T08:31:14Z</time>
      </trkpt>
      <trkpt lat="42.23179" lon="0.81806">
        <ele>1271.4</ele>
        <time>2023-07-23T08:31:15Z</time>
      </trkpt>
      <trkpt lat="42.23181" lon="0.81802">
        <ele>1272</ele>
        <time>2023-07-23T08:31:16Z</time>
      </trkpt>
      <trkpt lat="42.23183" lon="0.81799">
        <ele>1272.2</ele>
        <time>2023-07-23T08:31:17Z</time>
      </trkpt>
      <trkpt lat="42.23184" lon="0.81795">
        <ele>1272.6</ele>
        <time>2023-07-23T08:31:18Z</time>
      </trkpt>
      <trkpt lat="42.23185" lon="0.8179">
        <ele>1273.4</ele>
        <time>2023-07-23T08:31:19Z</time>
      </trkpt>
      <trkpt lat="42.23187" lon="0.81785">
        <ele>1273.6</ele>
        <time>2023-07-23T08:31:20Z</time>
      </trkpt>
      <trkpt lat="42.23188" lon="0.8178">
        <ele>1274</ele>
        <time>2023-07-23T08:31:21Z</time>
      </trkpt>
      <trkpt lat="42.2319" lon="0.81775">
        <ele>1274.2</ele>
        <time>2023-07-23T08:31:22Z</time>
      </trkpt>
      <trkpt lat="42.23191" lon="0.8177">
        <ele>1274.6</ele>
        <time>2023-07-23T08:31:23Z</time>
      </trkpt>
      <trkpt lat="42.23193" lon="0.81766">
        <ele>1275.4</ele>
        <time>2023-07-23T08:31:24Z</time>
      </trkpt>
      <trkpt lat="42.23194" lon="0.81761">
        <ele>1275.4</ele>
        <time>2023-07-23T08:31:25Z</time>
      </trkpt>
      <trkpt lat="42.23195" lon="0.81757">
        <ele>1276</ele>
        <time>2023-07-23T08:31:26Z</time>
      </trkpt>
      <trkpt lat="42.23196" lon="0.81753">
        <ele>1276</ele>
        <time>2023-07-23T08:31:27Z</time>
      </trkpt>
      <trkpt lat="42.23198" lon="0.81748">
        <ele>1276.4</ele>
        <time>2023-07-23T08:31:28Z</time>
      </trkpt>
      <trkpt lat="42.23199" lon="0.81743">
        <ele>1276.8</ele>
        <time>2023-07-23T08:31:29Z</time>
      </trkpt>
      <trkpt lat="42.232" lon="0.81738">
        <ele>1277.2</ele>
        <time>2023-07-23T08:31:30Z</time>
      </trkpt>
      <trkpt lat="42.23201" lon="0.81733">
        <ele>1277.4</ele>
        <time>2023-07-23T08:31:31Z</time>
      </trkpt>
      <trkpt lat="42.23202" lon="0.81728">
        <ele>1278</ele>
        <time>2023-07-23T08:31:32Z</time>
      </trkpt>
      <trkpt lat="42.23204" lon="0.81724">
        <ele>1278.4</ele>
        <time>2023-07-23T08:31:33Z</time>
      </trkpt>
      <trkpt lat="42.23207" lon="0.81722">
        <ele>1278.8</ele>
        <time>2023-07-23T08:31:34Z</time>
      </trkpt>
      <trkpt lat="42.2321" lon="0.81721">
        <ele>1279</ele>
        <time>2023-07-23T08:31:35Z</time>
      </trkpt>
      <trkpt lat="42.23213" lon="0.81722">
        <ele>1279.2</ele>
        <time>2023-07-23T08:31:36Z</time>
      </trkpt>
      <trkpt lat="42.23216" lon="0.81724">
        <ele>1279.4</ele>
        <time>2023-07-23T08:31:37Z</time>
      </trkpt>
      <trkpt lat="42.23219" lon="0.81726">
        <ele>1279.4</ele>
        <time>2023-07-23T08:31:38Z</time>
      </trkpt>
      <trkpt lat="42.23222" lon="0.81728">
        <ele>1279.6</ele>
        <time>2023-07-23T08:31:39Z</time>
      </trkpt>
      <trkpt lat="42.23226" lon="0.81729">
        <ele>1279.6</ele>
        <time>2023-07-23T08:31:40Z</time>
      </trkpt>
      <trkpt lat="42.23229" lon="0.8173">
        <ele>1279.6</ele>
        <time>2023-07-23T08:31:41Z</time>
      </trkpt>
      <trkpt lat="42.23233" lon="0.81729">
        <ele>1279.6</ele>
        <time>2023-07-23T08:31:42Z</time>
      </trkpt>
      <trkpt lat="42.23237" lon="0.81727">
        <ele>1280.2</ele>
        <time>2023-07-23T08:31:43Z</time>
      </trkpt>
      <trkpt lat="42.23241" lon="0.81726">
        <ele>1280.2</ele>
        <time>2023-07-23T08:31:44Z</time>
      </trkpt>
      <trkpt lat="42.23244" lon="0.81724">
        <ele>1280.8</ele>
        <time>2023-07-23T08:31:45Z</time>
      </trkpt>
      <trkpt lat="42.23247" lon="0.81722">
        <ele>1281</ele>
        <time>2023-07-23T08:31:46Z</time>
      </trkpt>
      <trkpt lat="42.2325" lon="0.81719">
        <ele>1281.4</ele>
        <time>2023-07-23T08:31:47Z</time>
      </trkpt>
      <trkpt lat="42.23253" lon="0.81717">
        <ele>1281.8</ele>
        <time>2023-07-23T08:31:48Z</time>
      </trkpt>
      <trkpt lat="42.23256" lon="0.81715">
        <ele>1282.2</ele>
        <time>2023-07-23T08:31:49Z</time>
      </trkpt>
      <trkpt lat="42.23258" lon="0.81712">
        <ele>1282.6</ele>
        <time>2023-07-23T08:31:50Z</time>
      </trkpt>
      <trkpt lat="42.23261" lon="0.8171">
        <ele>1282.8</ele>
        <time>2023-07-23T08:31:51Z</time>
      </trkpt>
      <trkpt lat="42.23263" lon="0.81708">
        <ele>1283.2</ele>
        <time>2023-07-23T08:31:52Z</time>
      </trkpt>
      <trkpt lat="42.23265" lon="0.81705">
        <ele>1283.8</ele>
        <time>2023-07-23T08:31:53Z</time>
      </trkpt>
      <trkpt lat="42.23267" lon="0.81702">
        <ele>1284.4</ele>
        <time>2023-07-23T08:31:54Z</time>
      </trkpt>
      <trkpt lat="42.23268" lon="0.81698">
        <ele>1284.6</ele>
        <time>2023-07-23T08:31:55Z</time>
      </trkpt>
      <trkpt lat="42.2327" lon="0.81695">
        <ele>1285</ele>
        <time>2023-07-23T08:31:56Z</time>
      </trkpt>
      <trkpt lat="42.23272" lon="0.8169">
        <ele>1285.8</ele>
        <time>2023-07-23T08:31:57Z</time>
      </trkpt>
      <trkpt lat="42.23274" lon="0.81686">
        <ele>1286.2</ele>
        <time>2023-07-23T08:31:58Z</time>
      </trkpt>
      <trkpt lat="42.23276" lon="0.81683">
        <ele>1286.6</ele>
        <time>2023-07-23T08:31:59Z</time>
      </trkpt>
      <trkpt lat="42.23279" lon="0.8168">
        <ele>1286.6</ele>
        <time>2023-07-23T08:32:00Z</time>
      </trkpt>
      <trkpt lat="42.23283" lon="0.81678">
        <ele>1287</ele>
        <time>2023-07-23T08:32:01Z</time>
      </trkpt>
      <trkpt lat="42.23286" lon="0.81677">
        <ele>1287.4</ele>
        <time>2023-07-23T08:32:02Z</time>
      </trkpt>
      <trkpt lat="42.23289" lon="0.81676">
        <ele>1287.6</ele>
        <time>2023-07-23T08:32:03Z</time>
      </trkpt>
      <trkpt lat="42.23292" lon="0.81674">
        <ele>1288</ele>
        <time>2023-07-23T08:32:04Z</time>
      </trkpt>
      <trkpt lat="42.23295" lon="0.81672">
        <ele>1288.2</ele>
        <time>2023-07-23T08:32:05Z</time>
      </trkpt>
      <trkpt lat="42.23298" lon="0.8167">
        <ele>1288.4</ele>
        <time>2023-07-23T08:32:06Z</time>
      </trkpt>
      <trkpt lat="42.23301" lon="0.81668">
        <ele>1288.6</ele>
        <time>2023-07-23T08:32:07Z</time>
      </trkpt>
      <trkpt lat="42.23304" lon="0.81666">
        <ele>1288.8</ele>
        <time>2023-07-23T08:32:08Z</time>
      </trkpt>
      <trkpt lat="42.23308" lon="0.81664">
        <ele>1289.2</ele>
        <time>2023-07-23T08:32:09Z</time>
      </trkpt>
      <trkpt lat="42.23311" lon="0.81662">
        <ele>1289.4</ele>
        <time>2023-07-23T08:32:10Z</time>
      </trkpt>
      <trkpt lat="42.23314" lon="0.8166">
        <ele>1290</ele>
        <time>2023-07-23T08:32:11Z</time>
      </trkpt>
      <trkpt lat="42.23317" lon="0.81657">
        <ele>1290.4</ele>
        <time>2023-07-23T08:32:12Z</time>
      </trkpt>
      <trkpt lat="42.2332" lon="0.81654">
        <ele>1290.8</ele>
        <time>2023-07-23T08:32:13Z</time>
      </trkpt>
      <trkpt lat="42.23322" lon="0.81651">
        <ele>1291</ele>
        <time>2023-07-23T08:32:14Z</time>
      </trkpt>
      <trkpt lat="42.23325" lon="0.81648">
        <ele>1291.6</ele>
        <time>2023-07-23T08:32:15Z</time>
      </trkpt>
      <trkpt lat="42.23327" lon="0.81644">
        <ele>1292.2</ele>
        <time>2023-07-23T08:32:16Z</time>
      </trkpt>
      <trkpt lat="42.2333" lon="0.81641">
        <ele>1292.4</ele>
        <time>2023-07-23T08:32:17Z</time>
      </trkpt>
      <trkpt lat="42.23333" lon="0.81638">
        <ele>1292.6</ele>
        <time>2023-07-23T08:32:18Z</time>
      </trkpt>
      <trkpt lat="42.23336" lon="0.81636">
        <ele>1292.6</ele>
        <time>2023-07-23T08:32:19Z</time>
      </trkpt>
      <trkpt lat="42.2334" lon="0.81635">
        <ele>1292.8</ele>
        <time>2023-07-23T08:32:20Z</time>
      </trkpt>
      <trkpt lat="42.23343" lon="0.81635">
        <ele>1293</ele>
        <time>2023-07-23T08:32:21Z</time>
      </trkpt>
      <trkpt lat="42.23347" lon="0.81636">
        <ele>1293</ele>
        <time>2023-07-23T08:32:22Z</time>
      </trkpt>
      <trkpt lat="42.2335" lon="0.81638">
        <ele>1293.2</ele>
        <time>2023-07-23T08:32:23Z</time>
      </trkpt>
      <trkpt lat="42.23353" lon="0.8164">
        <ele>1293.4</ele>
        <time>2023-07-23T08:32:24Z</time>
      </trkpt>
      <trkpt lat="42.23356" lon="0.81643">
        <ele>1293.8</ele>
        <time>2023-07-23T08:32:25Z</time>
      </trkpt>
      <trkpt lat="42.23359" lon="0.81647">
        <ele>1294</ele>
        <time>2023-07-23T08:32:26Z</time>
      </trkpt>
      <trkpt lat="42.23362" lon="0.8165">
        <ele>1294.6</ele>
        <time>2023-07-23T08:32:27Z</time>
      </trkpt>
      <trkpt lat="42.23364" lon="0.81653">
        <ele>1295</ele>
        <time>2023-07-23T08:32:28Z</time>
      </trkpt>
      <trkpt lat="42.23367" lon="0.81656">
        <ele>1295.2</ele>
        <time>2023-07-23T08:32:29Z</time>
      </trkpt>
      <trkpt lat="42.2337" lon="0.81658">
        <ele>1296</ele>
        <time>2023-07-23T08:32:30Z</time>
      </trkpt>
      <trkpt lat="42.23373" lon="0.8166">
        <ele>1296.2</ele>
        <time>2023-07-23T08:32:31Z</time>
      </trkpt>
      <trkpt lat="42.23376" lon="0.81662">
        <ele>1296.6</ele>
        <time>2023-07-23T08:32:32Z</time>
      </trkpt>
      <trkpt lat="42.23378" lon="0.81664">
        <ele>1297</ele>
        <time>2023-07-23T08:32:33Z</time>
      </trkpt>
      <trkpt lat="42.23381" lon="0.81665">
        <ele>1297.4</ele>
        <time>2023-07-23T08:32:34Z</time>
      </trkpt>
      <trkpt lat="42.23384" lon="0.81667">
        <ele>1298</ele>
        <time>2023-07-23T08:32:35Z</time>
      </trkpt>
      <trkpt lat="42.23387" lon="0.81668">
        <ele>1298.2</ele>
        <time>2023-07-23T08:32:36Z</time>
      </trkpt>
      <trkpt lat="42.2339" lon="0.8167">
        <ele>1298.4</ele>
        <time>2023-07-23T08:32:37Z</time>
      </trkpt>
      <trkpt lat="42.23392" lon="0.81671">
        <ele>1298.6</ele>
        <time>2023-07-23T08:32:38Z</time>
      </trkpt>
      <trkpt lat="42.23395" lon="0.81673">
        <ele>1298.8</ele>
        <time>2023-07-23T08:32:39Z</time>
      </trkpt>
      <trkpt lat="42.23397" lon="0.81674">
        <ele>1299</ele>
        <time>2023-07-23T08:32:40Z</time>
      </trkpt>
      <trkpt lat="42.234" lon="0.81675">
        <ele>1299.4</ele>
        <time>2023-07-23T08:32:41Z</time>
      </trkpt>
      <trkpt lat="42.23402" lon="0.81677">
        <ele>1299.8</ele>
        <time>2023-07-23T08:32:42Z</time>
      </trkpt>
      <trkpt lat="42.23404" lon="0.81678">
        <ele>1300</ele>
        <time>2023-07-23T08:32:43Z</time>
      </trkpt>
      <trkpt lat="42.23406" lon="0.81678">
        <ele>1300.4</ele>
        <time>2023-07-23T08:32:44Z</time>
      </trkpt>
      <trkpt lat="42.23409" lon="0.81679">
        <ele>1300.4</ele>
        <time>2023-07-23T08:32:45Z</time>
      </trkpt>
      <trkpt lat="42.2341" lon="0.8168">
        <ele>1301.2</ele>
        <time>2023-07-23T08:32:46Z</time>
      </trkpt>
      <trkpt lat="42.23412" lon="0.81681">
        <ele>1302</ele>
        <time>2023-07-23T08:32:47Z</time>
      </trkpt>
      <trkpt lat="42.23414" lon="0.81682">
        <ele>1302</ele>
        <time>2023-07-23T08:32:48Z</time>
      </trkpt>
      <trkpt lat="42.23416" lon="0.81683">
        <ele>1302.6</ele>
        <time>2023-07-23T08:32:49Z</time>
      </trkpt>
      <trkpt lat="42.23418" lon="0.81684">
        <ele>1302.6</ele>
        <time>2023-07-23T08:32:50Z</time>
      </trkpt>
      <trkpt lat="42.23421" lon="0.81684">
        <ele>1303.2</ele>
        <time>2023-07-23T08:32:51Z</time>
      </trkpt>
      <trkpt lat="42.23423" lon="0.81685">
        <ele>1303.8</ele>
        <time>2023-07-23T08:32:52Z</time>
      </trkpt>
      <trkpt lat="42.23425" lon="0.81686">
        <ele>1304.4</ele>
        <time>2023-07-23T08:32:53Z</time>
      </trkpt>
      <trkpt lat="42.23427" lon="0.81686">
        <ele>1305</ele>
        <time>2023-07-23T08:32:54Z</time>
      </trkpt>
      <trkpt lat="42.23429" lon="0.81687">
        <ele>1305.4</ele>
        <time>2023-07-23T08:32:55Z</time>
      </trkpt>
      <trkpt lat="42.23431" lon="0.81687">
        <ele>1306</ele>
        <time>2023-07-23T08:32:56Z</time>
      </trkpt>
      <trkpt lat="42.23433" lon="0.81687">
        <ele>1306.2</ele>
        <time>2023-07-23T08:32:57Z</time>
      </trkpt>
      <trkpt lat="42.23435" lon="0.81688">
        <ele>1306.6</ele>
        <time>2023-07-23T08:32:58Z</time>
      </trkpt>
      <trkpt lat="42.23437" lon="0.81688">
        <ele>1307.2</ele>
        <time>2023-07-23T08:32:59Z</time>
      </trkpt>
      <trkpt lat="42.2344" lon="0.81688">
        <ele>1307.4</ele>
        <time>2023-07-23T08:33:00Z</time>
      </trkpt>
      <trkpt lat="42.23442" lon="0.81688">
        <ele>1307.8</ele>
        <time>2023-07-23T08:33:01Z</time>
      </trkpt>
      <trkpt lat="42.23444" lon="0.81689">
        <ele>1308</ele>
        <time>2023-07-23T08:33:02Z</time>
      </trkpt>
      <trkpt lat="42.23446" lon="0.8169">
        <ele>1308.8</ele>
        <time>2023-07-23T08:33:03Z</time>
      </trkpt>
      <trkpt lat="42.23448" lon="0.81691">
        <ele>1309</ele>
        <time>2023-07-23T08:33:04Z</time>
      </trkpt>
      <trkpt lat="42.2345" lon="0.81693">
        <ele>1309.4</ele>
        <time>2023-07-23T08:33:05Z</time>
      </trkpt>
      <trkpt lat="42.23452" lon="0.81695">
        <ele>1309.8</ele>
        <time>2023-07-23T08:33:06Z</time>
      </trkpt>
      <trkpt lat="42.23454" lon="0.81697">
        <ele>1310</ele>
        <time>2023-07-23T08:33:07Z</time>
      </trkpt>
      <trkpt lat="42.23456" lon="0.81699">
        <ele>1310.4</ele>
        <time>2023-07-23T08:33:08Z</time>
      </trkpt>
      <trkpt lat="42.23458" lon="0.81701">
        <ele>1310.6</ele>
        <time>2023-07-23T08:33:09Z</time>
      </trkpt>
      <trkpt lat="42.23459" lon="0.81702">
        <ele>1311.4</ele>
        <time>2023-07-23T08:33:10Z</time>
      </trkpt>
      <trkpt lat="42.23461" lon="0.81704">
        <ele>1311.8</ele>
        <time>2023-07-23T08:33:11Z</time>
      </trkpt>
      <trkpt lat="42.23463" lon="0.81706">
        <ele>1312</ele>
        <time>2023-07-23T08:33:12Z</time>
      </trkpt>
      <trkpt lat="42.23465" lon="0.81707">
        <ele>1312.4</ele>
        <time>2023-07-23T08:33:13Z</time>
      </trkpt>
      <trkpt lat="42.23467" lon="0.81708">
        <ele>1312.4</ele>
        <time>2023-07-23T08:33:14Z</time>
      </trkpt>
      <trkpt lat="42.23469" lon="0.81709">
        <ele>1313.2</ele>
        <time>2023-07-23T08:33:15Z</time>
      </trkpt>
      <trkpt lat="42.23471" lon="0.81711">
        <ele>1313.6</ele>
        <time>2023-07-23T08:33:16Z</time>
      </trkpt>
      <trkpt lat="42.23473" lon="0.81712">
        <ele>1314.2</ele>
        <time>2023-07-23T08:33:17Z</time>
      </trkpt>
      <trkpt lat="42.23475" lon="0.81715">
        <ele>1314.4</ele>
        <time>2023-07-23T08:33:18Z</time>
      </trkpt>
      <trkpt lat="42.23476" lon="0.81717">
        <ele>1314.6</ele>
        <time>2023-07-23T08:33:19Z</time>
      </trkpt>
      <trkpt lat="42.23478" lon="0.81719">
        <ele>1314.8</ele>
        <time>2023-07-23T08:33:20Z</time>
      </trkpt>
      <trkpt lat="42.23479" lon="0.81721">
        <ele>1314.8</ele>
        <time>2023-07-23T08:33:21Z</time>
      </trkpt>
      <trkpt lat="42.23481" lon="0.81723">
        <ele>1315.2</ele>
        <time>2023-07-23T08:33:22Z</time>
      </trkpt>
      <trkpt lat="42.23483" lon="0.81725">
        <ele>1315.4</ele>
        <time>2023-07-23T08:33:23Z</time>
      </trkpt>
      <trkpt lat="42.23485" lon="0.81727">
        <ele>1315.8</ele>
        <time>2023-07-23T08:33:24Z</time>
      </trkpt>
      <trkpt lat="42.23487" lon="0.81728">
        <ele>1316.2</ele>
        <time>2023-07-23T08:33:25Z</time>
      </trkpt>
      <trkpt lat="42.2349" lon="0.8173">
        <ele>1316.4</ele>
        <time>2023-07-23T08:33:26Z</time>
      </trkpt>
      <trkpt lat="42.23492" lon="0.81731">
        <ele>1316.6</ele>
        <time>2023-07-23T08:33:27Z</time>
      </trkpt>
      <trkpt lat="42.23494" lon="0.81731">
        <ele>1316.8</ele>
        <time>2023-07-23T08:33:28Z</time>
      </trkpt>
      <trkpt lat="42.23497" lon="0.81733">
        <ele>1317</ele>
        <time>2023-07-23T08:33:29Z</time>
      </trkpt>
      <trkpt lat="42.23498" lon="0.81735">
        <ele>1317.2</ele>
        <time>2023-07-23T08:33:30Z</time>
      </trkpt>
      <trkpt lat="42.235" lon="0.81736">
        <ele>1317.6</ele>
        <time>2023-07-23T08:33:31Z</time>
      </trkpt>
      <trkpt lat="42.23502" lon="0.81738">
        <ele>1318</ele>
        <time>2023-07-23T08:33:32Z</time>
      </trkpt>
      <trkpt lat="42.23503" lon="0.81739">
        <ele>1318.4</ele>
        <time>2023-07-23T08:33:33Z</time>
      </trkpt>
      <trkpt lat="42.23505" lon="0.8174">
        <ele>1318.8</ele>
        <time>2023-07-23T08:33:34Z</time>
      </trkpt>
      <trkpt lat="42.23506" lon="0.81742">
        <ele>1318.8</ele>
        <time>2023-07-23T08:33:35Z</time>
      </trkpt>
      <trkpt lat="42.23508" lon="0.81743">
        <ele>1319</ele>
        <time>2023-07-23T08:33:36Z</time>
      </trkpt>
      <trkpt lat="42.2351" lon="0.81744">
        <ele>1319.8</ele>
        <time>2023-07-23T08:33:37Z</time>
      </trkpt>
      <trkpt lat="42.23511" lon="0.81746">
        <ele>1320.2</ele>
        <time>2023-07-23T08:33:38Z</time>
      </trkpt>
      <trkpt lat="42.23513" lon="0.81747">
        <ele>1320.8</ele>
        <time>2023-07-23T08:33:39Z</time>
      </trkpt>
      <trkpt lat="42.23515" lon="0.81748">
        <ele>1321</ele>
        <time>2023-07-23T08:33:40Z</time>
      </trkpt>
      <trkpt lat="42.23517" lon="0.8175">
        <ele>1321.6</ele>
        <time>2023-07-23T08:33:41Z</time>
      </trkpt>
      <trkpt lat="42.23518" lon="0.81751">
        <ele>1322.2</ele>
        <time>2023-07-23T08:33:42Z</time>
      </trkpt>
      <trkpt lat="42.2352" lon="0.81753">
        <ele>1322.6</ele>
        <time>2023-07-23T08:33:43Z</time>
      </trkpt>
      <trkpt lat="42.23522" lon="0.81753">
        <ele>1323</ele>
        <time>2023-07-23T08:33:44Z</time>
      </trkpt>
      <trkpt lat="42.23524" lon="0.81754">
        <ele>1323.2</ele>
        <time>2023-07-23T08:33:45Z</time>
      </trkpt>
      <trkpt lat="42.23526" lon="0.81754">
        <ele>1323.8</ele>
        <time>2023-07-23T08:33:46Z</time>
      </trkpt>
      <trkpt lat="42.23528" lon="0.81756">
        <ele>1324</ele>
        <time>2023-07-23T08:33:47Z</time>
      </trkpt>
      <trkpt lat="42.2353" lon="0.81757">
        <ele>1324.6</ele>
        <time>2023-07-23T08:33:48Z</time>
      </trkpt>
      <trkpt lat="42.23531" lon="0.81759">
        <ele>1325</ele>
        <time>2023-07-23T08:33:49Z</time>
      </trkpt>
      <trkpt lat="42.23532" lon="0.81761">
        <ele>1325.2</ele>
        <time>2023-07-23T08:33:50Z</time>
      </trkpt>
      <trkpt lat="42.23534" lon="0.81763">
        <ele>1325.8</ele>
        <time>2023-07-23T08:33:51Z</time>
      </trkpt>
      <trkpt lat="42.23535" lon="0.81766">
        <ele>1326</ele>
        <time>2023-07-23T08:33:52Z</time>
      </trkpt>
      <trkpt lat="42.23536" lon="0.81768">
        <ele>1326.4</ele>
        <time>2023-07-23T08:33:53Z</time>
      </trkpt>
      <trkpt lat="42.23537" lon="0.81771">
        <ele>1326.8</ele>
        <time>2023-07-23T08:33:54Z</time>
      </trkpt>
      <trkpt lat="42.23538" lon="0.81773">
        <ele>1327.6</ele>
        <time>2023-07-23T08:33:55Z</time>
      </trkpt>
      <trkpt lat="42.23539" lon="0.81776">
        <ele>1328.2</ele>
        <time>2023-07-23T08:33:56Z</time>
      </trkpt>
      <trkpt lat="42.2354" lon="0.81778">
        <ele>1328.4</ele>
        <time>2023-07-23T08:33:57Z</time>
      </trkpt>
      <trkpt lat="42.23541" lon="0.81781">
        <ele>1328.4</ele>
        <time>2023-07-23T08:33:58Z</time>
      </trkpt>
      <trkpt lat="42.23542" lon="0.81784">
        <ele>1328.8</ele>
        <time>2023-07-23T08:33:59Z</time>
      </trkpt>
      <trkpt lat="42.23543" lon="0.81786">
        <ele>1329</ele>
        <time>2023-07-23T08:34:00Z</time>
      </trkpt>
      <trkpt lat="42.23544" lon="0.81789">
        <ele>1329.4</ele>
        <time>2023-07-23T08:34:01Z</time>
      </trkpt>
      <trkpt lat="42.23545" lon="0.81792">
        <ele>1329.6</ele>
        <time>2023-07-23T08:34:02Z</time>
      </trkpt>
      <trkpt lat="42.23546" lon="0.81795">
        <ele>1330</ele>
        <time>2023-07-23T08:34:03Z</time>
      </trkpt>
      <trkpt lat="42.23547" lon="0.81798">
        <ele>1330</ele>
        <time>2023-07-23T08:34:04Z</time>
      </trkpt>
      <trkpt lat="42.23547" lon="0.81801">
        <ele>1330.6</ele>
        <time>2023-07-23T08:34:05Z</time>
      </trkpt>
      <trkpt lat="42.23548" lon="0.81804">
        <ele>1330.8</ele>
        <time>2023-07-23T08:34:06Z</time>
      </trkpt>
      <trkpt lat="42.23549" lon="0.81807">
        <ele>1331.4</ele>
        <time>2023-07-23T08:34:07Z</time>
      </trkpt>
      <trkpt lat="42.23549" lon="0.8181">
        <ele>1332</ele>
        <time>2023-07-23T08:34:08Z</time>
      </trkpt>
      <trkpt lat="42.23549" lon="0.81813">
        <ele>1332.2</ele>
        <time>2023-07-23T08:34:09Z</time>
      </trkpt>
      <trkpt lat="42.23549" lon="0.81816">
        <ele>1332.6</ele>
        <time>2023-07-23T08:34:10Z</time>
      </trkpt>
      <trkpt lat="42.23549" lon="0.81818">
        <ele>1332.8</ele>
        <time>2023-07-23T08:34:11Z</time>
      </trkpt>
      <trkpt lat="42.23549" lon="0.81822">
        <ele>1333.2</ele>
        <time>2023-07-23T08:34:12Z</time>
      </trkpt>
      <trkpt lat="42.23548" lon="0.81825">
        <ele>1333.4</ele>
        <time>2023-07-23T08:34:13Z</time>
      </trkpt>
      <trkpt lat="42.23548" lon="0.81829">
        <ele>1333.8</ele>
        <time>2023-07-23T08:34:14Z</time>
      </trkpt>
      <trkpt lat="42.23548" lon="0.81832">
        <ele>1334.2</ele>
        <time>2023-07-23T08:34:15Z</time>
      </trkpt>
      <trkpt lat="42.23547" lon="0.81835">
        <ele>1334.4</ele>
        <time>2023-07-23T08:34:16Z</time>
      </trkpt>
      <trkpt lat="42.23547" lon="0.81838">
        <ele>1334.8</ele>
        <time>2023-07-23T08:34:17Z</time>
      </trkpt>
      <trkpt lat="42.23546" lon="0.81842">
        <ele>1335</ele>
        <time>2023-07-23T08:34:18Z</time>
      </trkpt>
      <trkpt lat="42.23546" lon="0.81845">
        <ele>1335.8</ele>
        <time>2023-07-23T08:34:19Z</time>
      </trkpt>
      <trkpt lat="42.23545" lon="0.81849">
        <ele>1336.2</ele>
        <time>2023-07-23T08:34:20Z</time>
      </trkpt>
      <trkpt lat="42.23545" lon="0.81852">
        <ele>1336.4</ele>
        <time>2023-07-23T08:34:21Z</time>
      </trkpt>
      <trkpt lat="42.23545" lon="0.81856">
        <ele>1336.8</ele>
        <time>2023-07-23T08:34:22Z</time>
      </trkpt>
      <trkpt lat="42.23545" lon="0.81859">
        <ele>1337</ele>
        <time>2023-07-23T08:34:23Z</time>
      </trkpt>
      <trkpt lat="42.23544" lon="0.81863">
        <ele>1337.2</ele>
        <time>2023-07-23T08:34:24Z</time>
      </trkpt>
      <trkpt lat="42.23544" lon="0.81867">
        <ele>1337.2</ele>
        <time>2023-07-23T08:34:25Z</time>
      </trkpt>
      <trkpt lat="42.23543" lon="0.8187">
        <ele>1337.4</ele>
        <time>2023-07-23T08:34:26Z</time>
      </trkpt>
      <trkpt lat="42.23542" lon="0.81874">
        <ele>1337.4</ele>
        <time>2023-07-23T08:34:27Z</time>
      </trkpt>
      <trkpt lat="42.23542" lon="0.81877">
        <ele>1337.6</ele>
        <time>2023-07-23T08:34:28Z</time>
      </trkpt>
      <trkpt lat="42.23542" lon="0.81881">
        <ele>1337.8</ele>
        <time>2023-07-23T08:34:29Z</time>
      </trkpt>
      <trkpt lat="42.23542" lon="0.81884">
        <ele>1338</ele>
        <time>2023-07-23T08:34:30Z</time>
      </trkpt>
      <trkpt lat="42.23542" lon="0.81887">
        <ele>1338.4</ele>
        <time>2023-07-23T08:34:31Z</time>
      </trkpt>
      <trkpt lat="42.23541" lon="0.81891">
        <ele>1338.8</ele>
        <time>2023-07-23T08:34:32Z</time>
      </trkpt>
      <trkpt lat="42.23541" lon="0.81894">
        <ele>1338.8</ele>
        <time>2023-07-23T08:34:33Z</time>
      </trkpt>
      <trkpt lat="42.2354" lon="0.81897">
        <ele>1339</ele>
        <time>2023-07-23T08:34:34Z</time>
      </trkpt>
      <trkpt lat="42.2354" lon="0.819">
        <ele>1339.2</ele>
        <time>2023-07-23T08:34:35Z</time>
      </trkpt>
      <trkpt lat="42.23538" lon="0.81903">
        <ele>1339.4</ele>
        <time>2023-07-23T08:34:36Z</time>
      </trkpt>
      <trkpt lat="42.23538" lon="0.81906">
        <ele>1339.4</ele>
        <time>2023-07-23T08:34:37Z</time>
      </trkpt>
      <trkpt lat="42.23537" lon="0.81909">
        <ele>1340</ele>
        <time>2023-07-23T08:34:38Z</time>
      </trkpt>
      <trkpt lat="42.23536" lon="0.81912">
        <ele>1340.4</ele>
        <time>2023-07-23T08:34:39Z</time>
      </trkpt>
      <trkpt lat="42.23535" lon="0.81915">
        <ele>1340.8</ele>
        <time>2023-07-23T08:34:40Z</time>
      </trkpt>
      <trkpt lat="42.23535" lon="0.81917">
        <ele>1341.2</ele>
        <time>2023-07-23T08:34:41Z</time>
      </trkpt>
      <trkpt lat="42.23535" lon="0.8192">
        <ele>1341.6</ele>
        <time>2023-07-23T08:34:42Z</time>
      </trkpt>
      <trkpt lat="42.23535" lon="0.81923">
        <ele>1342.2</ele>
        <time>2023-07-23T08:34:43Z</time>
      </trkpt>
      <trkpt lat="42.23535" lon="0.81926">
        <ele>1342.2</ele>
        <time>2023-07-23T08:34:44Z</time>
      </trkpt>
      <trkpt lat="42.23534" lon="0.81929">
        <ele>1342.8</ele>
        <time>2023-07-23T08:34:45Z</time>
      </trkpt>
      <trkpt lat="42.23534" lon="0.81932">
        <ele>1343.4</ele>
        <time>2023-07-23T08:34:46Z</time>
      </trkpt>
      <trkpt lat="42.23533" lon="0.81935">
        <ele>1343.6</ele>
        <time>2023-07-23T08:34:47Z</time>
      </trkpt>
      <trkpt lat="42.23533" lon="0.81938">
        <ele>1344.4</ele>
        <time>2023-07-23T08:34:48Z</time>
      </trkpt>
      <trkpt lat="42.23532" lon="0.81941">
        <ele>1344.8</ele>
        <time>2023-07-23T08:34:49Z</time>
      </trkpt>
      <trkpt lat="42.23531" lon="0.81943">
        <ele>1345.4</ele>
        <time>2023-07-23T08:34:50Z</time>
      </trkpt>
      <trkpt lat="42.23531" lon="0.81946">
        <ele>1346</ele>
        <time>2023-07-23T08:34:51Z</time>
      </trkpt>
      <trkpt lat="42.2353" lon="0.81949">
        <ele>1346</ele>
        <time>2023-07-23T08:34:52Z</time>
      </trkpt>
      <trkpt lat="42.2353" lon="0.81951">
        <ele>1346.4</ele>
        <time>2023-07-23T08:34:53Z</time>
      </trkpt>
      <trkpt lat="42.23529" lon="0.81954">
        <ele>1346.6</ele>
        <time>2023-07-23T08:34:54Z</time>
      </trkpt>
      <trkpt lat="42.23529" lon="0.81956">
        <ele>1347.6</ele>
        <time>2023-07-23T08:34:55Z</time>
      </trkpt>
      <trkpt lat="42.23528" lon="0.81959">
        <ele>1348</ele>
        <time>2023-07-23T08:34:56Z</time>
      </trkpt>
      <trkpt lat="42.23527" lon="0.81961">
        <ele>1348.6</ele>
        <time>2023-07-23T08:34:57Z</time>
      </trkpt>
      <trkpt lat="42.23527" lon="0.81964">
        <ele>1349.2</ele>
        <time>2023-07-23T08:34:58Z</time>
      </trkpt>
      <trkpt lat="42.23526" lon="0.81967">
        <ele>1349.4</ele>
        <time>2023-07-23T08:34:59Z</time>
      </trkpt>
      <trkpt lat="42.23525" lon="0.8197">
        <ele>1349.8</ele>
        <time>2023-07-23T08:35:00Z</time>
      </trkpt>
      <trkpt lat="42.23525" lon="0.81973">
        <ele>1349.8</ele>
        <time>2023-07-23T08:35:01Z</time>
      </trkpt>
      <trkpt lat="42.23524" lon="0.81975">
        <ele>1350.4</ele>
        <time>2023-07-23T08:35:02Z</time>
      </trkpt>
      <trkpt lat="42.23524" lon="0.81975">
        <ele>1350.6</ele>
        <time>2023-07-23T08:35:03Z</time>
      </trkpt>
      <trkpt lat="42.23524" lon="0.81981">
        <ele>1351</ele>
        <time>2023-07-23T08:35:04Z</time>
      </trkpt>
      <trkpt lat="42.23523" lon="0.81985">
        <ele>1351.6</ele>
        <time>2023-07-23T08:35:05Z</time>
      </trkpt>
      <trkpt lat="42.23523" lon="0.81988">
        <ele>1351.8</ele>
        <time>2023-07-23T08:35:06Z</time>
      </trkpt>
      <trkpt lat="42.23523" lon="0.81991">
        <ele>1352.4</ele>
        <time>2023-07-23T08:35:07Z</time>
      </trkpt>
      <trkpt lat="42.23523" lon="0.81993">
        <ele>1352.4</ele>
        <time>2023-07-23T08:35:08Z</time>
      </trkpt>
      <trkpt lat="42.23524" lon="0.81996">
        <ele>1352.8</ele>
        <time>2023-07-23T08:35:09Z</time>
      </trkpt>
      <trkpt lat="42.23524" lon="0.82">
        <ele>1353.2</ele>
        <time>2023-07-23T08:35:10Z</time>
      </trkpt>
      <trkpt lat="42.23524" lon="0.82003">
        <ele>1353.4</ele>
        <time>2023-07-23T08:35:11Z</time>
      </trkpt>
      <trkpt lat="42.23525" lon="0.82006">
        <ele>1353.8</ele>
        <time>2023-07-23T08:35:12Z</time>
      </trkpt>
      <trkpt lat="42.23525" lon="0.82008">
        <ele>1354</ele>
        <time>2023-07-23T08:35:13Z</time>
      </trkpt>
      <trkpt lat="42.23526" lon="0.8201">
        <ele>1354.2</ele>
        <time>2023-07-23T08:35:14Z</time>
      </trkpt>
      <trkpt lat="42.23526" lon="0.82013">
        <ele>1354.4</ele>
        <time>2023-07-23T08:35:15Z</time>
      </trkpt>
      <trkpt lat="42.23527" lon="0.82015">
        <ele>1354.6</ele>
        <time>2023-07-23T08:35:16Z</time>
      </trkpt>
      <trkpt lat="42.23527" lon="0.82018">
        <ele>1355</ele>
        <time>2023-07-23T08:35:17Z</time>
      </trkpt>
      <trkpt lat="42.23528" lon="0.8202">
        <ele>1355</ele>
        <time>2023-07-23T08:35:18Z</time>
      </trkpt>
      <trkpt lat="42.2353" lon="0.82023">
        <ele>1355.4</ele>
        <time>2023-07-23T08:35:19Z</time>
      </trkpt>
      <trkpt lat="42.23531" lon="0.82025">
        <ele>1355.6</ele>
        <time>2023-07-23T08:35:20Z</time>
      </trkpt>
      <trkpt lat="42.23533" lon="0.82026">
        <ele>1355.8</ele>
        <time>2023-07-23T08:35:21Z</time>
      </trkpt>
      <trkpt lat="42.23536" lon="0.82027">
        <ele>1356</ele>
        <time>2023-07-23T08:35:22Z</time>
      </trkpt>
      <trkpt lat="42.23538" lon="0.82026">
        <ele>1356</ele>
        <time>2023-07-23T08:35:23Z</time>
      </trkpt>
      <trkpt lat="42.23541" lon="0.82026">
        <ele>1356.2</ele>
        <time>2023-07-23T08:35:24Z</time>
      </trkpt>
      <trkpt lat="42.23544" lon="0.82025">
        <ele>1356.2</ele>
        <time>2023-07-23T08:35:25Z</time>
      </trkpt>
      <trkpt lat="42.23546" lon="0.82024">
        <ele>1356.4</ele>
        <time>2023-07-23T08:35:26Z</time>
      </trkpt>
      <trkpt lat="42.23549" lon="0.82023">
        <ele>1356.4</ele>
        <time>2023-07-23T08:35:27Z</time>
      </trkpt>
      <trkpt lat="42.23552" lon="0.82022">
        <ele>1356.6</ele>
        <time>2023-07-23T08:35:28Z</time>
      </trkpt>
      <trkpt lat="42.23555" lon="0.82021">
        <ele>1356.6</ele>
        <time>2023-07-23T08:35:29Z</time>
      </trkpt>
      <trkpt lat="42.23558" lon="0.8202">
        <ele>1356.6</ele>
        <time>2023-07-23T08:35:30Z</time>
      </trkpt>
      <trkpt lat="42.23561" lon="0.82019">
        <ele>1356.8</ele>
        <time>2023-07-23T08:35:31Z</time>
      </trkpt>
      <trkpt lat="42.23565" lon="0.82018">
        <ele>1357</ele>
        <time>2023-07-23T08:35:32Z</time>
      </trkpt>
      <trkpt lat="42.23568" lon="0.82018">
        <ele>1357</ele>
        <time>2023-07-23T08:35:33Z</time>
      </trkpt>
      <trkpt lat="42.23572" lon="0.82018">
        <ele>1357</ele>
        <time>2023-07-23T08:35:34Z</time>
      </trkpt>
      <trkpt lat="42.23576" lon="0.82019">
        <ele>1356.8</ele>
        <time>2023-07-23T08:35:35Z</time>
      </trkpt>
      <trkpt lat="42.2358" lon="0.8202">
        <ele>1357</ele>
        <time>2023-07-23T08:35:36Z</time>
      </trkpt>
      <trkpt lat="42.23586" lon="0.82021">
        <ele>1357</ele>
        <time>2023-07-23T08:35:37Z</time>
      </trkpt>
      <trkpt lat="42.23589" lon="0.82022">
        <ele>1357</ele>
        <time>2023-07-23T08:35:38Z</time>
      </trkpt>
      <trkpt lat="42.23594" lon="0.82024">
        <ele>1357</ele>
        <time>2023-07-23T08:35:39Z</time>
      </trkpt>
      <trkpt lat="42.23599" lon="0.82027">
        <ele>1356.8</ele>
        <time>2023-07-23T08:35:40Z</time>
      </trkpt>
      <trkpt lat="42.23605" lon="0.82029">
        <ele>1356.8</ele>
        <time>2023-07-23T08:35:41Z</time>
      </trkpt>
      <trkpt lat="42.23611" lon="0.82031">
        <ele>1356.8</ele>
        <time>2023-07-23T08:35:42Z</time>
      </trkpt>
      <trkpt lat="42.23617" lon="0.82034">
        <ele>1356.4</ele>
        <time>2023-07-23T08:35:43Z</time>
      </trkpt>
      <trkpt lat="42.23623" lon="0.82035">
        <ele>1355.8</ele>
        <time>2023-07-23T08:35:44Z</time>
      </trkpt>
      <trkpt lat="42.2363" lon="0.82036">
        <ele>1354.8</ele>
        <time>2023-07-23T08:35:45Z</time>
      </trkpt>
      <trkpt lat="42.23636" lon="0.82036">
        <ele>1354.2</ele>
        <time>2023-07-23T08:35:46Z</time>
      </trkpt>
      <trkpt lat="42.23642" lon="0.82037">
        <ele>1353.2</ele>
        <time>2023-07-23T08:35:47Z</time>
      </trkpt>
      <trkpt lat="42.23649" lon="0.82038">
        <ele>1352.8</ele>
        <time>2023-07-23T08:35:48Z</time>
      </trkpt>
      <trkpt lat="42.23655" lon="0.8204">
        <ele>1352.4</ele>
        <time>2023-07-23T08:35:49Z</time>
      </trkpt>
      <trkpt lat="42.23661" lon="0.82044">
        <ele>1351.8</ele>
        <time>2023-07-23T08:35:50Z</time>
      </trkpt>
      <trkpt lat="42.23665" lon="0.82048">
        <ele>1351.6</ele>
        <time>2023-07-23T08:35:51Z</time>
      </trkpt>
      <trkpt lat="42.23668" lon="0.82051">
        <ele>1351.2</ele>
        <time>2023-07-23T08:35:52Z</time>
      </trkpt>
      <trkpt lat="42.23669" lon="0.82054">
        <ele>1351</ele>
        <time>2023-07-23T08:35:53Z</time>
      </trkpt>
      <trkpt lat="42.23671" lon="0.82058">
        <ele>1351</ele>
        <time>2023-07-23T08:35:54Z</time>
      </trkpt>
      <trkpt lat="42.23671" lon="0.82058">
        <ele>1350.8</ele>
        <time>2023-07-23T08:35:55Z</time>
      </trkpt>
      <trkpt lat="42.23672" lon="0.82065">
        <ele>1350.8</ele>
        <time>2023-07-23T08:35:56Z</time>
      </trkpt>
      <trkpt lat="42.23673" lon="0.82068">
        <ele>1350.8</ele>
        <time>2023-07-23T08:35:57Z</time>
      </trkpt>
      <trkpt lat="42.23674" lon="0.82072">
        <ele>1350.8</ele>
        <time>2023-07-23T08:35:58Z</time>
      </trkpt>
      <trkpt lat="42.23674" lon="0.82075">
        <ele>1351</ele>
        <time>2023-07-23T08:35:59Z</time>
      </trkpt>
      <trkpt lat="42.23676" lon="0.82079">
        <ele>1351.2</ele>
        <time>2023-07-23T08:36:00Z</time>
      </trkpt>
      <trkpt lat="42.23677" lon="0.82082">
        <ele>1351.6</ele>
        <time>2023-07-23T08:36:01Z</time>
      </trkpt>
      <trkpt lat="42.23677" lon="0.82086">
        <ele>1351.8</ele>
        <time>2023-07-23T08:36:02Z</time>
      </trkpt>
      <trkpt lat="42.23678" lon="0.82089">
        <ele>1351.8</ele>
        <time>2023-07-23T08:36:03Z</time>
      </trkpt>
      <trkpt lat="42.23679" lon="0.82092">
        <ele>1352</ele>
        <time>2023-07-23T08:36:04Z</time>
      </trkpt>
      <trkpt lat="42.2368" lon="0.82094">
        <ele>1352.2</ele>
        <time>2023-07-23T08:36:05Z</time>
      </trkpt>
      <trkpt lat="42.2368" lon="0.82097">
        <ele>1352.4</ele>
        <time>2023-07-23T08:36:06Z</time>
      </trkpt>
      <trkpt lat="42.23681" lon="0.82099">
        <ele>1352.6</ele>
        <time>2023-07-23T08:36:07Z</time>
      </trkpt>
      <trkpt lat="42.23682" lon="0.82101">
        <ele>1353.2</ele>
        <time>2023-07-23T08:36:08Z</time>
      </trkpt>
      <trkpt lat="42.23683" lon="0.82104">
        <ele>1354.2</ele>
        <time>2023-07-23T08:36:09Z</time>
      </trkpt>
      <trkpt lat="42.23684" lon="0.82106">
        <ele>1354.8</ele>
        <time>2023-07-23T08:36:10Z</time>
      </trkpt>
      <trkpt lat="42.23685" lon="0.82108">
        <ele>1355.6</ele>
        <time>2023-07-23T08:36:11Z</time>
      </trkpt>
      <trkpt lat="42.23686" lon="0.8211">
        <ele>1355.8</ele>
        <time>2023-07-23T08:36:12Z</time>
      </trkpt>
      <trkpt lat="42.23687" lon="0.82113">
        <ele>1356.2</ele>
        <time>2023-07-23T08:36:13Z</time>
      </trkpt>
      <trkpt lat="42.23689" lon="0.82116">
        <ele>1356.6</ele>
        <time>2023-07-23T08:36:14Z</time>
      </trkpt>
      <trkpt lat="42.2369" lon="0.82119">
        <ele>1356.8</ele>
        <time>2023-07-23T08:36:15Z</time>
      </trkpt>
      <trkpt lat="42.23691" lon="0.82123">
        <ele>1357.2</ele>
        <time>2023-07-23T08:36:16Z</time>
      </trkpt>
      <trkpt lat="42.23692" lon="0.82126">
        <ele>1357.4</ele>
        <time>2023-07-23T08:36:17Z</time>
      </trkpt>
      <trkpt lat="42.23693" lon="0.8213">
        <ele>1357.8</ele>
        <time>2023-07-23T08:36:18Z</time>
      </trkpt>
      <trkpt lat="42.23695" lon="0.82134">
        <ele>1357.8</ele>
        <time>2023-07-23T08:36:19Z</time>
      </trkpt>
      <trkpt lat="42.23696" lon="0.82138">
        <ele>1358.2</ele>
        <time>2023-07-23T08:36:20Z</time>
      </trkpt>
      <trkpt lat="42.23698" lon="0.82142">
        <ele>1358.4</ele>
        <time>2023-07-23T08:36:21Z</time>
      </trkpt>
      <trkpt lat="42.23699" lon="0.82146">
        <ele>1358.4</ele>
        <time>2023-07-23T08:36:22Z</time>
      </trkpt>
      <trkpt lat="42.23701" lon="0.82151">
        <ele>1358.4</ele>
        <time>2023-07-23T08:36:23Z</time>
      </trkpt>
      <trkpt lat="42.23703" lon="0.82157">
        <ele>1358.4</ele>
        <time>2023-07-23T08:36:24Z</time>
      </trkpt>
      <trkpt lat="42.23705" lon="0.82162">
        <ele>1358.4</ele>
        <time>2023-07-23T08:36:25Z</time>
      </trkpt>
      <trkpt lat="42.23707" lon="0.82168">
        <ele>1358.4</ele>
        <time>2023-07-23T08:36:26Z</time>
      </trkpt>
      <trkpt lat="42.23709" lon="0.82174">
        <ele>1358.4</ele>
        <time>2023-07-23T08:36:27Z</time>
      </trkpt>
      <trkpt lat="42.23711" lon="0.82181">
        <ele>1358.4</ele>
        <time>2023-07-23T08:36:28Z</time>
      </trkpt>
      <trkpt lat="42.23712" lon="0.82186">
        <ele>1358.2</ele>
        <time>2023-07-23T08:36:29Z</time>
      </trkpt>
      <trkpt lat="42.23714" lon="0.82192">
        <ele>1358</ele>
        <time>2023-07-23T08:36:30Z</time>
      </trkpt>
      <trkpt lat="42.23716" lon="0.82199">
        <ele>1357.6</ele>
        <time>2023-07-23T08:36:31Z</time>
      </trkpt>
      <trkpt lat="42.23717" lon="0.82206">
        <ele>1357.2</ele>
        <time>2023-07-23T08:36:32Z</time>
      </trkpt>
      <trkpt lat="42.23719" lon="0.82214">
        <ele>1356.4</ele>
        <time>2023-07-23T08:36:33Z</time>
      </trkpt>
      <trkpt lat="42.2372" lon="0.82219">
        <ele>1356.2</ele>
        <time>2023-07-23T08:36:34Z</time>
      </trkpt>
      <trkpt lat="42.23721" lon="0.82225">
        <ele>1355.8</ele>
        <time>2023-07-23T08:36:35Z</time>
      </trkpt>
      <trkpt lat="42.23723" lon="0.82232">
        <ele>1355.6</ele>
        <time>2023-07-23T08:36:36Z</time>
      </trkpt>
      <trkpt lat="42.23724" lon="0.82239">
        <ele>1354.6</ele>
        <time>2023-07-23T08:36:37Z</time>
      </trkpt>
      <trkpt lat="42.23725" lon="0.82247">
        <ele>1354.2</ele>
        <time>2023-07-23T08:36:38Z</time>
      </trkpt>
      <trkpt lat="42.23726" lon="0.82255">
        <ele>1353.8</ele>
        <time>2023-07-23T08:36:39Z</time>
      </trkpt>
      <trkpt lat="42.23727" lon="0.82262">
        <ele>1353.6</ele>
        <time>2023-07-23T08:36:40Z</time>
      </trkpt>
      <trkpt lat="42.23727" lon="0.82267">
        <ele>1353.4</ele>
        <time>2023-07-23T08:36:41Z</time>
      </trkpt>
      <trkpt lat="42.23726" lon="0.82273">
        <ele>1353</ele>
        <time>2023-07-23T08:36:42Z</time>
      </trkpt>
      <trkpt lat="42.23725" lon="0.82278">
        <ele>1353</ele>
        <time>2023-07-23T08:36:43Z</time>
      </trkpt>
      <trkpt lat="42.23725" lon="0.82283">
        <ele>1352.8</ele>
        <time>2023-07-23T08:36:44Z</time>
      </trkpt>
      <trkpt lat="42.23725" lon="0.82286">
        <ele>1352.6</ele>
        <time>2023-07-23T08:36:45Z</time>
      </trkpt>
      <trkpt lat="42.23725" lon="0.82288">
        <ele>1352.6</ele>
        <time>2023-07-23T08:36:46Z</time>
      </trkpt>
      <trkpt lat="42.23726" lon="0.82289">
        <ele>1351.8</ele>
        <time>2023-07-23T08:36:47Z</time>
      </trkpt>
      <trkpt lat="42.23726" lon="0.8229">
        <ele>1351.4</ele>
        <time>2023-07-23T08:36:48Z</time>
      </trkpt>
      <trkpt lat="42.23727" lon="0.8229">
        <ele>1351</ele>
        <time>2023-07-23T08:36:49Z</time>
      </trkpt>
      <trkpt lat="42.23727" lon="0.8229">
        <ele>1350.8</ele>
        <time>2023-07-23T08:36:50Z</time>
      </trkpt>
      <trkpt lat="42.23727" lon="0.8229">
        <ele>1350.6</ele>
        <time>2023-07-23T08:36:51Z</time>
      </trkpt>
      <trkpt lat="42.23732" lon="0.82285">
        <ele>1348.4</ele>
        <time>2023-07-23T08:42:19Z</time>
      </trkpt>
      <trkpt lat="42.23735" lon="0.82284">
        <ele>1348.4</ele>
        <time>2023-07-23T08:42:20Z</time>
      </trkpt>
      <trkpt lat="42.23738" lon="0.82283">
        <ele>1348.4</ele>
        <time>2023-07-23T08:42:21Z</time>
      </trkpt>
      <trkpt lat="42.23742" lon="0.82281">
        <ele>1348.2</ele>
        <time>2023-07-23T08:42:22Z</time>
      </trkpt>
      <trkpt lat="42.23746" lon="0.82279">
        <ele>1348.2</ele>
        <time>2023-07-23T08:42:23Z</time>
      </trkpt>
      <trkpt lat="42.2375" lon="0.82277">
        <ele>1348</ele>
        <time>2023-07-23T08:42:24Z</time>
      </trkpt>
      <trkpt lat="42.23755" lon="0.82276">
        <ele>1347.8</ele>
        <time>2023-07-23T08:42:25Z</time>
      </trkpt>
      <trkpt lat="42.23759" lon="0.82275">
        <ele>1347.2</ele>
        <time>2023-07-23T08:42:26Z</time>
      </trkpt>
      <trkpt lat="42.23764" lon="0.82273">
        <ele>1346.8</ele>
        <time>2023-07-23T08:42:27Z</time>
      </trkpt>
      <trkpt lat="42.23769" lon="0.82271">
        <ele>1346.2</ele>
        <time>2023-07-23T08:42:28Z</time>
      </trkpt>
      <trkpt lat="42.23775" lon="0.82269">
        <ele>1345.2</ele>
        <time>2023-07-23T08:42:29Z</time>
      </trkpt>
      <trkpt lat="42.23782" lon="0.82268">
        <ele>1345</ele>
        <time>2023-07-23T08:42:30Z</time>
      </trkpt>
      <trkpt lat="42.23788" lon="0.82265">
        <ele>1344.6</ele>
        <time>2023-07-23T08:42:31Z</time>
      </trkpt>
      <trkpt lat="42.23795" lon="0.82261">
        <ele>1344.4</ele>
        <time>2023-07-23T08:42:32Z</time>
      </trkpt>
      <trkpt lat="42.23802" lon="0.82257">
        <ele>1343</ele>
        <time>2023-07-23T08:42:33Z</time>
      </trkpt>
      <trkpt lat="42.23809" lon="0.82253">
        <ele>1342.2</ele>
        <time>2023-07-23T08:42:34Z</time>
      </trkpt>
      <trkpt lat="42.23815" lon="0.8225">
        <ele>1341</ele>
        <time>2023-07-23T08:42:35Z</time>
      </trkpt>
      <trkpt lat="42.23819" lon="0.82248">
        <ele>1340.4</ele>
        <time>2023-07-23T08:42:36Z</time>
      </trkpt>
      <trkpt lat="42.23823" lon="0.82247">
        <ele>1340.4</ele>
        <time>2023-07-23T08:42:37Z</time>
      </trkpt>
      <trkpt lat="42.23826" lon="0.82247">
        <ele>1340</ele>
        <time>2023-07-23T08:42:38Z</time>
      </trkpt>
      <trkpt lat="42.23829" lon="0.82248">
        <ele>1339.8</ele>
        <time>2023-07-23T08:42:39Z</time>
      </trkpt>
      <trkpt lat="42.23831" lon="0.82249">
        <ele>1339.8</ele>
        <time>2023-07-23T08:42:40Z</time>
      </trkpt>
      <trkpt lat="42.23832" lon="0.8225">
        <ele>1339.8</ele>
        <time>2023-07-23T08:42:41Z</time>
      </trkpt>
      <trkpt lat="42.23834" lon="0.82252">
        <ele>1339.8</ele>
        <time>2023-07-23T08:42:42Z</time>
      </trkpt>
      <trkpt lat="42.23834" lon="0.82252">
        <ele>1340</ele>
        <time>2023-07-23T08:42:43Z</time>
      </trkpt>
      <trkpt lat="42.23836" lon="0.82257">
        <ele>1340</ele>
        <time>2023-07-23T08:42:44Z</time>
      </trkpt>
      <trkpt lat="42.23836" lon="0.82257">
        <ele>1340.4</ele>
        <time>2023-07-23T08:42:45Z</time>
      </trkpt>
      <trkpt lat="42.23837" lon="0.82259">
        <ele>1340.6</ele>
        <time>2023-07-23T08:42:46Z</time>
      </trkpt>
      <trkpt lat="42.23839" lon="0.82264">
        <ele>1340.8</ele>
        <time>2023-07-23T08:42:47Z</time>
      </trkpt>
      <trkpt lat="42.2384" lon="0.82266">
        <ele>1341.2</ele>
        <time>2023-07-23T08:42:48Z</time>
      </trkpt>
      <trkpt lat="42.23841" lon="0.82268">
        <ele>1341.4</ele>
        <time>2023-07-23T08:42:49Z</time>
      </trkpt>
      <trkpt lat="42.23843" lon="0.82269">
        <ele>1341.8</ele>
        <time>2023-07-23T08:42:50Z</time>
      </trkpt>
      <trkpt lat="42.23844" lon="0.82271">
        <ele>1342.2</ele>
        <time>2023-07-23T08:42:51Z</time>
      </trkpt>
      <trkpt lat="42.23844" lon="0.82271">
        <ele>1342.8</ele>
        <time>2023-07-23T08:42:52Z</time>
      </trkpt>
      <trkpt lat="42.23847" lon="0.82275">
        <ele>1343</ele>
        <time>2023-07-23T08:42:53Z</time>
      </trkpt>
      <trkpt lat="42.23849" lon="0.82276">
        <ele>1343.2</ele>
        <time>2023-07-23T08:42:54Z</time>
      </trkpt>
      <trkpt lat="42.23851" lon="0.82278">
        <ele>1344.2</ele>
        <time>2023-07-23T08:42:55Z</time>
      </trkpt>
      <trkpt lat="42.23852" lon="0.8228">
        <ele>1344.6</ele>
        <time>2023-07-23T08:42:56Z</time>
      </trkpt>
      <trkpt lat="42.23854" lon="0.82281">
        <ele>1345.4</ele>
        <time>2023-07-23T08:42:57Z</time>
      </trkpt>
      <trkpt lat="42.23856" lon="0.82283">
        <ele>1346</ele>
        <time>2023-07-23T08:42:58Z</time>
      </trkpt>
      <trkpt lat="42.23857" lon="0.82285">
        <ele>1346.4</ele>
        <time>2023-07-23T08:42:59Z</time>
      </trkpt>
      <trkpt lat="42.23859" lon="0.82288">
        <ele>1346.8</ele>
        <time>2023-07-23T08:43:00Z</time>
      </trkpt>
      <trkpt lat="42.23861" lon="0.8229">
        <ele>1346.8</ele>
        <time>2023-07-23T08:43:01Z</time>
      </trkpt>
      <trkpt lat="42.23863" lon="0.82292">
        <ele>1347.4</ele>
        <time>2023-07-23T08:43:02Z</time>
      </trkpt>
      <trkpt lat="42.23865" lon="0.82294">
        <ele>1347.6</ele>
        <time>2023-07-23T08:43:03Z</time>
      </trkpt>
      <trkpt lat="42.23865" lon="0.82294">
        <ele>1347.8</ele>
        <time>2023-07-23T08:43:04Z</time>
      </trkpt>
      <trkpt lat="42.23867" lon="0.82299">
        <ele>1347.8</ele>
        <time>2023-07-23T08:43:05Z</time>
      </trkpt>
      <trkpt lat="42.23869" lon="0.82302">
        <ele>1347.8</ele>
        <time>2023-07-23T08:43:06Z</time>
      </trkpt>
      <trkpt lat="42.2387" lon="0.82305">
        <ele>1348</ele>
        <time>2023-07-23T08:43:07Z</time>
      </trkpt>
      <trkpt lat="42.23871" lon="0.82307">
        <ele>1348</ele>
        <time>2023-07-23T08:43:08Z</time>
      </trkpt>
      <trkpt lat="42.23873" lon="0.8231">
        <ele>1348</ele>
        <time>2023-07-23T08:43:09Z</time>
      </trkpt>
      <trkpt lat="42.23874" lon="0.82312">
        <ele>1348.2</ele>
        <time>2023-07-23T08:43:10Z</time>
      </trkpt>
      <trkpt lat="42.23874" lon="0.82312">
        <ele>1348.2</ele>
        <time>2023-07-23T08:43:11Z</time>
      </trkpt>
      <trkpt lat="42.23876" lon="0.82318">
        <ele>1348.4</ele>
        <time>2023-07-23T08:43:12Z</time>
      </trkpt>
      <trkpt lat="42.23877" lon="0.8232">
        <ele>1348.4</ele>
        <time>2023-07-23T08:43:13Z</time>
      </trkpt>
      <trkpt lat="42.23878" lon="0.82322">
        <ele>1348.6</ele>
        <time>2023-07-23T08:43:14Z</time>
      </trkpt>
      <trkpt lat="42.23879" lon="0.82325">
        <ele>1348.6</ele>
        <time>2023-07-23T08:43:15Z</time>
      </trkpt>
      <trkpt lat="42.23881" lon="0.82327">
        <ele>1348.6</ele>
        <time>2023-07-23T08:43:16Z</time>
      </trkpt>
      <trkpt lat="42.23882" lon="0.82329">
        <ele>1348.8</ele>
        <time>2023-07-23T08:43:17Z</time>
      </trkpt>
      <trkpt lat="42.23883" lon="0.82331">
        <ele>1349</ele>
        <time>2023-07-23T08:43:18Z</time>
      </trkpt>
      <trkpt lat="42.23884" lon="0.82333">
        <ele>1349.2</ele>
        <time>2023-07-23T08:43:19Z</time>
      </trkpt>
      <trkpt lat="42.23886" lon="0.82336">
        <ele>1349.4</ele>
        <time>2023-07-23T08:43:20Z</time>
      </trkpt>
      <trkpt lat="42.23887" lon="0.82338">
        <ele>1349.6</ele>
        <time>2023-07-23T08:43:21Z</time>
      </trkpt>
      <trkpt lat="42.23888" lon="0.82341">
        <ele>1350.2</ele>
        <time>2023-07-23T08:43:22Z</time>
      </trkpt>
      <trkpt lat="42.23889" lon="0.82343">
        <ele>1350.2</ele>
        <time>2023-07-23T08:43:23Z</time>
      </trkpt>
      <trkpt lat="42.23891" lon="0.82346">
        <ele>1350.4</ele>
        <time>2023-07-23T08:43:24Z</time>
      </trkpt>
      <trkpt lat="42.23892" lon="0.82349">
        <ele>1350.6</ele>
        <time>2023-07-23T08:43:25Z</time>
      </trkpt>
      <trkpt lat="42.23894" lon="0.82351">
        <ele>1350.6</ele>
        <time>2023-07-23T08:43:26Z</time>
      </trkpt>
      <trkpt lat="42.23895" lon="0.82353">
        <ele>1350.8</ele>
        <time>2023-07-23T08:43:27Z</time>
      </trkpt>
      <trkpt lat="42.23896" lon="0.82355">
        <ele>1351</ele>
        <time>2023-07-23T08:43:28Z</time>
      </trkpt>
      <trkpt lat="42.23897" lon="0.82358">
        <ele>1351.4</ele>
        <time>2023-07-23T08:43:29Z</time>
      </trkpt>
      <trkpt lat="42.23898" lon="0.82361">
        <ele>1351.4</ele>
        <time>2023-07-23T08:43:30Z</time>
      </trkpt>
      <trkpt lat="42.23899" lon="0.82364">
        <ele>1352</ele>
        <time>2023-07-23T08:43:31Z</time>
      </trkpt>
      <trkpt lat="42.239" lon="0.82366">
        <ele>1352.2</ele>
        <time>2023-07-23T08:43:32Z</time>
      </trkpt>
      <trkpt lat="42.23901" lon="0.82369">
        <ele>1352.6</ele>
        <time>2023-07-23T08:43:33Z</time>
      </trkpt>
      <trkpt lat="42.23903" lon="0.82371">
        <ele>1352.6</ele>
        <time>2023-07-23T08:43:34Z</time>
      </trkpt>
      <trkpt lat="42.23904" lon="0.82374">
        <ele>1352.8</ele>
        <time>2023-07-23T08:43:35Z</time>
      </trkpt>
      <trkpt lat="42.23904" lon="0.82376">
        <ele>1353.2</ele>
        <time>2023-07-23T08:43:36Z</time>
      </trkpt>
      <trkpt lat="42.23905" lon="0.82379">
        <ele>1353.4</ele>
        <time>2023-07-23T08:43:37Z</time>
      </trkpt>
      <trkpt lat="42.23906" lon="0.82381">
        <ele>1353.8</ele>
        <time>2023-07-23T08:43:38Z</time>
      </trkpt>
      <trkpt lat="42.23908" lon="0.82383">
        <ele>1354</ele>
        <time>2023-07-23T08:43:39Z</time>
      </trkpt>
      <trkpt lat="42.23909" lon="0.82386">
        <ele>1354.4</ele>
        <time>2023-07-23T08:43:40Z</time>
      </trkpt>
      <trkpt lat="42.2391" lon="0.82388">
        <ele>1354.6</ele>
        <time>2023-07-23T08:43:41Z</time>
      </trkpt>
      <trkpt lat="42.23911" lon="0.8239">
        <ele>1354.8</ele>
        <time>2023-07-23T08:43:42Z</time>
      </trkpt>
      <trkpt lat="42.23912" lon="0.82393">
        <ele>1354.8</ele>
        <time>2023-07-23T08:43:43Z</time>
      </trkpt>
      <trkpt lat="42.23913" lon="0.82394">
        <ele>1355</ele>
        <time>2023-07-23T08:43:44Z</time>
      </trkpt>
      <trkpt lat="42.23914" lon="0.82397">
        <ele>1355.4</ele>
        <time>2023-07-23T08:43:45Z</time>
      </trkpt>
      <trkpt lat="42.23915" lon="0.824">
        <ele>1356</ele>
        <time>2023-07-23T08:43:46Z</time>
      </trkpt>
      <trkpt lat="42.23915" lon="0.82402">
        <ele>1356.2</ele>
        <time>2023-07-23T08:43:47Z</time>
      </trkpt>
      <trkpt lat="42.23916" lon="0.82405">
        <ele>1356.8</ele>
        <time>2023-07-23T08:43:48Z</time>
      </trkpt>
      <trkpt lat="42.23917" lon="0.82406">
        <ele>1357</ele>
        <time>2023-07-23T08:43:49Z</time>
      </trkpt>
      <trkpt lat="42.23918" lon="0.82409">
        <ele>1357.4</ele>
        <time>2023-07-23T08:43:50Z</time>
      </trkpt>
      <trkpt lat="42.23919" lon="0.8241">
        <ele>1357.6</ele>
        <time>2023-07-23T08:43:51Z</time>
      </trkpt>
      <trkpt lat="42.2392" lon="0.82413">
        <ele>1357.8</ele>
        <time>2023-07-23T08:43:52Z</time>
      </trkpt>
      <trkpt lat="42.23921" lon="0.82415">
        <ele>1358.2</ele>
        <time>2023-07-23T08:43:53Z</time>
      </trkpt>
      <trkpt lat="42.23922" lon="0.82417">
        <ele>1358.2</ele>
        <time>2023-07-23T08:43:54Z</time>
      </trkpt>
      <trkpt lat="42.23922" lon="0.82419">
        <ele>1358.6</ele>
        <time>2023-07-23T08:43:55Z</time>
      </trkpt>
      <trkpt lat="42.23924" lon="0.82421">
        <ele>1358.6</ele>
        <time>2023-07-23T08:43:56Z</time>
      </trkpt>
      <trkpt lat="42.23925" lon="0.82423">
        <ele>1358.8</ele>
        <time>2023-07-23T08:43:57Z</time>
      </trkpt>
      <trkpt lat="42.23926" lon="0.82425">
        <ele>1358.8</ele>
        <time>2023-07-23T08:43:58Z</time>
      </trkpt>
      <trkpt lat="42.23927" lon="0.82427">
        <ele>1359.2</ele>
        <time>2023-07-23T08:43:59Z</time>
      </trkpt>
      <trkpt lat="42.23927" lon="0.82427">
        <ele>1359.8</ele>
        <time>2023-07-23T08:44:00Z</time>
      </trkpt>
      <trkpt lat="42.23929" lon="0.82432">
        <ele>1360</ele>
        <time>2023-07-23T08:44:01Z</time>
      </trkpt>
      <trkpt lat="42.2393" lon="0.82435">
        <ele>1360.6</ele>
        <time>2023-07-23T08:44:02Z</time>
      </trkpt>
      <trkpt lat="42.23931" lon="0.82437">
        <ele>1361</ele>
        <time>2023-07-23T08:44:03Z</time>
      </trkpt>
      <trkpt lat="42.23931" lon="0.82437">
        <ele>1361.2</ele>
        <time>2023-07-23T08:44:04Z</time>
      </trkpt>
      <trkpt lat="42.23932" lon="0.82442">
        <ele>1361.6</ele>
        <time>2023-07-23T08:44:05Z</time>
      </trkpt>
      <trkpt lat="42.23932" lon="0.82442">
        <ele>1361.8</ele>
        <time>2023-07-23T08:44:06Z</time>
      </trkpt>
      <trkpt lat="42.23934" lon="0.82447">
        <ele>1362</ele>
        <time>2023-07-23T08:44:07Z</time>
      </trkpt>
      <trkpt lat="42.23935" lon="0.82449">
        <ele>1362.2</ele>
        <time>2023-07-23T08:44:08Z</time>
      </trkpt>
      <trkpt lat="42.23936" lon="0.82452">
        <ele>1362.6</ele>
        <time>2023-07-23T08:44:09Z</time>
      </trkpt>
      <trkpt lat="42.23936" lon="0.82454">
        <ele>1362.8</ele>
        <time>2023-07-23T08:44:10Z</time>
      </trkpt>
      <trkpt lat="42.23936" lon="0.82454">
        <ele>1363</ele>
        <time>2023-07-23T08:44:11Z</time>
      </trkpt>
      <trkpt lat="42.23938" lon="0.82459">
        <ele>1363</ele>
        <time>2023-07-23T08:44:12Z</time>
      </trkpt>
      <trkpt lat="42.23938" lon="0.82459">
        <ele>1363</ele>
        <time>2023-07-23T08:44:13Z</time>
      </trkpt>
      <trkpt lat="42.23938" lon="0.82464">
        <ele>1363.4</ele>
        <time>2023-07-23T08:44:14Z</time>
      </trkpt>
      <trkpt lat="42.23939" lon="0.82466">
        <ele>1364</ele>
        <time>2023-07-23T08:44:15Z</time>
      </trkpt>
      <trkpt lat="42.23939" lon="0.82469">
        <ele>1364.2</ele>
        <time>2023-07-23T08:44:16Z</time>
      </trkpt>
      <trkpt lat="42.23939" lon="0.82471">
        <ele>1364.6</ele>
        <time>2023-07-23T08:44:17Z</time>
      </trkpt>
      <trkpt lat="42.2394" lon="0.82473">
        <ele>1364.6</ele>
        <time>2023-07-23T08:44:18Z</time>
      </trkpt>
      <trkpt lat="42.2394" lon="0.82476">
        <ele>1365</ele>
        <time>2023-07-23T08:44:19Z</time>
      </trkpt>
      <trkpt lat="42.23941" lon="0.82479">
        <ele>1365</ele>
        <time>2023-07-23T08:44:20Z</time>
      </trkpt>
      <trkpt lat="42.23942" lon="0.82483">
        <ele>1365.2</ele>
        <time>2023-07-23T08:44:21Z</time>
      </trkpt>
      <trkpt lat="42.23943" lon="0.82488">
        <ele>1365.4</ele>
        <time>2023-07-23T08:44:22Z</time>
      </trkpt>
      <trkpt lat="42.23944" lon="0.82493">
        <ele>1365.6</ele>
        <time>2023-07-23T08:44:23Z</time>
      </trkpt>
      <trkpt lat="42.23946" lon="0.82498">
        <ele>1365.6</ele>
        <time>2023-07-23T08:44:24Z</time>
      </trkpt>
      <trkpt lat="42.23946" lon="0.82498">
        <ele>1365.4</ele>
        <time>2023-07-23T08:44:25Z</time>
      </trkpt>
      <trkpt lat="42.2395" lon="0.82511">
        <ele>1365.2</ele>
        <time>2023-07-23T08:44:26Z</time>
      </trkpt>
      <trkpt lat="42.2395" lon="0.82511">
        <ele>1365.2</ele>
        <time>2023-07-23T08:44:27Z</time>
      </trkpt>
      <trkpt lat="42.23955" lon="0.82527">
        <ele>1365</ele>
        <time>2023-07-23T08:44:28Z</time>
      </trkpt>
      <trkpt lat="42.23955" lon="0.82527">
        <ele>1364.4</ele>
        <time>2023-07-23T08:44:29Z</time>
      </trkpt>
      <trkpt lat="42.23962" lon="0.82544">
        <ele>1364</ele>
        <time>2023-07-23T08:44:30Z</time>
      </trkpt>
      <trkpt lat="42.23962" lon="0.82544">
        <ele>1363.2</ele>
        <time>2023-07-23T08:44:31Z</time>
      </trkpt>
      <trkpt lat="42.2397" lon="0.82562">
        <ele>1362.4</ele>
        <time>2023-07-23T08:44:32Z</time>
      </trkpt>
      <trkpt lat="42.23975" lon="0.82571">
        <ele>1362.2</ele>
        <time>2023-07-23T08:44:33Z</time>
      </trkpt>
      <trkpt lat="42.23975" lon="0.82571">
        <ele>1361.8</ele>
        <time>2023-07-23T08:44:34Z</time>
      </trkpt>
      <trkpt lat="42.23985" lon="0.82591">
        <ele>1361.4</ele>
        <time>2023-07-23T08:44:35Z</time>
      </trkpt>
      <trkpt lat="42.2399" lon="0.82602">
        <ele>1360.6</ele>
        <time>2023-07-23T08:44:36Z</time>
      </trkpt>
      <trkpt lat="42.23995" lon="0.82612">
        <ele>1360.4</ele>
        <time>2023-07-23T08:44:37Z</time>
      </trkpt>
      <trkpt lat="42.24001" lon="0.82623">
        <ele>1357.8</ele>
        <time>2023-07-23T08:44:38Z</time>
      </trkpt>
      <trkpt lat="42.24006" lon="0.82633">
        <ele>1356</ele>
        <time>2023-07-23T08:44:39Z</time>
      </trkpt>
      <trkpt lat="42.2401" lon="0.82642">
        <ele>1355.4</ele>
        <time>2023-07-23T08:44:40Z</time>
      </trkpt>
      <trkpt lat="42.24015" lon="0.82649">
        <ele>1354.6</ele>
        <time>2023-07-23T08:44:41Z</time>
      </trkpt>
      <trkpt lat="42.24018" lon="0.82656">
        <ele>1354.2</ele>
        <time>2023-07-23T08:44:42Z</time>
      </trkpt>
      <trkpt lat="42.24021" lon="0.8266">
        <ele>1354</ele>
        <time>2023-07-23T08:44:43Z</time>
      </trkpt>
      <trkpt lat="42.24023" lon="0.82664">
        <ele>1354</ele>
        <time>2023-07-23T08:44:44Z</time>
      </trkpt>
      <trkpt lat="42.24024" lon="0.82666">
        <ele>1354</ele>
        <time>2023-07-23T08:44:45Z</time>
      </trkpt>
      <trkpt lat="42.24025" lon="0.82669">
        <ele>1353.8</ele>
        <time>2023-07-23T08:44:46Z</time>
      </trkpt>
      <trkpt lat="42.24026" lon="0.82671">
        <ele>1353.8</ele>
        <time>2023-07-23T08:44:47Z</time>
      </trkpt>
      <trkpt lat="42.24027" lon="0.82674">
        <ele>1353.8</ele>
        <time>2023-07-23T08:44:48Z</time>
      </trkpt>
      <trkpt lat="42.24028" lon="0.82676">
        <ele>1353.8</ele>
        <time>2023-07-23T08:44:49Z</time>
      </trkpt>
      <trkpt lat="42.24029" lon="0.82679">
        <ele>1354</ele>
        <time>2023-07-23T08:44:50Z</time>
      </trkpt>
      <trkpt lat="42.2403" lon="0.82681">
        <ele>1354</ele>
        <time>2023-07-23T08:44:51Z</time>
      </trkpt>
      <trkpt lat="42.24031" lon="0.82684">
        <ele>1354</ele>
        <time>2023-07-23T08:44:52Z</time>
      </trkpt>
      <trkpt lat="42.24032" lon="0.82687">
        <ele>1354.6</ele>
        <time>2023-07-23T08:44:53Z</time>
      </trkpt>
      <trkpt lat="42.24033" lon="0.82689">
        <ele>1354.8</ele>
        <time>2023-07-23T08:44:54Z</time>
      </trkpt>
      <trkpt lat="42.24033" lon="0.82691">
        <ele>1355</ele>
        <time>2023-07-23T08:44:55Z</time>
      </trkpt>
      <trkpt lat="42.24033" lon="0.82691">
        <ele>1355.4</ele>
        <time>2023-07-23T08:44:56Z</time>
      </trkpt>
      <trkpt lat="42.24035" lon="0.82695">
        <ele>1355.8</ele>
        <time>2023-07-23T08:44:57Z</time>
      </trkpt>
      <trkpt lat="42.24035" lon="0.82698">
        <ele>1356.4</ele>
        <time>2023-07-23T08:44:58Z</time>
      </trkpt>
      <trkpt lat="42.24036" lon="0.827">
        <ele>1356.6</ele>
        <time>2023-07-23T08:44:59Z</time>
      </trkpt>
      <trkpt lat="42.24037" lon="0.82702">
        <ele>1356.8</ele>
        <time>2023-07-23T08:45:00Z</time>
      </trkpt>
      <trkpt lat="42.24038" lon="0.82704">
        <ele>1357</ele>
        <time>2023-07-23T08:45:01Z</time>
      </trkpt>
      <trkpt lat="42.24039" lon="0.82706">
        <ele>1357.4</ele>
        <time>2023-07-23T08:45:02Z</time>
      </trkpt>
      <trkpt lat="42.24039" lon="0.82709">
        <ele>1357.6</ele>
        <time>2023-07-23T08:45:03Z</time>
      </trkpt>
      <trkpt lat="42.2404" lon="0.82711">
        <ele>1357.8</ele>
        <time>2023-07-23T08:45:04Z</time>
      </trkpt>
      <trkpt lat="42.24041" lon="0.82713">
        <ele>1358.2</ele>
        <time>2023-07-23T08:45:05Z</time>
      </trkpt>
      <trkpt lat="42.24042" lon="0.82715">
        <ele>1358.4</ele>
        <time>2023-07-23T08:45:06Z</time>
      </trkpt>
      <trkpt lat="42.24043" lon="0.82717">
        <ele>1358.6</ele>
        <time>2023-07-23T08:45:07Z</time>
      </trkpt>
      <trkpt lat="42.24043" lon="0.82719">
        <ele>1359.2</ele>
        <time>2023-07-23T08:45:08Z</time>
      </trkpt>
      <trkpt lat="42.24044" lon="0.82722">
        <ele>1359.4</ele>
        <time>2023-07-23T08:45:09Z</time>
      </trkpt>
      <trkpt lat="42.24045" lon="0.82725">
        <ele>1359.8</ele>
        <time>2023-07-23T08:45:10Z</time>
      </trkpt>
      <trkpt lat="42.24045" lon="0.82727">
        <ele>1359.8</ele>
        <time>2023-07-23T08:45:11Z</time>
      </trkpt>
      <trkpt lat="42.24046" lon="0.82729">
        <ele>1360.2</ele>
        <time>2023-07-23T08:45:12Z</time>
      </trkpt>
      <trkpt lat="42.24047" lon="0.8273">
        <ele>1360.4</ele>
        <time>2023-07-23T08:45:13Z</time>
      </trkpt>
      <trkpt lat="42.24047" lon="0.82732">
        <ele>1360.6</ele>
        <time>2023-07-23T08:45:14Z</time>
      </trkpt>
      <trkpt lat="42.24048" lon="0.82735">
        <ele>1360.8</ele>
        <time>2023-07-23T08:45:15Z</time>
      </trkpt>
      <trkpt lat="42.24049" lon="0.82736">
        <ele>1361.2</ele>
        <time>2023-07-23T08:45:16Z</time>
      </trkpt>
      <trkpt lat="42.2405" lon="0.82739">
        <ele>1361.8</ele>
        <time>2023-07-23T08:45:17Z</time>
      </trkpt>
      <trkpt lat="42.24051" lon="0.82741">
        <ele>1362</ele>
        <time>2023-07-23T08:45:18Z</time>
      </trkpt>
      <trkpt lat="42.24052" lon="0.82743">
        <ele>1362.8</ele>
        <time>2023-07-23T08:45:19Z</time>
      </trkpt>
      <trkpt lat="42.24052" lon="0.82746">
        <ele>1363.2</ele>
        <time>2023-07-23T08:45:20Z</time>
      </trkpt>
      <trkpt lat="42.24053" lon="0.82748">
        <ele>1363.2</ele>
        <time>2023-07-23T08:45:21Z</time>
      </trkpt>
      <trkpt lat="42.24054" lon="0.8275">
        <ele>1363.4</ele>
        <time>2023-07-23T08:45:22Z</time>
      </trkpt>
      <trkpt lat="42.24055" lon="0.82752">
        <ele>1363.6</ele>
        <time>2023-07-23T08:45:23Z</time>
      </trkpt>
      <trkpt lat="42.24056" lon="0.82754">
        <ele>1364</ele>
        <time>2023-07-23T08:45:24Z</time>
      </trkpt>
      <trkpt lat="42.24057" lon="0.82757">
        <ele>1364.6</ele>
        <time>2023-07-23T08:45:25Z</time>
      </trkpt>
      <trkpt lat="42.24057" lon="0.82758">
        <ele>1364.8</ele>
        <time>2023-07-23T08:45:26Z</time>
      </trkpt>
      <trkpt lat="42.24057" lon="0.82758">
        <ele>1365.2</ele>
        <time>2023-07-23T08:45:27Z</time>
      </trkpt>
      <trkpt lat="42.24061" lon="0.82762">
        <ele>1365.4</ele>
        <time>2023-07-23T08:45:28Z</time>
      </trkpt>
      <trkpt lat="42.24062" lon="0.82764">
        <ele>1365.6</ele>
        <time>2023-07-23T08:45:29Z</time>
      </trkpt>
      <trkpt lat="42.24063" lon="0.82766">
        <ele>1365.8</ele>
        <time>2023-07-23T08:45:30Z</time>
      </trkpt>
      <trkpt lat="42.24064" lon="0.82768">
        <ele>1366.2</ele>
        <time>2023-07-23T08:45:31Z</time>
      </trkpt>
      <trkpt lat="42.24065" lon="0.82771">
        <ele>1366.8</ele>
        <time>2023-07-23T08:45:32Z</time>
      </trkpt>
      <trkpt lat="42.24066" lon="0.82773">
        <ele>1367.2</ele>
        <time>2023-07-23T08:45:33Z</time>
      </trkpt>
      <trkpt lat="42.24066" lon="0.82773">
        <ele>1367.6</ele>
        <time>2023-07-23T08:45:34Z</time>
      </trkpt>
      <trkpt lat="42.24067" lon="0.82778">
        <ele>1367.8</ele>
        <time>2023-07-23T08:45:35Z</time>
      </trkpt>
      <trkpt lat="42.24068" lon="0.82781">
        <ele>1368.2</ele>
        <time>2023-07-23T08:45:36Z</time>
      </trkpt>
      <trkpt lat="42.24068" lon="0.82783">
        <ele>1368.4</ele>
        <time>2023-07-23T08:45:37Z</time>
      </trkpt>
      <trkpt lat="42.24068" lon="0.82783">
        <ele>1368.6</ele>
        <time>2023-07-23T08:45:38Z</time>
      </trkpt>
      <trkpt lat="42.24069" lon="0.82786">
        <ele>1369</ele>
        <time>2023-07-23T08:45:39Z</time>
      </trkpt>
      <trkpt lat="42.24071" lon="0.8279">
        <ele>1369.4</ele>
        <time>2023-07-23T08:45:40Z</time>
      </trkpt>
      <trkpt lat="42.24073" lon="0.82793">
        <ele>1370.4</ele>
        <time>2023-07-23T08:45:41Z</time>
      </trkpt>
      <trkpt lat="42.24074" lon="0.82795">
        <ele>1370.8</ele>
        <time>2023-07-23T08:45:42Z</time>
      </trkpt>
      <trkpt lat="42.24076" lon="0.82797">
        <ele>1371</ele>
        <time>2023-07-23T08:45:43Z</time>
      </trkpt>
      <trkpt lat="42.24077" lon="0.82799">
        <ele>1371.4</ele>
        <time>2023-07-23T08:45:44Z</time>
      </trkpt>
      <trkpt lat="42.24078" lon="0.82801">
        <ele>1371.8</ele>
        <time>2023-07-23T08:45:45Z</time>
      </trkpt>
      <trkpt lat="42.24078" lon="0.82803">
        <ele>1372.2</ele>
        <time>2023-07-23T08:45:46Z</time>
      </trkpt>
      <trkpt lat="42.24079" lon="0.82805">
        <ele>1372.4</ele>
        <time>2023-07-23T08:45:47Z</time>
      </trkpt>
      <trkpt lat="42.2408" lon="0.82807">
        <ele>1372.8</ele>
        <time>2023-07-23T08:45:48Z</time>
      </trkpt>
      <trkpt lat="42.2408" lon="0.82809">
        <ele>1373.4</ele>
        <time>2023-07-23T08:45:49Z</time>
      </trkpt>
      <trkpt lat="42.24081" lon="0.8281">
        <ele>1373.6</ele>
        <time>2023-07-23T08:45:50Z</time>
      </trkpt>
      <trkpt lat="42.24082" lon="0.82812">
        <ele>1374</ele>
        <time>2023-07-23T08:45:51Z</time>
      </trkpt>
      <trkpt lat="42.24083" lon="0.82814">
        <ele>1374.2</ele>
        <time>2023-07-23T08:45:52Z</time>
      </trkpt>
      <trkpt lat="42.24084" lon="0.82817">
        <ele>1375</ele>
        <time>2023-07-23T08:45:53Z</time>
      </trkpt>
      <trkpt lat="42.24085" lon="0.82819">
        <ele>1375.4</ele>
        <time>2023-07-23T08:45:54Z</time>
      </trkpt>
      <trkpt lat="42.24085" lon="0.82822">
        <ele>1375.8</ele>
        <time>2023-07-23T08:45:55Z</time>
      </trkpt>
      <trkpt lat="42.24086" lon="0.82824">
        <ele>1376</ele>
        <time>2023-07-23T08:45:56Z</time>
      </trkpt>
      <trkpt lat="42.24087" lon="0.82826">
        <ele>1376.4</ele>
        <time>2023-07-23T08:45:57Z</time>
      </trkpt>
      <trkpt lat="42.24088" lon="0.82829">
        <ele>1377.4</ele>
        <time>2023-07-23T08:45:58Z</time>
      </trkpt>
      <trkpt lat="42.24088" lon="0.82831">
        <ele>1377.8</ele>
        <time>2023-07-23T08:45:59Z</time>
      </trkpt>
      <trkpt lat="42.2409" lon="0.82833">
        <ele>1378.6</ele>
        <time>2023-07-23T08:46:00Z</time>
      </trkpt>
      <trkpt lat="42.2409" lon="0.82834">
        <ele>1379</ele>
        <time>2023-07-23T08:46:01Z</time>
      </trkpt>
      <trkpt lat="42.24091" lon="0.82836">
        <ele>1379.4</ele>
        <time>2023-07-23T08:46:02Z</time>
      </trkpt>
      <trkpt lat="42.24092" lon="0.82838">
        <ele>1380.2</ele>
        <time>2023-07-23T08:46:03Z</time>
      </trkpt>
      <trkpt lat="42.24092" lon="0.82838">
        <ele>1380.4</ele>
        <time>2023-07-23T08:46:04Z</time>
      </trkpt>
      <trkpt lat="42.24093" lon="0.82842">
        <ele>1380.8</ele>
        <time>2023-07-23T08:46:05Z</time>
      </trkpt>
      <trkpt lat="42.24093" lon="0.82842">
        <ele>1381.2</ele>
        <time>2023-07-23T08:46:06Z</time>
      </trkpt>
      <trkpt lat="42.24094" lon="0.82846">
        <ele>1381.4</ele>
        <time>2023-07-23T08:46:07Z</time>
      </trkpt>
      <trkpt lat="42.24095" lon="0.82849">
        <ele>1381.8</ele>
        <time>2023-07-23T08:46:08Z</time>
      </trkpt>
      <trkpt lat="42.24095" lon="0.82849">
        <ele>1382.2</ele>
        <time>2023-07-23T08:46:09Z</time>
      </trkpt>
      <trkpt lat="42.24095" lon="0.82851">
        <ele>1382.8</ele>
        <time>2023-07-23T08:46:10Z</time>
      </trkpt>
      <trkpt lat="42.24095" lon="0.82853">
        <ele>1383</ele>
        <time>2023-07-23T08:46:11Z</time>
      </trkpt>
      <trkpt lat="42.24097" lon="0.82858">
        <ele>1383.6</ele>
        <time>2023-07-23T08:46:12Z</time>
      </trkpt>
      <trkpt lat="42.24097" lon="0.8286">
        <ele>1384</ele>
        <time>2023-07-23T08:46:13Z</time>
      </trkpt>
      <trkpt lat="42.24098" lon="0.82863">
        <ele>1384.2</ele>
        <time>2023-07-23T08:46:14Z</time>
      </trkpt>
      <trkpt lat="42.24098" lon="0.82865">
        <ele>1385</ele>
        <time>2023-07-23T08:46:15Z</time>
      </trkpt>
      <trkpt lat="42.24099" lon="0.82868">
        <ele>1385</ele>
        <time>2023-07-23T08:46:16Z</time>
      </trkpt>
      <trkpt lat="42.24099" lon="0.8287">
        <ele>1385.8</ele>
        <time>2023-07-23T08:46:17Z</time>
      </trkpt>
      <trkpt lat="42.24099" lon="0.82872">
        <ele>1386</ele>
        <time>2023-07-23T08:46:18Z</time>
      </trkpt>
      <trkpt lat="42.241" lon="0.82874">
        <ele>1386.4</ele>
        <time>2023-07-23T08:46:19Z</time>
      </trkpt>
      <trkpt lat="42.241" lon="0.82876">
        <ele>1386.8</ele>
        <time>2023-07-23T08:46:20Z</time>
      </trkpt>
      <trkpt lat="42.24101" lon="0.82879">
        <ele>1387</ele>
        <time>2023-07-23T08:46:21Z</time>
      </trkpt>
      <trkpt lat="42.24101" lon="0.82881">
        <ele>1387.6</ele>
        <time>2023-07-23T08:46:22Z</time>
      </trkpt>
      <trkpt lat="42.24101" lon="0.82884">
        <ele>1387.8</ele>
        <time>2023-07-23T08:46:23Z</time>
      </trkpt>
      <trkpt lat="42.24101" lon="0.82886">
        <ele>1388.6</ele>
        <time>2023-07-23T08:46:24Z</time>
      </trkpt>
      <trkpt lat="42.24101" lon="0.82886">
        <ele>1389.2</ele>
        <time>2023-07-23T08:46:25Z</time>
      </trkpt>
      <trkpt lat="42.24102" lon="0.82891">
        <ele>1389.4</ele>
        <time>2023-07-23T08:46:26Z</time>
      </trkpt>
      <trkpt lat="42.24102" lon="0.82891">
        <ele>1390</ele>
        <time>2023-07-23T08:46:27Z</time>
      </trkpt>
      <trkpt lat="42.24102" lon="0.82895">
        <ele>1390.2</ele>
        <time>2023-07-23T08:46:28Z</time>
      </trkpt>
      <trkpt lat="42.24101" lon="0.82898">
        <ele>1390.8</ele>
        <time>2023-07-23T08:46:29Z</time>
      </trkpt>
      <trkpt lat="42.24101" lon="0.829">
        <ele>1391</ele>
        <time>2023-07-23T08:46:30Z</time>
      </trkpt>
      <trkpt lat="42.24101" lon="0.82902">
        <ele>1391.2</ele>
        <time>2023-07-23T08:46:31Z</time>
      </trkpt>
      <trkpt lat="42.24102" lon="0.82904">
        <ele>1391.6</ele>
        <time>2023-07-23T08:46:32Z</time>
      </trkpt>
      <trkpt lat="42.24102" lon="0.82906">
        <ele>1391.8</ele>
        <time>2023-07-23T08:46:33Z</time>
      </trkpt>
      <trkpt lat="42.24102" lon="0.82909">
        <ele>1392.4</ele>
        <time>2023-07-23T08:46:34Z</time>
      </trkpt>
      <trkpt lat="42.24102" lon="0.82911">
        <ele>1392.4</ele>
        <time>2023-07-23T08:46:35Z</time>
      </trkpt>
      <trkpt lat="42.24102" lon="0.82913">
        <ele>1392.6</ele>
        <time>2023-07-23T08:46:36Z</time>
      </trkpt>
      <trkpt lat="42.24101" lon="0.82915">
        <ele>1393.4</ele>
        <time>2023-07-23T08:46:37Z</time>
      </trkpt>
      <trkpt lat="42.24101" lon="0.82918">
        <ele>1393.6</ele>
        <time>2023-07-23T08:46:38Z</time>
      </trkpt>
      <trkpt lat="42.24101" lon="0.8292">
        <ele>1394.2</ele>
        <time>2023-07-23T08:46:39Z</time>
      </trkpt>
      <trkpt lat="42.24101" lon="0.82922">
        <ele>1394.6</ele>
        <time>2023-07-23T08:46:40Z</time>
      </trkpt>
      <trkpt lat="42.24101" lon="0.82924">
        <ele>1395</ele>
        <time>2023-07-23T08:46:41Z</time>
      </trkpt>
      <trkpt lat="42.24102" lon="0.82926">
        <ele>1395.2</ele>
        <time>2023-07-23T08:46:42Z</time>
      </trkpt>
      <trkpt lat="42.24102" lon="0.82929">
        <ele>1395.6</ele>
        <time>2023-07-23T08:46:43Z</time>
      </trkpt>
      <trkpt lat="42.24102" lon="0.82931">
        <ele>1396</ele>
        <time>2023-07-23T08:46:44Z</time>
      </trkpt>
      <trkpt lat="42.24102" lon="0.82933">
        <ele>1396.2</ele>
        <time>2023-07-23T08:46:45Z</time>
      </trkpt>
      <trkpt lat="42.24102" lon="0.82933">
        <ele>1396.4</ele>
        <time>2023-07-23T08:46:46Z</time>
      </trkpt>
      <trkpt lat="42.24102" lon="0.82938">
        <ele>1396.6</ele>
        <time>2023-07-23T08:46:47Z</time>
      </trkpt>
      <trkpt lat="42.24101" lon="0.8294">
        <ele>1397.6</ele>
        <time>2023-07-23T08:46:48Z</time>
      </trkpt>
      <trkpt lat="42.24101" lon="0.82943">
        <ele>1398.2</ele>
        <time>2023-07-23T08:46:49Z</time>
      </trkpt>
      <trkpt lat="42.24101" lon="0.82945">
        <ele>1398.4</ele>
        <time>2023-07-23T08:46:50Z</time>
      </trkpt>
      <trkpt lat="42.24102" lon="0.82948">
        <ele>1398.6</ele>
        <time>2023-07-23T08:46:51Z</time>
      </trkpt>
      <trkpt lat="42.24102" lon="0.8295">
        <ele>1398.8</ele>
        <time>2023-07-23T08:46:52Z</time>
      </trkpt>
      <trkpt lat="42.24102" lon="0.8295">
        <ele>1399.4</ele>
        <time>2023-07-23T08:46:53Z</time>
      </trkpt>
      <trkpt lat="42.24102" lon="0.82954">
        <ele>1399.8</ele>
        <time>2023-07-23T08:46:54Z</time>
      </trkpt>
      <trkpt lat="42.24102" lon="0.82957">
        <ele>1400.6</ele>
        <time>2023-07-23T08:46:55Z</time>
      </trkpt>
      <trkpt lat="42.24102" lon="0.82959">
        <ele>1401.2</ele>
        <time>2023-07-23T08:46:56Z</time>
      </trkpt>
      <trkpt lat="42.24102" lon="0.82959">
        <ele>1401.6</ele>
        <time>2023-07-23T08:46:57Z</time>
      </trkpt>
      <trkpt lat="42.24101" lon="0.82965">
        <ele>1402.2</ele>
        <time>2023-07-23T08:46:58Z</time>
      </trkpt>
      <trkpt lat="42.24101" lon="0.82967">
        <ele>1402.4</ele>
        <time>2023-07-23T08:46:59Z</time>
      </trkpt>
      <trkpt lat="42.24101" lon="0.8297">
        <ele>1402.6</ele>
        <time>2023-07-23T08:47:00Z</time>
      </trkpt>
      <trkpt lat="42.24101" lon="0.82974">
        <ele>1402.8</ele>
        <time>2023-07-23T08:47:01Z</time>
      </trkpt>
      <trkpt lat="42.24101" lon="0.82974">
        <ele>1402.8</ele>
        <time>2023-07-23T08:47:02Z</time>
      </trkpt>
      <trkpt lat="42.24102" lon="0.82977">
        <ele>1402.8</ele>
        <time>2023-07-23T08:47:03Z</time>
      </trkpt>
      <trkpt lat="42.24102" lon="0.82981">
        <ele>1403</ele>
        <time>2023-07-23T08:47:04Z</time>
      </trkpt>
      <trkpt lat="42.24102" lon="0.82989">
        <ele>1403</ele>
        <time>2023-07-23T08:47:05Z</time>
      </trkpt>
      <trkpt lat="42.24102" lon="0.82994">
        <ele>1403</ele>
        <time>2023-07-23T08:47:06Z</time>
      </trkpt>
      <trkpt lat="42.24102" lon="0.82994">
        <ele>1403.2</ele>
        <time>2023-07-23T08:47:07Z</time>
      </trkpt>
      <trkpt lat="42.24103" lon="0.82998">
        <ele>1403.2</ele>
        <time>2023-07-23T08:47:08Z</time>
      </trkpt>
      <trkpt lat="42.24103" lon="0.83002">
        <ele>1403.2</ele>
        <time>2023-07-23T08:47:09Z</time>
      </trkpt>
      <trkpt lat="42.24103" lon="0.8301">
        <ele>1403.6</ele>
        <time>2023-07-23T08:47:10Z</time>
      </trkpt>
      <trkpt lat="42.24103" lon="0.83013">
        <ele>1403.4</ele>
        <time>2023-07-23T08:47:11Z</time>
      </trkpt>
      <trkpt lat="42.24103" lon="0.83016">
        <ele>1403.4</ele>
        <time>2023-07-23T08:47:12Z</time>
      </trkpt>
      <trkpt lat="42.24103" lon="0.83016">
        <ele>1403.4</ele>
        <time>2023-07-23T08:47:13Z</time>
      </trkpt>
      <trkpt lat="42.24104" lon="0.83019">
        <ele>1403.4</ele>
        <time>2023-07-23T08:47:14Z</time>
      </trkpt>
      <trkpt lat="42.24104" lon="0.83024">
        <ele>1403.6</ele>
        <time>2023-07-23T08:47:15Z</time>
      </trkpt>
      <trkpt lat="42.24104" lon="0.83024">
        <ele>1403.4</ele>
        <time>2023-07-23T08:47:16Z</time>
      </trkpt>
      <trkpt lat="42.24104" lon="0.83029">
        <ele>1403.4</ele>
        <time>2023-07-23T08:47:17Z</time>
      </trkpt>
      <trkpt lat="42.24104" lon="0.83029">
        <ele>1403.6</ele>
        <time>2023-07-23T08:47:18Z</time>
      </trkpt>
      <trkpt lat="42.24104" lon="0.83033">
        <ele>1403.8</ele>
        <time>2023-07-23T08:47:19Z</time>
      </trkpt>
      <trkpt lat="42.24104" lon="0.83036">
        <ele>1404</ele>
        <time>2023-07-23T08:47:20Z</time>
      </trkpt>
      <trkpt lat="42.24104" lon="0.83039">
        <ele>1404</ele>
        <time>2023-07-23T08:47:21Z</time>
      </trkpt>
      <trkpt lat="42.24104" lon="0.83041">
        <ele>1404</ele>
        <time>2023-07-23T08:47:22Z</time>
      </trkpt>
      <trkpt lat="42.24104" lon="0.83041">
        <ele>1404.2</ele>
        <time>2023-07-23T08:47:23Z</time>
      </trkpt>
      <trkpt lat="42.24105" lon="0.83044">
        <ele>1404.2</ele>
        <time>2023-07-23T08:47:24Z</time>
      </trkpt>
      <trkpt lat="42.24105" lon="0.83047">
        <ele>1404.4</ele>
        <time>2023-07-23T08:47:25Z</time>
      </trkpt>
      <trkpt lat="42.24105" lon="0.83053">
        <ele>1404.4</ele>
        <time>2023-07-23T08:47:26Z</time>
      </trkpt>
      <trkpt lat="42.24105" lon="0.83056">
        <ele>1404.4</ele>
        <time>2023-07-23T08:47:27Z</time>
      </trkpt>
      <trkpt lat="42.24105" lon="0.83056">
        <ele>1404.4</ele>
        <time>2023-07-23T08:47:28Z</time>
      </trkpt>
      <trkpt lat="42.24105" lon="0.83059">
        <ele>1404.4</ele>
        <time>2023-07-23T08:47:29Z</time>
      </trkpt>
      <trkpt lat="42.24106" lon="0.83067">
        <ele>1404.4</ele>
        <time>2023-07-23T08:47:30Z</time>
      </trkpt>
      <trkpt lat="42.24106" lon="0.83071">
        <ele>1404.2</ele>
        <time>2023-07-23T08:47:31Z</time>
      </trkpt>
      <trkpt lat="42.24106" lon="0.83071">
        <ele>1404.2</ele>
        <time>2023-07-23T08:47:32Z</time>
      </trkpt>
      <trkpt lat="42.24107" lon="0.83079">
        <ele>1404.2</ele>
        <time>2023-07-23T08:47:33Z</time>
      </trkpt>
      <trkpt lat="42.24107" lon="0.83079">
        <ele>1403.8</ele>
        <time>2023-07-23T08:47:34Z</time>
      </trkpt>
      <trkpt lat="42.24107" lon="0.83082">
        <ele>1403.6</ele>
        <time>2023-07-23T08:47:35Z</time>
      </trkpt>
      <trkpt lat="42.24107" lon="0.83085">
        <ele>1403.2</ele>
        <time>2023-07-23T08:47:36Z</time>
      </trkpt>
      <trkpt lat="42.24106" lon="0.83092">
        <ele>1402.8</ele>
        <time>2023-07-23T08:47:37Z</time>
      </trkpt>
      <trkpt lat="42.24105" lon="0.83096">
        <ele>1402.8</ele>
        <time>2023-07-23T08:47:38Z</time>
      </trkpt>
      <trkpt lat="42.24105" lon="0.83096">
        <ele>1402.4</ele>
        <time>2023-07-23T08:47:39Z</time>
      </trkpt>
      <trkpt lat="42.24105" lon="0.831">
        <ele>1402.2</ele>
        <time>2023-07-23T08:47:40Z</time>
      </trkpt>
      <trkpt lat="42.24104" lon="0.83104">
        <ele>1402</ele>
        <time>2023-07-23T08:47:41Z</time>
      </trkpt>
      <trkpt lat="42.24102" lon="0.83112">
        <ele>1401.8</ele>
        <time>2023-07-23T08:47:42Z</time>
      </trkpt>
      <trkpt lat="42.24101" lon="0.83117">
        <ele>1401.2</ele>
        <time>2023-07-23T08:47:43Z</time>
      </trkpt>
      <trkpt lat="42.241" lon="0.83122">
        <ele>1400.4</ele>
        <time>2023-07-23T08:47:44Z</time>
      </trkpt>
      <trkpt lat="42.241" lon="0.83122">
        <ele>1400.2</ele>
        <time>2023-07-23T08:47:45Z</time>
      </trkpt>
      <trkpt lat="42.241" lon="0.83127">
        <ele>1399.6</ele>
        <time>2023-07-23T08:47:46Z</time>
      </trkpt>
      <trkpt lat="42.24099" lon="0.8314">
        <ele>1399.4</ele>
        <time>2023-07-23T08:47:47Z</time>
      </trkpt>
      <trkpt lat="42.24099" lon="0.8314">
        <ele>1398</ele>
        <time>2023-07-23T08:47:48Z</time>
      </trkpt>
      <trkpt lat="42.24099" lon="0.83155">
        <ele>1396.8</ele>
        <time>2023-07-23T08:47:49Z</time>
      </trkpt>
      <trkpt lat="42.24099" lon="0.83155">
        <ele>1396.2</ele>
        <time>2023-07-23T08:47:50Z</time>
      </trkpt>
      <trkpt lat="42.241" lon="0.83163">
        <ele>1395.4</ele>
        <time>2023-07-23T08:47:51Z</time>
      </trkpt>
      <trkpt lat="42.24104" lon="0.83177">
        <ele>1395</ele>
        <time>2023-07-23T08:47:52Z</time>
      </trkpt>
      <trkpt lat="42.24106" lon="0.83183">
        <ele>1393.8</ele>
        <time>2023-07-23T08:47:53Z</time>
      </trkpt>
      <trkpt lat="42.24108" lon="0.83188">
        <ele>1393.2</ele>
        <time>2023-07-23T08:47:54Z</time>
      </trkpt>
      <trkpt lat="42.24111" lon="0.83192">
        <ele>1392.6</ele>
        <time>2023-07-23T08:47:55Z</time>
      </trkpt>
      <trkpt lat="42.24115" lon="0.83194">
        <ele>1392.4</ele>
        <time>2023-07-23T08:47:56Z</time>
      </trkpt>
      <trkpt lat="42.24119" lon="0.83195">
        <ele>1392.2</ele>
        <time>2023-07-23T08:47:57Z</time>
      </trkpt>
      <trkpt lat="42.24124" lon="0.83196">
        <ele>1392</ele>
        <time>2023-07-23T08:47:58Z</time>
      </trkpt>
      <trkpt lat="42.24128" lon="0.83198">
        <ele>1391.8</ele>
        <time>2023-07-23T08:47:59Z</time>
      </trkpt>
      <trkpt lat="42.24132" lon="0.83199">
        <ele>1390.2</ele>
        <time>2023-07-23T08:48:00Z</time>
      </trkpt>
      <trkpt lat="42.24136" lon="0.832">
        <ele>1389.6</ele>
        <time>2023-07-23T08:48:01Z</time>
      </trkpt>
      <trkpt lat="42.24139" lon="0.83201">
        <ele>1389.4</ele>
        <time>2023-07-23T08:48:02Z</time>
      </trkpt>
      <trkpt lat="42.24143" lon="0.83202">
        <ele>1389</ele>
        <time>2023-07-23T08:48:03Z</time>
      </trkpt>
      <trkpt lat="42.24147" lon="0.83203">
        <ele>1388.8</ele>
        <time>2023-07-23T08:48:04Z</time>
      </trkpt>
      <trkpt lat="42.24152" lon="0.83203">
        <ele>1388</ele>
        <time>2023-07-23T08:48:05Z</time>
      </trkpt>
      <trkpt lat="42.24158" lon="0.83205">
        <ele>1387.6</ele>
        <time>2023-07-23T08:48:06Z</time>
      </trkpt>
      <trkpt lat="42.24164" lon="0.83207">
        <ele>1387</ele>
        <time>2023-07-23T08:48:07Z</time>
      </trkpt>
      <trkpt lat="42.24169" lon="0.83209">
        <ele>1386.2</ele>
        <time>2023-07-23T08:48:08Z</time>
      </trkpt>
      <trkpt lat="42.24176" lon="0.83213">
        <ele>1386</ele>
        <time>2023-07-23T08:48:09Z</time>
      </trkpt>
      <trkpt lat="42.24183" lon="0.83216">
        <ele>1384.2</ele>
        <time>2023-07-23T08:48:10Z</time>
      </trkpt>
      <trkpt lat="42.2419" lon="0.83219">
        <ele>1383.8</ele>
        <time>2023-07-23T08:48:11Z</time>
      </trkpt>
      <trkpt lat="42.24198" lon="0.83223">
        <ele>1383</ele>
        <time>2023-07-23T08:48:12Z</time>
      </trkpt>
      <trkpt lat="42.24203" lon="0.83226">
        <ele>1382.8</ele>
        <time>2023-07-23T08:48:13Z</time>
      </trkpt>
      <trkpt lat="42.2421" lon="0.8323">
        <ele>1382</ele>
        <time>2023-07-23T08:48:14Z</time>
      </trkpt>
      <trkpt lat="42.24217" lon="0.83234">
        <ele>1381.2</ele>
        <time>2023-07-23T08:48:15Z</time>
      </trkpt>
      <trkpt lat="42.24226" lon="0.83238">
        <ele>1380.8</ele>
        <time>2023-07-23T08:48:16Z</time>
      </trkpt>
      <trkpt lat="42.24233" lon="0.8324">
        <ele>1379.6</ele>
        <time>2023-07-23T08:48:17Z</time>
      </trkpt>
      <trkpt lat="42.2424" lon="0.83243">
        <ele>1379</ele>
        <time>2023-07-23T08:48:18Z</time>
      </trkpt>
      <trkpt lat="42.24248" lon="0.83245">
        <ele>1377.2</ele>
        <time>2023-07-23T08:48:19Z</time>
      </trkpt>
      <trkpt lat="42.24255" lon="0.83248">
        <ele>1376</ele>
        <time>2023-07-23T08:48:20Z</time>
      </trkpt>
      <trkpt lat="42.24262" lon="0.83251">
        <ele>1374.8</ele>
        <time>2023-07-23T08:48:21Z</time>
      </trkpt>
      <trkpt lat="42.24268" lon="0.83254">
        <ele>1373.6</ele>
        <time>2023-07-23T08:48:22Z</time>
      </trkpt>
      <trkpt lat="42.24274" lon="0.83257">
        <ele>1373.2</ele>
        <time>2023-07-23T08:48:23Z</time>
      </trkpt>
      <trkpt lat="42.24279" lon="0.83259">
        <ele>1372.2</ele>
        <time>2023-07-23T08:48:24Z</time>
      </trkpt>
      <trkpt lat="42.24283" lon="0.83259">
        <ele>1372</ele>
        <time>2023-07-23T08:48:25Z</time>
      </trkpt>
      <trkpt lat="42.24286" lon="0.8326">
        <ele>1371.2</ele>
        <time>2023-07-23T08:48:26Z</time>
      </trkpt>
      <trkpt lat="42.24289" lon="0.8326">
        <ele>1370.8</ele>
        <time>2023-07-23T08:48:27Z</time>
      </trkpt>
      <trkpt lat="42.24291" lon="0.83259">
        <ele>1370.8</ele>
        <time>2023-07-23T08:48:28Z</time>
      </trkpt>
      <trkpt lat="42.24293" lon="0.83259">
        <ele>1370.4</ele>
        <time>2023-07-23T08:48:29Z</time>
      </trkpt>
      <trkpt lat="42.24295" lon="0.83258">
        <ele>1370.4</ele>
        <time>2023-07-23T08:48:30Z</time>
      </trkpt>
      <trkpt lat="42.24297" lon="0.83256">
        <ele>1370.4</ele>
        <time>2023-07-23T08:48:31Z</time>
      </trkpt>
      <trkpt lat="42.24299" lon="0.83254">
        <ele>1370.8</ele>
        <time>2023-07-23T08:48:32Z</time>
      </trkpt>
      <trkpt lat="42.24301" lon="0.83252">
        <ele>1370.8</ele>
        <time>2023-07-23T08:48:33Z</time>
      </trkpt>
      <trkpt lat="42.24304" lon="0.8325">
        <ele>1371</ele>
        <time>2023-07-23T08:48:34Z</time>
      </trkpt>
      <trkpt lat="42.24306" lon="0.83248">
        <ele>1371.2</ele>
        <time>2023-07-23T08:48:35Z</time>
      </trkpt>
      <trkpt lat="42.24308" lon="0.83246">
        <ele>1371.4</ele>
        <time>2023-07-23T08:48:36Z</time>
      </trkpt>
      <trkpt lat="42.24311" lon="0.83244">
        <ele>1371.4</ele>
        <time>2023-07-23T08:48:37Z</time>
      </trkpt>
      <trkpt lat="42.24313" lon="0.83242">
        <ele>1371.6</ele>
        <time>2023-07-23T08:48:38Z</time>
      </trkpt>
      <trkpt lat="42.24314" lon="0.8324">
        <ele>1371.8</ele>
        <time>2023-07-23T08:48:39Z</time>
      </trkpt>
      <trkpt lat="42.24317" lon="0.83237">
        <ele>1372</ele>
        <time>2023-07-23T08:48:40Z</time>
      </trkpt>
      <trkpt lat="42.24319" lon="0.83235">
        <ele>1372.2</ele>
        <time>2023-07-23T08:48:41Z</time>
      </trkpt>
      <trkpt lat="42.24321" lon="0.83233">
        <ele>1372.2</ele>
        <time>2023-07-23T08:48:42Z</time>
      </trkpt>
      <trkpt lat="42.24323" lon="0.83231">
        <ele>1372.4</ele>
        <time>2023-07-23T08:48:43Z</time>
      </trkpt>
      <trkpt lat="42.24326" lon="0.83229">
        <ele>1372.4</ele>
        <time>2023-07-23T08:48:44Z</time>
      </trkpt>
      <trkpt lat="42.24327" lon="0.83228">
        <ele>1372.6</ele>
        <time>2023-07-23T08:48:45Z</time>
      </trkpt>
      <trkpt lat="42.2433" lon="0.83227">
        <ele>1372.8</ele>
        <time>2023-07-23T08:48:46Z</time>
      </trkpt>
      <trkpt lat="42.24332" lon="0.83225">
        <ele>1372.8</ele>
        <time>2023-07-23T08:48:47Z</time>
      </trkpt>
      <trkpt lat="42.24335" lon="0.83224">
        <ele>1372.8</ele>
        <time>2023-07-23T08:48:48Z</time>
      </trkpt>
      <trkpt lat="42.24337" lon="0.83223">
        <ele>1373</ele>
        <time>2023-07-23T08:48:49Z</time>
      </trkpt>
      <trkpt lat="42.24339" lon="0.83222">
        <ele>1373.8</ele>
        <time>2023-07-23T08:48:50Z</time>
      </trkpt>
      <trkpt lat="42.24341" lon="0.83222">
        <ele>1374.4</ele>
        <time>2023-07-23T08:48:51Z</time>
      </trkpt>
      <trkpt lat="42.24344" lon="0.8322">
        <ele>1374.6</ele>
        <time>2023-07-23T08:48:52Z</time>
      </trkpt>
      <trkpt lat="42.24345" lon="0.83219">
        <ele>1375</ele>
        <time>2023-07-23T08:48:53Z</time>
      </trkpt>
      <trkpt lat="42.24346" lon="0.83217">
        <ele>1375.2</ele>
        <time>2023-07-23T08:48:54Z</time>
      </trkpt>
      <trkpt lat="42.24347" lon="0.83215">
        <ele>1376</ele>
        <time>2023-07-23T08:48:55Z</time>
      </trkpt>
      <trkpt lat="42.24349" lon="0.83213">
        <ele>1376.8</ele>
        <time>2023-07-23T08:48:56Z</time>
      </trkpt>
      <trkpt lat="42.2435" lon="0.83212">
        <ele>1377.2</ele>
        <time>2023-07-23T08:48:57Z</time>
      </trkpt>
      <trkpt lat="42.24352" lon="0.83211">
        <ele>1377.8</ele>
        <time>2023-07-23T08:48:58Z</time>
      </trkpt>
      <trkpt lat="42.24353" lon="0.8321">
        <ele>1378.2</ele>
        <time>2023-07-23T08:48:59Z</time>
      </trkpt>
      <trkpt lat="42.24355" lon="0.8321">
        <ele>1379</ele>
        <time>2023-07-23T08:49:00Z</time>
      </trkpt>
      <trkpt lat="42.24357" lon="0.83209">
        <ele>1379.2</ele>
        <time>2023-07-23T08:49:01Z</time>
      </trkpt>
      <trkpt lat="42.24358" lon="0.83208">
        <ele>1379.6</ele>
        <time>2023-07-23T08:49:02Z</time>
      </trkpt>
      <trkpt lat="42.2436" lon="0.83208">
        <ele>1380.4</ele>
        <time>2023-07-23T08:49:03Z</time>
      </trkpt>
      <trkpt lat="42.24362" lon="0.83207">
        <ele>1380.6</ele>
        <time>2023-07-23T08:49:04Z</time>
      </trkpt>
      <trkpt lat="42.24364" lon="0.83207">
        <ele>1381</ele>
        <time>2023-07-23T08:49:05Z</time>
      </trkpt>
      <trkpt lat="42.24366" lon="0.83207">
        <ele>1381.2</ele>
        <time>2023-07-23T08:49:06Z</time>
      </trkpt>
      <trkpt lat="42.24367" lon="0.83208">
        <ele>1381.8</ele>
        <time>2023-07-23T08:49:07Z</time>
      </trkpt>
      <trkpt lat="42.24369" lon="0.83209">
        <ele>1382.6</ele>
        <time>2023-07-23T08:49:08Z</time>
      </trkpt>
      <trkpt lat="42.24371" lon="0.8321">
        <ele>1383</ele>
        <time>2023-07-23T08:49:09Z</time>
      </trkpt>
      <trkpt lat="42.24372" lon="0.83211">
        <ele>1383.6</ele>
        <time>2023-07-23T08:49:10Z</time>
      </trkpt>
      <trkpt lat="42.24374" lon="0.83212">
        <ele>1384</ele>
        <time>2023-07-23T08:49:11Z</time>
      </trkpt>
      <trkpt lat="42.24376" lon="0.83213">
        <ele>1384.4</ele>
        <time>2023-07-23T08:49:12Z</time>
      </trkpt>
      <trkpt lat="42.24377" lon="0.83215">
        <ele>1384.8</ele>
        <time>2023-07-23T08:49:13Z</time>
      </trkpt>
      <trkpt lat="42.24378" lon="0.83217">
        <ele>1385.4</ele>
        <time>2023-07-23T08:49:14Z</time>
      </trkpt>
      <trkpt lat="42.24379" lon="0.83219">
        <ele>1386</ele>
        <time>2023-07-23T08:49:15Z</time>
      </trkpt>
      <trkpt lat="42.24379" lon="0.8322">
        <ele>1386.4</ele>
        <time>2023-07-23T08:49:16Z</time>
      </trkpt>
      <trkpt lat="42.24381" lon="0.83222">
        <ele>1387.2</ele>
        <time>2023-07-23T08:49:17Z</time>
      </trkpt>
      <trkpt lat="42.24382" lon="0.83224">
        <ele>1387.6</ele>
        <time>2023-07-23T08:49:18Z</time>
      </trkpt>
      <trkpt lat="42.24382" lon="0.83226">
        <ele>1388</ele>
        <time>2023-07-23T08:49:19Z</time>
      </trkpt>
      <trkpt lat="42.24383" lon="0.83228">
        <ele>1389.2</ele>
        <time>2023-07-23T08:49:20Z</time>
      </trkpt>
      <trkpt lat="42.24383" lon="0.8323">
        <ele>1389.6</ele>
        <time>2023-07-23T08:49:21Z</time>
      </trkpt>
      <trkpt lat="42.24384" lon="0.83232">
        <ele>1390.2</ele>
        <time>2023-07-23T08:49:22Z</time>
      </trkpt>
      <trkpt lat="42.24386" lon="0.83235">
        <ele>1390.4</ele>
        <time>2023-07-23T08:49:23Z</time>
      </trkpt>
      <trkpt lat="42.24387" lon="0.83237">
        <ele>1391</ele>
        <time>2023-07-23T08:49:24Z</time>
      </trkpt>
      <trkpt lat="42.24388" lon="0.83238">
        <ele>1391.2</ele>
        <time>2023-07-23T08:49:25Z</time>
      </trkpt>
      <trkpt lat="42.2439" lon="0.8324">
        <ele>1391.8</ele>
        <time>2023-07-23T08:49:26Z</time>
      </trkpt>
      <trkpt lat="42.24392" lon="0.83241">
        <ele>1391.8</ele>
        <time>2023-07-23T08:49:27Z</time>
      </trkpt>
      <trkpt lat="42.24393" lon="0.83242">
        <ele>1392</ele>
        <time>2023-07-23T08:49:28Z</time>
      </trkpt>
      <trkpt lat="42.24395" lon="0.83243">
        <ele>1393</ele>
        <time>2023-07-23T08:49:29Z</time>
      </trkpt>
      <trkpt lat="42.24397" lon="0.83244">
        <ele>1393</ele>
        <time>2023-07-23T08:49:30Z</time>
      </trkpt>
      <trkpt lat="42.24399" lon="0.83245">
        <ele>1393.6</ele>
        <time>2023-07-23T08:49:31Z</time>
      </trkpt>
      <trkpt lat="42.24401" lon="0.83246">
        <ele>1393.6</ele>
        <time>2023-07-23T08:49:32Z</time>
      </trkpt>
      <trkpt lat="42.24403" lon="0.83246">
        <ele>1393.8</ele>
        <time>2023-07-23T08:49:33Z</time>
      </trkpt>
      <trkpt lat="42.24405" lon="0.83247">
        <ele>1394.2</ele>
        <time>2023-07-23T08:49:34Z</time>
      </trkpt>
      <trkpt lat="42.24406" lon="0.83247">
        <ele>1394.2</ele>
        <time>2023-07-23T08:49:35Z</time>
      </trkpt>
      <trkpt lat="42.24408" lon="0.83248">
        <ele>1395</ele>
        <time>2023-07-23T08:49:36Z</time>
      </trkpt>
      <trkpt lat="42.2441" lon="0.83248">
        <ele>1395.4</ele>
        <time>2023-07-23T08:49:37Z</time>
      </trkpt>
      <trkpt lat="42.24412" lon="0.83248">
        <ele>1396</ele>
        <time>2023-07-23T08:49:38Z</time>
      </trkpt>
      <trkpt lat="42.24413" lon="0.83248">
        <ele>1396.2</ele>
        <time>2023-07-23T08:49:39Z</time>
      </trkpt>
      <trkpt lat="42.24415" lon="0.83247">
        <ele>1396.4</ele>
        <time>2023-07-23T08:49:40Z</time>
      </trkpt>
      <trkpt lat="42.24417" lon="0.83247">
        <ele>1396.8</ele>
        <time>2023-07-23T08:49:41Z</time>
      </trkpt>
      <trkpt lat="42.24419" lon="0.83246">
        <ele>1396.8</ele>
        <time>2023-07-23T08:49:42Z</time>
      </trkpt>
      <trkpt lat="42.24421" lon="0.83246">
        <ele>1397.4</ele>
        <time>2023-07-23T08:49:43Z</time>
      </trkpt>
      <trkpt lat="42.24423" lon="0.83246">
        <ele>1397.6</ele>
        <time>2023-07-23T08:49:44Z</time>
      </trkpt>
      <trkpt lat="42.24425" lon="0.83245">
        <ele>1397.6</ele>
        <time>2023-07-23T08:49:45Z</time>
      </trkpt>
      <trkpt lat="42.24427" lon="0.83245">
        <ele>1398</ele>
        <time>2023-07-23T08:49:46Z</time>
      </trkpt>
      <trkpt lat="42.24429" lon="0.83246">
        <ele>1398</ele>
        <time>2023-07-23T08:49:47Z</time>
      </trkpt>
      <trkpt lat="42.2443" lon="0.83246">
        <ele>1398.6</ele>
        <time>2023-07-23T08:49:48Z</time>
      </trkpt>
      <trkpt lat="42.24432" lon="0.83246">
        <ele>1398.8</ele>
        <time>2023-07-23T08:49:49Z</time>
      </trkpt>
      <trkpt lat="42.24434" lon="0.83246">
        <ele>1399.2</ele>
        <time>2023-07-23T08:49:50Z</time>
      </trkpt>
      <trkpt lat="42.24436" lon="0.83246">
        <ele>1399.2</ele>
        <time>2023-07-23T08:49:51Z</time>
      </trkpt>
      <trkpt lat="42.24438" lon="0.83246">
        <ele>1399.4</ele>
        <time>2023-07-23T08:49:52Z</time>
      </trkpt>
      <trkpt lat="42.2444" lon="0.83246">
        <ele>1399.8</ele>
        <time>2023-07-23T08:49:53Z</time>
      </trkpt>
      <trkpt lat="42.24441" lon="0.83246">
        <ele>1400.2</ele>
        <time>2023-07-23T08:49:54Z</time>
      </trkpt>
      <trkpt lat="42.24443" lon="0.83246">
        <ele>1400.2</ele>
        <time>2023-07-23T08:49:55Z</time>
      </trkpt>
      <trkpt lat="42.24446" lon="0.83245">
        <ele>1400.8</ele>
        <time>2023-07-23T08:49:56Z</time>
      </trkpt>
      <trkpt lat="42.24448" lon="0.83245">
        <ele>1400.6</ele>
        <time>2023-07-23T08:49:57Z</time>
      </trkpt>
      <trkpt lat="42.2445" lon="0.83245">
        <ele>1401</ele>
        <time>2023-07-23T08:49:58Z</time>
      </trkpt>
      <trkpt lat="42.24452" lon="0.83244">
        <ele>1401</ele>
        <time>2023-07-23T08:49:59Z</time>
      </trkpt>
      <trkpt lat="42.24454" lon="0.83244">
        <ele>1401.4</ele>
        <time>2023-07-23T08:50:00Z</time>
      </trkpt>
      <trkpt lat="42.24456" lon="0.83243">
        <ele>1401.4</ele>
        <time>2023-07-23T08:50:01Z</time>
      </trkpt>
      <trkpt lat="42.24458" lon="0.83242">
        <ele>1401.8</ele>
        <time>2023-07-23T08:50:02Z</time>
      </trkpt>
      <trkpt lat="42.2446" lon="0.83242">
        <ele>1402</ele>
        <time>2023-07-23T08:50:03Z</time>
      </trkpt>
      <trkpt lat="42.24462" lon="0.83241">
        <ele>1402.2</ele>
        <time>2023-07-23T08:50:04Z</time>
      </trkpt>
      <trkpt lat="42.24464" lon="0.8324">
        <ele>1402.2</ele>
        <time>2023-07-23T08:50:05Z</time>
      </trkpt>
      <trkpt lat="42.24466" lon="0.8324">
        <ele>1402.4</ele>
        <time>2023-07-23T08:50:06Z</time>
      </trkpt>
      <trkpt lat="42.24468" lon="0.83239">
        <ele>1402.6</ele>
        <time>2023-07-23T08:50:07Z</time>
      </trkpt>
      <trkpt lat="42.2447" lon="0.83239">
        <ele>1402.6</ele>
        <time>2023-07-23T08:50:08Z</time>
      </trkpt>
      <trkpt lat="42.24472" lon="0.83238">
        <ele>1402.8</ele>
        <time>2023-07-23T08:50:09Z</time>
      </trkpt>
      <trkpt lat="42.24474" lon="0.83237">
        <ele>1403</ele>
        <time>2023-07-23T08:50:10Z</time>
      </trkpt>
      <trkpt lat="42.24476" lon="0.83237">
        <ele>1403.2</ele>
        <time>2023-07-23T08:50:11Z</time>
      </trkpt>
      <trkpt lat="42.24479" lon="0.83236">
        <ele>1403.4</ele>
        <time>2023-07-23T08:50:12Z</time>
      </trkpt>
      <trkpt lat="42.2448" lon="0.83235">
        <ele>1403.6</ele>
        <time>2023-07-23T08:50:13Z</time>
      </trkpt>
      <trkpt lat="42.24482" lon="0.83235">
        <ele>1404.4</ele>
        <time>2023-07-23T08:50:14Z</time>
      </trkpt>
      <trkpt lat="42.24484" lon="0.83234">
        <ele>1405</ele>
        <time>2023-07-23T08:50:15Z</time>
      </trkpt>
      <trkpt lat="42.24485" lon="0.83233">
        <ele>1405.2</ele>
        <time>2023-07-23T08:50:16Z</time>
      </trkpt>
      <trkpt lat="42.24487" lon="0.83232">
        <ele>1405.8</ele>
        <time>2023-07-23T08:50:17Z</time>
      </trkpt>
      <trkpt lat="42.24488" lon="0.83232">
        <ele>1406</ele>
        <time>2023-07-23T08:50:18Z</time>
      </trkpt>
      <trkpt lat="42.24489" lon="0.83231">
        <ele>1406.8</ele>
        <time>2023-07-23T08:50:19Z</time>
      </trkpt>
      <trkpt lat="42.24491" lon="0.83231">
        <ele>1407.4</ele>
        <time>2023-07-23T08:50:20Z</time>
      </trkpt>
      <trkpt lat="42.24492" lon="0.8323">
        <ele>1407.6</ele>
        <time>2023-07-23T08:50:21Z</time>
      </trkpt>
      <trkpt lat="42.24494" lon="0.8323">
        <ele>1408</ele>
        <time>2023-07-23T08:50:22Z</time>
      </trkpt>
      <trkpt lat="42.24494" lon="0.83229">
        <ele>1408.4</ele>
        <time>2023-07-23T08:50:23Z</time>
      </trkpt>
      <trkpt lat="42.24495" lon="0.83228">
        <ele>1408.8</ele>
        <time>2023-07-23T08:50:24Z</time>
      </trkpt>
      <trkpt lat="42.24495" lon="0.83228">
        <ele>1409</ele>
        <time>2023-07-23T08:50:25Z</time>
      </trkpt>
      <trkpt lat="42.24496" lon="0.83228">
        <ele>1409.6</ele>
        <time>2023-07-23T08:50:26Z</time>
      </trkpt>
      <trkpt lat="42.24496" lon="0.83228">
        <ele>1410</ele>
        <time>2023-07-23T08:50:27Z</time>
      </trkpt>
      <trkpt lat="42.24496" lon="0.83228">
        <ele>1410</ele>
        <time>2023-07-23T08:50:28Z</time>
      </trkpt>
      <trkpt lat="42.245" lon="0.83225">
        <ele>1410.6</ele>
        <time>2023-07-23T08:50:32Z</time>
      </trkpt>
      <trkpt lat="42.24501" lon="0.83225">
        <ele>1410.6</ele>
        <time>2023-07-23T08:50:33Z</time>
      </trkpt>
      <trkpt lat="42.24503" lon="0.83224">
        <ele>1410.8</ele>
        <time>2023-07-23T08:50:34Z</time>
      </trkpt>
      <trkpt lat="42.24504" lon="0.83223">
        <ele>1410.8</ele>
        <time>2023-07-23T08:50:35Z</time>
      </trkpt>
      <trkpt lat="42.24506" lon="0.83222">
        <ele>1411</ele>
        <time>2023-07-23T08:50:36Z</time>
      </trkpt>
      <trkpt lat="42.24507" lon="0.83222">
        <ele>1411</ele>
        <time>2023-07-23T08:50:37Z</time>
      </trkpt>
      <trkpt lat="42.24509" lon="0.83221">
        <ele>1411.4</ele>
        <time>2023-07-23T08:50:38Z</time>
      </trkpt>
      <trkpt lat="42.24511" lon="0.83221">
        <ele>1411.8</ele>
        <time>2023-07-23T08:50:39Z</time>
      </trkpt>
      <trkpt lat="42.24513" lon="0.83221">
        <ele>1411.8</ele>
        <time>2023-07-23T08:50:40Z</time>
      </trkpt>
      <trkpt lat="42.24514" lon="0.83221">
        <ele>1412.4</ele>
        <time>2023-07-23T08:50:41Z</time>
      </trkpt>
      <trkpt lat="42.24516" lon="0.83221">
        <ele>1412.6</ele>
        <time>2023-07-23T08:50:42Z</time>
      </trkpt>
      <trkpt lat="42.24518" lon="0.83221">
        <ele>1413.2</ele>
        <time>2023-07-23T08:50:43Z</time>
      </trkpt>
      <trkpt lat="42.2452" lon="0.83221">
        <ele>1413.6</ele>
        <time>2023-07-23T08:50:44Z</time>
      </trkpt>
      <trkpt lat="42.24522" lon="0.83221">
        <ele>1413.8</ele>
        <time>2023-07-23T08:50:45Z</time>
      </trkpt>
      <trkpt lat="42.24524" lon="0.83221">
        <ele>1414.2</ele>
        <time>2023-07-23T08:50:46Z</time>
      </trkpt>
      <trkpt lat="42.24526" lon="0.8322">
        <ele>1414.4</ele>
        <time>2023-07-23T08:50:47Z</time>
      </trkpt>
      <trkpt lat="42.24528" lon="0.8322">
        <ele>1415</ele>
        <time>2023-07-23T08:50:48Z</time>
      </trkpt>
      <trkpt lat="42.2453" lon="0.8322">
        <ele>1415.2</ele>
        <time>2023-07-23T08:50:49Z</time>
      </trkpt>
      <trkpt lat="42.24532" lon="0.8322">
        <ele>1415.4</ele>
        <time>2023-07-23T08:50:50Z</time>
      </trkpt>
      <trkpt lat="42.24534" lon="0.83219">
        <ele>1415.8</ele>
        <time>2023-07-23T08:50:51Z</time>
      </trkpt>
      <trkpt lat="42.24535" lon="0.83219">
        <ele>1416</ele>
        <time>2023-07-23T08:50:52Z</time>
      </trkpt>
      <trkpt lat="42.24537" lon="0.83219">
        <ele>1416.2</ele>
        <time>2023-07-23T08:50:53Z</time>
      </trkpt>
      <trkpt lat="42.24539" lon="0.83219">
        <ele>1416.4</ele>
        <time>2023-07-23T08:50:54Z</time>
      </trkpt>
      <trkpt lat="42.24541" lon="0.83218">
        <ele>1416.6</ele>
        <time>2023-07-23T08:50:55Z</time>
      </trkpt>
      <trkpt lat="42.24543" lon="0.83219">
        <ele>1417</ele>
        <time>2023-07-23T08:50:56Z</time>
      </trkpt>
      <trkpt lat="42.24545" lon="0.83219">
        <ele>1417</ele>
        <time>2023-07-23T08:50:57Z</time>
      </trkpt>
      <trkpt lat="42.24547" lon="0.83219">
        <ele>1417.4</ele>
        <time>2023-07-23T08:50:58Z</time>
      </trkpt>
      <trkpt lat="42.24549" lon="0.83219">
        <ele>1417.6</ele>
        <time>2023-07-23T08:50:59Z</time>
      </trkpt>
      <trkpt lat="42.2455" lon="0.83219">
        <ele>1418</ele>
        <time>2023-07-23T08:51:00Z</time>
      </trkpt>
      <trkpt lat="42.24552" lon="0.83219">
        <ele>1418</ele>
        <time>2023-07-23T08:51:01Z</time>
      </trkpt>
      <trkpt lat="42.24554" lon="0.8322">
        <ele>1418.4</ele>
        <time>2023-07-23T08:51:02Z</time>
      </trkpt>
      <trkpt lat="42.24556" lon="0.8322">
        <ele>1418.8</ele>
        <time>2023-07-23T08:51:03Z</time>
      </trkpt>
      <trkpt lat="42.24558" lon="0.8322">
        <ele>1419</ele>
        <time>2023-07-23T08:51:04Z</time>
      </trkpt>
      <trkpt lat="42.2456" lon="0.8322">
        <ele>1419.2</ele>
        <time>2023-07-23T08:51:05Z</time>
      </trkpt>
      <trkpt lat="42.24562" lon="0.8322">
        <ele>1419.4</ele>
        <time>2023-07-23T08:51:06Z</time>
      </trkpt>
      <trkpt lat="42.24564" lon="0.8322">
        <ele>1419.8</ele>
        <time>2023-07-23T08:51:07Z</time>
      </trkpt>
      <trkpt lat="42.24566" lon="0.8322">
        <ele>1420</ele>
        <time>2023-07-23T08:51:08Z</time>
      </trkpt>
      <trkpt lat="42.24568" lon="0.83221">
        <ele>1420</ele>
        <time>2023-07-23T08:51:09Z</time>
      </trkpt>
      <trkpt lat="42.2457" lon="0.83221">
        <ele>1420.4</ele>
        <time>2023-07-23T08:51:10Z</time>
      </trkpt>
      <trkpt lat="42.24572" lon="0.83221">
        <ele>1420.6</ele>
        <time>2023-07-23T08:51:11Z</time>
      </trkpt>
      <trkpt lat="42.24574" lon="0.83221">
        <ele>1420.8</ele>
        <time>2023-07-23T08:51:12Z</time>
      </trkpt>
      <trkpt lat="42.24576" lon="0.83222">
        <ele>1421</ele>
        <time>2023-07-23T08:51:13Z</time>
      </trkpt>
      <trkpt lat="42.24578" lon="0.83222">
        <ele>1421.6</ele>
        <time>2023-07-23T08:51:14Z</time>
      </trkpt>
      <trkpt lat="42.2458" lon="0.83223">
        <ele>1422</ele>
        <time>2023-07-23T08:51:15Z</time>
      </trkpt>
      <trkpt lat="42.24582" lon="0.83224">
        <ele>1422.2</ele>
        <time>2023-07-23T08:51:16Z</time>
      </trkpt>
      <trkpt lat="42.24584" lon="0.83225">
        <ele>1422.4</ele>
        <time>2023-07-23T08:51:17Z</time>
      </trkpt>
      <trkpt lat="42.24586" lon="0.83225">
        <ele>1422.6</ele>
        <time>2023-07-23T08:51:18Z</time>
      </trkpt>
      <trkpt lat="42.24588" lon="0.83226">
        <ele>1422.8</ele>
        <time>2023-07-23T08:51:19Z</time>
      </trkpt>
      <trkpt lat="42.2459" lon="0.83226">
        <ele>1423</ele>
        <time>2023-07-23T08:51:20Z</time>
      </trkpt>
      <trkpt lat="42.24593" lon="0.83227">
        <ele>1423.2</ele>
        <time>2023-07-23T08:51:21Z</time>
      </trkpt>
      <trkpt lat="42.24595" lon="0.83228">
        <ele>1423.4</ele>
        <time>2023-07-23T08:51:22Z</time>
      </trkpt>
      <trkpt lat="42.24597" lon="0.83228">
        <ele>1423.6</ele>
        <time>2023-07-23T08:51:23Z</time>
      </trkpt>
      <trkpt lat="42.246" lon="0.83229">
        <ele>1424</ele>
        <time>2023-07-23T08:51:24Z</time>
      </trkpt>
      <trkpt lat="42.24602" lon="0.83229">
        <ele>1424.2</ele>
        <time>2023-07-23T08:51:25Z</time>
      </trkpt>
      <trkpt lat="42.24604" lon="0.8323">
        <ele>1424.6</ele>
        <time>2023-07-23T08:51:26Z</time>
      </trkpt>
      <trkpt lat="42.24606" lon="0.8323">
        <ele>1425.2</ele>
        <time>2023-07-23T08:51:27Z</time>
      </trkpt>
      <trkpt lat="42.24608" lon="0.83231">
        <ele>1425.4</ele>
        <time>2023-07-23T08:51:28Z</time>
      </trkpt>
      <trkpt lat="42.24611" lon="0.83232">
        <ele>1426</ele>
        <time>2023-07-23T08:51:29Z</time>
      </trkpt>
      <trkpt lat="42.24612" lon="0.83233">
        <ele>1426.4</ele>
        <time>2023-07-23T08:51:30Z</time>
      </trkpt>
      <trkpt lat="42.24615" lon="0.83234">
        <ele>1426.8</ele>
        <time>2023-07-23T08:51:31Z</time>
      </trkpt>
      <trkpt lat="42.24617" lon="0.83234">
        <ele>1427.2</ele>
        <time>2023-07-23T08:51:32Z</time>
      </trkpt>
      <trkpt lat="42.24618" lon="0.83234">
        <ele>1427.4</ele>
        <time>2023-07-23T08:51:33Z</time>
      </trkpt>
      <trkpt lat="42.2462" lon="0.83234">
        <ele>1427.8</ele>
        <time>2023-07-23T08:51:34Z</time>
      </trkpt>
      <trkpt lat="42.24622" lon="0.83234">
        <ele>1428.2</ele>
        <time>2023-07-23T08:51:35Z</time>
      </trkpt>
      <trkpt lat="42.24625" lon="0.83234">
        <ele>1428.8</ele>
        <time>2023-07-23T08:51:36Z</time>
      </trkpt>
      <trkpt lat="42.24627" lon="0.83235">
        <ele>1429.2</ele>
        <time>2023-07-23T08:51:37Z</time>
      </trkpt>
      <trkpt lat="42.24628" lon="0.83235">
        <ele>1430</ele>
        <time>2023-07-23T08:51:38Z</time>
      </trkpt>
      <trkpt lat="42.24628" lon="0.83235">
        <ele>1430.4</ele>
        <time>2023-07-23T08:51:39Z</time>
      </trkpt>
      <trkpt lat="42.24632" lon="0.83236">
        <ele>1430.6</ele>
        <time>2023-07-23T08:51:40Z</time>
      </trkpt>
      <trkpt lat="42.24634" lon="0.83237">
        <ele>1431</ele>
        <time>2023-07-23T08:51:41Z</time>
      </trkpt>
      <trkpt lat="42.24636" lon="0.83237">
        <ele>1431.2</ele>
        <time>2023-07-23T08:51:42Z</time>
      </trkpt>
      <trkpt lat="42.24637" lon="0.83238">
        <ele>1431.6</ele>
        <time>2023-07-23T08:51:43Z</time>
      </trkpt>
      <trkpt lat="42.24639" lon="0.83238">
        <ele>1432.4</ele>
        <time>2023-07-23T08:51:44Z</time>
      </trkpt>
      <trkpt lat="42.24641" lon="0.83239">
        <ele>1432.6</ele>
        <time>2023-07-23T08:51:45Z</time>
      </trkpt>
      <trkpt lat="42.24644" lon="0.83239">
        <ele>1433</ele>
        <time>2023-07-23T08:51:46Z</time>
      </trkpt>
      <trkpt lat="42.24646" lon="0.8324">
        <ele>1433</ele>
        <time>2023-07-23T08:51:47Z</time>
      </trkpt>
      <trkpt lat="42.24647" lon="0.8324">
        <ele>1433.2</ele>
        <time>2023-07-23T08:51:48Z</time>
      </trkpt>
      <trkpt lat="42.24649" lon="0.83241">
        <ele>1433.6</ele>
        <time>2023-07-23T08:51:49Z</time>
      </trkpt>
      <trkpt lat="42.24651" lon="0.83242">
        <ele>1433.8</ele>
        <time>2023-07-23T08:51:50Z</time>
      </trkpt>
      <trkpt lat="42.24652" lon="0.83243">
        <ele>1434</ele>
        <time>2023-07-23T08:51:51Z</time>
      </trkpt>
      <trkpt lat="42.24654" lon="0.83245">
        <ele>1434.2</ele>
        <time>2023-07-23T08:51:52Z</time>
      </trkpt>
      <trkpt lat="42.24655" lon="0.83246">
        <ele>1434.4</ele>
        <time>2023-07-23T08:51:53Z</time>
      </trkpt>
      <trkpt lat="42.24657" lon="0.83248">
        <ele>1434.6</ele>
        <time>2023-07-23T08:51:54Z</time>
      </trkpt>
      <trkpt lat="42.24658" lon="0.8325">
        <ele>1435</ele>
        <time>2023-07-23T08:51:55Z</time>
      </trkpt>
      <trkpt lat="42.24659" lon="0.83252">
        <ele>1435.4</ele>
        <time>2023-07-23T08:51:56Z</time>
      </trkpt>
      <trkpt lat="42.24661" lon="0.83254">
        <ele>1435.6</ele>
        <time>2023-07-23T08:51:57Z</time>
      </trkpt>
      <trkpt lat="42.24662" lon="0.83255">
        <ele>1436.2</ele>
        <time>2023-07-23T08:51:58Z</time>
      </trkpt>
      <trkpt lat="42.24664" lon="0.83255">
        <ele>1436.6</ele>
        <time>2023-07-23T08:51:59Z</time>
      </trkpt>
      <trkpt lat="42.24665" lon="0.83256">
        <ele>1437.2</ele>
        <time>2023-07-23T08:52:00Z</time>
      </trkpt>
      <trkpt lat="42.24666" lon="0.83257">
        <ele>1437.6</ele>
        <time>2023-07-23T08:52:01Z</time>
      </trkpt>
      <trkpt lat="42.24668" lon="0.83258">
        <ele>1437.8</ele>
        <time>2023-07-23T08:52:02Z</time>
      </trkpt>
      <trkpt lat="42.24669" lon="0.8326">
        <ele>1438.2</ele>
        <time>2023-07-23T08:52:03Z</time>
      </trkpt>
      <trkpt lat="42.2467" lon="0.83261">
        <ele>1438.4</ele>
        <time>2023-07-23T08:52:04Z</time>
      </trkpt>
      <trkpt lat="42.24672" lon="0.83262">
        <ele>1438.8</ele>
        <time>2023-07-23T08:52:05Z</time>
      </trkpt>
      <trkpt lat="42.24673" lon="0.83263">
        <ele>1439</ele>
        <time>2023-07-23T08:52:06Z</time>
      </trkpt>
      <trkpt lat="42.24674" lon="0.83264">
        <ele>1439.2</ele>
        <time>2023-07-23T08:52:07Z</time>
      </trkpt>
      <trkpt lat="42.24674" lon="0.83264">
        <ele>1440</ele>
        <time>2023-07-23T08:52:08Z</time>
      </trkpt>
      <trkpt lat="42.24677" lon="0.83265">
        <ele>1440.2</ele>
        <time>2023-07-23T08:52:09Z</time>
      </trkpt>
      <trkpt lat="42.24678" lon="0.83266">
        <ele>1440.8</ele>
        <time>2023-07-23T08:52:10Z</time>
      </trkpt>
      <trkpt lat="42.2468" lon="0.83267">
        <ele>1441</ele>
        <time>2023-07-23T08:52:11Z</time>
      </trkpt>
      <trkpt lat="42.24681" lon="0.83268">
        <ele>1441.6</ele>
        <time>2023-07-23T08:52:12Z</time>
      </trkpt>
      <trkpt lat="42.24683" lon="0.83269">
        <ele>1442.2</ele>
        <time>2023-07-23T08:52:13Z</time>
      </trkpt>
      <trkpt lat="42.24684" lon="0.8327">
        <ele>1442.4</ele>
        <time>2023-07-23T08:52:14Z</time>
      </trkpt>
      <trkpt lat="42.24686" lon="0.83271">
        <ele>1443</ele>
        <time>2023-07-23T08:52:15Z</time>
      </trkpt>
      <trkpt lat="42.24688" lon="0.83272">
        <ele>1443.2</ele>
        <time>2023-07-23T08:52:16Z</time>
      </trkpt>
      <trkpt lat="42.2469" lon="0.83273">
        <ele>1443.6</ele>
        <time>2023-07-23T08:52:17Z</time>
      </trkpt>
      <trkpt lat="42.24692" lon="0.83273">
        <ele>1444</ele>
        <time>2023-07-23T08:52:18Z</time>
      </trkpt>
      <trkpt lat="42.24693" lon="0.83274">
        <ele>1444.4</ele>
        <time>2023-07-23T08:52:19Z</time>
      </trkpt>
      <trkpt lat="42.24695" lon="0.83275">
        <ele>1445.2</ele>
        <time>2023-07-23T08:52:20Z</time>
      </trkpt>
      <trkpt lat="42.24696" lon="0.83275">
        <ele>1445.4</ele>
        <time>2023-07-23T08:52:21Z</time>
      </trkpt>
      <trkpt lat="42.24698" lon="0.83276">
        <ele>1446</ele>
        <time>2023-07-23T08:52:22Z</time>
      </trkpt>
      <trkpt lat="42.247" lon="0.83276">
        <ele>1446.2</ele>
        <time>2023-07-23T08:52:23Z</time>
      </trkpt>
      <trkpt lat="42.24701" lon="0.83276">
        <ele>1446.6</ele>
        <time>2023-07-23T08:52:24Z</time>
      </trkpt>
      <trkpt lat="42.24703" lon="0.83277">
        <ele>1446.8</ele>
        <time>2023-07-23T08:52:25Z</time>
      </trkpt>
      <trkpt lat="42.24704" lon="0.83277">
        <ele>1447</ele>
        <time>2023-07-23T08:52:26Z</time>
      </trkpt>
      <trkpt lat="42.24706" lon="0.83278">
        <ele>1447.6</ele>
        <time>2023-07-23T08:52:27Z</time>
      </trkpt>
      <trkpt lat="42.24708" lon="0.83279">
        <ele>1447.8</ele>
        <time>2023-07-23T08:52:28Z</time>
      </trkpt>
      <trkpt lat="42.2471" lon="0.83279">
        <ele>1448.4</ele>
        <time>2023-07-23T08:52:29Z</time>
      </trkpt>
      <trkpt lat="42.24711" lon="0.83279">
        <ele>1449</ele>
        <time>2023-07-23T08:52:30Z</time>
      </trkpt>
      <trkpt lat="42.24713" lon="0.83279">
        <ele>1449.2</ele>
        <time>2023-07-23T08:52:31Z</time>
      </trkpt>
      <trkpt lat="42.24715" lon="0.83279">
        <ele>1449.6</ele>
        <time>2023-07-23T08:52:32Z</time>
      </trkpt>
      <trkpt lat="42.24717" lon="0.83279">
        <ele>1449.8</ele>
        <time>2023-07-23T08:52:33Z</time>
      </trkpt>
      <trkpt lat="42.24719" lon="0.83278">
        <ele>1450.2</ele>
        <time>2023-07-23T08:52:34Z</time>
      </trkpt>
      <trkpt lat="42.24721" lon="0.83278">
        <ele>1450.4</ele>
        <time>2023-07-23T08:52:35Z</time>
      </trkpt>
      <trkpt lat="42.24723" lon="0.83277">
        <ele>1450.6</ele>
        <time>2023-07-23T08:52:36Z</time>
      </trkpt>
      <trkpt lat="42.24726" lon="0.83277">
        <ele>1450.8</ele>
        <time>2023-07-23T08:52:37Z</time>
      </trkpt>
      <trkpt lat="42.24728" lon="0.83277">
        <ele>1450.8</ele>
        <time>2023-07-23T08:52:38Z</time>
      </trkpt>
      <trkpt lat="42.2473" lon="0.83277">
        <ele>1451</ele>
        <time>2023-07-23T08:52:39Z</time>
      </trkpt>
      <trkpt lat="42.24733" lon="0.83277">
        <ele>1451.2</ele>
        <time>2023-07-23T08:52:40Z</time>
      </trkpt>
      <trkpt lat="42.24735" lon="0.83276">
        <ele>1451.2</ele>
        <time>2023-07-23T08:52:41Z</time>
      </trkpt>
      <trkpt lat="42.24738" lon="0.83276">
        <ele>1451.2</ele>
        <time>2023-07-23T08:52:42Z</time>
      </trkpt>
      <trkpt lat="42.24741" lon="0.83276">
        <ele>1451</ele>
        <time>2023-07-23T08:52:43Z</time>
      </trkpt>
      <trkpt lat="42.24744" lon="0.83276">
        <ele>1451.2</ele>
        <time>2023-07-23T08:52:44Z</time>
      </trkpt>
      <trkpt lat="42.24746" lon="0.83276">
        <ele>1451.4</ele>
        <time>2023-07-23T08:52:45Z</time>
      </trkpt>
      <trkpt lat="42.24749" lon="0.83276">
        <ele>1451.6</ele>
        <time>2023-07-23T08:52:46Z</time>
      </trkpt>
      <trkpt lat="42.24751" lon="0.83276">
        <ele>1451.6</ele>
        <time>2023-07-23T08:52:47Z</time>
      </trkpt>
      <trkpt lat="42.24754" lon="0.83276">
        <ele>1451.6</ele>
        <time>2023-07-23T08:52:48Z</time>
      </trkpt>
      <trkpt lat="42.24757" lon="0.83276">
        <ele>1451.8</ele>
        <time>2023-07-23T08:52:49Z</time>
      </trkpt>
      <trkpt lat="42.24759" lon="0.83276">
        <ele>1451.8</ele>
        <time>2023-07-23T08:52:50Z</time>
      </trkpt>
      <trkpt lat="42.24762" lon="0.83275">
        <ele>1451.8</ele>
        <time>2023-07-23T08:52:51Z</time>
      </trkpt>
      <trkpt lat="42.24765" lon="0.83275">
        <ele>1451.8</ele>
        <time>2023-07-23T08:52:52Z</time>
      </trkpt>
      <trkpt lat="42.24767" lon="0.83275">
        <ele>1452</ele>
        <time>2023-07-23T08:52:53Z</time>
      </trkpt>
      <trkpt lat="42.2477" lon="0.83275">
        <ele>1451.8</ele>
        <time>2023-07-23T08:52:54Z</time>
      </trkpt>
      <trkpt lat="42.24772" lon="0.83275">
        <ele>1451.8</ele>
        <time>2023-07-23T08:52:55Z</time>
      </trkpt>
      <trkpt lat="42.24774" lon="0.83275">
        <ele>1452</ele>
        <time>2023-07-23T08:52:56Z</time>
      </trkpt>
      <trkpt lat="42.24777" lon="0.83275">
        <ele>1452</ele>
        <time>2023-07-23T08:52:57Z</time>
      </trkpt>
      <trkpt lat="42.2478" lon="0.83276">
        <ele>1452.2</ele>
        <time>2023-07-23T08:52:58Z</time>
      </trkpt>
      <trkpt lat="42.24782" lon="0.83276">
        <ele>1452.4</ele>
        <time>2023-07-23T08:52:59Z</time>
      </trkpt>
      <trkpt lat="42.24784" lon="0.83276">
        <ele>1452.4</ele>
        <time>2023-07-23T08:53:00Z</time>
      </trkpt>
      <trkpt lat="42.24787" lon="0.83276">
        <ele>1452.6</ele>
        <time>2023-07-23T08:53:01Z</time>
      </trkpt>
      <trkpt lat="42.2479" lon="0.83277">
        <ele>1452.8</ele>
        <time>2023-07-23T08:53:02Z</time>
      </trkpt>
      <trkpt lat="42.24794" lon="0.8328">
        <ele>1452.8</ele>
        <time>2023-07-23T08:53:03Z</time>
      </trkpt>
      <trkpt lat="42.24797" lon="0.83283">
        <ele>1452.8</ele>
        <time>2023-07-23T08:53:04Z</time>
      </trkpt>
      <trkpt lat="42.248" lon="0.83286">
        <ele>1452.8</ele>
        <time>2023-07-23T08:53:05Z</time>
      </trkpt>
      <trkpt lat="42.24804" lon="0.8329">
        <ele>1453</ele>
        <time>2023-07-23T08:53:06Z</time>
      </trkpt>
      <trkpt lat="42.24809" lon="0.83294">
        <ele>1453</ele>
        <time>2023-07-23T08:53:07Z</time>
      </trkpt>
      <trkpt lat="42.24813" lon="0.83298">
        <ele>1453</ele>
        <time>2023-07-23T08:53:08Z</time>
      </trkpt>
      <trkpt lat="42.24818" lon="0.83302">
        <ele>1453</ele>
        <time>2023-07-23T08:53:09Z</time>
      </trkpt>
      <trkpt lat="42.24821" lon="0.83305">
        <ele>1453.2</ele>
        <time>2023-07-23T08:53:10Z</time>
      </trkpt>
      <trkpt lat="42.24824" lon="0.83309">
        <ele>1453.2</ele>
        <time>2023-07-23T08:53:11Z</time>
      </trkpt>
      <trkpt lat="42.24828" lon="0.83312">
        <ele>1453.2</ele>
        <time>2023-07-23T08:53:12Z</time>
      </trkpt>
      <trkpt lat="42.24831" lon="0.83317">
        <ele>1453</ele>
        <time>2023-07-23T08:53:13Z</time>
      </trkpt>
      <trkpt lat="42.24834" lon="0.83321">
        <ele>1453</ele>
        <time>2023-07-23T08:53:14Z</time>
      </trkpt>
      <trkpt lat="42.24835" lon="0.83325">
        <ele>1452.8</ele>
        <time>2023-07-23T08:53:15Z</time>
      </trkpt>
      <trkpt lat="42.24838" lon="0.83328">
        <ele>1452.8</ele>
        <time>2023-07-23T08:53:16Z</time>
      </trkpt>
      <trkpt lat="42.2484" lon="0.83332">
        <ele>1453</ele>
        <time>2023-07-23T08:53:17Z</time>
      </trkpt>
      <trkpt lat="42.24843" lon="0.83336">
        <ele>1453</ele>
        <time>2023-07-23T08:53:18Z</time>
      </trkpt>
      <trkpt lat="42.24845" lon="0.83339">
        <ele>1453</ele>
        <time>2023-07-23T08:53:19Z</time>
      </trkpt>
      <trkpt lat="42.24847" lon="0.83341">
        <ele>1453.2</ele>
        <time>2023-07-23T08:53:20Z</time>
      </trkpt>
      <trkpt lat="42.2485" lon="0.83344">
        <ele>1453.2</ele>
        <time>2023-07-23T08:53:21Z</time>
      </trkpt>
      <trkpt lat="42.24852" lon="0.83346">
        <ele>1453.4</ele>
        <time>2023-07-23T08:53:22Z</time>
      </trkpt>
      <trkpt lat="42.24855" lon="0.8335">
        <ele>1454</ele>
        <time>2023-07-23T08:53:23Z</time>
      </trkpt>
      <trkpt lat="42.24857" lon="0.83352">
        <ele>1454.2</ele>
        <time>2023-07-23T08:53:24Z</time>
      </trkpt>
      <trkpt lat="42.24859" lon="0.83355">
        <ele>1454.6</ele>
        <time>2023-07-23T08:53:25Z</time>
      </trkpt>
      <trkpt lat="42.24862" lon="0.83358">
        <ele>1454.8</ele>
        <time>2023-07-23T08:53:26Z</time>
      </trkpt>
      <trkpt lat="42.24864" lon="0.83362">
        <ele>1455</ele>
        <time>2023-07-23T08:53:27Z</time>
      </trkpt>
      <trkpt lat="42.24866" lon="0.83365">
        <ele>1455.4</ele>
        <time>2023-07-23T08:53:28Z</time>
      </trkpt>
      <trkpt lat="42.24868" lon="0.83368">
        <ele>1455.6</ele>
        <time>2023-07-23T08:53:29Z</time>
      </trkpt>
      <trkpt lat="42.2487" lon="0.83372">
        <ele>1455.8</ele>
        <time>2023-07-23T08:53:30Z</time>
      </trkpt>
      <trkpt lat="42.24872" lon="0.83375">
        <ele>1456</ele>
        <time>2023-07-23T08:53:31Z</time>
      </trkpt>
      <trkpt lat="42.24873" lon="0.83379">
        <ele>1456.2</ele>
        <time>2023-07-23T08:53:32Z</time>
      </trkpt>
      <trkpt lat="42.24875" lon="0.83382">
        <ele>1456.2</ele>
        <time>2023-07-23T08:53:33Z</time>
      </trkpt>
      <trkpt lat="42.24877" lon="0.83385">
        <ele>1456.4</ele>
        <time>2023-07-23T08:53:34Z</time>
      </trkpt>
      <trkpt lat="42.24878" lon="0.83389">
        <ele>1456.6</ele>
        <time>2023-07-23T08:53:35Z</time>
      </trkpt>
      <trkpt lat="42.2488" lon="0.83392">
        <ele>1457</ele>
        <time>2023-07-23T08:53:36Z</time>
      </trkpt>
      <trkpt lat="42.24881" lon="0.83396">
        <ele>1457.4</ele>
        <time>2023-07-23T08:53:37Z</time>
      </trkpt>
      <trkpt lat="42.24883" lon="0.83399">
        <ele>1457.6</ele>
        <time>2023-07-23T08:53:38Z</time>
      </trkpt>
      <trkpt lat="42.24884" lon="0.83403">
        <ele>1458</ele>
        <time>2023-07-23T08:53:39Z</time>
      </trkpt>
      <trkpt lat="42.24885" lon="0.83406">
        <ele>1458.2</ele>
        <time>2023-07-23T08:53:40Z</time>
      </trkpt>
      <trkpt lat="42.24887" lon="0.8341">
        <ele>1458.6</ele>
        <time>2023-07-23T08:53:41Z</time>
      </trkpt>
      <trkpt lat="42.24888" lon="0.83413">
        <ele>1459</ele>
        <time>2023-07-23T08:53:42Z</time>
      </trkpt>
      <trkpt lat="42.24889" lon="0.83416">
        <ele>1459.2</ele>
        <time>2023-07-23T08:53:43Z</time>
      </trkpt>
      <trkpt lat="42.24891" lon="0.8342">
        <ele>1459.6</ele>
        <time>2023-07-23T08:53:44Z</time>
      </trkpt>
      <trkpt lat="42.24892" lon="0.83423">
        <ele>1459.8</ele>
        <time>2023-07-23T08:53:45Z</time>
      </trkpt>
      <trkpt lat="42.24893" lon="0.83427">
        <ele>1460</ele>
        <time>2023-07-23T08:53:46Z</time>
      </trkpt>
      <trkpt lat="42.24894" lon="0.83431">
        <ele>1460.2</ele>
        <time>2023-07-23T08:53:47Z</time>
      </trkpt>
      <trkpt lat="42.24896" lon="0.83436">
        <ele>1460.4</ele>
        <time>2023-07-23T08:53:48Z</time>
      </trkpt>
      <trkpt lat="42.24896" lon="0.83439">
        <ele>1460.6</ele>
        <time>2023-07-23T08:53:49Z</time>
      </trkpt>
      <trkpt lat="42.24898" lon="0.83443">
        <ele>1460.6</ele>
        <time>2023-07-23T08:53:50Z</time>
      </trkpt>
      <trkpt lat="42.24899" lon="0.83446">
        <ele>1460.8</ele>
        <time>2023-07-23T08:53:51Z</time>
      </trkpt>
      <trkpt lat="42.24901" lon="0.8345">
        <ele>1461</ele>
        <time>2023-07-23T08:53:52Z</time>
      </trkpt>
      <trkpt lat="42.24902" lon="0.83454">
        <ele>1461.2</ele>
        <time>2023-07-23T08:53:53Z</time>
      </trkpt>
      <trkpt lat="42.24904" lon="0.83457">
        <ele>1461.6</ele>
        <time>2023-07-23T08:53:54Z</time>
      </trkpt>
      <trkpt lat="42.24905" lon="0.83461">
        <ele>1461.6</ele>
        <time>2023-07-23T08:53:55Z</time>
      </trkpt>
      <trkpt lat="42.24906" lon="0.83465">
        <ele>1462</ele>
        <time>2023-07-23T08:53:56Z</time>
      </trkpt>
      <trkpt lat="42.24908" lon="0.83468">
        <ele>1462.2</ele>
        <time>2023-07-23T08:53:57Z</time>
      </trkpt>
      <trkpt lat="42.24909" lon="0.83472">
        <ele>1462.4</ele>
        <time>2023-07-23T08:53:58Z</time>
      </trkpt>
      <trkpt lat="42.2491" lon="0.83476">
        <ele>1462.6</ele>
        <time>2023-07-23T08:53:59Z</time>
      </trkpt>
      <trkpt lat="42.24911" lon="0.8348">
        <ele>1462.6</ele>
        <time>2023-07-23T08:54:00Z</time>
      </trkpt>
      <trkpt lat="42.24912" lon="0.83483">
        <ele>1462.8</ele>
        <time>2023-07-23T08:54:01Z</time>
      </trkpt>
      <trkpt lat="42.24914" lon="0.83487">
        <ele>1462.8</ele>
        <time>2023-07-23T08:54:02Z</time>
      </trkpt>
      <trkpt lat="42.24915" lon="0.8349">
        <ele>1463.4</ele>
        <time>2023-07-23T08:54:03Z</time>
      </trkpt>
      <trkpt lat="42.24916" lon="0.83493">
        <ele>1463.6</ele>
        <time>2023-07-23T08:54:04Z</time>
      </trkpt>
      <trkpt lat="42.24917" lon="0.83497">
        <ele>1464</ele>
        <time>2023-07-23T08:54:05Z</time>
      </trkpt>
      <trkpt lat="42.24918" lon="0.835">
        <ele>1464.2</ele>
        <time>2023-07-23T08:54:06Z</time>
      </trkpt>
      <trkpt lat="42.24919" lon="0.83504">
        <ele>1464.4</ele>
        <time>2023-07-23T08:54:07Z</time>
      </trkpt>
      <trkpt lat="42.2492" lon="0.83507">
        <ele>1464.6</ele>
        <time>2023-07-23T08:54:08Z</time>
      </trkpt>
      <trkpt lat="42.24921" lon="0.83511">
        <ele>1464.8</ele>
        <time>2023-07-23T08:54:09Z</time>
      </trkpt>
      <trkpt lat="42.24922" lon="0.83514">
        <ele>1465</ele>
        <time>2023-07-23T08:54:10Z</time>
      </trkpt>
      <trkpt lat="42.24923" lon="0.83517">
        <ele>1465.4</ele>
        <time>2023-07-23T08:54:11Z</time>
      </trkpt>
      <trkpt lat="42.24923" lon="0.8352">
        <ele>1465.6</ele>
        <time>2023-07-23T08:54:12Z</time>
      </trkpt>
      <trkpt lat="42.24924" lon="0.83524">
        <ele>1466</ele>
        <time>2023-07-23T08:54:13Z</time>
      </trkpt>
      <trkpt lat="42.24925" lon="0.83527">
        <ele>1466.2</ele>
        <time>2023-07-23T08:54:14Z</time>
      </trkpt>
      <trkpt lat="42.24925" lon="0.83527">
        <ele>1466.4</ele>
        <time>2023-07-23T08:54:15Z</time>
      </trkpt>
      <trkpt lat="42.24924" lon="0.83533">
        <ele>1466.6</ele>
        <time>2023-07-23T08:54:16Z</time>
      </trkpt>
      <trkpt lat="42.24924" lon="0.83535">
        <ele>1466.8</ele>
        <time>2023-07-23T08:54:17Z</time>
      </trkpt>
      <trkpt lat="42.24923" lon="0.83539">
        <ele>1467.2</ele>
        <time>2023-07-23T08:54:18Z</time>
      </trkpt>
      <trkpt lat="42.24922" lon="0.83542">
        <ele>1467.4</ele>
        <time>2023-07-23T08:54:19Z</time>
      </trkpt>
      <trkpt lat="42.24922" lon="0.83545">
        <ele>1467.8</ele>
        <time>2023-07-23T08:54:20Z</time>
      </trkpt>
      <trkpt lat="42.24922" lon="0.83548">
        <ele>1467.8</ele>
        <time>2023-07-23T08:54:21Z</time>
      </trkpt>
      <trkpt lat="42.24923" lon="0.83551">
        <ele>1468.2</ele>
        <time>2023-07-23T08:54:22Z</time>
      </trkpt>
      <trkpt lat="42.24923" lon="0.83554">
        <ele>1468.4</ele>
        <time>2023-07-23T08:54:23Z</time>
      </trkpt>
      <trkpt lat="42.24923" lon="0.83558">
        <ele>1468.4</ele>
        <time>2023-07-23T08:54:24Z</time>
      </trkpt>
      <trkpt lat="42.24923" lon="0.83561">
        <ele>1468.6</ele>
        <time>2023-07-23T08:54:25Z</time>
      </trkpt>
      <trkpt lat="42.24924" lon="0.83564">
        <ele>1468.6</ele>
        <time>2023-07-23T08:54:26Z</time>
      </trkpt>
      <trkpt lat="42.24924" lon="0.83567">
        <ele>1468.8</ele>
        <time>2023-07-23T08:54:27Z</time>
      </trkpt>
      <trkpt lat="42.24924" lon="0.83571">
        <ele>1468.8</ele>
        <time>2023-07-23T08:54:28Z</time>
      </trkpt>
      <trkpt lat="42.24925" lon="0.83574">
        <ele>1469</ele>
        <time>2023-07-23T08:54:29Z</time>
      </trkpt>
      <trkpt lat="42.24926" lon="0.83577">
        <ele>1469</ele>
        <time>2023-07-23T08:54:30Z</time>
      </trkpt>
      <trkpt lat="42.24926" lon="0.8358">
        <ele>1469.2</ele>
        <time>2023-07-23T08:54:31Z</time>
      </trkpt>
      <trkpt lat="42.24927" lon="0.83583">
        <ele>1469</ele>
        <time>2023-07-23T08:54:32Z</time>
      </trkpt>
      <trkpt lat="42.24927" lon="0.83586">
        <ele>1469</ele>
        <time>2023-07-23T08:54:33Z</time>
      </trkpt>
      <trkpt lat="42.24928" lon="0.83589">
        <ele>1469.2</ele>
        <time>2023-07-23T08:54:34Z</time>
      </trkpt>
      <trkpt lat="42.24929" lon="0.83592">
        <ele>1469.6</ele>
        <time>2023-07-23T08:54:35Z</time>
      </trkpt>
      <trkpt lat="42.24929" lon="0.83595">
        <ele>1469.6</ele>
        <time>2023-07-23T08:54:36Z</time>
      </trkpt>
      <trkpt lat="42.2493" lon="0.83598">
        <ele>1469.8</ele>
        <time>2023-07-23T08:54:37Z</time>
      </trkpt>
      <trkpt lat="42.24931" lon="0.83601">
        <ele>1469.8</ele>
        <time>2023-07-23T08:54:38Z</time>
      </trkpt>
      <trkpt lat="42.24931" lon="0.83604">
        <ele>1469.8</ele>
        <time>2023-07-23T08:54:39Z</time>
      </trkpt>
      <trkpt lat="42.24932" lon="0.83606">
        <ele>1470</ele>
        <time>2023-07-23T08:54:40Z</time>
      </trkpt>
      <trkpt lat="42.24933" lon="0.83607">
        <ele>1470</ele>
        <time>2023-07-23T08:54:41Z</time>
      </trkpt>
      <trkpt lat="42.24934" lon="0.83609">
        <ele>1470</ele>
        <time>2023-07-23T08:54:42Z</time>
      </trkpt>
      <trkpt lat="42.24934" lon="0.83609">
        <ele>1470</ele>
        <time>2023-07-23T08:54:43Z</time>
      </trkpt>
      <trkpt lat="42.24934" lon="0.83609">
        <ele>1470.2</ele>
        <time>2023-07-23T08:54:44Z</time>
      </trkpt>
      <trkpt lat="42.24936" lon="0.83614">
        <ele>1469.2</ele>
        <time>2023-07-23T09:08:49Z</time>
      </trkpt>
      <trkpt lat="42.24938" lon="0.83616">
        <ele>1469.2</ele>
        <time>2023-07-23T09:08:50Z</time>
      </trkpt>
      <trkpt lat="42.24939" lon="0.83619">
        <ele>1469.2</ele>
        <time>2023-07-23T09:08:51Z</time>
      </trkpt>
      <trkpt lat="42.24941" lon="0.83622">
        <ele>1469.2</ele>
        <time>2023-07-23T09:08:52Z</time>
      </trkpt>
      <trkpt lat="42.24943" lon="0.83624">
        <ele>1469.2</ele>
        <time>2023-07-23T09:08:53Z</time>
      </trkpt>
      <trkpt lat="42.24946" lon="0.83627">
        <ele>1469.2</ele>
        <time>2023-07-23T09:08:54Z</time>
      </trkpt>
      <trkpt lat="42.24948" lon="0.8363">
        <ele>1469.2</ele>
        <time>2023-07-23T09:08:55Z</time>
      </trkpt>
      <trkpt lat="42.24951" lon="0.83634">
        <ele>1468.8</ele>
        <time>2023-07-23T09:08:56Z</time>
      </trkpt>
      <trkpt lat="42.24954" lon="0.83638">
        <ele>1468.8</ele>
        <time>2023-07-23T09:08:57Z</time>
      </trkpt>
      <trkpt lat="42.24957" lon="0.83643">
        <ele>1468.4</ele>
        <time>2023-07-23T09:08:58Z</time>
      </trkpt>
      <trkpt lat="42.24961" lon="0.83647">
        <ele>1468.4</ele>
        <time>2023-07-23T09:08:59Z</time>
      </trkpt>
      <trkpt lat="42.24966" lon="0.83652">
        <ele>1467.8</ele>
        <time>2023-07-23T09:09:00Z</time>
      </trkpt>
      <trkpt lat="42.2497" lon="0.83657">
        <ele>1467.8</ele>
        <time>2023-07-23T09:09:01Z</time>
      </trkpt>
      <trkpt lat="42.24974" lon="0.83661">
        <ele>1467.4</ele>
        <time>2023-07-23T09:09:02Z</time>
      </trkpt>
      <trkpt lat="42.24978" lon="0.83665">
        <ele>1466.8</ele>
        <time>2023-07-23T09:09:03Z</time>
      </trkpt>
      <trkpt lat="42.24981" lon="0.83668">
        <ele>1466.6</ele>
        <time>2023-07-23T09:09:04Z</time>
      </trkpt>
      <trkpt lat="42.24984" lon="0.83671">
        <ele>1465.8</ele>
        <time>2023-07-23T09:09:05Z</time>
      </trkpt>
      <trkpt lat="42.24986" lon="0.83673">
        <ele>1465.6</ele>
        <time>2023-07-23T09:09:06Z</time>
      </trkpt>
      <trkpt lat="42.24987" lon="0.83676">
        <ele>1465.4</ele>
        <time>2023-07-23T09:09:07Z</time>
      </trkpt>
      <trkpt lat="42.24988" lon="0.83678">
        <ele>1465.2</ele>
        <time>2023-07-23T09:09:08Z</time>
      </trkpt>
      <trkpt lat="42.24989" lon="0.8368">
        <ele>1465.2</ele>
        <time>2023-07-23T09:09:09Z</time>
      </trkpt>
      <trkpt lat="42.2499" lon="0.83681">
        <ele>1465.2</ele>
        <time>2023-07-23T09:09:10Z</time>
      </trkpt>
      <trkpt lat="42.24991" lon="0.83683">
        <ele>1465.2</ele>
        <time>2023-07-23T09:09:11Z</time>
      </trkpt>
      <trkpt lat="42.24992" lon="0.83685">
        <ele>1465.2</ele>
        <time>2023-07-23T09:09:12Z</time>
      </trkpt>
      <trkpt lat="42.24993" lon="0.83687">
        <ele>1465.2</ele>
        <time>2023-07-23T09:09:13Z</time>
      </trkpt>
      <trkpt lat="42.24995" lon="0.83689">
        <ele>1465.2</ele>
        <time>2023-07-23T09:09:14Z</time>
      </trkpt>
      <trkpt lat="42.24996" lon="0.83691">
        <ele>1465.4</ele>
        <time>2023-07-23T09:09:15Z</time>
      </trkpt>
      <trkpt lat="42.24997" lon="0.83694">
        <ele>1465.4</ele>
        <time>2023-07-23T09:09:16Z</time>
      </trkpt>
      <trkpt lat="42.24998" lon="0.83696">
        <ele>1465.8</ele>
        <time>2023-07-23T09:09:17Z</time>
      </trkpt>
      <trkpt lat="42.24999" lon="0.83699">
        <ele>1465.8</ele>
        <time>2023-07-23T09:09:18Z</time>
      </trkpt>
      <trkpt lat="42.25001" lon="0.83701">
        <ele>1466.4</ele>
        <time>2023-07-23T09:09:19Z</time>
      </trkpt>
      <trkpt lat="42.25002" lon="0.83704">
        <ele>1466.6</ele>
        <time>2023-07-23T09:09:20Z</time>
      </trkpt>
      <trkpt lat="42.25003" lon="0.83707">
        <ele>1466.6</ele>
        <time>2023-07-23T09:09:21Z</time>
      </trkpt>
      <trkpt lat="42.25004" lon="0.83709">
        <ele>1466.8</ele>
        <time>2023-07-23T09:09:22Z</time>
      </trkpt>
      <trkpt lat="42.25005" lon="0.83712">
        <ele>1466.8</ele>
        <time>2023-07-23T09:09:23Z</time>
      </trkpt>
      <trkpt lat="42.25006" lon="0.83715">
        <ele>1467</ele>
        <time>2023-07-23T09:09:24Z</time>
      </trkpt>
      <trkpt lat="42.25008" lon="0.83718">
        <ele>1467</ele>
        <time>2023-07-23T09:09:25Z</time>
      </trkpt>
      <trkpt lat="42.25009" lon="0.83722">
        <ele>1467</ele>
        <time>2023-07-23T09:09:26Z</time>
      </trkpt>
      <trkpt lat="42.2501" lon="0.83725">
        <ele>1467</ele>
        <time>2023-07-23T09:09:27Z</time>
      </trkpt>
      <trkpt lat="42.25011" lon="0.83728">
        <ele>1467</ele>
        <time>2023-07-23T09:09:28Z</time>
      </trkpt>
      <trkpt lat="42.25014" lon="0.83731">
        <ele>1467</ele>
        <time>2023-07-23T09:09:29Z</time>
      </trkpt>
      <trkpt lat="42.25017" lon="0.83735">
        <ele>1467</ele>
        <time>2023-07-23T09:09:30Z</time>
      </trkpt>
      <trkpt lat="42.25022" lon="0.83739">
        <ele>1467</ele>
        <time>2023-07-23T09:09:31Z</time>
      </trkpt>
      <trkpt lat="42.25026" lon="0.83744">
        <ele>1467</ele>
        <time>2023-07-23T09:09:32Z</time>
      </trkpt>
      <trkpt lat="42.25031" lon="0.83749">
        <ele>1467</ele>
        <time>2023-07-23T09:09:33Z</time>
      </trkpt>
      <trkpt lat="42.25037" lon="0.83754">
        <ele>1466.8</ele>
        <time>2023-07-23T09:09:34Z</time>
      </trkpt>
      <trkpt lat="42.25043" lon="0.8376">
        <ele>1466.8</ele>
        <time>2023-07-23T09:09:35Z</time>
      </trkpt>
      <trkpt lat="42.2505" lon="0.83766">
        <ele>1466.4</ele>
        <time>2023-07-23T09:09:36Z</time>
      </trkpt>
      <trkpt lat="42.25057" lon="0.83772">
        <ele>1465.8</ele>
        <time>2023-07-23T09:09:37Z</time>
      </trkpt>
      <trkpt lat="42.25064" lon="0.83778">
        <ele>1464.8</ele>
        <time>2023-07-23T09:09:38Z</time>
      </trkpt>
      <trkpt lat="42.25072" lon="0.83784">
        <ele>1463.6</ele>
        <time>2023-07-23T09:09:39Z</time>
      </trkpt>
      <trkpt lat="42.2508" lon="0.83788">
        <ele>1463</ele>
        <time>2023-07-23T09:09:40Z</time>
      </trkpt>
      <trkpt lat="42.25088" lon="0.83793">
        <ele>1462</ele>
        <time>2023-07-23T09:09:41Z</time>
      </trkpt>
      <trkpt lat="42.25096" lon="0.83797">
        <ele>1461.4</ele>
        <time>2023-07-23T09:09:42Z</time>
      </trkpt>
      <trkpt lat="42.25104" lon="0.838">
        <ele>1461.2</ele>
        <time>2023-07-23T09:09:43Z</time>
      </trkpt>
      <trkpt lat="42.2511" lon="0.83804">
        <ele>1459.4</ele>
        <time>2023-07-23T09:09:44Z</time>
      </trkpt>
      <trkpt lat="42.25117" lon="0.83807">
        <ele>1458.8</ele>
        <time>2023-07-23T09:09:45Z</time>
      </trkpt>
      <trkpt lat="42.25123" lon="0.83811">
        <ele>1458.2</ele>
        <time>2023-07-23T09:09:46Z</time>
      </trkpt>
      <trkpt lat="42.25128" lon="0.83815">
        <ele>1458</ele>
        <time>2023-07-23T09:09:47Z</time>
      </trkpt>
      <trkpt lat="42.25133" lon="0.83819">
        <ele>1457.8</ele>
        <time>2023-07-23T09:09:48Z</time>
      </trkpt>
      <trkpt lat="42.25137" lon="0.83823">
        <ele>1457.4</ele>
        <time>2023-07-23T09:09:49Z</time>
      </trkpt>
      <trkpt lat="42.2514" lon="0.83826">
        <ele>1457.2</ele>
        <time>2023-07-23T09:09:50Z</time>
      </trkpt>
      <trkpt lat="42.25143" lon="0.83829">
        <ele>1457</ele>
        <time>2023-07-23T09:09:51Z</time>
      </trkpt>
      <trkpt lat="42.25146" lon="0.83832">
        <ele>1457</ele>
        <time>2023-07-23T09:09:52Z</time>
      </trkpt>
      <trkpt lat="42.25149" lon="0.83834">
        <ele>1456.8</ele>
        <time>2023-07-23T09:09:53Z</time>
      </trkpt>
      <trkpt lat="42.25151" lon="0.83836">
        <ele>1456.8</ele>
        <time>2023-07-23T09:09:54Z</time>
      </trkpt>
      <trkpt lat="42.25153" lon="0.83838">
        <ele>1456.8</ele>
        <time>2023-07-23T09:09:55Z</time>
      </trkpt>
      <trkpt lat="42.25155" lon="0.8384">
        <ele>1456.8</ele>
        <time>2023-07-23T09:09:56Z</time>
      </trkpt>
      <trkpt lat="42.25158" lon="0.83841">
        <ele>1457</ele>
        <time>2023-07-23T09:09:57Z</time>
      </trkpt>
      <trkpt lat="42.2516" lon="0.83842">
        <ele>1457.2</ele>
        <time>2023-07-23T09:09:58Z</time>
      </trkpt>
      <trkpt lat="42.25162" lon="0.83843">
        <ele>1457.4</ele>
        <time>2023-07-23T09:09:59Z</time>
      </trkpt>
      <trkpt lat="42.25164" lon="0.83845">
        <ele>1457.6</ele>
        <time>2023-07-23T09:10:00Z</time>
      </trkpt>
      <trkpt lat="42.25166" lon="0.83846">
        <ele>1458.4</ele>
        <time>2023-07-23T09:10:01Z</time>
      </trkpt>
      <trkpt lat="42.25169" lon="0.83847">
        <ele>1458.6</ele>
        <time>2023-07-23T09:10:02Z</time>
      </trkpt>
      <trkpt lat="42.25171" lon="0.83848">
        <ele>1459.2</ele>
        <time>2023-07-23T09:10:03Z</time>
      </trkpt>
      <trkpt lat="42.25173" lon="0.83849">
        <ele>1459.4</ele>
        <time>2023-07-23T09:10:04Z</time>
      </trkpt>
      <trkpt lat="42.25176" lon="0.83851">
        <ele>1459.6</ele>
        <time>2023-07-23T09:10:05Z</time>
      </trkpt>
      <trkpt lat="42.25178" lon="0.83852">
        <ele>1459.8</ele>
        <time>2023-07-23T09:10:06Z</time>
      </trkpt>
      <trkpt lat="42.25181" lon="0.83853">
        <ele>1459.8</ele>
        <time>2023-07-23T09:10:07Z</time>
      </trkpt>
      <trkpt lat="42.25184" lon="0.83854">
        <ele>1459.8</ele>
        <time>2023-07-23T09:10:08Z</time>
      </trkpt>
      <trkpt lat="42.25187" lon="0.83856">
        <ele>1460</ele>
        <time>2023-07-23T09:10:09Z</time>
      </trkpt>
      <trkpt lat="42.2519" lon="0.83859">
        <ele>1460</ele>
        <time>2023-07-23T09:10:10Z</time>
      </trkpt>
      <trkpt lat="42.25193" lon="0.83862">
        <ele>1460</ele>
        <time>2023-07-23T09:10:11Z</time>
      </trkpt>
      <trkpt lat="42.25196" lon="0.83866">
        <ele>1460</ele>
        <time>2023-07-23T09:10:12Z</time>
      </trkpt>
      <trkpt lat="42.25198" lon="0.8387">
        <ele>1459.8</ele>
        <time>2023-07-23T09:10:13Z</time>
      </trkpt>
      <trkpt lat="42.25201" lon="0.83874">
        <ele>1459.8</ele>
        <time>2023-07-23T09:10:14Z</time>
      </trkpt>
      <trkpt lat="42.25203" lon="0.83879">
        <ele>1459.6</ele>
        <time>2023-07-23T09:10:15Z</time>
      </trkpt>
      <trkpt lat="42.25205" lon="0.83884">
        <ele>1459.4</ele>
        <time>2023-07-23T09:10:16Z</time>
      </trkpt>
      <trkpt lat="42.25207" lon="0.8389">
        <ele>1459.4</ele>
        <time>2023-07-23T09:10:17Z</time>
      </trkpt>
      <trkpt lat="42.2521" lon="0.83896">
        <ele>1459.2</ele>
        <time>2023-07-23T09:10:18Z</time>
      </trkpt>
      <trkpt lat="42.25212" lon="0.83902">
        <ele>1459.2</ele>
        <time>2023-07-23T09:10:19Z</time>
      </trkpt>
      <trkpt lat="42.25216" lon="0.83908">
        <ele>1459</ele>
        <time>2023-07-23T09:10:20Z</time>
      </trkpt>
      <trkpt lat="42.25219" lon="0.83913">
        <ele>1458.8</ele>
        <time>2023-07-23T09:10:21Z</time>
      </trkpt>
      <trkpt lat="42.25224" lon="0.83919">
        <ele>1458.6</ele>
        <time>2023-07-23T09:10:22Z</time>
      </trkpt>
      <trkpt lat="42.25228" lon="0.83924">
        <ele>1458.2</ele>
        <time>2023-07-23T09:10:23Z</time>
      </trkpt>
      <trkpt lat="42.25233" lon="0.83928">
        <ele>1457.8</ele>
        <time>2023-07-23T09:10:24Z</time>
      </trkpt>
      <trkpt lat="42.25237" lon="0.83934">
        <ele>1457.2</ele>
        <time>2023-07-23T09:10:25Z</time>
      </trkpt>
      <trkpt lat="42.25241" lon="0.83941">
        <ele>1456.6</ele>
        <time>2023-07-23T09:10:26Z</time>
      </trkpt>
      <trkpt lat="42.25246" lon="0.83948">
        <ele>1456.2</ele>
        <time>2023-07-23T09:10:27Z</time>
      </trkpt>
      <trkpt lat="42.2525" lon="0.83954">
        <ele>1455.8</ele>
        <time>2023-07-23T09:10:28Z</time>
      </trkpt>
      <trkpt lat="42.25254" lon="0.83961">
        <ele>1455.6</ele>
        <time>2023-07-23T09:10:29Z</time>
      </trkpt>
      <trkpt lat="42.25258" lon="0.83967">
        <ele>1455.2</ele>
        <time>2023-07-23T09:10:30Z</time>
      </trkpt>
      <trkpt lat="42.25261" lon="0.83971">
        <ele>1454.8</ele>
        <time>2023-07-23T09:10:31Z</time>
      </trkpt>
      <trkpt lat="42.25264" lon="0.83975">
        <ele>1454.2</ele>
        <time>2023-07-23T09:10:32Z</time>
      </trkpt>
      <trkpt lat="42.25266" lon="0.83979">
        <ele>1453.8</ele>
        <time>2023-07-23T09:10:33Z</time>
      </trkpt>
      <trkpt lat="42.25267" lon="0.83983">
        <ele>1453.8</ele>
        <time>2023-07-23T09:10:34Z</time>
      </trkpt>
      <trkpt lat="42.25269" lon="0.83986">
        <ele>1453.6</ele>
        <time>2023-07-23T09:10:35Z</time>
      </trkpt>
      <trkpt lat="42.2527" lon="0.83989">
        <ele>1453.6</ele>
        <time>2023-07-23T09:10:36Z</time>
      </trkpt>
      <trkpt lat="42.25272" lon="0.83992">
        <ele>1453.6</ele>
        <time>2023-07-23T09:10:37Z</time>
      </trkpt>
      <trkpt lat="42.25274" lon="0.83996">
        <ele>1453.6</ele>
        <time>2023-07-23T09:10:38Z</time>
      </trkpt>
      <trkpt lat="42.25276" lon="0.83999">
        <ele>1453.6</ele>
        <time>2023-07-23T09:10:39Z</time>
      </trkpt>
      <trkpt lat="42.2528" lon="0.84003">
        <ele>1453.4</ele>
        <time>2023-07-23T09:10:40Z</time>
      </trkpt>
      <trkpt lat="42.25283" lon="0.84006">
        <ele>1453.4</ele>
        <time>2023-07-23T09:10:41Z</time>
      </trkpt>
      <trkpt lat="42.25287" lon="0.8401">
        <ele>1453.4</ele>
        <time>2023-07-23T09:10:42Z</time>
      </trkpt>
      <trkpt lat="42.2529" lon="0.84014">
        <ele>1453.4</ele>
        <time>2023-07-23T09:10:43Z</time>
      </trkpt>
      <trkpt lat="42.25293" lon="0.84017">
        <ele>1453.4</ele>
        <time>2023-07-23T09:10:44Z</time>
      </trkpt>
      <trkpt lat="42.25296" lon="0.8402">
        <ele>1452.4</ele>
        <time>2023-07-23T09:10:45Z</time>
      </trkpt>
      <trkpt lat="42.25299" lon="0.84022">
        <ele>1452</ele>
        <time>2023-07-23T09:10:46Z</time>
      </trkpt>
      <trkpt lat="42.25302" lon="0.84025">
        <ele>1451.2</ele>
        <time>2023-07-23T09:10:47Z</time>
      </trkpt>
      <trkpt lat="42.25306" lon="0.84029">
        <ele>1450.8</ele>
        <time>2023-07-23T09:10:48Z</time>
      </trkpt>
      <trkpt lat="42.25311" lon="0.84031">
        <ele>1450.4</ele>
        <time>2023-07-23T09:10:49Z</time>
      </trkpt>
      <trkpt lat="42.25315" lon="0.84034">
        <ele>1450</ele>
        <time>2023-07-23T09:10:50Z</time>
      </trkpt>
      <trkpt lat="42.2532" lon="0.84037">
        <ele>1449.8</ele>
        <time>2023-07-23T09:10:51Z</time>
      </trkpt>
      <trkpt lat="42.25324" lon="0.8404">
        <ele>1448.4</ele>
        <time>2023-07-23T09:10:52Z</time>
      </trkpt>
      <trkpt lat="42.25329" lon="0.84043">
        <ele>1447</ele>
        <time>2023-07-23T09:10:53Z</time>
      </trkpt>
      <trkpt lat="42.25333" lon="0.84046">
        <ele>1445.4</ele>
        <time>2023-07-23T09:10:54Z</time>
      </trkpt>
      <trkpt lat="42.25337" lon="0.8405">
        <ele>1444.4</ele>
        <time>2023-07-23T09:10:55Z</time>
      </trkpt>
      <trkpt lat="42.25341" lon="0.84054">
        <ele>1443.8</ele>
        <time>2023-07-23T09:10:56Z</time>
      </trkpt>
      <trkpt lat="42.25344" lon="0.84057">
        <ele>1442.4</ele>
        <time>2023-07-23T09:10:57Z</time>
      </trkpt>
      <trkpt lat="42.25347" lon="0.8406">
        <ele>1441.8</ele>
        <time>2023-07-23T09:10:58Z</time>
      </trkpt>
      <trkpt lat="42.25349" lon="0.84064">
        <ele>1440.6</ele>
        <time>2023-07-23T09:10:59Z</time>
      </trkpt>
      <trkpt lat="42.2535" lon="0.84067">
        <ele>1440.4</ele>
        <time>2023-07-23T09:11:00Z</time>
      </trkpt>
      <trkpt lat="42.25351" lon="0.84069">
        <ele>1439.6</ele>
        <time>2023-07-23T09:11:01Z</time>
      </trkpt>
      <trkpt lat="42.25352" lon="0.84071">
        <ele>1438.8</ele>
        <time>2023-07-23T09:11:02Z</time>
      </trkpt>
      <trkpt lat="42.25352" lon="0.84072">
        <ele>1438.6</ele>
        <time>2023-07-23T09:11:03Z</time>
      </trkpt>
      <trkpt lat="42.25352" lon="0.84072">
        <ele>1438.2</ele>
        <time>2023-07-23T09:11:04Z</time>
      </trkpt>
      <trkpt lat="42.25352" lon="0.84078">
        <ele>1436.4</ele>
        <time>2023-07-23T09:12:31Z</time>
      </trkpt>
      <trkpt lat="42.25353" lon="0.84081">
        <ele>1436.4</ele>
        <time>2023-07-23T09:12:32Z</time>
      </trkpt>
      <trkpt lat="42.25353" lon="0.84084">
        <ele>1436.4</ele>
        <time>2023-07-23T09:12:33Z</time>
      </trkpt>
      <trkpt lat="42.25353" lon="0.84088">
        <ele>1436.4</ele>
        <time>2023-07-23T09:12:34Z</time>
      </trkpt>
      <trkpt lat="42.25353" lon="0.84093">
        <ele>1436.4</ele>
        <time>2023-07-23T09:12:35Z</time>
      </trkpt>
      <trkpt lat="42.25353" lon="0.84097">
        <ele>1436</ele>
        <time>2023-07-23T09:12:36Z</time>
      </trkpt>
      <trkpt lat="42.25352" lon="0.84102">
        <ele>1436</ele>
        <time>2023-07-23T09:12:37Z</time>
      </trkpt>
      <trkpt lat="42.25352" lon="0.84106">
        <ele>1435.6</ele>
        <time>2023-07-23T09:12:38Z</time>
      </trkpt>
      <trkpt lat="42.25352" lon="0.84111">
        <ele>1435.4</ele>
        <time>2023-07-23T09:12:39Z</time>
      </trkpt>
      <trkpt lat="42.25352" lon="0.84116">
        <ele>1435.2</ele>
        <time>2023-07-23T09:12:40Z</time>
      </trkpt>
      <trkpt lat="42.25352" lon="0.84121">
        <ele>1435</ele>
        <time>2023-07-23T09:12:41Z</time>
      </trkpt>
      <trkpt lat="42.25353" lon="0.84125">
        <ele>1435</ele>
        <time>2023-07-23T09:12:42Z</time>
      </trkpt>
      <trkpt lat="42.25353" lon="0.84132">
        <ele>1434.8</ele>
        <time>2023-07-23T09:12:43Z</time>
      </trkpt>
      <trkpt lat="42.25353" lon="0.84137">
        <ele>1434.6</ele>
        <time>2023-07-23T09:12:44Z</time>
      </trkpt>
      <trkpt lat="42.25353" lon="0.84143">
        <ele>1434.4</ele>
        <time>2023-07-23T09:12:45Z</time>
      </trkpt>
      <trkpt lat="42.25353" lon="0.84149">
        <ele>1434.4</ele>
        <time>2023-07-23T09:12:46Z</time>
      </trkpt>
      <trkpt lat="42.25353" lon="0.84155">
        <ele>1434.2</ele>
        <time>2023-07-23T09:12:47Z</time>
      </trkpt>
      <trkpt lat="42.25353" lon="0.84163">
        <ele>1433.8</ele>
        <time>2023-07-23T09:12:48Z</time>
      </trkpt>
      <trkpt lat="42.25354" lon="0.84169">
        <ele>1433.8</ele>
        <time>2023-07-23T09:12:49Z</time>
      </trkpt>
      <trkpt lat="42.25355" lon="0.84176">
        <ele>1433.2</ele>
        <time>2023-07-23T09:12:50Z</time>
      </trkpt>
      <trkpt lat="42.25356" lon="0.84182">
        <ele>1432.6</ele>
        <time>2023-07-23T09:12:51Z</time>
      </trkpt>
      <trkpt lat="42.25358" lon="0.84188">
        <ele>1432.4</ele>
        <time>2023-07-23T09:12:52Z</time>
      </trkpt>
      <trkpt lat="42.25361" lon="0.84194">
        <ele>1432.2</ele>
        <time>2023-07-23T09:12:53Z</time>
      </trkpt>
      <trkpt lat="42.25365" lon="0.84199">
        <ele>1432</ele>
        <time>2023-07-23T09:12:54Z</time>
      </trkpt>
      <trkpt lat="42.25368" lon="0.84204">
        <ele>1431.4</ele>
        <time>2023-07-23T09:12:55Z</time>
      </trkpt>
      <trkpt lat="42.25373" lon="0.84208">
        <ele>1431</ele>
        <time>2023-07-23T09:12:56Z</time>
      </trkpt>
      <trkpt lat="42.25377" lon="0.84213">
        <ele>1430.8</ele>
        <time>2023-07-23T09:12:57Z</time>
      </trkpt>
      <trkpt lat="42.25382" lon="0.84218">
        <ele>1430.2</ele>
        <time>2023-07-23T09:12:58Z</time>
      </trkpt>
      <trkpt lat="42.25386" lon="0.84223">
        <ele>1430</ele>
        <time>2023-07-23T09:12:59Z</time>
      </trkpt>
      <trkpt lat="42.25391" lon="0.84228">
        <ele>1429.6</ele>
        <time>2023-07-23T09:13:00Z</time>
      </trkpt>
      <trkpt lat="42.25394" lon="0.84232">
        <ele>1429.4</ele>
        <time>2023-07-23T09:13:01Z</time>
      </trkpt>
      <trkpt lat="42.25398" lon="0.84236">
        <ele>1429</ele>
        <time>2023-07-23T09:13:02Z</time>
      </trkpt>
      <trkpt lat="42.254" lon="0.84241">
        <ele>1428.4</ele>
        <time>2023-07-23T09:13:03Z</time>
      </trkpt>
      <trkpt lat="42.25402" lon="0.84246">
        <ele>1428.4</ele>
        <time>2023-07-23T09:13:04Z</time>
      </trkpt>
      <trkpt lat="42.25403" lon="0.84251">
        <ele>1427.8</ele>
        <time>2023-07-23T09:13:05Z</time>
      </trkpt>
      <trkpt lat="42.25405" lon="0.84257">
        <ele>1427.6</ele>
        <time>2023-07-23T09:13:06Z</time>
      </trkpt>
      <trkpt lat="42.25406" lon="0.84264">
        <ele>1427</ele>
        <time>2023-07-23T09:13:07Z</time>
      </trkpt>
      <trkpt lat="42.25406" lon="0.84271">
        <ele>1426.4</ele>
        <time>2023-07-23T09:13:08Z</time>
      </trkpt>
      <trkpt lat="42.25405" lon="0.84279">
        <ele>1426.2</ele>
        <time>2023-07-23T09:13:09Z</time>
      </trkpt>
      <trkpt lat="42.25403" lon="0.84286">
        <ele>1425.8</ele>
        <time>2023-07-23T09:13:10Z</time>
      </trkpt>
      <trkpt lat="42.25401" lon="0.84293">
        <ele>1425.6</ele>
        <time>2023-07-23T09:13:11Z</time>
      </trkpt>
      <trkpt lat="42.25399" lon="0.843">
        <ele>1425.2</ele>
        <time>2023-07-23T09:13:12Z</time>
      </trkpt>
      <trkpt lat="42.25397" lon="0.84307">
        <ele>1424.6</ele>
        <time>2023-07-23T09:13:13Z</time>
      </trkpt>
      <trkpt lat="42.25395" lon="0.84313">
        <ele>1424.4</ele>
        <time>2023-07-23T09:13:14Z</time>
      </trkpt>
      <trkpt lat="42.25392" lon="0.8432">
        <ele>1423.8</ele>
        <time>2023-07-23T09:13:15Z</time>
      </trkpt>
      <trkpt lat="42.2539" lon="0.84328">
        <ele>1423.8</ele>
        <time>2023-07-23T09:13:16Z</time>
      </trkpt>
      <trkpt lat="42.25388" lon="0.84335">
        <ele>1423.4</ele>
        <time>2023-07-23T09:13:17Z</time>
      </trkpt>
      <trkpt lat="42.25386" lon="0.84343">
        <ele>1423.4</ele>
        <time>2023-07-23T09:13:18Z</time>
      </trkpt>
      <trkpt lat="42.25386" lon="0.8435">
        <ele>1423</ele>
        <time>2023-07-23T09:13:19Z</time>
      </trkpt>
      <trkpt lat="42.25386" lon="0.84358">
        <ele>1423</ele>
        <time>2023-07-23T09:13:20Z</time>
      </trkpt>
      <trkpt lat="42.25386" lon="0.84367">
        <ele>1422.8</ele>
        <time>2023-07-23T09:13:21Z</time>
      </trkpt>
      <trkpt lat="42.25387" lon="0.84375">
        <ele>1421.8</ele>
        <time>2023-07-23T09:13:22Z</time>
      </trkpt>
      <trkpt lat="42.25389" lon="0.84383">
        <ele>1421.2</ele>
        <time>2023-07-23T09:13:23Z</time>
      </trkpt>
      <trkpt lat="42.2539" lon="0.8439">
        <ele>1420.4</ele>
        <time>2023-07-23T09:13:24Z</time>
      </trkpt>
      <trkpt lat="42.25393" lon="0.84398">
        <ele>1419.8</ele>
        <time>2023-07-23T09:13:25Z</time>
      </trkpt>
      <trkpt lat="42.25396" lon="0.84405">
        <ele>1419.4</ele>
        <time>2023-07-23T09:13:26Z</time>
      </trkpt>
      <trkpt lat="42.25399" lon="0.84414">
        <ele>1419</ele>
        <time>2023-07-23T09:13:27Z</time>
      </trkpt>
      <trkpt lat="42.25403" lon="0.84422">
        <ele>1418.6</ele>
        <time>2023-07-23T09:13:28Z</time>
      </trkpt>
      <trkpt lat="42.25407" lon="0.84429">
        <ele>1418</ele>
        <time>2023-07-23T09:13:29Z</time>
      </trkpt>
      <trkpt lat="42.2541" lon="0.84437">
        <ele>1417.6</ele>
        <time>2023-07-23T09:13:30Z</time>
      </trkpt>
      <trkpt lat="42.25415" lon="0.84444">
        <ele>1417.2</ele>
        <time>2023-07-23T09:13:31Z</time>
      </trkpt>
      <trkpt lat="42.25419" lon="0.84451">
        <ele>1416.6</ele>
        <time>2023-07-23T09:13:32Z</time>
      </trkpt>
      <trkpt lat="42.25423" lon="0.84457">
        <ele>1416.4</ele>
        <time>2023-07-23T09:13:33Z</time>
      </trkpt>
      <trkpt lat="42.25426" lon="0.84463">
        <ele>1416</ele>
        <time>2023-07-23T09:13:34Z</time>
      </trkpt>
      <trkpt lat="42.25429" lon="0.84469">
        <ele>1415.8</ele>
        <time>2023-07-23T09:13:35Z</time>
      </trkpt>
      <trkpt lat="42.25431" lon="0.84474">
        <ele>1414.8</ele>
        <time>2023-07-23T09:13:36Z</time>
      </trkpt>
      <trkpt lat="42.25432" lon="0.84479">
        <ele>1414</ele>
        <time>2023-07-23T09:13:37Z</time>
      </trkpt>
      <trkpt lat="42.25432" lon="0.84484">
        <ele>1413.6</ele>
        <time>2023-07-23T09:13:38Z</time>
      </trkpt>
      <trkpt lat="42.25431" lon="0.84489">
        <ele>1412.8</ele>
        <time>2023-07-23T09:13:39Z</time>
      </trkpt>
      <trkpt lat="42.25428" lon="0.84491">
        <ele>1412.6</ele>
        <time>2023-07-23T09:13:40Z</time>
      </trkpt>
      <trkpt lat="42.25425" lon="0.84492">
        <ele>1412</ele>
        <time>2023-07-23T09:13:41Z</time>
      </trkpt>
      <trkpt lat="42.25421" lon="0.84493">
        <ele>1411.4</ele>
        <time>2023-07-23T09:13:42Z</time>
      </trkpt>
      <trkpt lat="42.25417" lon="0.84494">
        <ele>1411.2</ele>
        <time>2023-07-23T09:13:43Z</time>
      </trkpt>
      <trkpt lat="42.25413" lon="0.84495">
        <ele>1410.8</ele>
        <time>2023-07-23T09:13:44Z</time>
      </trkpt>
      <trkpt lat="42.25409" lon="0.84497">
        <ele>1410.6</ele>
        <time>2023-07-23T09:13:45Z</time>
      </trkpt>
      <trkpt lat="42.25405" lon="0.84499">
        <ele>1410.2</ele>
        <time>2023-07-23T09:13:46Z</time>
      </trkpt>
      <trkpt lat="42.25399" lon="0.84503">
        <ele>1410.2</ele>
        <time>2023-07-23T09:13:47Z</time>
      </trkpt>
      <trkpt lat="42.25395" lon="0.84506">
        <ele>1409.6</ele>
        <time>2023-07-23T09:13:48Z</time>
      </trkpt>
      <trkpt lat="42.25395" lon="0.84506">
        <ele>1409.4</ele>
        <time>2023-07-23T09:13:49Z</time>
      </trkpt>
      <trkpt lat="42.25385" lon="0.84514">
        <ele>1409.4</ele>
        <time>2023-07-23T09:13:50Z</time>
      </trkpt>
      <trkpt lat="42.25381" lon="0.84518">
        <ele>1409</ele>
        <time>2023-07-23T09:13:51Z</time>
      </trkpt>
      <trkpt lat="42.25376" lon="0.84525">
        <ele>1408.8</ele>
        <time>2023-07-23T09:13:52Z</time>
      </trkpt>
      <trkpt lat="42.25373" lon="0.84531">
        <ele>1408.6</ele>
        <time>2023-07-23T09:13:53Z</time>
      </trkpt>
      <trkpt lat="42.25369" lon="0.84535">
        <ele>1407.6</ele>
        <time>2023-07-23T09:13:54Z</time>
      </trkpt>
      <trkpt lat="42.25365" lon="0.84536">
        <ele>1407.4</ele>
        <time>2023-07-23T09:13:55Z</time>
      </trkpt>
      <trkpt lat="42.2536" lon="0.84536">
        <ele>1406.8</ele>
        <time>2023-07-23T09:13:56Z</time>
      </trkpt>
      <trkpt lat="42.25355" lon="0.84535">
        <ele>1406.6</ele>
        <time>2023-07-23T09:13:57Z</time>
      </trkpt>
      <trkpt lat="42.25349" lon="0.84534">
        <ele>1406</ele>
        <time>2023-07-23T09:13:58Z</time>
      </trkpt>
      <trkpt lat="42.25344" lon="0.84533">
        <ele>1405.8</ele>
        <time>2023-07-23T09:13:59Z</time>
      </trkpt>
      <trkpt lat="42.25338" lon="0.84532">
        <ele>1405.4</ele>
        <time>2023-07-23T09:14:00Z</time>
      </trkpt>
      <trkpt lat="42.25332" lon="0.84532">
        <ele>1405</ele>
        <time>2023-07-23T09:14:01Z</time>
      </trkpt>
      <trkpt lat="42.25325" lon="0.84533">
        <ele>1404.8</ele>
        <time>2023-07-23T09:14:02Z</time>
      </trkpt>
      <trkpt lat="42.25319" lon="0.84534">
        <ele>1403.8</ele>
        <time>2023-07-23T09:14:03Z</time>
      </trkpt>
      <trkpt lat="42.25313" lon="0.84536">
        <ele>1403.2</ele>
        <time>2023-07-23T09:14:04Z</time>
      </trkpt>
      <trkpt lat="42.25306" lon="0.84537">
        <ele>1402.8</ele>
        <time>2023-07-23T09:14:05Z</time>
      </trkpt>
      <trkpt lat="42.253" lon="0.84537">
        <ele>1402</ele>
        <time>2023-07-23T09:14:06Z</time>
      </trkpt>
      <trkpt lat="42.25293" lon="0.84536">
        <ele>1401.8</ele>
        <time>2023-07-23T09:14:07Z</time>
      </trkpt>
      <trkpt lat="42.25286" lon="0.84534">
        <ele>1401.4</ele>
        <time>2023-07-23T09:14:08Z</time>
      </trkpt>
      <trkpt lat="42.2528" lon="0.84534">
        <ele>1400.8</ele>
        <time>2023-07-23T09:14:09Z</time>
      </trkpt>
      <trkpt lat="42.25273" lon="0.84533">
        <ele>1400.2</ele>
        <time>2023-07-23T09:14:10Z</time>
      </trkpt>
      <trkpt lat="42.25266" lon="0.84534">
        <ele>1399.8</ele>
        <time>2023-07-23T09:14:11Z</time>
      </trkpt>
      <trkpt lat="42.25259" lon="0.84534">
        <ele>1399.4</ele>
        <time>2023-07-23T09:14:12Z</time>
      </trkpt>
      <trkpt lat="42.25252" lon="0.84533">
        <ele>1399</ele>
        <time>2023-07-23T09:14:13Z</time>
      </trkpt>
      <trkpt lat="42.25245" lon="0.84532">
        <ele>1398.8</ele>
        <time>2023-07-23T09:14:14Z</time>
      </trkpt>
      <trkpt lat="42.25239" lon="0.84533">
        <ele>1398.4</ele>
        <time>2023-07-23T09:14:15Z</time>
      </trkpt>
      <trkpt lat="42.25233" lon="0.84535">
        <ele>1398.2</ele>
        <time>2023-07-23T09:14:16Z</time>
      </trkpt>
      <trkpt lat="42.25226" lon="0.84536">
        <ele>1397.8</ele>
        <time>2023-07-23T09:14:17Z</time>
      </trkpt>
      <trkpt lat="42.2522" lon="0.84537">
        <ele>1397.2</ele>
        <time>2023-07-23T09:14:18Z</time>
      </trkpt>
      <trkpt lat="42.25214" lon="0.84535">
        <ele>1396.6</ele>
        <time>2023-07-23T09:14:19Z</time>
      </trkpt>
      <trkpt lat="42.25208" lon="0.84531">
        <ele>1395.4</ele>
        <time>2023-07-23T09:14:20Z</time>
      </trkpt>
      <trkpt lat="42.25203" lon="0.84527">
        <ele>1395</ele>
        <time>2023-07-23T09:14:21Z</time>
      </trkpt>
      <trkpt lat="42.25198" lon="0.84523">
        <ele>1394.6</ele>
        <time>2023-07-23T09:14:22Z</time>
      </trkpt>
      <trkpt lat="42.25193" lon="0.84519">
        <ele>1394.2</ele>
        <time>2023-07-23T09:14:23Z</time>
      </trkpt>
      <trkpt lat="42.25186" lon="0.84518">
        <ele>1393.8</ele>
        <time>2023-07-23T09:14:24Z</time>
      </trkpt>
      <trkpt lat="42.2518" lon="0.84517">
        <ele>1392.4</ele>
        <time>2023-07-23T09:14:25Z</time>
      </trkpt>
      <trkpt lat="42.25174" lon="0.84517">
        <ele>1392</ele>
        <time>2023-07-23T09:14:26Z</time>
      </trkpt>
      <trkpt lat="42.25168" lon="0.84519">
        <ele>1391.6</ele>
        <time>2023-07-23T09:14:27Z</time>
      </trkpt>
      <trkpt lat="42.25162" lon="0.84522">
        <ele>1391.4</ele>
        <time>2023-07-23T09:14:28Z</time>
      </trkpt>
      <trkpt lat="42.25157" lon="0.84526">
        <ele>1391</ele>
        <time>2023-07-23T09:14:29Z</time>
      </trkpt>
      <trkpt lat="42.25151" lon="0.8453">
        <ele>1390.8</ele>
        <time>2023-07-23T09:14:30Z</time>
      </trkpt>
      <trkpt lat="42.25147" lon="0.84534">
        <ele>1390.6</ele>
        <time>2023-07-23T09:14:31Z</time>
      </trkpt>
      <trkpt lat="42.25147" lon="0.84534">
        <ele>1390</ele>
        <time>2023-07-23T09:14:32Z</time>
      </trkpt>
      <trkpt lat="42.25137" lon="0.84544">
        <ele>1389.8</ele>
        <time>2023-07-23T09:14:33Z</time>
      </trkpt>
      <trkpt lat="42.25131" lon="0.8455">
        <ele>1389</ele>
        <time>2023-07-23T09:14:34Z</time>
      </trkpt>
      <trkpt lat="42.25127" lon="0.84554">
        <ele>1388.6</ele>
        <time>2023-07-23T09:14:35Z</time>
      </trkpt>
      <trkpt lat="42.2512" lon="0.84559">
        <ele>1388.2</ele>
        <time>2023-07-23T09:14:36Z</time>
      </trkpt>
      <trkpt lat="42.25114" lon="0.84562">
        <ele>1387.8</ele>
        <time>2023-07-23T09:14:37Z</time>
      </trkpt>
      <trkpt lat="42.25108" lon="0.84565">
        <ele>1387.6</ele>
        <time>2023-07-23T09:14:38Z</time>
      </trkpt>
      <trkpt lat="42.25103" lon="0.84568">
        <ele>1387.4</ele>
        <time>2023-07-23T09:14:39Z</time>
      </trkpt>
      <trkpt lat="42.25098" lon="0.84572">
        <ele>1387</ele>
        <time>2023-07-23T09:14:40Z</time>
      </trkpt>
      <trkpt lat="42.25092" lon="0.84577">
        <ele>1386.6</ele>
        <time>2023-07-23T09:14:41Z</time>
      </trkpt>
      <trkpt lat="42.25087" lon="0.84583">
        <ele>1386.4</ele>
        <time>2023-07-23T09:14:42Z</time>
      </trkpt>
      <trkpt lat="42.25083" lon="0.84589">
        <ele>1386.2</ele>
        <time>2023-07-23T09:14:43Z</time>
      </trkpt>
      <trkpt lat="42.2508" lon="0.84596">
        <ele>1385.6</ele>
        <time>2023-07-23T09:14:44Z</time>
      </trkpt>
      <trkpt lat="42.25077" lon="0.84603">
        <ele>1385.4</ele>
        <time>2023-07-23T09:14:45Z</time>
      </trkpt>
      <trkpt lat="42.25076" lon="0.84611">
        <ele>1383.8</ele>
        <time>2023-07-23T09:14:46Z</time>
      </trkpt>
      <trkpt lat="42.25074" lon="0.84619">
        <ele>1383</ele>
        <time>2023-07-23T09:14:47Z</time>
      </trkpt>
      <trkpt lat="42.25071" lon="0.84626">
        <ele>1382.6</ele>
        <time>2023-07-23T09:14:48Z</time>
      </trkpt>
      <trkpt lat="42.25066" lon="0.84631">
        <ele>1381.8</ele>
        <time>2023-07-23T09:14:49Z</time>
      </trkpt>
      <trkpt lat="42.25061" lon="0.84635">
        <ele>1381.6</ele>
        <time>2023-07-23T09:14:50Z</time>
      </trkpt>
      <trkpt lat="42.25055" lon="0.84639">
        <ele>1381</ele>
        <time>2023-07-23T09:14:51Z</time>
      </trkpt>
      <trkpt lat="42.25049" lon="0.84642">
        <ele>1380.6</ele>
        <time>2023-07-23T09:14:52Z</time>
      </trkpt>
      <trkpt lat="42.25042" lon="0.84645">
        <ele>1380.4</ele>
        <time>2023-07-23T09:14:53Z</time>
      </trkpt>
      <trkpt lat="42.25036" lon="0.84648">
        <ele>1379.4</ele>
        <time>2023-07-23T09:14:54Z</time>
      </trkpt>
      <trkpt lat="42.2503" lon="0.84652">
        <ele>1378.6</ele>
        <time>2023-07-23T09:14:55Z</time>
      </trkpt>
      <trkpt lat="42.25024" lon="0.84655">
        <ele>1377.6</ele>
        <time>2023-07-23T09:14:56Z</time>
      </trkpt>
      <trkpt lat="42.25018" lon="0.84658">
        <ele>1377</ele>
        <time>2023-07-23T09:14:57Z</time>
      </trkpt>
      <trkpt lat="42.25012" lon="0.84661">
        <ele>1376.4</ele>
        <time>2023-07-23T09:14:58Z</time>
      </trkpt>
      <trkpt lat="42.25005" lon="0.84664">
        <ele>1376</ele>
        <time>2023-07-23T09:14:59Z</time>
      </trkpt>
      <trkpt lat="42.24999" lon="0.84666">
        <ele>1375.8</ele>
        <time>2023-07-23T09:15:00Z</time>
      </trkpt>
      <trkpt lat="42.24993" lon="0.84668">
        <ele>1375.4</ele>
        <time>2023-07-23T09:15:01Z</time>
      </trkpt>
      <trkpt lat="42.24979" lon="0.84673">
        <ele>1373.4</ele>
        <time>2023-07-23T09:15:03Z</time>
      </trkpt>
      <trkpt lat="42.24972" lon="0.84674">
        <ele>1372.8</ele>
        <time>2023-07-23T09:15:04Z</time>
      </trkpt>
      <trkpt lat="42.24965" lon="0.84676">
        <ele>1372.6</ele>
        <time>2023-07-23T09:15:05Z</time>
      </trkpt>
      <trkpt lat="42.24958" lon="0.84678">
        <ele>1372.2</ele>
        <time>2023-07-23T09:15:06Z</time>
      </trkpt>
      <trkpt lat="42.24943" lon="0.8468">
        <ele>1371.2</ele>
        <time>2023-07-23T09:15:08Z</time>
      </trkpt>
      <trkpt lat="42.24936" lon="0.84681">
        <ele>1370.4</ele>
        <time>2023-07-23T09:15:09Z</time>
      </trkpt>
      <trkpt lat="42.2493" lon="0.84681">
        <ele>1369.4</ele>
        <time>2023-07-23T09:15:10Z</time>
      </trkpt>
      <trkpt lat="42.24923" lon="0.84681">
        <ele>1368.8</ele>
        <time>2023-07-23T09:15:11Z</time>
      </trkpt>
      <trkpt lat="42.24916" lon="0.84682">
        <ele>1368.4</ele>
        <time>2023-07-23T09:15:12Z</time>
      </trkpt>
      <trkpt lat="42.24909" lon="0.84684">
        <ele>1368</ele>
        <time>2023-07-23T09:15:13Z</time>
      </trkpt>
      <trkpt lat="42.24902" lon="0.84688">
        <ele>1368</ele>
        <time>2023-07-23T09:15:14Z</time>
      </trkpt>
      <trkpt lat="42.24896" lon="0.84692">
        <ele>1367.6</ele>
        <time>2023-07-23T09:15:15Z</time>
      </trkpt>
      <trkpt lat="42.24891" lon="0.84697">
        <ele>1367</ele>
        <time>2023-07-23T09:15:16Z</time>
      </trkpt>
      <trkpt lat="42.24886" lon="0.84702">
        <ele>1366.6</ele>
        <time>2023-07-23T09:15:17Z</time>
      </trkpt>
      <trkpt lat="42.24883" lon="0.84709">
        <ele>1365.8</ele>
        <time>2023-07-23T09:15:18Z</time>
      </trkpt>
      <trkpt lat="42.24881" lon="0.84716">
        <ele>1365.4</ele>
        <time>2023-07-23T09:15:19Z</time>
      </trkpt>
      <trkpt lat="42.24881" lon="0.84722">
        <ele>1364.6</ele>
        <time>2023-07-23T09:15:20Z</time>
      </trkpt>
      <trkpt lat="42.24881" lon="0.84728">
        <ele>1364.2</ele>
        <time>2023-07-23T09:15:21Z</time>
      </trkpt>
      <trkpt lat="42.24882" lon="0.84734">
        <ele>1364</ele>
        <time>2023-07-23T09:15:22Z</time>
      </trkpt>
      <trkpt lat="42.24883" lon="0.8474">
        <ele>1363.4</ele>
        <time>2023-07-23T09:15:23Z</time>
      </trkpt>
      <trkpt lat="42.24885" lon="0.84748">
        <ele>1363</ele>
        <time>2023-07-23T09:15:24Z</time>
      </trkpt>
      <trkpt lat="42.24887" lon="0.84755">
        <ele>1362.6</ele>
        <time>2023-07-23T09:15:25Z</time>
      </trkpt>
      <trkpt lat="42.24889" lon="0.8476">
        <ele>1362.4</ele>
        <time>2023-07-23T09:15:26Z</time>
      </trkpt>
      <trkpt lat="42.24891" lon="0.84767">
        <ele>1361.8</ele>
        <time>2023-07-23T09:15:27Z</time>
      </trkpt>
      <trkpt lat="42.24895" lon="0.84775">
        <ele>1361.2</ele>
        <time>2023-07-23T09:15:28Z</time>
      </trkpt>
      <trkpt lat="42.24897" lon="0.84782">
        <ele>1360.8</ele>
        <time>2023-07-23T09:15:29Z</time>
      </trkpt>
      <trkpt lat="42.24899" lon="0.84787">
        <ele>1360.4</ele>
        <time>2023-07-23T09:15:30Z</time>
      </trkpt>
      <trkpt lat="42.24902" lon="0.84796">
        <ele>1360.2</ele>
        <time>2023-07-23T09:15:31Z</time>
      </trkpt>
      <trkpt lat="42.24904" lon="0.84802">
        <ele>1359.8</ele>
        <time>2023-07-23T09:15:32Z</time>
      </trkpt>
      <trkpt lat="42.24905" lon="0.8481">
        <ele>1359.2</ele>
        <time>2023-07-23T09:15:33Z</time>
      </trkpt>
      <trkpt lat="42.24906" lon="0.8482">
        <ele>1358.8</ele>
        <time>2023-07-23T09:15:34Z</time>
      </trkpt>
      <trkpt lat="42.24907" lon="0.84827">
        <ele>1358.4</ele>
        <time>2023-07-23T09:15:35Z</time>
      </trkpt>
      <trkpt lat="42.24908" lon="0.84835">
        <ele>1358</ele>
        <time>2023-07-23T09:15:36Z</time>
      </trkpt>
      <trkpt lat="42.24908" lon="0.84843">
        <ele>1357.2</ele>
        <time>2023-07-23T09:15:37Z</time>
      </trkpt>
      <trkpt lat="42.24908" lon="0.84851">
        <ele>1357</ele>
        <time>2023-07-23T09:15:38Z</time>
      </trkpt>
      <trkpt lat="42.24908" lon="0.8486">
        <ele>1356.4</ele>
        <time>2023-07-23T09:15:39Z</time>
      </trkpt>
      <trkpt lat="42.24907" lon="0.84868">
        <ele>1355.8</ele>
        <time>2023-07-23T09:15:40Z</time>
      </trkpt>
      <trkpt lat="42.24906" lon="0.84877">
        <ele>1355.4</ele>
        <time>2023-07-23T09:15:41Z</time>
      </trkpt>
      <trkpt lat="42.24905" lon="0.84886">
        <ele>1355</ele>
        <time>2023-07-23T09:15:42Z</time>
      </trkpt>
      <trkpt lat="42.24903" lon="0.84895">
        <ele>1354.6</ele>
        <time>2023-07-23T09:15:43Z</time>
      </trkpt>
      <trkpt lat="42.24902" lon="0.84905">
        <ele>1354</ele>
        <time>2023-07-23T09:15:44Z</time>
      </trkpt>
      <trkpt lat="42.24901" lon="0.84913">
        <ele>1353.4</ele>
        <time>2023-07-23T09:15:45Z</time>
      </trkpt>
      <trkpt lat="42.249" lon="0.84921">
        <ele>1353.2</ele>
        <time>2023-07-23T09:15:46Z</time>
      </trkpt>
      <trkpt lat="42.24899" lon="0.84927">
        <ele>1352</ele>
        <time>2023-07-23T09:15:47Z</time>
      </trkpt>
      <trkpt lat="42.24897" lon="0.84935">
        <ele>1351.4</ele>
        <time>2023-07-23T09:15:48Z</time>
      </trkpt>
      <trkpt lat="42.24895" lon="0.84941">
        <ele>1350.4</ele>
        <time>2023-07-23T09:15:49Z</time>
      </trkpt>
      <trkpt lat="42.24893" lon="0.8495">
        <ele>1350</ele>
        <time>2023-07-23T09:15:50Z</time>
      </trkpt>
      <trkpt lat="42.24891" lon="0.84958">
        <ele>1349.6</ele>
        <time>2023-07-23T09:15:51Z</time>
      </trkpt>
      <trkpt lat="42.24889" lon="0.84964">
        <ele>1349.2</ele>
        <time>2023-07-23T09:15:52Z</time>
      </trkpt>
      <trkpt lat="42.24886" lon="0.84973">
        <ele>1349</ele>
        <time>2023-07-23T09:15:53Z</time>
      </trkpt>
      <trkpt lat="42.24883" lon="0.84981">
        <ele>1348.6</ele>
        <time>2023-07-23T09:15:54Z</time>
      </trkpt>
      <trkpt lat="42.24879" lon="0.84988">
        <ele>1348.4</ele>
        <time>2023-07-23T09:15:55Z</time>
      </trkpt>
      <trkpt lat="42.24877" lon="0.84994">
        <ele>1347.8</ele>
        <time>2023-07-23T09:15:56Z</time>
      </trkpt>
      <trkpt lat="42.24873" lon="0.85002">
        <ele>1347</ele>
        <time>2023-07-23T09:15:57Z</time>
      </trkpt>
      <trkpt lat="42.24869" lon="0.85012">
        <ele>1346.4</ele>
        <time>2023-07-23T09:15:58Z</time>
      </trkpt>
      <trkpt lat="42.24866" lon="0.85018">
        <ele>1345.8</ele>
        <time>2023-07-23T09:15:59Z</time>
      </trkpt>
      <trkpt lat="42.24862" lon="0.85028">
        <ele>1345.6</ele>
        <time>2023-07-23T09:16:00Z</time>
      </trkpt>
      <trkpt lat="42.2486" lon="0.85033">
        <ele>1345</ele>
        <time>2023-07-23T09:16:01Z</time>
      </trkpt>
      <trkpt lat="42.24857" lon="0.8504">
        <ele>1345</ele>
        <time>2023-07-23T09:16:02Z</time>
      </trkpt>
      <trkpt lat="42.24855" lon="0.85047">
        <ele>1344.6</ele>
        <time>2023-07-23T09:16:03Z</time>
      </trkpt>
      <trkpt lat="42.24854" lon="0.85051">
        <ele>1343.8</ele>
        <time>2023-07-23T09:16:04Z</time>
      </trkpt>
      <trkpt lat="42.24853" lon="0.85055">
        <ele>1343.6</ele>
        <time>2023-07-23T09:16:05Z</time>
      </trkpt>
      <trkpt lat="42.24852" lon="0.85057">
        <ele>1342.4</ele>
        <time>2023-07-23T09:16:06Z</time>
      </trkpt>
      <trkpt lat="42.24851" lon="0.85059">
        <ele>1342</ele>
        <time>2023-07-23T09:16:07Z</time>
      </trkpt>
      <trkpt lat="42.24851" lon="0.85061">
        <ele>1341.2</ele>
        <time>2023-07-23T09:16:08Z</time>
      </trkpt>
      <trkpt lat="42.2485" lon="0.85063">
        <ele>1340.8</ele>
        <time>2023-07-23T09:16:09Z</time>
      </trkpt>
      <trkpt lat="42.24849" lon="0.85066">
        <ele>1340.4</ele>
        <time>2023-07-23T09:16:10Z</time>
      </trkpt>
      <trkpt lat="42.24849" lon="0.85068">
        <ele>1340</ele>
        <time>2023-07-23T09:16:11Z</time>
      </trkpt>
      <trkpt lat="42.24847" lon="0.85071">
        <ele>1339.8</ele>
        <time>2023-07-23T09:16:12Z</time>
      </trkpt>
      <trkpt lat="42.24846" lon="0.85074">
        <ele>1339.6</ele>
        <time>2023-07-23T09:16:13Z</time>
      </trkpt>
      <trkpt lat="42.24845" lon="0.85076">
        <ele>1339.4</ele>
        <time>2023-07-23T09:16:14Z</time>
      </trkpt>
      <trkpt lat="42.24844" lon="0.85078">
        <ele>1339.2</ele>
        <time>2023-07-23T09:16:15Z</time>
      </trkpt>
      <trkpt lat="42.24843" lon="0.8508">
        <ele>1338.8</ele>
        <time>2023-07-23T09:16:16Z</time>
      </trkpt>
      <trkpt lat="42.24843" lon="0.85081">
        <ele>1338.4</ele>
        <time>2023-07-23T09:16:17Z</time>
      </trkpt>
      <trkpt lat="42.24843" lon="0.85082">
        <ele>1338</ele>
        <time>2023-07-23T09:16:18Z</time>
      </trkpt>
      <trkpt lat="42.24843" lon="0.85082">
        <ele>1337.8</ele>
        <time>2023-07-23T09:16:19Z</time>
      </trkpt>
      <trkpt lat="42.24843" lon="0.85082">
        <ele>1337.4</ele>
        <time>2023-07-23T09:16:20Z</time>
      </trkpt>
      <trkpt lat="42.2484" lon="0.85084">
        <ele>1335.4</ele>
        <time>2023-07-23T09:16:57Z</time>
      </trkpt>
      <trkpt lat="42.24839" lon="0.85085">
        <ele>1335.4</ele>
        <time>2023-07-23T09:16:58Z</time>
      </trkpt>
      <trkpt lat="42.2484" lon="0.85087">
        <ele>1335.2</ele>
        <time>2023-07-23T09:16:59Z</time>
      </trkpt>
      <trkpt lat="42.24841" lon="0.85087">
        <ele>1335.2</ele>
        <time>2023-07-23T09:17:00Z</time>
      </trkpt>
      <trkpt lat="42.24841" lon="0.85086">
        <ele>1335.2</ele>
        <time>2023-07-23T09:17:01Z</time>
      </trkpt>
      <trkpt lat="42.24841" lon="0.85086">
        <ele>1335.2</ele>
        <time>2023-07-23T09:17:02Z</time>
      </trkpt>
      <trkpt lat="42.24841" lon="0.85086">
        <ele>1335</ele>
        <time>2023-07-23T09:17:03Z</time>
      </trkpt>
      <trkpt lat="42.24841" lon="0.85085">
        <ele>1334.8</ele>
        <time>2023-07-23T09:17:04Z</time>
      </trkpt>
      <trkpt lat="42.24845" lon="0.85077">
        <ele>1334.6</ele>
        <time>2023-07-23T09:17:09Z</time>
      </trkpt>
      <trkpt lat="42.24846" lon="0.85074">
        <ele>1334.6</ele>
        <time>2023-07-23T09:17:10Z</time>
      </trkpt>
      <trkpt lat="42.24847" lon="0.85072">
        <ele>1334.6</ele>
        <time>2023-07-23T09:17:11Z</time>
      </trkpt>
      <trkpt lat="42.24848" lon="0.8507">
        <ele>1334.8</ele>
        <time>2023-07-23T09:17:12Z</time>
      </trkpt>
      <trkpt lat="42.24849" lon="0.85068">
        <ele>1334.8</ele>
        <time>2023-07-23T09:17:13Z</time>
      </trkpt>
      <trkpt lat="42.2485" lon="0.85066">
        <ele>1334.8</ele>
        <time>2023-07-23T09:17:14Z</time>
      </trkpt>
      <trkpt lat="42.24851" lon="0.85063">
        <ele>1335</ele>
        <time>2023-07-23T09:17:15Z</time>
      </trkpt>
      <trkpt lat="42.24851" lon="0.85061">
        <ele>1335</ele>
        <time>2023-07-23T09:17:16Z</time>
      </trkpt>
      <trkpt lat="42.24851" lon="0.85058">
        <ele>1335</ele>
        <time>2023-07-23T09:17:17Z</time>
      </trkpt>
      <trkpt lat="42.2485" lon="0.85057">
        <ele>1335.4</ele>
        <time>2023-07-23T09:17:18Z</time>
      </trkpt>
      <trkpt lat="42.24848" lon="0.85056">
        <ele>1335.6</ele>
        <time>2023-07-23T09:17:19Z</time>
      </trkpt>
      <trkpt lat="42.24846" lon="0.85056">
        <ele>1336</ele>
        <time>2023-07-23T09:17:20Z</time>
      </trkpt>
      <trkpt lat="42.24843" lon="0.85058">
        <ele>1336.4</ele>
        <time>2023-07-23T09:17:21Z</time>
      </trkpt>
      <trkpt lat="42.24841" lon="0.8506">
        <ele>1336.6</ele>
        <time>2023-07-23T09:17:22Z</time>
      </trkpt>
      <trkpt lat="42.24837" lon="0.85062">
        <ele>1336.8</ele>
        <time>2023-07-23T09:17:23Z</time>
      </trkpt>
      <trkpt lat="42.24834" lon="0.85065">
        <ele>1337</ele>
        <time>2023-07-23T09:17:24Z</time>
      </trkpt>
      <trkpt lat="42.24831" lon="0.85068">
        <ele>1337.2</ele>
        <time>2023-07-23T09:17:25Z</time>
      </trkpt>
      <trkpt lat="42.24828" lon="0.85071">
        <ele>1337.2</ele>
        <time>2023-07-23T09:17:26Z</time>
      </trkpt>
      <trkpt lat="42.24825" lon="0.85074">
        <ele>1337.2</ele>
        <time>2023-07-23T09:17:27Z</time>
      </trkpt>
      <trkpt lat="42.24821" lon="0.85077">
        <ele>1337.4</ele>
        <time>2023-07-23T09:17:28Z</time>
      </trkpt>
      <trkpt lat="42.24818" lon="0.85078">
        <ele>1337.4</ele>
        <time>2023-07-23T09:17:29Z</time>
      </trkpt>
      <trkpt lat="42.24814" lon="0.8508">
        <ele>1337.4</ele>
        <time>2023-07-23T09:17:30Z</time>
      </trkpt>
      <trkpt lat="42.24811" lon="0.85082">
        <ele>1337.4</ele>
        <time>2023-07-23T09:17:31Z</time>
      </trkpt>
      <trkpt lat="42.24808" lon="0.85084">
        <ele>1337.4</ele>
        <time>2023-07-23T09:17:32Z</time>
      </trkpt>
      <trkpt lat="42.24805" lon="0.85086">
        <ele>1337.4</ele>
        <time>2023-07-23T09:17:33Z</time>
      </trkpt>
      <trkpt lat="42.24802" lon="0.85088">
        <ele>1337.4</ele>
        <time>2023-07-23T09:17:34Z</time>
      </trkpt>
      <trkpt lat="42.24798" lon="0.85091">
        <ele>1337.4</ele>
        <time>2023-07-23T09:17:35Z</time>
      </trkpt>
      <trkpt lat="42.24794" lon="0.85094">
        <ele>1337.4</ele>
        <time>2023-07-23T09:17:36Z</time>
      </trkpt>
      <trkpt lat="42.2479" lon="0.85096">
        <ele>1337.2</ele>
        <time>2023-07-23T09:17:37Z</time>
      </trkpt>
      <trkpt lat="42.24786" lon="0.85099">
        <ele>1337</ele>
        <time>2023-07-23T09:17:38Z</time>
      </trkpt>
      <trkpt lat="42.24783" lon="0.85102">
        <ele>1337</ele>
        <time>2023-07-23T09:17:39Z</time>
      </trkpt>
      <trkpt lat="42.24779" lon="0.85106">
        <ele>1336.8</ele>
        <time>2023-07-23T09:17:40Z</time>
      </trkpt>
      <trkpt lat="42.24776" lon="0.85109">
        <ele>1336.8</ele>
        <time>2023-07-23T09:17:41Z</time>
      </trkpt>
      <trkpt lat="42.24773" lon="0.85113">
        <ele>1336.6</ele>
        <time>2023-07-23T09:17:42Z</time>
      </trkpt>
      <trkpt lat="42.2477" lon="0.85115">
        <ele>1336.6</ele>
        <time>2023-07-23T09:17:43Z</time>
      </trkpt>
      <trkpt lat="42.24766" lon="0.85118">
        <ele>1336.4</ele>
        <time>2023-07-23T09:17:44Z</time>
      </trkpt>
      <trkpt lat="42.24763" lon="0.85121">
        <ele>1336.4</ele>
        <time>2023-07-23T09:17:45Z</time>
      </trkpt>
      <trkpt lat="42.2476" lon="0.85124">
        <ele>1336.2</ele>
        <time>2023-07-23T09:17:46Z</time>
      </trkpt>
      <trkpt lat="42.24757" lon="0.85127">
        <ele>1336.2</ele>
        <time>2023-07-23T09:17:47Z</time>
      </trkpt>
      <trkpt lat="42.24754" lon="0.8513">
        <ele>1336.2</ele>
        <time>2023-07-23T09:17:48Z</time>
      </trkpt>
      <trkpt lat="42.24751" lon="0.85133">
        <ele>1336.2</ele>
        <time>2023-07-23T09:17:49Z</time>
      </trkpt>
      <trkpt lat="42.24748" lon="0.85135">
        <ele>1336.2</ele>
        <time>2023-07-23T09:17:50Z</time>
      </trkpt>
      <trkpt lat="42.24745" lon="0.85138">
        <ele>1336.2</ele>
        <time>2023-07-23T09:17:51Z</time>
      </trkpt>
      <trkpt lat="42.24742" lon="0.8514">
        <ele>1336.2</ele>
        <time>2023-07-23T09:17:52Z</time>
      </trkpt>
      <trkpt lat="42.24738" lon="0.85143">
        <ele>1336.2</ele>
        <time>2023-07-23T09:17:53Z</time>
      </trkpt>
      <trkpt lat="42.24735" lon="0.85145">
        <ele>1336.2</ele>
        <time>2023-07-23T09:17:54Z</time>
      </trkpt>
      <trkpt lat="42.24732" lon="0.85147">
        <ele>1336.2</ele>
        <time>2023-07-23T09:17:55Z</time>
      </trkpt>
      <trkpt lat="42.24729" lon="0.85149">
        <ele>1336.2</ele>
        <time>2023-07-23T09:17:56Z</time>
      </trkpt>
      <trkpt lat="42.24727" lon="0.85152">
        <ele>1336.2</ele>
        <time>2023-07-23T09:17:57Z</time>
      </trkpt>
      <trkpt lat="42.24725" lon="0.85155">
        <ele>1336.2</ele>
        <time>2023-07-23T09:17:58Z</time>
      </trkpt>
      <trkpt lat="42.24723" lon="0.85158">
        <ele>1336.4</ele>
        <time>2023-07-23T09:17:59Z</time>
      </trkpt>
      <trkpt lat="42.24721" lon="0.85161">
        <ele>1336.4</ele>
        <time>2023-07-23T09:18:00Z</time>
      </trkpt>
      <trkpt lat="42.24719" lon="0.85164">
        <ele>1336.4</ele>
        <time>2023-07-23T09:18:01Z</time>
      </trkpt>
      <trkpt lat="42.24716" lon="0.85167">
        <ele>1336.4</ele>
        <time>2023-07-23T09:18:02Z</time>
      </trkpt>
      <trkpt lat="42.24714" lon="0.85169">
        <ele>1336.6</ele>
        <time>2023-07-23T09:18:03Z</time>
      </trkpt>
      <trkpt lat="42.24711" lon="0.85172">
        <ele>1336.6</ele>
        <time>2023-07-23T09:18:04Z</time>
      </trkpt>
      <trkpt lat="42.24708" lon="0.85174">
        <ele>1336.6</ele>
        <time>2023-07-23T09:18:05Z</time>
      </trkpt>
      <trkpt lat="42.24705" lon="0.85176">
        <ele>1336.8</ele>
        <time>2023-07-23T09:18:06Z</time>
      </trkpt>
      <trkpt lat="42.24701" lon="0.85178">
        <ele>1337</ele>
        <time>2023-07-23T09:18:07Z</time>
      </trkpt>
      <trkpt lat="42.24698" lon="0.8518">
        <ele>1337</ele>
        <time>2023-07-23T09:18:08Z</time>
      </trkpt>
      <trkpt lat="42.24695" lon="0.85182">
        <ele>1337</ele>
        <time>2023-07-23T09:18:09Z</time>
      </trkpt>
      <trkpt lat="42.24692" lon="0.85184">
        <ele>1337</ele>
        <time>2023-07-23T09:18:10Z</time>
      </trkpt>
      <trkpt lat="42.24689" lon="0.85186">
        <ele>1337.2</ele>
        <time>2023-07-23T09:18:11Z</time>
      </trkpt>
      <trkpt lat="42.24686" lon="0.85188">
        <ele>1337.2</ele>
        <time>2023-07-23T09:18:12Z</time>
      </trkpt>
      <trkpt lat="42.24683" lon="0.8519">
        <ele>1337.2</ele>
        <time>2023-07-23T09:18:13Z</time>
      </trkpt>
      <trkpt lat="42.2468" lon="0.85192">
        <ele>1337.2</ele>
        <time>2023-07-23T09:18:14Z</time>
      </trkpt>
      <trkpt lat="42.24676" lon="0.85194">
        <ele>1337</ele>
        <time>2023-07-23T09:18:15Z</time>
      </trkpt>
      <trkpt lat="42.24673" lon="0.85197">
        <ele>1337</ele>
        <time>2023-07-23T09:18:16Z</time>
      </trkpt>
      <trkpt lat="42.24669" lon="0.852">
        <ele>1337</ele>
        <time>2023-07-23T09:18:17Z</time>
      </trkpt>
      <trkpt lat="42.24666" lon="0.85202">
        <ele>1336.8</ele>
        <time>2023-07-23T09:18:18Z</time>
      </trkpt>
      <trkpt lat="42.24662" lon="0.85205">
        <ele>1336.6</ele>
        <time>2023-07-23T09:18:19Z</time>
      </trkpt>
      <trkpt lat="42.24659" lon="0.85207">
        <ele>1336.6</ele>
        <time>2023-07-23T09:18:20Z</time>
      </trkpt>
      <trkpt lat="42.24656" lon="0.85209">
        <ele>1336.4</ele>
        <time>2023-07-23T09:18:21Z</time>
      </trkpt>
      <trkpt lat="42.24652" lon="0.85211">
        <ele>1336.2</ele>
        <time>2023-07-23T09:18:22Z</time>
      </trkpt>
      <trkpt lat="42.24649" lon="0.85214">
        <ele>1336</ele>
        <time>2023-07-23T09:18:23Z</time>
      </trkpt>
      <trkpt lat="42.24645" lon="0.85216">
        <ele>1336</ele>
        <time>2023-07-23T09:18:24Z</time>
      </trkpt>
      <trkpt lat="42.24641" lon="0.85218">
        <ele>1336</ele>
        <time>2023-07-23T09:18:25Z</time>
      </trkpt>
      <trkpt lat="42.24637" lon="0.85221">
        <ele>1335.8</ele>
        <time>2023-07-23T09:18:26Z</time>
      </trkpt>
      <trkpt lat="42.24633" lon="0.85223">
        <ele>1335.8</ele>
        <time>2023-07-23T09:18:27Z</time>
      </trkpt>
      <trkpt lat="42.2463" lon="0.85226">
        <ele>1335.6</ele>
        <time>2023-07-23T09:18:28Z</time>
      </trkpt>
      <trkpt lat="42.24626" lon="0.85227">
        <ele>1335.6</ele>
        <time>2023-07-23T09:18:29Z</time>
      </trkpt>
      <trkpt lat="42.24623" lon="0.85228">
        <ele>1335.2</ele>
        <time>2023-07-23T09:18:30Z</time>
      </trkpt>
      <trkpt lat="42.2462" lon="0.8523">
        <ele>1335.2</ele>
        <time>2023-07-23T09:18:31Z</time>
      </trkpt>
      <trkpt lat="42.24618" lon="0.85231">
        <ele>1335</ele>
        <time>2023-07-23T09:18:32Z</time>
      </trkpt>
      <trkpt lat="42.24616" lon="0.85234">
        <ele>1334.8</ele>
        <time>2023-07-23T09:18:33Z</time>
      </trkpt>
      <trkpt lat="42.24613" lon="0.85236">
        <ele>1334.6</ele>
        <time>2023-07-23T09:18:34Z</time>
      </trkpt>
      <trkpt lat="42.2461" lon="0.85238">
        <ele>1334.6</ele>
        <time>2023-07-23T09:18:35Z</time>
      </trkpt>
      <trkpt lat="42.24607" lon="0.85241">
        <ele>1334.6</ele>
        <time>2023-07-23T09:18:36Z</time>
      </trkpt>
      <trkpt lat="42.24604" lon="0.85244">
        <ele>1334.2</ele>
        <time>2023-07-23T09:18:37Z</time>
      </trkpt>
      <trkpt lat="42.246" lon="0.85246">
        <ele>1334</ele>
        <time>2023-07-23T09:18:38Z</time>
      </trkpt>
      <trkpt lat="42.24596" lon="0.85249">
        <ele>1333.2</ele>
        <time>2023-07-23T09:18:39Z</time>
      </trkpt>
      <trkpt lat="42.24593" lon="0.85252">
        <ele>1332.6</ele>
        <time>2023-07-23T09:18:40Z</time>
      </trkpt>
      <trkpt lat="42.2459" lon="0.85256">
        <ele>1332.4</ele>
        <time>2023-07-23T09:18:41Z</time>
      </trkpt>
      <trkpt lat="42.24587" lon="0.8526">
        <ele>1331.6</ele>
        <time>2023-07-23T09:18:42Z</time>
      </trkpt>
      <trkpt lat="42.24585" lon="0.85265">
        <ele>1331.2</ele>
        <time>2023-07-23T09:18:43Z</time>
      </trkpt>
      <trkpt lat="42.24584" lon="0.8527">
        <ele>1330.2</ele>
        <time>2023-07-23T09:18:44Z</time>
      </trkpt>
      <trkpt lat="42.24583" lon="0.85275">
        <ele>1330</ele>
        <time>2023-07-23T09:18:45Z</time>
      </trkpt>
      <trkpt lat="42.24583" lon="0.8528">
        <ele>1329.2</ele>
        <time>2023-07-23T09:18:46Z</time>
      </trkpt>
      <trkpt lat="42.24583" lon="0.85285">
        <ele>1328.2</ele>
        <time>2023-07-23T09:18:47Z</time>
      </trkpt>
      <trkpt lat="42.24582" lon="0.8529">
        <ele>1327.6</ele>
        <time>2023-07-23T09:18:48Z</time>
      </trkpt>
      <trkpt lat="42.24582" lon="0.85295">
        <ele>1326.6</ele>
        <time>2023-07-23T09:18:49Z</time>
      </trkpt>
      <trkpt lat="42.24581" lon="0.85299">
        <ele>1326</ele>
        <time>2023-07-23T09:18:50Z</time>
      </trkpt>
      <trkpt lat="42.24581" lon="0.85304">
        <ele>1325.2</ele>
        <time>2023-07-23T09:18:51Z</time>
      </trkpt>
      <trkpt lat="42.2458" lon="0.85308">
        <ele>1324</ele>
        <time>2023-07-23T09:18:52Z</time>
      </trkpt>
      <trkpt lat="42.2458" lon="0.85313">
        <ele>1323.6</ele>
        <time>2023-07-23T09:18:53Z</time>
      </trkpt>
      <trkpt lat="42.2458" lon="0.85317">
        <ele>1322.6</ele>
        <time>2023-07-23T09:18:54Z</time>
      </trkpt>
      <trkpt lat="42.2458" lon="0.85321">
        <ele>1321.8</ele>
        <time>2023-07-23T09:18:55Z</time>
      </trkpt>
      <trkpt lat="42.2458" lon="0.85325">
        <ele>1321</ele>
        <time>2023-07-23T09:18:56Z</time>
      </trkpt>
      <trkpt lat="42.24578" lon="0.85331">
        <ele>1320.6</ele>
        <time>2023-07-23T09:18:57Z</time>
      </trkpt>
      <trkpt lat="42.24576" lon="0.85338">
        <ele>1319.6</ele>
        <time>2023-07-23T09:18:58Z</time>
      </trkpt>
      <trkpt lat="42.24573" lon="0.85346">
        <ele>1318.6</ele>
        <time>2023-07-23T09:18:59Z</time>
      </trkpt>
      <trkpt lat="42.24568" lon="0.85355">
        <ele>1318.2</ele>
        <time>2023-07-23T09:19:00Z</time>
      </trkpt>
      <trkpt lat="42.24563" lon="0.85364">
        <ele>1316.8</ele>
        <time>2023-07-23T09:19:01Z</time>
      </trkpt>
      <trkpt lat="42.24558" lon="0.85374">
        <ele>1315.8</ele>
        <time>2023-07-23T09:19:02Z</time>
      </trkpt>
      <trkpt lat="42.24552" lon="0.85385">
        <ele>1314.6</ele>
        <time>2023-07-23T09:19:03Z</time>
      </trkpt>
      <trkpt lat="42.24547" lon="0.85395">
        <ele>1312.8</ele>
        <time>2023-07-23T09:19:04Z</time>
      </trkpt>
      <trkpt lat="42.24542" lon="0.85406">
        <ele>1312.4</ele>
        <time>2023-07-23T09:19:05Z</time>
      </trkpt>
      <trkpt lat="42.24538" lon="0.85417">
        <ele>1311</ele>
        <time>2023-07-23T09:19:06Z</time>
      </trkpt>
      <trkpt lat="42.24534" lon="0.85428">
        <ele>1309.8</ele>
        <time>2023-07-23T09:19:07Z</time>
      </trkpt>
      <trkpt lat="42.2453" lon="0.85439">
        <ele>1308.4</ele>
        <time>2023-07-23T09:19:08Z</time>
      </trkpt>
      <trkpt lat="42.24526" lon="0.85449">
        <ele>1307</ele>
        <time>2023-07-23T09:19:09Z</time>
      </trkpt>
      <trkpt lat="42.2452" lon="0.85459">
        <ele>1304.8</ele>
        <time>2023-07-23T09:19:10Z</time>
      </trkpt>
      <trkpt lat="42.24514" lon="0.85469">
        <ele>1301.4</ele>
        <time>2023-07-23T09:19:11Z</time>
      </trkpt>
      <trkpt lat="42.24508" lon="0.85479">
        <ele>1300</ele>
        <time>2023-07-23T09:19:12Z</time>
      </trkpt>
      <trkpt lat="42.24501" lon="0.85489">
        <ele>1298</ele>
        <time>2023-07-23T09:19:13Z</time>
      </trkpt>
      <trkpt lat="42.24494" lon="0.85499">
        <ele>1297.2</ele>
        <time>2023-07-23T09:19:14Z</time>
      </trkpt>
      <trkpt lat="42.24487" lon="0.85508">
        <ele>1294.8</ele>
        <time>2023-07-23T09:19:15Z</time>
      </trkpt>
      <trkpt lat="42.2448" lon="0.85518">
        <ele>1293.6</ele>
        <time>2023-07-23T09:19:16Z</time>
      </trkpt>
      <trkpt lat="42.24474" lon="0.85527">
        <ele>1292.6</ele>
        <time>2023-07-23T09:19:17Z</time>
      </trkpt>
      <trkpt lat="42.24468" lon="0.85536">
        <ele>1291.2</ele>
        <time>2023-07-23T09:19:18Z</time>
      </trkpt>
      <trkpt lat="42.24461" lon="0.85545">
        <ele>1290.8</ele>
        <time>2023-07-23T09:19:19Z</time>
      </trkpt>
      <trkpt lat="42.24455" lon="0.85554">
        <ele>1289.8</ele>
        <time>2023-07-23T09:19:20Z</time>
      </trkpt>
      <trkpt lat="42.24448" lon="0.85562">
        <ele>1289.4</ele>
        <time>2023-07-23T09:19:21Z</time>
      </trkpt>
      <trkpt lat="42.24441" lon="0.85568">
        <ele>1288.8</ele>
        <time>2023-07-23T09:19:22Z</time>
      </trkpt>
      <trkpt lat="42.24434" lon="0.85575">
        <ele>1288.4</ele>
        <time>2023-07-23T09:19:23Z</time>
      </trkpt>
      <trkpt lat="42.24427" lon="0.85581">
        <ele>1288.4</ele>
        <time>2023-07-23T09:19:24Z</time>
      </trkpt>
      <trkpt lat="42.2442" lon="0.85588">
        <ele>1288</ele>
        <time>2023-07-23T09:19:25Z</time>
      </trkpt>
      <trkpt lat="42.24414" lon="0.85594">
        <ele>1287.4</ele>
        <time>2023-07-23T09:19:26Z</time>
      </trkpt>
      <trkpt lat="42.24407" lon="0.85601">
        <ele>1285.8</ele>
        <time>2023-07-23T09:19:27Z</time>
      </trkpt>
      <trkpt lat="42.24401" lon="0.85606">
        <ele>1284.6</ele>
        <time>2023-07-23T09:19:28Z</time>
      </trkpt>
      <trkpt lat="42.24395" lon="0.8561">
        <ele>1284</ele>
        <time>2023-07-23T09:19:29Z</time>
      </trkpt>
      <trkpt lat="42.24389" lon="0.85613">
        <ele>1283.2</ele>
        <time>2023-07-23T09:19:30Z</time>
      </trkpt>
      <trkpt lat="42.24383" lon="0.85615">
        <ele>1282.8</ele>
        <time>2023-07-23T09:19:31Z</time>
      </trkpt>
      <trkpt lat="42.24377" lon="0.85617">
        <ele>1282.2</ele>
        <time>2023-07-23T09:19:32Z</time>
      </trkpt>
      <trkpt lat="42.24372" lon="0.85619">
        <ele>1282</ele>
        <time>2023-07-23T09:19:33Z</time>
      </trkpt>
      <trkpt lat="42.24366" lon="0.85622">
        <ele>1281.6</ele>
        <time>2023-07-23T09:19:34Z</time>
      </trkpt>
      <trkpt lat="42.24361" lon="0.85626">
        <ele>1281</ele>
        <time>2023-07-23T09:19:35Z</time>
      </trkpt>
      <trkpt lat="42.24356" lon="0.8563">
        <ele>1280.8</ele>
        <time>2023-07-23T09:19:36Z</time>
      </trkpt>
      <trkpt lat="42.24351" lon="0.85635">
        <ele>1280.4</ele>
        <time>2023-07-23T09:19:37Z</time>
      </trkpt>
      <trkpt lat="42.24347" lon="0.85641">
        <ele>1280</ele>
        <time>2023-07-23T09:19:38Z</time>
      </trkpt>
      <trkpt lat="42.24342" lon="0.85646">
        <ele>1279.2</ele>
        <time>2023-07-23T09:19:39Z</time>
      </trkpt>
      <trkpt lat="42.24338" lon="0.85651">
        <ele>1278.2</ele>
        <time>2023-07-23T09:19:40Z</time>
      </trkpt>
      <trkpt lat="42.24334" lon="0.85655">
        <ele>1278</ele>
        <time>2023-07-23T09:19:41Z</time>
      </trkpt>
      <trkpt lat="42.24329" lon="0.85659">
        <ele>1277</ele>
        <time>2023-07-23T09:19:42Z</time>
      </trkpt>
      <trkpt lat="42.24325" lon="0.85662">
        <ele>1275.8</ele>
        <time>2023-07-23T09:19:43Z</time>
      </trkpt>
      <trkpt lat="42.2432" lon="0.85664">
        <ele>1274.6</ele>
        <time>2023-07-23T09:19:44Z</time>
      </trkpt>
      <trkpt lat="42.24316" lon="0.85667">
        <ele>1274</ele>
        <time>2023-07-23T09:19:45Z</time>
      </trkpt>
      <trkpt lat="42.24312" lon="0.85668">
        <ele>1273</ele>
        <time>2023-07-23T09:19:46Z</time>
      </trkpt>
      <trkpt lat="42.2431" lon="0.85669">
        <ele>1272.4</ele>
        <time>2023-07-23T09:19:47Z</time>
      </trkpt>
      <trkpt lat="42.24309" lon="0.8567">
        <ele>1272.2</ele>
        <time>2023-07-23T09:19:48Z</time>
      </trkpt>
      <trkpt lat="42.24309" lon="0.8567">
        <ele>1271.2</ele>
        <time>2023-07-23T09:19:49Z</time>
      </trkpt>
      <trkpt lat="42.24306" lon="0.85672">
        <ele>1266.6</ele>
        <time>2023-07-23T09:21:01Z</time>
      </trkpt>
      <trkpt lat="42.24306" lon="0.85672">
        <ele>1266.6</ele>
        <time>2023-07-23T09:21:02Z</time>
      </trkpt>
      <trkpt lat="42.24306" lon="0.85672">
        <ele>1266.4</ele>
        <time>2023-07-23T09:21:03Z</time>
      </trkpt>
      <trkpt lat="42.243" lon="0.85675">
        <ele>1265.4</ele>
        <time>2023-07-23T09:21:33Z</time>
      </trkpt>
      <trkpt lat="42.24298" lon="0.85677">
        <ele>1265.4</ele>
        <time>2023-07-23T09:21:34Z</time>
      </trkpt>
      <trkpt lat="42.24296" lon="0.85678">
        <ele>1265.4</ele>
        <time>2023-07-23T09:21:35Z</time>
      </trkpt>
      <trkpt lat="42.24294" lon="0.8568">
        <ele>1265.6</ele>
        <time>2023-07-23T09:21:36Z</time>
      </trkpt>
      <trkpt lat="42.24292" lon="0.85681">
        <ele>1265.6</ele>
        <time>2023-07-23T09:21:37Z</time>
      </trkpt>
      <trkpt lat="42.2429" lon="0.85682">
        <ele>1265.6</ele>
        <time>2023-07-23T09:21:38Z</time>
      </trkpt>
      <trkpt lat="42.24288" lon="0.85684">
        <ele>1265.6</ele>
        <time>2023-07-23T09:21:39Z</time>
      </trkpt>
      <trkpt lat="42.24287" lon="0.85685">
        <ele>1265.4</ele>
        <time>2023-07-23T09:21:40Z</time>
      </trkpt>
      <trkpt lat="42.24285" lon="0.85686">
        <ele>1265.2</ele>
        <time>2023-07-23T09:21:41Z</time>
      </trkpt>
      <trkpt lat="42.24284" lon="0.85688">
        <ele>1264.8</ele>
        <time>2023-07-23T09:21:42Z</time>
      </trkpt>
      <trkpt lat="42.24281" lon="0.8569">
        <ele>1264.6</ele>
        <time>2023-07-23T09:21:43Z</time>
      </trkpt>
      <trkpt lat="42.24279" lon="0.85692">
        <ele>1264.2</ele>
        <time>2023-07-23T09:21:44Z</time>
      </trkpt>
      <trkpt lat="42.24276" lon="0.85696">
        <ele>1264.2</ele>
        <time>2023-07-23T09:21:45Z</time>
      </trkpt>
      <trkpt lat="42.24272" lon="0.85699">
        <ele>1263.4</ele>
        <time>2023-07-23T09:21:46Z</time>
      </trkpt>
      <trkpt lat="42.24268" lon="0.85703">
        <ele>1262.6</ele>
        <time>2023-07-23T09:21:47Z</time>
      </trkpt>
      <trkpt lat="42.24263" lon="0.85707">
        <ele>1262.4</ele>
        <time>2023-07-23T09:21:48Z</time>
      </trkpt>
      <trkpt lat="42.24258" lon="0.85711">
        <ele>1262.2</ele>
        <time>2023-07-23T09:21:49Z</time>
      </trkpt>
      <trkpt lat="42.24253" lon="0.85714">
        <ele>1262</ele>
        <time>2023-07-23T09:21:50Z</time>
      </trkpt>
      <trkpt lat="42.24248" lon="0.85717">
        <ele>1261.8</ele>
        <time>2023-07-23T09:21:51Z</time>
      </trkpt>
      <trkpt lat="42.24243" lon="0.8572">
        <ele>1261.6</ele>
        <time>2023-07-23T09:21:52Z</time>
      </trkpt>
      <trkpt lat="42.24238" lon="0.85723">
        <ele>1261.4</ele>
        <time>2023-07-23T09:21:53Z</time>
      </trkpt>
      <trkpt lat="42.24234" lon="0.85728">
        <ele>1261.4</ele>
        <time>2023-07-23T09:21:54Z</time>
      </trkpt>
      <trkpt lat="42.24229" lon="0.85734">
        <ele>1261.2</ele>
        <time>2023-07-23T09:21:55Z</time>
      </trkpt>
      <trkpt lat="42.24224" lon="0.85739">
        <ele>1261</ele>
        <time>2023-07-23T09:21:56Z</time>
      </trkpt>
      <trkpt lat="42.24219" lon="0.85745">
        <ele>1261</ele>
        <time>2023-07-23T09:21:57Z</time>
      </trkpt>
      <trkpt lat="42.24214" lon="0.85751">
        <ele>1260</ele>
        <time>2023-07-23T09:21:58Z</time>
      </trkpt>
      <trkpt lat="42.24209" lon="0.85757">
        <ele>1259.2</ele>
        <time>2023-07-23T09:21:59Z</time>
      </trkpt>
      <trkpt lat="42.24204" lon="0.85763">
        <ele>1258.6</ele>
        <time>2023-07-23T09:22:00Z</time>
      </trkpt>
      <trkpt lat="42.24199" lon="0.8577">
        <ele>1257.4</ele>
        <time>2023-07-23T09:22:01Z</time>
      </trkpt>
      <trkpt lat="42.24194" lon="0.85778">
        <ele>1257</ele>
        <time>2023-07-23T09:22:02Z</time>
      </trkpt>
      <trkpt lat="42.2419" lon="0.85785">
        <ele>1256.6</ele>
        <time>2023-07-23T09:22:03Z</time>
      </trkpt>
      <trkpt lat="42.24186" lon="0.85792">
        <ele>1256.2</ele>
        <time>2023-07-23T09:22:04Z</time>
      </trkpt>
      <trkpt lat="42.24181" lon="0.85799">
        <ele>1255.4</ele>
        <time>2023-07-23T09:22:05Z</time>
      </trkpt>
      <trkpt lat="42.24177" lon="0.85806">
        <ele>1254.2</ele>
        <time>2023-07-23T09:22:06Z</time>
      </trkpt>
      <trkpt lat="42.24173" lon="0.85814">
        <ele>1254</ele>
        <time>2023-07-23T09:22:07Z</time>
      </trkpt>
      <trkpt lat="42.2417" lon="0.85823">
        <ele>1252.8</ele>
        <time>2023-07-23T09:22:08Z</time>
      </trkpt>
      <trkpt lat="42.24167" lon="0.85833">
        <ele>1252.2</ele>
        <time>2023-07-23T09:22:09Z</time>
      </trkpt>
      <trkpt lat="42.24164" lon="0.85844">
        <ele>1251.4</ele>
        <time>2023-07-23T09:22:10Z</time>
      </trkpt>
      <trkpt lat="42.2416" lon="0.85855">
        <ele>1250.2</ele>
        <time>2023-07-23T09:22:11Z</time>
      </trkpt>
      <trkpt lat="42.24156" lon="0.85867">
        <ele>1249.2</ele>
        <time>2023-07-23T09:22:12Z</time>
      </trkpt>
      <trkpt lat="42.24152" lon="0.85878">
        <ele>1248</ele>
        <time>2023-07-23T09:22:13Z</time>
      </trkpt>
      <trkpt lat="42.24147" lon="0.85889">
        <ele>1247.4</ele>
        <time>2023-07-23T09:22:14Z</time>
      </trkpt>
      <trkpt lat="42.24142" lon="0.85899">
        <ele>1246.2</ele>
        <time>2023-07-23T09:22:15Z</time>
      </trkpt>
      <trkpt lat="42.24136" lon="0.85909">
        <ele>1245.8</ele>
        <time>2023-07-23T09:22:16Z</time>
      </trkpt>
      <trkpt lat="42.2413" lon="0.85918">
        <ele>1244.8</ele>
        <time>2023-07-23T09:22:17Z</time>
      </trkpt>
      <trkpt lat="42.24124" lon="0.85926">
        <ele>1243</ele>
        <time>2023-07-23T09:22:18Z</time>
      </trkpt>
      <trkpt lat="42.24119" lon="0.85934">
        <ele>1242.6</ele>
        <time>2023-07-23T09:22:19Z</time>
      </trkpt>
      <trkpt lat="42.24114" lon="0.85942">
        <ele>1241.8</ele>
        <time>2023-07-23T09:22:20Z</time>
      </trkpt>
      <trkpt lat="42.24109" lon="0.8595">
        <ele>1241.8</ele>
        <time>2023-07-23T09:22:21Z</time>
      </trkpt>
      <trkpt lat="42.24104" lon="0.85957">
        <ele>1241.2</ele>
        <time>2023-07-23T09:22:22Z</time>
      </trkpt>
      <trkpt lat="42.24098" lon="0.85964">
        <ele>1240.4</ele>
        <time>2023-07-23T09:22:23Z</time>
      </trkpt>
      <trkpt lat="42.24093" lon="0.8597">
        <ele>1240.2</ele>
        <time>2023-07-23T09:22:24Z</time>
      </trkpt>
      <trkpt lat="42.24087" lon="0.85976">
        <ele>1239.6</ele>
        <time>2023-07-23T09:22:25Z</time>
      </trkpt>
      <trkpt lat="42.24081" lon="0.85981">
        <ele>1238.8</ele>
        <time>2023-07-23T09:22:26Z</time>
      </trkpt>
      <trkpt lat="42.24076" lon="0.85986">
        <ele>1237.6</ele>
        <time>2023-07-23T09:22:27Z</time>
      </trkpt>
      <trkpt lat="42.24072" lon="0.8599">
        <ele>1237.4</ele>
        <time>2023-07-23T09:22:28Z</time>
      </trkpt>
      <trkpt lat="42.24068" lon="0.85993">
        <ele>1237</ele>
        <time>2023-07-23T09:22:29Z</time>
      </trkpt>
      <trkpt lat="42.24067" lon="0.85996">
        <ele>1235.6</ele>
        <time>2023-07-23T09:22:30Z</time>
      </trkpt>
      <trkpt lat="42.24066" lon="0.85998">
        <ele>1235.2</ele>
        <time>2023-07-23T09:22:31Z</time>
      </trkpt>
      <trkpt lat="42.24065" lon="0.86">
        <ele>1234.6</ele>
        <time>2023-07-23T09:22:32Z</time>
      </trkpt>
      <trkpt lat="42.24064" lon="0.86">
        <ele>1234.4</ele>
        <time>2023-07-23T09:22:33Z</time>
      </trkpt>
      <trkpt lat="42.24064" lon="0.86">
        <ele>1234</ele>
        <time>2023-07-23T09:22:34Z</time>
      </trkpt>
      <trkpt lat="42.24059" lon="0.85999">
        <ele>1230.6</ele>
        <time>2023-07-23T09:26:21Z</time>
      </trkpt>
      <trkpt lat="42.24056" lon="0.85999">
        <ele>1230.6</ele>
        <time>2023-07-23T09:26:22Z</time>
      </trkpt>
      <trkpt lat="42.24053" lon="0.85999">
        <ele>1230.6</ele>
        <time>2023-07-23T09:26:23Z</time>
      </trkpt>
      <trkpt lat="42.24049" lon="0.86">
        <ele>1230.6</ele>
        <time>2023-07-23T09:26:24Z</time>
      </trkpt>
      <trkpt lat="42.24046" lon="0.86001">
        <ele>1230.4</ele>
        <time>2023-07-23T09:26:25Z</time>
      </trkpt>
      <trkpt lat="42.24042" lon="0.86001">
        <ele>1230.4</ele>
        <time>2023-07-23T09:26:26Z</time>
      </trkpt>
      <trkpt lat="42.24039" lon="0.86002">
        <ele>1230.4</ele>
        <time>2023-07-23T09:26:27Z</time>
      </trkpt>
      <trkpt lat="42.24035" lon="0.86003">
        <ele>1230.4</ele>
        <time>2023-07-23T09:26:28Z</time>
      </trkpt>
      <trkpt lat="42.24031" lon="0.86004">
        <ele>1230.2</ele>
        <time>2023-07-23T09:26:29Z</time>
      </trkpt>
      <trkpt lat="42.24027" lon="0.86005">
        <ele>1230.2</ele>
        <time>2023-07-23T09:26:30Z</time>
      </trkpt>
      <trkpt lat="42.24023" lon="0.86005">
        <ele>1230.2</ele>
        <time>2023-07-23T09:26:31Z</time>
      </trkpt>
      <trkpt lat="42.24019" lon="0.86006">
        <ele>1230</ele>
        <time>2023-07-23T09:26:32Z</time>
      </trkpt>
      <trkpt lat="42.24015" lon="0.86007">
        <ele>1229.8</ele>
        <time>2023-07-23T09:26:33Z</time>
      </trkpt>
      <trkpt lat="42.2401" lon="0.86007">
        <ele>1229.4</ele>
        <time>2023-07-23T09:26:34Z</time>
      </trkpt>
      <trkpt lat="42.24006" lon="0.86008">
        <ele>1229.4</ele>
        <time>2023-07-23T09:26:35Z</time>
      </trkpt>
      <trkpt lat="42.24001" lon="0.86008">
        <ele>1229.2</ele>
        <time>2023-07-23T09:26:36Z</time>
      </trkpt>
      <trkpt lat="42.23996" lon="0.86009">
        <ele>1228.8</ele>
        <time>2023-07-23T09:26:37Z</time>
      </trkpt>
      <trkpt lat="42.23991" lon="0.86009">
        <ele>1228.8</ele>
        <time>2023-07-23T09:26:38Z</time>
      </trkpt>
      <trkpt lat="42.23986" lon="0.8601">
        <ele>1228.4</ele>
        <time>2023-07-23T09:26:39Z</time>
      </trkpt>
      <trkpt lat="42.23981" lon="0.8601">
        <ele>1228.4</ele>
        <time>2023-07-23T09:26:40Z</time>
      </trkpt>
      <trkpt lat="42.23975" lon="0.86011">
        <ele>1228.2</ele>
        <time>2023-07-23T09:26:41Z</time>
      </trkpt>
      <trkpt lat="42.23968" lon="0.86011">
        <ele>1228</ele>
        <time>2023-07-23T09:26:42Z</time>
      </trkpt>
      <trkpt lat="42.23963" lon="0.86011">
        <ele>1227.8</ele>
        <time>2023-07-23T09:26:43Z</time>
      </trkpt>
      <trkpt lat="42.23957" lon="0.86012">
        <ele>1227.4</ele>
        <time>2023-07-23T09:26:44Z</time>
      </trkpt>
      <trkpt lat="42.23951" lon="0.86012">
        <ele>1227.2</ele>
        <time>2023-07-23T09:26:45Z</time>
      </trkpt>
      <trkpt lat="42.23945" lon="0.86014">
        <ele>1227</ele>
        <time>2023-07-23T09:26:46Z</time>
      </trkpt>
      <trkpt lat="42.23939" lon="0.86017">
        <ele>1226.8</ele>
        <time>2023-07-23T09:26:47Z</time>
      </trkpt>
      <trkpt lat="42.23934" lon="0.86021">
        <ele>1226.8</ele>
        <time>2023-07-23T09:26:48Z</time>
      </trkpt>
      <trkpt lat="42.2393" lon="0.86027">
        <ele>1226.6</ele>
        <time>2023-07-23T09:26:49Z</time>
      </trkpt>
      <trkpt lat="42.23927" lon="0.86034">
        <ele>1226.6</ele>
        <time>2023-07-23T09:26:50Z</time>
      </trkpt>
      <trkpt lat="42.23924" lon="0.86041">
        <ele>1226.2</ele>
        <time>2023-07-23T09:26:51Z</time>
      </trkpt>
      <trkpt lat="42.23921" lon="0.86049">
        <ele>1226</ele>
        <time>2023-07-23T09:26:52Z</time>
      </trkpt>
      <trkpt lat="42.23917" lon="0.86056">
        <ele>1225.8</ele>
        <time>2023-07-23T09:26:53Z</time>
      </trkpt>
      <trkpt lat="42.23913" lon="0.86063">
        <ele>1225.2</ele>
        <time>2023-07-23T09:26:54Z</time>
      </trkpt>
      <trkpt lat="42.23909" lon="0.86069">
        <ele>1225</ele>
        <time>2023-07-23T09:26:55Z</time>
      </trkpt>
      <trkpt lat="42.23904" lon="0.86076">
        <ele>1224.6</ele>
        <time>2023-07-23T09:26:56Z</time>
      </trkpt>
      <trkpt lat="42.23899" lon="0.86081">
        <ele>1224.2</ele>
        <time>2023-07-23T09:26:57Z</time>
      </trkpt>
      <trkpt lat="42.23893" lon="0.86087">
        <ele>1224</ele>
        <time>2023-07-23T09:26:58Z</time>
      </trkpt>
      <trkpt lat="42.23887" lon="0.86092">
        <ele>1223.4</ele>
        <time>2023-07-23T09:26:59Z</time>
      </trkpt>
      <trkpt lat="42.23881" lon="0.86097">
        <ele>1222.6</ele>
        <time>2023-07-23T09:27:00Z</time>
      </trkpt>
      <trkpt lat="42.23875" lon="0.86101">
        <ele>1222</ele>
        <time>2023-07-23T09:27:01Z</time>
      </trkpt>
      <trkpt lat="42.23868" lon="0.86105">
        <ele>1221.8</ele>
        <time>2023-07-23T09:27:02Z</time>
      </trkpt>
      <trkpt lat="42.23862" lon="0.8611">
        <ele>1221.2</ele>
        <time>2023-07-23T09:27:03Z</time>
      </trkpt>
      <trkpt lat="42.23855" lon="0.86115">
        <ele>1221</ele>
        <time>2023-07-23T09:27:04Z</time>
      </trkpt>
      <trkpt lat="42.2385" lon="0.86121">
        <ele>1220.4</ele>
        <time>2023-07-23T09:27:05Z</time>
      </trkpt>
      <trkpt lat="42.23844" lon="0.86127">
        <ele>1219.6</ele>
        <time>2023-07-23T09:27:06Z</time>
      </trkpt>
      <trkpt lat="42.23839" lon="0.86133">
        <ele>1219.4</ele>
        <time>2023-07-23T09:27:07Z</time>
      </trkpt>
      <trkpt lat="42.23834" lon="0.8614">
        <ele>1219</ele>
        <time>2023-07-23T09:27:08Z</time>
      </trkpt>
      <trkpt lat="42.23828" lon="0.86146">
        <ele>1218.8</ele>
        <time>2023-07-23T09:27:09Z</time>
      </trkpt>
      <trkpt lat="42.23823" lon="0.86153">
        <ele>1218.4</ele>
        <time>2023-07-23T09:27:10Z</time>
      </trkpt>
      <trkpt lat="42.23817" lon="0.86159">
        <ele>1218.4</ele>
        <time>2023-07-23T09:27:11Z</time>
      </trkpt>
      <trkpt lat="42.2381" lon="0.86164">
        <ele>1218.2</ele>
        <time>2023-07-23T09:27:12Z</time>
      </trkpt>
      <trkpt lat="42.23804" lon="0.86168">
        <ele>1218</ele>
        <time>2023-07-23T09:27:13Z</time>
      </trkpt>
      <trkpt lat="42.23797" lon="0.86172">
        <ele>1217.8</ele>
        <time>2023-07-23T09:27:14Z</time>
      </trkpt>
      <trkpt lat="42.2379" lon="0.86175">
        <ele>1217.4</ele>
        <time>2023-07-23T09:27:15Z</time>
      </trkpt>
      <trkpt lat="42.23784" lon="0.86178">
        <ele>1217.4</ele>
        <time>2023-07-23T09:27:16Z</time>
      </trkpt>
      <trkpt lat="42.23778" lon="0.86182">
        <ele>1216.8</ele>
        <time>2023-07-23T09:27:17Z</time>
      </trkpt>
      <trkpt lat="42.23773" lon="0.86187">
        <ele>1215.8</ele>
        <time>2023-07-23T09:27:18Z</time>
      </trkpt>
      <trkpt lat="42.2377" lon="0.86193">
        <ele>1215.4</ele>
        <time>2023-07-23T09:27:19Z</time>
      </trkpt>
      <trkpt lat="42.23769" lon="0.862">
        <ele>1215</ele>
        <time>2023-07-23T09:27:20Z</time>
      </trkpt>
      <trkpt lat="42.23768" lon="0.86208">
        <ele>1215</ele>
        <time>2023-07-23T09:27:21Z</time>
      </trkpt>
      <trkpt lat="42.23767" lon="0.86216">
        <ele>1214.8</ele>
        <time>2023-07-23T09:27:22Z</time>
      </trkpt>
      <trkpt lat="42.23766" lon="0.86224">
        <ele>1214.6</ele>
        <time>2023-07-23T09:27:23Z</time>
      </trkpt>
      <trkpt lat="42.23765" lon="0.86232">
        <ele>1214.2</ele>
        <time>2023-07-23T09:27:24Z</time>
      </trkpt>
      <trkpt lat="42.23763" lon="0.8624">
        <ele>1213.6</ele>
        <time>2023-07-23T09:27:25Z</time>
      </trkpt>
      <trkpt lat="42.23761" lon="0.86249">
        <ele>1213.4</ele>
        <time>2023-07-23T09:27:26Z</time>
      </trkpt>
      <trkpt lat="42.23756" lon="0.86267">
        <ele>1212.4</ele>
        <time>2023-07-23T09:27:28Z</time>
      </trkpt>
      <trkpt lat="42.23752" lon="0.86275">
        <ele>1212</ele>
        <time>2023-07-23T09:27:29Z</time>
      </trkpt>
      <trkpt lat="42.23748" lon="0.86284">
        <ele>1211.6</ele>
        <time>2023-07-23T09:27:30Z</time>
      </trkpt>
      <trkpt lat="42.23743" lon="0.86292">
        <ele>1211</ele>
        <time>2023-07-23T09:27:31Z</time>
      </trkpt>
      <trkpt lat="42.23738" lon="0.863">
        <ele>1210.4</ele>
        <time>2023-07-23T09:27:32Z</time>
      </trkpt>
      <trkpt lat="42.23732" lon="0.86308">
        <ele>1210</ele>
        <time>2023-07-23T09:27:33Z</time>
      </trkpt>
      <trkpt lat="42.23726" lon="0.86315">
        <ele>1209.2</ele>
        <time>2023-07-23T09:27:34Z</time>
      </trkpt>
      <trkpt lat="42.2372" lon="0.86321">
        <ele>1208.4</ele>
        <time>2023-07-23T09:27:35Z</time>
      </trkpt>
      <trkpt lat="42.23714" lon="0.86327">
        <ele>1207.2</ele>
        <time>2023-07-23T09:27:36Z</time>
      </trkpt>
      <trkpt lat="42.23707" lon="0.86331">
        <ele>1206.4</ele>
        <time>2023-07-23T09:27:37Z</time>
      </trkpt>
      <trkpt lat="42.23702" lon="0.86333">
        <ele>1206.2</ele>
        <time>2023-07-23T09:27:38Z</time>
      </trkpt>
      <trkpt lat="42.23697" lon="0.86333">
        <ele>1205.8</ele>
        <time>2023-07-23T09:27:39Z</time>
      </trkpt>
      <trkpt lat="42.23691" lon="0.86331">
        <ele>1205.4</ele>
        <time>2023-07-23T09:27:40Z</time>
      </trkpt>
      <trkpt lat="42.23685" lon="0.86329">
        <ele>1204.6</ele>
        <time>2023-07-23T09:27:41Z</time>
      </trkpt>
      <trkpt lat="42.23679" lon="0.86327">
        <ele>1204.2</ele>
        <time>2023-07-23T09:27:42Z</time>
      </trkpt>
      <trkpt lat="42.23673" lon="0.86327">
        <ele>1204.2</ele>
        <time>2023-07-23T09:27:43Z</time>
      </trkpt>
      <trkpt lat="42.23665" lon="0.86325">
        <ele>1204</ele>
        <time>2023-07-23T09:27:44Z</time>
      </trkpt>
      <trkpt lat="42.23657" lon="0.86323">
        <ele>1204</ele>
        <time>2023-07-23T09:27:45Z</time>
      </trkpt>
      <trkpt lat="42.2365" lon="0.8632">
        <ele>1203</ele>
        <time>2023-07-23T09:27:46Z</time>
      </trkpt>
      <trkpt lat="42.23643" lon="0.86318">
        <ele>1202.6</ele>
        <time>2023-07-23T09:27:47Z</time>
      </trkpt>
      <trkpt lat="42.23635" lon="0.86315">
        <ele>1201.8</ele>
        <time>2023-07-23T09:27:48Z</time>
      </trkpt>
      <trkpt lat="42.23628" lon="0.86311">
        <ele>1201.2</ele>
        <time>2023-07-23T09:27:49Z</time>
      </trkpt>
      <trkpt lat="42.2362" lon="0.86308">
        <ele>1201</ele>
        <time>2023-07-23T09:27:50Z</time>
      </trkpt>
      <trkpt lat="42.23613" lon="0.86303">
        <ele>1200.2</ele>
        <time>2023-07-23T09:27:51Z</time>
      </trkpt>
      <trkpt lat="42.23606" lon="0.86299">
        <ele>1199.8</ele>
        <time>2023-07-23T09:27:52Z</time>
      </trkpt>
      <trkpt lat="42.23599" lon="0.86294">
        <ele>1199.4</ele>
        <time>2023-07-23T09:27:53Z</time>
      </trkpt>
      <trkpt lat="42.23593" lon="0.86289">
        <ele>1198.8</ele>
        <time>2023-07-23T09:27:54Z</time>
      </trkpt>
      <trkpt lat="42.23585" lon="0.86285">
        <ele>1198.6</ele>
        <time>2023-07-23T09:27:55Z</time>
      </trkpt>
      <trkpt lat="42.23579" lon="0.8628">
        <ele>1197.6</ele>
        <time>2023-07-23T09:27:56Z</time>
      </trkpt>
      <trkpt lat="42.23572" lon="0.86275">
        <ele>1197.2</ele>
        <time>2023-07-23T09:27:57Z</time>
      </trkpt>
      <trkpt lat="42.23566" lon="0.86271">
        <ele>1196.8</ele>
        <time>2023-07-23T09:27:58Z</time>
      </trkpt>
      <trkpt lat="42.2356" lon="0.86267">
        <ele>1196.6</ele>
        <time>2023-07-23T09:27:59Z</time>
      </trkpt>
      <trkpt lat="42.23552" lon="0.86261">
        <ele>1196.6</ele>
        <time>2023-07-23T09:28:00Z</time>
      </trkpt>
      <trkpt lat="42.23545" lon="0.86256">
        <ele>1195.6</ele>
        <time>2023-07-23T09:28:01Z</time>
      </trkpt>
      <trkpt lat="42.23538" lon="0.86253">
        <ele>1195.4</ele>
        <time>2023-07-23T09:28:02Z</time>
      </trkpt>
      <trkpt lat="42.23533" lon="0.8625">
        <ele>1194.4</ele>
        <time>2023-07-23T09:28:03Z</time>
      </trkpt>
      <trkpt lat="42.23526" lon="0.86249">
        <ele>1193.8</ele>
        <time>2023-07-23T09:28:04Z</time>
      </trkpt>
      <trkpt lat="42.23518" lon="0.86248">
        <ele>1192.8</ele>
        <time>2023-07-23T09:28:05Z</time>
      </trkpt>
      <trkpt lat="42.2351" lon="0.86248">
        <ele>1192</ele>
        <time>2023-07-23T09:28:06Z</time>
      </trkpt>
      <trkpt lat="42.23503" lon="0.86249">
        <ele>1191.6</ele>
        <time>2023-07-23T09:28:07Z</time>
      </trkpt>
      <trkpt lat="42.23495" lon="0.86249">
        <ele>1190.8</ele>
        <time>2023-07-23T09:28:08Z</time>
      </trkpt>
      <trkpt lat="42.23489" lon="0.86249">
        <ele>1190.6</ele>
        <time>2023-07-23T09:28:09Z</time>
      </trkpt>
      <trkpt lat="42.2348" lon="0.86249">
        <ele>1189.6</ele>
        <time>2023-07-23T09:28:10Z</time>
      </trkpt>
      <trkpt lat="42.23472" lon="0.86248">
        <ele>1189.2</ele>
        <time>2023-07-23T09:28:11Z</time>
      </trkpt>
      <trkpt lat="42.23464" lon="0.86247">
        <ele>1188.4</ele>
        <time>2023-07-23T09:28:12Z</time>
      </trkpt>
      <trkpt lat="42.23456" lon="0.86246">
        <ele>1187.4</ele>
        <time>2023-07-23T09:28:13Z</time>
      </trkpt>
      <trkpt lat="42.23449" lon="0.86244">
        <ele>1187</ele>
        <time>2023-07-23T09:28:14Z</time>
      </trkpt>
      <trkpt lat="42.23441" lon="0.86243">
        <ele>1186</ele>
        <time>2023-07-23T09:28:15Z</time>
      </trkpt>
      <trkpt lat="42.23434" lon="0.86242">
        <ele>1185.4</ele>
        <time>2023-07-23T09:28:16Z</time>
      </trkpt>
      <trkpt lat="42.23427" lon="0.86242">
        <ele>1184.6</ele>
        <time>2023-07-23T09:28:17Z</time>
      </trkpt>
      <trkpt lat="42.23421" lon="0.86244">
        <ele>1184.2</ele>
        <time>2023-07-23T09:28:18Z</time>
      </trkpt>
      <trkpt lat="42.23415" lon="0.86247">
        <ele>1184</ele>
        <time>2023-07-23T09:28:19Z</time>
      </trkpt>
      <trkpt lat="42.23409" lon="0.8625">
        <ele>1183.8</ele>
        <time>2023-07-23T09:28:20Z</time>
      </trkpt>
      <trkpt lat="42.23403" lon="0.86254">
        <ele>1183.8</ele>
        <time>2023-07-23T09:28:21Z</time>
      </trkpt>
      <trkpt lat="42.23398" lon="0.86258">
        <ele>1183.6</ele>
        <time>2023-07-23T09:28:22Z</time>
      </trkpt>
      <trkpt lat="42.23394" lon="0.86263">
        <ele>1183.4</ele>
        <time>2023-07-23T09:28:23Z</time>
      </trkpt>
      <trkpt lat="42.23391" lon="0.86269">
        <ele>1182.4</ele>
        <time>2023-07-23T09:28:24Z</time>
      </trkpt>
      <trkpt lat="42.2339" lon="0.86275">
        <ele>1181.6</ele>
        <time>2023-07-23T09:28:25Z</time>
      </trkpt>
      <trkpt lat="42.2339" lon="0.86282">
        <ele>1181.2</ele>
        <time>2023-07-23T09:28:26Z</time>
      </trkpt>
      <trkpt lat="42.23391" lon="0.86287">
        <ele>1180</ele>
        <time>2023-07-23T09:28:27Z</time>
      </trkpt>
      <trkpt lat="42.23393" lon="0.86293">
        <ele>1179.4</ele>
        <time>2023-07-23T09:28:28Z</time>
      </trkpt>
      <trkpt lat="42.23396" lon="0.86299">
        <ele>1178.6</ele>
        <time>2023-07-23T09:28:29Z</time>
      </trkpt>
      <trkpt lat="42.23398" lon="0.86305">
        <ele>1178</ele>
        <time>2023-07-23T09:28:30Z</time>
      </trkpt>
      <trkpt lat="42.234" lon="0.86312">
        <ele>1177.8</ele>
        <time>2023-07-23T09:28:31Z</time>
      </trkpt>
      <trkpt lat="42.23403" lon="0.86318">
        <ele>1177</ele>
        <time>2023-07-23T09:28:32Z</time>
      </trkpt>
      <trkpt lat="42.23405" lon="0.86325">
        <ele>1176.8</ele>
        <time>2023-07-23T09:28:33Z</time>
      </trkpt>
      <trkpt lat="42.23406" lon="0.86333">
        <ele>1175.6</ele>
        <time>2023-07-23T09:28:34Z</time>
      </trkpt>
      <trkpt lat="42.23408" lon="0.8634">
        <ele>1175.2</ele>
        <time>2023-07-23T09:28:35Z</time>
      </trkpt>
      <trkpt lat="42.23409" lon="0.86347">
        <ele>1174.4</ele>
        <time>2023-07-23T09:28:36Z</time>
      </trkpt>
      <trkpt lat="42.2341" lon="0.86355">
        <ele>1173.8</ele>
        <time>2023-07-23T09:28:37Z</time>
      </trkpt>
      <trkpt lat="42.23411" lon="0.86362">
        <ele>1173.6</ele>
        <time>2023-07-23T09:28:38Z</time>
      </trkpt>
      <trkpt lat="42.23412" lon="0.8637">
        <ele>1173.4</ele>
        <time>2023-07-23T09:28:39Z</time>
      </trkpt>
      <trkpt lat="42.23412" lon="0.86377">
        <ele>1173.2</ele>
        <time>2023-07-23T09:28:40Z</time>
      </trkpt>
      <trkpt lat="42.23414" lon="0.86385">
        <ele>1173</ele>
        <time>2023-07-23T09:28:41Z</time>
      </trkpt>
      <trkpt lat="42.23415" lon="0.86392">
        <ele>1172.6</ele>
        <time>2023-07-23T09:28:42Z</time>
      </trkpt>
      <trkpt lat="42.23417" lon="0.864">
        <ele>1172.4</ele>
        <time>2023-07-23T09:28:43Z</time>
      </trkpt>
      <trkpt lat="42.2342" lon="0.86407">
        <ele>1172.2</ele>
        <time>2023-07-23T09:28:44Z</time>
      </trkpt>
      <trkpt lat="42.23423" lon="0.86414">
        <ele>1172.2</ele>
        <time>2023-07-23T09:28:45Z</time>
      </trkpt>
      <trkpt lat="42.23426" lon="0.86421">
        <ele>1171.8</ele>
        <time>2023-07-23T09:28:46Z</time>
      </trkpt>
      <trkpt lat="42.23428" lon="0.86429">
        <ele>1171.4</ele>
        <time>2023-07-23T09:28:47Z</time>
      </trkpt>
      <trkpt lat="42.23431" lon="0.86436">
        <ele>1170.6</ele>
        <time>2023-07-23T09:28:48Z</time>
      </trkpt>
      <trkpt lat="42.23432" lon="0.86444">
        <ele>1169.6</ele>
        <time>2023-07-23T09:28:49Z</time>
      </trkpt>
      <trkpt lat="42.23432" lon="0.86451">
        <ele>1169.2</ele>
        <time>2023-07-23T09:28:50Z</time>
      </trkpt>
      <trkpt lat="42.23429" lon="0.86457">
        <ele>1168.6</ele>
        <time>2023-07-23T09:28:51Z</time>
      </trkpt>
      <trkpt lat="42.23426" lon="0.86462">
        <ele>1168.2</ele>
        <time>2023-07-23T09:28:52Z</time>
      </trkpt>
      <trkpt lat="42.23422" lon="0.86465">
        <ele>1167.8</ele>
        <time>2023-07-23T09:28:53Z</time>
      </trkpt>
      <trkpt lat="42.23417" lon="0.86467">
        <ele>1167</ele>
        <time>2023-07-23T09:28:54Z</time>
      </trkpt>
      <trkpt lat="42.23412" lon="0.8647">
        <ele>1166.6</ele>
        <time>2023-07-23T09:28:55Z</time>
      </trkpt>
      <trkpt lat="42.23406" lon="0.86472">
        <ele>1166.2</ele>
        <time>2023-07-23T09:28:56Z</time>
      </trkpt>
      <trkpt lat="42.234" lon="0.86473">
        <ele>1166</ele>
        <time>2023-07-23T09:28:57Z</time>
      </trkpt>
      <trkpt lat="42.23394" lon="0.86474">
        <ele>1165.8</ele>
        <time>2023-07-23T09:28:58Z</time>
      </trkpt>
      <trkpt lat="42.23387" lon="0.86474">
        <ele>1165.6</ele>
        <time>2023-07-23T09:28:59Z</time>
      </trkpt>
      <trkpt lat="42.23381" lon="0.86475">
        <ele>1165</ele>
        <time>2023-07-23T09:29:00Z</time>
      </trkpt>
      <trkpt lat="42.23374" lon="0.86476">
        <ele>1164.2</ele>
        <time>2023-07-23T09:29:01Z</time>
      </trkpt>
      <trkpt lat="42.23368" lon="0.86477">
        <ele>1163.6</ele>
        <time>2023-07-23T09:29:02Z</time>
      </trkpt>
      <trkpt lat="42.23362" lon="0.86479">
        <ele>1162.6</ele>
        <time>2023-07-23T09:29:03Z</time>
      </trkpt>
      <trkpt lat="42.23356" lon="0.86479">
        <ele>1162.4</ele>
        <time>2023-07-23T09:29:04Z</time>
      </trkpt>
      <trkpt lat="42.23349" lon="0.8648">
        <ele>1162</ele>
        <time>2023-07-23T09:29:05Z</time>
      </trkpt>
      <trkpt lat="42.23343" lon="0.86481">
        <ele>1161.8</ele>
        <time>2023-07-23T09:29:06Z</time>
      </trkpt>
      <trkpt lat="42.23338" lon="0.86481">
        <ele>1161.4</ele>
        <time>2023-07-23T09:29:07Z</time>
      </trkpt>
      <trkpt lat="42.23332" lon="0.86482">
        <ele>1160.8</ele>
        <time>2023-07-23T09:29:08Z</time>
      </trkpt>
      <trkpt lat="42.23326" lon="0.86483">
        <ele>1160.4</ele>
        <time>2023-07-23T09:29:09Z</time>
      </trkpt>
      <trkpt lat="42.2332" lon="0.86484">
        <ele>1160.2</ele>
        <time>2023-07-23T09:29:10Z</time>
      </trkpt>
      <trkpt lat="42.23315" lon="0.86486">
        <ele>1160</ele>
        <time>2023-07-23T09:29:11Z</time>
      </trkpt>
      <trkpt lat="42.2331" lon="0.86489">
        <ele>1159.4</ele>
        <time>2023-07-23T09:29:12Z</time>
      </trkpt>
      <trkpt lat="42.23305" lon="0.86493">
        <ele>1159.2</ele>
        <time>2023-07-23T09:29:13Z</time>
      </trkpt>
      <trkpt lat="42.23302" lon="0.86496">
        <ele>1159</ele>
        <time>2023-07-23T09:29:14Z</time>
      </trkpt>
      <trkpt lat="42.233" lon="0.865">
        <ele>1158.4</ele>
        <time>2023-07-23T09:29:15Z</time>
      </trkpt>
      <trkpt lat="42.23298" lon="0.86504">
        <ele>1158</ele>
        <time>2023-07-23T09:29:16Z</time>
      </trkpt>
      <trkpt lat="42.23296" lon="0.86509">
        <ele>1157.2</ele>
        <time>2023-07-23T09:29:17Z</time>
      </trkpt>
      <trkpt lat="42.23295" lon="0.86515">
        <ele>1156.8</ele>
        <time>2023-07-23T09:29:18Z</time>
      </trkpt>
      <trkpt lat="42.23294" lon="0.86521">
        <ele>1156.6</ele>
        <time>2023-07-23T09:29:19Z</time>
      </trkpt>
      <trkpt lat="42.23293" lon="0.86528">
        <ele>1156.2</ele>
        <time>2023-07-23T09:29:20Z</time>
      </trkpt>
      <trkpt lat="42.23291" lon="0.86535">
        <ele>1155.8</ele>
        <time>2023-07-23T09:29:21Z</time>
      </trkpt>
      <trkpt lat="42.23289" lon="0.86541">
        <ele>1155.2</ele>
        <time>2023-07-23T09:29:22Z</time>
      </trkpt>
      <trkpt lat="42.23286" lon="0.86547">
        <ele>1155</ele>
        <time>2023-07-23T09:29:23Z</time>
      </trkpt>
      <trkpt lat="42.23283" lon="0.8655">
        <ele>1154.6</ele>
        <time>2023-07-23T09:29:24Z</time>
      </trkpt>
      <trkpt lat="42.23278" lon="0.86554">
        <ele>1154.2</ele>
        <time>2023-07-23T09:29:25Z</time>
      </trkpt>
      <trkpt lat="42.23272" lon="0.86557">
        <ele>1154</ele>
        <time>2023-07-23T09:29:26Z</time>
      </trkpt>
      <trkpt lat="42.23266" lon="0.86559">
        <ele>1153</ele>
        <time>2023-07-23T09:29:27Z</time>
      </trkpt>
      <trkpt lat="42.2326" lon="0.86561">
        <ele>1152.6</ele>
        <time>2023-07-23T09:29:28Z</time>
      </trkpt>
      <trkpt lat="42.23254" lon="0.86564">
        <ele>1152</ele>
        <time>2023-07-23T09:29:29Z</time>
      </trkpt>
      <trkpt lat="42.23247" lon="0.86566">
        <ele>1151.2</ele>
        <time>2023-07-23T09:29:30Z</time>
      </trkpt>
      <trkpt lat="42.2324" lon="0.86568">
        <ele>1151</ele>
        <time>2023-07-23T09:29:31Z</time>
      </trkpt>
      <trkpt lat="42.23234" lon="0.86571">
        <ele>1150.2</ele>
        <time>2023-07-23T09:29:32Z</time>
      </trkpt>
      <trkpt lat="42.23227" lon="0.86574">
        <ele>1150</ele>
        <time>2023-07-23T09:29:33Z</time>
      </trkpt>
      <trkpt lat="42.23221" lon="0.86577">
        <ele>1149.4</ele>
        <time>2023-07-23T09:29:34Z</time>
      </trkpt>
      <trkpt lat="42.23215" lon="0.86579">
        <ele>1149.2</ele>
        <time>2023-07-23T09:29:35Z</time>
      </trkpt>
      <trkpt lat="42.23209" lon="0.86582">
        <ele>1148.8</ele>
        <time>2023-07-23T09:29:36Z</time>
      </trkpt>
      <trkpt lat="42.23203" lon="0.86586">
        <ele>1148.2</ele>
        <time>2023-07-23T09:29:37Z</time>
      </trkpt>
      <trkpt lat="42.23197" lon="0.8659">
        <ele>1147.4</ele>
        <time>2023-07-23T09:29:38Z</time>
      </trkpt>
      <trkpt lat="42.2319" lon="0.86594">
        <ele>1146.6</ele>
        <time>2023-07-23T09:29:39Z</time>
      </trkpt>
      <trkpt lat="42.23184" lon="0.86598">
        <ele>1146.2</ele>
        <time>2023-07-23T09:29:40Z</time>
      </trkpt>
      <trkpt lat="42.23178" lon="0.86603">
        <ele>1145.6</ele>
        <time>2023-07-23T09:29:41Z</time>
      </trkpt>
      <trkpt lat="42.23173" lon="0.86608">
        <ele>1144.2</ele>
        <time>2023-07-23T09:29:42Z</time>
      </trkpt>
      <trkpt lat="42.23167" lon="0.86613">
        <ele>1144</ele>
        <time>2023-07-23T09:29:43Z</time>
      </trkpt>
      <trkpt lat="42.23161" lon="0.86619">
        <ele>1143.6</ele>
        <time>2023-07-23T09:29:44Z</time>
      </trkpt>
      <trkpt lat="42.23157" lon="0.86624">
        <ele>1143.4</ele>
        <time>2023-07-23T09:29:45Z</time>
      </trkpt>
      <trkpt lat="42.23151" lon="0.86631">
        <ele>1142.6</ele>
        <time>2023-07-23T09:29:46Z</time>
      </trkpt>
      <trkpt lat="42.23147" lon="0.86637">
        <ele>1142.4</ele>
        <time>2023-07-23T09:29:47Z</time>
      </trkpt>
      <trkpt lat="42.23142" lon="0.86644">
        <ele>1141.4</ele>
        <time>2023-07-23T09:29:48Z</time>
      </trkpt>
      <trkpt lat="42.23138" lon="0.86652">
        <ele>1140.4</ele>
        <time>2023-07-23T09:29:49Z</time>
      </trkpt>
      <trkpt lat="42.23133" lon="0.86659">
        <ele>1139.4</ele>
        <time>2023-07-23T09:29:50Z</time>
      </trkpt>
      <trkpt lat="42.23129" lon="0.86667">
        <ele>1138.4</ele>
        <time>2023-07-23T09:29:51Z</time>
      </trkpt>
      <trkpt lat="42.23125" lon="0.86673">
        <ele>1138</ele>
        <time>2023-07-23T09:29:52Z</time>
      </trkpt>
      <trkpt lat="42.2312" lon="0.86678">
        <ele>1137</ele>
        <time>2023-07-23T09:29:53Z</time>
      </trkpt>
      <trkpt lat="42.23115" lon="0.86682">
        <ele>1136.2</ele>
        <time>2023-07-23T09:29:54Z</time>
      </trkpt>
      <trkpt lat="42.2311" lon="0.86686">
        <ele>1136</ele>
        <time>2023-07-23T09:29:55Z</time>
      </trkpt>
      <trkpt lat="42.23105" lon="0.86691">
        <ele>1135.2</ele>
        <time>2023-07-23T09:29:56Z</time>
      </trkpt>
      <trkpt lat="42.23101" lon="0.86697">
        <ele>1135</ele>
        <time>2023-07-23T09:29:57Z</time>
      </trkpt>
      <trkpt lat="42.23098" lon="0.86704">
        <ele>1134.2</ele>
        <time>2023-07-23T09:29:58Z</time>
      </trkpt>
      <trkpt lat="42.23096" lon="0.8671">
        <ele>1133.8</ele>
        <time>2023-07-23T09:29:59Z</time>
      </trkpt>
      <trkpt lat="42.23093" lon="0.86718">
        <ele>1133</ele>
        <time>2023-07-23T09:30:00Z</time>
      </trkpt>
      <trkpt lat="42.2309" lon="0.86727">
        <ele>1132.4</ele>
        <time>2023-07-23T09:30:01Z</time>
      </trkpt>
      <trkpt lat="42.23089" lon="0.86736">
        <ele>1132.2</ele>
        <time>2023-07-23T09:30:02Z</time>
      </trkpt>
      <trkpt lat="42.23087" lon="0.86744">
        <ele>1131</ele>
        <time>2023-07-23T09:30:03Z</time>
      </trkpt>
      <trkpt lat="42.23085" lon="0.86753">
        <ele>1130.6</ele>
        <time>2023-07-23T09:30:04Z</time>
      </trkpt>
      <trkpt lat="42.23083" lon="0.86762">
        <ele>1130</ele>
        <time>2023-07-23T09:30:05Z</time>
      </trkpt>
      <trkpt lat="42.2308" lon="0.86771">
        <ele>1129.8</ele>
        <time>2023-07-23T09:30:06Z</time>
      </trkpt>
      <trkpt lat="42.23077" lon="0.86781">
        <ele>1129.4</ele>
        <time>2023-07-23T09:30:07Z</time>
      </trkpt>
      <trkpt lat="42.23074" lon="0.86791">
        <ele>1128.6</ele>
        <time>2023-07-23T09:30:08Z</time>
      </trkpt>
      <trkpt lat="42.2307" lon="0.86801">
        <ele>1128.2</ele>
        <time>2023-07-23T09:30:09Z</time>
      </trkpt>
      <trkpt lat="42.23067" lon="0.86808">
        <ele>1127.6</ele>
        <time>2023-07-23T09:30:10Z</time>
      </trkpt>
      <trkpt lat="42.23063" lon="0.86819">
        <ele>1127.4</ele>
        <time>2023-07-23T09:30:11Z</time>
      </trkpt>
      <trkpt lat="42.23059" lon="0.86828">
        <ele>1126.2</ele>
        <time>2023-07-23T09:30:12Z</time>
      </trkpt>
      <trkpt lat="42.23055" lon="0.86837">
        <ele>1125.6</ele>
        <time>2023-07-23T09:30:13Z</time>
      </trkpt>
      <trkpt lat="42.2305" lon="0.86846">
        <ele>1125.4</ele>
        <time>2023-07-23T09:30:14Z</time>
      </trkpt>
      <trkpt lat="42.23046" lon="0.86855">
        <ele>1125.2</ele>
        <time>2023-07-23T09:30:15Z</time>
      </trkpt>
      <trkpt lat="42.23042" lon="0.86861">
        <ele>1125</ele>
        <time>2023-07-23T09:30:16Z</time>
      </trkpt>
      <trkpt lat="42.23038" lon="0.86868">
        <ele>1123.2</ele>
        <time>2023-07-23T09:30:17Z</time>
      </trkpt>
      <trkpt lat="42.23035" lon="0.86872">
        <ele>1122.2</ele>
        <time>2023-07-23T09:30:18Z</time>
      </trkpt>
      <trkpt lat="42.23033" lon="0.86876">
        <ele>1122</ele>
        <time>2023-07-23T09:30:19Z</time>
      </trkpt>
      <trkpt lat="42.23031" lon="0.86878">
        <ele>1121.2</ele>
        <time>2023-07-23T09:30:20Z</time>
      </trkpt>
      <trkpt lat="42.23029" lon="0.8688">
        <ele>1121</ele>
        <time>2023-07-23T09:30:21Z</time>
      </trkpt>
      <trkpt lat="42.23026" lon="0.86882">
        <ele>1120.2</ele>
        <time>2023-07-23T09:30:22Z</time>
      </trkpt>
      <trkpt lat="42.23022" lon="0.86884">
        <ele>1120</ele>
        <time>2023-07-23T09:30:23Z</time>
      </trkpt>
      <trkpt lat="42.23019" lon="0.86886">
        <ele>1119.8</ele>
        <time>2023-07-23T09:30:24Z</time>
      </trkpt>
      <trkpt lat="42.23016" lon="0.86886">
        <ele>1119.2</ele>
        <time>2023-07-23T09:30:25Z</time>
      </trkpt>
      <trkpt lat="42.23012" lon="0.86887">
        <ele>1119</ele>
        <time>2023-07-23T09:30:26Z</time>
      </trkpt>
      <trkpt lat="42.2301" lon="0.86887">
        <ele>1118.6</ele>
        <time>2023-07-23T09:30:27Z</time>
      </trkpt>
      <trkpt lat="42.23008" lon="0.86887">
        <ele>1118.2</ele>
        <time>2023-07-23T09:30:28Z</time>
      </trkpt>
      <trkpt lat="42.23005" lon="0.86887">
        <ele>1117.8</ele>
        <time>2023-07-23T09:30:29Z</time>
      </trkpt>
      <trkpt lat="42.23003" lon="0.86888">
        <ele>1117.6</ele>
        <time>2023-07-23T09:30:30Z</time>
      </trkpt>
      <trkpt lat="42.22999" lon="0.86888">
        <ele>1117.6</ele>
        <time>2023-07-23T09:30:31Z</time>
      </trkpt>
      <trkpt lat="42.22996" lon="0.86887">
        <ele>1117.2</ele>
        <time>2023-07-23T09:30:32Z</time>
      </trkpt>
      <trkpt lat="42.22992" lon="0.86886">
        <ele>1117</ele>
        <time>2023-07-23T09:30:33Z</time>
      </trkpt>
      <trkpt lat="42.22988" lon="0.86884">
        <ele>1116.6</ele>
        <time>2023-07-23T09:30:34Z</time>
      </trkpt>
      <trkpt lat="42.22984" lon="0.86883">
        <ele>1116.4</ele>
        <time>2023-07-23T09:30:35Z</time>
      </trkpt>
      <trkpt lat="42.2298" lon="0.86882">
        <ele>1116</ele>
        <time>2023-07-23T09:30:36Z</time>
      </trkpt>
      <trkpt lat="42.22976" lon="0.86881">
        <ele>1115.6</ele>
        <time>2023-07-23T09:30:37Z</time>
      </trkpt>
      <trkpt lat="42.22973" lon="0.86881">
        <ele>1115.4</ele>
        <time>2023-07-23T09:30:38Z</time>
      </trkpt>
      <trkpt lat="42.22969" lon="0.86879">
        <ele>1114.8</ele>
        <time>2023-07-23T09:30:39Z</time>
      </trkpt>
      <trkpt lat="42.22965" lon="0.86878">
        <ele>1114.8</ele>
        <time>2023-07-23T09:30:40Z</time>
      </trkpt>
      <trkpt lat="42.2296" lon="0.86878">
        <ele>1114.6</ele>
        <time>2023-07-23T09:30:41Z</time>
      </trkpt>
      <trkpt lat="42.22956" lon="0.86879">
        <ele>1114.4</ele>
        <time>2023-07-23T09:30:42Z</time>
      </trkpt>
      <trkpt lat="42.22951" lon="0.86879">
        <ele>1113.8</ele>
        <time>2023-07-23T09:30:43Z</time>
      </trkpt>
      <trkpt lat="42.22946" lon="0.8688">
        <ele>1113.8</ele>
        <time>2023-07-23T09:30:44Z</time>
      </trkpt>
      <trkpt lat="42.22941" lon="0.86881">
        <ele>1113.4</ele>
        <time>2023-07-23T09:30:45Z</time>
      </trkpt>
      <trkpt lat="42.22936" lon="0.86883">
        <ele>1112.8</ele>
        <time>2023-07-23T09:30:46Z</time>
      </trkpt>
      <trkpt lat="42.22932" lon="0.86885">
        <ele>1112.6</ele>
        <time>2023-07-23T09:30:47Z</time>
      </trkpt>
      <trkpt lat="42.22928" lon="0.86888">
        <ele>1112</ele>
        <time>2023-07-23T09:30:48Z</time>
      </trkpt>
      <trkpt lat="42.22924" lon="0.8689">
        <ele>1111.2</ele>
        <time>2023-07-23T09:30:49Z</time>
      </trkpt>
      <trkpt lat="42.22921" lon="0.86893">
        <ele>1111</ele>
        <time>2023-07-23T09:30:50Z</time>
      </trkpt>
      <trkpt lat="42.22918" lon="0.86896">
        <ele>1110.4</ele>
        <time>2023-07-23T09:30:51Z</time>
      </trkpt>
      <trkpt lat="42.22915" lon="0.86899">
        <ele>1110.2</ele>
        <time>2023-07-23T09:30:52Z</time>
      </trkpt>
      <trkpt lat="42.22912" lon="0.86903">
        <ele>1109.8</ele>
        <time>2023-07-23T09:30:53Z</time>
      </trkpt>
      <trkpt lat="42.22908" lon="0.86906">
        <ele>1109.6</ele>
        <time>2023-07-23T09:30:54Z</time>
      </trkpt>
      <trkpt lat="42.22905" lon="0.8691">
        <ele>1109.4</ele>
        <time>2023-07-23T09:30:55Z</time>
      </trkpt>
      <trkpt lat="42.22901" lon="0.86914">
        <ele>1108.8</ele>
        <time>2023-07-23T09:30:56Z</time>
      </trkpt>
      <trkpt lat="42.22897" lon="0.86919">
        <ele>1108.6</ele>
        <time>2023-07-23T09:30:57Z</time>
      </trkpt>
      <trkpt lat="42.22893" lon="0.86923">
        <ele>1108.4</ele>
        <time>2023-07-23T09:30:58Z</time>
      </trkpt>
      <trkpt lat="42.2289" lon="0.86929">
        <ele>1108.2</ele>
        <time>2023-07-23T09:30:59Z</time>
      </trkpt>
      <trkpt lat="42.22887" lon="0.86934">
        <ele>1107.4</ele>
        <time>2023-07-23T09:31:00Z</time>
      </trkpt>
      <trkpt lat="42.22884" lon="0.86939">
        <ele>1107</ele>
        <time>2023-07-23T09:31:01Z</time>
      </trkpt>
      <trkpt lat="42.22881" lon="0.86945">
        <ele>1106.8</ele>
        <time>2023-07-23T09:31:02Z</time>
      </trkpt>
      <trkpt lat="42.22878" lon="0.86952">
        <ele>1106.4</ele>
        <time>2023-07-23T09:31:03Z</time>
      </trkpt>
      <trkpt lat="42.22875" lon="0.86957">
        <ele>1106</ele>
        <time>2023-07-23T09:31:04Z</time>
      </trkpt>
      <trkpt lat="42.22872" lon="0.86961">
        <ele>1105.4</ele>
        <time>2023-07-23T09:31:05Z</time>
      </trkpt>
      <trkpt lat="42.2287" lon="0.86963">
        <ele>1105</ele>
        <time>2023-07-23T09:31:06Z</time>
      </trkpt>
      <trkpt lat="42.22867" lon="0.86963">
        <ele>1104.2</ele>
        <time>2023-07-23T09:31:07Z</time>
      </trkpt>
      <trkpt lat="42.22865" lon="0.86962">
        <ele>1103.6</ele>
        <time>2023-07-23T09:31:08Z</time>
      </trkpt>
      <trkpt lat="42.22864" lon="0.8696">
        <ele>1103.4</ele>
        <time>2023-07-23T09:31:09Z</time>
      </trkpt>
      <trkpt lat="42.22863" lon="0.86957">
        <ele>1103.2</ele>
        <time>2023-07-23T09:31:10Z</time>
      </trkpt>
      <trkpt lat="42.22863" lon="0.86955">
        <ele>1102.8</ele>
        <time>2023-07-23T09:31:11Z</time>
      </trkpt>
      <trkpt lat="42.22863" lon="0.86953">
        <ele>1102.4</ele>
        <time>2023-07-23T09:31:12Z</time>
      </trkpt>
      <trkpt lat="42.22864" lon="0.86952">
        <ele>1101.8</ele>
        <time>2023-07-23T09:31:13Z</time>
      </trkpt>
      <trkpt lat="42.22864" lon="0.86952">
        <ele>1101.6</ele>
        <time>2023-07-23T09:31:14Z</time>
      </trkpt>
      <trkpt lat="42.22864" lon="0.86952">
        <ele>1101.2</ele>
        <time>2023-07-23T09:31:15Z</time>
      </trkpt>
      <trkpt lat="42.22867" lon="0.86949">
        <ele>1100.8</ele>
        <time>2023-07-23T09:33:47Z</time>
      </trkpt>
      <trkpt lat="42.22868" lon="0.86948">
        <ele>1100.6</ele>
        <time>2023-07-23T09:33:48Z</time>
      </trkpt>
      <trkpt lat="42.2287" lon="0.86946">
        <ele>1100.6</ele>
        <time>2023-07-23T09:33:49Z</time>
      </trkpt>
      <trkpt lat="42.22872" lon="0.86944">
        <ele>1100.6</ele>
        <time>2023-07-23T09:33:50Z</time>
      </trkpt>
      <trkpt lat="42.22873" lon="0.86941">
        <ele>1100.6</ele>
        <time>2023-07-23T09:33:51Z</time>
      </trkpt>
      <trkpt lat="42.22875" lon="0.86939">
        <ele>1100.4</ele>
        <time>2023-07-23T09:33:52Z</time>
      </trkpt>
      <trkpt lat="42.22877" lon="0.86935">
        <ele>1100.4</ele>
        <time>2023-07-23T09:33:53Z</time>
      </trkpt>
      <trkpt lat="42.22879" lon="0.86932">
        <ele>1100.2</ele>
        <time>2023-07-23T09:33:54Z</time>
      </trkpt>
      <trkpt lat="42.2288" lon="0.86929">
        <ele>1100.2</ele>
        <time>2023-07-23T09:33:55Z</time>
      </trkpt>
      <trkpt lat="42.22881" lon="0.86926">
        <ele>1100.2</ele>
        <time>2023-07-23T09:33:56Z</time>
      </trkpt>
      <trkpt lat="42.22882" lon="0.86923">
        <ele>1100.2</ele>
        <time>2023-07-23T09:33:57Z</time>
      </trkpt>
      <trkpt lat="42.22883" lon="0.86919">
        <ele>1100.2</ele>
        <time>2023-07-23T09:33:58Z</time>
      </trkpt>
      <trkpt lat="42.22885" lon="0.86914">
        <ele>1100</ele>
        <time>2023-07-23T09:33:59Z</time>
      </trkpt>
      <trkpt lat="42.22887" lon="0.8691">
        <ele>1099.8</ele>
        <time>2023-07-23T09:34:00Z</time>
      </trkpt>
      <trkpt lat="42.22889" lon="0.86906">
        <ele>1099.8</ele>
        <time>2023-07-23T09:34:01Z</time>
      </trkpt>
      <trkpt lat="42.22891" lon="0.86902">
        <ele>1099.6</ele>
        <time>2023-07-23T09:34:02Z</time>
      </trkpt>
      <trkpt lat="42.22894" lon="0.86898">
        <ele>1099.6</ele>
        <time>2023-07-23T09:34:03Z</time>
      </trkpt>
      <trkpt lat="42.22896" lon="0.86894">
        <ele>1099.2</ele>
        <time>2023-07-23T09:34:04Z</time>
      </trkpt>
      <trkpt lat="42.22899" lon="0.8689">
        <ele>1099</ele>
        <time>2023-07-23T09:34:05Z</time>
      </trkpt>
      <trkpt lat="42.22901" lon="0.86885">
        <ele>1098.8</ele>
        <time>2023-07-23T09:34:06Z</time>
      </trkpt>
      <trkpt lat="42.22904" lon="0.8688">
        <ele>1098.8</ele>
        <time>2023-07-23T09:34:07Z</time>
      </trkpt>
      <trkpt lat="42.22906" lon="0.86874">
        <ele>1098.4</ele>
        <time>2023-07-23T09:34:08Z</time>
      </trkpt>
      <trkpt lat="42.22908" lon="0.86868">
        <ele>1098.2</ele>
        <time>2023-07-23T09:34:09Z</time>
      </trkpt>
      <trkpt lat="42.2291" lon="0.86863">
        <ele>1098.4</ele>
        <time>2023-07-23T09:34:10Z</time>
      </trkpt>
      <trkpt lat="42.22912" lon="0.86857">
        <ele>1098.4</ele>
        <time>2023-07-23T09:34:11Z</time>
      </trkpt>
      <trkpt lat="42.22915" lon="0.86852">
        <ele>1098</ele>
        <time>2023-07-23T09:34:12Z</time>
      </trkpt>
      <trkpt lat="42.22918" lon="0.86846">
        <ele>1098</ele>
        <time>2023-07-23T09:34:13Z</time>
      </trkpt>
      <trkpt lat="42.22921" lon="0.8684">
        <ele>1097.8</ele>
        <time>2023-07-23T09:34:14Z</time>
      </trkpt>
      <trkpt lat="42.22924" lon="0.86835">
        <ele>1097.6</ele>
        <time>2023-07-23T09:34:15Z</time>
      </trkpt>
      <trkpt lat="42.22928" lon="0.8683">
        <ele>1097.6</ele>
        <time>2023-07-23T09:34:16Z</time>
      </trkpt>
      <trkpt lat="42.22932" lon="0.86826">
        <ele>1097.6</ele>
        <time>2023-07-23T09:34:17Z</time>
      </trkpt>
      <trkpt lat="42.22936" lon="0.86824">
        <ele>1097.2</ele>
        <time>2023-07-23T09:34:18Z</time>
      </trkpt>
      <trkpt lat="42.22941" lon="0.86822">
        <ele>1096.6</ele>
        <time>2023-07-23T09:34:19Z</time>
      </trkpt>
      <trkpt lat="42.22945" lon="0.8682">
        <ele>1096.2</ele>
        <time>2023-07-23T09:34:20Z</time>
      </trkpt>
      <trkpt lat="42.22951" lon="0.86818">
        <ele>1095.6</ele>
        <time>2023-07-23T09:34:21Z</time>
      </trkpt>
      <trkpt lat="42.22956" lon="0.86816">
        <ele>1095.4</ele>
        <time>2023-07-23T09:34:22Z</time>
      </trkpt>
      <trkpt lat="42.22961" lon="0.86814">
        <ele>1095.2</ele>
        <time>2023-07-23T09:34:23Z</time>
      </trkpt>
      <trkpt lat="42.22965" lon="0.86812">
        <ele>1094.6</ele>
        <time>2023-07-23T09:34:24Z</time>
      </trkpt>
      <trkpt lat="42.22969" lon="0.8681">
        <ele>1094.4</ele>
        <time>2023-07-23T09:34:25Z</time>
      </trkpt>
      <trkpt lat="42.22974" lon="0.86807">
        <ele>1093.8</ele>
        <time>2023-07-23T09:34:26Z</time>
      </trkpt>
      <trkpt lat="42.22977" lon="0.86803">
        <ele>1093.8</ele>
        <time>2023-07-23T09:34:27Z</time>
      </trkpt>
      <trkpt lat="42.22979" lon="0.86798">
        <ele>1093.4</ele>
        <time>2023-07-23T09:34:28Z</time>
      </trkpt>
      <trkpt lat="42.2298" lon="0.86795">
        <ele>1093.2</ele>
        <time>2023-07-23T09:34:29Z</time>
      </trkpt>
      <trkpt lat="42.22981" lon="0.86791">
        <ele>1092.8</ele>
        <time>2023-07-23T09:34:30Z</time>
      </trkpt>
      <trkpt lat="42.22981" lon="0.86787">
        <ele>1092.2</ele>
        <time>2023-07-23T09:34:31Z</time>
      </trkpt>
      <trkpt lat="42.22981" lon="0.86786">
        <ele>1092</ele>
        <time>2023-07-23T09:34:32Z</time>
      </trkpt>
      <trkpt lat="42.2298" lon="0.86785">
        <ele>1091.8</ele>
        <time>2023-07-23T09:34:33Z</time>
      </trkpt>
      <trkpt lat="42.2298" lon="0.86785">
        <ele>1091.6</ele>
        <time>2023-07-23T09:34:34Z</time>
      </trkpt>
      <trkpt lat="42.2298" lon="0.86785">
        <ele>1091.4</ele>
        <time>2023-07-23T09:34:35Z</time>
      </trkpt>
      <trkpt lat="42.22977" lon="0.86786">
        <ele>1089.6</ele>
        <time>2023-07-23T09:41:13Z</time>
      </trkpt>
      <trkpt lat="42.22975" lon="0.86787">
        <ele>1089.6</ele>
        <time>2023-07-23T09:41:14Z</time>
      </trkpt>
      <trkpt lat="42.22973" lon="0.86788">
        <ele>1089.6</ele>
        <time>2023-07-23T09:41:15Z</time>
      </trkpt>
      <trkpt lat="42.22972" lon="0.86789">
        <ele>1089.6</ele>
        <time>2023-07-23T09:41:16Z</time>
      </trkpt>
      <trkpt lat="42.2297" lon="0.8679">
        <ele>1089.6</ele>
        <time>2023-07-23T09:41:17Z</time>
      </trkpt>
      <trkpt lat="42.22968" lon="0.86791">
        <ele>1089.4</ele>
        <time>2023-07-23T09:41:18Z</time>
      </trkpt>
      <trkpt lat="42.22966" lon="0.86792">
        <ele>1089.2</ele>
        <time>2023-07-23T09:41:19Z</time>
      </trkpt>
      <trkpt lat="42.22963" lon="0.86793">
        <ele>1089</ele>
        <time>2023-07-23T09:41:20Z</time>
      </trkpt>
      <trkpt lat="42.2296" lon="0.86792">
        <ele>1088.8</ele>
        <time>2023-07-23T09:41:21Z</time>
      </trkpt>
      <trkpt lat="42.22957" lon="0.86791">
        <ele>1088.6</ele>
        <time>2023-07-23T09:41:22Z</time>
      </trkpt>
      <trkpt lat="42.22954" lon="0.86791">
        <ele>1088.4</ele>
        <time>2023-07-23T09:41:23Z</time>
      </trkpt>
      <trkpt lat="42.2295" lon="0.8679">
        <ele>1088.4</ele>
        <time>2023-07-23T09:41:24Z</time>
      </trkpt>
      <trkpt lat="42.22946" lon="0.86789">
        <ele>1088.2</ele>
        <time>2023-07-23T09:41:25Z</time>
      </trkpt>
      <trkpt lat="42.22942" lon="0.86788">
        <ele>1088</ele>
        <time>2023-07-23T09:41:26Z</time>
      </trkpt>
      <trkpt lat="42.22939" lon="0.86788">
        <ele>1087.8</ele>
        <time>2023-07-23T09:41:27Z</time>
      </trkpt>
      <trkpt lat="42.22936" lon="0.86789">
        <ele>1087.8</ele>
        <time>2023-07-23T09:41:28Z</time>
      </trkpt>
      <trkpt lat="42.22934" lon="0.86789">
        <ele>1087.4</ele>
        <time>2023-07-23T09:41:29Z</time>
      </trkpt>
      <trkpt lat="42.22932" lon="0.86788">
        <ele>1087.2</ele>
        <time>2023-07-23T09:41:30Z</time>
      </trkpt>
      <trkpt lat="42.22931" lon="0.86787">
        <ele>1087</ele>
        <time>2023-07-23T09:41:31Z</time>
      </trkpt>
      <trkpt lat="42.22929" lon="0.86784">
        <ele>1086.6</ele>
        <time>2023-07-23T09:41:32Z</time>
      </trkpt>
      <trkpt lat="42.22926" lon="0.86783">
        <ele>1086.6</ele>
        <time>2023-07-23T09:41:33Z</time>
      </trkpt>
      <trkpt lat="42.22923" lon="0.86782">
        <ele>1086.4</ele>
        <time>2023-07-23T09:41:34Z</time>
      </trkpt>
      <trkpt lat="42.2292" lon="0.86783">
        <ele>1085.8</ele>
        <time>2023-07-23T09:41:35Z</time>
      </trkpt>
      <trkpt lat="42.22917" lon="0.86785">
        <ele>1085.4</ele>
        <time>2023-07-23T09:41:36Z</time>
      </trkpt>
      <trkpt lat="42.22914" lon="0.86786">
        <ele>1085</ele>
        <time>2023-07-23T09:41:37Z</time>
      </trkpt>
      <trkpt lat="42.22912" lon="0.86788">
        <ele>1084.6</ele>
        <time>2023-07-23T09:41:38Z</time>
      </trkpt>
      <trkpt lat="42.2291" lon="0.86789">
        <ele>1083.8</ele>
        <time>2023-07-23T09:41:39Z</time>
      </trkpt>
      <trkpt lat="42.22908" lon="0.86788">
        <ele>1083</ele>
        <time>2023-07-23T09:41:40Z</time>
      </trkpt>
      <trkpt lat="42.22906" lon="0.86788">
        <ele>1082.4</ele>
        <time>2023-07-23T09:41:41Z</time>
      </trkpt>
      <trkpt lat="42.22903" lon="0.86789">
        <ele>1081.8</ele>
        <time>2023-07-23T09:41:42Z</time>
      </trkpt>
      <trkpt lat="42.229" lon="0.8679">
        <ele>1081.6</ele>
        <time>2023-07-23T09:41:43Z</time>
      </trkpt>
      <trkpt lat="42.22896" lon="0.86792">
        <ele>1081.2</ele>
        <time>2023-07-23T09:41:44Z</time>
      </trkpt>
      <trkpt lat="42.22893" lon="0.86794">
        <ele>1081.2</ele>
        <time>2023-07-23T09:41:45Z</time>
      </trkpt>
      <trkpt lat="42.2289" lon="0.86796">
        <ele>1080.4</ele>
        <time>2023-07-23T09:41:46Z</time>
      </trkpt>
      <trkpt lat="42.22888" lon="0.86799">
        <ele>1079.6</ele>
        <time>2023-07-23T09:41:47Z</time>
      </trkpt>
      <trkpt lat="42.22886" lon="0.868">
        <ele>1078.8</ele>
        <time>2023-07-23T09:41:48Z</time>
      </trkpt>
      <trkpt lat="42.22884" lon="0.86802">
        <ele>1078</ele>
        <time>2023-07-23T09:41:49Z</time>
      </trkpt>
      <trkpt lat="42.22882" lon="0.86804">
        <ele>1077.8</ele>
        <time>2023-07-23T09:41:50Z</time>
      </trkpt>
      <trkpt lat="42.22879" lon="0.86805">
        <ele>1077.2</ele>
        <time>2023-07-23T09:41:51Z</time>
      </trkpt>
      <trkpt lat="42.22876" lon="0.86807">
        <ele>1076.8</ele>
        <time>2023-07-23T09:41:52Z</time>
      </trkpt>
      <trkpt lat="42.22873" lon="0.86808">
        <ele>1076.6</ele>
        <time>2023-07-23T09:41:53Z</time>
      </trkpt>
      <trkpt lat="42.2287" lon="0.86809">
        <ele>1076.4</ele>
        <time>2023-07-23T09:41:54Z</time>
      </trkpt>
      <trkpt lat="42.22867" lon="0.86811">
        <ele>1076.4</ele>
        <time>2023-07-23T09:41:55Z</time>
      </trkpt>
      <trkpt lat="42.22864" lon="0.86812">
        <ele>1075.8</ele>
        <time>2023-07-23T09:41:56Z</time>
      </trkpt>
      <trkpt lat="42.22861" lon="0.86814">
        <ele>1075</ele>
        <time>2023-07-23T09:41:57Z</time>
      </trkpt>
      <trkpt lat="42.22858" lon="0.86815">
        <ele>1074.8</ele>
        <time>2023-07-23T09:41:58Z</time>
      </trkpt>
      <trkpt lat="42.22854" lon="0.86817">
        <ele>1073.4</ele>
        <time>2023-07-23T09:41:59Z</time>
      </trkpt>
      <trkpt lat="42.22851" lon="0.8682">
        <ele>1072.8</ele>
        <time>2023-07-23T09:42:00Z</time>
      </trkpt>
      <trkpt lat="42.22848" lon="0.86821">
        <ele>1072.2</ele>
        <time>2023-07-23T09:42:01Z</time>
      </trkpt>
      <trkpt lat="42.22844" lon="0.86823">
        <ele>1071.8</ele>
        <time>2023-07-23T09:42:02Z</time>
      </trkpt>
      <trkpt lat="42.2284" lon="0.86824">
        <ele>1071.6</ele>
        <time>2023-07-23T09:42:03Z</time>
      </trkpt>
      <trkpt lat="42.22836" lon="0.86826">
        <ele>1071.2</ele>
        <time>2023-07-23T09:42:04Z</time>
      </trkpt>
      <trkpt lat="42.22833" lon="0.86829">
        <ele>1071</ele>
        <time>2023-07-23T09:42:05Z</time>
      </trkpt>
      <trkpt lat="42.22829" lon="0.86833">
        <ele>1070.6</ele>
        <time>2023-07-23T09:42:06Z</time>
      </trkpt>
      <trkpt lat="42.22826" lon="0.86836">
        <ele>1070.6</ele>
        <time>2023-07-23T09:42:07Z</time>
      </trkpt>
      <trkpt lat="42.22823" lon="0.86839">
        <ele>1070</ele>
        <time>2023-07-23T09:42:08Z</time>
      </trkpt>
      <trkpt lat="42.2282" lon="0.86841">
        <ele>1068.8</ele>
        <time>2023-07-23T09:42:09Z</time>
      </trkpt>
      <trkpt lat="42.22817" lon="0.86843">
        <ele>1068.4</ele>
        <time>2023-07-23T09:42:10Z</time>
      </trkpt>
      <trkpt lat="42.22815" lon="0.86845">
        <ele>1066.8</ele>
        <time>2023-07-23T09:42:11Z</time>
      </trkpt>
      <trkpt lat="42.22813" lon="0.86846">
        <ele>1066</ele>
        <time>2023-07-23T09:42:12Z</time>
      </trkpt>
      <trkpt lat="42.2281" lon="0.86847">
        <ele>1064.4</ele>
        <time>2023-07-23T09:42:13Z</time>
      </trkpt>
      <trkpt lat="42.22808" lon="0.86849">
        <ele>1063.8</ele>
        <time>2023-07-23T09:42:14Z</time>
      </trkpt>
      <trkpt lat="42.22805" lon="0.86851">
        <ele>1063.2</ele>
        <time>2023-07-23T09:42:15Z</time>
      </trkpt>
      <trkpt lat="42.22801" lon="0.86854">
        <ele>1062.6</ele>
        <time>2023-07-23T09:42:16Z</time>
      </trkpt>
      <trkpt lat="42.22797" lon="0.86858">
        <ele>1062.4</ele>
        <time>2023-07-23T09:42:17Z</time>
      </trkpt>
      <trkpt lat="42.22793" lon="0.86863">
        <ele>1061.2</ele>
        <time>2023-07-23T09:42:18Z</time>
      </trkpt>
      <trkpt lat="42.22789" lon="0.86869">
        <ele>1060.6</ele>
        <time>2023-07-23T09:42:19Z</time>
      </trkpt>
      <trkpt lat="42.22785" lon="0.86874">
        <ele>1060.2</ele>
        <time>2023-07-23T09:42:20Z</time>
      </trkpt>
      <trkpt lat="42.22782" lon="0.86879">
        <ele>1059.2</ele>
        <time>2023-07-23T09:42:21Z</time>
      </trkpt>
      <trkpt lat="42.22779" lon="0.86884">
        <ele>1058.8</ele>
        <time>2023-07-23T09:42:22Z</time>
      </trkpt>
      <trkpt lat="42.22777" lon="0.86888">
        <ele>1058</ele>
        <time>2023-07-23T09:42:23Z</time>
      </trkpt>
      <trkpt lat="42.22775" lon="0.8689">
        <ele>1057.6</ele>
        <time>2023-07-23T09:42:24Z</time>
      </trkpt>
      <trkpt lat="42.22774" lon="0.86892">
        <ele>1057.4</ele>
        <time>2023-07-23T09:42:25Z</time>
      </trkpt>
      <trkpt lat="42.22774" lon="0.86892">
        <ele>1056.8</ele>
        <time>2023-07-23T09:42:26Z</time>
      </trkpt>
      <trkpt lat="42.22774" lon="0.86892">
        <ele>1056.4</ele>
        <time>2023-07-23T09:42:27Z</time>
      </trkpt>
      <trkpt lat="42.22765" lon="0.86895">
        <ele>1053.2</ele>
        <time>2023-07-23T10:03:02Z</time>
      </trkpt>
      <trkpt lat="42.22762" lon="0.86897">
        <ele>1053.2</ele>
        <time>2023-07-23T10:03:03Z</time>
      </trkpt>
      <trkpt lat="42.22759" lon="0.86899">
        <ele>1053.2</ele>
        <time>2023-07-23T10:03:04Z</time>
      </trkpt>
      <trkpt lat="42.22755" lon="0.86903">
        <ele>1053.2</ele>
        <time>2023-07-23T10:03:05Z</time>
      </trkpt>
      <trkpt lat="42.22752" lon="0.86906">
        <ele>1053</ele>
        <time>2023-07-23T10:03:06Z</time>
      </trkpt>
      <trkpt lat="42.22749" lon="0.86909">
        <ele>1053</ele>
        <time>2023-07-23T10:03:07Z</time>
      </trkpt>
      <trkpt lat="42.22745" lon="0.86913">
        <ele>1052.4</ele>
        <time>2023-07-23T10:03:08Z</time>
      </trkpt>
      <trkpt lat="42.22743" lon="0.86916">
        <ele>1051.8</ele>
        <time>2023-07-23T10:03:09Z</time>
      </trkpt>
      <trkpt lat="42.2274" lon="0.86918">
        <ele>1051.4</ele>
        <time>2023-07-23T10:03:10Z</time>
      </trkpt>
      <trkpt lat="42.22737" lon="0.8692">
        <ele>1050.8</ele>
        <time>2023-07-23T10:03:11Z</time>
      </trkpt>
      <trkpt lat="42.22737" lon="0.8692">
        <ele>1050.4</ele>
        <time>2023-07-23T10:03:12Z</time>
      </trkpt>
      <trkpt lat="42.22731" lon="0.86924">
        <ele>1049.6</ele>
        <time>2023-07-23T10:03:13Z</time>
      </trkpt>
      <trkpt lat="42.22727" lon="0.86926">
        <ele>1049</ele>
        <time>2023-07-23T10:03:14Z</time>
      </trkpt>
      <trkpt lat="42.22724" lon="0.86928">
        <ele>1048.8</ele>
        <time>2023-07-23T10:03:15Z</time>
      </trkpt>
      <trkpt lat="42.2272" lon="0.8693">
        <ele>1048</ele>
        <time>2023-07-23T10:03:16Z</time>
      </trkpt>
      <trkpt lat="42.22717" lon="0.86932">
        <ele>1047.8</ele>
        <time>2023-07-23T10:03:17Z</time>
      </trkpt>
      <trkpt lat="42.22713" lon="0.86934">
        <ele>1046.8</ele>
        <time>2023-07-23T10:03:18Z</time>
      </trkpt>
      <trkpt lat="42.2271" lon="0.86937">
        <ele>1046.4</ele>
        <time>2023-07-23T10:03:19Z</time>
      </trkpt>
      <trkpt lat="42.22707" lon="0.8694">
        <ele>1045.8</ele>
        <time>2023-07-23T10:03:20Z</time>
      </trkpt>
      <trkpt lat="42.22704" lon="0.86942">
        <ele>1044.8</ele>
        <time>2023-07-23T10:03:21Z</time>
      </trkpt>
      <trkpt lat="42.227" lon="0.86944">
        <ele>1044.2</ele>
        <time>2023-07-23T10:03:22Z</time>
      </trkpt>
      <trkpt lat="42.22696" lon="0.86946">
        <ele>1043.4</ele>
        <time>2023-07-23T10:03:23Z</time>
      </trkpt>
      <trkpt lat="42.22693" lon="0.86948">
        <ele>1043.2</ele>
        <time>2023-07-23T10:03:24Z</time>
      </trkpt>
      <trkpt lat="42.22689" lon="0.86951">
        <ele>1042.6</ele>
        <time>2023-07-23T10:03:25Z</time>
      </trkpt>
      <trkpt lat="42.22685" lon="0.86953">
        <ele>1042</ele>
        <time>2023-07-23T10:03:26Z</time>
      </trkpt>
      <trkpt lat="42.22681" lon="0.86956">
        <ele>1041.6</ele>
        <time>2023-07-23T10:03:27Z</time>
      </trkpt>
      <trkpt lat="42.22677" lon="0.86959">
        <ele>1041.2</ele>
        <time>2023-07-23T10:03:28Z</time>
      </trkpt>
      <trkpt lat="42.22674" lon="0.8696">
        <ele>1041</ele>
        <time>2023-07-23T10:03:29Z</time>
      </trkpt>
      <trkpt lat="42.2267" lon="0.86962">
        <ele>1040</ele>
        <time>2023-07-23T10:03:30Z</time>
      </trkpt>
      <trkpt lat="42.22668" lon="0.86963">
        <ele>1038.6</ele>
        <time>2023-07-23T10:03:31Z</time>
      </trkpt>
      <trkpt lat="42.22665" lon="0.86963">
        <ele>1037.8</ele>
        <time>2023-07-23T10:03:32Z</time>
      </trkpt>
      <trkpt lat="42.22664" lon="0.86963">
        <ele>1037</ele>
        <time>2023-07-23T10:03:33Z</time>
      </trkpt>
      <trkpt lat="42.22662" lon="0.86964">
        <ele>1036.6</ele>
        <time>2023-07-23T10:03:34Z</time>
      </trkpt>
      <trkpt lat="42.2266" lon="0.86967">
        <ele>1035.8</ele>
        <time>2023-07-23T10:03:35Z</time>
      </trkpt>
      <trkpt lat="42.22658" lon="0.8697">
        <ele>1035</ele>
        <time>2023-07-23T10:03:36Z</time>
      </trkpt>
      <trkpt lat="42.22655" lon="0.86972">
        <ele>1034.6</ele>
        <time>2023-07-23T10:03:37Z</time>
      </trkpt>
      <trkpt lat="42.22652" lon="0.86975">
        <ele>1034</ele>
        <time>2023-07-23T10:03:38Z</time>
      </trkpt>
      <trkpt lat="42.2265" lon="0.86977">
        <ele>1033.8</ele>
        <time>2023-07-23T10:03:39Z</time>
      </trkpt>
      <trkpt lat="42.22648" lon="0.8698">
        <ele>1033.2</ele>
        <time>2023-07-23T10:03:40Z</time>
      </trkpt>
      <trkpt lat="42.22647" lon="0.86983">
        <ele>1032.6</ele>
        <time>2023-07-23T10:03:41Z</time>
      </trkpt>
      <trkpt lat="42.22646" lon="0.86987">
        <ele>1032.4</ele>
        <time>2023-07-23T10:03:42Z</time>
      </trkpt>
      <trkpt lat="42.22644" lon="0.8699">
        <ele>1031.6</ele>
        <time>2023-07-23T10:03:43Z</time>
      </trkpt>
      <trkpt lat="42.22641" lon="0.86995">
        <ele>1031.2</ele>
        <time>2023-07-23T10:03:44Z</time>
      </trkpt>
      <trkpt lat="42.22639" lon="0.86999">
        <ele>1030.4</ele>
        <time>2023-07-23T10:03:45Z</time>
      </trkpt>
      <trkpt lat="42.22637" lon="0.87004">
        <ele>1029.6</ele>
        <time>2023-07-23T10:03:46Z</time>
      </trkpt>
      <trkpt lat="42.22635" lon="0.87009">
        <ele>1029.2</ele>
        <time>2023-07-23T10:03:47Z</time>
      </trkpt>
      <trkpt lat="42.22633" lon="0.87015">
        <ele>1028</ele>
        <time>2023-07-23T10:03:48Z</time>
      </trkpt>
      <trkpt lat="42.2263" lon="0.8702">
        <ele>1027.6</ele>
        <time>2023-07-23T10:03:49Z</time>
      </trkpt>
      <trkpt lat="42.22628" lon="0.87025">
        <ele>1026.8</ele>
        <time>2023-07-23T10:03:50Z</time>
      </trkpt>
      <trkpt lat="42.22625" lon="0.8703">
        <ele>1026.4</ele>
        <time>2023-07-23T10:03:51Z</time>
      </trkpt>
      <trkpt lat="42.22622" lon="0.87035">
        <ele>1025.8</ele>
        <time>2023-07-23T10:03:52Z</time>
      </trkpt>
      <trkpt lat="42.22619" lon="0.8704">
        <ele>1025.2</ele>
        <time>2023-07-23T10:03:53Z</time>
      </trkpt>
      <trkpt lat="42.22617" lon="0.87043">
        <ele>1024.8</ele>
        <time>2023-07-23T10:03:54Z</time>
      </trkpt>
      <trkpt lat="42.22617" lon="0.87043">
        <ele>1024.4</ele>
        <time>2023-07-23T10:03:55Z</time>
      </trkpt>
      <trkpt lat="42.22613" lon="0.87051">
        <ele>1024</ele>
        <time>2023-07-23T10:03:56Z</time>
      </trkpt>
      <trkpt lat="42.2261" lon="0.87054">
        <ele>1023.6</ele>
        <time>2023-07-23T10:03:57Z</time>
      </trkpt>
      <trkpt lat="42.22608" lon="0.87058">
        <ele>1023.2</ele>
        <time>2023-07-23T10:03:58Z</time>
      </trkpt>
      <trkpt lat="42.22604" lon="0.87062">
        <ele>1023</ele>
        <time>2023-07-23T10:03:59Z</time>
      </trkpt>
      <trkpt lat="42.22601" lon="0.87067">
        <ele>1022.6</ele>
        <time>2023-07-23T10:04:00Z</time>
      </trkpt>
      <trkpt lat="42.22598" lon="0.87072">
        <ele>1022.4</ele>
        <time>2023-07-23T10:04:01Z</time>
      </trkpt>
      <trkpt lat="42.22594" lon="0.87077">
        <ele>1021.8</ele>
        <time>2023-07-23T10:04:02Z</time>
      </trkpt>
      <trkpt lat="42.22591" lon="0.87082">
        <ele>1021.2</ele>
        <time>2023-07-23T10:04:03Z</time>
      </trkpt>
      <trkpt lat="42.22588" lon="0.87086">
        <ele>1020.8</ele>
        <time>2023-07-23T10:04:04Z</time>
      </trkpt>
      <trkpt lat="42.22585" lon="0.8709">
        <ele>1020</ele>
        <time>2023-07-23T10:04:05Z</time>
      </trkpt>
      <trkpt lat="42.22582" lon="0.87095">
        <ele>1020</ele>
        <time>2023-07-23T10:04:06Z</time>
      </trkpt>
      <trkpt lat="42.22579" lon="0.87099">
        <ele>1019</ele>
        <time>2023-07-23T10:04:07Z</time>
      </trkpt>
      <trkpt lat="42.22575" lon="0.87104">
        <ele>1018.6</ele>
        <time>2023-07-23T10:04:08Z</time>
      </trkpt>
      <trkpt lat="42.22572" lon="0.87109">
        <ele>1018.4</ele>
        <time>2023-07-23T10:04:09Z</time>
      </trkpt>
      <trkpt lat="42.22568" lon="0.87115">
        <ele>1017.6</ele>
        <time>2023-07-23T10:04:10Z</time>
      </trkpt>
      <trkpt lat="42.22564" lon="0.87121">
        <ele>1017.4</ele>
        <time>2023-07-23T10:04:11Z</time>
      </trkpt>
      <trkpt lat="42.22561" lon="0.87127">
        <ele>1016.6</ele>
        <time>2023-07-23T10:04:12Z</time>
      </trkpt>
      <trkpt lat="42.22557" lon="0.87132">
        <ele>1015.8</ele>
        <time>2023-07-23T10:04:13Z</time>
      </trkpt>
      <trkpt lat="42.22557" lon="0.87132">
        <ele>1015.6</ele>
        <time>2023-07-23T10:04:14Z</time>
      </trkpt>
      <trkpt lat="42.22549" lon="0.87142">
        <ele>1015.2</ele>
        <time>2023-07-23T10:04:15Z</time>
      </trkpt>
      <trkpt lat="42.22546" lon="0.87147">
        <ele>1015</ele>
        <time>2023-07-23T10:04:16Z</time>
      </trkpt>
      <trkpt lat="42.22543" lon="0.87151">
        <ele>1014.4</ele>
        <time>2023-07-23T10:04:17Z</time>
      </trkpt>
      <trkpt lat="42.2254" lon="0.87154">
        <ele>1014.2</ele>
        <time>2023-07-23T10:04:18Z</time>
      </trkpt>
      <trkpt lat="42.22538" lon="0.87157">
        <ele>1014</ele>
        <time>2023-07-23T10:04:19Z</time>
      </trkpt>
      <trkpt lat="42.22535" lon="0.87159">
        <ele>1013.8</ele>
        <time>2023-07-23T10:04:20Z</time>
      </trkpt>
      <trkpt lat="42.22533" lon="0.87163">
        <ele>1013.8</ele>
        <time>2023-07-23T10:04:21Z</time>
      </trkpt>
      <trkpt lat="42.22532" lon="0.87166">
        <ele>1013.6</ele>
        <time>2023-07-23T10:04:22Z</time>
      </trkpt>
      <trkpt lat="42.2253" lon="0.87168">
        <ele>1013.4</ele>
        <time>2023-07-23T10:04:23Z</time>
      </trkpt>
      <trkpt lat="42.22529" lon="0.87169">
        <ele>1013.4</ele>
        <time>2023-07-23T10:04:24Z</time>
      </trkpt>
      <trkpt lat="42.22527" lon="0.8717">
        <ele>1013.2</ele>
        <time>2023-07-23T10:04:25Z</time>
      </trkpt>
      <trkpt lat="42.22525" lon="0.87171">
        <ele>1013.2</ele>
        <time>2023-07-23T10:04:26Z</time>
      </trkpt>
      <trkpt lat="42.22522" lon="0.87171">
        <ele>1013</ele>
        <time>2023-07-23T10:04:27Z</time>
      </trkpt>
      <trkpt lat="42.22519" lon="0.87172">
        <ele>1012.8</ele>
        <time>2023-07-23T10:04:28Z</time>
      </trkpt>
      <trkpt lat="42.22516" lon="0.87173">
        <ele>1012.8</ele>
        <time>2023-07-23T10:04:29Z</time>
      </trkpt>
      <trkpt lat="42.22513" lon="0.87174">
        <ele>1012.4</ele>
        <time>2023-07-23T10:04:30Z</time>
      </trkpt>
      <trkpt lat="42.2251" lon="0.87175">
        <ele>1012.2</ele>
        <time>2023-07-23T10:04:31Z</time>
      </trkpt>
      <trkpt lat="42.22507" lon="0.87176">
        <ele>1011.8</ele>
        <time>2023-07-23T10:04:32Z</time>
      </trkpt>
      <trkpt lat="42.22503" lon="0.87176">
        <ele>1011.8</ele>
        <time>2023-07-23T10:04:33Z</time>
      </trkpt>
      <trkpt lat="42.22498" lon="0.87176">
        <ele>1011.6</ele>
        <time>2023-07-23T10:04:34Z</time>
      </trkpt>
      <trkpt lat="42.22494" lon="0.87175">
        <ele>1011.2</ele>
        <time>2023-07-23T10:04:35Z</time>
      </trkpt>
      <trkpt lat="42.22489" lon="0.87173">
        <ele>1011.2</ele>
        <time>2023-07-23T10:04:36Z</time>
      </trkpt>
      <trkpt lat="42.22485" lon="0.87173">
        <ele>1011</ele>
        <time>2023-07-23T10:04:37Z</time>
      </trkpt>
      <trkpt lat="42.22481" lon="0.87173">
        <ele>1010.8</ele>
        <time>2023-07-23T10:04:38Z</time>
      </trkpt>
      <trkpt lat="42.22477" lon="0.87173">
        <ele>1010.8</ele>
        <time>2023-07-23T10:04:39Z</time>
      </trkpt>
      <trkpt lat="42.22473" lon="0.87174">
        <ele>1010.6</ele>
        <time>2023-07-23T10:04:40Z</time>
      </trkpt>
      <trkpt lat="42.22469" lon="0.87175">
        <ele>1010.6</ele>
        <time>2023-07-23T10:04:41Z</time>
      </trkpt>
      <trkpt lat="42.22466" lon="0.87177">
        <ele>1010.2</ele>
        <time>2023-07-23T10:04:42Z</time>
      </trkpt>
      <trkpt lat="42.22462" lon="0.87178">
        <ele>1010.2</ele>
        <time>2023-07-23T10:04:43Z</time>
      </trkpt>
      <trkpt lat="42.22459" lon="0.8718">
        <ele>1009.8</ele>
        <time>2023-07-23T10:04:44Z</time>
      </trkpt>
      <trkpt lat="42.22457" lon="0.87182">
        <ele>1009.8</ele>
        <time>2023-07-23T10:04:45Z</time>
      </trkpt>
      <trkpt lat="42.22455" lon="0.87183">
        <ele>1009.6</ele>
        <time>2023-07-23T10:04:46Z</time>
      </trkpt>
      <trkpt lat="42.22453" lon="0.87184">
        <ele>1009.4</ele>
        <time>2023-07-23T10:04:47Z</time>
      </trkpt>
      <trkpt lat="42.2245" lon="0.87185">
        <ele>1009.4</ele>
        <time>2023-07-23T10:04:48Z</time>
      </trkpt>
      <trkpt lat="42.22448" lon="0.87186">
        <ele>1009</ele>
        <time>2023-07-23T10:04:49Z</time>
      </trkpt>
      <trkpt lat="42.22446" lon="0.87188">
        <ele>1008.4</ele>
        <time>2023-07-23T10:04:50Z</time>
      </trkpt>
      <trkpt lat="42.22445" lon="0.87191">
        <ele>1008.2</ele>
        <time>2023-07-23T10:04:51Z</time>
      </trkpt>
      <trkpt lat="42.22444" lon="0.87194">
        <ele>1007.2</ele>
        <time>2023-07-23T10:04:52Z</time>
      </trkpt>
      <trkpt lat="42.22443" lon="0.87196">
        <ele>1006.6</ele>
        <time>2023-07-23T10:04:53Z</time>
      </trkpt>
      <trkpt lat="42.22442" lon="0.87198">
        <ele>1005.6</ele>
        <time>2023-07-23T10:04:54Z</time>
      </trkpt>
      <trkpt lat="42.22441" lon="0.87199">
        <ele>1004.8</ele>
        <time>2023-07-23T10:04:55Z</time>
      </trkpt>
      <trkpt lat="42.2244" lon="0.872">
        <ele>1004.2</ele>
        <time>2023-07-23T10:04:56Z</time>
      </trkpt>
      <trkpt lat="42.2244" lon="0.87201">
        <ele>1003.6</ele>
        <time>2023-07-23T10:04:57Z</time>
      </trkpt>
      <trkpt lat="42.22439" lon="0.87203">
        <ele>1003.2</ele>
        <time>2023-07-23T10:04:58Z</time>
      </trkpt>
      <trkpt lat="42.22439" lon="0.87205">
        <ele>1002.6</ele>
        <time>2023-07-23T10:04:59Z</time>
      </trkpt>
      <trkpt lat="42.22438" lon="0.87208">
        <ele>1002.6</ele>
        <time>2023-07-23T10:05:00Z</time>
      </trkpt>
      <trkpt lat="42.22438" lon="0.87211">
        <ele>1002.2</ele>
        <time>2023-07-23T10:05:01Z</time>
      </trkpt>
      <trkpt lat="42.22437" lon="0.87215">
        <ele>1002</ele>
        <time>2023-07-23T10:05:02Z</time>
      </trkpt>
      <trkpt lat="42.22436" lon="0.87219">
        <ele>1001.8</ele>
        <time>2023-07-23T10:05:03Z</time>
      </trkpt>
      <trkpt lat="42.22434" lon="0.87223">
        <ele>1000.8</ele>
        <time>2023-07-23T10:05:04Z</time>
      </trkpt>
      <trkpt lat="42.22432" lon="0.87228">
        <ele>1000.4</ele>
        <time>2023-07-23T10:05:05Z</time>
      </trkpt>
      <trkpt lat="42.22431" lon="0.87232">
        <ele>999.8</ele>
        <time>2023-07-23T10:05:06Z</time>
      </trkpt>
      <trkpt lat="42.2243" lon="0.87236">
        <ele>999.6</ele>
        <time>2023-07-23T10:05:07Z</time>
      </trkpt>
      <trkpt lat="42.22429" lon="0.87239">
        <ele>999.4</ele>
        <time>2023-07-23T10:05:08Z</time>
      </trkpt>
      <trkpt lat="42.22428" lon="0.87243">
        <ele>999</ele>
        <time>2023-07-23T10:05:09Z</time>
      </trkpt>
      <trkpt lat="42.22427" lon="0.87247">
        <ele>998.6</ele>
        <time>2023-07-23T10:05:10Z</time>
      </trkpt>
      <trkpt lat="42.22427" lon="0.8725">
        <ele>998</ele>
        <time>2023-07-23T10:05:11Z</time>
      </trkpt>
      <trkpt lat="42.22426" lon="0.87254">
        <ele>996.6</ele>
        <time>2023-07-23T10:05:12Z</time>
      </trkpt>
      <trkpt lat="42.22425" lon="0.87257">
        <ele>996.4</ele>
        <time>2023-07-23T10:05:13Z</time>
      </trkpt>
      <trkpt lat="42.22424" lon="0.87259">
        <ele>995.4</ele>
        <time>2023-07-23T10:05:14Z</time>
      </trkpt>
      <trkpt lat="42.22423" lon="0.87263">
        <ele>995</ele>
        <time>2023-07-23T10:05:15Z</time>
      </trkpt>
      <trkpt lat="42.2242" lon="0.87267">
        <ele>994.6</ele>
        <time>2023-07-23T10:05:16Z</time>
      </trkpt>
      <trkpt lat="42.22418" lon="0.87271">
        <ele>994</ele>
        <time>2023-07-23T10:05:17Z</time>
      </trkpt>
      <trkpt lat="42.22416" lon="0.87276">
        <ele>993.8</ele>
        <time>2023-07-23T10:05:18Z</time>
      </trkpt>
      <trkpt lat="42.22414" lon="0.87281">
        <ele>993.4</ele>
        <time>2023-07-23T10:05:19Z</time>
      </trkpt>
      <trkpt lat="42.22412" lon="0.87286">
        <ele>993.2</ele>
        <time>2023-07-23T10:05:20Z</time>
      </trkpt>
      <trkpt lat="42.2241" lon="0.8729">
        <ele>992.6</ele>
        <time>2023-07-23T10:05:21Z</time>
      </trkpt>
      <trkpt lat="42.22408" lon="0.87295">
        <ele>992.2</ele>
        <time>2023-07-23T10:05:22Z</time>
      </trkpt>
      <trkpt lat="42.22405" lon="0.87301">
        <ele>992</ele>
        <time>2023-07-23T10:05:23Z</time>
      </trkpt>
      <trkpt lat="42.22401" lon="0.87306">
        <ele>991.6</ele>
        <time>2023-07-23T10:05:24Z</time>
      </trkpt>
      <trkpt lat="42.22398" lon="0.87311">
        <ele>991.2</ele>
        <time>2023-07-23T10:05:25Z</time>
      </trkpt>
      <trkpt lat="42.22395" lon="0.87315">
        <ele>990.6</ele>
        <time>2023-07-23T10:05:26Z</time>
      </trkpt>
      <trkpt lat="42.22393" lon="0.87318">
        <ele>990.4</ele>
        <time>2023-07-23T10:05:27Z</time>
      </trkpt>
      <trkpt lat="42.22392" lon="0.8732">
        <ele>989.8</ele>
        <time>2023-07-23T10:05:28Z</time>
      </trkpt>
      <trkpt lat="42.22391" lon="0.87321">
        <ele>988.8</ele>
        <time>2023-07-23T10:05:29Z</time>
      </trkpt>
      <trkpt lat="42.22391" lon="0.87321">
        <ele>988.6</ele>
        <time>2023-07-23T10:05:30Z</time>
      </trkpt>
      <trkpt lat="42.22391" lon="0.87321">
        <ele>988.4</ele>
        <time>2023-07-23T10:05:31Z</time>
      </trkpt>
      <trkpt lat="42.22388" lon="0.87326">
        <ele>985.6</ele>
        <time>2023-07-23T10:05:53Z</time>
      </trkpt>
      <trkpt lat="42.22384" lon="0.87331">
        <ele>985.6</ele>
        <time>2023-07-23T10:05:54Z</time>
      </trkpt>
      <trkpt lat="42.2238" lon="0.87336">
        <ele>985.6</ele>
        <time>2023-07-23T10:05:55Z</time>
      </trkpt>
      <trkpt lat="42.22375" lon="0.87342">
        <ele>985.4</ele>
        <time>2023-07-23T10:05:56Z</time>
      </trkpt>
      <trkpt lat="42.22371" lon="0.87347">
        <ele>985.2</ele>
        <time>2023-07-23T10:05:57Z</time>
      </trkpt>
      <trkpt lat="42.22368" lon="0.87353">
        <ele>984.8</ele>
        <time>2023-07-23T10:05:58Z</time>
      </trkpt>
      <trkpt lat="42.22363" lon="0.87357">
        <ele>984.4</ele>
        <time>2023-07-23T10:05:59Z</time>
      </trkpt>
      <trkpt lat="42.22359" lon="0.87361">
        <ele>984</ele>
        <time>2023-07-23T10:06:00Z</time>
      </trkpt>
      <trkpt lat="42.22356" lon="0.87365">
        <ele>983.2</ele>
        <time>2023-07-23T10:06:01Z</time>
      </trkpt>
      <trkpt lat="42.22356" lon="0.87365">
        <ele>982.8</ele>
        <time>2023-07-23T10:06:02Z</time>
      </trkpt>
      <trkpt lat="42.22353" lon="0.87374">
        <ele>982.2</ele>
        <time>2023-07-23T10:06:03Z</time>
      </trkpt>
      <trkpt lat="42.22352" lon="0.8738">
        <ele>981.8</ele>
        <time>2023-07-23T10:06:04Z</time>
      </trkpt>
      <trkpt lat="42.22352" lon="0.87385">
        <ele>981</ele>
        <time>2023-07-23T10:06:05Z</time>
      </trkpt>
      <trkpt lat="42.22352" lon="0.87391">
        <ele>980.2</ele>
        <time>2023-07-23T10:06:06Z</time>
      </trkpt>
      <trkpt lat="42.22352" lon="0.87395">
        <ele>980</ele>
        <time>2023-07-23T10:06:07Z</time>
      </trkpt>
      <trkpt lat="42.22352" lon="0.87398">
        <ele>979.2</ele>
        <time>2023-07-23T10:06:08Z</time>
      </trkpt>
      <trkpt lat="42.2235" lon="0.874">
        <ele>978.8</ele>
        <time>2023-07-23T10:06:09Z</time>
      </trkpt>
      <trkpt lat="42.22348" lon="0.87399">
        <ele>978</ele>
        <time>2023-07-23T10:06:10Z</time>
      </trkpt>
      <trkpt lat="42.22345" lon="0.87398">
        <ele>977.4</ele>
        <time>2023-07-23T10:06:11Z</time>
      </trkpt>
      <trkpt lat="42.22342" lon="0.87396">
        <ele>977</ele>
        <time>2023-07-23T10:06:12Z</time>
      </trkpt>
      <trkpt lat="42.22338" lon="0.87395">
        <ele>976.4</ele>
        <time>2023-07-23T10:06:13Z</time>
      </trkpt>
      <trkpt lat="42.22335" lon="0.87394">
        <ele>976.2</ele>
        <time>2023-07-23T10:06:14Z</time>
      </trkpt>
      <trkpt lat="42.22332" lon="0.87393">
        <ele>975.6</ele>
        <time>2023-07-23T10:06:15Z</time>
      </trkpt>
      <trkpt lat="42.22329" lon="0.87391">
        <ele>975.4</ele>
        <time>2023-07-23T10:06:16Z</time>
      </trkpt>
      <trkpt lat="42.22325" lon="0.8739">
        <ele>975.2</ele>
        <time>2023-07-23T10:06:17Z</time>
      </trkpt>
      <trkpt lat="42.22322" lon="0.87389">
        <ele>974.6</ele>
        <time>2023-07-23T10:06:18Z</time>
      </trkpt>
      <trkpt lat="42.22318" lon="0.87389">
        <ele>974.4</ele>
        <time>2023-07-23T10:06:19Z</time>
      </trkpt>
      <trkpt lat="42.22315" lon="0.87388">
        <ele>974</ele>
        <time>2023-07-23T10:06:20Z</time>
      </trkpt>
      <trkpt lat="42.22313" lon="0.87387">
        <ele>973.8</ele>
        <time>2023-07-23T10:06:21Z</time>
      </trkpt>
      <trkpt lat="42.22313" lon="0.87387">
        <ele>973.8</ele>
        <time>2023-07-23T10:06:22Z</time>
      </trkpt>
      <trkpt lat="42.22313" lon="0.87387">
        <ele>973.6</ele>
        <time>2023-07-23T10:06:23Z</time>
      </trkpt>
      <trkpt lat="42.22312" lon="0.87379">
        <ele>972.4</ele>
        <time>2023-07-23T10:08:34Z</time>
      </trkpt>
      <trkpt lat="42.22312" lon="0.87376">
        <ele>972.4</ele>
        <time>2023-07-23T10:08:35Z</time>
      </trkpt>
      <trkpt lat="42.22311" lon="0.87373">
        <ele>972.2</ele>
        <time>2023-07-23T10:08:36Z</time>
      </trkpt>
      <trkpt lat="42.22312" lon="0.87371">
        <ele>972.2</ele>
        <time>2023-07-23T10:08:37Z</time>
      </trkpt>
      <trkpt lat="42.22312" lon="0.87369">
        <ele>972.2</ele>
        <time>2023-07-23T10:08:38Z</time>
      </trkpt>
      <trkpt lat="42.22311" lon="0.87368">
        <ele>972</ele>
        <time>2023-07-23T10:08:39Z</time>
      </trkpt>
      <trkpt lat="42.22311" lon="0.87367">
        <ele>971.8</ele>
        <time>2023-07-23T10:08:40Z</time>
      </trkpt>
      <trkpt lat="42.22311" lon="0.87366">
        <ele>971.6</ele>
        <time>2023-07-23T10:08:41Z</time>
      </trkpt>
      <trkpt lat="42.22311" lon="0.87366">
        <ele>971.4</ele>
        <time>2023-07-23T10:08:42Z</time>
      </trkpt>
      <trkpt lat="42.22311" lon="0.87366">
        <ele>971.2</ele>
        <time>2023-07-23T10:08:43Z</time>
      </trkpt>
      <trkpt lat="42.22309" lon="0.87352">
        <ele>969.6</ele>
        <time>2023-07-23T10:09:17Z</time>
      </trkpt>
      <trkpt lat="42.22308" lon="0.87347">
        <ele>969.6</ele>
        <time>2023-07-23T10:09:18Z</time>
      </trkpt>
      <trkpt lat="42.22307" lon="0.87342">
        <ele>969.6</ele>
        <time>2023-07-23T10:09:19Z</time>
      </trkpt>
      <trkpt lat="42.22305" lon="0.87337">
        <ele>969.2</ele>
        <time>2023-07-23T10:09:20Z</time>
      </trkpt>
      <trkpt lat="42.22304" lon="0.87332">
        <ele>969</ele>
        <time>2023-07-23T10:09:21Z</time>
      </trkpt>
      <trkpt lat="42.22303" lon="0.87326">
        <ele>968.4</ele>
        <time>2023-07-23T10:09:22Z</time>
      </trkpt>
      <trkpt lat="42.22302" lon="0.87321">
        <ele>968.2</ele>
        <time>2023-07-23T10:09:23Z</time>
      </trkpt>
      <trkpt lat="42.223" lon="0.87316">
        <ele>967.8</ele>
        <time>2023-07-23T10:09:24Z</time>
      </trkpt>
      <trkpt lat="42.22299" lon="0.87312">
        <ele>966.8</ele>
        <time>2023-07-23T10:09:25Z</time>
      </trkpt>
      <trkpt lat="42.22297" lon="0.87307">
        <ele>966.4</ele>
        <time>2023-07-23T10:09:26Z</time>
      </trkpt>
      <trkpt lat="42.22296" lon="0.87303">
        <ele>965.8</ele>
        <time>2023-07-23T10:09:27Z</time>
      </trkpt>
      <trkpt lat="42.22294" lon="0.87299">
        <ele>965.2</ele>
        <time>2023-07-23T10:09:28Z</time>
      </trkpt>
      <trkpt lat="42.22292" lon="0.87295">
        <ele>964.8</ele>
        <time>2023-07-23T10:09:29Z</time>
      </trkpt>
      <trkpt lat="42.22291" lon="0.87292">
        <ele>964</ele>
        <time>2023-07-23T10:09:30Z</time>
      </trkpt>
      <trkpt lat="42.22291" lon="0.8729">
        <ele>963.2</ele>
        <time>2023-07-23T10:09:31Z</time>
      </trkpt>
      <trkpt lat="42.2229" lon="0.87287">
        <ele>961.8</ele>
        <time>2023-07-23T10:09:32Z</time>
      </trkpt>
      <trkpt lat="42.2229" lon="0.87286">
        <ele>961.6</ele>
        <time>2023-07-23T10:09:33Z</time>
      </trkpt>
      <trkpt lat="42.22291" lon="0.87284">
        <ele>961.2</ele>
        <time>2023-07-23T10:09:34Z</time>
      </trkpt>
      <trkpt lat="42.22292" lon="0.87281">
        <ele>960.6</ele>
        <time>2023-07-23T10:09:35Z</time>
      </trkpt>
      <trkpt lat="42.22292" lon="0.87278">
        <ele>960.4</ele>
        <time>2023-07-23T10:09:36Z</time>
      </trkpt>
      <trkpt lat="42.22291" lon="0.87275">
        <ele>959.4</ele>
        <time>2023-07-23T10:09:37Z</time>
      </trkpt>
      <trkpt lat="42.22291" lon="0.87271">
        <ele>959</ele>
        <time>2023-07-23T10:09:38Z</time>
      </trkpt>
      <trkpt lat="42.22291" lon="0.87268">
        <ele>958.2</ele>
        <time>2023-07-23T10:09:39Z</time>
      </trkpt>
      <trkpt lat="42.22291" lon="0.87264">
        <ele>957.6</ele>
        <time>2023-07-23T10:09:40Z</time>
      </trkpt>
      <trkpt lat="42.2229" lon="0.8726">
        <ele>957.2</ele>
        <time>2023-07-23T10:09:41Z</time>
      </trkpt>
      <trkpt lat="42.22289" lon="0.87255">
        <ele>956.6</ele>
        <time>2023-07-23T10:09:42Z</time>
      </trkpt>
      <trkpt lat="42.22289" lon="0.8725">
        <ele>956.4</ele>
        <time>2023-07-23T10:09:43Z</time>
      </trkpt>
      <trkpt lat="42.22289" lon="0.87244">
        <ele>955.6</ele>
        <time>2023-07-23T10:09:44Z</time>
      </trkpt>
      <trkpt lat="42.22289" lon="0.87238">
        <ele>955</ele>
        <time>2023-07-23T10:09:45Z</time>
      </trkpt>
      <trkpt lat="42.22287" lon="0.87233">
        <ele>954.6</ele>
        <time>2023-07-23T10:09:46Z</time>
      </trkpt>
      <trkpt lat="42.22285" lon="0.87227">
        <ele>954.2</ele>
        <time>2023-07-23T10:09:47Z</time>
      </trkpt>
      <trkpt lat="42.22283" lon="0.87223">
        <ele>954</ele>
        <time>2023-07-23T10:09:48Z</time>
      </trkpt>
      <trkpt lat="42.22281" lon="0.87218">
        <ele>953.4</ele>
        <time>2023-07-23T10:09:49Z</time>
      </trkpt>
      <trkpt lat="42.2228" lon="0.87214">
        <ele>953</ele>
        <time>2023-07-23T10:09:50Z</time>
      </trkpt>
      <trkpt lat="42.22277" lon="0.87208">
        <ele>952.6</ele>
        <time>2023-07-23T10:09:51Z</time>
      </trkpt>
      <trkpt lat="42.22273" lon="0.87204">
        <ele>951.8</ele>
        <time>2023-07-23T10:09:52Z</time>
      </trkpt>
      <trkpt lat="42.2227" lon="0.872">
        <ele>951.6</ele>
        <time>2023-07-23T10:09:53Z</time>
      </trkpt>
      <trkpt lat="42.22267" lon="0.87197">
        <ele>951.4</ele>
        <time>2023-07-23T10:09:54Z</time>
      </trkpt>
      <trkpt lat="42.22264" lon="0.87193">
        <ele>951.2</ele>
        <time>2023-07-23T10:09:55Z</time>
      </trkpt>
      <trkpt lat="42.22259" lon="0.87186">
        <ele>951.2</ele>
        <time>2023-07-23T10:09:56Z</time>
      </trkpt>
      <trkpt lat="42.22255" lon="0.8718">
        <ele>950.8</ele>
        <time>2023-07-23T10:09:57Z</time>
      </trkpt>
      <trkpt lat="42.22251" lon="0.87174">
        <ele>950.6</ele>
        <time>2023-07-23T10:09:58Z</time>
      </trkpt>
      <trkpt lat="42.22249" lon="0.87169">
        <ele>950.4</ele>
        <time>2023-07-23T10:09:59Z</time>
      </trkpt>
      <trkpt lat="42.22246" lon="0.87163">
        <ele>950.4</ele>
        <time>2023-07-23T10:10:00Z</time>
      </trkpt>
      <trkpt lat="42.22243" lon="0.87157">
        <ele>950</ele>
        <time>2023-07-23T10:10:01Z</time>
      </trkpt>
      <trkpt lat="42.22241" lon="0.87152">
        <ele>949.8</ele>
        <time>2023-07-23T10:10:02Z</time>
      </trkpt>
      <trkpt lat="42.22239" lon="0.87146">
        <ele>949.8</ele>
        <time>2023-07-23T10:10:03Z</time>
      </trkpt>
      <trkpt lat="42.22237" lon="0.87142">
        <ele>949.6</ele>
        <time>2023-07-23T10:10:04Z</time>
      </trkpt>
      <trkpt lat="42.22235" lon="0.87139">
        <ele>949.6</ele>
        <time>2023-07-23T10:10:05Z</time>
      </trkpt>
      <trkpt lat="42.22234" lon="0.87136">
        <ele>949.4</ele>
        <time>2023-07-23T10:10:06Z</time>
      </trkpt>
      <trkpt lat="42.22233" lon="0.87134">
        <ele>949.4</ele>
        <time>2023-07-23T10:10:07Z</time>
      </trkpt>
      <trkpt lat="42.22231" lon="0.87131">
        <ele>949.4</ele>
        <time>2023-07-23T10:10:08Z</time>
      </trkpt>
      <trkpt lat="42.2223" lon="0.87128">
        <ele>949.2</ele>
        <time>2023-07-23T10:10:09Z</time>
      </trkpt>
      <trkpt lat="42.22229" lon="0.87127">
        <ele>949.2</ele>
        <time>2023-07-23T10:10:10Z</time>
      </trkpt>
      <trkpt lat="42.22228" lon="0.87126">
        <ele>949.2</ele>
        <time>2023-07-23T10:10:11Z</time>
      </trkpt>
      <trkpt lat="42.22227" lon="0.87125">
        <ele>949.2</ele>
        <time>2023-07-23T10:10:12Z</time>
      </trkpt>
      <trkpt lat="42.22224" lon="0.87124">
        <ele>949.2</ele>
        <time>2023-07-23T10:10:13Z</time>
      </trkpt>
      <trkpt lat="42.22222" lon="0.87123">
        <ele>949.2</ele>
        <time>2023-07-23T10:10:14Z</time>
      </trkpt>
      <trkpt lat="42.22221" lon="0.8712">
        <ele>949.2</ele>
        <time>2023-07-23T10:10:15Z</time>
      </trkpt>
      <trkpt lat="42.2222" lon="0.87117">
        <ele>949.2</ele>
        <time>2023-07-23T10:10:16Z</time>
      </trkpt>
      <trkpt lat="42.22219" lon="0.87114">
        <ele>949.4</ele>
        <time>2023-07-23T10:10:17Z</time>
      </trkpt>
      <trkpt lat="42.22219" lon="0.8711">
        <ele>949.4</ele>
        <time>2023-07-23T10:10:18Z</time>
      </trkpt>
      <trkpt lat="42.22218" lon="0.87107">
        <ele>949.4</ele>
        <time>2023-07-23T10:10:19Z</time>
      </trkpt>
      <trkpt lat="42.22218" lon="0.87105">
        <ele>949.6</ele>
        <time>2023-07-23T10:10:20Z</time>
      </trkpt>
      <trkpt lat="42.22218" lon="0.87101">
        <ele>949.6</ele>
        <time>2023-07-23T10:10:21Z</time>
      </trkpt>
      <trkpt lat="42.22218" lon="0.87097">
        <ele>949.6</ele>
        <time>2023-07-23T10:10:22Z</time>
      </trkpt>
      <trkpt lat="42.22218" lon="0.87093">
        <ele>949.6</ele>
        <time>2023-07-23T10:10:23Z</time>
      </trkpt>
      <trkpt lat="42.22218" lon="0.87089">
        <ele>949.6</ele>
        <time>2023-07-23T10:10:24Z</time>
      </trkpt>
      <trkpt lat="42.22218" lon="0.87084">
        <ele>949.4</ele>
        <time>2023-07-23T10:10:25Z</time>
      </trkpt>
      <trkpt lat="42.22218" lon="0.8708">
        <ele>949.2</ele>
        <time>2023-07-23T10:10:26Z</time>
      </trkpt>
      <trkpt lat="42.22218" lon="0.87075">
        <ele>949.2</ele>
        <time>2023-07-23T10:10:27Z</time>
      </trkpt>
      <trkpt lat="42.22218" lon="0.87071">
        <ele>948.6</ele>
        <time>2023-07-23T10:10:28Z</time>
      </trkpt>
      <trkpt lat="42.22219" lon="0.87067">
        <ele>947.8</ele>
        <time>2023-07-23T10:10:29Z</time>
      </trkpt>
      <trkpt lat="42.2222" lon="0.87063">
        <ele>947.4</ele>
        <time>2023-07-23T10:10:30Z</time>
      </trkpt>
      <trkpt lat="42.22221" lon="0.87058">
        <ele>946.6</ele>
        <time>2023-07-23T10:10:31Z</time>
      </trkpt>
      <trkpt lat="42.22221" lon="0.87054">
        <ele>946.4</ele>
        <time>2023-07-23T10:10:32Z</time>
      </trkpt>
      <trkpt lat="42.22222" lon="0.8705">
        <ele>946.2</ele>
        <time>2023-07-23T10:10:33Z</time>
      </trkpt>
      <trkpt lat="42.22223" lon="0.87046">
        <ele>945.6</ele>
        <time>2023-07-23T10:10:34Z</time>
      </trkpt>
      <trkpt lat="42.22224" lon="0.87041">
        <ele>945.6</ele>
        <time>2023-07-23T10:10:35Z</time>
      </trkpt>
      <trkpt lat="42.22226" lon="0.87037">
        <ele>945</ele>
        <time>2023-07-23T10:10:36Z</time>
      </trkpt>
      <trkpt lat="42.22227" lon="0.87032">
        <ele>945</ele>
        <time>2023-07-23T10:10:37Z</time>
      </trkpt>
      <trkpt lat="42.2223" lon="0.87029">
        <ele>944</ele>
        <time>2023-07-23T10:10:38Z</time>
      </trkpt>
      <trkpt lat="42.22233" lon="0.87026">
        <ele>943.2</ele>
        <time>2023-07-23T10:10:39Z</time>
      </trkpt>
      <trkpt lat="42.22235" lon="0.87022">
        <ele>943</ele>
        <time>2023-07-23T10:10:40Z</time>
      </trkpt>
      <trkpt lat="42.22237" lon="0.87017">
        <ele>942</ele>
        <time>2023-07-23T10:10:41Z</time>
      </trkpt>
      <trkpt lat="42.2224" lon="0.87014">
        <ele>941.4</ele>
        <time>2023-07-23T10:10:42Z</time>
      </trkpt>
      <trkpt lat="42.22243" lon="0.8701">
        <ele>940.6</ele>
        <time>2023-07-23T10:10:43Z</time>
      </trkpt>
      <trkpt lat="42.22246" lon="0.87006">
        <ele>940</ele>
        <time>2023-07-23T10:10:44Z</time>
      </trkpt>
      <trkpt lat="42.22249" lon="0.87001">
        <ele>940</ele>
        <time>2023-07-23T10:10:45Z</time>
      </trkpt>
      <trkpt lat="42.22251" lon="0.86997">
        <ele>939.4</ele>
        <time>2023-07-23T10:10:46Z</time>
      </trkpt>
      <trkpt lat="42.22252" lon="0.86992">
        <ele>939.2</ele>
        <time>2023-07-23T10:10:47Z</time>
      </trkpt>
      <trkpt lat="42.22252" lon="0.86989">
        <ele>938.6</ele>
        <time>2023-07-23T10:10:48Z</time>
      </trkpt>
      <trkpt lat="42.22252" lon="0.86987">
        <ele>938</ele>
        <time>2023-07-23T10:10:49Z</time>
      </trkpt>
      <trkpt lat="42.22252" lon="0.86986">
        <ele>937.8</ele>
        <time>2023-07-23T10:10:50Z</time>
      </trkpt>
      <trkpt lat="42.22252" lon="0.86986">
        <ele>937.4</ele>
        <time>2023-07-23T10:10:51Z</time>
      </trkpt>
      <trkpt lat="42.22252" lon="0.86986">
        <ele>937.2</ele>
        <time>2023-07-23T10:10:52Z</time>
      </trkpt>
      <trkpt lat="42.22249" lon="0.86979">
        <ele>935.6</ele>
        <time>2023-07-23T10:12:28Z</time>
      </trkpt>
      <trkpt lat="42.22247" lon="0.86975">
        <ele>935.6</ele>
        <time>2023-07-23T10:12:29Z</time>
      </trkpt>
      <trkpt lat="42.22245" lon="0.86971">
        <ele>935.6</ele>
        <time>2023-07-23T10:12:30Z</time>
      </trkpt>
      <trkpt lat="42.22244" lon="0.86967">
        <ele>935.4</ele>
        <time>2023-07-23T10:12:31Z</time>
      </trkpt>
      <trkpt lat="42.22242" lon="0.86962">
        <ele>935</ele>
        <time>2023-07-23T10:12:32Z</time>
      </trkpt>
      <trkpt lat="42.22241" lon="0.86958">
        <ele>934.8</ele>
        <time>2023-07-23T10:12:33Z</time>
      </trkpt>
      <trkpt lat="42.2224" lon="0.86955">
        <ele>934.6</ele>
        <time>2023-07-23T10:12:34Z</time>
      </trkpt>
      <trkpt lat="42.22238" lon="0.86952">
        <ele>934.4</ele>
        <time>2023-07-23T10:12:35Z</time>
      </trkpt>
      <trkpt lat="42.22237" lon="0.86949">
        <ele>933.8</ele>
        <time>2023-07-23T10:12:36Z</time>
      </trkpt>
      <trkpt lat="42.22236" lon="0.86946">
        <ele>933</ele>
        <time>2023-07-23T10:12:37Z</time>
      </trkpt>
      <trkpt lat="42.22235" lon="0.86943">
        <ele>932.8</ele>
        <time>2023-07-23T10:12:38Z</time>
      </trkpt>
      <trkpt lat="42.22233" lon="0.8694">
        <ele>932</ele>
        <time>2023-07-23T10:12:39Z</time>
      </trkpt>
      <trkpt lat="42.22231" lon="0.86936">
        <ele>931.8</ele>
        <time>2023-07-23T10:12:40Z</time>
      </trkpt>
      <trkpt lat="42.22229" lon="0.86933">
        <ele>931.4</ele>
        <time>2023-07-23T10:12:41Z</time>
      </trkpt>
      <trkpt lat="42.22227" lon="0.86929">
        <ele>931</ele>
        <time>2023-07-23T10:12:42Z</time>
      </trkpt>
      <trkpt lat="42.22225" lon="0.86927">
        <ele>930.6</ele>
        <time>2023-07-23T10:12:43Z</time>
      </trkpt>
      <trkpt lat="42.22223" lon="0.86927">
        <ele>930</ele>
        <time>2023-07-23T10:12:44Z</time>
      </trkpt>
      <trkpt lat="42.22221" lon="0.86927">
        <ele>929.8</ele>
        <time>2023-07-23T10:12:45Z</time>
      </trkpt>
      <trkpt lat="42.22218" lon="0.86927">
        <ele>929.4</ele>
        <time>2023-07-23T10:12:46Z</time>
      </trkpt>
      <trkpt lat="42.22215" lon="0.86926">
        <ele>928.8</ele>
        <time>2023-07-23T10:12:47Z</time>
      </trkpt>
      <trkpt lat="42.22212" lon="0.86925">
        <ele>928.6</ele>
        <time>2023-07-23T10:12:48Z</time>
      </trkpt>
      <trkpt lat="42.22209" lon="0.86924">
        <ele>927.6</ele>
        <time>2023-07-23T10:12:49Z</time>
      </trkpt>
      <trkpt lat="42.22205" lon="0.86923">
        <ele>927.2</ele>
        <time>2023-07-23T10:12:50Z</time>
      </trkpt>
      <trkpt lat="42.22201" lon="0.86921">
        <ele>926.4</ele>
        <time>2023-07-23T10:12:51Z</time>
      </trkpt>
      <trkpt lat="42.22198" lon="0.86919">
        <ele>926.2</ele>
        <time>2023-07-23T10:12:52Z</time>
      </trkpt>
      <trkpt lat="42.22194" lon="0.86917">
        <ele>925.6</ele>
        <time>2023-07-23T10:12:53Z</time>
      </trkpt>
      <trkpt lat="42.22192" lon="0.86915">
        <ele>924.8</ele>
        <time>2023-07-23T10:12:54Z</time>
      </trkpt>
      <trkpt lat="42.22189" lon="0.86913">
        <ele>924.6</ele>
        <time>2023-07-23T10:12:55Z</time>
      </trkpt>
      <trkpt lat="42.22185" lon="0.86911">
        <ele>924</ele>
        <time>2023-07-23T10:12:56Z</time>
      </trkpt>
      <trkpt lat="42.22181" lon="0.8691">
        <ele>923.6</ele>
        <time>2023-07-23T10:12:57Z</time>
      </trkpt>
      <trkpt lat="42.22176" lon="0.86909">
        <ele>922.8</ele>
        <time>2023-07-23T10:12:58Z</time>
      </trkpt>
      <trkpt lat="42.22172" lon="0.86907">
        <ele>922.2</ele>
        <time>2023-07-23T10:12:59Z</time>
      </trkpt>
      <trkpt lat="42.22168" lon="0.86904">
        <ele>921.8</ele>
        <time>2023-07-23T10:13:00Z</time>
      </trkpt>
      <trkpt lat="42.22164" lon="0.86902">
        <ele>920.8</ele>
        <time>2023-07-23T10:13:01Z</time>
      </trkpt>
      <trkpt lat="42.22159" lon="0.869">
        <ele>920</ele>
        <time>2023-07-23T10:13:02Z</time>
      </trkpt>
      <trkpt lat="42.22155" lon="0.86898">
        <ele>919.2</ele>
        <time>2023-07-23T10:13:03Z</time>
      </trkpt>
      <trkpt lat="42.22151" lon="0.86897">
        <ele>918.4</ele>
        <time>2023-07-23T10:13:04Z</time>
      </trkpt>
      <trkpt lat="42.22147" lon="0.86895">
        <ele>917.8</ele>
        <time>2023-07-23T10:13:05Z</time>
      </trkpt>
      <trkpt lat="42.22143" lon="0.86892">
        <ele>917</ele>
        <time>2023-07-23T10:13:06Z</time>
      </trkpt>
      <trkpt lat="42.2214" lon="0.8689">
        <ele>916.6</ele>
        <time>2023-07-23T10:13:07Z</time>
      </trkpt>
      <trkpt lat="42.22137" lon="0.86889">
        <ele>915.2</ele>
        <time>2023-07-23T10:13:08Z</time>
      </trkpt>
      <trkpt lat="42.22133" lon="0.86889">
        <ele>914.4</ele>
        <time>2023-07-23T10:13:09Z</time>
      </trkpt>
      <trkpt lat="42.22131" lon="0.8689">
        <ele>914</ele>
        <time>2023-07-23T10:13:10Z</time>
      </trkpt>
      <trkpt lat="42.2213" lon="0.86893">
        <ele>913</ele>
        <time>2023-07-23T10:13:11Z</time>
      </trkpt>
      <trkpt lat="42.22128" lon="0.86895">
        <ele>912.6</ele>
        <time>2023-07-23T10:13:12Z</time>
      </trkpt>
      <trkpt lat="42.22126" lon="0.86897">
        <ele>912.2</ele>
        <time>2023-07-23T10:13:13Z</time>
      </trkpt>
      <trkpt lat="42.22125" lon="0.86898">
        <ele>911.8</ele>
        <time>2023-07-23T10:13:14Z</time>
      </trkpt>
      <trkpt lat="42.22124" lon="0.869">
        <ele>911.6</ele>
        <time>2023-07-23T10:13:15Z</time>
      </trkpt>
      <trkpt lat="42.22123" lon="0.86902">
        <ele>911</ele>
        <time>2023-07-23T10:13:16Z</time>
      </trkpt>
      <trkpt lat="42.22123" lon="0.86904">
        <ele>911</ele>
        <time>2023-07-23T10:13:17Z</time>
      </trkpt>
      <trkpt lat="42.22122" lon="0.86907">
        <ele>910.4</ele>
        <time>2023-07-23T10:13:18Z</time>
      </trkpt>
      <trkpt lat="42.22121" lon="0.86908">
        <ele>910.2</ele>
        <time>2023-07-23T10:13:19Z</time>
      </trkpt>
      <trkpt lat="42.22119" lon="0.86909">
        <ele>909.8</ele>
        <time>2023-07-23T10:13:20Z</time>
      </trkpt>
      <trkpt lat="42.22118" lon="0.86909">
        <ele>909.2</ele>
        <time>2023-07-23T10:13:21Z</time>
      </trkpt>
      <trkpt lat="42.22116" lon="0.86909">
        <ele>908.8</ele>
        <time>2023-07-23T10:13:22Z</time>
      </trkpt>
      <trkpt lat="42.22114" lon="0.8691">
        <ele>908</ele>
        <time>2023-07-23T10:13:23Z</time>
      </trkpt>
      <trkpt lat="42.22114" lon="0.86912">
        <ele>907.6</ele>
        <time>2023-07-23T10:13:24Z</time>
      </trkpt>
      <trkpt lat="42.22114" lon="0.86914">
        <ele>907</ele>
        <time>2023-07-23T10:13:25Z</time>
      </trkpt>
      <trkpt lat="42.22115" lon="0.86918">
        <ele>906.6</ele>
        <time>2023-07-23T10:13:26Z</time>
      </trkpt>
      <trkpt lat="42.22116" lon="0.86922">
        <ele>906.4</ele>
        <time>2023-07-23T10:13:27Z</time>
      </trkpt>
      <trkpt lat="42.22117" lon="0.86927">
        <ele>905.8</ele>
        <time>2023-07-23T10:13:28Z</time>
      </trkpt>
      <trkpt lat="42.22117" lon="0.86931">
        <ele>905.6</ele>
        <time>2023-07-23T10:13:29Z</time>
      </trkpt>
      <trkpt lat="42.22117" lon="0.86935">
        <ele>905.4</ele>
        <time>2023-07-23T10:13:30Z</time>
      </trkpt>
      <trkpt lat="42.22116" lon="0.8694">
        <ele>905.2</ele>
        <time>2023-07-23T10:13:31Z</time>
      </trkpt>
      <trkpt lat="42.22114" lon="0.86944">
        <ele>905</ele>
        <time>2023-07-23T10:13:32Z</time>
      </trkpt>
      <trkpt lat="42.22113" lon="0.86948">
        <ele>904.6</ele>
        <time>2023-07-23T10:13:33Z</time>
      </trkpt>
      <trkpt lat="42.22111" lon="0.86954">
        <ele>904.4</ele>
        <time>2023-07-23T10:13:34Z</time>
      </trkpt>
      <trkpt lat="42.22109" lon="0.86959">
        <ele>904</ele>
        <time>2023-07-23T10:13:35Z</time>
      </trkpt>
      <trkpt lat="42.22105" lon="0.86965">
        <ele>903.8</ele>
        <time>2023-07-23T10:13:36Z</time>
      </trkpt>
      <trkpt lat="42.22103" lon="0.8697">
        <ele>903.6</ele>
        <time>2023-07-23T10:13:37Z</time>
      </trkpt>
      <trkpt lat="42.22101" lon="0.86976">
        <ele>903.2</ele>
        <time>2023-07-23T10:13:38Z</time>
      </trkpt>
      <trkpt lat="42.22098" lon="0.86981">
        <ele>903</ele>
        <time>2023-07-23T10:13:39Z</time>
      </trkpt>
      <trkpt lat="42.22096" lon="0.86987">
        <ele>902.8</ele>
        <time>2023-07-23T10:13:40Z</time>
      </trkpt>
      <trkpt lat="42.22092" lon="0.86993">
        <ele>902.6</ele>
        <time>2023-07-23T10:13:41Z</time>
      </trkpt>
      <trkpt lat="42.22089" lon="0.86999">
        <ele>902.4</ele>
        <time>2023-07-23T10:13:42Z</time>
      </trkpt>
      <trkpt lat="42.22084" lon="0.87004">
        <ele>902</ele>
        <time>2023-07-23T10:13:43Z</time>
      </trkpt>
      <trkpt lat="42.2208" lon="0.87009">
        <ele>901.8</ele>
        <time>2023-07-23T10:13:44Z</time>
      </trkpt>
      <trkpt lat="42.22075" lon="0.87012">
        <ele>901.6</ele>
        <time>2023-07-23T10:13:45Z</time>
      </trkpt>
      <trkpt lat="42.22069" lon="0.87016">
        <ele>901.6</ele>
        <time>2023-07-23T10:13:46Z</time>
      </trkpt>
      <trkpt lat="42.22064" lon="0.87019">
        <ele>901.2</ele>
        <time>2023-07-23T10:13:47Z</time>
      </trkpt>
      <trkpt lat="42.22059" lon="0.87022">
        <ele>901.4</ele>
        <time>2023-07-23T10:13:48Z</time>
      </trkpt>
      <trkpt lat="42.22054" lon="0.87025">
        <ele>900.8</ele>
        <time>2023-07-23T10:13:49Z</time>
      </trkpt>
      <trkpt lat="42.2205" lon="0.87028">
        <ele>900.4</ele>
        <time>2023-07-23T10:13:50Z</time>
      </trkpt>
      <trkpt lat="42.22046" lon="0.8703">
        <ele>900.2</ele>
        <time>2023-07-23T10:13:51Z</time>
      </trkpt>
      <trkpt lat="42.22042" lon="0.87033">
        <ele>899.2</ele>
        <time>2023-07-23T10:13:52Z</time>
      </trkpt>
      <trkpt lat="42.22037" lon="0.87036">
        <ele>898.4</ele>
        <time>2023-07-23T10:13:53Z</time>
      </trkpt>
      <trkpt lat="42.22034" lon="0.87039">
        <ele>898</ele>
        <time>2023-07-23T10:13:54Z</time>
      </trkpt>
      <trkpt lat="42.22031" lon="0.87042">
        <ele>897.2</ele>
        <time>2023-07-23T10:13:55Z</time>
      </trkpt>
      <trkpt lat="42.22029" lon="0.87045">
        <ele>897</ele>
        <time>2023-07-23T10:13:56Z</time>
      </trkpt>
      <trkpt lat="42.22027" lon="0.87046">
        <ele>896.4</ele>
        <time>2023-07-23T10:13:57Z</time>
      </trkpt>
      <trkpt lat="42.22023" lon="0.87046">
        <ele>895.6</ele>
        <time>2023-07-23T10:13:58Z</time>
      </trkpt>
      <trkpt lat="42.22019" lon="0.87045">
        <ele>895.4</ele>
        <time>2023-07-23T10:13:59Z</time>
      </trkpt>
      <trkpt lat="42.22015" lon="0.87043">
        <ele>894.8</ele>
        <time>2023-07-23T10:14:00Z</time>
      </trkpt>
      <trkpt lat="42.22011" lon="0.87042">
        <ele>894.6</ele>
        <time>2023-07-23T10:14:01Z</time>
      </trkpt>
      <trkpt lat="42.22007" lon="0.87042">
        <ele>894.4</ele>
        <time>2023-07-23T10:14:02Z</time>
      </trkpt>
      <trkpt lat="42.22003" lon="0.87042">
        <ele>893.4</ele>
        <time>2023-07-23T10:14:03Z</time>
      </trkpt>
      <trkpt lat="42.21999" lon="0.87042">
        <ele>892.8</ele>
        <time>2023-07-23T10:14:04Z</time>
      </trkpt>
      <trkpt lat="42.21995" lon="0.87043">
        <ele>892</ele>
        <time>2023-07-23T10:14:05Z</time>
      </trkpt>
      <trkpt lat="42.21991" lon="0.87042">
        <ele>891.8</ele>
        <time>2023-07-23T10:14:06Z</time>
      </trkpt>
      <trkpt lat="42.21987" lon="0.87041">
        <ele>891</ele>
        <time>2023-07-23T10:14:07Z</time>
      </trkpt>
      <trkpt lat="42.21983" lon="0.87042">
        <ele>890.6</ele>
        <time>2023-07-23T10:14:08Z</time>
      </trkpt>
      <trkpt lat="42.2198" lon="0.87042">
        <ele>890</ele>
        <time>2023-07-23T10:14:09Z</time>
      </trkpt>
      <trkpt lat="42.21977" lon="0.87043">
        <ele>889</ele>
        <time>2023-07-23T10:14:10Z</time>
      </trkpt>
      <trkpt lat="42.21974" lon="0.87044">
        <ele>888.8</ele>
        <time>2023-07-23T10:14:11Z</time>
      </trkpt>
      <trkpt lat="42.2197" lon="0.87044">
        <ele>887.8</ele>
        <time>2023-07-23T10:14:12Z</time>
      </trkpt>
      <trkpt lat="42.21967" lon="0.87045">
        <ele>887.4</ele>
        <time>2023-07-23T10:14:13Z</time>
      </trkpt>
      <trkpt lat="42.21964" lon="0.87045">
        <ele>886.4</ele>
        <time>2023-07-23T10:14:14Z</time>
      </trkpt>
      <trkpt lat="42.21961" lon="0.87045">
        <ele>885.8</ele>
        <time>2023-07-23T10:14:15Z</time>
      </trkpt>
      <trkpt lat="42.21957" lon="0.87044">
        <ele>885.4</ele>
        <time>2023-07-23T10:14:16Z</time>
      </trkpt>
      <trkpt lat="42.21952" lon="0.87044">
        <ele>884.8</ele>
        <time>2023-07-23T10:14:17Z</time>
      </trkpt>
      <trkpt lat="42.21949" lon="0.87045">
        <ele>884.4</ele>
        <time>2023-07-23T10:14:18Z</time>
      </trkpt>
      <trkpt lat="42.21946" lon="0.87045">
        <ele>883.2</ele>
        <time>2023-07-23T10:14:19Z</time>
      </trkpt>
      <trkpt lat="42.21942" lon="0.87044">
        <ele>881.8</ele>
        <time>2023-07-23T10:14:20Z</time>
      </trkpt>
      <trkpt lat="42.21937" lon="0.87045">
        <ele>881.2</ele>
        <time>2023-07-23T10:14:21Z</time>
      </trkpt>
      <trkpt lat="42.21933" lon="0.87046">
        <ele>880.4</ele>
        <time>2023-07-23T10:14:22Z</time>
      </trkpt>
      <trkpt lat="42.21929" lon="0.87047">
        <ele>879.4</ele>
        <time>2023-07-23T10:14:23Z</time>
      </trkpt>
      <trkpt lat="42.21925" lon="0.87049">
        <ele>878.4</ele>
        <time>2023-07-23T10:14:24Z</time>
      </trkpt>
      <trkpt lat="42.2192" lon="0.87051">
        <ele>877.6</ele>
        <time>2023-07-23T10:14:25Z</time>
      </trkpt>
      <trkpt lat="42.21916" lon="0.87054">
        <ele>877.2</ele>
        <time>2023-07-23T10:14:26Z</time>
      </trkpt>
      <trkpt lat="42.21912" lon="0.87056">
        <ele>877</ele>
        <time>2023-07-23T10:14:27Z</time>
      </trkpt>
      <trkpt lat="42.21908" lon="0.87059">
        <ele>876.8</ele>
        <time>2023-07-23T10:14:28Z</time>
      </trkpt>
      <trkpt lat="42.21904" lon="0.87063">
        <ele>876.4</ele>
        <time>2023-07-23T10:14:29Z</time>
      </trkpt>
      <trkpt lat="42.21901" lon="0.87065">
        <ele>876.2</ele>
        <time>2023-07-23T10:14:30Z</time>
      </trkpt>
      <trkpt lat="42.21898" lon="0.87067">
        <ele>875</ele>
        <time>2023-07-23T10:14:31Z</time>
      </trkpt>
      <trkpt lat="42.21894" lon="0.87067">
        <ele>874.4</ele>
        <time>2023-07-23T10:14:32Z</time>
      </trkpt>
      <trkpt lat="42.21891" lon="0.87068">
        <ele>874</ele>
        <time>2023-07-23T10:14:33Z</time>
      </trkpt>
      <trkpt lat="42.21887" lon="0.8707">
        <ele>873.6</ele>
        <time>2023-07-23T10:14:34Z</time>
      </trkpt>
      <trkpt lat="42.21884" lon="0.87072">
        <ele>873.4</ele>
        <time>2023-07-23T10:14:35Z</time>
      </trkpt>
      <trkpt lat="42.21881" lon="0.87073">
        <ele>871.8</ele>
        <time>2023-07-23T10:14:36Z</time>
      </trkpt>
      <trkpt lat="42.21879" lon="0.87074">
        <ele>870.6</ele>
        <time>2023-07-23T10:14:37Z</time>
      </trkpt>
      <trkpt lat="42.21876" lon="0.87076">
        <ele>870</ele>
        <time>2023-07-23T10:14:38Z</time>
      </trkpt>
      <trkpt lat="42.21872" lon="0.87077">
        <ele>869.2</ele>
        <time>2023-07-23T10:14:39Z</time>
      </trkpt>
      <trkpt lat="42.21868" lon="0.87078">
        <ele>868.8</ele>
        <time>2023-07-23T10:14:40Z</time>
      </trkpt>
      <trkpt lat="42.21865" lon="0.87079">
        <ele>868.2</ele>
        <time>2023-07-23T10:14:41Z</time>
      </trkpt>
      <trkpt lat="42.21862" lon="0.8708">
        <ele>867.4</ele>
        <time>2023-07-23T10:14:42Z</time>
      </trkpt>
      <trkpt lat="42.2186" lon="0.8708">
        <ele>867</ele>
        <time>2023-07-23T10:14:43Z</time>
      </trkpt>
      <trkpt lat="42.21857" lon="0.87079">
        <ele>866.4</ele>
        <time>2023-07-23T10:14:44Z</time>
      </trkpt>
      <trkpt lat="42.21854" lon="0.87079">
        <ele>866.2</ele>
        <time>2023-07-23T10:14:45Z</time>
      </trkpt>
      <trkpt lat="42.21851" lon="0.8708">
        <ele>865.6</ele>
        <time>2023-07-23T10:14:46Z</time>
      </trkpt>
      <trkpt lat="42.21849" lon="0.87082">
        <ele>865</ele>
        <time>2023-07-23T10:14:47Z</time>
      </trkpt>
      <trkpt lat="42.21848" lon="0.87083">
        <ele>864.8</ele>
        <time>2023-07-23T10:14:48Z</time>
      </trkpt>
      <trkpt lat="42.21846" lon="0.87084">
        <ele>863.8</ele>
        <time>2023-07-23T10:14:49Z</time>
      </trkpt>
      <trkpt lat="42.21846" lon="0.87084">
        <ele>863.4</ele>
        <time>2023-07-23T10:14:50Z</time>
      </trkpt>
      <trkpt lat="42.21846" lon="0.87084">
        <ele>862.6</ele>
        <time>2023-07-23T10:14:51Z</time>
      </trkpt>
      <trkpt lat="42.2185" lon="0.87092">
        <ele>858.4</ele>
        <time>2023-07-23T10:15:24Z</time>
      </trkpt>
      <trkpt lat="42.21852" lon="0.87094">
        <ele>858.2</ele>
        <time>2023-07-23T10:15:25Z</time>
      </trkpt>
      <trkpt lat="42.21855" lon="0.87096">
        <ele>858</ele>
        <time>2023-07-23T10:15:26Z</time>
      </trkpt>
      <trkpt lat="42.21857" lon="0.87097">
        <ele>858</ele>
        <time>2023-07-23T10:15:27Z</time>
      </trkpt>
      <trkpt lat="42.21858" lon="0.87099">
        <ele>857.8</ele>
        <time>2023-07-23T10:15:28Z</time>
      </trkpt>
      <trkpt lat="42.21857" lon="0.87101">
        <ele>857.8</ele>
        <time>2023-07-23T10:15:29Z</time>
      </trkpt>
      <trkpt lat="42.21856" lon="0.87103">
        <ele>857.6</ele>
        <time>2023-07-23T10:15:30Z</time>
      </trkpt>
      <trkpt lat="42.21855" lon="0.87105">
        <ele>857.4</ele>
        <time>2023-07-23T10:15:31Z</time>
      </trkpt>
      <trkpt lat="42.21853" lon="0.87106">
        <ele>857.2</ele>
        <time>2023-07-23T10:15:32Z</time>
      </trkpt>
      <trkpt lat="42.2185" lon="0.87108">
        <ele>856.8</ele>
        <time>2023-07-23T10:15:33Z</time>
      </trkpt>
      <trkpt lat="42.21847" lon="0.87109">
        <ele>856.4</ele>
        <time>2023-07-23T10:15:34Z</time>
      </trkpt>
      <trkpt lat="42.21845" lon="0.87111">
        <ele>856.2</ele>
        <time>2023-07-23T10:15:35Z</time>
      </trkpt>
      <trkpt lat="42.21842" lon="0.87112">
        <ele>856.2</ele>
        <time>2023-07-23T10:15:36Z</time>
      </trkpt>
      <trkpt lat="42.21839" lon="0.87114">
        <ele>855.6</ele>
        <time>2023-07-23T10:15:37Z</time>
      </trkpt>
      <trkpt lat="42.21836" lon="0.87115">
        <ele>854.8</ele>
        <time>2023-07-23T10:15:38Z</time>
      </trkpt>
      <trkpt lat="42.21832" lon="0.87115">
        <ele>854.6</ele>
        <time>2023-07-23T10:15:39Z</time>
      </trkpt>
      <trkpt lat="42.21828" lon="0.87116">
        <ele>854</ele>
        <time>2023-07-23T10:15:40Z</time>
      </trkpt>
      <trkpt lat="42.21825" lon="0.87116">
        <ele>853.4</ele>
        <time>2023-07-23T10:15:41Z</time>
      </trkpt>
      <trkpt lat="42.21822" lon="0.87117">
        <ele>852.2</ele>
        <time>2023-07-23T10:15:42Z</time>
      </trkpt>
      <trkpt lat="42.21819" lon="0.87118">
        <ele>851.2</ele>
        <time>2023-07-23T10:15:43Z</time>
      </trkpt>
      <trkpt lat="42.21816" lon="0.87118">
        <ele>850.8</ele>
        <time>2023-07-23T10:15:44Z</time>
      </trkpt>
      <trkpt lat="42.21813" lon="0.87118">
        <ele>850.4</ele>
        <time>2023-07-23T10:15:45Z</time>
      </trkpt>
      <trkpt lat="42.21812" lon="0.87119">
        <ele>850.2</ele>
        <time>2023-07-23T10:15:46Z</time>
      </trkpt>
      <trkpt lat="42.21811" lon="0.8712">
        <ele>849.8</ele>
        <time>2023-07-23T10:15:47Z</time>
      </trkpt>
      <trkpt lat="42.21811" lon="0.87121">
        <ele>849</ele>
        <time>2023-07-23T10:15:48Z</time>
      </trkpt>
      <trkpt lat="42.21813" lon="0.87121">
        <ele>848.4</ele>
        <time>2023-07-23T10:15:49Z</time>
      </trkpt>
      <trkpt lat="42.21814" lon="0.87122">
        <ele>847.6</ele>
        <time>2023-07-23T10:15:50Z</time>
      </trkpt>
      <trkpt lat="42.21817" lon="0.87123">
        <ele>847.4</ele>
        <time>2023-07-23T10:15:51Z</time>
      </trkpt>
      <trkpt lat="42.2182" lon="0.87124">
        <ele>846.8</ele>
        <time>2023-07-23T10:15:52Z</time>
      </trkpt>
      <trkpt lat="42.21822" lon="0.87126">
        <ele>846.4</ele>
        <time>2023-07-23T10:15:53Z</time>
      </trkpt>
      <trkpt lat="42.21825" lon="0.87129">
        <ele>846.4</ele>
        <time>2023-07-23T10:15:54Z</time>
      </trkpt>
      <trkpt lat="42.21827" lon="0.87131">
        <ele>846</ele>
        <time>2023-07-23T10:15:55Z</time>
      </trkpt>
      <trkpt lat="42.2183" lon="0.87132">
        <ele>846</ele>
        <time>2023-07-23T10:15:56Z</time>
      </trkpt>
      <trkpt lat="42.21833" lon="0.87133">
        <ele>845.4</ele>
        <time>2023-07-23T10:15:57Z</time>
      </trkpt>
      <trkpt lat="42.21836" lon="0.87135">
        <ele>845.4</ele>
        <time>2023-07-23T10:15:58Z</time>
      </trkpt>
      <trkpt lat="42.21838" lon="0.87135">
        <ele>844.8</ele>
        <time>2023-07-23T10:15:59Z</time>
      </trkpt>
      <trkpt lat="42.21839" lon="0.87136">
        <ele>844.4</ele>
        <time>2023-07-23T10:16:00Z</time>
      </trkpt>
      <trkpt lat="42.2184" lon="0.87137">
        <ele>844</ele>
        <time>2023-07-23T10:16:01Z</time>
      </trkpt>
      <trkpt lat="42.21842" lon="0.87137">
        <ele>843.6</ele>
        <time>2023-07-23T10:16:02Z</time>
      </trkpt>
      <trkpt lat="42.21844" lon="0.87137">
        <ele>843.4</ele>
        <time>2023-07-23T10:16:03Z</time>
      </trkpt>
      <trkpt lat="42.21846" lon="0.87137">
        <ele>843</ele>
        <time>2023-07-23T10:16:04Z</time>
      </trkpt>
      <trkpt lat="42.21848" lon="0.87137">
        <ele>842.8</ele>
        <time>2023-07-23T10:16:05Z</time>
      </trkpt>
      <trkpt lat="42.21849" lon="0.87138">
        <ele>842.8</ele>
        <time>2023-07-23T10:16:06Z</time>
      </trkpt>
      <trkpt lat="42.2185" lon="0.87139">
        <ele>842.4</ele>
        <time>2023-07-23T10:16:07Z</time>
      </trkpt>
      <trkpt lat="42.2185" lon="0.87139">
        <ele>842.4</ele>
        <time>2023-07-23T10:16:08Z</time>
      </trkpt>
      <trkpt lat="42.2185" lon="0.8714">
        <ele>842</ele>
        <time>2023-07-23T10:16:09Z</time>
      </trkpt>
      <trkpt lat="42.21849" lon="0.87141">
        <ele>841.8</ele>
        <time>2023-07-23T10:16:10Z</time>
      </trkpt>
      <trkpt lat="42.21849" lon="0.87141">
        <ele>841.8</ele>
        <time>2023-07-23T10:16:11Z</time>
      </trkpt>
      <trkpt lat="42.21847" lon="0.87142">
        <ele>841.6</ele>
        <time>2023-07-23T10:16:12Z</time>
      </trkpt>
      <trkpt lat="42.21846" lon="0.87142">
        <ele>841.4</ele>
        <time>2023-07-23T10:16:13Z</time>
      </trkpt>
      <trkpt lat="42.21844" lon="0.87143">
        <ele>841.4</ele>
        <time>2023-07-23T10:16:14Z</time>
      </trkpt>
      <trkpt lat="42.21841" lon="0.87144">
        <ele>841.2</ele>
        <time>2023-07-23T10:16:15Z</time>
      </trkpt>
      <trkpt lat="42.21839" lon="0.87144">
        <ele>841.2</ele>
        <time>2023-07-23T10:16:16Z</time>
      </trkpt>
      <trkpt lat="42.21836" lon="0.87145">
        <ele>841</ele>
        <time>2023-07-23T10:16:17Z</time>
      </trkpt>
      <trkpt lat="42.21831" lon="0.87144">
        <ele>841</ele>
        <time>2023-07-23T10:16:18Z</time>
      </trkpt>
      <trkpt lat="42.21829" lon="0.87145">
        <ele>841</ele>
        <time>2023-07-23T10:16:19Z</time>
      </trkpt>
      <trkpt lat="42.21826" lon="0.87145">
        <ele>840.8</ele>
        <time>2023-07-23T10:16:20Z</time>
      </trkpt>
      <trkpt lat="42.21823" lon="0.87147">
        <ele>840.2</ele>
        <time>2023-07-23T10:16:21Z</time>
      </trkpt>
      <trkpt lat="42.2182" lon="0.87151">
        <ele>839.2</ele>
        <time>2023-07-23T10:16:22Z</time>
      </trkpt>
      <trkpt lat="42.21817" lon="0.87156">
        <ele>838.8</ele>
        <time>2023-07-23T10:16:23Z</time>
      </trkpt>
      <trkpt lat="42.21814" lon="0.8716">
        <ele>838.2</ele>
        <time>2023-07-23T10:16:24Z</time>
      </trkpt>
      <trkpt lat="42.2181" lon="0.87162">
        <ele>838</ele>
        <time>2023-07-23T10:16:25Z</time>
      </trkpt>
      <trkpt lat="42.21805" lon="0.87165">
        <ele>837.2</ele>
        <time>2023-07-23T10:16:26Z</time>
      </trkpt>
      <trkpt lat="42.21801" lon="0.87168">
        <ele>836.8</ele>
        <time>2023-07-23T10:16:27Z</time>
      </trkpt>
      <trkpt lat="42.21797" lon="0.87171">
        <ele>836.6</ele>
        <time>2023-07-23T10:16:28Z</time>
      </trkpt>
      <trkpt lat="42.21792" lon="0.87175">
        <ele>835.8</ele>
        <time>2023-07-23T10:16:29Z</time>
      </trkpt>
      <trkpt lat="42.21788" lon="0.87179">
        <ele>835.8</ele>
        <time>2023-07-23T10:16:30Z</time>
      </trkpt>
      <trkpt lat="42.21784" lon="0.87182">
        <ele>835.4</ele>
        <time>2023-07-23T10:16:31Z</time>
      </trkpt>
      <trkpt lat="42.2178" lon="0.87186">
        <ele>834.6</ele>
        <time>2023-07-23T10:16:32Z</time>
      </trkpt>
      <trkpt lat="42.21778" lon="0.8719">
        <ele>833.6</ele>
        <time>2023-07-23T10:16:33Z</time>
      </trkpt>
      <trkpt lat="42.21776" lon="0.87194">
        <ele>832.2</ele>
        <time>2023-07-23T10:16:34Z</time>
      </trkpt>
      <trkpt lat="42.21774" lon="0.87199">
        <ele>831.6</ele>
        <time>2023-07-23T10:16:35Z</time>
      </trkpt>
      <trkpt lat="42.21772" lon="0.87203">
        <ele>830.8</ele>
        <time>2023-07-23T10:16:36Z</time>
      </trkpt>
      <trkpt lat="42.21772" lon="0.87207">
        <ele>830.2</ele>
        <time>2023-07-23T10:16:37Z</time>
      </trkpt>
      <trkpt lat="42.21772" lon="0.87211">
        <ele>829.8</ele>
        <time>2023-07-23T10:16:38Z</time>
      </trkpt>
      <trkpt lat="42.21772" lon="0.87214">
        <ele>829.6</ele>
        <time>2023-07-23T10:16:39Z</time>
      </trkpt>
      <trkpt lat="42.21771" lon="0.87217">
        <ele>829.4</ele>
        <time>2023-07-23T10:16:40Z</time>
      </trkpt>
      <trkpt lat="42.21771" lon="0.87218">
        <ele>829.2</ele>
        <time>2023-07-23T10:16:41Z</time>
      </trkpt>
      <trkpt lat="42.21769" lon="0.87217">
        <ele>829</ele>
        <time>2023-07-23T10:16:42Z</time>
      </trkpt>
      <trkpt lat="42.21768" lon="0.87214">
        <ele>828.6</ele>
        <time>2023-07-23T10:16:43Z</time>
      </trkpt>
      <trkpt lat="42.21767" lon="0.87211">
        <ele>828</ele>
        <time>2023-07-23T10:16:44Z</time>
      </trkpt>
      <trkpt lat="42.21764" lon="0.87209">
        <ele>827.4</ele>
        <time>2023-07-23T10:16:45Z</time>
      </trkpt>
      <trkpt lat="42.21762" lon="0.87208">
        <ele>826.6</ele>
        <time>2023-07-23T10:16:46Z</time>
      </trkpt>
      <trkpt lat="42.21758" lon="0.87208">
        <ele>826.2</ele>
        <time>2023-07-23T10:16:47Z</time>
      </trkpt>
      <trkpt lat="42.21754" lon="0.87209">
        <ele>825.6</ele>
        <time>2023-07-23T10:16:48Z</time>
      </trkpt>
      <trkpt lat="42.2175" lon="0.87209">
        <ele>825</ele>
        <time>2023-07-23T10:16:49Z</time>
      </trkpt>
      <trkpt lat="42.21746" lon="0.8721">
        <ele>824.8</ele>
        <time>2023-07-23T10:16:50Z</time>
      </trkpt>
      <trkpt lat="42.21742" lon="0.87211">
        <ele>824</ele>
        <time>2023-07-23T10:16:51Z</time>
      </trkpt>
      <trkpt lat="42.21739" lon="0.87213">
        <ele>823.2</ele>
        <time>2023-07-23T10:16:52Z</time>
      </trkpt>
      <trkpt lat="42.21735" lon="0.87214">
        <ele>822.4</ele>
        <time>2023-07-23T10:16:53Z</time>
      </trkpt>
      <trkpt lat="42.21732" lon="0.87216">
        <ele>821.8</ele>
        <time>2023-07-23T10:16:54Z</time>
      </trkpt>
      <trkpt lat="42.21728" lon="0.87217">
        <ele>821.4</ele>
        <time>2023-07-23T10:16:55Z</time>
      </trkpt>
      <trkpt lat="42.21725" lon="0.87219">
        <ele>820.6</ele>
        <time>2023-07-23T10:16:56Z</time>
      </trkpt>
      <trkpt lat="42.21723" lon="0.8722">
        <ele>820.2</ele>
        <time>2023-07-23T10:16:57Z</time>
      </trkpt>
      <trkpt lat="42.2172" lon="0.87221">
        <ele>819.4</ele>
        <time>2023-07-23T10:16:58Z</time>
      </trkpt>
      <trkpt lat="42.21718" lon="0.87223">
        <ele>819</ele>
        <time>2023-07-23T10:16:59Z</time>
      </trkpt>
      <trkpt lat="42.21715" lon="0.87225">
        <ele>818.8</ele>
        <time>2023-07-23T10:17:00Z</time>
      </trkpt>
      <trkpt lat="42.21713" lon="0.87228">
        <ele>818.2</ele>
        <time>2023-07-23T10:17:01Z</time>
      </trkpt>
      <trkpt lat="42.21711" lon="0.87231">
        <ele>817.8</ele>
        <time>2023-07-23T10:17:02Z</time>
      </trkpt>
      <trkpt lat="42.2171" lon="0.87234">
        <ele>817.4</ele>
        <time>2023-07-23T10:17:03Z</time>
      </trkpt>
      <trkpt lat="42.21707" lon="0.87236">
        <ele>816.4</ele>
        <time>2023-07-23T10:17:04Z</time>
      </trkpt>
      <trkpt lat="42.21704" lon="0.87238">
        <ele>816</ele>
        <time>2023-07-23T10:17:05Z</time>
      </trkpt>
      <trkpt lat="42.21702" lon="0.87239">
        <ele>815.4</ele>
        <time>2023-07-23T10:17:06Z</time>
      </trkpt>
      <trkpt lat="42.21699" lon="0.8724">
        <ele>814.4</ele>
        <time>2023-07-23T10:17:07Z</time>
      </trkpt>
      <trkpt lat="42.21696" lon="0.87241">
        <ele>812.8</ele>
        <time>2023-07-23T10:17:08Z</time>
      </trkpt>
      <trkpt lat="42.21693" lon="0.87242">
        <ele>812.2</ele>
        <time>2023-07-23T10:17:09Z</time>
      </trkpt>
      <trkpt lat="42.21689" lon="0.87242">
        <ele>811.2</ele>
        <time>2023-07-23T10:17:10Z</time>
      </trkpt>
      <trkpt lat="42.21686" lon="0.87242">
        <ele>810.6</ele>
        <time>2023-07-23T10:17:11Z</time>
      </trkpt>
      <trkpt lat="42.21683" lon="0.87243">
        <ele>810.4</ele>
        <time>2023-07-23T10:17:12Z</time>
      </trkpt>
      <trkpt lat="42.2168" lon="0.87243">
        <ele>809.6</ele>
        <time>2023-07-23T10:17:13Z</time>
      </trkpt>
      <trkpt lat="42.21677" lon="0.87243">
        <ele>809.4</ele>
        <time>2023-07-23T10:17:14Z</time>
      </trkpt>
      <trkpt lat="42.21674" lon="0.87244">
        <ele>808.4</ele>
        <time>2023-07-23T10:17:15Z</time>
      </trkpt>
      <trkpt lat="42.21672" lon="0.87245">
        <ele>808.2</ele>
        <time>2023-07-23T10:17:16Z</time>
      </trkpt>
      <trkpt lat="42.21668" lon="0.87247">
        <ele>807.8</ele>
        <time>2023-07-23T10:17:17Z</time>
      </trkpt>
      <trkpt lat="42.21666" lon="0.87248">
        <ele>807.2</ele>
        <time>2023-07-23T10:17:18Z</time>
      </trkpt>
      <trkpt lat="42.21663" lon="0.8725">
        <ele>807</ele>
        <time>2023-07-23T10:17:19Z</time>
      </trkpt>
      <trkpt lat="42.2166" lon="0.87252">
        <ele>806.2</ele>
        <time>2023-07-23T10:17:20Z</time>
      </trkpt>
      <trkpt lat="42.21657" lon="0.87255">
        <ele>804.8</ele>
        <time>2023-07-23T10:17:21Z</time>
      </trkpt>
      <trkpt lat="42.21654" lon="0.87258">
        <ele>804.2</ele>
        <time>2023-07-23T10:17:22Z</time>
      </trkpt>
      <trkpt lat="42.21651" lon="0.87261">
        <ele>803.2</ele>
        <time>2023-07-23T10:17:23Z</time>
      </trkpt>
      <trkpt lat="42.21648" lon="0.87264">
        <ele>802.8</ele>
        <time>2023-07-23T10:17:24Z</time>
      </trkpt>
      <trkpt lat="42.21645" lon="0.87267">
        <ele>802.2</ele>
        <time>2023-07-23T10:17:25Z</time>
      </trkpt>
      <trkpt lat="42.21642" lon="0.8727">
        <ele>801.6</ele>
        <time>2023-07-23T10:17:26Z</time>
      </trkpt>
      <trkpt lat="42.21639" lon="0.87273">
        <ele>801.2</ele>
        <time>2023-07-23T10:17:27Z</time>
      </trkpt>
      <trkpt lat="42.21637" lon="0.87276">
        <ele>800.4</ele>
        <time>2023-07-23T10:17:28Z</time>
      </trkpt>
      <trkpt lat="42.21635" lon="0.87279">
        <ele>800</ele>
        <time>2023-07-23T10:17:29Z</time>
      </trkpt>
      <trkpt lat="42.21632" lon="0.87282">
        <ele>799.2</ele>
        <time>2023-07-23T10:17:30Z</time>
      </trkpt>
      <trkpt lat="42.21629" lon="0.87285">
        <ele>799</ele>
        <time>2023-07-23T10:17:31Z</time>
      </trkpt>
      <trkpt lat="42.21626" lon="0.87287">
        <ele>798.4</ele>
        <time>2023-07-23T10:17:32Z</time>
      </trkpt>
      <trkpt lat="42.21623" lon="0.8729">
        <ele>797.8</ele>
        <time>2023-07-23T10:17:33Z</time>
      </trkpt>
      <trkpt lat="42.2162" lon="0.87291">
        <ele>797.6</ele>
        <time>2023-07-23T10:17:34Z</time>
      </trkpt>
      <trkpt lat="42.21617" lon="0.87293">
        <ele>796.8</ele>
        <time>2023-07-23T10:17:35Z</time>
      </trkpt>
      <trkpt lat="42.21614" lon="0.87295">
        <ele>796.6</ele>
        <time>2023-07-23T10:17:36Z</time>
      </trkpt>
      <trkpt lat="42.21611" lon="0.87298">
        <ele>795.4</ele>
        <time>2023-07-23T10:17:37Z</time>
      </trkpt>
      <trkpt lat="42.21608" lon="0.87301">
        <ele>794.4</ele>
        <time>2023-07-23T10:17:38Z</time>
      </trkpt>
      <trkpt lat="42.21606" lon="0.87303">
        <ele>794.2</ele>
        <time>2023-07-23T10:17:39Z</time>
      </trkpt>
      <trkpt lat="42.21603" lon="0.87304">
        <ele>793.2</ele>
        <time>2023-07-23T10:17:40Z</time>
      </trkpt>
      <trkpt lat="42.21601" lon="0.87306">
        <ele>793</ele>
        <time>2023-07-23T10:17:41Z</time>
      </trkpt>
      <trkpt lat="42.21599" lon="0.87307">
        <ele>792</ele>
        <time>2023-07-23T10:17:42Z</time>
      </trkpt>
      <trkpt lat="42.21596" lon="0.87309">
        <ele>791.2</ele>
        <time>2023-07-23T10:17:43Z</time>
      </trkpt>
      <trkpt lat="42.21594" lon="0.8731">
        <ele>790.8</ele>
        <time>2023-07-23T10:17:44Z</time>
      </trkpt>
      <trkpt lat="42.21591" lon="0.87312">
        <ele>790</ele>
        <time>2023-07-23T10:17:45Z</time>
      </trkpt>
      <trkpt lat="42.21589" lon="0.87313">
        <ele>789.8</ele>
        <time>2023-07-23T10:17:46Z</time>
      </trkpt>
      <trkpt lat="42.21586" lon="0.87314">
        <ele>789.4</ele>
        <time>2023-07-23T10:17:47Z</time>
      </trkpt>
      <trkpt lat="42.21583" lon="0.87315">
        <ele>789.2</ele>
        <time>2023-07-23T10:17:48Z</time>
      </trkpt>
      <trkpt lat="42.2158" lon="0.87315">
        <ele>788.4</ele>
        <time>2023-07-23T10:17:49Z</time>
      </trkpt>
      <trkpt lat="42.21578" lon="0.87317">
        <ele>787</ele>
        <time>2023-07-23T10:17:50Z</time>
      </trkpt>
      <trkpt lat="42.21576" lon="0.87318">
        <ele>786.4</ele>
        <time>2023-07-23T10:17:51Z</time>
      </trkpt>
      <trkpt lat="42.21574" lon="0.8732">
        <ele>785.8</ele>
        <time>2023-07-23T10:17:52Z</time>
      </trkpt>
      <trkpt lat="42.21571" lon="0.87322">
        <ele>785.6</ele>
        <time>2023-07-23T10:17:53Z</time>
      </trkpt>
      <trkpt lat="42.21568" lon="0.87324">
        <ele>785</ele>
        <time>2023-07-23T10:17:54Z</time>
      </trkpt>
      <trkpt lat="42.21564" lon="0.87326">
        <ele>784.6</ele>
        <time>2023-07-23T10:17:55Z</time>
      </trkpt>
      <trkpt lat="42.21561" lon="0.87329">
        <ele>784.4</ele>
        <time>2023-07-23T10:17:56Z</time>
      </trkpt>
      <trkpt lat="42.21557" lon="0.87331">
        <ele>784</ele>
        <time>2023-07-23T10:17:57Z</time>
      </trkpt>
      <trkpt lat="42.21554" lon="0.87333">
        <ele>783.8</ele>
        <time>2023-07-23T10:17:58Z</time>
      </trkpt>
      <trkpt lat="42.21552" lon="0.87333">
        <ele>782.8</ele>
        <time>2023-07-23T10:17:59Z</time>
      </trkpt>
      <trkpt lat="42.21549" lon="0.87334">
        <ele>781.8</ele>
        <time>2023-07-23T10:18:00Z</time>
      </trkpt>
      <trkpt lat="42.21546" lon="0.87333">
        <ele>781.4</ele>
        <time>2023-07-23T10:18:01Z</time>
      </trkpt>
      <trkpt lat="42.21543" lon="0.87333">
        <ele>781</ele>
        <time>2023-07-23T10:18:02Z</time>
      </trkpt>
      <trkpt lat="42.21541" lon="0.87333">
        <ele>780.8</ele>
        <time>2023-07-23T10:18:03Z</time>
      </trkpt>
      <trkpt lat="42.21537" lon="0.87335">
        <ele>780.2</ele>
        <time>2023-07-23T10:18:04Z</time>
      </trkpt>
      <trkpt lat="42.21534" lon="0.87337">
        <ele>779.4</ele>
        <time>2023-07-23T10:18:05Z</time>
      </trkpt>
      <trkpt lat="42.21531" lon="0.87339">
        <ele>778.8</ele>
        <time>2023-07-23T10:18:06Z</time>
      </trkpt>
      <trkpt lat="42.21527" lon="0.87341">
        <ele>777.8</ele>
        <time>2023-07-23T10:18:07Z</time>
      </trkpt>
      <trkpt lat="42.21524" lon="0.87344">
        <ele>777.4</ele>
        <time>2023-07-23T10:18:08Z</time>
      </trkpt>
      <trkpt lat="42.21522" lon="0.87346">
        <ele>776.4</ele>
        <time>2023-07-23T10:18:09Z</time>
      </trkpt>
      <trkpt lat="42.21519" lon="0.87347">
        <ele>776</ele>
        <time>2023-07-23T10:18:10Z</time>
      </trkpt>
      <trkpt lat="42.21516" lon="0.87349">
        <ele>775.2</ele>
        <time>2023-07-23T10:18:11Z</time>
      </trkpt>
      <trkpt lat="42.21513" lon="0.8735">
        <ele>774.4</ele>
        <time>2023-07-23T10:18:12Z</time>
      </trkpt>
      <trkpt lat="42.2151" lon="0.87352">
        <ele>774</ele>
        <time>2023-07-23T10:18:13Z</time>
      </trkpt>
      <trkpt lat="42.21507" lon="0.87354">
        <ele>773</ele>
        <time>2023-07-23T10:18:14Z</time>
      </trkpt>
      <trkpt lat="42.21504" lon="0.87358">
        <ele>772.4</ele>
        <time>2023-07-23T10:18:15Z</time>
      </trkpt>
      <trkpt lat="42.21502" lon="0.87359">
        <ele>771.8</ele>
        <time>2023-07-23T10:18:16Z</time>
      </trkpt>
      <trkpt lat="42.21499" lon="0.87361">
        <ele>770.8</ele>
        <time>2023-07-23T10:18:17Z</time>
      </trkpt>
      <trkpt lat="42.21497" lon="0.87363">
        <ele>770</ele>
        <time>2023-07-23T10:18:18Z</time>
      </trkpt>
      <trkpt lat="42.21495" lon="0.87364">
        <ele>768.6</ele>
        <time>2023-07-23T10:18:19Z</time>
      </trkpt>
      <trkpt lat="42.21493" lon="0.87365">
        <ele>767.8</ele>
        <time>2023-07-23T10:18:20Z</time>
      </trkpt>
      <trkpt lat="42.2149" lon="0.87366">
        <ele>767</ele>
        <time>2023-07-23T10:18:21Z</time>
      </trkpt>
      <trkpt lat="42.21488" lon="0.87368">
        <ele>766.4</ele>
        <time>2023-07-23T10:18:22Z</time>
      </trkpt>
      <trkpt lat="42.21485" lon="0.87369">
        <ele>766.2</ele>
        <time>2023-07-23T10:18:23Z</time>
      </trkpt>
      <trkpt lat="42.21483" lon="0.8737">
        <ele>765.6</ele>
        <time>2023-07-23T10:18:24Z</time>
      </trkpt>
      <trkpt lat="42.2148" lon="0.87371">
        <ele>765.4</ele>
        <time>2023-07-23T10:18:25Z</time>
      </trkpt>
      <trkpt lat="42.21478" lon="0.87372">
        <ele>764.4</ele>
        <time>2023-07-23T10:18:26Z</time>
      </trkpt>
      <trkpt lat="42.21475" lon="0.87374">
        <ele>764.2</ele>
        <time>2023-07-23T10:18:27Z</time>
      </trkpt>
      <trkpt lat="42.21471" lon="0.87376">
        <ele>762.8</ele>
        <time>2023-07-23T10:18:28Z</time>
      </trkpt>
      <trkpt lat="42.21468" lon="0.87379">
        <ele>762</ele>
        <time>2023-07-23T10:18:29Z</time>
      </trkpt>
      <trkpt lat="42.21465" lon="0.87382">
        <ele>761.8</ele>
        <time>2023-07-23T10:18:30Z</time>
      </trkpt>
      <trkpt lat="42.21463" lon="0.87385">
        <ele>761.2</ele>
        <time>2023-07-23T10:18:31Z</time>
      </trkpt>
      <trkpt lat="42.2146" lon="0.87388">
        <ele>761.2</ele>
        <time>2023-07-23T10:18:32Z</time>
      </trkpt>
      <trkpt lat="42.21458" lon="0.87391">
        <ele>760.4</ele>
        <time>2023-07-23T10:18:33Z</time>
      </trkpt>
      <trkpt lat="42.21456" lon="0.87394">
        <ele>759.8</ele>
        <time>2023-07-23T10:18:34Z</time>
      </trkpt>
      <trkpt lat="42.21453" lon="0.87398">
        <ele>759.4</ele>
        <time>2023-07-23T10:18:35Z</time>
      </trkpt>
      <trkpt lat="42.21451" lon="0.87402">
        <ele>758.4</ele>
        <time>2023-07-23T10:18:36Z</time>
      </trkpt>
      <trkpt lat="42.2145" lon="0.87406">
        <ele>758</ele>
        <time>2023-07-23T10:18:37Z</time>
      </trkpt>
      <trkpt lat="42.21449" lon="0.87409">
        <ele>757.6</ele>
        <time>2023-07-23T10:18:38Z</time>
      </trkpt>
      <trkpt lat="42.21449" lon="0.87411">
        <ele>757.4</ele>
        <time>2023-07-23T10:18:39Z</time>
      </trkpt>
      <trkpt lat="42.2145" lon="0.87413">
        <ele>756.8</ele>
        <time>2023-07-23T10:18:40Z</time>
      </trkpt>
      <trkpt lat="42.21452" lon="0.87414">
        <ele>755.8</ele>
        <time>2023-07-23T10:18:41Z</time>
      </trkpt>
      <trkpt lat="42.21454" lon="0.87414">
        <ele>755.4</ele>
        <time>2023-07-23T10:18:42Z</time>
      </trkpt>
      <trkpt lat="42.21457" lon="0.87414">
        <ele>755</ele>
        <time>2023-07-23T10:18:43Z</time>
      </trkpt>
      <trkpt lat="42.2146" lon="0.87414">
        <ele>754.8</ele>
        <time>2023-07-23T10:18:44Z</time>
      </trkpt>
      <trkpt lat="42.21463" lon="0.87416">
        <ele>754.4</ele>
        <time>2023-07-23T10:18:45Z</time>
      </trkpt>
      <trkpt lat="42.21467" lon="0.87418">
        <ele>754</ele>
        <time>2023-07-23T10:18:46Z</time>
      </trkpt>
      <trkpt lat="42.2147" lon="0.8742">
        <ele>753.8</ele>
        <time>2023-07-23T10:18:47Z</time>
      </trkpt>
      <trkpt lat="42.21473" lon="0.87423">
        <ele>753.2</ele>
        <time>2023-07-23T10:18:48Z</time>
      </trkpt>
      <trkpt lat="42.21476" lon="0.87425">
        <ele>753</ele>
        <time>2023-07-23T10:18:49Z</time>
      </trkpt>
      <trkpt lat="42.21478" lon="0.87429">
        <ele>752.4</ele>
        <time>2023-07-23T10:18:50Z</time>
      </trkpt>
      <trkpt lat="42.2148" lon="0.87432">
        <ele>752.4</ele>
        <time>2023-07-23T10:18:51Z</time>
      </trkpt>
      <trkpt lat="42.21481" lon="0.87437">
        <ele>752</ele>
        <time>2023-07-23T10:18:52Z</time>
      </trkpt>
      <trkpt lat="42.21482" lon="0.8744">
        <ele>751.4</ele>
        <time>2023-07-23T10:18:53Z</time>
      </trkpt>
      <trkpt lat="42.21482" lon="0.87445">
        <ele>751</ele>
        <time>2023-07-23T10:18:54Z</time>
      </trkpt>
      <trkpt lat="42.21483" lon="0.87448">
        <ele>750.4</ele>
        <time>2023-07-23T10:18:55Z</time>
      </trkpt>
      <trkpt lat="42.21484" lon="0.87451">
        <ele>750</ele>
        <time>2023-07-23T10:18:56Z</time>
      </trkpt>
      <trkpt lat="42.21485" lon="0.87454">
        <ele>749.8</ele>
        <time>2023-07-23T10:18:57Z</time>
      </trkpt>
      <trkpt lat="42.21486" lon="0.87456">
        <ele>749.4</ele>
        <time>2023-07-23T10:18:58Z</time>
      </trkpt>
      <trkpt lat="42.21486" lon="0.87457">
        <ele>749.2</ele>
        <time>2023-07-23T10:18:59Z</time>
      </trkpt>
      <trkpt lat="42.21486" lon="0.87457">
        <ele>749</ele>
        <time>2023-07-23T10:19:00Z</time>
      </trkpt>
      <trkpt lat="42.21474" lon="0.87444">
        <ele>745.2</ele>
        <time>2023-07-23T10:19:20Z</time>
      </trkpt>
      <trkpt lat="42.21472" lon="0.87443">
        <ele>745.2</ele>
        <time>2023-07-23T10:19:21Z</time>
      </trkpt>
      <trkpt lat="42.21469" lon="0.87442">
        <ele>745.2</ele>
        <time>2023-07-23T10:19:22Z</time>
      </trkpt>
      <trkpt lat="42.21467" lon="0.87441">
        <ele>745</ele>
        <time>2023-07-23T10:19:23Z</time>
      </trkpt>
      <trkpt lat="42.21465" lon="0.8744">
        <ele>745</ele>
        <time>2023-07-23T10:19:24Z</time>
      </trkpt>
      <trkpt lat="42.21462" lon="0.8744">
        <ele>745</ele>
        <time>2023-07-23T10:19:25Z</time>
      </trkpt>
      <trkpt lat="42.2146" lon="0.87441">
        <ele>745</ele>
        <time>2023-07-23T10:19:26Z</time>
      </trkpt>
      <trkpt lat="42.21458" lon="0.87442">
        <ele>745</ele>
        <time>2023-07-23T10:19:27Z</time>
      </trkpt>
      <trkpt lat="42.21456" lon="0.87443">
        <ele>745</ele>
        <time>2023-07-23T10:19:28Z</time>
      </trkpt>
      <trkpt lat="42.21454" lon="0.87444">
        <ele>745</ele>
        <time>2023-07-23T10:19:29Z</time>
      </trkpt>
      <trkpt lat="42.21452" lon="0.87445">
        <ele>745</ele>
        <time>2023-07-23T10:19:30Z</time>
      </trkpt>
      <trkpt lat="42.2145" lon="0.87446">
        <ele>745</ele>
        <time>2023-07-23T10:19:31Z</time>
      </trkpt>
      <trkpt lat="42.21448" lon="0.87447">
        <ele>745</ele>
        <time>2023-07-23T10:19:32Z</time>
      </trkpt>
      <trkpt lat="42.21445" lon="0.87448">
        <ele>745</ele>
        <time>2023-07-23T10:19:33Z</time>
      </trkpt>
      <trkpt lat="42.21442" lon="0.87449">
        <ele>745.2</ele>
        <time>2023-07-23T10:19:34Z</time>
      </trkpt>
      <trkpt lat="42.2144" lon="0.8745">
        <ele>745.4</ele>
        <time>2023-07-23T10:19:35Z</time>
      </trkpt>
      <trkpt lat="42.21438" lon="0.87453">
        <ele>745.4</ele>
        <time>2023-07-23T10:19:36Z</time>
      </trkpt>
      <trkpt lat="42.21435" lon="0.87455">
        <ele>745.2</ele>
        <time>2023-07-23T10:19:37Z</time>
      </trkpt>
      <trkpt lat="42.21433" lon="0.87457">
        <ele>745.4</ele>
        <time>2023-07-23T10:19:38Z</time>
      </trkpt>
      <trkpt lat="42.2143" lon="0.8746">
        <ele>745.4</ele>
        <time>2023-07-23T10:19:39Z</time>
      </trkpt>
      <trkpt lat="42.21428" lon="0.87463">
        <ele>745.6</ele>
        <time>2023-07-23T10:19:40Z</time>
      </trkpt>
      <trkpt lat="42.21426" lon="0.87466">
        <ele>745.6</ele>
        <time>2023-07-23T10:19:41Z</time>
      </trkpt>
      <trkpt lat="42.21423" lon="0.87468">
        <ele>746</ele>
        <time>2023-07-23T10:19:42Z</time>
      </trkpt>
      <trkpt lat="42.21421" lon="0.8747">
        <ele>746</ele>
        <time>2023-07-23T10:19:43Z</time>
      </trkpt>
      <trkpt lat="42.21418" lon="0.87472">
        <ele>746</ele>
        <time>2023-07-23T10:19:44Z</time>
      </trkpt>
      <trkpt lat="42.21417" lon="0.87474">
        <ele>746</ele>
        <time>2023-07-23T10:19:45Z</time>
      </trkpt>
      <trkpt lat="42.21415" lon="0.87476">
        <ele>746</ele>
        <time>2023-07-23T10:19:46Z</time>
      </trkpt>
      <trkpt lat="42.21414" lon="0.87478">
        <ele>746.2</ele>
        <time>2023-07-23T10:19:47Z</time>
      </trkpt>
      <trkpt lat="42.21412" lon="0.87479">
        <ele>746.2</ele>
        <time>2023-07-23T10:19:48Z</time>
      </trkpt>
      <trkpt lat="42.2141" lon="0.87481">
        <ele>746.2</ele>
        <time>2023-07-23T10:19:49Z</time>
      </trkpt>
      <trkpt lat="42.21408" lon="0.87483">
        <ele>746.2</ele>
        <time>2023-07-23T10:19:50Z</time>
      </trkpt>
      <trkpt lat="42.21407" lon="0.87486">
        <ele>746.4</ele>
        <time>2023-07-23T10:19:51Z</time>
      </trkpt>
      <trkpt lat="42.21404" lon="0.87488">
        <ele>746.4</ele>
        <time>2023-07-23T10:19:52Z</time>
      </trkpt>
      <trkpt lat="42.21401" lon="0.8749">
        <ele>746.6</ele>
        <time>2023-07-23T10:19:53Z</time>
      </trkpt>
      <trkpt lat="42.21398" lon="0.87491">
        <ele>746.6</ele>
        <time>2023-07-23T10:19:54Z</time>
      </trkpt>
      <trkpt lat="42.21396" lon="0.87492">
        <ele>746.6</ele>
        <time>2023-07-23T10:19:55Z</time>
      </trkpt>
      <trkpt lat="42.21393" lon="0.87495">
        <ele>746.6</ele>
        <time>2023-07-23T10:19:56Z</time>
      </trkpt>
      <trkpt lat="42.21391" lon="0.87498">
        <ele>746.6</ele>
        <time>2023-07-23T10:19:57Z</time>
      </trkpt>
      <trkpt lat="42.21388" lon="0.875">
        <ele>746.4</ele>
        <time>2023-07-23T10:19:58Z</time>
      </trkpt>
      <trkpt lat="42.21385" lon="0.87502">
        <ele>745.6</ele>
        <time>2023-07-23T10:19:59Z</time>
      </trkpt>
      <trkpt lat="42.21383" lon="0.87501">
        <ele>745.4</ele>
        <time>2023-07-23T10:20:00Z</time>
      </trkpt>
      <trkpt lat="42.2138" lon="0.875">
        <ele>745</ele>
        <time>2023-07-23T10:20:01Z</time>
      </trkpt>
      <trkpt lat="42.21378" lon="0.87501">
        <ele>744.4</ele>
        <time>2023-07-23T10:20:02Z</time>
      </trkpt>
      <trkpt lat="42.21376" lon="0.87502">
        <ele>744.2</ele>
        <time>2023-07-23T10:20:03Z</time>
      </trkpt>
      <trkpt lat="42.21373" lon="0.87503">
        <ele>743.6</ele>
        <time>2023-07-23T10:20:04Z</time>
      </trkpt>
      <trkpt lat="42.21371" lon="0.87504">
        <ele>743.4</ele>
        <time>2023-07-23T10:20:05Z</time>
      </trkpt>
      <trkpt lat="42.21368" lon="0.87505">
        <ele>742.6</ele>
        <time>2023-07-23T10:20:06Z</time>
      </trkpt>
      <trkpt lat="42.21365" lon="0.87507">
        <ele>741.8</ele>
        <time>2023-07-23T10:20:07Z</time>
      </trkpt>
      <trkpt lat="42.21362" lon="0.87509">
        <ele>741.8</ele>
        <time>2023-07-23T10:20:08Z</time>
      </trkpt>
      <trkpt lat="42.21359" lon="0.8751">
        <ele>740.6</ele>
        <time>2023-07-23T10:20:09Z</time>
      </trkpt>
      <trkpt lat="42.21356" lon="0.87511">
        <ele>740</ele>
        <time>2023-07-23T10:20:10Z</time>
      </trkpt>
      <trkpt lat="42.21353" lon="0.87512">
        <ele>739</ele>
        <time>2023-07-23T10:20:11Z</time>
      </trkpt>
      <trkpt lat="42.21351" lon="0.87514">
        <ele>737.8</ele>
        <time>2023-07-23T10:20:12Z</time>
      </trkpt>
      <trkpt lat="42.21348" lon="0.87517">
        <ele>737.2</ele>
        <time>2023-07-23T10:20:13Z</time>
      </trkpt>
      <trkpt lat="42.21345" lon="0.87519">
        <ele>736.4</ele>
        <time>2023-07-23T10:20:14Z</time>
      </trkpt>
      <trkpt lat="42.21342" lon="0.87521">
        <ele>736.2</ele>
        <time>2023-07-23T10:20:15Z</time>
      </trkpt>
      <trkpt lat="42.21338" lon="0.87523">
        <ele>735.4</ele>
        <time>2023-07-23T10:20:16Z</time>
      </trkpt>
      <trkpt lat="42.21335" lon="0.87525">
        <ele>735.2</ele>
        <time>2023-07-23T10:20:17Z</time>
      </trkpt>
      <trkpt lat="42.21331" lon="0.87526">
        <ele>734</ele>
        <time>2023-07-23T10:20:18Z</time>
      </trkpt>
      <trkpt lat="42.21327" lon="0.87528">
        <ele>733.4</ele>
        <time>2023-07-23T10:20:19Z</time>
      </trkpt>
      <trkpt lat="42.21323" lon="0.87529">
        <ele>733.2</ele>
        <time>2023-07-23T10:20:20Z</time>
      </trkpt>
      <trkpt lat="42.21319" lon="0.87531">
        <ele>732.6</ele>
        <time>2023-07-23T10:20:21Z</time>
      </trkpt>
      <trkpt lat="42.21315" lon="0.87532">
        <ele>732.4</ele>
        <time>2023-07-23T10:20:22Z</time>
      </trkpt>
      <trkpt lat="42.21311" lon="0.87533">
        <ele>731.4</ele>
        <time>2023-07-23T10:20:23Z</time>
      </trkpt>
      <trkpt lat="42.21308" lon="0.87533">
        <ele>730.4</ele>
        <time>2023-07-23T10:20:24Z</time>
      </trkpt>
      <trkpt lat="42.21305" lon="0.87533">
        <ele>730.2</ele>
        <time>2023-07-23T10:20:25Z</time>
      </trkpt>
      <trkpt lat="42.21302" lon="0.87534">
        <ele>729</ele>
        <time>2023-07-23T10:20:26Z</time>
      </trkpt>
      <trkpt lat="42.21299" lon="0.87534">
        <ele>728.4</ele>
        <time>2023-07-23T10:20:27Z</time>
      </trkpt>
      <trkpt lat="42.21296" lon="0.87533">
        <ele>727.8</ele>
        <time>2023-07-23T10:20:28Z</time>
      </trkpt>
      <trkpt lat="42.21292" lon="0.87532">
        <ele>727.2</ele>
        <time>2023-07-23T10:20:29Z</time>
      </trkpt>
      <trkpt lat="42.21288" lon="0.87532">
        <ele>726.6</ele>
        <time>2023-07-23T10:20:30Z</time>
      </trkpt>
      <trkpt lat="42.21285" lon="0.87533">
        <ele>725.2</ele>
        <time>2023-07-23T10:20:31Z</time>
      </trkpt>
      <trkpt lat="42.21281" lon="0.87534">
        <ele>724.8</ele>
        <time>2023-07-23T10:20:32Z</time>
      </trkpt>
      <trkpt lat="42.21277" lon="0.87534">
        <ele>723.6</ele>
        <time>2023-07-23T10:20:33Z</time>
      </trkpt>
      <trkpt lat="42.21273" lon="0.87534">
        <ele>722.8</ele>
        <time>2023-07-23T10:20:34Z</time>
      </trkpt>
      <trkpt lat="42.2127" lon="0.87534">
        <ele>722.4</ele>
        <time>2023-07-23T10:20:35Z</time>
      </trkpt>
      <trkpt lat="42.21266" lon="0.87534">
        <ele>721.6</ele>
        <time>2023-07-23T10:20:36Z</time>
      </trkpt>
      <trkpt lat="42.21262" lon="0.87535">
        <ele>720.8</ele>
        <time>2023-07-23T10:20:37Z</time>
      </trkpt>
      <trkpt lat="42.21259" lon="0.87536">
        <ele>720.2</ele>
        <time>2023-07-23T10:20:38Z</time>
      </trkpt>
      <trkpt lat="42.21256" lon="0.87539">
        <ele>719.8</ele>
        <time>2023-07-23T10:20:39Z</time>
      </trkpt>
      <trkpt lat="42.21254" lon="0.8754">
        <ele>719.6</ele>
        <time>2023-07-23T10:20:40Z</time>
      </trkpt>
      <trkpt lat="42.21252" lon="0.87541">
        <ele>719.4</ele>
        <time>2023-07-23T10:20:41Z</time>
      </trkpt>
      <trkpt lat="42.2125" lon="0.87543">
        <ele>719.4</ele>
        <time>2023-07-23T10:20:42Z</time>
      </trkpt>
      <trkpt lat="42.21247" lon="0.87543">
        <ele>718.8</ele>
        <time>2023-07-23T10:20:43Z</time>
      </trkpt>
      <trkpt lat="42.21244" lon="0.87543">
        <ele>718.4</ele>
        <time>2023-07-23T10:20:44Z</time>
      </trkpt>
      <trkpt lat="42.21241" lon="0.87543">
        <ele>717.2</ele>
        <time>2023-07-23T10:20:45Z</time>
      </trkpt>
      <trkpt lat="42.21238" lon="0.87543">
        <ele>715.6</ele>
        <time>2023-07-23T10:20:46Z</time>
      </trkpt>
      <trkpt lat="42.21235" lon="0.87543">
        <ele>715.2</ele>
        <time>2023-07-23T10:20:47Z</time>
      </trkpt>
      <trkpt lat="42.2123" lon="0.87542">
        <ele>714</ele>
        <time>2023-07-23T10:20:48Z</time>
      </trkpt>
      <trkpt lat="42.21226" lon="0.87543">
        <ele>713.6</ele>
        <time>2023-07-23T10:20:49Z</time>
      </trkpt>
      <trkpt lat="42.21222" lon="0.87544">
        <ele>712.2</ele>
        <time>2023-07-23T10:20:50Z</time>
      </trkpt>
      <trkpt lat="42.21219" lon="0.87545">
        <ele>711.4</ele>
        <time>2023-07-23T10:20:51Z</time>
      </trkpt>
      <trkpt lat="42.21216" lon="0.87545">
        <ele>711</ele>
        <time>2023-07-23T10:20:52Z</time>
      </trkpt>
      <trkpt lat="42.21213" lon="0.87546">
        <ele>710.4</ele>
        <time>2023-07-23T10:20:53Z</time>
      </trkpt>
      <trkpt lat="42.2121" lon="0.87546">
        <ele>710</ele>
        <time>2023-07-23T10:20:54Z</time>
      </trkpt>
      <trkpt lat="42.21207" lon="0.87547">
        <ele>709</ele>
        <time>2023-07-23T10:20:55Z</time>
      </trkpt>
      <trkpt lat="42.21204" lon="0.87548">
        <ele>708.4</ele>
        <time>2023-07-23T10:20:56Z</time>
      </trkpt>
      <trkpt lat="42.21201" lon="0.87548">
        <ele>708.2</ele>
        <time>2023-07-23T10:20:57Z</time>
      </trkpt>
      <trkpt lat="42.21198" lon="0.87549">
        <ele>707</ele>
        <time>2023-07-23T10:20:58Z</time>
      </trkpt>
      <trkpt lat="42.21196" lon="0.87549">
        <ele>706.6</ele>
        <time>2023-07-23T10:20:59Z</time>
      </trkpt>
      <trkpt lat="42.21194" lon="0.87549">
        <ele>706</ele>
        <time>2023-07-23T10:21:00Z</time>
      </trkpt>
      <trkpt lat="42.21191" lon="0.87549">
        <ele>705.6</ele>
        <time>2023-07-23T10:21:01Z</time>
      </trkpt>
      <trkpt lat="42.21188" lon="0.87549">
        <ele>704.8</ele>
        <time>2023-07-23T10:21:02Z</time>
      </trkpt>
      <trkpt lat="42.21185" lon="0.87549">
        <ele>704.2</ele>
        <time>2023-07-23T10:21:03Z</time>
      </trkpt>
      <trkpt lat="42.21182" lon="0.8755">
        <ele>703.8</ele>
        <time>2023-07-23T10:21:04Z</time>
      </trkpt>
      <trkpt lat="42.2118" lon="0.87551">
        <ele>702.8</ele>
        <time>2023-07-23T10:21:05Z</time>
      </trkpt>
      <trkpt lat="42.21178" lon="0.87552">
        <ele>702.4</ele>
        <time>2023-07-23T10:21:06Z</time>
      </trkpt>
      <trkpt lat="42.21176" lon="0.87553">
        <ele>701.6</ele>
        <time>2023-07-23T10:21:07Z</time>
      </trkpt>
      <trkpt lat="42.21174" lon="0.87554">
        <ele>700.2</ele>
        <time>2023-07-23T10:21:08Z</time>
      </trkpt>
      <trkpt lat="42.21172" lon="0.87554">
        <ele>700</ele>
        <time>2023-07-23T10:21:09Z</time>
      </trkpt>
      <trkpt lat="42.2117" lon="0.87555">
        <ele>699.2</ele>
        <time>2023-07-23T10:21:10Z</time>
      </trkpt>
      <trkpt lat="42.21168" lon="0.87556">
        <ele>698.8</ele>
        <time>2023-07-23T10:21:11Z</time>
      </trkpt>
      <trkpt lat="42.21166" lon="0.87557">
        <ele>698.2</ele>
        <time>2023-07-23T10:21:12Z</time>
      </trkpt>
      <trkpt lat="42.21164" lon="0.87559">
        <ele>697</ele>
        <time>2023-07-23T10:21:13Z</time>
      </trkpt>
      <trkpt lat="42.21162" lon="0.87561">
        <ele>696.6</ele>
        <time>2023-07-23T10:21:14Z</time>
      </trkpt>
      <trkpt lat="42.21159" lon="0.87562">
        <ele>696.2</ele>
        <time>2023-07-23T10:21:15Z</time>
      </trkpt>
      <trkpt lat="42.21156" lon="0.87564">
        <ele>696</ele>
        <time>2023-07-23T10:21:16Z</time>
      </trkpt>
      <trkpt lat="42.21153" lon="0.87565">
        <ele>695.4</ele>
        <time>2023-07-23T10:21:17Z</time>
      </trkpt>
      <trkpt lat="42.21149" lon="0.87567">
        <ele>694.8</ele>
        <time>2023-07-23T10:21:18Z</time>
      </trkpt>
      <trkpt lat="42.21145" lon="0.87568">
        <ele>694.6</ele>
        <time>2023-07-23T10:21:19Z</time>
      </trkpt>
      <trkpt lat="42.21141" lon="0.87569">
        <ele>692.6</ele>
        <time>2023-07-23T10:21:20Z</time>
      </trkpt>
      <trkpt lat="42.21137" lon="0.87572">
        <ele>692</ele>
        <time>2023-07-23T10:21:21Z</time>
      </trkpt>
      <trkpt lat="42.21133" lon="0.87574">
        <ele>691</ele>
        <time>2023-07-23T10:21:22Z</time>
      </trkpt>
      <trkpt lat="42.21129" lon="0.87576">
        <ele>690.4</ele>
        <time>2023-07-23T10:21:23Z</time>
      </trkpt>
      <trkpt lat="42.21126" lon="0.87578">
        <ele>689.6</ele>
        <time>2023-07-23T10:21:24Z</time>
      </trkpt>
      <trkpt lat="42.21123" lon="0.8758">
        <ele>688</ele>
        <time>2023-07-23T10:21:25Z</time>
      </trkpt>
      <trkpt lat="42.2112" lon="0.87582">
        <ele>687.6</ele>
        <time>2023-07-23T10:21:26Z</time>
      </trkpt>
      <trkpt lat="42.21117" lon="0.87585">
        <ele>686.6</ele>
        <time>2023-07-23T10:21:27Z</time>
      </trkpt>
      <trkpt lat="42.21114" lon="0.87589">
        <ele>686.4</ele>
        <time>2023-07-23T10:21:28Z</time>
      </trkpt>
      <trkpt lat="42.21111" lon="0.87592">
        <ele>686</ele>
        <time>2023-07-23T10:21:29Z</time>
      </trkpt>
      <trkpt lat="42.21108" lon="0.87597">
        <ele>685.2</ele>
        <time>2023-07-23T10:21:30Z</time>
      </trkpt>
      <trkpt lat="42.21104" lon="0.87602">
        <ele>684.8</ele>
        <time>2023-07-23T10:21:31Z</time>
      </trkpt>
      <trkpt lat="42.21102" lon="0.87605">
        <ele>684.2</ele>
        <time>2023-07-23T10:21:32Z</time>
      </trkpt>
      <trkpt lat="42.21099" lon="0.87607">
        <ele>684</ele>
        <time>2023-07-23T10:21:33Z</time>
      </trkpt>
      <trkpt lat="42.21096" lon="0.87608">
        <ele>683</ele>
        <time>2023-07-23T10:21:34Z</time>
      </trkpt>
      <trkpt lat="42.21093" lon="0.87612">
        <ele>682</ele>
        <time>2023-07-23T10:21:35Z</time>
      </trkpt>
      <trkpt lat="42.2109" lon="0.87614">
        <ele>681.6</ele>
        <time>2023-07-23T10:21:36Z</time>
      </trkpt>
      <trkpt lat="42.21087" lon="0.87616">
        <ele>681.2</ele>
        <time>2023-07-23T10:21:37Z</time>
      </trkpt>
      <trkpt lat="42.21085" lon="0.87617">
        <ele>681.2</ele>
        <time>2023-07-23T10:21:38Z</time>
      </trkpt>
      <trkpt lat="42.21082" lon="0.87619">
        <ele>680.8</ele>
        <time>2023-07-23T10:21:39Z</time>
      </trkpt>
      <trkpt lat="42.21079" lon="0.87621">
        <ele>680.4</ele>
        <time>2023-07-23T10:21:40Z</time>
      </trkpt>
      <trkpt lat="42.21076" lon="0.87623">
        <ele>680.4</ele>
        <time>2023-07-23T10:21:41Z</time>
      </trkpt>
      <trkpt lat="42.21072" lon="0.87626">
        <ele>680.2</ele>
        <time>2023-07-23T10:21:42Z</time>
      </trkpt>
      <trkpt lat="42.21069" lon="0.8763">
        <ele>680.2</ele>
        <time>2023-07-23T10:21:43Z</time>
      </trkpt>
      <trkpt lat="42.21067" lon="0.87634">
        <ele>680</ele>
        <time>2023-07-23T10:21:44Z</time>
      </trkpt>
      <trkpt lat="42.21065" lon="0.87639">
        <ele>680</ele>
        <time>2023-07-23T10:21:45Z</time>
      </trkpt>
      <trkpt lat="42.21063" lon="0.87643">
        <ele>679</ele>
        <time>2023-07-23T10:21:46Z</time>
      </trkpt>
      <trkpt lat="42.21061" lon="0.87647">
        <ele>678</ele>
        <time>2023-07-23T10:21:47Z</time>
      </trkpt>
      <trkpt lat="42.21059" lon="0.87649">
        <ele>677.6</ele>
        <time>2023-07-23T10:21:48Z</time>
      </trkpt>
      <trkpt lat="42.21055" lon="0.8765">
        <ele>677</ele>
        <time>2023-07-23T10:21:49Z</time>
      </trkpt>
      <trkpt lat="42.21052" lon="0.87651">
        <ele>676.6</ele>
        <time>2023-07-23T10:21:50Z</time>
      </trkpt>
      <trkpt lat="42.21048" lon="0.87652">
        <ele>676.4</ele>
        <time>2023-07-23T10:21:51Z</time>
      </trkpt>
      <trkpt lat="42.21046" lon="0.87655">
        <ele>676.2</ele>
        <time>2023-07-23T10:21:52Z</time>
      </trkpt>
      <trkpt lat="42.21042" lon="0.87658">
        <ele>676</ele>
        <time>2023-07-23T10:21:53Z</time>
      </trkpt>
      <trkpt lat="42.21037" lon="0.87662">
        <ele>675.8</ele>
        <time>2023-07-23T10:21:54Z</time>
      </trkpt>
      <trkpt lat="42.21034" lon="0.87665">
        <ele>675.4</ele>
        <time>2023-07-23T10:21:55Z</time>
      </trkpt>
      <trkpt lat="42.2103" lon="0.87668">
        <ele>674.8</ele>
        <time>2023-07-23T10:21:56Z</time>
      </trkpt>
      <trkpt lat="42.21026" lon="0.87671">
        <ele>674.4</ele>
        <time>2023-07-23T10:21:57Z</time>
      </trkpt>
      <trkpt lat="42.21021" lon="0.87675">
        <ele>674.2</ele>
        <time>2023-07-23T10:21:58Z</time>
      </trkpt>
      <trkpt lat="42.21017" lon="0.8768">
        <ele>673.6</ele>
        <time>2023-07-23T10:21:59Z</time>
      </trkpt>
      <trkpt lat="42.21014" lon="0.87686">
        <ele>673.4</ele>
        <time>2023-07-23T10:22:00Z</time>
      </trkpt>
      <trkpt lat="42.21012" lon="0.87692">
        <ele>672</ele>
        <time>2023-07-23T10:22:01Z</time>
      </trkpt>
      <trkpt lat="42.2101" lon="0.87696">
        <ele>671</ele>
        <time>2023-07-23T10:22:02Z</time>
      </trkpt>
      <trkpt lat="42.21007" lon="0.87699">
        <ele>670.4</ele>
        <time>2023-07-23T10:22:03Z</time>
      </trkpt>
      <trkpt lat="42.21003" lon="0.87701">
        <ele>669.6</ele>
        <time>2023-07-23T10:22:04Z</time>
      </trkpt>
      <trkpt lat="42.20999" lon="0.87703">
        <ele>669.2</ele>
        <time>2023-07-23T10:22:05Z</time>
      </trkpt>
      <trkpt lat="42.20995" lon="0.87705">
        <ele>668.8</ele>
        <time>2023-07-23T10:22:06Z</time>
      </trkpt>
      <trkpt lat="42.20992" lon="0.87706">
        <ele>668.6</ele>
        <time>2023-07-23T10:22:07Z</time>
      </trkpt>
      <trkpt lat="42.20989" lon="0.87709">
        <ele>668</ele>
        <time>2023-07-23T10:22:08Z</time>
      </trkpt>
      <trkpt lat="42.20986" lon="0.87711">
        <ele>667.6</ele>
        <time>2023-07-23T10:22:09Z</time>
      </trkpt>
      <trkpt lat="42.20982" lon="0.87714">
        <ele>667.6</ele>
        <time>2023-07-23T10:22:10Z</time>
      </trkpt>
      <trkpt lat="42.20979" lon="0.87716">
        <ele>667.4</ele>
        <time>2023-07-23T10:22:11Z</time>
      </trkpt>
      <trkpt lat="42.20976" lon="0.87717">
        <ele>667.4</ele>
        <time>2023-07-23T10:22:12Z</time>
      </trkpt>
      <trkpt lat="42.20973" lon="0.87718">
        <ele>666.8</ele>
        <time>2023-07-23T10:22:13Z</time>
      </trkpt>
      <trkpt lat="42.2097" lon="0.8772">
        <ele>666</ele>
        <time>2023-07-23T10:22:14Z</time>
      </trkpt>
      <trkpt lat="42.20967" lon="0.87721">
        <ele>665.8</ele>
        <time>2023-07-23T10:22:15Z</time>
      </trkpt>
      <trkpt lat="42.20963" lon="0.87722">
        <ele>665</ele>
        <time>2023-07-23T10:22:16Z</time>
      </trkpt>
      <trkpt lat="42.2096" lon="0.87724">
        <ele>664.8</ele>
        <time>2023-07-23T10:22:17Z</time>
      </trkpt>
      <trkpt lat="42.20958" lon="0.87726">
        <ele>664.4</ele>
        <time>2023-07-23T10:22:18Z</time>
      </trkpt>
      <trkpt lat="42.20955" lon="0.87728">
        <ele>664</ele>
        <time>2023-07-23T10:22:19Z</time>
      </trkpt>
      <trkpt lat="42.20951" lon="0.87731">
        <ele>663.8</ele>
        <time>2023-07-23T10:22:20Z</time>
      </trkpt>
      <trkpt lat="42.20947" lon="0.87734">
        <ele>663.2</ele>
        <time>2023-07-23T10:22:21Z</time>
      </trkpt>
      <trkpt lat="42.20943" lon="0.87738">
        <ele>663.2</ele>
        <time>2023-07-23T10:22:22Z</time>
      </trkpt>
      <trkpt lat="42.20939" lon="0.87741">
        <ele>662.6</ele>
        <time>2023-07-23T10:22:23Z</time>
      </trkpt>
      <trkpt lat="42.20935" lon="0.87744">
        <ele>662.6</ele>
        <time>2023-07-23T10:22:24Z</time>
      </trkpt>
      <trkpt lat="42.20931" lon="0.87747">
        <ele>661.4</ele>
        <time>2023-07-23T10:22:25Z</time>
      </trkpt>
      <trkpt lat="42.20927" lon="0.8775">
        <ele>660.4</ele>
        <time>2023-07-23T10:22:26Z</time>
      </trkpt>
      <trkpt lat="42.20924" lon="0.87753">
        <ele>660</ele>
        <time>2023-07-23T10:22:27Z</time>
      </trkpt>
      <trkpt lat="42.20922" lon="0.87756">
        <ele>659.2</ele>
        <time>2023-07-23T10:22:28Z</time>
      </trkpt>
      <trkpt lat="42.20919" lon="0.87759">
        <ele>658.8</ele>
        <time>2023-07-23T10:22:29Z</time>
      </trkpt>
      <trkpt lat="42.20915" lon="0.87761">
        <ele>658</ele>
        <time>2023-07-23T10:22:30Z</time>
      </trkpt>
      <trkpt lat="42.20912" lon="0.87764">
        <ele>657.6</ele>
        <time>2023-07-23T10:22:31Z</time>
      </trkpt>
      <trkpt lat="42.20907" lon="0.87767">
        <ele>657.2</ele>
        <time>2023-07-23T10:22:32Z</time>
      </trkpt>
      <trkpt lat="42.20903" lon="0.8777">
        <ele>656.6</ele>
        <time>2023-07-23T10:22:33Z</time>
      </trkpt>
      <trkpt lat="42.209" lon="0.87774">
        <ele>656.2</ele>
        <time>2023-07-23T10:22:34Z</time>
      </trkpt>
      <trkpt lat="42.20897" lon="0.87778">
        <ele>655.6</ele>
        <time>2023-07-23T10:22:35Z</time>
      </trkpt>
      <trkpt lat="42.20893" lon="0.87781">
        <ele>655</ele>
        <time>2023-07-23T10:22:36Z</time>
      </trkpt>
      <trkpt lat="42.20889" lon="0.87785">
        <ele>654.8</ele>
        <time>2023-07-23T10:22:37Z</time>
      </trkpt>
      <trkpt lat="42.20886" lon="0.8779">
        <ele>654.4</ele>
        <time>2023-07-23T10:22:38Z</time>
      </trkpt>
      <trkpt lat="42.20884" lon="0.87794">
        <ele>654.2</ele>
        <time>2023-07-23T10:22:39Z</time>
      </trkpt>
      <trkpt lat="42.2088" lon="0.87797">
        <ele>653.6</ele>
        <time>2023-07-23T10:22:40Z</time>
      </trkpt>
      <trkpt lat="42.20877" lon="0.87799">
        <ele>653</ele>
        <time>2023-07-23T10:22:41Z</time>
      </trkpt>
      <trkpt lat="42.20873" lon="0.878">
        <ele>652.8</ele>
        <time>2023-07-23T10:22:42Z</time>
      </trkpt>
      <trkpt lat="42.20871" lon="0.87801">
        <ele>652.2</ele>
        <time>2023-07-23T10:22:43Z</time>
      </trkpt>
      <trkpt lat="42.20868" lon="0.87802">
        <ele>651.8</ele>
        <time>2023-07-23T10:22:44Z</time>
      </trkpt>
      <trkpt lat="42.20865" lon="0.87804">
        <ele>651.4</ele>
        <time>2023-07-23T10:22:45Z</time>
      </trkpt>
      <trkpt lat="42.20862" lon="0.87807">
        <ele>651.2</ele>
        <time>2023-07-23T10:22:46Z</time>
      </trkpt>
      <trkpt lat="42.2086" lon="0.8781">
        <ele>650.6</ele>
        <time>2023-07-23T10:22:47Z</time>
      </trkpt>
      <trkpt lat="42.20858" lon="0.87814">
        <ele>650.2</ele>
        <time>2023-07-23T10:22:48Z</time>
      </trkpt>
      <trkpt lat="42.20857" lon="0.87817">
        <ele>650</ele>
        <time>2023-07-23T10:22:49Z</time>
      </trkpt>
      <trkpt lat="42.20855" lon="0.8782">
        <ele>649.6</ele>
        <time>2023-07-23T10:22:50Z</time>
      </trkpt>
      <trkpt lat="42.20852" lon="0.87823">
        <ele>649.6</ele>
        <time>2023-07-23T10:22:51Z</time>
      </trkpt>
      <trkpt lat="42.20849" lon="0.87827">
        <ele>649.4</ele>
        <time>2023-07-23T10:22:52Z</time>
      </trkpt>
      <trkpt lat="42.20845" lon="0.87831">
        <ele>649</ele>
        <time>2023-07-23T10:22:53Z</time>
      </trkpt>
      <trkpt lat="42.20841" lon="0.87835">
        <ele>648.8</ele>
        <time>2023-07-23T10:22:54Z</time>
      </trkpt>
      <trkpt lat="42.20838" lon="0.87838">
        <ele>648.4</ele>
        <time>2023-07-23T10:22:55Z</time>
      </trkpt>
      <trkpt lat="42.20834" lon="0.87842">
        <ele>648</ele>
        <time>2023-07-23T10:22:56Z</time>
      </trkpt>
      <trkpt lat="42.2083" lon="0.87845">
        <ele>647.6</ele>
        <time>2023-07-23T10:22:57Z</time>
      </trkpt>
      <trkpt lat="42.20827" lon="0.87849">
        <ele>647.4</ele>
        <time>2023-07-23T10:22:58Z</time>
      </trkpt>
      <trkpt lat="42.20823" lon="0.87853">
        <ele>647.4</ele>
        <time>2023-07-23T10:22:59Z</time>
      </trkpt>
      <trkpt lat="42.20819" lon="0.87858">
        <ele>646.6</ele>
        <time>2023-07-23T10:23:00Z</time>
      </trkpt>
      <trkpt lat="42.20815" lon="0.87865">
        <ele>646.2</ele>
        <time>2023-07-23T10:23:01Z</time>
      </trkpt>
      <trkpt lat="42.20811" lon="0.8787">
        <ele>645.6</ele>
        <time>2023-07-23T10:23:02Z</time>
      </trkpt>
      <trkpt lat="42.20808" lon="0.87875">
        <ele>645.4</ele>
        <time>2023-07-23T10:23:03Z</time>
      </trkpt>
      <trkpt lat="42.20805" lon="0.8788">
        <ele>645.2</ele>
        <time>2023-07-23T10:23:04Z</time>
      </trkpt>
      <trkpt lat="42.20804" lon="0.87886">
        <ele>644.6</ele>
        <time>2023-07-23T10:23:05Z</time>
      </trkpt>
      <trkpt lat="42.20802" lon="0.87892">
        <ele>644.4</ele>
        <time>2023-07-23T10:23:06Z</time>
      </trkpt>
      <trkpt lat="42.20801" lon="0.87897">
        <ele>643.8</ele>
        <time>2023-07-23T10:23:07Z</time>
      </trkpt>
      <trkpt lat="42.20798" lon="0.87901">
        <ele>643.6</ele>
        <time>2023-07-23T10:23:08Z</time>
      </trkpt>
      <trkpt lat="42.20795" lon="0.87905">
        <ele>643.4</ele>
        <time>2023-07-23T10:23:09Z</time>
      </trkpt>
      <trkpt lat="42.20793" lon="0.8791">
        <ele>643.4</ele>
        <time>2023-07-23T10:23:10Z</time>
      </trkpt>
      <trkpt lat="42.20791" lon="0.87914">
        <ele>643.4</ele>
        <time>2023-07-23T10:23:11Z</time>
      </trkpt>
      <trkpt lat="42.20789" lon="0.87919">
        <ele>643.2</ele>
        <time>2023-07-23T10:23:12Z</time>
      </trkpt>
      <trkpt lat="42.20787" lon="0.87923">
        <ele>643</ele>
        <time>2023-07-23T10:23:13Z</time>
      </trkpt>
      <trkpt lat="42.20785" lon="0.87927">
        <ele>642.8</ele>
        <time>2023-07-23T10:23:14Z</time>
      </trkpt>
      <trkpt lat="42.20784" lon="0.8793">
        <ele>642.6</ele>
        <time>2023-07-23T10:23:15Z</time>
      </trkpt>
      <trkpt lat="42.20783" lon="0.87934">
        <ele>642.4</ele>
        <time>2023-07-23T10:23:16Z</time>
      </trkpt>
      <trkpt lat="42.20781" lon="0.87937">
        <ele>642.4</ele>
        <time>2023-07-23T10:23:17Z</time>
      </trkpt>
      <trkpt lat="42.20779" lon="0.87941">
        <ele>642.4</ele>
        <time>2023-07-23T10:23:18Z</time>
      </trkpt>
      <trkpt lat="42.20778" lon="0.87945">
        <ele>642.2</ele>
        <time>2023-07-23T10:23:19Z</time>
      </trkpt>
      <trkpt lat="42.20776" lon="0.87949">
        <ele>642.4</ele>
        <time>2023-07-23T10:23:20Z</time>
      </trkpt>
      <trkpt lat="42.20774" lon="0.87953">
        <ele>642.4</ele>
        <time>2023-07-23T10:23:21Z</time>
      </trkpt>
      <trkpt lat="42.20771" lon="0.87957">
        <ele>642.6</ele>
        <time>2023-07-23T10:23:22Z</time>
      </trkpt>
      <trkpt lat="42.20769" lon="0.8796">
        <ele>642.6</ele>
        <time>2023-07-23T10:23:23Z</time>
      </trkpt>
      <trkpt lat="42.20766" lon="0.87965">
        <ele>642.6</ele>
        <time>2023-07-23T10:23:24Z</time>
      </trkpt>
      <trkpt lat="42.20763" lon="0.8797">
        <ele>642.6</ele>
        <time>2023-07-23T10:23:25Z</time>
      </trkpt>
      <trkpt lat="42.20761" lon="0.87976">
        <ele>642.8</ele>
        <time>2023-07-23T10:23:26Z</time>
      </trkpt>
      <trkpt lat="42.20759" lon="0.87982">
        <ele>642.6</ele>
        <time>2023-07-23T10:23:27Z</time>
      </trkpt>
      <trkpt lat="42.20758" lon="0.87988">
        <ele>642.6</ele>
        <time>2023-07-23T10:23:28Z</time>
      </trkpt>
      <trkpt lat="42.20756" lon="0.87995">
        <ele>642.4</ele>
        <time>2023-07-23T10:23:29Z</time>
      </trkpt>
      <trkpt lat="42.20754" lon="0.88">
        <ele>642.4</ele>
        <time>2023-07-23T10:23:30Z</time>
      </trkpt>
      <trkpt lat="42.2075" lon="0.88004">
        <ele>642.4</ele>
        <time>2023-07-23T10:23:31Z</time>
      </trkpt>
      <trkpt lat="42.20746" lon="0.88009">
        <ele>642.4</ele>
        <time>2023-07-23T10:23:32Z</time>
      </trkpt>
      <trkpt lat="42.20742" lon="0.88013">
        <ele>642.4</ele>
        <time>2023-07-23T10:23:33Z</time>
      </trkpt>
      <trkpt lat="42.20737" lon="0.88018">
        <ele>642.2</ele>
        <time>2023-07-23T10:23:34Z</time>
      </trkpt>
      <trkpt lat="42.20733" lon="0.88022">
        <ele>642</ele>
        <time>2023-07-23T10:23:35Z</time>
      </trkpt>
      <trkpt lat="42.20729" lon="0.88028">
        <ele>641.6</ele>
        <time>2023-07-23T10:23:36Z</time>
      </trkpt>
      <trkpt lat="42.20726" lon="0.88034">
        <ele>641.4</ele>
        <time>2023-07-23T10:23:37Z</time>
      </trkpt>
      <trkpt lat="42.20722" lon="0.8804">
        <ele>641.2</ele>
        <time>2023-07-23T10:23:38Z</time>
      </trkpt>
      <trkpt lat="42.20719" lon="0.88046">
        <ele>640.6</ele>
        <time>2023-07-23T10:23:39Z</time>
      </trkpt>
      <trkpt lat="42.20716" lon="0.88052">
        <ele>640.2</ele>
        <time>2023-07-23T10:23:40Z</time>
      </trkpt>
      <trkpt lat="42.20712" lon="0.88058">
        <ele>639.8</ele>
        <time>2023-07-23T10:23:41Z</time>
      </trkpt>
      <trkpt lat="42.20709" lon="0.88065">
        <ele>639.6</ele>
        <time>2023-07-23T10:23:42Z</time>
      </trkpt>
      <trkpt lat="42.20706" lon="0.88071">
        <ele>639.2</ele>
        <time>2023-07-23T10:23:43Z</time>
      </trkpt>
      <trkpt lat="42.20704" lon="0.88078">
        <ele>638.6</ele>
        <time>2023-07-23T10:23:44Z</time>
      </trkpt>
      <trkpt lat="42.20701" lon="0.88085">
        <ele>638.4</ele>
        <time>2023-07-23T10:23:45Z</time>
      </trkpt>
      <trkpt lat="42.20698" lon="0.88091">
        <ele>638.2</ele>
        <time>2023-07-23T10:23:46Z</time>
      </trkpt>
      <trkpt lat="42.20695" lon="0.88096">
        <ele>638.2</ele>
        <time>2023-07-23T10:23:47Z</time>
      </trkpt>
      <trkpt lat="42.20691" lon="0.88101">
        <ele>637.8</ele>
        <time>2023-07-23T10:23:48Z</time>
      </trkpt>
      <trkpt lat="42.20687" lon="0.88107">
        <ele>637.6</ele>
        <time>2023-07-23T10:23:49Z</time>
      </trkpt>
      <trkpt lat="42.20683" lon="0.88113">
        <ele>637.6</ele>
        <time>2023-07-23T10:23:50Z</time>
      </trkpt>
      <trkpt lat="42.20681" lon="0.88119">
        <ele>637.4</ele>
        <time>2023-07-23T10:23:51Z</time>
      </trkpt>
      <trkpt lat="42.20679" lon="0.88124">
        <ele>637.4</ele>
        <time>2023-07-23T10:23:52Z</time>
      </trkpt>
      <trkpt lat="42.20677" lon="0.8813">
        <ele>637.2</ele>
        <time>2023-07-23T10:23:53Z</time>
      </trkpt>
      <trkpt lat="42.20676" lon="0.88136">
        <ele>637</ele>
        <time>2023-07-23T10:23:54Z</time>
      </trkpt>
      <trkpt lat="42.20673" lon="0.88141">
        <ele>636.8</ele>
        <time>2023-07-23T10:23:55Z</time>
      </trkpt>
      <trkpt lat="42.2067" lon="0.88147">
        <ele>636.6</ele>
        <time>2023-07-23T10:23:56Z</time>
      </trkpt>
      <trkpt lat="42.20667" lon="0.88153">
        <ele>636.6</ele>
        <time>2023-07-23T10:23:57Z</time>
      </trkpt>
      <trkpt lat="42.20663" lon="0.88158">
        <ele>636.4</ele>
        <time>2023-07-23T10:23:58Z</time>
      </trkpt>
      <trkpt lat="42.20659" lon="0.88163">
        <ele>636.4</ele>
        <time>2023-07-23T10:23:59Z</time>
      </trkpt>
      <trkpt lat="42.20655" lon="0.88167">
        <ele>636</ele>
        <time>2023-07-23T10:24:00Z</time>
      </trkpt>
      <trkpt lat="42.20652" lon="0.88172">
        <ele>635.6</ele>
        <time>2023-07-23T10:24:01Z</time>
      </trkpt>
      <trkpt lat="42.2065" lon="0.88178">
        <ele>635.4</ele>
        <time>2023-07-23T10:24:02Z</time>
      </trkpt>
      <trkpt lat="42.20648" lon="0.88183">
        <ele>635</ele>
        <time>2023-07-23T10:24:03Z</time>
      </trkpt>
      <trkpt lat="42.20645" lon="0.88187">
        <ele>634.8</ele>
        <time>2023-07-23T10:24:04Z</time>
      </trkpt>
      <trkpt lat="42.20641" lon="0.8819">
        <ele>634.4</ele>
        <time>2023-07-23T10:24:05Z</time>
      </trkpt>
      <trkpt lat="42.20637" lon="0.88194">
        <ele>634</ele>
        <time>2023-07-23T10:24:06Z</time>
      </trkpt>
      <trkpt lat="42.20634" lon="0.88198">
        <ele>633.8</ele>
        <time>2023-07-23T10:24:07Z</time>
      </trkpt>
      <trkpt lat="42.20631" lon="0.88203">
        <ele>633.4</ele>
        <time>2023-07-23T10:24:08Z</time>
      </trkpt>
      <trkpt lat="42.20628" lon="0.88209">
        <ele>633.2</ele>
        <time>2023-07-23T10:24:09Z</time>
      </trkpt>
      <trkpt lat="42.20625" lon="0.88215">
        <ele>632</ele>
        <time>2023-07-23T10:24:10Z</time>
      </trkpt>
      <trkpt lat="42.20622" lon="0.8822">
        <ele>630.8</ele>
        <time>2023-07-23T10:24:11Z</time>
      </trkpt>
      <trkpt lat="42.2062" lon="0.88224">
        <ele>630.2</ele>
        <time>2023-07-23T10:24:12Z</time>
      </trkpt>
      <trkpt lat="42.20618" lon="0.88228">
        <ele>629.4</ele>
        <time>2023-07-23T10:24:13Z</time>
      </trkpt>
      <trkpt lat="42.20616" lon="0.88232">
        <ele>628.8</ele>
        <time>2023-07-23T10:24:14Z</time>
      </trkpt>
      <trkpt lat="42.20613" lon="0.88236">
        <ele>628</ele>
        <time>2023-07-23T10:24:15Z</time>
      </trkpt>
      <trkpt lat="42.2061" lon="0.88239">
        <ele>627.6</ele>
        <time>2023-07-23T10:24:16Z</time>
      </trkpt>
      <trkpt lat="42.20607" lon="0.88244">
        <ele>627.6</ele>
        <time>2023-07-23T10:24:17Z</time>
      </trkpt>
      <trkpt lat="42.20604" lon="0.88249">
        <ele>627.2</ele>
        <time>2023-07-23T10:24:18Z</time>
      </trkpt>
      <trkpt lat="42.20601" lon="0.88254">
        <ele>626.8</ele>
        <time>2023-07-23T10:24:19Z</time>
      </trkpt>
      <trkpt lat="42.20597" lon="0.88259">
        <ele>626.2</ele>
        <time>2023-07-23T10:24:20Z</time>
      </trkpt>
      <trkpt lat="42.20594" lon="0.88264">
        <ele>626</ele>
        <time>2023-07-23T10:24:21Z</time>
      </trkpt>
      <trkpt lat="42.20591" lon="0.88268">
        <ele>625.6</ele>
        <time>2023-07-23T10:24:22Z</time>
      </trkpt>
      <trkpt lat="42.20588" lon="0.88272">
        <ele>625.4</ele>
        <time>2023-07-23T10:24:23Z</time>
      </trkpt>
      <trkpt lat="42.20585" lon="0.88276">
        <ele>625.4</ele>
        <time>2023-07-23T10:24:24Z</time>
      </trkpt>
      <trkpt lat="42.20583" lon="0.88281">
        <ele>625.2</ele>
        <time>2023-07-23T10:24:25Z</time>
      </trkpt>
      <trkpt lat="42.20581" lon="0.88286">
        <ele>625</ele>
        <time>2023-07-23T10:24:26Z</time>
      </trkpt>
      <trkpt lat="42.20578" lon="0.8829">
        <ele>625</ele>
        <time>2023-07-23T10:24:27Z</time>
      </trkpt>
      <trkpt lat="42.20575" lon="0.88295">
        <ele>624.8</ele>
        <time>2023-07-23T10:24:28Z</time>
      </trkpt>
      <trkpt lat="42.20571" lon="0.883">
        <ele>624.2</ele>
        <time>2023-07-23T10:24:29Z</time>
      </trkpt>
      <trkpt lat="42.20568" lon="0.88305">
        <ele>623.8</ele>
        <time>2023-07-23T10:24:30Z</time>
      </trkpt>
      <trkpt lat="42.20564" lon="0.88309">
        <ele>623.8</ele>
        <time>2023-07-23T10:24:31Z</time>
      </trkpt>
      <trkpt lat="42.20561" lon="0.88313">
        <ele>623.6</ele>
        <time>2023-07-23T10:24:32Z</time>
      </trkpt>
      <trkpt lat="42.20557" lon="0.88316">
        <ele>623.4</ele>
        <time>2023-07-23T10:24:33Z</time>
      </trkpt>
      <trkpt lat="42.20553" lon="0.88319">
        <ele>623</ele>
        <time>2023-07-23T10:24:34Z</time>
      </trkpt>
      <trkpt lat="42.20548" lon="0.88322">
        <ele>622.6</ele>
        <time>2023-07-23T10:24:35Z</time>
      </trkpt>
      <trkpt lat="42.20544" lon="0.88325">
        <ele>622.4</ele>
        <time>2023-07-23T10:24:36Z</time>
      </trkpt>
      <trkpt lat="42.2054" lon="0.88328">
        <ele>622.2</ele>
        <time>2023-07-23T10:24:37Z</time>
      </trkpt>
      <trkpt lat="42.20536" lon="0.88332">
        <ele>622</ele>
        <time>2023-07-23T10:24:38Z</time>
      </trkpt>
      <trkpt lat="42.20532" lon="0.88336">
        <ele>622.2</ele>
        <time>2023-07-23T10:24:39Z</time>
      </trkpt>
      <trkpt lat="42.20528" lon="0.88339">
        <ele>621.8</ele>
        <time>2023-07-23T10:24:40Z</time>
      </trkpt>
      <trkpt lat="42.20523" lon="0.88343">
        <ele>621.8</ele>
        <time>2023-07-23T10:24:41Z</time>
      </trkpt>
      <trkpt lat="42.20519" lon="0.88346">
        <ele>621.6</ele>
        <time>2023-07-23T10:24:42Z</time>
      </trkpt>
      <trkpt lat="42.20514" lon="0.88348">
        <ele>621.4</ele>
        <time>2023-07-23T10:24:43Z</time>
      </trkpt>
      <trkpt lat="42.20509" lon="0.88349">
        <ele>621.2</ele>
        <time>2023-07-23T10:24:44Z</time>
      </trkpt>
      <trkpt lat="42.20504" lon="0.8835">
        <ele>621</ele>
        <time>2023-07-23T10:24:45Z</time>
      </trkpt>
      <trkpt lat="42.20498" lon="0.8835">
        <ele>621</ele>
        <time>2023-07-23T10:24:46Z</time>
      </trkpt>
      <trkpt lat="42.20491" lon="0.88351">
        <ele>620.6</ele>
        <time>2023-07-23T10:24:47Z</time>
      </trkpt>
      <trkpt lat="42.20484" lon="0.88351">
        <ele>620.4</ele>
        <time>2023-07-23T10:24:48Z</time>
      </trkpt>
      <trkpt lat="42.20478" lon="0.88351">
        <ele>620</ele>
        <time>2023-07-23T10:24:49Z</time>
      </trkpt>
      <trkpt lat="42.20472" lon="0.88352">
        <ele>619.6</ele>
        <time>2023-07-23T10:24:50Z</time>
      </trkpt>
      <trkpt lat="42.20468" lon="0.88354">
        <ele>619.4</ele>
        <time>2023-07-23T10:24:51Z</time>
      </trkpt>
      <trkpt lat="42.20464" lon="0.88356">
        <ele>617.8</ele>
        <time>2023-07-23T10:24:52Z</time>
      </trkpt>
      <trkpt lat="42.2046" lon="0.88358">
        <ele>617.2</ele>
        <time>2023-07-23T10:24:53Z</time>
      </trkpt>
      <trkpt lat="42.20458" lon="0.8836">
        <ele>616.4</ele>
        <time>2023-07-23T10:24:54Z</time>
      </trkpt>
      <trkpt lat="42.20458" lon="0.88364">
        <ele>616.2</ele>
        <time>2023-07-23T10:24:55Z</time>
      </trkpt>
      <trkpt lat="42.20458" lon="0.88368">
        <ele>615.2</ele>
        <time>2023-07-23T10:24:56Z</time>
      </trkpt>
      <trkpt lat="42.20456" lon="0.88372">
        <ele>614.4</ele>
        <time>2023-07-23T10:24:57Z</time>
      </trkpt>
      <trkpt lat="42.20454" lon="0.88375">
        <ele>613.8</ele>
        <time>2023-07-23T10:24:58Z</time>
      </trkpt>
      <trkpt lat="42.20451" lon="0.88377">
        <ele>612.6</ele>
        <time>2023-07-23T10:24:59Z</time>
      </trkpt>
      <trkpt lat="42.20448" lon="0.8838">
        <ele>612.2</ele>
        <time>2023-07-23T10:25:00Z</time>
      </trkpt>
      <trkpt lat="42.20445" lon="0.88384">
        <ele>611.4</ele>
        <time>2023-07-23T10:25:01Z</time>
      </trkpt>
      <trkpt lat="42.20442" lon="0.88388">
        <ele>611</ele>
        <time>2023-07-23T10:25:02Z</time>
      </trkpt>
      <trkpt lat="42.20439" lon="0.88392">
        <ele>610.8</ele>
        <time>2023-07-23T10:25:03Z</time>
      </trkpt>
      <trkpt lat="42.20436" lon="0.88395">
        <ele>610.6</ele>
        <time>2023-07-23T10:25:04Z</time>
      </trkpt>
      <trkpt lat="42.20432" lon="0.88397">
        <ele>610.6</ele>
        <time>2023-07-23T10:25:05Z</time>
      </trkpt>
      <trkpt lat="42.20428" lon="0.884">
        <ele>610.4</ele>
        <time>2023-07-23T10:25:06Z</time>
      </trkpt>
      <trkpt lat="42.20424" lon="0.88404">
        <ele>610.2</ele>
        <time>2023-07-23T10:25:07Z</time>
      </trkpt>
      <trkpt lat="42.2042" lon="0.88409">
        <ele>610.2</ele>
        <time>2023-07-23T10:25:08Z</time>
      </trkpt>
      <trkpt lat="42.20416" lon="0.88416">
        <ele>610.2</ele>
        <time>2023-07-23T10:25:09Z</time>
      </trkpt>
      <trkpt lat="42.20412" lon="0.88423">
        <ele>610</ele>
        <time>2023-07-23T10:25:10Z</time>
      </trkpt>
      <trkpt lat="42.20408" lon="0.88429">
        <ele>610</ele>
        <time>2023-07-23T10:25:11Z</time>
      </trkpt>
      <trkpt lat="42.20403" lon="0.88436">
        <ele>609.6</ele>
        <time>2023-07-23T10:25:12Z</time>
      </trkpt>
      <trkpt lat="42.20397" lon="0.88442">
        <ele>609.4</ele>
        <time>2023-07-23T10:25:13Z</time>
      </trkpt>
      <trkpt lat="42.20392" lon="0.88448">
        <ele>609</ele>
        <time>2023-07-23T10:25:14Z</time>
      </trkpt>
      <trkpt lat="42.20387" lon="0.88455">
        <ele>608.8</ele>
        <time>2023-07-23T10:25:15Z</time>
      </trkpt>
      <trkpt lat="42.20382" lon="0.88462">
        <ele>608</ele>
        <time>2023-07-23T10:25:16Z</time>
      </trkpt>
      <trkpt lat="42.20376" lon="0.88468">
        <ele>607.8</ele>
        <time>2023-07-23T10:25:17Z</time>
      </trkpt>
      <trkpt lat="42.20372" lon="0.88473">
        <ele>607</ele>
        <time>2023-07-23T10:25:18Z</time>
      </trkpt>
      <trkpt lat="42.20367" lon="0.88479">
        <ele>606.4</ele>
        <time>2023-07-23T10:25:19Z</time>
      </trkpt>
      <trkpt lat="42.20362" lon="0.88485">
        <ele>606.2</ele>
        <time>2023-07-23T10:25:20Z</time>
      </trkpt>
      <trkpt lat="42.20358" lon="0.88492">
        <ele>605.4</ele>
        <time>2023-07-23T10:25:21Z</time>
      </trkpt>
      <trkpt lat="42.20354" lon="0.88498">
        <ele>605.2</ele>
        <time>2023-07-23T10:25:22Z</time>
      </trkpt>
      <trkpt lat="42.20351" lon="0.88503">
        <ele>604.6</ele>
        <time>2023-07-23T10:25:23Z</time>
      </trkpt>
      <trkpt lat="42.20348" lon="0.88507">
        <ele>604.4</ele>
        <time>2023-07-23T10:25:24Z</time>
      </trkpt>
      <trkpt lat="42.20343" lon="0.88509">
        <ele>604</ele>
        <time>2023-07-23T10:25:25Z</time>
      </trkpt>
      <trkpt lat="42.20339" lon="0.88512">
        <ele>603.4</ele>
        <time>2023-07-23T10:25:26Z</time>
      </trkpt>
      <trkpt lat="42.20335" lon="0.88515">
        <ele>603</ele>
        <time>2023-07-23T10:25:27Z</time>
      </trkpt>
      <trkpt lat="42.20331" lon="0.88519">
        <ele>602.6</ele>
        <time>2023-07-23T10:25:28Z</time>
      </trkpt>
      <trkpt lat="42.20327" lon="0.88524">
        <ele>602.2</ele>
        <time>2023-07-23T10:25:29Z</time>
      </trkpt>
      <trkpt lat="42.20323" lon="0.88529">
        <ele>601.6</ele>
        <time>2023-07-23T10:25:30Z</time>
      </trkpt>
      <trkpt lat="42.20319" lon="0.88533">
        <ele>600.8</ele>
        <time>2023-07-23T10:25:31Z</time>
      </trkpt>
      <trkpt lat="42.20316" lon="0.88539">
        <ele>600.6</ele>
        <time>2023-07-23T10:25:32Z</time>
      </trkpt>
      <trkpt lat="42.20313" lon="0.88545">
        <ele>600</ele>
        <time>2023-07-23T10:25:33Z</time>
      </trkpt>
      <trkpt lat="42.2031" lon="0.8855">
        <ele>599.4</ele>
        <time>2023-07-23T10:25:34Z</time>
      </trkpt>
      <trkpt lat="42.20307" lon="0.88556">
        <ele>599</ele>
        <time>2023-07-23T10:25:35Z</time>
      </trkpt>
      <trkpt lat="42.20304" lon="0.8856">
        <ele>598.4</ele>
        <time>2023-07-23T10:25:36Z</time>
      </trkpt>
      <trkpt lat="42.203" lon="0.88565">
        <ele>598.2</ele>
        <time>2023-07-23T10:25:37Z</time>
      </trkpt>
      <trkpt lat="42.20298" lon="0.8857">
        <ele>598</ele>
        <time>2023-07-23T10:25:38Z</time>
      </trkpt>
      <trkpt lat="42.20295" lon="0.88575">
        <ele>597.8</ele>
        <time>2023-07-23T10:25:39Z</time>
      </trkpt>
      <trkpt lat="42.20292" lon="0.88579">
        <ele>597.8</ele>
        <time>2023-07-23T10:25:40Z</time>
      </trkpt>
      <trkpt lat="42.2029" lon="0.88583">
        <ele>597.8</ele>
        <time>2023-07-23T10:25:41Z</time>
      </trkpt>
      <trkpt lat="42.20288" lon="0.88588">
        <ele>597.6</ele>
        <time>2023-07-23T10:25:42Z</time>
      </trkpt>
      <trkpt lat="42.20286" lon="0.88593">
        <ele>597.6</ele>
        <time>2023-07-23T10:25:43Z</time>
      </trkpt>
      <trkpt lat="42.20284" lon="0.88598">
        <ele>597.4</ele>
        <time>2023-07-23T10:25:44Z</time>
      </trkpt>
      <trkpt lat="42.20282" lon="0.88603">
        <ele>597.4</ele>
        <time>2023-07-23T10:25:45Z</time>
      </trkpt>
      <trkpt lat="42.20281" lon="0.88608">
        <ele>597.4</ele>
        <time>2023-07-23T10:25:46Z</time>
      </trkpt>
      <trkpt lat="42.20279" lon="0.88612">
        <ele>597.4</ele>
        <time>2023-07-23T10:25:47Z</time>
      </trkpt>
      <trkpt lat="42.20278" lon="0.88616">
        <ele>597.6</ele>
        <time>2023-07-23T10:25:48Z</time>
      </trkpt>
      <trkpt lat="42.20278" lon="0.8862">
        <ele>597.6</ele>
        <time>2023-07-23T10:25:49Z</time>
      </trkpt>
      <trkpt lat="42.20277" lon="0.88624">
        <ele>597.6</ele>
        <time>2023-07-23T10:25:50Z</time>
      </trkpt>
      <trkpt lat="42.20276" lon="0.88628">
        <ele>597.6</ele>
        <time>2023-07-23T10:25:51Z</time>
      </trkpt>
      <trkpt lat="42.20275" lon="0.88632">
        <ele>597.6</ele>
        <time>2023-07-23T10:25:52Z</time>
      </trkpt>
      <trkpt lat="42.20273" lon="0.88636">
        <ele>597.8</ele>
        <time>2023-07-23T10:25:53Z</time>
      </trkpt>
      <trkpt lat="42.20271" lon="0.88641">
        <ele>598</ele>
        <time>2023-07-23T10:25:54Z</time>
      </trkpt>
      <trkpt lat="42.2027" lon="0.88645">
        <ele>598.4</ele>
        <time>2023-07-23T10:25:55Z</time>
      </trkpt>
      <trkpt lat="42.20269" lon="0.8865">
        <ele>598.6</ele>
        <time>2023-07-23T10:25:56Z</time>
      </trkpt>
      <trkpt lat="42.20268" lon="0.88654">
        <ele>598.8</ele>
        <time>2023-07-23T10:25:57Z</time>
      </trkpt>
      <trkpt lat="42.20267" lon="0.88658">
        <ele>598.8</ele>
        <time>2023-07-23T10:25:58Z</time>
      </trkpt>
      <trkpt lat="42.20266" lon="0.88662">
        <ele>598.8</ele>
        <time>2023-07-23T10:25:59Z</time>
      </trkpt>
      <trkpt lat="42.20265" lon="0.88667">
        <ele>598.8</ele>
        <time>2023-07-23T10:26:00Z</time>
      </trkpt>
      <trkpt lat="42.20266" lon="0.88671">
        <ele>598.8</ele>
        <time>2023-07-23T10:26:01Z</time>
      </trkpt>
      <trkpt lat="42.20265" lon="0.88675">
        <ele>598.8</ele>
        <time>2023-07-23T10:26:02Z</time>
      </trkpt>
      <trkpt lat="42.20263" lon="0.88678">
        <ele>599</ele>
        <time>2023-07-23T10:26:03Z</time>
      </trkpt>
      <trkpt lat="42.20261" lon="0.88679">
        <ele>599</ele>
        <time>2023-07-23T10:26:04Z</time>
      </trkpt>
      <trkpt lat="42.20259" lon="0.88679">
        <ele>598.8</ele>
        <time>2023-07-23T10:26:05Z</time>
      </trkpt>
      <trkpt lat="42.20256" lon="0.88678">
        <ele>598.8</ele>
        <time>2023-07-23T10:26:06Z</time>
      </trkpt>
      <trkpt lat="42.20254" lon="0.88679">
        <ele>598.6</ele>
        <time>2023-07-23T10:26:07Z</time>
      </trkpt>
      <trkpt lat="42.20252" lon="0.8868">
        <ele>598.2</ele>
        <time>2023-07-23T10:26:08Z</time>
      </trkpt>
      <trkpt lat="42.20251" lon="0.88683">
        <ele>598</ele>
        <time>2023-07-23T10:26:09Z</time>
      </trkpt>
      <trkpt lat="42.2025" lon="0.88687">
        <ele>598</ele>
        <time>2023-07-23T10:26:10Z</time>
      </trkpt>
      <trkpt lat="42.20249" lon="0.88691">
        <ele>597.8</ele>
        <time>2023-07-23T10:26:11Z</time>
      </trkpt>
      <trkpt lat="42.20248" lon="0.88696">
        <ele>597.6</ele>
        <time>2023-07-23T10:26:12Z</time>
      </trkpt>
      <trkpt lat="42.20248" lon="0.887">
        <ele>597.4</ele>
        <time>2023-07-23T10:26:13Z</time>
      </trkpt>
      <trkpt lat="42.20247" lon="0.88704">
        <ele>597.4</ele>
        <time>2023-07-23T10:26:14Z</time>
      </trkpt>
      <trkpt lat="42.20246" lon="0.88707">
        <ele>597.6</ele>
        <time>2023-07-23T10:26:15Z</time>
      </trkpt>
      <trkpt lat="42.20246" lon="0.88711">
        <ele>597.6</ele>
        <time>2023-07-23T10:26:16Z</time>
      </trkpt>
      <trkpt lat="42.20245" lon="0.88714">
        <ele>597.6</ele>
        <time>2023-07-23T10:26:17Z</time>
      </trkpt>
      <trkpt lat="42.20245" lon="0.88717">
        <ele>597.6</ele>
        <time>2023-07-23T10:26:18Z</time>
      </trkpt>
      <trkpt lat="42.20244" lon="0.8872">
        <ele>597.6</ele>
        <time>2023-07-23T10:26:19Z</time>
      </trkpt>
      <trkpt lat="42.20242" lon="0.88724">
        <ele>597.6</ele>
        <time>2023-07-23T10:26:20Z</time>
      </trkpt>
      <trkpt lat="42.2024" lon="0.88728">
        <ele>597.6</ele>
        <time>2023-07-23T10:26:21Z</time>
      </trkpt>
      <trkpt lat="42.20239" lon="0.88732">
        <ele>597.6</ele>
        <time>2023-07-23T10:26:22Z</time>
      </trkpt>
      <trkpt lat="42.20236" lon="0.88735">
        <ele>597.6</ele>
        <time>2023-07-23T10:26:23Z</time>
      </trkpt>
      <trkpt lat="42.20234" lon="0.88739">
        <ele>597.6</ele>
        <time>2023-07-23T10:26:24Z</time>
      </trkpt>
      <trkpt lat="42.2023" lon="0.88743">
        <ele>597.8</ele>
        <time>2023-07-23T10:26:25Z</time>
      </trkpt>
      <trkpt lat="42.20227" lon="0.88747">
        <ele>597.8</ele>
        <time>2023-07-23T10:26:26Z</time>
      </trkpt>
      <trkpt lat="42.20224" lon="0.88752">
        <ele>597.8</ele>
        <time>2023-07-23T10:26:27Z</time>
      </trkpt>
      <trkpt lat="42.20221" lon="0.88756">
        <ele>597.8</ele>
        <time>2023-07-23T10:26:28Z</time>
      </trkpt>
      <trkpt lat="42.20218" lon="0.8876">
        <ele>597.8</ele>
        <time>2023-07-23T10:26:29Z</time>
      </trkpt>
      <trkpt lat="42.20216" lon="0.88764">
        <ele>597.6</ele>
        <time>2023-07-23T10:26:30Z</time>
      </trkpt>
      <trkpt lat="42.20214" lon="0.88768">
        <ele>597.8</ele>
        <time>2023-07-23T10:26:31Z</time>
      </trkpt>
      <trkpt lat="42.20212" lon="0.88773">
        <ele>597.8</ele>
        <time>2023-07-23T10:26:32Z</time>
      </trkpt>
      <trkpt lat="42.20209" lon="0.8878">
        <ele>597.8</ele>
        <time>2023-07-23T10:26:33Z</time>
      </trkpt>
      <trkpt lat="42.20206" lon="0.88786">
        <ele>597.8</ele>
        <time>2023-07-23T10:26:34Z</time>
      </trkpt>
      <trkpt lat="42.20203" lon="0.88792">
        <ele>597.8</ele>
        <time>2023-07-23T10:26:35Z</time>
      </trkpt>
      <trkpt lat="42.202" lon="0.88799">
        <ele>597.6</ele>
        <time>2023-07-23T10:26:36Z</time>
      </trkpt>
      <trkpt lat="42.20198" lon="0.88805">
        <ele>597.4</ele>
        <time>2023-07-23T10:26:37Z</time>
      </trkpt>
      <trkpt lat="42.20196" lon="0.8881">
        <ele>597</ele>
        <time>2023-07-23T10:26:38Z</time>
      </trkpt>
      <trkpt lat="42.20194" lon="0.88815">
        <ele>596.6</ele>
        <time>2023-07-23T10:26:39Z</time>
      </trkpt>
      <trkpt lat="42.20192" lon="0.8882">
        <ele>596.6</ele>
        <time>2023-07-23T10:26:40Z</time>
      </trkpt>
      <trkpt lat="42.20191" lon="0.88825">
        <ele>596.4</ele>
        <time>2023-07-23T10:26:41Z</time>
      </trkpt>
      <trkpt lat="42.2019" lon="0.88829">
        <ele>596.4</ele>
        <time>2023-07-23T10:26:42Z</time>
      </trkpt>
      <trkpt lat="42.20188" lon="0.88833">
        <ele>596.4</ele>
        <time>2023-07-23T10:26:43Z</time>
      </trkpt>
      <trkpt lat="42.20186" lon="0.88837">
        <ele>596.4</ele>
        <time>2023-07-23T10:26:44Z</time>
      </trkpt>
      <trkpt lat="42.20184" lon="0.88841">
        <ele>596.4</ele>
        <time>2023-07-23T10:26:45Z</time>
      </trkpt>
      <trkpt lat="42.20182" lon="0.88844">
        <ele>596.8</ele>
        <time>2023-07-23T10:26:46Z</time>
      </trkpt>
      <trkpt lat="42.20181" lon="0.88847">
        <ele>597.2</ele>
        <time>2023-07-23T10:26:47Z</time>
      </trkpt>
      <trkpt lat="42.20179" lon="0.8885">
        <ele>597.4</ele>
        <time>2023-07-23T10:26:48Z</time>
      </trkpt>
      <trkpt lat="42.20177" lon="0.88851">
        <ele>597.4</ele>
        <time>2023-07-23T10:26:49Z</time>
      </trkpt>
      <trkpt lat="42.20175" lon="0.88854">
        <ele>597.4</ele>
        <time>2023-07-23T10:26:50Z</time>
      </trkpt>
      <trkpt lat="42.20175" lon="0.88858">
        <ele>597.6</ele>
        <time>2023-07-23T10:26:51Z</time>
      </trkpt>
      <trkpt lat="42.20174" lon="0.8886">
        <ele>597.6</ele>
        <time>2023-07-23T10:26:52Z</time>
      </trkpt>
      <trkpt lat="42.20173" lon="0.88863">
        <ele>597.8</ele>
        <time>2023-07-23T10:26:53Z</time>
      </trkpt>
      <trkpt lat="42.20171" lon="0.88865">
        <ele>597.8</ele>
        <time>2023-07-23T10:26:54Z</time>
      </trkpt>
      <trkpt lat="42.20168" lon="0.88868">
        <ele>597.8</ele>
        <time>2023-07-23T10:26:55Z</time>
      </trkpt>
      <trkpt lat="42.20165" lon="0.88871">
        <ele>597.8</ele>
        <time>2023-07-23T10:26:56Z</time>
      </trkpt>
      <trkpt lat="42.20163" lon="0.88875">
        <ele>597.8</ele>
        <time>2023-07-23T10:26:57Z</time>
      </trkpt>
      <trkpt lat="42.20159" lon="0.88878">
        <ele>597.8</ele>
        <time>2023-07-23T10:26:58Z</time>
      </trkpt>
      <trkpt lat="42.20156" lon="0.88882">
        <ele>597.8</ele>
        <time>2023-07-23T10:26:59Z</time>
      </trkpt>
      <trkpt lat="42.20152" lon="0.88885">
        <ele>597.8</ele>
        <time>2023-07-23T10:27:00Z</time>
      </trkpt>
      <trkpt lat="42.2015" lon="0.88889">
        <ele>598</ele>
        <time>2023-07-23T10:27:01Z</time>
      </trkpt>
      <trkpt lat="42.20149" lon="0.88894">
        <ele>598</ele>
        <time>2023-07-23T10:27:02Z</time>
      </trkpt>
      <trkpt lat="42.20148" lon="0.88898">
        <ele>598</ele>
        <time>2023-07-23T10:27:03Z</time>
      </trkpt>
      <trkpt lat="42.20148" lon="0.88902">
        <ele>598</ele>
        <time>2023-07-23T10:27:04Z</time>
      </trkpt>
      <trkpt lat="42.20147" lon="0.88905">
        <ele>598</ele>
        <time>2023-07-23T10:27:05Z</time>
      </trkpt>
      <trkpt lat="42.20146" lon="0.88907">
        <ele>598.4</ele>
        <time>2023-07-23T10:27:06Z</time>
      </trkpt>
      <trkpt lat="42.20145" lon="0.88909">
        <ele>598.4</ele>
        <time>2023-07-23T10:27:07Z</time>
      </trkpt>
      <trkpt lat="42.20143" lon="0.88912">
        <ele>598.6</ele>
        <time>2023-07-23T10:27:08Z</time>
      </trkpt>
      <trkpt lat="42.20141" lon="0.88913">
        <ele>598.8</ele>
        <time>2023-07-23T10:27:09Z</time>
      </trkpt>
      <trkpt lat="42.20138" lon="0.88915">
        <ele>598.8</ele>
        <time>2023-07-23T10:27:10Z</time>
      </trkpt>
      <trkpt lat="42.20136" lon="0.88918">
        <ele>599</ele>
        <time>2023-07-23T10:27:11Z</time>
      </trkpt>
      <trkpt lat="42.20133" lon="0.88921">
        <ele>599</ele>
        <time>2023-07-23T10:27:12Z</time>
      </trkpt>
      <trkpt lat="42.20131" lon="0.88924">
        <ele>599.2</ele>
        <time>2023-07-23T10:27:13Z</time>
      </trkpt>
      <trkpt lat="42.20129" lon="0.88928">
        <ele>599.2</ele>
        <time>2023-07-23T10:27:14Z</time>
      </trkpt>
      <trkpt lat="42.20126" lon="0.88932">
        <ele>599.2</ele>
        <time>2023-07-23T10:27:15Z</time>
      </trkpt>
      <trkpt lat="42.20123" lon="0.88936">
        <ele>599.2</ele>
        <time>2023-07-23T10:27:16Z</time>
      </trkpt>
      <trkpt lat="42.20121" lon="0.88941">
        <ele>599.2</ele>
        <time>2023-07-23T10:27:17Z</time>
      </trkpt>
      <trkpt lat="42.2012" lon="0.88945">
        <ele>599</ele>
        <time>2023-07-23T10:27:18Z</time>
      </trkpt>
      <trkpt lat="42.20119" lon="0.88948">
        <ele>598.8</ele>
        <time>2023-07-23T10:27:19Z</time>
      </trkpt>
      <trkpt lat="42.20117" lon="0.88952">
        <ele>598.6</ele>
        <time>2023-07-23T10:27:20Z</time>
      </trkpt>
      <trkpt lat="42.20115" lon="0.88955">
        <ele>598.4</ele>
        <time>2023-07-23T10:27:21Z</time>
      </trkpt>
      <trkpt lat="42.20114" lon="0.88958">
        <ele>598.4</ele>
        <time>2023-07-23T10:27:22Z</time>
      </trkpt>
      <trkpt lat="42.20112" lon="0.88961">
        <ele>598.2</ele>
        <time>2023-07-23T10:27:23Z</time>
      </trkpt>
      <trkpt lat="42.2011" lon="0.88964">
        <ele>598.2</ele>
        <time>2023-07-23T10:27:24Z</time>
      </trkpt>
      <trkpt lat="42.20107" lon="0.88968">
        <ele>598.2</ele>
        <time>2023-07-23T10:27:25Z</time>
      </trkpt>
      <trkpt lat="42.20104" lon="0.88971">
        <ele>598</ele>
        <time>2023-07-23T10:27:26Z</time>
      </trkpt>
      <trkpt lat="42.20101" lon="0.88975">
        <ele>598</ele>
        <time>2023-07-23T10:27:27Z</time>
      </trkpt>
      <trkpt lat="42.20097" lon="0.88979">
        <ele>598</ele>
        <time>2023-07-23T10:27:28Z</time>
      </trkpt>
      <trkpt lat="42.20092" lon="0.88983">
        <ele>598</ele>
        <time>2023-07-23T10:27:29Z</time>
      </trkpt>
      <trkpt lat="42.20088" lon="0.88987">
        <ele>598</ele>
        <time>2023-07-23T10:27:30Z</time>
      </trkpt>
      <trkpt lat="42.20084" lon="0.88992">
        <ele>597.8</ele>
        <time>2023-07-23T10:27:31Z</time>
      </trkpt>
      <trkpt lat="42.20079" lon="0.88996">
        <ele>597.8</ele>
        <time>2023-07-23T10:27:32Z</time>
      </trkpt>
      <trkpt lat="42.20074" lon="0.89001">
        <ele>597.6</ele>
        <time>2023-07-23T10:27:33Z</time>
      </trkpt>
      <trkpt lat="42.2007" lon="0.89005">
        <ele>597.6</ele>
        <time>2023-07-23T10:27:34Z</time>
      </trkpt>
      <trkpt lat="42.20065" lon="0.8901">
        <ele>597.2</ele>
        <time>2023-07-23T10:27:35Z</time>
      </trkpt>
      <trkpt lat="42.20061" lon="0.89014">
        <ele>597</ele>
        <time>2023-07-23T10:27:36Z</time>
      </trkpt>
      <trkpt lat="42.20057" lon="0.89019">
        <ele>596.8</ele>
        <time>2023-07-23T10:27:37Z</time>
      </trkpt>
      <trkpt lat="42.20056" lon="0.89024">
        <ele>596</ele>
        <time>2023-07-23T10:27:38Z</time>
      </trkpt>
      <trkpt lat="42.20055" lon="0.89029">
        <ele>595.6</ele>
        <time>2023-07-23T10:27:39Z</time>
      </trkpt>
      <trkpt lat="42.20053" lon="0.89033">
        <ele>594.8</ele>
        <time>2023-07-23T10:27:40Z</time>
      </trkpt>
      <trkpt lat="42.20052" lon="0.89036">
        <ele>594.6</ele>
        <time>2023-07-23T10:27:41Z</time>
      </trkpt>
      <trkpt lat="42.2005" lon="0.89039">
        <ele>593.6</ele>
        <time>2023-07-23T10:27:42Z</time>
      </trkpt>
      <trkpt lat="42.20048" lon="0.89044">
        <ele>593.2</ele>
        <time>2023-07-23T10:27:43Z</time>
      </trkpt>
      <trkpt lat="42.20047" lon="0.89048">
        <ele>593</ele>
        <time>2023-07-23T10:27:44Z</time>
      </trkpt>
      <trkpt lat="42.20046" lon="0.89053">
        <ele>593</ele>
        <time>2023-07-23T10:27:45Z</time>
      </trkpt>
      <trkpt lat="42.20046" lon="0.89057">
        <ele>592.8</ele>
        <time>2023-07-23T10:27:46Z</time>
      </trkpt>
      <trkpt lat="42.20045" lon="0.89061">
        <ele>592.8</ele>
        <time>2023-07-23T10:27:47Z</time>
      </trkpt>
      <trkpt lat="42.20044" lon="0.89064">
        <ele>593</ele>
        <time>2023-07-23T10:27:48Z</time>
      </trkpt>
      <trkpt lat="42.20043" lon="0.89068">
        <ele>593</ele>
        <time>2023-07-23T10:27:49Z</time>
      </trkpt>
      <trkpt lat="42.20041" lon="0.89072">
        <ele>593</ele>
        <time>2023-07-23T10:27:50Z</time>
      </trkpt>
      <trkpt lat="42.2004" lon="0.89075">
        <ele>593</ele>
        <time>2023-07-23T10:27:51Z</time>
      </trkpt>
      <trkpt lat="42.20039" lon="0.89078">
        <ele>593</ele>
        <time>2023-07-23T10:27:52Z</time>
      </trkpt>
      <trkpt lat="42.20039" lon="0.89081">
        <ele>593.2</ele>
        <time>2023-07-23T10:27:53Z</time>
      </trkpt>
      <trkpt lat="42.20038" lon="0.89084">
        <ele>593.2</ele>
        <time>2023-07-23T10:27:54Z</time>
      </trkpt>
      <trkpt lat="42.20038" lon="0.89086">
        <ele>593.4</ele>
        <time>2023-07-23T10:27:55Z</time>
      </trkpt>
      <trkpt lat="42.20038" lon="0.89086">
        <ele>593.4</ele>
        <time>2023-07-23T10:27:56Z</time>
      </trkpt>
      <trkpt lat="42.20038" lon="0.89086">
        <ele>593.4</ele>
        <time>2023-07-23T10:27:57Z</time>
      </trkpt>
      <trkpt lat="42.20038" lon="0.89086">
        <ele>593.6</ele>
        <time>2023-07-23T10:27:58Z</time>
      </trkpt>
      <trkpt lat="42.20034" lon="0.89091">
        <ele>593.4</ele>
        <time>2023-07-23T10:28:19Z</time>
      </trkpt>
      <trkpt lat="42.20032" lon="0.89095">
        <ele>593.4</ele>
        <time>2023-07-23T10:28:20Z</time>
      </trkpt>
      <trkpt lat="42.20029" lon="0.89099">
        <ele>593.4</ele>
        <time>2023-07-23T10:28:21Z</time>
      </trkpt>
      <trkpt lat="42.20026" lon="0.89104">
        <ele>593.2</ele>
        <time>2023-07-23T10:28:22Z</time>
      </trkpt>
      <trkpt lat="42.20022" lon="0.89108">
        <ele>593.2</ele>
        <time>2023-07-23T10:28:23Z</time>
      </trkpt>
      <trkpt lat="42.20019" lon="0.89113">
        <ele>592.8</ele>
        <time>2023-07-23T10:28:24Z</time>
      </trkpt>
      <trkpt lat="42.20015" lon="0.89118">
        <ele>592.8</ele>
        <time>2023-07-23T10:28:25Z</time>
      </trkpt>
      <trkpt lat="42.20012" lon="0.89123">
        <ele>592.6</ele>
        <time>2023-07-23T10:28:26Z</time>
      </trkpt>
      <trkpt lat="42.20009" lon="0.89128">
        <ele>592.4</ele>
        <time>2023-07-23T10:28:27Z</time>
      </trkpt>
      <trkpt lat="42.20006" lon="0.89133">
        <ele>592.2</ele>
        <time>2023-07-23T10:28:28Z</time>
      </trkpt>
      <trkpt lat="42.20003" lon="0.89139">
        <ele>592</ele>
        <time>2023-07-23T10:28:29Z</time>
      </trkpt>
      <trkpt lat="42.2" lon="0.89144">
        <ele>592</ele>
        <time>2023-07-23T10:28:30Z</time>
      </trkpt>
      <trkpt lat="42.19998" lon="0.89149">
        <ele>591.8</ele>
        <time>2023-07-23T10:28:31Z</time>
      </trkpt>
      <trkpt lat="42.19996" lon="0.89154">
        <ele>591.8</ele>
        <time>2023-07-23T10:28:32Z</time>
      </trkpt>
      <trkpt lat="42.19994" lon="0.89159">
        <ele>591.6</ele>
        <time>2023-07-23T10:28:33Z</time>
      </trkpt>
      <trkpt lat="42.19991" lon="0.89164">
        <ele>591.6</ele>
        <time>2023-07-23T10:28:34Z</time>
      </trkpt>
      <trkpt lat="42.19988" lon="0.89169">
        <ele>591.6</ele>
        <time>2023-07-23T10:28:35Z</time>
      </trkpt>
      <trkpt lat="42.19986" lon="0.89174">
        <ele>591.6</ele>
        <time>2023-07-23T10:28:36Z</time>
      </trkpt>
      <trkpt lat="42.19982" lon="0.89178">
        <ele>591.6</ele>
        <time>2023-07-23T10:28:37Z</time>
      </trkpt>
      <trkpt lat="42.19978" lon="0.89182">
        <ele>591.4</ele>
        <time>2023-07-23T10:28:38Z</time>
      </trkpt>
      <trkpt lat="42.19974" lon="0.89185">
        <ele>591.2</ele>
        <time>2023-07-23T10:28:39Z</time>
      </trkpt>
      <trkpt lat="42.19971" lon="0.89187">
        <ele>591</ele>
        <time>2023-07-23T10:28:40Z</time>
      </trkpt>
      <trkpt lat="42.19968" lon="0.89189">
        <ele>590.8</ele>
        <time>2023-07-23T10:28:41Z</time>
      </trkpt>
      <trkpt lat="42.19966" lon="0.89191">
        <ele>590.6</ele>
        <time>2023-07-23T10:28:42Z</time>
      </trkpt>
      <trkpt lat="42.19964" lon="0.89193">
        <ele>590.2</ele>
        <time>2023-07-23T10:28:43Z</time>
      </trkpt>
      <trkpt lat="42.19962" lon="0.89196">
        <ele>590</ele>
        <time>2023-07-23T10:28:44Z</time>
      </trkpt>
      <trkpt lat="42.19959" lon="0.89198">
        <ele>589.6</ele>
        <time>2023-07-23T10:28:45Z</time>
      </trkpt>
      <trkpt lat="42.19957" lon="0.89198">
        <ele>589</ele>
        <time>2023-07-23T10:28:46Z</time>
      </trkpt>
      <trkpt lat="42.19955" lon="0.89198">
        <ele>588.8</ele>
        <time>2023-07-23T10:28:47Z</time>
      </trkpt>
      <trkpt lat="42.19954" lon="0.89196">
        <ele>588.2</ele>
        <time>2023-07-23T10:28:48Z</time>
      </trkpt>
      <trkpt lat="42.19952" lon="0.89192">
        <ele>588</ele>
        <time>2023-07-23T10:28:49Z</time>
      </trkpt>
      <trkpt lat="42.19951" lon="0.89188">
        <ele>587.8</ele>
        <time>2023-07-23T10:28:50Z</time>
      </trkpt>
      <trkpt lat="42.19949" lon="0.89184">
        <ele>587</ele>
        <time>2023-07-23T10:28:51Z</time>
      </trkpt>
      <trkpt lat="42.19947" lon="0.89182">
        <ele>586.8</ele>
        <time>2023-07-23T10:28:52Z</time>
      </trkpt>
      <trkpt lat="42.19944" lon="0.89181">
        <ele>586.2</ele>
        <time>2023-07-23T10:28:53Z</time>
      </trkpt>
      <trkpt lat="42.19942" lon="0.89181">
        <ele>585.8</ele>
        <time>2023-07-23T10:28:54Z</time>
      </trkpt>
      <trkpt lat="42.19941" lon="0.89181">
        <ele>584.6</ele>
        <time>2023-07-23T10:28:55Z</time>
      </trkpt>
      <trkpt lat="42.19939" lon="0.89182">
        <ele>583.8</ele>
        <time>2023-07-23T10:28:56Z</time>
      </trkpt>
      <trkpt lat="42.19937" lon="0.89182">
        <ele>583.4</ele>
        <time>2023-07-23T10:28:57Z</time>
      </trkpt>
      <trkpt lat="42.19936" lon="0.89182">
        <ele>582.8</ele>
        <time>2023-07-23T10:28:58Z</time>
      </trkpt>
      <trkpt lat="42.19935" lon="0.89184">
        <ele>582.4</ele>
        <time>2023-07-23T10:28:59Z</time>
      </trkpt>
      <trkpt lat="42.19933" lon="0.89186">
        <ele>581.6</ele>
        <time>2023-07-23T10:29:00Z</time>
      </trkpt>
      <trkpt lat="42.19933" lon="0.89191">
        <ele>580.6</ele>
        <time>2023-07-23T10:29:01Z</time>
      </trkpt>
      <trkpt lat="42.19932" lon="0.89195">
        <ele>580.4</ele>
        <time>2023-07-23T10:29:02Z</time>
      </trkpt>
      <trkpt lat="42.19931" lon="0.89201">
        <ele>579.8</ele>
        <time>2023-07-23T10:29:03Z</time>
      </trkpt>
      <trkpt lat="42.1993" lon="0.89206">
        <ele>579.4</ele>
        <time>2023-07-23T10:29:04Z</time>
      </trkpt>
      <trkpt lat="42.19927" lon="0.89209">
        <ele>578.6</ele>
        <time>2023-07-23T10:29:05Z</time>
      </trkpt>
      <trkpt lat="42.19924" lon="0.8921">
        <ele>577.8</ele>
        <time>2023-07-23T10:29:06Z</time>
      </trkpt>
      <trkpt lat="42.19922" lon="0.89212">
        <ele>577.6</ele>
        <time>2023-07-23T10:29:07Z</time>
      </trkpt>
      <trkpt lat="42.19919" lon="0.89213">
        <ele>577.2</ele>
        <time>2023-07-23T10:29:08Z</time>
      </trkpt>
      <trkpt lat="42.19915" lon="0.89215">
        <ele>577.2</ele>
        <time>2023-07-23T10:29:09Z</time>
      </trkpt>
      <trkpt lat="42.19912" lon="0.89217">
        <ele>577</ele>
        <time>2023-07-23T10:29:10Z</time>
      </trkpt>
      <trkpt lat="42.1991" lon="0.89219">
        <ele>577</ele>
        <time>2023-07-23T10:29:11Z</time>
      </trkpt>
      <trkpt lat="42.19907" lon="0.8922">
        <ele>577</ele>
        <time>2023-07-23T10:29:12Z</time>
      </trkpt>
      <trkpt lat="42.19905" lon="0.89219">
        <ele>577</ele>
        <time>2023-07-23T10:29:13Z</time>
      </trkpt>
      <trkpt lat="42.19902" lon="0.89218">
        <ele>577</ele>
        <time>2023-07-23T10:29:14Z</time>
      </trkpt>
      <trkpt lat="42.19899" lon="0.89216">
        <ele>577.2</ele>
        <time>2023-07-23T10:29:15Z</time>
      </trkpt>
      <trkpt lat="42.19896" lon="0.89214">
        <ele>577.4</ele>
        <time>2023-07-23T10:29:16Z</time>
      </trkpt>
      <trkpt lat="42.19893" lon="0.8921">
        <ele>578</ele>
        <time>2023-07-23T10:29:17Z</time>
      </trkpt>
      <trkpt lat="42.1989" lon="0.89207">
        <ele>578.6</ele>
        <time>2023-07-23T10:29:18Z</time>
      </trkpt>
      <trkpt lat="42.19888" lon="0.89204">
        <ele>578.8</ele>
        <time>2023-07-23T10:29:19Z</time>
      </trkpt>
      <trkpt lat="42.19885" lon="0.89201">
        <ele>579</ele>
        <time>2023-07-23T10:29:20Z</time>
      </trkpt>
      <trkpt lat="42.19883" lon="0.89198">
        <ele>579.2</ele>
        <time>2023-07-23T10:29:21Z</time>
      </trkpt>
      <trkpt lat="42.19881" lon="0.89195">
        <ele>579.4</ele>
        <time>2023-07-23T10:29:22Z</time>
      </trkpt>
      <trkpt lat="42.19878" lon="0.89193">
        <ele>579.6</ele>
        <time>2023-07-23T10:29:23Z</time>
      </trkpt>
      <trkpt lat="42.19876" lon="0.8919">
        <ele>579.8</ele>
        <time>2023-07-23T10:29:24Z</time>
      </trkpt>
      <trkpt lat="42.19874" lon="0.89189">
        <ele>580.2</ele>
        <time>2023-07-23T10:29:25Z</time>
      </trkpt>
      <trkpt lat="42.19871" lon="0.89187">
        <ele>580.4</ele>
        <time>2023-07-23T10:29:26Z</time>
      </trkpt>
      <trkpt lat="42.19869" lon="0.89186">
        <ele>580.8</ele>
        <time>2023-07-23T10:29:27Z</time>
      </trkpt>
      <trkpt lat="42.19867" lon="0.89183">
        <ele>581</ele>
        <time>2023-07-23T10:29:28Z</time>
      </trkpt>
      <trkpt lat="42.19866" lon="0.8918">
        <ele>581.2</ele>
        <time>2023-07-23T10:29:29Z</time>
      </trkpt>
      <trkpt lat="42.19864" lon="0.89177">
        <ele>581.4</ele>
        <time>2023-07-23T10:29:30Z</time>
      </trkpt>
      <trkpt lat="42.19862" lon="0.89175">
        <ele>581.6</ele>
        <time>2023-07-23T10:29:31Z</time>
      </trkpt>
      <trkpt lat="42.19861" lon="0.89172">
        <ele>581.8</ele>
        <time>2023-07-23T10:29:32Z</time>
      </trkpt>
      <trkpt lat="42.19859" lon="0.8917">
        <ele>581.8</ele>
        <time>2023-07-23T10:29:33Z</time>
      </trkpt>
      <trkpt lat="42.19858" lon="0.89167">
        <ele>582.2</ele>
        <time>2023-07-23T10:29:34Z</time>
      </trkpt>
      <trkpt lat="42.19856" lon="0.89165">
        <ele>582.6</ele>
        <time>2023-07-23T10:29:35Z</time>
      </trkpt>
      <trkpt lat="42.19855" lon="0.89163">
        <ele>582.6</ele>
        <time>2023-07-23T10:29:36Z</time>
      </trkpt>
      <trkpt lat="42.19853" lon="0.8916">
        <ele>582.8</ele>
        <time>2023-07-23T10:29:37Z</time>
      </trkpt>
      <trkpt lat="42.19852" lon="0.89158">
        <ele>583</ele>
        <time>2023-07-23T10:29:38Z</time>
      </trkpt>
      <trkpt lat="42.19851" lon="0.89156">
        <ele>583.4</ele>
        <time>2023-07-23T10:29:39Z</time>
      </trkpt>
      <trkpt lat="42.1985" lon="0.89154">
        <ele>583.6</ele>
        <time>2023-07-23T10:29:40Z</time>
      </trkpt>
      <trkpt lat="42.19849" lon="0.89152">
        <ele>583.6</ele>
        <time>2023-07-23T10:29:41Z</time>
      </trkpt>
      <trkpt lat="42.19848" lon="0.89149">
        <ele>584</ele>
        <time>2023-07-23T10:29:42Z</time>
      </trkpt>
      <trkpt lat="42.19847" lon="0.89146">
        <ele>584</ele>
        <time>2023-07-23T10:29:43Z</time>
      </trkpt>
      <trkpt lat="42.19847" lon="0.89144">
        <ele>584.2</ele>
        <time>2023-07-23T10:29:44Z</time>
      </trkpt>
      <trkpt lat="42.19846" lon="0.89142">
        <ele>584.4</ele>
        <time>2023-07-23T10:29:45Z</time>
      </trkpt>
      <trkpt lat="42.19845" lon="0.8914">
        <ele>584.4</ele>
        <time>2023-07-23T10:29:46Z</time>
      </trkpt>
      <trkpt lat="42.19844" lon="0.89139">
        <ele>584.6</ele>
        <time>2023-07-23T10:29:47Z</time>
      </trkpt>
      <trkpt lat="42.19842" lon="0.89138">
        <ele>584.8</ele>
        <time>2023-07-23T10:29:48Z</time>
      </trkpt>
      <trkpt lat="42.1984" lon="0.89137">
        <ele>585</ele>
        <time>2023-07-23T10:29:49Z</time>
      </trkpt>
      <trkpt lat="42.19839" lon="0.89138">
        <ele>585.2</ele>
        <time>2023-07-23T10:29:50Z</time>
      </trkpt>
      <trkpt lat="42.19838" lon="0.8914">
        <ele>585.4</ele>
        <time>2023-07-23T10:29:51Z</time>
      </trkpt>
      <trkpt lat="42.19836" lon="0.89142">
        <ele>586</ele>
        <time>2023-07-23T10:29:52Z</time>
      </trkpt>
      <trkpt lat="42.19835" lon="0.89143">
        <ele>586</ele>
        <time>2023-07-23T10:29:53Z</time>
      </trkpt>
      <trkpt lat="42.19833" lon="0.89145">
        <ele>586.4</ele>
        <time>2023-07-23T10:29:54Z</time>
      </trkpt>
      <trkpt lat="42.19832" lon="0.89146">
        <ele>587</ele>
        <time>2023-07-23T10:29:55Z</time>
      </trkpt>
      <trkpt lat="42.19831" lon="0.89148">
        <ele>587.6</ele>
        <time>2023-07-23T10:29:56Z</time>
      </trkpt>
      <trkpt lat="42.19829" lon="0.8915">
        <ele>588</ele>
        <time>2023-07-23T10:29:57Z</time>
      </trkpt>
      <trkpt lat="42.19827" lon="0.89151">
        <ele>588.2</ele>
        <time>2023-07-23T10:29:58Z</time>
      </trkpt>
      <trkpt lat="42.19825" lon="0.89152">
        <ele>588.4</ele>
        <time>2023-07-23T10:29:59Z</time>
      </trkpt>
      <trkpt lat="42.19823" lon="0.89153">
        <ele>588.6</ele>
        <time>2023-07-23T10:30:00Z</time>
      </trkpt>
      <trkpt lat="42.19821" lon="0.89155">
        <ele>588.8</ele>
        <time>2023-07-23T10:30:01Z</time>
      </trkpt>
      <trkpt lat="42.19819" lon="0.89156">
        <ele>589</ele>
        <time>2023-07-23T10:30:02Z</time>
      </trkpt>
      <trkpt lat="42.19817" lon="0.89156">
        <ele>589.2</ele>
        <time>2023-07-23T10:30:03Z</time>
      </trkpt>
      <trkpt lat="42.19815" lon="0.89157">
        <ele>589.4</ele>
        <time>2023-07-23T10:30:04Z</time>
      </trkpt>
      <trkpt lat="42.19813" lon="0.89158">
        <ele>589.6</ele>
        <time>2023-07-23T10:30:05Z</time>
      </trkpt>
      <trkpt lat="42.19811" lon="0.89158">
        <ele>590</ele>
        <time>2023-07-23T10:30:06Z</time>
      </trkpt>
      <trkpt lat="42.19809" lon="0.89158">
        <ele>590.6</ele>
        <time>2023-07-23T10:30:07Z</time>
      </trkpt>
      <trkpt lat="42.19807" lon="0.89159">
        <ele>590.8</ele>
        <time>2023-07-23T10:30:08Z</time>
      </trkpt>
      <trkpt lat="42.19805" lon="0.89159">
        <ele>591</ele>
        <time>2023-07-23T10:30:09Z</time>
      </trkpt>
      <trkpt lat="42.19804" lon="0.8916">
        <ele>591.2</ele>
        <time>2023-07-23T10:30:10Z</time>
      </trkpt>
      <trkpt lat="42.19802" lon="0.8916">
        <ele>591.4</ele>
        <time>2023-07-23T10:30:11Z</time>
      </trkpt>
      <trkpt lat="42.19799" lon="0.89159">
        <ele>591.8</ele>
        <time>2023-07-23T10:30:12Z</time>
      </trkpt>
      <trkpt lat="42.19797" lon="0.89158">
        <ele>591.8</ele>
        <time>2023-07-23T10:30:13Z</time>
      </trkpt>
      <trkpt lat="42.19796" lon="0.89157">
        <ele>592</ele>
        <time>2023-07-23T10:30:14Z</time>
      </trkpt>
      <trkpt lat="42.19794" lon="0.89156">
        <ele>592.2</ele>
        <time>2023-07-23T10:30:15Z</time>
      </trkpt>
      <trkpt lat="42.19792" lon="0.89155">
        <ele>592.4</ele>
        <time>2023-07-23T10:30:16Z</time>
      </trkpt>
      <trkpt lat="42.1979" lon="0.89154">
        <ele>592.6</ele>
        <time>2023-07-23T10:30:17Z</time>
      </trkpt>
      <trkpt lat="42.19788" lon="0.89153">
        <ele>592.8</ele>
        <time>2023-07-23T10:30:18Z</time>
      </trkpt>
      <trkpt lat="42.19786" lon="0.89152">
        <ele>593.2</ele>
        <time>2023-07-23T10:30:19Z</time>
      </trkpt>
      <trkpt lat="42.19783" lon="0.89151">
        <ele>593.4</ele>
        <time>2023-07-23T10:30:20Z</time>
      </trkpt>
      <trkpt lat="42.19781" lon="0.89149">
        <ele>593.6</ele>
        <time>2023-07-23T10:30:21Z</time>
      </trkpt>
      <trkpt lat="42.19778" lon="0.89147">
        <ele>593.6</ele>
        <time>2023-07-23T10:30:22Z</time>
      </trkpt>
      <trkpt lat="42.19776" lon="0.89145">
        <ele>593.8</ele>
        <time>2023-07-23T10:30:23Z</time>
      </trkpt>
      <trkpt lat="42.19774" lon="0.89143">
        <ele>593.8</ele>
        <time>2023-07-23T10:30:24Z</time>
      </trkpt>
      <trkpt lat="42.19772" lon="0.8914">
        <ele>593.8</ele>
        <time>2023-07-23T10:30:25Z</time>
      </trkpt>
      <trkpt lat="42.19769" lon="0.89138">
        <ele>593.8</ele>
        <time>2023-07-23T10:30:26Z</time>
      </trkpt>
      <trkpt lat="42.19767" lon="0.89136">
        <ele>593.8</ele>
        <time>2023-07-23T10:30:27Z</time>
      </trkpt>
      <trkpt lat="42.19764" lon="0.89133">
        <ele>594</ele>
        <time>2023-07-23T10:30:28Z</time>
      </trkpt>
      <trkpt lat="42.19761" lon="0.89131">
        <ele>594.2</ele>
        <time>2023-07-23T10:30:29Z</time>
      </trkpt>
      <trkpt lat="42.19758" lon="0.89129">
        <ele>594.4</ele>
        <time>2023-07-23T10:30:30Z</time>
      </trkpt>
      <trkpt lat="42.19755" lon="0.89126">
        <ele>594.4</ele>
        <time>2023-07-23T10:30:31Z</time>
      </trkpt>
      <trkpt lat="42.19753" lon="0.89124">
        <ele>594.6</ele>
        <time>2023-07-23T10:30:32Z</time>
      </trkpt>
      <trkpt lat="42.19751" lon="0.89121">
        <ele>594.8</ele>
        <time>2023-07-23T10:30:33Z</time>
      </trkpt>
      <trkpt lat="42.19749" lon="0.89119">
        <ele>594.8</ele>
        <time>2023-07-23T10:30:34Z</time>
      </trkpt>
      <trkpt lat="42.19747" lon="0.89117">
        <ele>594.8</ele>
        <time>2023-07-23T10:30:35Z</time>
      </trkpt>
      <trkpt lat="42.19745" lon="0.89117">
        <ele>595</ele>
        <time>2023-07-23T10:30:36Z</time>
      </trkpt>
      <trkpt lat="42.19743" lon="0.89118">
        <ele>595</ele>
        <time>2023-07-23T10:30:37Z</time>
      </trkpt>
      <trkpt lat="42.19742" lon="0.8912">
        <ele>595.2</ele>
        <time>2023-07-23T10:30:38Z</time>
      </trkpt>
      <trkpt lat="42.19741" lon="0.89122">
        <ele>595.6</ele>
        <time>2023-07-23T10:30:39Z</time>
      </trkpt>
      <trkpt lat="42.19741" lon="0.89125">
        <ele>595.6</ele>
        <time>2023-07-23T10:30:40Z</time>
      </trkpt>
      <trkpt lat="42.1974" lon="0.89127">
        <ele>595.6</ele>
        <time>2023-07-23T10:30:41Z</time>
      </trkpt>
      <trkpt lat="42.19739" lon="0.89129">
        <ele>595.8</ele>
        <time>2023-07-23T10:30:42Z</time>
      </trkpt>
      <trkpt lat="42.19737" lon="0.8913">
        <ele>595.8</ele>
        <time>2023-07-23T10:30:43Z</time>
      </trkpt>
      <trkpt lat="42.19736" lon="0.8913">
        <ele>595.8</ele>
        <time>2023-07-23T10:30:44Z</time>
      </trkpt>
      <trkpt lat="42.19734" lon="0.8913">
        <ele>595.8</ele>
        <time>2023-07-23T10:30:45Z</time>
      </trkpt>
      <trkpt lat="42.19733" lon="0.8913">
        <ele>596.2</ele>
        <time>2023-07-23T10:30:46Z</time>
      </trkpt>
      <trkpt lat="42.19731" lon="0.89129">
        <ele>596.4</ele>
        <time>2023-07-23T10:30:47Z</time>
      </trkpt>
      <trkpt lat="42.19729" lon="0.89129">
        <ele>596.6</ele>
        <time>2023-07-23T10:30:48Z</time>
      </trkpt>
      <trkpt lat="42.19727" lon="0.89128">
        <ele>596.8</ele>
        <time>2023-07-23T10:30:49Z</time>
      </trkpt>
      <trkpt lat="42.19726" lon="0.89129">
        <ele>597</ele>
        <time>2023-07-23T10:30:50Z</time>
      </trkpt>
      <trkpt lat="42.19724" lon="0.89129">
        <ele>597.4</ele>
        <time>2023-07-23T10:30:51Z</time>
      </trkpt>
      <trkpt lat="42.19722" lon="0.8913">
        <ele>597.6</ele>
        <time>2023-07-23T10:30:52Z</time>
      </trkpt>
      <trkpt lat="42.1972" lon="0.89131">
        <ele>598</ele>
        <time>2023-07-23T10:30:53Z</time>
      </trkpt>
      <trkpt lat="42.19719" lon="0.89132">
        <ele>598.4</ele>
        <time>2023-07-23T10:30:54Z</time>
      </trkpt>
      <trkpt lat="42.19717" lon="0.89134">
        <ele>598.6</ele>
        <time>2023-07-23T10:30:55Z</time>
      </trkpt>
      <trkpt lat="42.19715" lon="0.89134">
        <ele>598.8</ele>
        <time>2023-07-23T10:30:56Z</time>
      </trkpt>
      <trkpt lat="42.19713" lon="0.89135">
        <ele>599.2</ele>
        <time>2023-07-23T10:30:57Z</time>
      </trkpt>
      <trkpt lat="42.19711" lon="0.89135">
        <ele>599.6</ele>
        <time>2023-07-23T10:30:58Z</time>
      </trkpt>
      <trkpt lat="42.19709" lon="0.89135">
        <ele>599.6</ele>
        <time>2023-07-23T10:30:59Z</time>
      </trkpt>
      <trkpt lat="42.19707" lon="0.89135">
        <ele>600</ele>
        <time>2023-07-23T10:31:00Z</time>
      </trkpt>
      <trkpt lat="42.19705" lon="0.89134">
        <ele>600.2</ele>
        <time>2023-07-23T10:31:01Z</time>
      </trkpt>
      <trkpt lat="42.19704" lon="0.89134">
        <ele>600.4</ele>
        <time>2023-07-23T10:31:02Z</time>
      </trkpt>
      <trkpt lat="42.19702" lon="0.89134">
        <ele>600.6</ele>
        <time>2023-07-23T10:31:03Z</time>
      </trkpt>
      <trkpt lat="42.197" lon="0.89133">
        <ele>601</ele>
        <time>2023-07-23T10:31:04Z</time>
      </trkpt>
      <trkpt lat="42.19698" lon="0.89133">
        <ele>601.4</ele>
        <time>2023-07-23T10:31:05Z</time>
      </trkpt>
      <trkpt lat="42.19696" lon="0.89133">
        <ele>601.6</ele>
        <time>2023-07-23T10:31:06Z</time>
      </trkpt>
      <trkpt lat="42.19695" lon="0.89133">
        <ele>602</ele>
        <time>2023-07-23T10:31:07Z</time>
      </trkpt>
      <trkpt lat="42.19693" lon="0.89134">
        <ele>602.4</ele>
        <time>2023-07-23T10:31:08Z</time>
      </trkpt>
      <trkpt lat="42.19692" lon="0.89135">
        <ele>602.6</ele>
        <time>2023-07-23T10:31:09Z</time>
      </trkpt>
      <trkpt lat="42.1969" lon="0.89137">
        <ele>603</ele>
        <time>2023-07-23T10:31:10Z</time>
      </trkpt>
      <trkpt lat="42.19688" lon="0.89137">
        <ele>603.2</ele>
        <time>2023-07-23T10:31:11Z</time>
      </trkpt>
      <trkpt lat="42.19686" lon="0.89138">
        <ele>603.4</ele>
        <time>2023-07-23T10:31:12Z</time>
      </trkpt>
      <trkpt lat="42.19685" lon="0.89139">
        <ele>603.8</ele>
        <time>2023-07-23T10:31:13Z</time>
      </trkpt>
      <trkpt lat="42.19683" lon="0.89141">
        <ele>604</ele>
        <time>2023-07-23T10:31:14Z</time>
      </trkpt>
      <trkpt lat="42.19682" lon="0.89141">
        <ele>604.4</ele>
        <time>2023-07-23T10:31:15Z</time>
      </trkpt>
      <trkpt lat="42.1968" lon="0.89142">
        <ele>604.8</ele>
        <time>2023-07-23T10:31:16Z</time>
      </trkpt>
      <trkpt lat="42.19679" lon="0.89143">
        <ele>605.4</ele>
        <time>2023-07-23T10:31:17Z</time>
      </trkpt>
      <trkpt lat="42.19678" lon="0.89144">
        <ele>605.8</ele>
        <time>2023-07-23T10:31:18Z</time>
      </trkpt>
      <trkpt lat="42.19676" lon="0.89146">
        <ele>606.4</ele>
        <time>2023-07-23T10:31:19Z</time>
      </trkpt>
      <trkpt lat="42.19675" lon="0.89147">
        <ele>607</ele>
        <time>2023-07-23T10:31:20Z</time>
      </trkpt>
      <trkpt lat="42.19674" lon="0.89148">
        <ele>607.2</ele>
        <time>2023-07-23T10:31:21Z</time>
      </trkpt>
      <trkpt lat="42.19673" lon="0.89148">
        <ele>608</ele>
        <time>2023-07-23T10:31:22Z</time>
      </trkpt>
      <trkpt lat="42.19673" lon="0.89148">
        <ele>608.2</ele>
        <time>2023-07-23T10:31:23Z</time>
      </trkpt>
      <trkpt lat="42.19673" lon="0.89148">
        <ele>608.6</ele>
        <time>2023-07-23T10:31:24Z</time>
      </trkpt>
      <trkpt lat="42.19661" lon="0.89093">
        <ele>624.8</ele>
        <time>2023-07-23T10:34:49Z</time>
      </trkpt>
      <trkpt lat="42.19661" lon="0.8909">
        <ele>625</ele>
        <time>2023-07-23T10:34:50Z</time>
      </trkpt>
      <trkpt lat="42.19661" lon="0.89087">
        <ele>625</ele>
        <time>2023-07-23T10:34:51Z</time>
      </trkpt>
      <trkpt lat="42.19662" lon="0.89084">
        <ele>625</ele>
        <time>2023-07-23T10:34:52Z</time>
      </trkpt>
      <trkpt lat="42.19663" lon="0.89081">
        <ele>625.2</ele>
        <time>2023-07-23T10:34:53Z</time>
      </trkpt>
      <trkpt lat="42.19663" lon="0.89079">
        <ele>625.2</ele>
        <time>2023-07-23T10:34:54Z</time>
      </trkpt>
      <trkpt lat="42.19662" lon="0.89077">
        <ele>625.4</ele>
        <time>2023-07-23T10:34:55Z</time>
      </trkpt>
      <trkpt lat="42.19661" lon="0.89076">
        <ele>625.6</ele>
        <time>2023-07-23T10:34:56Z</time>
      </trkpt>
      <trkpt lat="42.1966" lon="0.89077">
        <ele>625.6</ele>
        <time>2023-07-23T10:34:57Z</time>
      </trkpt>
      <trkpt lat="42.19659" lon="0.89079">
        <ele>625.8</ele>
        <time>2023-07-23T10:34:58Z</time>
      </trkpt>
      <trkpt lat="42.19657" lon="0.89081">
        <ele>626</ele>
        <time>2023-07-23T10:34:59Z</time>
      </trkpt>
      <trkpt lat="42.19656" lon="0.89083">
        <ele>626.4</ele>
        <time>2023-07-23T10:35:00Z</time>
      </trkpt>
      <trkpt lat="42.19655" lon="0.89085">
        <ele>626.8</ele>
        <time>2023-07-23T10:35:01Z</time>
      </trkpt>
      <trkpt lat="42.19654" lon="0.89088">
        <ele>627</ele>
        <time>2023-07-23T10:35:02Z</time>
      </trkpt>
      <trkpt lat="42.19653" lon="0.8909">
        <ele>627.6</ele>
        <time>2023-07-23T10:35:03Z</time>
      </trkpt>
      <trkpt lat="42.19652" lon="0.89092">
        <ele>627.8</ele>
        <time>2023-07-23T10:35:04Z</time>
      </trkpt>
      <trkpt lat="42.1965" lon="0.89094">
        <ele>628.4</ele>
        <time>2023-07-23T10:35:05Z</time>
      </trkpt>
      <trkpt lat="42.19649" lon="0.89096">
        <ele>629</ele>
        <time>2023-07-23T10:35:06Z</time>
      </trkpt>
      <trkpt lat="42.19648" lon="0.89098">
        <ele>629.2</ele>
        <time>2023-07-23T10:35:07Z</time>
      </trkpt>
      <trkpt lat="42.19646" lon="0.89098">
        <ele>629.4</ele>
        <time>2023-07-23T10:35:08Z</time>
      </trkpt>
      <trkpt lat="42.19645" lon="0.89099">
        <ele>629.8</ele>
        <time>2023-07-23T10:35:09Z</time>
      </trkpt>
      <trkpt lat="42.19643" lon="0.891">
        <ele>630.4</ele>
        <time>2023-07-23T10:35:10Z</time>
      </trkpt>
      <trkpt lat="42.19643" lon="0.89101">
        <ele>630.8</ele>
        <time>2023-07-23T10:35:11Z</time>
      </trkpt>
      <trkpt lat="42.19643" lon="0.89101">
        <ele>631</ele>
        <time>2023-07-23T10:35:12Z</time>
      </trkpt>
      <trkpt lat="42.19643" lon="0.89101">
        <ele>631.4</ele>
        <time>2023-07-23T10:35:13Z</time>
      </trkpt>
      <trkpt lat="42.19618" lon="0.89116">
        <ele>636.2</ele>
        <time>2023-07-23T10:36:06Z</time>
      </trkpt>
      <trkpt lat="42.19615" lon="0.89117">
        <ele>636.2</ele>
        <time>2023-07-23T10:36:07Z</time>
      </trkpt>
      <trkpt lat="42.19613" lon="0.89117">
        <ele>636.2</ele>
        <time>2023-07-23T10:36:08Z</time>
      </trkpt>
      <trkpt lat="42.19611" lon="0.89118">
        <ele>636.2</ele>
        <time>2023-07-23T10:36:09Z</time>
      </trkpt>
      <trkpt lat="42.19609" lon="0.89119">
        <ele>636.4</ele>
        <time>2023-07-23T10:36:10Z</time>
      </trkpt>
      <trkpt lat="42.19606" lon="0.89119">
        <ele>636.4</ele>
        <time>2023-07-23T10:36:11Z</time>
      </trkpt>
      <trkpt lat="42.19603" lon="0.8912">
        <ele>636.4</ele>
        <time>2023-07-23T10:36:12Z</time>
      </trkpt>
      <trkpt lat="42.19601" lon="0.89121">
        <ele>636.4</ele>
        <time>2023-07-23T10:36:13Z</time>
      </trkpt>
      <trkpt lat="42.19598" lon="0.89123">
        <ele>636.4</ele>
        <time>2023-07-23T10:36:14Z</time>
      </trkpt>
      <trkpt lat="42.19595" lon="0.89124">
        <ele>636.2</ele>
        <time>2023-07-23T10:36:15Z</time>
      </trkpt>
      <trkpt lat="42.19592" lon="0.89126">
        <ele>636.2</ele>
        <time>2023-07-23T10:36:16Z</time>
      </trkpt>
      <trkpt lat="42.19589" lon="0.89129">
        <ele>636.2</ele>
        <time>2023-07-23T10:36:17Z</time>
      </trkpt>
      <trkpt lat="42.19585" lon="0.89131">
        <ele>636.2</ele>
        <time>2023-07-23T10:36:18Z</time>
      </trkpt>
      <trkpt lat="42.19581" lon="0.89134">
        <ele>636.2</ele>
        <time>2023-07-23T10:36:19Z</time>
      </trkpt>
      <trkpt lat="42.19577" lon="0.89138">
        <ele>636.2</ele>
        <time>2023-07-23T10:36:20Z</time>
      </trkpt>
      <trkpt lat="42.19573" lon="0.89141">
        <ele>636.2</ele>
        <time>2023-07-23T10:36:21Z</time>
      </trkpt>
      <trkpt lat="42.1957" lon="0.89144">
        <ele>636</ele>
        <time>2023-07-23T10:36:22Z</time>
      </trkpt>
      <trkpt lat="42.19567" lon="0.89147">
        <ele>636</ele>
        <time>2023-07-23T10:36:23Z</time>
      </trkpt>
      <trkpt lat="42.19564" lon="0.8915">
        <ele>635.8</ele>
        <time>2023-07-23T10:36:24Z</time>
      </trkpt>
      <trkpt lat="42.19561" lon="0.89154">
        <ele>635.8</ele>
        <time>2023-07-23T10:36:25Z</time>
      </trkpt>
      <trkpt lat="42.19558" lon="0.89158">
        <ele>635.6</ele>
        <time>2023-07-23T10:36:26Z</time>
      </trkpt>
      <trkpt lat="42.19555" lon="0.89161">
        <ele>635.6</ele>
        <time>2023-07-23T10:36:27Z</time>
      </trkpt>
      <trkpt lat="42.19552" lon="0.89165">
        <ele>635.4</ele>
        <time>2023-07-23T10:36:28Z</time>
      </trkpt>
      <trkpt lat="42.19548" lon="0.8917">
        <ele>635.2</ele>
        <time>2023-07-23T10:36:29Z</time>
      </trkpt>
      <trkpt lat="42.19545" lon="0.89174">
        <ele>633.8</ele>
        <time>2023-07-23T10:36:30Z</time>
      </trkpt>
      <trkpt lat="42.19542" lon="0.89179">
        <ele>633.2</ele>
        <time>2023-07-23T10:36:31Z</time>
      </trkpt>
      <trkpt lat="42.19538" lon="0.89184">
        <ele>632.6</ele>
        <time>2023-07-23T10:36:32Z</time>
      </trkpt>
      <trkpt lat="42.19534" lon="0.8919">
        <ele>632.4</ele>
        <time>2023-07-23T10:36:33Z</time>
      </trkpt>
      <trkpt lat="42.19531" lon="0.89194">
        <ele>631.8</ele>
        <time>2023-07-23T10:36:34Z</time>
      </trkpt>
      <trkpt lat="42.19527" lon="0.89199">
        <ele>631.4</ele>
        <time>2023-07-23T10:36:35Z</time>
      </trkpt>
      <trkpt lat="42.19522" lon="0.89205">
        <ele>631.4</ele>
        <time>2023-07-23T10:36:36Z</time>
      </trkpt>
      <trkpt lat="42.19518" lon="0.8921">
        <ele>631</ele>
        <time>2023-07-23T10:36:37Z</time>
      </trkpt>
      <trkpt lat="42.19513" lon="0.89215">
        <ele>631</ele>
        <time>2023-07-23T10:36:38Z</time>
      </trkpt>
      <trkpt lat="42.19508" lon="0.89219">
        <ele>630.2</ele>
        <time>2023-07-23T10:36:39Z</time>
      </trkpt>
      <trkpt lat="42.19503" lon="0.89224">
        <ele>629.4</ele>
        <time>2023-07-23T10:36:40Z</time>
      </trkpt>
      <trkpt lat="42.19498" lon="0.89228">
        <ele>629</ele>
        <time>2023-07-23T10:36:41Z</time>
      </trkpt>
      <trkpt lat="42.19492" lon="0.89231">
        <ele>628.6</ele>
        <time>2023-07-23T10:36:42Z</time>
      </trkpt>
      <trkpt lat="42.19486" lon="0.89234">
        <ele>628.2</ele>
        <time>2023-07-23T10:36:43Z</time>
      </trkpt>
      <trkpt lat="42.19481" lon="0.89237">
        <ele>627.6</ele>
        <time>2023-07-23T10:36:44Z</time>
      </trkpt>
      <trkpt lat="42.19476" lon="0.89238">
        <ele>627.4</ele>
        <time>2023-07-23T10:36:45Z</time>
      </trkpt>
      <trkpt lat="42.19471" lon="0.89239">
        <ele>626.8</ele>
        <time>2023-07-23T10:36:46Z</time>
      </trkpt>
      <trkpt lat="42.19466" lon="0.89241">
        <ele>626.6</ele>
        <time>2023-07-23T10:36:47Z</time>
      </trkpt>
      <trkpt lat="42.19463" lon="0.89242">
        <ele>626.4</ele>
        <time>2023-07-23T10:36:48Z</time>
      </trkpt>
      <trkpt lat="42.1946" lon="0.89243">
        <ele>626.4</ele>
        <time>2023-07-23T10:36:49Z</time>
      </trkpt>
      <trkpt lat="42.19457" lon="0.89244">
        <ele>626.4</ele>
        <time>2023-07-23T10:36:50Z</time>
      </trkpt>
      <trkpt lat="42.19454" lon="0.89245">
        <ele>626.4</ele>
        <time>2023-07-23T10:36:51Z</time>
      </trkpt>
      <trkpt lat="42.19451" lon="0.89245">
        <ele>626.4</ele>
        <time>2023-07-23T10:36:52Z</time>
      </trkpt>
      <trkpt lat="42.19448" lon="0.89246">
        <ele>626.4</ele>
        <time>2023-07-23T10:36:53Z</time>
      </trkpt>
      <trkpt lat="42.19446" lon="0.89247">
        <ele>626.6</ele>
        <time>2023-07-23T10:36:54Z</time>
      </trkpt>
      <trkpt lat="42.19444" lon="0.89248">
        <ele>626.6</ele>
        <time>2023-07-23T10:36:55Z</time>
      </trkpt>
      <trkpt lat="42.19442" lon="0.89249">
        <ele>627.2</ele>
        <time>2023-07-23T10:36:56Z</time>
      </trkpt>
      <trkpt lat="42.19439" lon="0.89249">
        <ele>627.4</ele>
        <time>2023-07-23T10:36:57Z</time>
      </trkpt>
      <trkpt lat="42.19437" lon="0.8925">
        <ele>627.6</ele>
        <time>2023-07-23T10:36:58Z</time>
      </trkpt>
      <trkpt lat="42.19435" lon="0.89252">
        <ele>627.8</ele>
        <time>2023-07-23T10:36:59Z</time>
      </trkpt>
      <trkpt lat="42.19433" lon="0.89255">
        <ele>627.8</ele>
        <time>2023-07-23T10:37:00Z</time>
      </trkpt>
      <trkpt lat="42.19431" lon="0.89258">
        <ele>627.8</ele>
        <time>2023-07-23T10:37:01Z</time>
      </trkpt>
      <trkpt lat="42.19428" lon="0.89261">
        <ele>628</ele>
        <time>2023-07-23T10:37:02Z</time>
      </trkpt>
      <trkpt lat="42.19426" lon="0.89264">
        <ele>628</ele>
        <time>2023-07-23T10:37:03Z</time>
      </trkpt>
      <trkpt lat="42.19423" lon="0.89266">
        <ele>628</ele>
        <time>2023-07-23T10:37:04Z</time>
      </trkpt>
      <trkpt lat="42.19421" lon="0.89267">
        <ele>628</ele>
        <time>2023-07-23T10:37:05Z</time>
      </trkpt>
      <trkpt lat="42.19418" lon="0.89268">
        <ele>628.2</ele>
        <time>2023-07-23T10:37:06Z</time>
      </trkpt>
      <trkpt lat="42.19416" lon="0.89267">
        <ele>628</ele>
        <time>2023-07-23T10:37:07Z</time>
      </trkpt>
      <trkpt lat="42.19414" lon="0.89265">
        <ele>628</ele>
        <time>2023-07-23T10:37:08Z</time>
      </trkpt>
      <trkpt lat="42.19413" lon="0.89262">
        <ele>628</ele>
        <time>2023-07-23T10:37:09Z</time>
      </trkpt>
      <trkpt lat="42.19413" lon="0.89259">
        <ele>628</ele>
        <time>2023-07-23T10:37:10Z</time>
      </trkpt>
      <trkpt lat="42.19412" lon="0.89256">
        <ele>628</ele>
        <time>2023-07-23T10:37:11Z</time>
      </trkpt>
      <trkpt lat="42.19412" lon="0.89252">
        <ele>627.8</ele>
        <time>2023-07-23T10:37:12Z</time>
      </trkpt>
      <trkpt lat="42.19413" lon="0.89248">
        <ele>627.6</ele>
        <time>2023-07-23T10:37:13Z</time>
      </trkpt>
      <trkpt lat="42.19413" lon="0.89243">
        <ele>627.2</ele>
        <time>2023-07-23T10:37:14Z</time>
      </trkpt>
      <trkpt lat="42.19413" lon="0.89239">
        <ele>627.2</ele>
        <time>2023-07-23T10:37:15Z</time>
      </trkpt>
      <trkpt lat="42.19414" lon="0.89234">
        <ele>626.8</ele>
        <time>2023-07-23T10:37:16Z</time>
      </trkpt>
      <trkpt lat="42.19414" lon="0.89229">
        <ele>626.8</ele>
        <time>2023-07-23T10:37:17Z</time>
      </trkpt>
      <trkpt lat="42.19415" lon="0.89225">
        <ele>626.8</ele>
        <time>2023-07-23T10:37:18Z</time>
      </trkpt>
      <trkpt lat="42.19414" lon="0.8922">
        <ele>626.6</ele>
        <time>2023-07-23T10:37:19Z</time>
      </trkpt>
      <trkpt lat="42.19414" lon="0.89215">
        <ele>626.4</ele>
        <time>2023-07-23T10:37:20Z</time>
      </trkpt>
      <trkpt lat="42.19415" lon="0.8921">
        <ele>626.4</ele>
        <time>2023-07-23T10:37:21Z</time>
      </trkpt>
      <trkpt lat="42.19415" lon="0.89205">
        <ele>626.6</ele>
        <time>2023-07-23T10:37:22Z</time>
      </trkpt>
      <trkpt lat="42.19415" lon="0.89199">
        <ele>626.4</ele>
        <time>2023-07-23T10:37:23Z</time>
      </trkpt>
      <trkpt lat="42.19414" lon="0.89194">
        <ele>626.4</ele>
        <time>2023-07-23T10:37:24Z</time>
      </trkpt>
      <trkpt lat="42.19414" lon="0.89187">
        <ele>626.6</ele>
        <time>2023-07-23T10:37:25Z</time>
      </trkpt>
      <trkpt lat="42.19413" lon="0.89181">
        <ele>626.4</ele>
        <time>2023-07-23T10:37:26Z</time>
      </trkpt>
      <trkpt lat="42.19411" lon="0.89174">
        <ele>626.4</ele>
        <time>2023-07-23T10:37:27Z</time>
      </trkpt>
      <trkpt lat="42.19409" lon="0.89168">
        <ele>626.4</ele>
        <time>2023-07-23T10:37:28Z</time>
      </trkpt>
      <trkpt lat="42.19408" lon="0.89161">
        <ele>626.4</ele>
        <time>2023-07-23T10:37:29Z</time>
      </trkpt>
      <trkpt lat="42.19405" lon="0.89153">
        <ele>626.2</ele>
        <time>2023-07-23T10:37:30Z</time>
      </trkpt>
      <trkpt lat="42.19403" lon="0.8915">
        <ele>626</ele>
        <time>2023-07-23T10:37:31Z</time>
      </trkpt>
      <trkpt lat="42.194" lon="0.89146">
        <ele>625.8</ele>
        <time>2023-07-23T10:37:32Z</time>
      </trkpt>
      <trkpt lat="42.19397" lon="0.89144">
        <ele>625.6</ele>
        <time>2023-07-23T10:37:33Z</time>
      </trkpt>
      <trkpt lat="42.19392" lon="0.89144">
        <ele>625.4</ele>
        <time>2023-07-23T10:37:34Z</time>
      </trkpt>
      <trkpt lat="42.19388" lon="0.89145">
        <ele>625.4</ele>
        <time>2023-07-23T10:37:35Z</time>
      </trkpt>
      <trkpt lat="42.19384" lon="0.89148">
        <ele>625</ele>
        <time>2023-07-23T10:37:36Z</time>
      </trkpt>
      <trkpt lat="42.1938" lon="0.89152">
        <ele>625</ele>
        <time>2023-07-23T10:37:37Z</time>
      </trkpt>
      <trkpt lat="42.19377" lon="0.89155">
        <ele>624.8</ele>
        <time>2023-07-23T10:37:38Z</time>
      </trkpt>
      <trkpt lat="42.19374" lon="0.89159">
        <ele>624.8</ele>
        <time>2023-07-23T10:37:39Z</time>
      </trkpt>
      <trkpt lat="42.19371" lon="0.89162">
        <ele>624.6</ele>
        <time>2023-07-23T10:37:40Z</time>
      </trkpt>
      <trkpt lat="42.19368" lon="0.89165">
        <ele>624.6</ele>
        <time>2023-07-23T10:37:41Z</time>
      </trkpt>
      <trkpt lat="42.19365" lon="0.89167">
        <ele>624.6</ele>
        <time>2023-07-23T10:37:42Z</time>
      </trkpt>
      <trkpt lat="42.19362" lon="0.8917">
        <ele>624.4</ele>
        <time>2023-07-23T10:37:43Z</time>
      </trkpt>
      <trkpt lat="42.19358" lon="0.89173">
        <ele>624.2</ele>
        <time>2023-07-23T10:37:44Z</time>
      </trkpt>
      <trkpt lat="42.19355" lon="0.89176">
        <ele>624.2</ele>
        <time>2023-07-23T10:37:45Z</time>
      </trkpt>
      <trkpt lat="42.19352" lon="0.89179">
        <ele>624</ele>
        <time>2023-07-23T10:37:46Z</time>
      </trkpt>
      <trkpt lat="42.19348" lon="0.89182">
        <ele>623.8</ele>
        <time>2023-07-23T10:37:47Z</time>
      </trkpt>
      <trkpt lat="42.19344" lon="0.89186">
        <ele>623.8</ele>
        <time>2023-07-23T10:37:48Z</time>
      </trkpt>
      <trkpt lat="42.19341" lon="0.8919">
        <ele>623.8</ele>
        <time>2023-07-23T10:37:49Z</time>
      </trkpt>
      <trkpt lat="42.19337" lon="0.89194">
        <ele>623.8</ele>
        <time>2023-07-23T10:37:50Z</time>
      </trkpt>
      <trkpt lat="42.19334" lon="0.89198">
        <ele>623.6</ele>
        <time>2023-07-23T10:37:51Z</time>
      </trkpt>
      <trkpt lat="42.1933" lon="0.89202">
        <ele>623.4</ele>
        <time>2023-07-23T10:37:52Z</time>
      </trkpt>
      <trkpt lat="42.19326" lon="0.89206">
        <ele>623.2</ele>
        <time>2023-07-23T10:37:53Z</time>
      </trkpt>
      <trkpt lat="42.19323" lon="0.8921">
        <ele>623</ele>
        <time>2023-07-23T10:37:54Z</time>
      </trkpt>
      <trkpt lat="42.19319" lon="0.89215">
        <ele>623</ele>
        <time>2023-07-23T10:37:55Z</time>
      </trkpt>
      <trkpt lat="42.19316" lon="0.8922">
        <ele>622.8</ele>
        <time>2023-07-23T10:37:56Z</time>
      </trkpt>
      <trkpt lat="42.19313" lon="0.89225">
        <ele>622.8</ele>
        <time>2023-07-23T10:37:57Z</time>
      </trkpt>
      <trkpt lat="42.19309" lon="0.8923">
        <ele>622.6</ele>
        <time>2023-07-23T10:37:58Z</time>
      </trkpt>
      <trkpt lat="42.19305" lon="0.89235">
        <ele>622.6</ele>
        <time>2023-07-23T10:37:59Z</time>
      </trkpt>
      <trkpt lat="42.19302" lon="0.8924">
        <ele>622.4</ele>
        <time>2023-07-23T10:38:00Z</time>
      </trkpt>
      <trkpt lat="42.19298" lon="0.89245">
        <ele>622.4</ele>
        <time>2023-07-23T10:38:01Z</time>
      </trkpt>
      <trkpt lat="42.19294" lon="0.8925">
        <ele>622.4</ele>
        <time>2023-07-23T10:38:02Z</time>
      </trkpt>
      <trkpt lat="42.19291" lon="0.89254">
        <ele>622.2</ele>
        <time>2023-07-23T10:38:03Z</time>
      </trkpt>
      <trkpt lat="42.19287" lon="0.89259">
        <ele>622</ele>
        <time>2023-07-23T10:38:04Z</time>
      </trkpt>
      <trkpt lat="42.19284" lon="0.89263">
        <ele>622</ele>
        <time>2023-07-23T10:38:05Z</time>
      </trkpt>
      <trkpt lat="42.1928" lon="0.89268">
        <ele>622</ele>
        <time>2023-07-23T10:38:06Z</time>
      </trkpt>
      <trkpt lat="42.19277" lon="0.89272">
        <ele>621.8</ele>
        <time>2023-07-23T10:38:07Z</time>
      </trkpt>
      <trkpt lat="42.19273" lon="0.89277">
        <ele>621.6</ele>
        <time>2023-07-23T10:38:08Z</time>
      </trkpt>
      <trkpt lat="42.19268" lon="0.89281">
        <ele>621.4</ele>
        <time>2023-07-23T10:38:09Z</time>
      </trkpt>
      <trkpt lat="42.19264" lon="0.89285">
        <ele>621.2</ele>
        <time>2023-07-23T10:38:10Z</time>
      </trkpt>
      <trkpt lat="42.1926" lon="0.89289">
        <ele>621</ele>
        <time>2023-07-23T10:38:11Z</time>
      </trkpt>
      <trkpt lat="42.19255" lon="0.89293">
        <ele>620.8</ele>
        <time>2023-07-23T10:38:12Z</time>
      </trkpt>
      <trkpt lat="42.19251" lon="0.89297">
        <ele>620.8</ele>
        <time>2023-07-23T10:38:13Z</time>
      </trkpt>
      <trkpt lat="42.19247" lon="0.89302">
        <ele>620.8</ele>
        <time>2023-07-23T10:38:14Z</time>
      </trkpt>
      <trkpt lat="42.19244" lon="0.89307">
        <ele>620.8</ele>
        <time>2023-07-23T10:38:15Z</time>
      </trkpt>
      <trkpt lat="42.1924" lon="0.89312">
        <ele>620.6</ele>
        <time>2023-07-23T10:38:16Z</time>
      </trkpt>
      <trkpt lat="42.19236" lon="0.89317">
        <ele>620.6</ele>
        <time>2023-07-23T10:38:17Z</time>
      </trkpt>
      <trkpt lat="42.19233" lon="0.89323">
        <ele>620.4</ele>
        <time>2023-07-23T10:38:18Z</time>
      </trkpt>
      <trkpt lat="42.1923" lon="0.89328">
        <ele>620.4</ele>
        <time>2023-07-23T10:38:19Z</time>
      </trkpt>
      <trkpt lat="42.19227" lon="0.89333">
        <ele>620.2</ele>
        <time>2023-07-23T10:38:20Z</time>
      </trkpt>
      <trkpt lat="42.19223" lon="0.89339">
        <ele>620.4</ele>
        <time>2023-07-23T10:38:21Z</time>
      </trkpt>
      <trkpt lat="42.1922" lon="0.89344">
        <ele>620.2</ele>
        <time>2023-07-23T10:38:22Z</time>
      </trkpt>
      <trkpt lat="42.19217" lon="0.89348">
        <ele>620.2</ele>
        <time>2023-07-23T10:38:23Z</time>
      </trkpt>
      <trkpt lat="42.19214" lon="0.89354">
        <ele>620.2</ele>
        <time>2023-07-23T10:38:24Z</time>
      </trkpt>
      <trkpt lat="42.19211" lon="0.89359">
        <ele>620.2</ele>
        <time>2023-07-23T10:38:25Z</time>
      </trkpt>
      <trkpt lat="42.19208" lon="0.89365">
        <ele>620</ele>
        <time>2023-07-23T10:38:26Z</time>
      </trkpt>
      <trkpt lat="42.19204" lon="0.89371">
        <ele>620</ele>
        <time>2023-07-23T10:38:27Z</time>
      </trkpt>
      <trkpt lat="42.19201" lon="0.89377">
        <ele>620</ele>
        <time>2023-07-23T10:38:28Z</time>
      </trkpt>
      <trkpt lat="42.19198" lon="0.89383">
        <ele>619.8</ele>
        <time>2023-07-23T10:38:29Z</time>
      </trkpt>
      <trkpt lat="42.19195" lon="0.89389">
        <ele>619.8</ele>
        <time>2023-07-23T10:38:30Z</time>
      </trkpt>
      <trkpt lat="42.19192" lon="0.89395">
        <ele>619.6</ele>
        <time>2023-07-23T10:38:31Z</time>
      </trkpt>
      <trkpt lat="42.19188" lon="0.894">
        <ele>619.6</ele>
        <time>2023-07-23T10:38:32Z</time>
      </trkpt>
      <trkpt lat="42.19184" lon="0.89405">
        <ele>619.4</ele>
        <time>2023-07-23T10:38:33Z</time>
      </trkpt>
      <trkpt lat="42.19181" lon="0.8941">
        <ele>619.4</ele>
        <time>2023-07-23T10:38:34Z</time>
      </trkpt>
      <trkpt lat="42.19177" lon="0.89415">
        <ele>619.4</ele>
        <time>2023-07-23T10:38:35Z</time>
      </trkpt>
      <trkpt lat="42.19174" lon="0.8942">
        <ele>619.4</ele>
        <time>2023-07-23T10:38:36Z</time>
      </trkpt>
      <trkpt lat="42.19169" lon="0.89424">
        <ele>619.4</ele>
        <time>2023-07-23T10:38:37Z</time>
      </trkpt>
      <trkpt lat="42.19165" lon="0.89428">
        <ele>619.4</ele>
        <time>2023-07-23T10:38:38Z</time>
      </trkpt>
      <trkpt lat="42.19162" lon="0.89432">
        <ele>619.4</ele>
        <time>2023-07-23T10:38:39Z</time>
      </trkpt>
      <trkpt lat="42.19158" lon="0.89435">
        <ele>619.4</ele>
        <time>2023-07-23T10:38:40Z</time>
      </trkpt>
      <trkpt lat="42.19154" lon="0.89437">
        <ele>619.4</ele>
        <time>2023-07-23T10:38:41Z</time>
      </trkpt>
      <trkpt lat="42.1915" lon="0.89439">
        <ele>619.4</ele>
        <time>2023-07-23T10:38:42Z</time>
      </trkpt>
      <trkpt lat="42.19147" lon="0.89441">
        <ele>619.4</ele>
        <time>2023-07-23T10:38:43Z</time>
      </trkpt>
      <trkpt lat="42.19143" lon="0.89442">
        <ele>619.4</ele>
        <time>2023-07-23T10:38:44Z</time>
      </trkpt>
      <trkpt lat="42.1914" lon="0.89443">
        <ele>619.6</ele>
        <time>2023-07-23T10:38:45Z</time>
      </trkpt>
      <trkpt lat="42.19136" lon="0.89444">
        <ele>620</ele>
        <time>2023-07-23T10:38:46Z</time>
      </trkpt>
      <trkpt lat="42.19133" lon="0.89445">
        <ele>620.2</ele>
        <time>2023-07-23T10:38:47Z</time>
      </trkpt>
      <trkpt lat="42.19131" lon="0.89446">
        <ele>620.6</ele>
        <time>2023-07-23T10:38:48Z</time>
      </trkpt>
      <trkpt lat="42.19128" lon="0.89447">
        <ele>620.6</ele>
        <time>2023-07-23T10:38:49Z</time>
      </trkpt>
      <trkpt lat="42.19126" lon="0.89448">
        <ele>620.8</ele>
        <time>2023-07-23T10:38:50Z</time>
      </trkpt>
      <trkpt lat="42.19125" lon="0.89448">
        <ele>620.8</ele>
        <time>2023-07-23T10:38:51Z</time>
      </trkpt>
      <trkpt lat="42.19123" lon="0.89449">
        <ele>621</ele>
        <time>2023-07-23T10:38:52Z</time>
      </trkpt>
      <trkpt lat="42.19121" lon="0.89449">
        <ele>621.4</ele>
        <time>2023-07-23T10:38:53Z</time>
      </trkpt>
      <trkpt lat="42.19119" lon="0.8945">
        <ele>621.6</ele>
        <time>2023-07-23T10:38:54Z</time>
      </trkpt>
      <trkpt lat="42.19116" lon="0.89451">
        <ele>621.8</ele>
        <time>2023-07-23T10:38:55Z</time>
      </trkpt>
      <trkpt lat="42.19113" lon="0.89452">
        <ele>622</ele>
        <time>2023-07-23T10:38:56Z</time>
      </trkpt>
      <trkpt lat="42.19111" lon="0.89454">
        <ele>622.2</ele>
        <time>2023-07-23T10:38:57Z</time>
      </trkpt>
      <trkpt lat="42.19108" lon="0.89456">
        <ele>622.2</ele>
        <time>2023-07-23T10:38:58Z</time>
      </trkpt>
      <trkpt lat="42.19105" lon="0.89459">
        <ele>622.2</ele>
        <time>2023-07-23T10:38:59Z</time>
      </trkpt>
      <trkpt lat="42.19103" lon="0.89462">
        <ele>622.2</ele>
        <time>2023-07-23T10:39:00Z</time>
      </trkpt>
      <trkpt lat="42.191" lon="0.89466">
        <ele>622.2</ele>
        <time>2023-07-23T10:39:01Z</time>
      </trkpt>
      <trkpt lat="42.19097" lon="0.8947">
        <ele>622</ele>
        <time>2023-07-23T10:39:02Z</time>
      </trkpt>
      <trkpt lat="42.19094" lon="0.89474">
        <ele>622</ele>
        <time>2023-07-23T10:39:03Z</time>
      </trkpt>
      <trkpt lat="42.19091" lon="0.89478">
        <ele>621.8</ele>
        <time>2023-07-23T10:39:04Z</time>
      </trkpt>
      <trkpt lat="42.19088" lon="0.89482">
        <ele>621.4</ele>
        <time>2023-07-23T10:39:05Z</time>
      </trkpt>
      <trkpt lat="42.19084" lon="0.89487">
        <ele>621.2</ele>
        <time>2023-07-23T10:39:06Z</time>
      </trkpt>
      <trkpt lat="42.19081" lon="0.89491">
        <ele>620.8</ele>
        <time>2023-07-23T10:39:07Z</time>
      </trkpt>
      <trkpt lat="42.19078" lon="0.89496">
        <ele>620.6</ele>
        <time>2023-07-23T10:39:08Z</time>
      </trkpt>
      <trkpt lat="42.19074" lon="0.89501">
        <ele>620.4</ele>
        <time>2023-07-23T10:39:09Z</time>
      </trkpt>
      <trkpt lat="42.1907" lon="0.89506">
        <ele>620</ele>
        <time>2023-07-23T10:39:10Z</time>
      </trkpt>
      <trkpt lat="42.19067" lon="0.8951">
        <ele>619.8</ele>
        <time>2023-07-23T10:39:11Z</time>
      </trkpt>
      <trkpt lat="42.19063" lon="0.89514">
        <ele>619.4</ele>
        <time>2023-07-23T10:39:12Z</time>
      </trkpt>
      <trkpt lat="42.1906" lon="0.89519">
        <ele>619</ele>
        <time>2023-07-23T10:39:13Z</time>
      </trkpt>
      <trkpt lat="42.19056" lon="0.89524">
        <ele>619</ele>
        <time>2023-07-23T10:39:14Z</time>
      </trkpt>
      <trkpt lat="42.19052" lon="0.89529">
        <ele>618.4</ele>
        <time>2023-07-23T10:39:15Z</time>
      </trkpt>
      <trkpt lat="42.19048" lon="0.89534">
        <ele>618</ele>
        <time>2023-07-23T10:39:16Z</time>
      </trkpt>
      <trkpt lat="42.19043" lon="0.8954">
        <ele>617.6</ele>
        <time>2023-07-23T10:39:17Z</time>
      </trkpt>
      <trkpt lat="42.19039" lon="0.89546">
        <ele>617</ele>
        <time>2023-07-23T10:39:18Z</time>
      </trkpt>
      <trkpt lat="42.19034" lon="0.89552">
        <ele>617</ele>
        <time>2023-07-23T10:39:19Z</time>
      </trkpt>
      <trkpt lat="42.19029" lon="0.89558">
        <ele>616.4</ele>
        <time>2023-07-23T10:39:20Z</time>
      </trkpt>
      <trkpt lat="42.19024" lon="0.89565">
        <ele>616.2</ele>
        <time>2023-07-23T10:39:21Z</time>
      </trkpt>
      <trkpt lat="42.19019" lon="0.89572">
        <ele>615.6</ele>
        <time>2023-07-23T10:39:22Z</time>
      </trkpt>
      <trkpt lat="42.19013" lon="0.89579">
        <ele>615.4</ele>
        <time>2023-07-23T10:39:23Z</time>
      </trkpt>
      <trkpt lat="42.19008" lon="0.89586">
        <ele>614.8</ele>
        <time>2023-07-23T10:39:24Z</time>
      </trkpt>
      <trkpt lat="42.19003" lon="0.89592">
        <ele>614.2</ele>
        <time>2023-07-23T10:39:25Z</time>
      </trkpt>
      <trkpt lat="42.18998" lon="0.89599">
        <ele>614</ele>
        <time>2023-07-23T10:39:26Z</time>
      </trkpt>
      <trkpt lat="42.18993" lon="0.89605">
        <ele>613.2</ele>
        <time>2023-07-23T10:39:27Z</time>
      </trkpt>
      <trkpt lat="42.18988" lon="0.8961">
        <ele>612.8</ele>
        <time>2023-07-23T10:39:28Z</time>
      </trkpt>
      <trkpt lat="42.18983" lon="0.89615">
        <ele>612.2</ele>
        <time>2023-07-23T10:39:29Z</time>
      </trkpt>
      <trkpt lat="42.18978" lon="0.89619">
        <ele>611.4</ele>
        <time>2023-07-23T10:39:30Z</time>
      </trkpt>
      <trkpt lat="42.18973" lon="0.89622">
        <ele>611</ele>
        <time>2023-07-23T10:39:31Z</time>
      </trkpt>
      <trkpt lat="42.18968" lon="0.89626">
        <ele>610.4</ele>
        <time>2023-07-23T10:39:32Z</time>
      </trkpt>
      <trkpt lat="42.18964" lon="0.89629">
        <ele>610</ele>
        <time>2023-07-23T10:39:33Z</time>
      </trkpt>
      <trkpt lat="42.1896" lon="0.89633">
        <ele>609.2</ele>
        <time>2023-07-23T10:39:34Z</time>
      </trkpt>
      <trkpt lat="42.18956" lon="0.89637">
        <ele>608.8</ele>
        <time>2023-07-23T10:39:35Z</time>
      </trkpt>
      <trkpt lat="42.18953" lon="0.8964">
        <ele>608.4</ele>
        <time>2023-07-23T10:39:36Z</time>
      </trkpt>
      <trkpt lat="42.1895" lon="0.89643">
        <ele>607.8</ele>
        <time>2023-07-23T10:39:37Z</time>
      </trkpt>
      <trkpt lat="42.18947" lon="0.89645">
        <ele>607.6</ele>
        <time>2023-07-23T10:39:38Z</time>
      </trkpt>
      <trkpt lat="42.18944" lon="0.89647">
        <ele>607</ele>
        <time>2023-07-23T10:39:39Z</time>
      </trkpt>
      <trkpt lat="42.18942" lon="0.8965">
        <ele>606.8</ele>
        <time>2023-07-23T10:39:40Z</time>
      </trkpt>
      <trkpt lat="42.18939" lon="0.89652">
        <ele>606.6</ele>
        <time>2023-07-23T10:39:41Z</time>
      </trkpt>
      <trkpt lat="42.18935" lon="0.89654">
        <ele>606.4</ele>
        <time>2023-07-23T10:39:42Z</time>
      </trkpt>
      <trkpt lat="42.18932" lon="0.89656">
        <ele>606.4</ele>
        <time>2023-07-23T10:39:43Z</time>
      </trkpt>
      <trkpt lat="42.18928" lon="0.89658">
        <ele>606.2</ele>
        <time>2023-07-23T10:39:44Z</time>
      </trkpt>
      <trkpt lat="42.18924" lon="0.8966">
        <ele>606</ele>
        <time>2023-07-23T10:39:45Z</time>
      </trkpt>
      <trkpt lat="42.1892" lon="0.89662">
        <ele>606</ele>
        <time>2023-07-23T10:39:46Z</time>
      </trkpt>
      <trkpt lat="42.18916" lon="0.89663">
        <ele>605.6</ele>
        <time>2023-07-23T10:39:47Z</time>
      </trkpt>
      <trkpt lat="42.18911" lon="0.89665">
        <ele>605.4</ele>
        <time>2023-07-23T10:39:48Z</time>
      </trkpt>
      <trkpt lat="42.18907" lon="0.89667">
        <ele>605</ele>
        <time>2023-07-23T10:39:49Z</time>
      </trkpt>
      <trkpt lat="42.18903" lon="0.89669">
        <ele>604.8</ele>
        <time>2023-07-23T10:39:50Z</time>
      </trkpt>
      <trkpt lat="42.18899" lon="0.89672">
        <ele>604.8</ele>
        <time>2023-07-23T10:39:51Z</time>
      </trkpt>
      <trkpt lat="42.18895" lon="0.89674">
        <ele>604.6</ele>
        <time>2023-07-23T10:39:52Z</time>
      </trkpt>
      <trkpt lat="42.18891" lon="0.89676">
        <ele>604.4</ele>
        <time>2023-07-23T10:39:53Z</time>
      </trkpt>
      <trkpt lat="42.18887" lon="0.89679">
        <ele>604.2</ele>
        <time>2023-07-23T10:39:54Z</time>
      </trkpt>
      <trkpt lat="42.18882" lon="0.89682">
        <ele>603.8</ele>
        <time>2023-07-23T10:39:55Z</time>
      </trkpt>
      <trkpt lat="42.18877" lon="0.89685">
        <ele>603.6</ele>
        <time>2023-07-23T10:39:56Z</time>
      </trkpt>
      <trkpt lat="42.18872" lon="0.89688">
        <ele>603.4</ele>
        <time>2023-07-23T10:39:57Z</time>
      </trkpt>
      <trkpt lat="42.18867" lon="0.89692">
        <ele>603.2</ele>
        <time>2023-07-23T10:39:58Z</time>
      </trkpt>
      <trkpt lat="42.18862" lon="0.89697">
        <ele>602.8</ele>
        <time>2023-07-23T10:39:59Z</time>
      </trkpt>
      <trkpt lat="42.18857" lon="0.89703">
        <ele>602.6</ele>
        <time>2023-07-23T10:40:00Z</time>
      </trkpt>
      <trkpt lat="42.18853" lon="0.89709">
        <ele>602.4</ele>
        <time>2023-07-23T10:40:01Z</time>
      </trkpt>
      <trkpt lat="42.18849" lon="0.89715">
        <ele>601.6</ele>
        <time>2023-07-23T10:40:02Z</time>
      </trkpt>
      <trkpt lat="42.18846" lon="0.89721">
        <ele>601.4</ele>
        <time>2023-07-23T10:40:03Z</time>
      </trkpt>
      <trkpt lat="42.18844" lon="0.89726">
        <ele>600.6</ele>
        <time>2023-07-23T10:40:04Z</time>
      </trkpt>
      <trkpt lat="42.18842" lon="0.8973">
        <ele>600.4</ele>
        <time>2023-07-23T10:40:05Z</time>
      </trkpt>
      <trkpt lat="42.18841" lon="0.89734">
        <ele>600</ele>
        <time>2023-07-23T10:40:06Z</time>
      </trkpt>
      <trkpt lat="42.18841" lon="0.89737">
        <ele>599.2</ele>
        <time>2023-07-23T10:40:07Z</time>
      </trkpt>
      <trkpt lat="42.18841" lon="0.8974">
        <ele>599.2</ele>
        <time>2023-07-23T10:40:08Z</time>
      </trkpt>
      <trkpt lat="42.18841" lon="0.89743">
        <ele>598.8</ele>
        <time>2023-07-23T10:40:09Z</time>
      </trkpt>
      <trkpt lat="42.18841" lon="0.89745">
        <ele>598.6</ele>
        <time>2023-07-23T10:40:10Z</time>
      </trkpt>
      <trkpt lat="42.18841" lon="0.89747">
        <ele>598.4</ele>
        <time>2023-07-23T10:40:11Z</time>
      </trkpt>
      <trkpt lat="42.18841" lon="0.89749">
        <ele>598</ele>
        <time>2023-07-23T10:40:12Z</time>
      </trkpt>
      <trkpt lat="42.1884" lon="0.89751">
        <ele>597.8</ele>
        <time>2023-07-23T10:40:13Z</time>
      </trkpt>
      <trkpt lat="42.1884" lon="0.89752">
        <ele>597.4</ele>
        <time>2023-07-23T10:40:14Z</time>
      </trkpt>
      <trkpt lat="42.18839" lon="0.89754">
        <ele>597.4</ele>
        <time>2023-07-23T10:40:15Z</time>
      </trkpt>
      <trkpt lat="42.18839" lon="0.89757">
        <ele>597.2</ele>
        <time>2023-07-23T10:40:16Z</time>
      </trkpt>
      <trkpt lat="42.18839" lon="0.8976">
        <ele>597</ele>
        <time>2023-07-23T10:40:17Z</time>
      </trkpt>
      <trkpt lat="42.18838" lon="0.89763">
        <ele>597</ele>
        <time>2023-07-23T10:40:18Z</time>
      </trkpt>
      <trkpt lat="42.18838" lon="0.89766">
        <ele>597</ele>
        <time>2023-07-23T10:40:19Z</time>
      </trkpt>
      <trkpt lat="42.18837" lon="0.8977">
        <ele>596.8</ele>
        <time>2023-07-23T10:40:20Z</time>
      </trkpt>
      <trkpt lat="42.18836" lon="0.89774">
        <ele>596.8</ele>
        <time>2023-07-23T10:40:21Z</time>
      </trkpt>
      <trkpt lat="42.18835" lon="0.89777">
        <ele>596.8</ele>
        <time>2023-07-23T10:40:22Z</time>
      </trkpt>
      <trkpt lat="42.18834" lon="0.8978">
        <ele>596.8</ele>
        <time>2023-07-23T10:40:23Z</time>
      </trkpt>
      <trkpt lat="42.18834" lon="0.89783">
        <ele>596.8</ele>
        <time>2023-07-23T10:40:24Z</time>
      </trkpt>
      <trkpt lat="42.18833" lon="0.89786">
        <ele>596.8</ele>
        <time>2023-07-23T10:40:25Z</time>
      </trkpt>
      <trkpt lat="42.18832" lon="0.89789">
        <ele>596.8</ele>
        <time>2023-07-23T10:40:26Z</time>
      </trkpt>
      <trkpt lat="42.18831" lon="0.89792">
        <ele>596.8</ele>
        <time>2023-07-23T10:40:27Z</time>
      </trkpt>
      <trkpt lat="42.1883" lon="0.89795">
        <ele>596.8</ele>
        <time>2023-07-23T10:40:28Z</time>
      </trkpt>
      <trkpt lat="42.18829" lon="0.89798">
        <ele>596.8</ele>
        <time>2023-07-23T10:40:29Z</time>
      </trkpt>
      <trkpt lat="42.18828" lon="0.89801">
        <ele>596.8</ele>
        <time>2023-07-23T10:40:30Z</time>
      </trkpt>
      <trkpt lat="42.18827" lon="0.89805">
        <ele>597</ele>
        <time>2023-07-23T10:40:31Z</time>
      </trkpt>
      <trkpt lat="42.18826" lon="0.89808">
        <ele>596.8</ele>
        <time>2023-07-23T10:40:32Z</time>
      </trkpt>
      <trkpt lat="42.18825" lon="0.89812">
        <ele>596.8</ele>
        <time>2023-07-23T10:40:33Z</time>
      </trkpt>
      <trkpt lat="42.18824" lon="0.89815">
        <ele>596.8</ele>
        <time>2023-07-23T10:40:34Z</time>
      </trkpt>
      <trkpt lat="42.18823" lon="0.89819">
        <ele>596.8</ele>
        <time>2023-07-23T10:40:35Z</time>
      </trkpt>
      <trkpt lat="42.18822" lon="0.89821">
        <ele>596.8</ele>
        <time>2023-07-23T10:40:36Z</time>
      </trkpt>
      <trkpt lat="42.1882" lon="0.89824">
        <ele>596.8</ele>
        <time>2023-07-23T10:40:37Z</time>
      </trkpt>
      <trkpt lat="42.18819" lon="0.89827">
        <ele>597</ele>
        <time>2023-07-23T10:40:38Z</time>
      </trkpt>
      <trkpt lat="42.18817" lon="0.8983">
        <ele>597</ele>
        <time>2023-07-23T10:40:39Z</time>
      </trkpt>
      <trkpt lat="42.18815" lon="0.89833">
        <ele>597</ele>
        <time>2023-07-23T10:40:40Z</time>
      </trkpt>
      <trkpt lat="42.18813" lon="0.89836">
        <ele>597</ele>
        <time>2023-07-23T10:40:41Z</time>
      </trkpt>
      <trkpt lat="42.18811" lon="0.89839">
        <ele>597</ele>
        <time>2023-07-23T10:40:42Z</time>
      </trkpt>
      <trkpt lat="42.18809" lon="0.89843">
        <ele>597</ele>
        <time>2023-07-23T10:40:43Z</time>
      </trkpt>
      <trkpt lat="42.18807" lon="0.89846">
        <ele>597</ele>
        <time>2023-07-23T10:40:44Z</time>
      </trkpt>
      <trkpt lat="42.18805" lon="0.89849">
        <ele>597</ele>
        <time>2023-07-23T10:40:45Z</time>
      </trkpt>
      <trkpt lat="42.18803" lon="0.89852">
        <ele>597</ele>
        <time>2023-07-23T10:40:46Z</time>
      </trkpt>
      <trkpt lat="42.18801" lon="0.89855">
        <ele>597</ele>
        <time>2023-07-23T10:40:47Z</time>
      </trkpt>
      <trkpt lat="42.18798" lon="0.89858">
        <ele>597</ele>
        <time>2023-07-23T10:40:48Z</time>
      </trkpt>
      <trkpt lat="42.18796" lon="0.89861">
        <ele>597</ele>
        <time>2023-07-23T10:40:49Z</time>
      </trkpt>
      <trkpt lat="42.18794" lon="0.89864">
        <ele>597</ele>
        <time>2023-07-23T10:40:50Z</time>
      </trkpt>
      <trkpt lat="42.18792" lon="0.89867">
        <ele>597</ele>
        <time>2023-07-23T10:40:51Z</time>
      </trkpt>
      <trkpt lat="42.1879" lon="0.89869">
        <ele>597</ele>
        <time>2023-07-23T10:40:52Z</time>
      </trkpt>
      <trkpt lat="42.18788" lon="0.89872">
        <ele>596.8</ele>
        <time>2023-07-23T10:40:53Z</time>
      </trkpt>
      <trkpt lat="42.18786" lon="0.89874">
        <ele>596.8</ele>
        <time>2023-07-23T10:40:54Z</time>
      </trkpt>
      <trkpt lat="42.18785" lon="0.89876">
        <ele>596.8</ele>
        <time>2023-07-23T10:40:55Z</time>
      </trkpt>
      <trkpt lat="42.18783" lon="0.89879">
        <ele>597</ele>
        <time>2023-07-23T10:40:56Z</time>
      </trkpt>
      <trkpt lat="42.18781" lon="0.89881">
        <ele>597</ele>
        <time>2023-07-23T10:40:57Z</time>
      </trkpt>
      <trkpt lat="42.1878" lon="0.89883">
        <ele>597</ele>
        <time>2023-07-23T10:40:58Z</time>
      </trkpt>
      <trkpt lat="42.18777" lon="0.89885">
        <ele>597</ele>
        <time>2023-07-23T10:40:59Z</time>
      </trkpt>
      <trkpt lat="42.18775" lon="0.89887">
        <ele>597</ele>
        <time>2023-07-23T10:41:00Z</time>
      </trkpt>
      <trkpt lat="42.18773" lon="0.89889">
        <ele>597</ele>
        <time>2023-07-23T10:41:01Z</time>
      </trkpt>
      <trkpt lat="42.1877" lon="0.89892">
        <ele>597</ele>
        <time>2023-07-23T10:41:02Z</time>
      </trkpt>
      <trkpt lat="42.18768" lon="0.89894">
        <ele>596.8</ele>
        <time>2023-07-23T10:41:03Z</time>
      </trkpt>
      <trkpt lat="42.18766" lon="0.89897">
        <ele>596.8</ele>
        <time>2023-07-23T10:41:04Z</time>
      </trkpt>
      <trkpt lat="42.18765" lon="0.899">
        <ele>596.8</ele>
        <time>2023-07-23T10:41:05Z</time>
      </trkpt>
      <trkpt lat="42.18763" lon="0.89903">
        <ele>596.8</ele>
        <time>2023-07-23T10:41:06Z</time>
      </trkpt>
      <trkpt lat="42.18761" lon="0.89905">
        <ele>596.8</ele>
        <time>2023-07-23T10:41:07Z</time>
      </trkpt>
      <trkpt lat="42.18759" lon="0.89909">
        <ele>596.8</ele>
        <time>2023-07-23T10:41:08Z</time>
      </trkpt>
      <trkpt lat="42.18758" lon="0.89912">
        <ele>596.8</ele>
        <time>2023-07-23T10:41:09Z</time>
      </trkpt>
      <trkpt lat="42.18756" lon="0.89915">
        <ele>596.8</ele>
        <time>2023-07-23T10:41:10Z</time>
      </trkpt>
      <trkpt lat="42.18754" lon="0.89917">
        <ele>596.8</ele>
        <time>2023-07-23T10:41:11Z</time>
      </trkpt>
      <trkpt lat="42.18752" lon="0.8992">
        <ele>596.8</ele>
        <time>2023-07-23T10:41:12Z</time>
      </trkpt>
      <trkpt lat="42.1875" lon="0.89923">
        <ele>596.8</ele>
        <time>2023-07-23T10:41:13Z</time>
      </trkpt>
      <trkpt lat="42.18747" lon="0.89926">
        <ele>596.8</ele>
        <time>2023-07-23T10:41:14Z</time>
      </trkpt>
      <trkpt lat="42.18745" lon="0.89927">
        <ele>596.8</ele>
        <time>2023-07-23T10:41:15Z</time>
      </trkpt>
      <trkpt lat="42.18742" lon="0.89929">
        <ele>596.8</ele>
        <time>2023-07-23T10:41:16Z</time>
      </trkpt>
      <trkpt lat="42.1874" lon="0.8993">
        <ele>596.6</ele>
        <time>2023-07-23T10:41:17Z</time>
      </trkpt>
      <trkpt lat="42.18738" lon="0.89931">
        <ele>596.6</ele>
        <time>2023-07-23T10:41:18Z</time>
      </trkpt>
      <trkpt lat="42.18736" lon="0.89933">
        <ele>596.6</ele>
        <time>2023-07-23T10:41:19Z</time>
      </trkpt>
      <trkpt lat="42.18734" lon="0.89935">
        <ele>596.4</ele>
        <time>2023-07-23T10:41:20Z</time>
      </trkpt>
      <trkpt lat="42.18731" lon="0.89937">
        <ele>596.6</ele>
        <time>2023-07-23T10:41:21Z</time>
      </trkpt>
      <trkpt lat="42.18729" lon="0.89939">
        <ele>596.6</ele>
        <time>2023-07-23T10:41:22Z</time>
      </trkpt>
      <trkpt lat="42.18727" lon="0.8994">
        <ele>596.4</ele>
        <time>2023-07-23T10:41:23Z</time>
      </trkpt>
      <trkpt lat="42.18724" lon="0.89942">
        <ele>596.4</ele>
        <time>2023-07-23T10:41:24Z</time>
      </trkpt>
      <trkpt lat="42.18722" lon="0.89945">
        <ele>596.2</ele>
        <time>2023-07-23T10:41:25Z</time>
      </trkpt>
      <trkpt lat="42.1872" lon="0.89948">
        <ele>596.2</ele>
        <time>2023-07-23T10:41:26Z</time>
      </trkpt>
      <trkpt lat="42.18717" lon="0.8995">
        <ele>596</ele>
        <time>2023-07-23T10:41:27Z</time>
      </trkpt>
      <trkpt lat="42.18714" lon="0.89953">
        <ele>595.8</ele>
        <time>2023-07-23T10:41:28Z</time>
      </trkpt>
      <trkpt lat="42.18711" lon="0.89955">
        <ele>595.6</ele>
        <time>2023-07-23T10:41:29Z</time>
      </trkpt>
      <trkpt lat="42.18708" lon="0.89957">
        <ele>595.6</ele>
        <time>2023-07-23T10:41:30Z</time>
      </trkpt>
      <trkpt lat="42.18705" lon="0.89958">
        <ele>595.6</ele>
        <time>2023-07-23T10:41:31Z</time>
      </trkpt>
      <trkpt lat="42.18702" lon="0.89959">
        <ele>595.4</ele>
        <time>2023-07-23T10:41:32Z</time>
      </trkpt>
      <trkpt lat="42.18698" lon="0.8996">
        <ele>595.2</ele>
        <time>2023-07-23T10:41:33Z</time>
      </trkpt>
      <trkpt lat="42.18694" lon="0.89961">
        <ele>595</ele>
        <time>2023-07-23T10:41:34Z</time>
      </trkpt>
      <trkpt lat="42.18691" lon="0.89962">
        <ele>595</ele>
        <time>2023-07-23T10:41:35Z</time>
      </trkpt>
      <trkpt lat="42.18687" lon="0.89963">
        <ele>594.8</ele>
        <time>2023-07-23T10:41:36Z</time>
      </trkpt>
      <trkpt lat="42.18683" lon="0.89965">
        <ele>594.6</ele>
        <time>2023-07-23T10:41:37Z</time>
      </trkpt>
      <trkpt lat="42.1868" lon="0.89967">
        <ele>594.2</ele>
        <time>2023-07-23T10:41:38Z</time>
      </trkpt>
      <trkpt lat="42.18675" lon="0.89971">
        <ele>594.2</ele>
        <time>2023-07-23T10:41:39Z</time>
      </trkpt>
      <trkpt lat="42.18671" lon="0.89974">
        <ele>594</ele>
        <time>2023-07-23T10:41:40Z</time>
      </trkpt>
      <trkpt lat="42.18668" lon="0.89978">
        <ele>594</ele>
        <time>2023-07-23T10:41:41Z</time>
      </trkpt>
      <trkpt lat="42.18664" lon="0.89982">
        <ele>593.6</ele>
        <time>2023-07-23T10:41:42Z</time>
      </trkpt>
      <trkpt lat="42.18661" lon="0.89986">
        <ele>593.2</ele>
        <time>2023-07-23T10:41:43Z</time>
      </trkpt>
      <trkpt lat="42.18658" lon="0.8999">
        <ele>593.2</ele>
        <time>2023-07-23T10:41:44Z</time>
      </trkpt>
      <trkpt lat="42.18655" lon="0.89995">
        <ele>592.8</ele>
        <time>2023-07-23T10:41:45Z</time>
      </trkpt>
      <trkpt lat="42.18653" lon="0.89999">
        <ele>592.8</ele>
        <time>2023-07-23T10:41:46Z</time>
      </trkpt>
      <trkpt lat="42.1865" lon="0.90004">
        <ele>592.6</ele>
        <time>2023-07-23T10:41:47Z</time>
      </trkpt>
      <trkpt lat="42.18649" lon="0.90008">
        <ele>592.4</ele>
        <time>2023-07-23T10:41:48Z</time>
      </trkpt>
      <trkpt lat="42.18648" lon="0.90012">
        <ele>592.2</ele>
        <time>2023-07-23T10:41:49Z</time>
      </trkpt>
      <trkpt lat="42.18648" lon="0.90015">
        <ele>591.8</ele>
        <time>2023-07-23T10:41:50Z</time>
      </trkpt>
      <trkpt lat="42.18647" lon="0.90017">
        <ele>591.6</ele>
        <time>2023-07-23T10:41:51Z</time>
      </trkpt>
      <trkpt lat="42.18646" lon="0.90019">
        <ele>591.2</ele>
        <time>2023-07-23T10:41:52Z</time>
      </trkpt>
      <trkpt lat="42.18645" lon="0.90019">
        <ele>591</ele>
        <time>2023-07-23T10:41:53Z</time>
      </trkpt>
      <trkpt lat="42.18644" lon="0.90019">
        <ele>590.8</ele>
        <time>2023-07-23T10:41:54Z</time>
      </trkpt>
      <trkpt lat="42.18643" lon="0.90019">
        <ele>590.4</ele>
        <time>2023-07-23T10:41:55Z</time>
      </trkpt>
      <trkpt lat="42.18642" lon="0.9002">
        <ele>590.4</ele>
        <time>2023-07-23T10:41:56Z</time>
      </trkpt>
      <trkpt lat="42.18642" lon="0.9002">
        <ele>590.2</ele>
        <time>2023-07-23T10:41:57Z</time>
      </trkpt>
      <trkpt lat="42.18642" lon="0.9002">
        <ele>590.2</ele>
        <time>2023-07-23T10:41:58Z</time>
      </trkpt>
      <trkpt lat="42.18645" lon="0.90027">
        <ele>589.8</ele>
        <time>2023-07-23T10:42:15Z</time>
      </trkpt>
      <trkpt lat="42.18646" lon="0.90031">
        <ele>589.8</ele>
        <time>2023-07-23T10:42:16Z</time>
      </trkpt>
      <trkpt lat="42.18648" lon="0.90037">
        <ele>589.8</ele>
        <time>2023-07-23T10:42:17Z</time>
      </trkpt>
      <trkpt lat="42.18648" lon="0.90042">
        <ele>589.8</ele>
        <time>2023-07-23T10:42:18Z</time>
      </trkpt>
      <trkpt lat="42.18647" lon="0.90046">
        <ele>589.6</ele>
        <time>2023-07-23T10:42:19Z</time>
      </trkpt>
      <trkpt lat="42.18645" lon="0.90049">
        <ele>589.4</ele>
        <time>2023-07-23T10:42:20Z</time>
      </trkpt>
      <trkpt lat="42.18642" lon="0.90052">
        <ele>589.2</ele>
        <time>2023-07-23T10:42:21Z</time>
      </trkpt>
      <trkpt lat="42.18639" lon="0.90053">
        <ele>589.2</ele>
        <time>2023-07-23T10:42:22Z</time>
      </trkpt>
      <trkpt lat="42.18637" lon="0.90052">
        <ele>589.2</ele>
        <time>2023-07-23T10:42:23Z</time>
      </trkpt>
      <trkpt lat="42.18635" lon="0.9005">
        <ele>589.2</ele>
        <time>2023-07-23T10:42:24Z</time>
      </trkpt>
      <trkpt lat="42.18634" lon="0.90048">
        <ele>589.2</ele>
        <time>2023-07-23T10:42:25Z</time>
      </trkpt>
      <trkpt lat="42.18634" lon="0.90047">
        <ele>589.2</ele>
        <time>2023-07-23T10:42:26Z</time>
      </trkpt>
      <trkpt lat="42.18634" lon="0.90047">
        <ele>589.2</ele>
        <time>2023-07-23T10:42:27Z</time>
      </trkpt>
      <trkpt lat="42.18634" lon="0.90047">
        <ele>589.2</ele>
        <time>2023-07-23T10:42:28Z</time>
      </trkpt>
      <trkpt lat="42.18634" lon="0.90047">
        <ele>589.4</ele>
        <time>2023-07-23T10:42:29Z</time>
      </trkpt>
      <trkpt lat="42.1863" lon="0.90046">
        <ele>590.4</ele>
        <time>2023-07-23T10:43:36Z</time>
      </trkpt>
      <trkpt lat="42.18627" lon="0.90043">
        <ele>590.4</ele>
        <time>2023-07-23T10:43:37Z</time>
      </trkpt>
      <trkpt lat="42.18624" lon="0.9004">
        <ele>590.4</ele>
        <time>2023-07-23T10:43:38Z</time>
      </trkpt>
      <trkpt lat="42.1862" lon="0.90037">
        <ele>590.2</ele>
        <time>2023-07-23T10:43:39Z</time>
      </trkpt>
      <trkpt lat="42.18616" lon="0.90034">
        <ele>590.2</ele>
        <time>2023-07-23T10:43:40Z</time>
      </trkpt>
      <trkpt lat="42.18613" lon="0.90031">
        <ele>590.2</ele>
        <time>2023-07-23T10:43:41Z</time>
      </trkpt>
      <trkpt lat="42.18609" lon="0.90027">
        <ele>590.2</ele>
        <time>2023-07-23T10:43:42Z</time>
      </trkpt>
      <trkpt lat="42.18605" lon="0.90022">
        <ele>590.2</ele>
        <time>2023-07-23T10:43:43Z</time>
      </trkpt>
      <trkpt lat="42.18601" lon="0.90018">
        <ele>590.2</ele>
        <time>2023-07-23T10:43:44Z</time>
      </trkpt>
      <trkpt lat="42.18598" lon="0.90015">
        <ele>590</ele>
        <time>2023-07-23T10:43:45Z</time>
      </trkpt>
      <trkpt lat="42.18594" lon="0.90012">
        <ele>589.8</ele>
        <time>2023-07-23T10:43:46Z</time>
      </trkpt>
      <trkpt lat="42.18589" lon="0.9001">
        <ele>589.4</ele>
        <time>2023-07-23T10:43:47Z</time>
      </trkpt>
      <trkpt lat="42.18584" lon="0.90008">
        <ele>589</ele>
        <time>2023-07-23T10:43:48Z</time>
      </trkpt>
      <trkpt lat="42.18578" lon="0.90008">
        <ele>588.8</ele>
        <time>2023-07-23T10:43:49Z</time>
      </trkpt>
      <trkpt lat="42.18572" lon="0.9001">
        <ele>588.6</ele>
        <time>2023-07-23T10:43:50Z</time>
      </trkpt>
      <trkpt lat="42.18565" lon="0.90011">
        <ele>588.4</ele>
        <time>2023-07-23T10:43:51Z</time>
      </trkpt>
      <trkpt lat="42.1856" lon="0.90013">
        <ele>588</ele>
        <time>2023-07-23T10:43:52Z</time>
      </trkpt>
      <trkpt lat="42.18556" lon="0.90014">
        <ele>587.6</ele>
        <time>2023-07-23T10:43:53Z</time>
      </trkpt>
      <trkpt lat="42.18551" lon="0.90016">
        <ele>587</ele>
        <time>2023-07-23T10:43:54Z</time>
      </trkpt>
      <trkpt lat="42.18548" lon="0.90018">
        <ele>586.4</ele>
        <time>2023-07-23T10:43:55Z</time>
      </trkpt>
      <trkpt lat="42.18545" lon="0.9002">
        <ele>586</ele>
        <time>2023-07-23T10:43:56Z</time>
      </trkpt>
      <trkpt lat="42.18542" lon="0.90022">
        <ele>585.8</ele>
        <time>2023-07-23T10:43:57Z</time>
      </trkpt>
      <trkpt lat="42.18538" lon="0.9002">
        <ele>585.4</ele>
        <time>2023-07-23T10:43:58Z</time>
      </trkpt>
      <trkpt lat="42.18535" lon="0.90017">
        <ele>585.2</ele>
        <time>2023-07-23T10:43:59Z</time>
      </trkpt>
      <trkpt lat="42.18533" lon="0.90016">
        <ele>585</ele>
        <time>2023-07-23T10:44:00Z</time>
      </trkpt>
      <trkpt lat="42.18533" lon="0.90017">
        <ele>585</ele>
        <time>2023-07-23T10:44:01Z</time>
      </trkpt>
      <trkpt lat="42.18533" lon="0.90017">
        <ele>584.8</ele>
        <time>2023-07-23T10:44:02Z</time>
      </trkpt>
      <trkpt lat="42.18533" lon="0.90017">
        <ele>584.8</ele>
        <time>2023-07-23T10:44:03Z</time>
      </trkpt>
      <trkpt lat="42.18533" lon="0.90017">
        <ele>584.8</ele>
        <time>2023-07-23T10:44:04Z</time>
      </trkpt>
      <trkpt lat="42.18533" lon="0.90017">
        <ele>584.6</ele>
        <time>2023-07-23T10:44:05Z</time>
      </trkpt>
      <trkpt lat="42.18533" lon="0.9002">
        <ele>583.6</ele>
        <time>2023-07-23T10:50:32Z</time>
      </trkpt>
      <trkpt lat="42.18533" lon="0.90022">
        <ele>583.4</ele>
        <time>2023-07-23T10:50:33Z</time>
      </trkpt>
      <trkpt lat="42.18533" lon="0.90022">
        <ele>583.4</ele>
        <time>2023-07-23T10:50:34Z</time>
      </trkpt>
      <trkpt lat="42.18533" lon="0.90022">
        <ele>583.4</ele>
        <time>2023-07-23T10:50:35Z</time>
      </trkpt>
      <trkpt lat="42.18517" lon="0.90006">
        <ele>585.8</ele>
        <time>2023-07-23T11:30:41Z</time>
      </trkpt>
      <trkpt lat="42.18517" lon="0.90006">
        <ele>585.8</ele>
        <time>2023-07-23T11:30:42Z</time>
      </trkpt>
      <trkpt lat="42.18517" lon="0.90006">
        <ele>585.8</ele>
        <time>2023-07-23T11:30:43Z</time>
      </trkpt>
      <trkpt lat="42.18517" lon="0.90006">
        <ele>585.8</ele>
        <time>2023-07-23T11:30:44Z</time>
      </trkpt>
      <trkpt lat="42.18515" lon="0.90008">
        <ele>585.6</ele>
        <time>2023-07-23T11:30:47Z</time>
      </trkpt>
      <trkpt lat="42.18514" lon="0.90008">
        <ele>585.6</ele>
        <time>2023-07-23T11:30:48Z</time>
      </trkpt>
      <trkpt lat="42.18514" lon="0.90008">
        <ele>585.6</ele>
        <time>2023-07-23T11:30:49Z</time>
      </trkpt>
      <trkpt lat="42.18514" lon="0.90008">
        <ele>585.4</ele>
        <time>2023-07-23T11:30:50Z</time>
      </trkpt>
      <trkpt lat="42.18514" lon="0.90008">
        <ele>585.2</ele>
        <time>2023-07-23T11:31:09Z</time>
      </trkpt>
      <trkpt lat="42.18514" lon="0.90008">
        <ele>585.2</ele>
        <time>2023-07-23T11:31:10Z</time>
      </trkpt>
      <trkpt lat="42.18514" lon="0.90008">
        <ele>585.2</ele>
        <time>2023-07-23T11:31:11Z</time>
      </trkpt>
      <trkpt lat="42.18514" lon="0.90008">
        <ele>585.2</ele>
        <time>2023-07-23T11:31:12Z</time>
      </trkpt>
      <trkpt lat="42.18514" lon="0.90009">
        <ele>585.2</ele>
        <time>2023-07-23T11:31:13Z</time>
      </trkpt>
      <trkpt lat="42.18515" lon="0.90008">
        <ele>585.2</ele>
        <time>2023-07-23T11:31:14Z</time>
      </trkpt>
      <trkpt lat="42.18516" lon="0.90006">
        <ele>585.2</ele>
        <time>2023-07-23T11:31:15Z</time>
      </trkpt>
      <trkpt lat="42.18517" lon="0.90005">
        <ele>585.2</ele>
        <time>2023-07-23T11:31:16Z</time>
      </trkpt>
      <trkpt lat="42.18517" lon="0.90006">
        <ele>585.2</ele>
        <time>2023-07-23T11:31:17Z</time>
      </trkpt>
      <trkpt lat="42.18517" lon="0.90006">
        <ele>585.2</ele>
        <time>2023-07-23T11:31:18Z</time>
      </trkpt>
      <trkpt lat="42.18517" lon="0.90006">
        <ele>585.2</ele>
        <time>2023-07-23T11:31:19Z</time>
      </trkpt>
      <trkpt lat="42.18517" lon="0.90006">
        <ele>585.2</ele>
        <time>2023-07-23T11:31:20Z</time>
      </trkpt>
      <trkpt lat="42.18517" lon="0.90006">
        <ele>585</ele>
        <time>2023-07-23T11:31:21Z</time>
      </trkpt>
      <trkpt lat="42.18517" lon="0.90006">
        <ele>585</ele>
        <time>2023-07-23T11:31:22Z</time>
      </trkpt>
      <trkpt lat="42.18517" lon="0.90006">
        <ele>585</ele>
        <time>2023-07-23T11:31:23Z</time>
      </trkpt>
      <trkpt lat="42.18517" lon="0.90006">
        <ele>585</ele>
        <time>2023-07-23T11:31:24Z</time>
      </trkpt>
      <trkpt lat="42.18518" lon="0.90005">
        <ele>585.8</ele>
        <time>2023-07-23T11:33:11Z</time>
      </trkpt>
      <trkpt lat="42.18519" lon="0.90004">
        <ele>585.8</ele>
        <time>2023-07-23T11:33:12Z</time>
      </trkpt>
      <trkpt lat="42.18519" lon="0.90004">
        <ele>585.8</ele>
        <time>2023-07-23T11:33:13Z</time>
      </trkpt>
      <trkpt lat="42.18532" lon="0.90013">
        <ele>586.4</ele>
        <time>2023-07-23T11:33:29Z</time>
      </trkpt>
      <trkpt lat="42.18534" lon="0.90014">
        <ele>586.4</ele>
        <time>2023-07-23T11:33:30Z</time>
      </trkpt>
      <trkpt lat="42.18537" lon="0.90013">
        <ele>586.6</ele>
        <time>2023-07-23T11:33:31Z</time>
      </trkpt>
      <trkpt lat="42.1854" lon="0.90013">
        <ele>586.6</ele>
        <time>2023-07-23T11:33:32Z</time>
      </trkpt>
      <trkpt lat="42.18543" lon="0.90014">
        <ele>586.6</ele>
        <time>2023-07-23T11:33:33Z</time>
      </trkpt>
      <trkpt lat="42.18546" lon="0.90015">
        <ele>586.8</ele>
        <time>2023-07-23T11:33:34Z</time>
      </trkpt>
      <trkpt lat="42.18549" lon="0.90014">
        <ele>587</ele>
        <time>2023-07-23T11:33:35Z</time>
      </trkpt>
      <trkpt lat="42.18551" lon="0.90015">
        <ele>587</ele>
        <time>2023-07-23T11:33:36Z</time>
      </trkpt>
      <trkpt lat="42.18554" lon="0.90015">
        <ele>587</ele>
        <time>2023-07-23T11:33:37Z</time>
      </trkpt>
      <trkpt lat="42.18558" lon="0.90017">
        <ele>587</ele>
        <time>2023-07-23T11:33:38Z</time>
      </trkpt>
      <trkpt lat="42.18561" lon="0.9002">
        <ele>587</ele>
        <time>2023-07-23T11:33:39Z</time>
      </trkpt>
      <trkpt lat="42.18564" lon="0.90019">
        <ele>587.2</ele>
        <time>2023-07-23T11:33:40Z</time>
      </trkpt>
      <trkpt lat="42.18566" lon="0.90018">
        <ele>587.2</ele>
        <time>2023-07-23T11:33:41Z</time>
      </trkpt>
      <trkpt lat="42.18569" lon="0.90016">
        <ele>587.2</ele>
        <time>2023-07-23T11:33:42Z</time>
      </trkpt>
      <trkpt lat="42.18573" lon="0.90014">
        <ele>587.4</ele>
        <time>2023-07-23T11:33:43Z</time>
      </trkpt>
      <trkpt lat="42.18576" lon="0.90011">
        <ele>587.6</ele>
        <time>2023-07-23T11:33:44Z</time>
      </trkpt>
      <trkpt lat="42.1858" lon="0.9001">
        <ele>587.8</ele>
        <time>2023-07-23T11:33:45Z</time>
      </trkpt>
      <trkpt lat="42.18582" lon="0.90011">
        <ele>588</ele>
        <time>2023-07-23T11:33:46Z</time>
      </trkpt>
      <trkpt lat="42.18583" lon="0.90011">
        <ele>588</ele>
        <time>2023-07-23T11:33:47Z</time>
      </trkpt>
      <trkpt lat="42.18585" lon="0.90011">
        <ele>588.2</ele>
        <time>2023-07-23T11:33:48Z</time>
      </trkpt>
      <trkpt lat="42.18587" lon="0.90012">
        <ele>588.4</ele>
        <time>2023-07-23T11:33:49Z</time>
      </trkpt>
      <trkpt lat="42.18589" lon="0.90012">
        <ele>588.6</ele>
        <time>2023-07-23T11:33:50Z</time>
      </trkpt>
      <trkpt lat="42.18591" lon="0.90012">
        <ele>588.8</ele>
        <time>2023-07-23T11:33:51Z</time>
      </trkpt>
      <trkpt lat="42.18593" lon="0.90014">
        <ele>588.8</ele>
        <time>2023-07-23T11:33:52Z</time>
      </trkpt>
      <trkpt lat="42.18595" lon="0.90017">
        <ele>589</ele>
        <time>2023-07-23T11:33:53Z</time>
      </trkpt>
      <trkpt lat="42.18596" lon="0.90019">
        <ele>589.4</ele>
        <time>2023-07-23T11:33:54Z</time>
      </trkpt>
      <trkpt lat="42.18599" lon="0.9002">
        <ele>590</ele>
        <time>2023-07-23T11:33:55Z</time>
      </trkpt>
      <trkpt lat="42.186" lon="0.90021">
        <ele>590.4</ele>
        <time>2023-07-23T11:33:56Z</time>
      </trkpt>
      <trkpt lat="42.18602" lon="0.90022">
        <ele>590.4</ele>
        <time>2023-07-23T11:33:57Z</time>
      </trkpt>
      <trkpt lat="42.18604" lon="0.90023">
        <ele>590.6</ele>
        <time>2023-07-23T11:33:58Z</time>
      </trkpt>
      <trkpt lat="42.18606" lon="0.90025">
        <ele>590.8</ele>
        <time>2023-07-23T11:33:59Z</time>
      </trkpt>
      <trkpt lat="42.18609" lon="0.90026">
        <ele>591</ele>
        <time>2023-07-23T11:34:00Z</time>
      </trkpt>
      <trkpt lat="42.18611" lon="0.90027">
        <ele>591.2</ele>
        <time>2023-07-23T11:34:01Z</time>
      </trkpt>
      <trkpt lat="42.18615" lon="0.90027">
        <ele>591.2</ele>
        <time>2023-07-23T11:34:02Z</time>
      </trkpt>
      <trkpt lat="42.18618" lon="0.90028">
        <ele>591.4</ele>
        <time>2023-07-23T11:34:03Z</time>
      </trkpt>
      <trkpt lat="42.18619" lon="0.90031">
        <ele>591.6</ele>
        <time>2023-07-23T11:34:04Z</time>
      </trkpt>
      <trkpt lat="42.18621" lon="0.90034">
        <ele>591.8</ele>
        <time>2023-07-23T11:34:05Z</time>
      </trkpt>
      <trkpt lat="42.18623" lon="0.90035">
        <ele>591.8</ele>
        <time>2023-07-23T11:34:06Z</time>
      </trkpt>
      <trkpt lat="42.18624" lon="0.90037">
        <ele>592</ele>
        <time>2023-07-23T11:34:07Z</time>
      </trkpt>
      <trkpt lat="42.18624" lon="0.90037">
        <ele>592.2</ele>
        <time>2023-07-23T11:34:08Z</time>
      </trkpt>
      <trkpt lat="42.18624" lon="0.90037">
        <ele>592.2</ele>
        <time>2023-07-23T11:34:09Z</time>
      </trkpt>
      <trkpt lat="42.18624" lon="0.90037">
        <ele>592.4</ele>
        <time>2023-07-23T11:34:10Z</time>
      </trkpt>
      <trkpt lat="42.18624" lon="0.90037">
        <ele>592.4</ele>
        <time>2023-07-23T11:34:11Z</time>
      </trkpt>
      <trkpt lat="42.18625" lon="0.90039">
        <ele>592.8</ele>
        <time>2023-07-23T11:34:12Z</time>
      </trkpt>
      <trkpt lat="42.18628" lon="0.90042">
        <ele>593</ele>
        <time>2023-07-23T11:34:13Z</time>
      </trkpt>
      <trkpt lat="42.18631" lon="0.90045">
        <ele>593</ele>
        <time>2023-07-23T11:34:14Z</time>
      </trkpt>
      <trkpt lat="42.18634" lon="0.90045">
        <ele>593.2</ele>
        <time>2023-07-23T11:34:15Z</time>
      </trkpt>
      <trkpt lat="42.18637" lon="0.90042">
        <ele>593.2</ele>
        <time>2023-07-23T11:34:16Z</time>
      </trkpt>
      <trkpt lat="42.1864" lon="0.9004">
        <ele>593.2</ele>
        <time>2023-07-23T11:34:17Z</time>
      </trkpt>
      <trkpt lat="42.18642" lon="0.90037">
        <ele>593.2</ele>
        <time>2023-07-23T11:34:18Z</time>
      </trkpt>
      <trkpt lat="42.18644" lon="0.90034">
        <ele>593.2</ele>
        <time>2023-07-23T11:34:19Z</time>
      </trkpt>
      <trkpt lat="42.18644" lon="0.90033">
        <ele>593.2</ele>
        <time>2023-07-23T11:34:20Z</time>
      </trkpt>
      <trkpt lat="42.18645" lon="0.9003">
        <ele>593</ele>
        <time>2023-07-23T11:34:21Z</time>
      </trkpt>
      <trkpt lat="42.18645" lon="0.90028">
        <ele>592.8</ele>
        <time>2023-07-23T11:34:22Z</time>
      </trkpt>
      <trkpt lat="42.18646" lon="0.90024">
        <ele>592.8</ele>
        <time>2023-07-23T11:34:23Z</time>
      </trkpt>
      <trkpt lat="42.18646" lon="0.9002">
        <ele>592.6</ele>
        <time>2023-07-23T11:34:24Z</time>
      </trkpt>
      <trkpt lat="42.18647" lon="0.90017">
        <ele>592.6</ele>
        <time>2023-07-23T11:34:25Z</time>
      </trkpt>
      <trkpt lat="42.18648" lon="0.90013">
        <ele>592.6</ele>
        <time>2023-07-23T11:34:26Z</time>
      </trkpt>
      <trkpt lat="42.18649" lon="0.9001">
        <ele>592.6</ele>
        <time>2023-07-23T11:34:27Z</time>
      </trkpt>
      <trkpt lat="42.1865" lon="0.90008">
        <ele>592.6</ele>
        <time>2023-07-23T11:34:28Z</time>
      </trkpt>
      <trkpt lat="42.18651" lon="0.90005">
        <ele>592.6</ele>
        <time>2023-07-23T11:34:29Z</time>
      </trkpt>
      <trkpt lat="42.18653" lon="0.90003">
        <ele>593</ele>
        <time>2023-07-23T11:34:30Z</time>
      </trkpt>
      <trkpt lat="42.18654" lon="0.90001">
        <ele>593</ele>
        <time>2023-07-23T11:34:31Z</time>
      </trkpt>
      <trkpt lat="42.18656" lon="0.89998">
        <ele>593</ele>
        <time>2023-07-23T11:34:32Z</time>
      </trkpt>
      <trkpt lat="42.18657" lon="0.89994">
        <ele>593</ele>
        <time>2023-07-23T11:34:33Z</time>
      </trkpt>
      <trkpt lat="42.18658" lon="0.89991">
        <ele>593.2</ele>
        <time>2023-07-23T11:34:34Z</time>
      </trkpt>
      <trkpt lat="42.18659" lon="0.89988">
        <ele>593.2</ele>
        <time>2023-07-23T11:34:35Z</time>
      </trkpt>
      <trkpt lat="42.18661" lon="0.89986">
        <ele>593.4</ele>
        <time>2023-07-23T11:34:36Z</time>
      </trkpt>
      <trkpt lat="42.18662" lon="0.89983">
        <ele>593.4</ele>
        <time>2023-07-23T11:34:37Z</time>
      </trkpt>
      <trkpt lat="42.18664" lon="0.8998">
        <ele>593.4</ele>
        <time>2023-07-23T11:34:38Z</time>
      </trkpt>
      <trkpt lat="42.18666" lon="0.89979">
        <ele>593.6</ele>
        <time>2023-07-23T11:34:39Z</time>
      </trkpt>
      <trkpt lat="42.18668" lon="0.89977">
        <ele>593.6</ele>
        <time>2023-07-23T11:34:40Z</time>
      </trkpt>
      <trkpt lat="42.1867" lon="0.89975">
        <ele>593.6</ele>
        <time>2023-07-23T11:34:41Z</time>
      </trkpt>
      <trkpt lat="42.18673" lon="0.89974">
        <ele>593.8</ele>
        <time>2023-07-23T11:34:42Z</time>
      </trkpt>
      <trkpt lat="42.18675" lon="0.89972">
        <ele>593.8</ele>
        <time>2023-07-23T11:34:43Z</time>
      </trkpt>
      <trkpt lat="42.18677" lon="0.89971">
        <ele>594</ele>
        <time>2023-07-23T11:34:44Z</time>
      </trkpt>
      <trkpt lat="42.18679" lon="0.8997">
        <ele>594</ele>
        <time>2023-07-23T11:34:45Z</time>
      </trkpt>
      <trkpt lat="42.18681" lon="0.89968">
        <ele>594.2</ele>
        <time>2023-07-23T11:34:46Z</time>
      </trkpt>
      <trkpt lat="42.18684" lon="0.89967">
        <ele>594.4</ele>
        <time>2023-07-23T11:34:47Z</time>
      </trkpt>
      <trkpt lat="42.18687" lon="0.89967">
        <ele>594.4</ele>
        <time>2023-07-23T11:34:48Z</time>
      </trkpt>
      <trkpt lat="42.18689" lon="0.89966">
        <ele>594.8</ele>
        <time>2023-07-23T11:34:49Z</time>
      </trkpt>
      <trkpt lat="42.18692" lon="0.89966">
        <ele>594.8</ele>
        <time>2023-07-23T11:34:50Z</time>
      </trkpt>
      <trkpt lat="42.18695" lon="0.89965">
        <ele>595.4</ele>
        <time>2023-07-23T11:34:51Z</time>
      </trkpt>
      <trkpt lat="42.18697" lon="0.89963">
        <ele>595.6</ele>
        <time>2023-07-23T11:34:52Z</time>
      </trkpt>
      <trkpt lat="42.187" lon="0.89961">
        <ele>596</ele>
        <time>2023-07-23T11:34:53Z</time>
      </trkpt>
      <trkpt lat="42.18702" lon="0.8996">
        <ele>596</ele>
        <time>2023-07-23T11:34:54Z</time>
      </trkpt>
      <trkpt lat="42.18705" lon="0.89959">
        <ele>596.2</ele>
        <time>2023-07-23T11:34:55Z</time>
      </trkpt>
      <trkpt lat="42.18707" lon="0.89959">
        <ele>596.2</ele>
        <time>2023-07-23T11:34:56Z</time>
      </trkpt>
      <trkpt lat="42.1871" lon="0.89958">
        <ele>596.2</ele>
        <time>2023-07-23T11:34:57Z</time>
      </trkpt>
      <trkpt lat="42.18712" lon="0.89957">
        <ele>596.4</ele>
        <time>2023-07-23T11:34:58Z</time>
      </trkpt>
      <trkpt lat="42.18714" lon="0.89956">
        <ele>596.6</ele>
        <time>2023-07-23T11:34:59Z</time>
      </trkpt>
      <trkpt lat="42.18717" lon="0.89955">
        <ele>596.6</ele>
        <time>2023-07-23T11:35:00Z</time>
      </trkpt>
      <trkpt lat="42.18719" lon="0.89953">
        <ele>596.8</ele>
        <time>2023-07-23T11:35:01Z</time>
      </trkpt>
      <trkpt lat="42.18721" lon="0.89951">
        <ele>597</ele>
        <time>2023-07-23T11:35:02Z</time>
      </trkpt>
      <trkpt lat="42.18724" lon="0.89949">
        <ele>597.4</ele>
        <time>2023-07-23T11:35:03Z</time>
      </trkpt>
      <trkpt lat="42.18726" lon="0.89947">
        <ele>597.6</ele>
        <time>2023-07-23T11:35:04Z</time>
      </trkpt>
      <trkpt lat="42.18729" lon="0.89945">
        <ele>597.8</ele>
        <time>2023-07-23T11:35:05Z</time>
      </trkpt>
      <trkpt lat="42.18732" lon="0.89943">
        <ele>598</ele>
        <time>2023-07-23T11:35:06Z</time>
      </trkpt>
      <trkpt lat="42.18735" lon="0.89941">
        <ele>598.2</ele>
        <time>2023-07-23T11:35:07Z</time>
      </trkpt>
      <trkpt lat="42.18738" lon="0.89938">
        <ele>598.4</ele>
        <time>2023-07-23T11:35:08Z</time>
      </trkpt>
      <trkpt lat="42.18741" lon="0.89936">
        <ele>598.6</ele>
        <time>2023-07-23T11:35:09Z</time>
      </trkpt>
      <trkpt lat="42.18744" lon="0.89933">
        <ele>598.6</ele>
        <time>2023-07-23T11:35:10Z</time>
      </trkpt>
      <trkpt lat="42.18747" lon="0.8993">
        <ele>598.6</ele>
        <time>2023-07-23T11:35:11Z</time>
      </trkpt>
      <trkpt lat="42.1875" lon="0.89927">
        <ele>598.8</ele>
        <time>2023-07-23T11:35:12Z</time>
      </trkpt>
      <trkpt lat="42.18753" lon="0.89924">
        <ele>598.8</ele>
        <time>2023-07-23T11:35:13Z</time>
      </trkpt>
      <trkpt lat="42.18756" lon="0.89922">
        <ele>598.8</ele>
        <time>2023-07-23T11:35:14Z</time>
      </trkpt>
      <trkpt lat="42.18758" lon="0.89919">
        <ele>598.8</ele>
        <time>2023-07-23T11:35:15Z</time>
      </trkpt>
      <trkpt lat="42.18761" lon="0.89916">
        <ele>598.8</ele>
        <time>2023-07-23T11:35:16Z</time>
      </trkpt>
      <trkpt lat="42.18763" lon="0.89913">
        <ele>598.8</ele>
        <time>2023-07-23T11:35:17Z</time>
      </trkpt>
      <trkpt lat="42.18765" lon="0.8991">
        <ele>598.8</ele>
        <time>2023-07-23T11:35:18Z</time>
      </trkpt>
      <trkpt lat="42.18767" lon="0.89906">
        <ele>598.8</ele>
        <time>2023-07-23T11:35:19Z</time>
      </trkpt>
      <trkpt lat="42.1877" lon="0.89902">
        <ele>598.8</ele>
        <time>2023-07-23T11:35:20Z</time>
      </trkpt>
      <trkpt lat="42.18772" lon="0.89898">
        <ele>598.8</ele>
        <time>2023-07-23T11:35:21Z</time>
      </trkpt>
      <trkpt lat="42.18775" lon="0.89894">
        <ele>598.6</ele>
        <time>2023-07-23T11:35:22Z</time>
      </trkpt>
      <trkpt lat="42.18777" lon="0.89891">
        <ele>598.6</ele>
        <time>2023-07-23T11:35:23Z</time>
      </trkpt>
      <trkpt lat="42.18779" lon="0.89888">
        <ele>598.6</ele>
        <time>2023-07-23T11:35:24Z</time>
      </trkpt>
      <trkpt lat="42.18781" lon="0.89885">
        <ele>598.6</ele>
        <time>2023-07-23T11:35:25Z</time>
      </trkpt>
      <trkpt lat="42.18784" lon="0.89882">
        <ele>598.6</ele>
        <time>2023-07-23T11:35:26Z</time>
      </trkpt>
      <trkpt lat="42.18786" lon="0.89878">
        <ele>598.6</ele>
        <time>2023-07-23T11:35:27Z</time>
      </trkpt>
      <trkpt lat="42.18789" lon="0.89875">
        <ele>598.6</ele>
        <time>2023-07-23T11:35:28Z</time>
      </trkpt>
      <trkpt lat="42.18791" lon="0.89872">
        <ele>598.6</ele>
        <time>2023-07-23T11:35:29Z</time>
      </trkpt>
      <trkpt lat="42.18793" lon="0.89868">
        <ele>598.6</ele>
        <time>2023-07-23T11:35:30Z</time>
      </trkpt>
      <trkpt lat="42.18796" lon="0.89864">
        <ele>598.6</ele>
        <time>2023-07-23T11:35:31Z</time>
      </trkpt>
      <trkpt lat="42.18798" lon="0.89861">
        <ele>598.8</ele>
        <time>2023-07-23T11:35:32Z</time>
      </trkpt>
      <trkpt lat="42.18801" lon="0.89857">
        <ele>598.8</ele>
        <time>2023-07-23T11:35:33Z</time>
      </trkpt>
      <trkpt lat="42.18803" lon="0.89854">
        <ele>598.8</ele>
        <time>2023-07-23T11:35:34Z</time>
      </trkpt>
      <trkpt lat="42.18805" lon="0.8985">
        <ele>598.8</ele>
        <time>2023-07-23T11:35:35Z</time>
      </trkpt>
      <trkpt lat="42.18808" lon="0.89846">
        <ele>598.8</ele>
        <time>2023-07-23T11:35:36Z</time>
      </trkpt>
      <trkpt lat="42.1881" lon="0.89843">
        <ele>599</ele>
        <time>2023-07-23T11:35:37Z</time>
      </trkpt>
      <trkpt lat="42.18812" lon="0.89839">
        <ele>599</ele>
        <time>2023-07-23T11:35:38Z</time>
      </trkpt>
      <trkpt lat="42.18815" lon="0.89835">
        <ele>599</ele>
        <time>2023-07-23T11:35:39Z</time>
      </trkpt>
      <trkpt lat="42.18817" lon="0.8983">
        <ele>599</ele>
        <time>2023-07-23T11:35:40Z</time>
      </trkpt>
      <trkpt lat="42.18819" lon="0.89826">
        <ele>599</ele>
        <time>2023-07-23T11:35:41Z</time>
      </trkpt>
      <trkpt lat="42.18821" lon="0.89822">
        <ele>599.2</ele>
        <time>2023-07-23T11:35:42Z</time>
      </trkpt>
      <trkpt lat="42.18823" lon="0.89817">
        <ele>599.2</ele>
        <time>2023-07-23T11:35:43Z</time>
      </trkpt>
      <trkpt lat="42.18825" lon="0.89812">
        <ele>599.2</ele>
        <time>2023-07-23T11:35:44Z</time>
      </trkpt>
      <trkpt lat="42.18827" lon="0.89807">
        <ele>599.2</ele>
        <time>2023-07-23T11:35:45Z</time>
      </trkpt>
      <trkpt lat="42.18828" lon="0.89803">
        <ele>599.2</ele>
        <time>2023-07-23T11:35:46Z</time>
      </trkpt>
      <trkpt lat="42.1883" lon="0.89798">
        <ele>599.2</ele>
        <time>2023-07-23T11:35:47Z</time>
      </trkpt>
      <trkpt lat="42.18831" lon="0.89793">
        <ele>599.2</ele>
        <time>2023-07-23T11:35:48Z</time>
      </trkpt>
      <trkpt lat="42.18832" lon="0.89787">
        <ele>599</ele>
        <time>2023-07-23T11:35:49Z</time>
      </trkpt>
      <trkpt lat="42.18834" lon="0.89783">
        <ele>599</ele>
        <time>2023-07-23T11:35:50Z</time>
      </trkpt>
      <trkpt lat="42.18835" lon="0.89778">
        <ele>599</ele>
        <time>2023-07-23T11:35:51Z</time>
      </trkpt>
      <trkpt lat="42.18837" lon="0.89773">
        <ele>599</ele>
        <time>2023-07-23T11:35:52Z</time>
      </trkpt>
      <trkpt lat="42.18838" lon="0.89768">
        <ele>599</ele>
        <time>2023-07-23T11:35:53Z</time>
      </trkpt>
      <trkpt lat="42.18839" lon="0.89763">
        <ele>598.8</ele>
        <time>2023-07-23T11:35:54Z</time>
      </trkpt>
      <trkpt lat="42.1884" lon="0.89758">
        <ele>598.8</ele>
        <time>2023-07-23T11:35:55Z</time>
      </trkpt>
      <trkpt lat="42.18841" lon="0.89753">
        <ele>598.8</ele>
        <time>2023-07-23T11:35:56Z</time>
      </trkpt>
      <trkpt lat="42.18842" lon="0.89748">
        <ele>598.8</ele>
        <time>2023-07-23T11:35:57Z</time>
      </trkpt>
      <trkpt lat="42.18843" lon="0.89744">
        <ele>598.8</ele>
        <time>2023-07-23T11:35:58Z</time>
      </trkpt>
      <trkpt lat="42.18843" lon="0.89739">
        <ele>598.8</ele>
        <time>2023-07-23T11:35:59Z</time>
      </trkpt>
      <trkpt lat="42.18844" lon="0.89734">
        <ele>598.8</ele>
        <time>2023-07-23T11:36:00Z</time>
      </trkpt>
      <trkpt lat="42.18846" lon="0.89729">
        <ele>599</ele>
        <time>2023-07-23T11:36:01Z</time>
      </trkpt>
      <trkpt lat="42.18847" lon="0.89725">
        <ele>599</ele>
        <time>2023-07-23T11:36:02Z</time>
      </trkpt>
      <trkpt lat="42.18849" lon="0.89721">
        <ele>599</ele>
        <time>2023-07-23T11:36:03Z</time>
      </trkpt>
      <trkpt lat="42.18851" lon="0.89718">
        <ele>599.4</ele>
        <time>2023-07-23T11:36:04Z</time>
      </trkpt>
      <trkpt lat="42.18853" lon="0.89714">
        <ele>599.4</ele>
        <time>2023-07-23T11:36:05Z</time>
      </trkpt>
      <trkpt lat="42.18855" lon="0.89711">
        <ele>599.8</ele>
        <time>2023-07-23T11:36:06Z</time>
      </trkpt>
      <trkpt lat="42.18857" lon="0.89708">
        <ele>599.8</ele>
        <time>2023-07-23T11:36:07Z</time>
      </trkpt>
      <trkpt lat="42.18859" lon="0.89705">
        <ele>600</ele>
        <time>2023-07-23T11:36:08Z</time>
      </trkpt>
      <trkpt lat="42.1886" lon="0.89702">
        <ele>600</ele>
        <time>2023-07-23T11:36:09Z</time>
      </trkpt>
      <trkpt lat="42.18863" lon="0.897">
        <ele>600.2</ele>
        <time>2023-07-23T11:36:10Z</time>
      </trkpt>
      <trkpt lat="42.18865" lon="0.89697">
        <ele>600.4</ele>
        <time>2023-07-23T11:36:11Z</time>
      </trkpt>
      <trkpt lat="42.18867" lon="0.89695">
        <ele>600.4</ele>
        <time>2023-07-23T11:36:12Z</time>
      </trkpt>
      <trkpt lat="42.18869" lon="0.89693">
        <ele>600.8</ele>
        <time>2023-07-23T11:36:13Z</time>
      </trkpt>
      <trkpt lat="42.18872" lon="0.89692">
        <ele>601</ele>
        <time>2023-07-23T11:36:14Z</time>
      </trkpt>
      <trkpt lat="42.18874" lon="0.8969">
        <ele>601.2</ele>
        <time>2023-07-23T11:36:15Z</time>
      </trkpt>
      <trkpt lat="42.18877" lon="0.89689">
        <ele>601.4</ele>
        <time>2023-07-23T11:36:16Z</time>
      </trkpt>
      <trkpt lat="42.1888" lon="0.89687">
        <ele>601.6</ele>
        <time>2023-07-23T11:36:17Z</time>
      </trkpt>
      <trkpt lat="42.18882" lon="0.89686">
        <ele>602</ele>
        <time>2023-07-23T11:36:18Z</time>
      </trkpt>
      <trkpt lat="42.18885" lon="0.89684">
        <ele>602.4</ele>
        <time>2023-07-23T11:36:19Z</time>
      </trkpt>
      <trkpt lat="42.18888" lon="0.89682">
        <ele>602.6</ele>
        <time>2023-07-23T11:36:20Z</time>
      </trkpt>
      <trkpt lat="42.1889" lon="0.89681">
        <ele>603.2</ele>
        <time>2023-07-23T11:36:21Z</time>
      </trkpt>
      <trkpt lat="42.18893" lon="0.8968">
        <ele>603.2</ele>
        <time>2023-07-23T11:36:22Z</time>
      </trkpt>
      <trkpt lat="42.18895" lon="0.89678">
        <ele>603.6</ele>
        <time>2023-07-23T11:36:23Z</time>
      </trkpt>
      <trkpt lat="42.18897" lon="0.89676">
        <ele>603.8</ele>
        <time>2023-07-23T11:36:24Z</time>
      </trkpt>
      <trkpt lat="42.189" lon="0.89674">
        <ele>604</ele>
        <time>2023-07-23T11:36:25Z</time>
      </trkpt>
      <trkpt lat="42.18902" lon="0.89673">
        <ele>604.6</ele>
        <time>2023-07-23T11:36:26Z</time>
      </trkpt>
      <trkpt lat="42.18904" lon="0.89671">
        <ele>604.8</ele>
        <time>2023-07-23T11:36:27Z</time>
      </trkpt>
      <trkpt lat="42.18907" lon="0.8967">
        <ele>605</ele>
        <time>2023-07-23T11:36:28Z</time>
      </trkpt>
      <trkpt lat="42.1891" lon="0.89669">
        <ele>605.2</ele>
        <time>2023-07-23T11:36:29Z</time>
      </trkpt>
      <trkpt lat="42.18912" lon="0.89668">
        <ele>605.4</ele>
        <time>2023-07-23T11:36:30Z</time>
      </trkpt>
      <trkpt lat="42.18915" lon="0.89667">
        <ele>605.6</ele>
        <time>2023-07-23T11:36:31Z</time>
      </trkpt>
      <trkpt lat="42.18918" lon="0.89666">
        <ele>605.6</ele>
        <time>2023-07-23T11:36:32Z</time>
      </trkpt>
      <trkpt lat="42.1892" lon="0.89664">
        <ele>606</ele>
        <time>2023-07-23T11:36:33Z</time>
      </trkpt>
      <trkpt lat="42.18923" lon="0.89663">
        <ele>606.2</ele>
        <time>2023-07-23T11:36:34Z</time>
      </trkpt>
      <trkpt lat="42.18926" lon="0.89662">
        <ele>606.4</ele>
        <time>2023-07-23T11:36:35Z</time>
      </trkpt>
      <trkpt lat="42.18928" lon="0.89662">
        <ele>606.8</ele>
        <time>2023-07-23T11:36:36Z</time>
      </trkpt>
      <trkpt lat="42.18931" lon="0.89661">
        <ele>606.8</ele>
        <time>2023-07-23T11:36:37Z</time>
      </trkpt>
      <trkpt lat="42.18934" lon="0.89659">
        <ele>607.2</ele>
        <time>2023-07-23T11:36:38Z</time>
      </trkpt>
      <trkpt lat="42.18936" lon="0.89657">
        <ele>607.4</ele>
        <time>2023-07-23T11:36:39Z</time>
      </trkpt>
      <trkpt lat="42.18939" lon="0.89656">
        <ele>607.6</ele>
        <time>2023-07-23T11:36:40Z</time>
      </trkpt>
      <trkpt lat="42.18942" lon="0.89654">
        <ele>607.8</ele>
        <time>2023-07-23T11:36:41Z</time>
      </trkpt>
      <trkpt lat="42.18944" lon="0.89652">
        <ele>608</ele>
        <time>2023-07-23T11:36:42Z</time>
      </trkpt>
      <trkpt lat="42.18947" lon="0.8965">
        <ele>608.2</ele>
        <time>2023-07-23T11:36:43Z</time>
      </trkpt>
      <trkpt lat="42.18949" lon="0.89648">
        <ele>608.2</ele>
        <time>2023-07-23T11:36:44Z</time>
      </trkpt>
      <trkpt lat="42.18952" lon="0.89646">
        <ele>608.4</ele>
        <time>2023-07-23T11:36:45Z</time>
      </trkpt>
      <trkpt lat="42.18954" lon="0.89644">
        <ele>608.6</ele>
        <time>2023-07-23T11:36:46Z</time>
      </trkpt>
      <trkpt lat="42.18957" lon="0.89642">
        <ele>608.6</ele>
        <time>2023-07-23T11:36:47Z</time>
      </trkpt>
      <trkpt lat="42.18959" lon="0.89639">
        <ele>608.8</ele>
        <time>2023-07-23T11:36:48Z</time>
      </trkpt>
      <trkpt lat="42.18962" lon="0.89636">
        <ele>608.8</ele>
        <time>2023-07-23T11:36:49Z</time>
      </trkpt>
      <trkpt lat="42.18965" lon="0.89634">
        <ele>609.2</ele>
        <time>2023-07-23T11:36:50Z</time>
      </trkpt>
      <trkpt lat="42.18968" lon="0.89631">
        <ele>609.2</ele>
        <time>2023-07-23T11:36:51Z</time>
      </trkpt>
      <trkpt lat="42.18971" lon="0.89628">
        <ele>609.4</ele>
        <time>2023-07-23T11:36:52Z</time>
      </trkpt>
      <trkpt lat="42.18974" lon="0.89626">
        <ele>609.6</ele>
        <time>2023-07-23T11:36:53Z</time>
      </trkpt>
      <trkpt lat="42.18977" lon="0.89623">
        <ele>609.6</ele>
        <time>2023-07-23T11:36:54Z</time>
      </trkpt>
      <trkpt lat="42.1898" lon="0.89621">
        <ele>609.8</ele>
        <time>2023-07-23T11:36:55Z</time>
      </trkpt>
      <trkpt lat="42.18983" lon="0.89619">
        <ele>609.8</ele>
        <time>2023-07-23T11:36:56Z</time>
      </trkpt>
      <trkpt lat="42.18986" lon="0.89616">
        <ele>610.2</ele>
        <time>2023-07-23T11:36:57Z</time>
      </trkpt>
      <trkpt lat="42.1899" lon="0.89613">
        <ele>610.4</ele>
        <time>2023-07-23T11:36:58Z</time>
      </trkpt>
      <trkpt lat="42.18993" lon="0.8961">
        <ele>610.6</ele>
        <time>2023-07-23T11:36:59Z</time>
      </trkpt>
      <trkpt lat="42.18996" lon="0.89607">
        <ele>610.8</ele>
        <time>2023-07-23T11:37:00Z</time>
      </trkpt>
      <trkpt lat="42.18999" lon="0.89604">
        <ele>610.8</ele>
        <time>2023-07-23T11:37:01Z</time>
      </trkpt>
      <trkpt lat="42.19002" lon="0.896">
        <ele>611</ele>
        <time>2023-07-23T11:37:02Z</time>
      </trkpt>
      <trkpt lat="42.19004" lon="0.89597">
        <ele>611.2</ele>
        <time>2023-07-23T11:37:03Z</time>
      </trkpt>
      <trkpt lat="42.19007" lon="0.89593">
        <ele>611.4</ele>
        <time>2023-07-23T11:37:04Z</time>
      </trkpt>
      <trkpt lat="42.1901" lon="0.89589">
        <ele>611.8</ele>
        <time>2023-07-23T11:37:05Z</time>
      </trkpt>
      <trkpt lat="42.19013" lon="0.89585">
        <ele>612</ele>
        <time>2023-07-23T11:37:06Z</time>
      </trkpt>
      <trkpt lat="42.19016" lon="0.89582">
        <ele>612.4</ele>
        <time>2023-07-23T11:37:07Z</time>
      </trkpt>
      <trkpt lat="42.19019" lon="0.89578">
        <ele>612.6</ele>
        <time>2023-07-23T11:37:08Z</time>
      </trkpt>
      <trkpt lat="42.19021" lon="0.89575">
        <ele>612.8</ele>
        <time>2023-07-23T11:37:09Z</time>
      </trkpt>
      <trkpt lat="42.19024" lon="0.89571">
        <ele>613.2</ele>
        <time>2023-07-23T11:37:10Z</time>
      </trkpt>
      <trkpt lat="42.19027" lon="0.89567">
        <ele>613.4</ele>
        <time>2023-07-23T11:37:11Z</time>
      </trkpt>
      <trkpt lat="42.1903" lon="0.89563">
        <ele>613.8</ele>
        <time>2023-07-23T11:37:12Z</time>
      </trkpt>
      <trkpt lat="42.19033" lon="0.8956">
        <ele>613.8</ele>
        <time>2023-07-23T11:37:13Z</time>
      </trkpt>
      <trkpt lat="42.19036" lon="0.89556">
        <ele>614</ele>
        <time>2023-07-23T11:37:14Z</time>
      </trkpt>
      <trkpt lat="42.19039" lon="0.89552">
        <ele>614.2</ele>
        <time>2023-07-23T11:37:15Z</time>
      </trkpt>
      <trkpt lat="42.19042" lon="0.89548">
        <ele>614.6</ele>
        <time>2023-07-23T11:37:16Z</time>
      </trkpt>
      <trkpt lat="42.19045" lon="0.89545">
        <ele>615</ele>
        <time>2023-07-23T11:37:17Z</time>
      </trkpt>
      <trkpt lat="42.19047" lon="0.89542">
        <ele>615.2</ele>
        <time>2023-07-23T11:37:18Z</time>
      </trkpt>
      <trkpt lat="42.1905" lon="0.89537">
        <ele>615.6</ele>
        <time>2023-07-23T11:37:19Z</time>
      </trkpt>
      <trkpt lat="42.19053" lon="0.89533">
        <ele>615.8</ele>
        <time>2023-07-23T11:37:20Z</time>
      </trkpt>
      <trkpt lat="42.19056" lon="0.8953">
        <ele>616.2</ele>
        <time>2023-07-23T11:37:21Z</time>
      </trkpt>
      <trkpt lat="42.19059" lon="0.89526">
        <ele>616.6</ele>
        <time>2023-07-23T11:37:22Z</time>
      </trkpt>
      <trkpt lat="42.19062" lon="0.89522">
        <ele>616.8</ele>
        <time>2023-07-23T11:37:23Z</time>
      </trkpt>
      <trkpt lat="42.19065" lon="0.89518">
        <ele>617.2</ele>
        <time>2023-07-23T11:37:24Z</time>
      </trkpt>
      <trkpt lat="42.19068" lon="0.89515">
        <ele>617.4</ele>
        <time>2023-07-23T11:37:25Z</time>
      </trkpt>
      <trkpt lat="42.19071" lon="0.89511">
        <ele>617.6</ele>
        <time>2023-07-23T11:37:26Z</time>
      </trkpt>
      <trkpt lat="42.19073" lon="0.89508">
        <ele>618.2</ele>
        <time>2023-07-23T11:37:27Z</time>
      </trkpt>
      <trkpt lat="42.19076" lon="0.89504">
        <ele>618.4</ele>
        <time>2023-07-23T11:37:28Z</time>
      </trkpt>
      <trkpt lat="42.19079" lon="0.89501">
        <ele>618.8</ele>
        <time>2023-07-23T11:37:29Z</time>
      </trkpt>
      <trkpt lat="42.19082" lon="0.89497">
        <ele>619</ele>
        <time>2023-07-23T11:37:30Z</time>
      </trkpt>
      <trkpt lat="42.19084" lon="0.89494">
        <ele>619.6</ele>
        <time>2023-07-23T11:37:31Z</time>
      </trkpt>
      <trkpt lat="42.19087" lon="0.89491">
        <ele>619.8</ele>
        <time>2023-07-23T11:37:32Z</time>
      </trkpt>
      <trkpt lat="42.1909" lon="0.89487">
        <ele>620</ele>
        <time>2023-07-23T11:37:33Z</time>
      </trkpt>
      <trkpt lat="42.19092" lon="0.89484">
        <ele>620.6</ele>
        <time>2023-07-23T11:37:34Z</time>
      </trkpt>
      <trkpt lat="42.19095" lon="0.89481">
        <ele>620.6</ele>
        <time>2023-07-23T11:37:35Z</time>
      </trkpt>
      <trkpt lat="42.19098" lon="0.89478">
        <ele>621</ele>
        <time>2023-07-23T11:37:36Z</time>
      </trkpt>
      <trkpt lat="42.191" lon="0.89474">
        <ele>621.4</ele>
        <time>2023-07-23T11:37:37Z</time>
      </trkpt>
      <trkpt lat="42.19102" lon="0.89471">
        <ele>621.6</ele>
        <time>2023-07-23T11:37:38Z</time>
      </trkpt>
      <trkpt lat="42.19105" lon="0.89468">
        <ele>622.2</ele>
        <time>2023-07-23T11:37:39Z</time>
      </trkpt>
      <trkpt lat="42.19107" lon="0.89466">
        <ele>622.2</ele>
        <time>2023-07-23T11:37:40Z</time>
      </trkpt>
      <trkpt lat="42.1911" lon="0.89462">
        <ele>622.4</ele>
        <time>2023-07-23T11:37:41Z</time>
      </trkpt>
      <trkpt lat="42.19112" lon="0.8946">
        <ele>622.6</ele>
        <time>2023-07-23T11:37:42Z</time>
      </trkpt>
      <trkpt lat="42.19115" lon="0.89456">
        <ele>622.8</ele>
        <time>2023-07-23T11:37:43Z</time>
      </trkpt>
      <trkpt lat="42.19117" lon="0.89453">
        <ele>623.2</ele>
        <time>2023-07-23T11:37:44Z</time>
      </trkpt>
      <trkpt lat="42.1912" lon="0.8945">
        <ele>623.4</ele>
        <time>2023-07-23T11:37:45Z</time>
      </trkpt>
      <trkpt lat="42.19122" lon="0.89448">
        <ele>623.8</ele>
        <time>2023-07-23T11:37:46Z</time>
      </trkpt>
      <trkpt lat="42.19124" lon="0.89444">
        <ele>623.8</ele>
        <time>2023-07-23T11:37:47Z</time>
      </trkpt>
      <trkpt lat="42.19127" lon="0.89442">
        <ele>624</ele>
        <time>2023-07-23T11:37:48Z</time>
      </trkpt>
      <trkpt lat="42.19129" lon="0.89439">
        <ele>624.2</ele>
        <time>2023-07-23T11:37:49Z</time>
      </trkpt>
      <trkpt lat="42.19131" lon="0.89436">
        <ele>624.6</ele>
        <time>2023-07-23T11:37:50Z</time>
      </trkpt>
      <trkpt lat="42.19134" lon="0.89433">
        <ele>624.8</ele>
        <time>2023-07-23T11:37:51Z</time>
      </trkpt>
      <trkpt lat="42.19136" lon="0.8943">
        <ele>624.8</ele>
        <time>2023-07-23T11:37:52Z</time>
      </trkpt>
      <trkpt lat="42.19138" lon="0.89427">
        <ele>625.6</ele>
        <time>2023-07-23T11:37:53Z</time>
      </trkpt>
      <trkpt lat="42.19141" lon="0.89424">
        <ele>625.6</ele>
        <time>2023-07-23T11:37:54Z</time>
      </trkpt>
      <trkpt lat="42.19143" lon="0.89421">
        <ele>625.8</ele>
        <time>2023-07-23T11:37:55Z</time>
      </trkpt>
      <trkpt lat="42.19145" lon="0.89418">
        <ele>626</ele>
        <time>2023-07-23T11:37:56Z</time>
      </trkpt>
      <trkpt lat="42.19148" lon="0.89415">
        <ele>626.2</ele>
        <time>2023-07-23T11:37:57Z</time>
      </trkpt>
      <trkpt lat="42.1915" lon="0.89412">
        <ele>626.6</ele>
        <time>2023-07-23T11:37:58Z</time>
      </trkpt>
      <trkpt lat="42.19152" lon="0.89409">
        <ele>626.6</ele>
        <time>2023-07-23T11:37:59Z</time>
      </trkpt>
      <trkpt lat="42.19155" lon="0.89406">
        <ele>626.8</ele>
        <time>2023-07-23T11:38:00Z</time>
      </trkpt>
      <trkpt lat="42.19157" lon="0.89402">
        <ele>627</ele>
        <time>2023-07-23T11:38:01Z</time>
      </trkpt>
      <trkpt lat="42.1916" lon="0.89399">
        <ele>627.2</ele>
        <time>2023-07-23T11:38:02Z</time>
      </trkpt>
      <trkpt lat="42.19162" lon="0.89396">
        <ele>627.4</ele>
        <time>2023-07-23T11:38:03Z</time>
      </trkpt>
      <trkpt lat="42.19164" lon="0.89393">
        <ele>627.6</ele>
        <time>2023-07-23T11:38:04Z</time>
      </trkpt>
      <trkpt lat="42.19167" lon="0.89389">
        <ele>627.8</ele>
        <time>2023-07-23T11:38:05Z</time>
      </trkpt>
      <trkpt lat="42.19169" lon="0.89386">
        <ele>627.8</ele>
        <time>2023-07-23T11:38:06Z</time>
      </trkpt>
      <trkpt lat="42.19171" lon="0.89383">
        <ele>628</ele>
        <time>2023-07-23T11:38:07Z</time>
      </trkpt>
      <trkpt lat="42.19173" lon="0.8938">
        <ele>628.2</ele>
        <time>2023-07-23T11:38:08Z</time>
      </trkpt>
      <trkpt lat="42.19175" lon="0.89376">
        <ele>628.4</ele>
        <time>2023-07-23T11:38:09Z</time>
      </trkpt>
      <trkpt lat="42.19177" lon="0.89373">
        <ele>628.4</ele>
        <time>2023-07-23T11:38:10Z</time>
      </trkpt>
      <trkpt lat="42.19179" lon="0.89369">
        <ele>628.6</ele>
        <time>2023-07-23T11:38:11Z</time>
      </trkpt>
      <trkpt lat="42.19181" lon="0.89365">
        <ele>628.8</ele>
        <time>2023-07-23T11:38:12Z</time>
      </trkpt>
      <trkpt lat="42.19183" lon="0.89362">
        <ele>629</ele>
        <time>2023-07-23T11:38:13Z</time>
      </trkpt>
      <trkpt lat="42.19185" lon="0.89358">
        <ele>629</ele>
        <time>2023-07-23T11:38:14Z</time>
      </trkpt>
      <trkpt lat="42.19187" lon="0.89355">
        <ele>629.2</ele>
        <time>2023-07-23T11:38:15Z</time>
      </trkpt>
      <trkpt lat="42.1919" lon="0.89351">
        <ele>629.4</ele>
        <time>2023-07-23T11:38:16Z</time>
      </trkpt>
      <trkpt lat="42.19192" lon="0.89347">
        <ele>629.6</ele>
        <time>2023-07-23T11:38:17Z</time>
      </trkpt>
      <trkpt lat="42.19194" lon="0.89344">
        <ele>629.6</ele>
        <time>2023-07-23T11:38:18Z</time>
      </trkpt>
      <trkpt lat="42.19196" lon="0.8934">
        <ele>629.8</ele>
        <time>2023-07-23T11:38:19Z</time>
      </trkpt>
      <trkpt lat="42.19198" lon="0.89337">
        <ele>630</ele>
        <time>2023-07-23T11:38:20Z</time>
      </trkpt>
      <trkpt lat="42.192" lon="0.89333">
        <ele>630</ele>
        <time>2023-07-23T11:38:21Z</time>
      </trkpt>
      <trkpt lat="42.19202" lon="0.89329">
        <ele>630.2</ele>
        <time>2023-07-23T11:38:22Z</time>
      </trkpt>
      <trkpt lat="42.19205" lon="0.89325">
        <ele>630.2</ele>
        <time>2023-07-23T11:38:23Z</time>
      </trkpt>
      <trkpt lat="42.19207" lon="0.89321">
        <ele>630.4</ele>
        <time>2023-07-23T11:38:24Z</time>
      </trkpt>
      <trkpt lat="42.19209" lon="0.89317">
        <ele>630.6</ele>
        <time>2023-07-23T11:38:25Z</time>
      </trkpt>
      <trkpt lat="42.19211" lon="0.89313">
        <ele>630.6</ele>
        <time>2023-07-23T11:38:26Z</time>
      </trkpt>
      <trkpt lat="42.19214" lon="0.89309">
        <ele>630.8</ele>
        <time>2023-07-23T11:38:27Z</time>
      </trkpt>
      <trkpt lat="42.19216" lon="0.89305">
        <ele>630.8</ele>
        <time>2023-07-23T11:38:28Z</time>
      </trkpt>
      <trkpt lat="42.19218" lon="0.89302">
        <ele>630.8</ele>
        <time>2023-07-23T11:38:29Z</time>
      </trkpt>
      <trkpt lat="42.19221" lon="0.89298">
        <ele>631</ele>
        <time>2023-07-23T11:38:30Z</time>
      </trkpt>
      <trkpt lat="42.19223" lon="0.89294">
        <ele>631.2</ele>
        <time>2023-07-23T11:38:31Z</time>
      </trkpt>
      <trkpt lat="42.19225" lon="0.8929">
        <ele>631.4</ele>
        <time>2023-07-23T11:38:32Z</time>
      </trkpt>
      <trkpt lat="42.19227" lon="0.89286">
        <ele>631.4</ele>
        <time>2023-07-23T11:38:33Z</time>
      </trkpt>
      <trkpt lat="42.19229" lon="0.89282">
        <ele>631.6</ele>
        <time>2023-07-23T11:38:34Z</time>
      </trkpt>
      <trkpt lat="42.19232" lon="0.89278">
        <ele>631.6</ele>
        <time>2023-07-23T11:38:35Z</time>
      </trkpt>
      <trkpt lat="42.19234" lon="0.89274">
        <ele>632</ele>
        <time>2023-07-23T11:38:36Z</time>
      </trkpt>
      <trkpt lat="42.19236" lon="0.8927">
        <ele>632</ele>
        <time>2023-07-23T11:38:37Z</time>
      </trkpt>
      <trkpt lat="42.19238" lon="0.89266">
        <ele>632.2</ele>
        <time>2023-07-23T11:38:38Z</time>
      </trkpt>
      <trkpt lat="42.19241" lon="0.89263">
        <ele>632.2</ele>
        <time>2023-07-23T11:38:39Z</time>
      </trkpt>
      <trkpt lat="42.19242" lon="0.89259">
        <ele>632.2</ele>
        <time>2023-07-23T11:38:40Z</time>
      </trkpt>
      <trkpt lat="42.19244" lon="0.89256">
        <ele>632.4</ele>
        <time>2023-07-23T11:38:41Z</time>
      </trkpt>
      <trkpt lat="42.19246" lon="0.89253">
        <ele>632.4</ele>
        <time>2023-07-23T11:38:42Z</time>
      </trkpt>
      <trkpt lat="42.19248" lon="0.89249">
        <ele>632.6</ele>
        <time>2023-07-23T11:38:43Z</time>
      </trkpt>
      <trkpt lat="42.1925" lon="0.89246">
        <ele>632.8</ele>
        <time>2023-07-23T11:38:44Z</time>
      </trkpt>
      <trkpt lat="42.19253" lon="0.89243">
        <ele>633</ele>
        <time>2023-07-23T11:38:45Z</time>
      </trkpt>
      <trkpt lat="42.19255" lon="0.89239">
        <ele>633.2</ele>
        <time>2023-07-23T11:38:46Z</time>
      </trkpt>
      <trkpt lat="42.19257" lon="0.89236">
        <ele>633.2</ele>
        <time>2023-07-23T11:38:47Z</time>
      </trkpt>
      <trkpt lat="42.19259" lon="0.89232">
        <ele>633.4</ele>
        <time>2023-07-23T11:38:48Z</time>
      </trkpt>
      <trkpt lat="42.19261" lon="0.89228">
        <ele>633.6</ele>
        <time>2023-07-23T11:38:49Z</time>
      </trkpt>
      <trkpt lat="42.19263" lon="0.89224">
        <ele>633.8</ele>
        <time>2023-07-23T11:38:50Z</time>
      </trkpt>
      <trkpt lat="42.19265" lon="0.89221">
        <ele>634</ele>
        <time>2023-07-23T11:38:51Z</time>
      </trkpt>
      <trkpt lat="42.19267" lon="0.89217">
        <ele>634.2</ele>
        <time>2023-07-23T11:38:52Z</time>
      </trkpt>
      <trkpt lat="42.19269" lon="0.89214">
        <ele>634.2</ele>
        <time>2023-07-23T11:38:53Z</time>
      </trkpt>
      <trkpt lat="42.19272" lon="0.8921">
        <ele>634.2</ele>
        <time>2023-07-23T11:38:54Z</time>
      </trkpt>
      <trkpt lat="42.19274" lon="0.89206">
        <ele>634.2</ele>
        <time>2023-07-23T11:38:55Z</time>
      </trkpt>
      <trkpt lat="42.19276" lon="0.89203">
        <ele>634.4</ele>
        <time>2023-07-23T11:38:56Z</time>
      </trkpt>
      <trkpt lat="42.19278" lon="0.89199">
        <ele>634.4</ele>
        <time>2023-07-23T11:38:57Z</time>
      </trkpt>
      <trkpt lat="42.1928" lon="0.89195">
        <ele>634.4</ele>
        <time>2023-07-23T11:38:58Z</time>
      </trkpt>
      <trkpt lat="42.19282" lon="0.89191">
        <ele>634.8</ele>
        <time>2023-07-23T11:38:59Z</time>
      </trkpt>
      <trkpt lat="42.19285" lon="0.89187">
        <ele>634.8</ele>
        <time>2023-07-23T11:39:00Z</time>
      </trkpt>
      <trkpt lat="42.19287" lon="0.89183">
        <ele>635</ele>
        <time>2023-07-23T11:39:01Z</time>
      </trkpt>
      <trkpt lat="42.19289" lon="0.89179">
        <ele>635.2</ele>
        <time>2023-07-23T11:39:02Z</time>
      </trkpt>
      <trkpt lat="42.19291" lon="0.89174">
        <ele>635.2</ele>
        <time>2023-07-23T11:39:03Z</time>
      </trkpt>
      <trkpt lat="42.19294" lon="0.8917">
        <ele>635.4</ele>
        <time>2023-07-23T11:39:04Z</time>
      </trkpt>
      <trkpt lat="42.19296" lon="0.89166">
        <ele>635.4</ele>
        <time>2023-07-23T11:39:05Z</time>
      </trkpt>
      <trkpt lat="42.19298" lon="0.89162">
        <ele>635.4</ele>
        <time>2023-07-23T11:39:06Z</time>
      </trkpt>
      <trkpt lat="42.19299" lon="0.89157">
        <ele>635.4</ele>
        <time>2023-07-23T11:39:07Z</time>
      </trkpt>
      <trkpt lat="42.19301" lon="0.89152">
        <ele>635.6</ele>
        <time>2023-07-23T11:39:08Z</time>
      </trkpt>
      <trkpt lat="42.19303" lon="0.89148">
        <ele>635.6</ele>
        <time>2023-07-23T11:39:09Z</time>
      </trkpt>
      <trkpt lat="42.19305" lon="0.89143">
        <ele>635.8</ele>
        <time>2023-07-23T11:39:10Z</time>
      </trkpt>
      <trkpt lat="42.19306" lon="0.89139">
        <ele>635.8</ele>
        <time>2023-07-23T11:39:11Z</time>
      </trkpt>
      <trkpt lat="42.19308" lon="0.89133">
        <ele>635.8</ele>
        <time>2023-07-23T11:39:12Z</time>
      </trkpt>
      <trkpt lat="42.1931" lon="0.89129">
        <ele>636</ele>
        <time>2023-07-23T11:39:13Z</time>
      </trkpt>
      <trkpt lat="42.19311" lon="0.89124">
        <ele>636</ele>
        <time>2023-07-23T11:39:14Z</time>
      </trkpt>
      <trkpt lat="42.19313" lon="0.8912">
        <ele>636.2</ele>
        <time>2023-07-23T11:39:15Z</time>
      </trkpt>
      <trkpt lat="42.19315" lon="0.89115">
        <ele>636.2</ele>
        <time>2023-07-23T11:39:16Z</time>
      </trkpt>
      <trkpt lat="42.19317" lon="0.8911">
        <ele>636.4</ele>
        <time>2023-07-23T11:39:17Z</time>
      </trkpt>
      <trkpt lat="42.19319" lon="0.89105">
        <ele>636.4</ele>
        <time>2023-07-23T11:39:18Z</time>
      </trkpt>
      <trkpt lat="42.19321" lon="0.891">
        <ele>636.4</ele>
        <time>2023-07-23T11:39:19Z</time>
      </trkpt>
      <trkpt lat="42.19323" lon="0.89095">
        <ele>636.4</ele>
        <time>2023-07-23T11:39:20Z</time>
      </trkpt>
      <trkpt lat="42.19325" lon="0.89089">
        <ele>636.4</ele>
        <time>2023-07-23T11:39:21Z</time>
      </trkpt>
      <trkpt lat="42.19325" lon="0.89083">
        <ele>636.4</ele>
        <time>2023-07-23T11:39:22Z</time>
      </trkpt>
      <trkpt lat="42.19325" lon="0.89078">
        <ele>636.4</ele>
        <time>2023-07-23T11:39:23Z</time>
      </trkpt>
      <trkpt lat="42.19323" lon="0.89073">
        <ele>636.6</ele>
        <time>2023-07-23T11:39:24Z</time>
      </trkpt>
      <trkpt lat="42.19322" lon="0.89068">
        <ele>636.6</ele>
        <time>2023-07-23T11:39:25Z</time>
      </trkpt>
      <trkpt lat="42.1932" lon="0.89063">
        <ele>636.6</ele>
        <time>2023-07-23T11:39:26Z</time>
      </trkpt>
      <trkpt lat="42.19318" lon="0.89058">
        <ele>636.6</ele>
        <time>2023-07-23T11:39:27Z</time>
      </trkpt>
      <trkpt lat="42.19316" lon="0.89053">
        <ele>636.6</ele>
        <time>2023-07-23T11:39:28Z</time>
      </trkpt>
      <trkpt lat="42.19315" lon="0.89048">
        <ele>636.6</ele>
        <time>2023-07-23T11:39:29Z</time>
      </trkpt>
      <trkpt lat="42.19314" lon="0.89043">
        <ele>636.8</ele>
        <time>2023-07-23T11:39:30Z</time>
      </trkpt>
      <trkpt lat="42.19313" lon="0.89038">
        <ele>637</ele>
        <time>2023-07-23T11:39:31Z</time>
      </trkpt>
      <trkpt lat="42.19312" lon="0.89033">
        <ele>637</ele>
        <time>2023-07-23T11:39:32Z</time>
      </trkpt>
      <trkpt lat="42.19311" lon="0.89028">
        <ele>637.4</ele>
        <time>2023-07-23T11:39:33Z</time>
      </trkpt>
      <trkpt lat="42.19311" lon="0.89023">
        <ele>637.6</ele>
        <time>2023-07-23T11:39:34Z</time>
      </trkpt>
      <trkpt lat="42.1931" lon="0.89018">
        <ele>637.8</ele>
        <time>2023-07-23T11:39:35Z</time>
      </trkpt>
      <trkpt lat="42.1931" lon="0.89013">
        <ele>638</ele>
        <time>2023-07-23T11:39:36Z</time>
      </trkpt>
      <trkpt lat="42.1931" lon="0.89009">
        <ele>638.2</ele>
        <time>2023-07-23T11:39:37Z</time>
      </trkpt>
      <trkpt lat="42.1931" lon="0.89005">
        <ele>638.6</ele>
        <time>2023-07-23T11:39:38Z</time>
      </trkpt>
      <trkpt lat="42.19309" lon="0.89001">
        <ele>638.8</ele>
        <time>2023-07-23T11:39:39Z</time>
      </trkpt>
      <trkpt lat="42.19309" lon="0.88996">
        <ele>639.2</ele>
        <time>2023-07-23T11:39:40Z</time>
      </trkpt>
      <trkpt lat="42.19309" lon="0.88992">
        <ele>639.2</ele>
        <time>2023-07-23T11:39:41Z</time>
      </trkpt>
      <trkpt lat="42.19309" lon="0.88988">
        <ele>639.6</ele>
        <time>2023-07-23T11:39:42Z</time>
      </trkpt>
      <trkpt lat="42.19309" lon="0.88984">
        <ele>640</ele>
        <time>2023-07-23T11:39:43Z</time>
      </trkpt>
      <trkpt lat="42.19309" lon="0.88981">
        <ele>640</ele>
        <time>2023-07-23T11:39:44Z</time>
      </trkpt>
      <trkpt lat="42.19309" lon="0.88977">
        <ele>640.2</ele>
        <time>2023-07-23T11:39:45Z</time>
      </trkpt>
      <trkpt lat="42.19309" lon="0.88973">
        <ele>640.4</ele>
        <time>2023-07-23T11:39:46Z</time>
      </trkpt>
      <trkpt lat="42.19309" lon="0.88969">
        <ele>640.6</ele>
        <time>2023-07-23T11:39:47Z</time>
      </trkpt>
      <trkpt lat="42.19309" lon="0.88965">
        <ele>641</ele>
        <time>2023-07-23T11:39:48Z</time>
      </trkpt>
      <trkpt lat="42.19309" lon="0.88961">
        <ele>641.2</ele>
        <time>2023-07-23T11:39:49Z</time>
      </trkpt>
      <trkpt lat="42.19309" lon="0.88957">
        <ele>641.8</ele>
        <time>2023-07-23T11:39:50Z</time>
      </trkpt>
      <trkpt lat="42.19309" lon="0.88953">
        <ele>642</ele>
        <time>2023-07-23T11:39:51Z</time>
      </trkpt>
      <trkpt lat="42.19309" lon="0.8895">
        <ele>642.2</ele>
        <time>2023-07-23T11:39:52Z</time>
      </trkpt>
      <trkpt lat="42.1931" lon="0.88946">
        <ele>642.4</ele>
        <time>2023-07-23T11:39:53Z</time>
      </trkpt>
      <trkpt lat="42.1931" lon="0.88942">
        <ele>643</ele>
        <time>2023-07-23T11:39:54Z</time>
      </trkpt>
      <trkpt lat="42.1931" lon="0.88938">
        <ele>643.4</ele>
        <time>2023-07-23T11:39:55Z</time>
      </trkpt>
      <trkpt lat="42.1931" lon="0.88934">
        <ele>643.8</ele>
        <time>2023-07-23T11:39:56Z</time>
      </trkpt>
      <trkpt lat="42.19311" lon="0.8893">
        <ele>644</ele>
        <time>2023-07-23T11:39:57Z</time>
      </trkpt>
      <trkpt lat="42.19311" lon="0.88927">
        <ele>644.6</ele>
        <time>2023-07-23T11:39:58Z</time>
      </trkpt>
      <trkpt lat="42.19311" lon="0.88923">
        <ele>645.2</ele>
        <time>2023-07-23T11:39:59Z</time>
      </trkpt>
      <trkpt lat="42.19311" lon="0.88919">
        <ele>645.8</ele>
        <time>2023-07-23T11:40:00Z</time>
      </trkpt>
      <trkpt lat="42.19312" lon="0.88916">
        <ele>646</ele>
        <time>2023-07-23T11:40:01Z</time>
      </trkpt>
      <trkpt lat="42.19312" lon="0.88912">
        <ele>646.4</ele>
        <time>2023-07-23T11:40:02Z</time>
      </trkpt>
      <trkpt lat="42.19313" lon="0.88908">
        <ele>646.6</ele>
        <time>2023-07-23T11:40:03Z</time>
      </trkpt>
      <trkpt lat="42.19313" lon="0.88904">
        <ele>647.2</ele>
        <time>2023-07-23T11:40:04Z</time>
      </trkpt>
      <trkpt lat="42.19314" lon="0.889">
        <ele>647.6</ele>
        <time>2023-07-23T11:40:05Z</time>
      </trkpt>
      <trkpt lat="42.19314" lon="0.88897">
        <ele>647.8</ele>
        <time>2023-07-23T11:40:06Z</time>
      </trkpt>
      <trkpt lat="42.19315" lon="0.88893">
        <ele>648.4</ele>
        <time>2023-07-23T11:40:07Z</time>
      </trkpt>
      <trkpt lat="42.19315" lon="0.88889">
        <ele>648.6</ele>
        <time>2023-07-23T11:40:08Z</time>
      </trkpt>
      <trkpt lat="42.19315" lon="0.88885">
        <ele>649</ele>
        <time>2023-07-23T11:40:09Z</time>
      </trkpt>
      <trkpt lat="42.19316" lon="0.88881">
        <ele>649.4</ele>
        <time>2023-07-23T11:40:10Z</time>
      </trkpt>
      <trkpt lat="42.19316" lon="0.88877">
        <ele>649.8</ele>
        <time>2023-07-23T11:40:11Z</time>
      </trkpt>
      <trkpt lat="42.19317" lon="0.88873">
        <ele>650</ele>
        <time>2023-07-23T11:40:12Z</time>
      </trkpt>
      <trkpt lat="42.19317" lon="0.88869">
        <ele>650.4</ele>
        <time>2023-07-23T11:40:13Z</time>
      </trkpt>
      <trkpt lat="42.19318" lon="0.88866">
        <ele>651.2</ele>
        <time>2023-07-23T11:40:14Z</time>
      </trkpt>
      <trkpt lat="42.19319" lon="0.88862">
        <ele>651.4</ele>
        <time>2023-07-23T11:40:15Z</time>
      </trkpt>
      <trkpt lat="42.1932" lon="0.88859">
        <ele>652</ele>
        <time>2023-07-23T11:40:16Z</time>
      </trkpt>
      <trkpt lat="42.1932" lon="0.88855">
        <ele>652.4</ele>
        <time>2023-07-23T11:40:17Z</time>
      </trkpt>
      <trkpt lat="42.19321" lon="0.88851">
        <ele>652.6</ele>
        <time>2023-07-23T11:40:18Z</time>
      </trkpt>
      <trkpt lat="42.19322" lon="0.88847">
        <ele>653.2</ele>
        <time>2023-07-23T11:40:19Z</time>
      </trkpt>
      <trkpt lat="42.19323" lon="0.88844">
        <ele>653.6</ele>
        <time>2023-07-23T11:40:20Z</time>
      </trkpt>
      <trkpt lat="42.19323" lon="0.8884">
        <ele>654</ele>
        <time>2023-07-23T11:40:21Z</time>
      </trkpt>
      <trkpt lat="42.19324" lon="0.88837">
        <ele>654.6</ele>
        <time>2023-07-23T11:40:22Z</time>
      </trkpt>
      <trkpt lat="42.19325" lon="0.88833">
        <ele>654.8</ele>
        <time>2023-07-23T11:40:23Z</time>
      </trkpt>
      <trkpt lat="42.19326" lon="0.88829">
        <ele>655.2</ele>
        <time>2023-07-23T11:40:24Z</time>
      </trkpt>
      <trkpt lat="42.19327" lon="0.88826">
        <ele>655.4</ele>
        <time>2023-07-23T11:40:25Z</time>
      </trkpt>
      <trkpt lat="42.19327" lon="0.88822">
        <ele>655.8</ele>
        <time>2023-07-23T11:40:26Z</time>
      </trkpt>
      <trkpt lat="42.19328" lon="0.88818">
        <ele>656.2</ele>
        <time>2023-07-23T11:40:27Z</time>
      </trkpt>
      <trkpt lat="42.19329" lon="0.88815">
        <ele>656.6</ele>
        <time>2023-07-23T11:40:28Z</time>
      </trkpt>
      <trkpt lat="42.19329" lon="0.88811">
        <ele>657</ele>
        <time>2023-07-23T11:40:29Z</time>
      </trkpt>
      <trkpt lat="42.1933" lon="0.88808">
        <ele>657.4</ele>
        <time>2023-07-23T11:40:30Z</time>
      </trkpt>
      <trkpt lat="42.19331" lon="0.88804">
        <ele>658.2</ele>
        <time>2023-07-23T11:40:31Z</time>
      </trkpt>
      <trkpt lat="42.19332" lon="0.888">
        <ele>658.4</ele>
        <time>2023-07-23T11:40:32Z</time>
      </trkpt>
      <trkpt lat="42.19333" lon="0.88797">
        <ele>658.8</ele>
        <time>2023-07-23T11:40:33Z</time>
      </trkpt>
      <trkpt lat="42.19333" lon="0.88793">
        <ele>659</ele>
        <time>2023-07-23T11:40:34Z</time>
      </trkpt>
      <trkpt lat="42.19334" lon="0.88789">
        <ele>659.2</ele>
        <time>2023-07-23T11:40:35Z</time>
      </trkpt>
      <trkpt lat="42.19335" lon="0.88785">
        <ele>659.6</ele>
        <time>2023-07-23T11:40:36Z</time>
      </trkpt>
      <trkpt lat="42.19336" lon="0.88782">
        <ele>660.2</ele>
        <time>2023-07-23T11:40:37Z</time>
      </trkpt>
      <trkpt lat="42.19337" lon="0.88778">
        <ele>660.6</ele>
        <time>2023-07-23T11:40:38Z</time>
      </trkpt>
      <trkpt lat="42.19338" lon="0.88774">
        <ele>661</ele>
        <time>2023-07-23T11:40:39Z</time>
      </trkpt>
      <trkpt lat="42.19339" lon="0.8877">
        <ele>661.2</ele>
        <time>2023-07-23T11:40:40Z</time>
      </trkpt>
      <trkpt lat="42.19339" lon="0.88766">
        <ele>661.4</ele>
        <time>2023-07-23T11:40:41Z</time>
      </trkpt>
      <trkpt lat="42.1934" lon="0.88762">
        <ele>661.4</ele>
        <time>2023-07-23T11:40:42Z</time>
      </trkpt>
      <trkpt lat="42.19341" lon="0.88758">
        <ele>661.6</ele>
        <time>2023-07-23T11:40:43Z</time>
      </trkpt>
      <trkpt lat="42.19342" lon="0.88754">
        <ele>661.8</ele>
        <time>2023-07-23T11:40:44Z</time>
      </trkpt>
      <trkpt lat="42.19343" lon="0.88751">
        <ele>661.8</ele>
        <time>2023-07-23T11:40:45Z</time>
      </trkpt>
      <trkpt lat="42.19344" lon="0.88747">
        <ele>662.2</ele>
        <time>2023-07-23T11:40:46Z</time>
      </trkpt>
      <trkpt lat="42.19345" lon="0.88743">
        <ele>662.2</ele>
        <time>2023-07-23T11:40:47Z</time>
      </trkpt>
      <trkpt lat="42.19346" lon="0.88739">
        <ele>662.4</ele>
        <time>2023-07-23T11:40:48Z</time>
      </trkpt>
      <trkpt lat="42.19347" lon="0.88735">
        <ele>662.4</ele>
        <time>2023-07-23T11:40:49Z</time>
      </trkpt>
      <trkpt lat="42.19349" lon="0.88731">
        <ele>662.4</ele>
        <time>2023-07-23T11:40:50Z</time>
      </trkpt>
      <trkpt lat="42.1935" lon="0.88727">
        <ele>662.8</ele>
        <time>2023-07-23T11:40:51Z</time>
      </trkpt>
      <trkpt lat="42.19351" lon="0.88723">
        <ele>662.8</ele>
        <time>2023-07-23T11:40:52Z</time>
      </trkpt>
      <trkpt lat="42.19352" lon="0.88719">
        <ele>663.2</ele>
        <time>2023-07-23T11:40:53Z</time>
      </trkpt>
      <trkpt lat="42.19354" lon="0.88715">
        <ele>663.4</ele>
        <time>2023-07-23T11:40:54Z</time>
      </trkpt>
      <trkpt lat="42.19355" lon="0.88711">
        <ele>663.4</ele>
        <time>2023-07-23T11:40:55Z</time>
      </trkpt>
      <trkpt lat="42.19356" lon="0.88707">
        <ele>663.4</ele>
        <time>2023-07-23T11:40:56Z</time>
      </trkpt>
      <trkpt lat="42.19357" lon="0.88703">
        <ele>663.4</ele>
        <time>2023-07-23T11:40:57Z</time>
      </trkpt>
      <trkpt lat="42.19358" lon="0.88699">
        <ele>663.4</ele>
        <time>2023-07-23T11:40:58Z</time>
      </trkpt>
      <trkpt lat="42.1936" lon="0.88695">
        <ele>663.6</ele>
        <time>2023-07-23T11:40:59Z</time>
      </trkpt>
      <trkpt lat="42.19361" lon="0.88691">
        <ele>663.6</ele>
        <time>2023-07-23T11:41:00Z</time>
      </trkpt>
      <trkpt lat="42.19362" lon="0.88687">
        <ele>663.8</ele>
        <time>2023-07-23T11:41:01Z</time>
      </trkpt>
      <trkpt lat="42.19363" lon="0.88683">
        <ele>663.8</ele>
        <time>2023-07-23T11:41:02Z</time>
      </trkpt>
      <trkpt lat="42.19364" lon="0.88679">
        <ele>664</ele>
        <time>2023-07-23T11:41:03Z</time>
      </trkpt>
      <trkpt lat="42.19365" lon="0.88675">
        <ele>664.2</ele>
        <time>2023-07-23T11:41:04Z</time>
      </trkpt>
      <trkpt lat="42.19366" lon="0.88671">
        <ele>664.4</ele>
        <time>2023-07-23T11:41:05Z</time>
      </trkpt>
      <trkpt lat="42.19367" lon="0.88667">
        <ele>664.8</ele>
        <time>2023-07-23T11:41:06Z</time>
      </trkpt>
      <trkpt lat="42.19367" lon="0.88662">
        <ele>664.8</ele>
        <time>2023-07-23T11:41:07Z</time>
      </trkpt>
      <trkpt lat="42.19368" lon="0.88658">
        <ele>665.2</ele>
        <time>2023-07-23T11:41:08Z</time>
      </trkpt>
      <trkpt lat="42.19368" lon="0.88654">
        <ele>665.2</ele>
        <time>2023-07-23T11:41:09Z</time>
      </trkpt>
      <trkpt lat="42.19369" lon="0.88649">
        <ele>665.4</ele>
        <time>2023-07-23T11:41:10Z</time>
      </trkpt>
      <trkpt lat="42.1937" lon="0.88645">
        <ele>665.6</ele>
        <time>2023-07-23T11:41:11Z</time>
      </trkpt>
      <trkpt lat="42.19371" lon="0.88641">
        <ele>665.6</ele>
        <time>2023-07-23T11:41:12Z</time>
      </trkpt>
      <trkpt lat="42.19371" lon="0.88636">
        <ele>665.8</ele>
        <time>2023-07-23T11:41:13Z</time>
      </trkpt>
      <trkpt lat="42.19372" lon="0.88632">
        <ele>666</ele>
        <time>2023-07-23T11:41:14Z</time>
      </trkpt>
      <trkpt lat="42.19372" lon="0.88628">
        <ele>666.4</ele>
        <time>2023-07-23T11:41:15Z</time>
      </trkpt>
      <trkpt lat="42.19372" lon="0.88624">
        <ele>667</ele>
        <time>2023-07-23T11:41:16Z</time>
      </trkpt>
      <trkpt lat="42.19373" lon="0.88619">
        <ele>667</ele>
        <time>2023-07-23T11:41:17Z</time>
      </trkpt>
      <trkpt lat="42.19373" lon="0.88616">
        <ele>667.4</ele>
        <time>2023-07-23T11:41:18Z</time>
      </trkpt>
      <trkpt lat="42.19374" lon="0.88611">
        <ele>667.6</ele>
        <time>2023-07-23T11:41:19Z</time>
      </trkpt>
      <trkpt lat="42.19374" lon="0.88607">
        <ele>667.8</ele>
        <time>2023-07-23T11:41:20Z</time>
      </trkpt>
      <trkpt lat="42.19375" lon="0.88603">
        <ele>668.2</ele>
        <time>2023-07-23T11:41:21Z</time>
      </trkpt>
      <trkpt lat="42.19375" lon="0.88599">
        <ele>668.2</ele>
        <time>2023-07-23T11:41:22Z</time>
      </trkpt>
      <trkpt lat="42.19375" lon="0.88595">
        <ele>668.4</ele>
        <time>2023-07-23T11:41:23Z</time>
      </trkpt>
      <trkpt lat="42.19375" lon="0.88591">
        <ele>668.6</ele>
        <time>2023-07-23T11:41:24Z</time>
      </trkpt>
      <trkpt lat="42.19376" lon="0.88587">
        <ele>669.2</ele>
        <time>2023-07-23T11:41:25Z</time>
      </trkpt>
      <trkpt lat="42.19376" lon="0.88583">
        <ele>669.6</ele>
        <time>2023-07-23T11:41:26Z</time>
      </trkpt>
      <trkpt lat="42.19376" lon="0.88579">
        <ele>669.6</ele>
        <time>2023-07-23T11:41:27Z</time>
      </trkpt>
      <trkpt lat="42.19376" lon="0.88575">
        <ele>670.2</ele>
        <time>2023-07-23T11:41:28Z</time>
      </trkpt>
      <trkpt lat="42.19377" lon="0.8857">
        <ele>670.4</ele>
        <time>2023-07-23T11:41:29Z</time>
      </trkpt>
      <trkpt lat="42.19377" lon="0.88566">
        <ele>670.8</ele>
        <time>2023-07-23T11:41:30Z</time>
      </trkpt>
      <trkpt lat="42.19377" lon="0.88561">
        <ele>671.2</ele>
        <time>2023-07-23T11:41:31Z</time>
      </trkpt>
      <trkpt lat="42.19377" lon="0.88557">
        <ele>671.4</ele>
        <time>2023-07-23T11:41:32Z</time>
      </trkpt>
      <trkpt lat="42.19377" lon="0.88553">
        <ele>671.8</ele>
        <time>2023-07-23T11:41:33Z</time>
      </trkpt>
      <trkpt lat="42.19377" lon="0.88548">
        <ele>671.8</ele>
        <time>2023-07-23T11:41:34Z</time>
      </trkpt>
      <trkpt lat="42.19377" lon="0.88544">
        <ele>672.2</ele>
        <time>2023-07-23T11:41:35Z</time>
      </trkpt>
      <trkpt lat="42.19377" lon="0.8854">
        <ele>672.4</ele>
        <time>2023-07-23T11:41:36Z</time>
      </trkpt>
      <trkpt lat="42.19377" lon="0.88536">
        <ele>672.8</ele>
        <time>2023-07-23T11:41:37Z</time>
      </trkpt>
      <trkpt lat="42.19377" lon="0.88531">
        <ele>673.2</ele>
        <time>2023-07-23T11:41:38Z</time>
      </trkpt>
      <trkpt lat="42.19377" lon="0.88527">
        <ele>673.6</ele>
        <time>2023-07-23T11:41:39Z</time>
      </trkpt>
      <trkpt lat="42.19378" lon="0.88523">
        <ele>673.6</ele>
        <time>2023-07-23T11:41:40Z</time>
      </trkpt>
      <trkpt lat="42.19377" lon="0.88518">
        <ele>673.8</ele>
        <time>2023-07-23T11:41:41Z</time>
      </trkpt>
      <trkpt lat="42.19377" lon="0.88514">
        <ele>674.2</ele>
        <time>2023-07-23T11:41:42Z</time>
      </trkpt>
      <trkpt lat="42.19378" lon="0.88509">
        <ele>674.2</ele>
        <time>2023-07-23T11:41:43Z</time>
      </trkpt>
      <trkpt lat="42.19378" lon="0.88505">
        <ele>674.4</ele>
        <time>2023-07-23T11:41:44Z</time>
      </trkpt>
      <trkpt lat="42.19378" lon="0.88501">
        <ele>674.8</ele>
        <time>2023-07-23T11:41:45Z</time>
      </trkpt>
      <trkpt lat="42.19378" lon="0.88496">
        <ele>674.8</ele>
        <time>2023-07-23T11:41:46Z</time>
      </trkpt>
      <trkpt lat="42.19379" lon="0.88492">
        <ele>675.2</ele>
        <time>2023-07-23T11:41:47Z</time>
      </trkpt>
      <trkpt lat="42.19379" lon="0.88488">
        <ele>675.4</ele>
        <time>2023-07-23T11:41:48Z</time>
      </trkpt>
      <trkpt lat="42.19379" lon="0.88483">
        <ele>675.6</ele>
        <time>2023-07-23T11:41:49Z</time>
      </trkpt>
      <trkpt lat="42.19379" lon="0.88479">
        <ele>675.8</ele>
        <time>2023-07-23T11:41:50Z</time>
      </trkpt>
      <trkpt lat="42.19379" lon="0.88475">
        <ele>675.8</ele>
        <time>2023-07-23T11:41:51Z</time>
      </trkpt>
      <trkpt lat="42.19379" lon="0.88471">
        <ele>676.2</ele>
        <time>2023-07-23T11:41:52Z</time>
      </trkpt>
      <trkpt lat="42.19379" lon="0.88466">
        <ele>676.2</ele>
        <time>2023-07-23T11:41:53Z</time>
      </trkpt>
      <trkpt lat="42.19379" lon="0.88462">
        <ele>676.4</ele>
        <time>2023-07-23T11:41:54Z</time>
      </trkpt>
      <trkpt lat="42.19378" lon="0.88457">
        <ele>676.8</ele>
        <time>2023-07-23T11:41:55Z</time>
      </trkpt>
      <trkpt lat="42.19377" lon="0.88453">
        <ele>676.8</ele>
        <time>2023-07-23T11:41:56Z</time>
      </trkpt>
      <trkpt lat="42.19376" lon="0.88449">
        <ele>677</ele>
        <time>2023-07-23T11:41:57Z</time>
      </trkpt>
      <trkpt lat="42.19374" lon="0.88444">
        <ele>677.4</ele>
        <time>2023-07-23T11:41:58Z</time>
      </trkpt>
      <trkpt lat="42.19372" lon="0.8844">
        <ele>677.4</ele>
        <time>2023-07-23T11:41:59Z</time>
      </trkpt>
      <trkpt lat="42.1937" lon="0.88436">
        <ele>677.6</ele>
        <time>2023-07-23T11:42:00Z</time>
      </trkpt>
      <trkpt lat="42.19367" lon="0.88433">
        <ele>677.8</ele>
        <time>2023-07-23T11:42:01Z</time>
      </trkpt>
      <trkpt lat="42.19364" lon="0.8843">
        <ele>678</ele>
        <time>2023-07-23T11:42:02Z</time>
      </trkpt>
      <trkpt lat="42.19361" lon="0.88427">
        <ele>678.2</ele>
        <time>2023-07-23T11:42:03Z</time>
      </trkpt>
      <trkpt lat="42.19359" lon="0.88425">
        <ele>678.6</ele>
        <time>2023-07-23T11:42:04Z</time>
      </trkpt>
      <trkpt lat="42.19356" lon="0.88422">
        <ele>678.8</ele>
        <time>2023-07-23T11:42:05Z</time>
      </trkpt>
      <trkpt lat="42.19353" lon="0.8842">
        <ele>679</ele>
        <time>2023-07-23T11:42:06Z</time>
      </trkpt>
      <trkpt lat="42.1935" lon="0.88418">
        <ele>679.2</ele>
        <time>2023-07-23T11:42:07Z</time>
      </trkpt>
      <trkpt lat="42.19347" lon="0.88416">
        <ele>679.2</ele>
        <time>2023-07-23T11:42:08Z</time>
      </trkpt>
      <trkpt lat="42.19344" lon="0.88414">
        <ele>679.6</ele>
        <time>2023-07-23T11:42:09Z</time>
      </trkpt>
      <trkpt lat="42.1934" lon="0.88412">
        <ele>679.8</ele>
        <time>2023-07-23T11:42:10Z</time>
      </trkpt>
      <trkpt lat="42.19336" lon="0.88409">
        <ele>679.8</ele>
        <time>2023-07-23T11:42:11Z</time>
      </trkpt>
      <trkpt lat="42.19332" lon="0.88406">
        <ele>680</ele>
        <time>2023-07-23T11:42:12Z</time>
      </trkpt>
      <trkpt lat="42.19328" lon="0.88402">
        <ele>680</ele>
        <time>2023-07-23T11:42:13Z</time>
      </trkpt>
      <trkpt lat="42.19324" lon="0.88398">
        <ele>680</ele>
        <time>2023-07-23T11:42:14Z</time>
      </trkpt>
      <trkpt lat="42.1932" lon="0.88393">
        <ele>680</ele>
        <time>2023-07-23T11:42:15Z</time>
      </trkpt>
      <trkpt lat="42.19316" lon="0.88388">
        <ele>680</ele>
        <time>2023-07-23T11:42:16Z</time>
      </trkpt>
      <trkpt lat="42.19313" lon="0.88383">
        <ele>679.8</ele>
        <time>2023-07-23T11:42:17Z</time>
      </trkpt>
      <trkpt lat="42.1931" lon="0.88377">
        <ele>679.6</ele>
        <time>2023-07-23T11:42:18Z</time>
      </trkpt>
      <trkpt lat="42.19307" lon="0.88369">
        <ele>679.2</ele>
        <time>2023-07-23T11:42:19Z</time>
      </trkpt>
      <trkpt lat="42.19305" lon="0.88362">
        <ele>678.8</ele>
        <time>2023-07-23T11:42:20Z</time>
      </trkpt>
      <trkpt lat="42.19305" lon="0.88354">
        <ele>678.6</ele>
        <time>2023-07-23T11:42:21Z</time>
      </trkpt>
      <trkpt lat="42.19304" lon="0.88346">
        <ele>678.2</ele>
        <time>2023-07-23T11:42:22Z</time>
      </trkpt>
      <trkpt lat="42.19304" lon="0.88337">
        <ele>678</ele>
        <time>2023-07-23T11:42:23Z</time>
      </trkpt>
      <trkpt lat="42.19303" lon="0.88328">
        <ele>677.8</ele>
        <time>2023-07-23T11:42:24Z</time>
      </trkpt>
      <trkpt lat="42.19302" lon="0.88319">
        <ele>677.6</ele>
        <time>2023-07-23T11:42:25Z</time>
      </trkpt>
      <trkpt lat="42.19302" lon="0.8831">
        <ele>677.4</ele>
        <time>2023-07-23T11:42:26Z</time>
      </trkpt>
      <trkpt lat="42.19301" lon="0.88301">
        <ele>677</ele>
        <time>2023-07-23T11:42:27Z</time>
      </trkpt>
      <trkpt lat="42.193" lon="0.88294">
        <ele>676.8</ele>
        <time>2023-07-23T11:42:28Z</time>
      </trkpt>
      <trkpt lat="42.19298" lon="0.88286">
        <ele>676.6</ele>
        <time>2023-07-23T11:42:29Z</time>
      </trkpt>
      <trkpt lat="42.19295" lon="0.88279">
        <ele>676.2</ele>
        <time>2023-07-23T11:42:30Z</time>
      </trkpt>
      <trkpt lat="42.19292" lon="0.88274">
        <ele>676</ele>
        <time>2023-07-23T11:42:31Z</time>
      </trkpt>
      <trkpt lat="42.19288" lon="0.88271">
        <ele>675.2</ele>
        <time>2023-07-23T11:42:32Z</time>
      </trkpt>
      <trkpt lat="42.19285" lon="0.88269">
        <ele>675</ele>
        <time>2023-07-23T11:42:33Z</time>
      </trkpt>
      <trkpt lat="42.19281" lon="0.88266">
        <ele>674.4</ele>
        <time>2023-07-23T11:42:34Z</time>
      </trkpt>
      <trkpt lat="42.19278" lon="0.88262">
        <ele>674.4</ele>
        <time>2023-07-23T11:42:35Z</time>
      </trkpt>
      <trkpt lat="42.19276" lon="0.88259">
        <ele>674.2</ele>
        <time>2023-07-23T11:42:36Z</time>
      </trkpt>
      <trkpt lat="42.19273" lon="0.88255">
        <ele>674</ele>
        <time>2023-07-23T11:42:37Z</time>
      </trkpt>
      <trkpt lat="42.19271" lon="0.8825">
        <ele>673.8</ele>
        <time>2023-07-23T11:42:38Z</time>
      </trkpt>
      <trkpt lat="42.19269" lon="0.88245">
        <ele>673.4</ele>
        <time>2023-07-23T11:42:39Z</time>
      </trkpt>
      <trkpt lat="42.19267" lon="0.88241">
        <ele>673.4</ele>
        <time>2023-07-23T11:42:40Z</time>
      </trkpt>
      <trkpt lat="42.19265" lon="0.88236">
        <ele>673.2</ele>
        <time>2023-07-23T11:42:41Z</time>
      </trkpt>
      <trkpt lat="42.19264" lon="0.8823">
        <ele>673.2</ele>
        <time>2023-07-23T11:42:42Z</time>
      </trkpt>
      <trkpt lat="42.19262" lon="0.88225">
        <ele>673</ele>
        <time>2023-07-23T11:42:43Z</time>
      </trkpt>
      <trkpt lat="42.1926" lon="0.8822">
        <ele>672.8</ele>
        <time>2023-07-23T11:42:44Z</time>
      </trkpt>
      <trkpt lat="42.19259" lon="0.88215">
        <ele>672.8</ele>
        <time>2023-07-23T11:42:45Z</time>
      </trkpt>
      <trkpt lat="42.19257" lon="0.88209">
        <ele>672.6</ele>
        <time>2023-07-23T11:42:46Z</time>
      </trkpt>
      <trkpt lat="42.19256" lon="0.88204">
        <ele>672.6</ele>
        <time>2023-07-23T11:42:47Z</time>
      </trkpt>
      <trkpt lat="42.19255" lon="0.88199">
        <ele>672.6</ele>
        <time>2023-07-23T11:42:48Z</time>
      </trkpt>
      <trkpt lat="42.19255" lon="0.88194">
        <ele>672.6</ele>
        <time>2023-07-23T11:42:49Z</time>
      </trkpt>
      <trkpt lat="42.19254" lon="0.88191">
        <ele>672.6</ele>
        <time>2023-07-23T11:42:50Z</time>
      </trkpt>
      <trkpt lat="42.19254" lon="0.88188">
        <ele>672.6</ele>
        <time>2023-07-23T11:42:51Z</time>
      </trkpt>
      <trkpt lat="42.19254" lon="0.88186">
        <ele>672.4</ele>
        <time>2023-07-23T11:42:52Z</time>
      </trkpt>
      <trkpt lat="42.19254" lon="0.88185">
        <ele>672.4</ele>
        <time>2023-07-23T11:42:53Z</time>
      </trkpt>
      <trkpt lat="42.19253" lon="0.88184">
        <ele>672.2</ele>
        <time>2023-07-23T11:42:54Z</time>
      </trkpt>
      <trkpt lat="42.19252" lon="0.88183">
        <ele>672.2</ele>
        <time>2023-07-23T11:42:55Z</time>
      </trkpt>
      <trkpt lat="42.19252" lon="0.88182">
        <ele>672</ele>
        <time>2023-07-23T11:42:56Z</time>
      </trkpt>
      <trkpt lat="42.19252" lon="0.88181">
        <ele>671.8</ele>
        <time>2023-07-23T11:42:57Z</time>
      </trkpt>
      <trkpt lat="42.19252" lon="0.88179">
        <ele>671.8</ele>
        <time>2023-07-23T11:42:58Z</time>
      </trkpt>
      <trkpt lat="42.19251" lon="0.88177">
        <ele>671.8</ele>
        <time>2023-07-23T11:42:59Z</time>
      </trkpt>
      <trkpt lat="42.19251" lon="0.88176">
        <ele>671.8</ele>
        <time>2023-07-23T11:43:00Z</time>
      </trkpt>
      <trkpt lat="42.19251" lon="0.88175">
        <ele>671.6</ele>
        <time>2023-07-23T11:43:01Z</time>
      </trkpt>
      <trkpt lat="42.19251" lon="0.88175">
        <ele>671.6</ele>
        <time>2023-07-23T11:43:02Z</time>
      </trkpt>
      <trkpt lat="42.19251" lon="0.88175">
        <ele>671.4</ele>
        <time>2023-07-23T11:43:03Z</time>
      </trkpt>
      <trkpt lat="42.19252" lon="0.88169">
        <ele>671.6</ele>
        <time>2023-07-23T11:43:12Z</time>
      </trkpt>
      <trkpt lat="42.19253" lon="0.88166">
        <ele>671.6</ele>
        <time>2023-07-23T11:43:13Z</time>
      </trkpt>
      <trkpt lat="42.19253" lon="0.88163">
        <ele>671.6</ele>
        <time>2023-07-23T11:43:14Z</time>
      </trkpt>
      <trkpt lat="42.19254" lon="0.88159">
        <ele>671.6</ele>
        <time>2023-07-23T11:43:15Z</time>
      </trkpt>
      <trkpt lat="42.19255" lon="0.88155">
        <ele>671.6</ele>
        <time>2023-07-23T11:43:16Z</time>
      </trkpt>
      <trkpt lat="42.19256" lon="0.88152">
        <ele>671.6</ele>
        <time>2023-07-23T11:43:17Z</time>
      </trkpt>
      <trkpt lat="42.19258" lon="0.88148">
        <ele>671.4</ele>
        <time>2023-07-23T11:43:18Z</time>
      </trkpt>
      <trkpt lat="42.19261" lon="0.88144">
        <ele>671.2</ele>
        <time>2023-07-23T11:43:19Z</time>
      </trkpt>
      <trkpt lat="42.19263" lon="0.88141">
        <ele>671</ele>
        <time>2023-07-23T11:43:20Z</time>
      </trkpt>
      <trkpt lat="42.19265" lon="0.88138">
        <ele>671</ele>
        <time>2023-07-23T11:43:21Z</time>
      </trkpt>
      <trkpt lat="42.19268" lon="0.88135">
        <ele>670.8</ele>
        <time>2023-07-23T11:43:22Z</time>
      </trkpt>
      <trkpt lat="42.19271" lon="0.88131">
        <ele>670.6</ele>
        <time>2023-07-23T11:43:23Z</time>
      </trkpt>
      <trkpt lat="42.19273" lon="0.88127">
        <ele>670.4</ele>
        <time>2023-07-23T11:43:24Z</time>
      </trkpt>
      <trkpt lat="42.19274" lon="0.88122">
        <ele>670.2</ele>
        <time>2023-07-23T11:43:25Z</time>
      </trkpt>
      <trkpt lat="42.19275" lon="0.88117">
        <ele>670</ele>
        <time>2023-07-23T11:43:26Z</time>
      </trkpt>
      <trkpt lat="42.19276" lon="0.88112">
        <ele>669.8</ele>
        <time>2023-07-23T11:43:27Z</time>
      </trkpt>
      <trkpt lat="42.19277" lon="0.88107">
        <ele>669.6</ele>
        <time>2023-07-23T11:43:28Z</time>
      </trkpt>
      <trkpt lat="42.19278" lon="0.88102">
        <ele>669.6</ele>
        <time>2023-07-23T11:43:29Z</time>
      </trkpt>
      <trkpt lat="42.19279" lon="0.88096">
        <ele>669.6</ele>
        <time>2023-07-23T11:43:30Z</time>
      </trkpt>
      <trkpt lat="42.1928" lon="0.8809">
        <ele>669.2</ele>
        <time>2023-07-23T11:43:31Z</time>
      </trkpt>
      <trkpt lat="42.19281" lon="0.88084">
        <ele>669</ele>
        <time>2023-07-23T11:43:32Z</time>
      </trkpt>
      <trkpt lat="42.19282" lon="0.88078">
        <ele>668.8</ele>
        <time>2023-07-23T11:43:33Z</time>
      </trkpt>
      <trkpt lat="42.19284" lon="0.88071">
        <ele>668.6</ele>
        <time>2023-07-23T11:43:34Z</time>
      </trkpt>
      <trkpt lat="42.19285" lon="0.88064">
        <ele>668.6</ele>
        <time>2023-07-23T11:43:35Z</time>
      </trkpt>
      <trkpt lat="42.19287" lon="0.88058">
        <ele>668.4</ele>
        <time>2023-07-23T11:43:36Z</time>
      </trkpt>
      <trkpt lat="42.1929" lon="0.88052">
        <ele>668.2</ele>
        <time>2023-07-23T11:43:37Z</time>
      </trkpt>
      <trkpt lat="42.19292" lon="0.88046">
        <ele>668</ele>
        <time>2023-07-23T11:43:38Z</time>
      </trkpt>
      <trkpt lat="42.19294" lon="0.88039">
        <ele>668</ele>
        <time>2023-07-23T11:43:39Z</time>
      </trkpt>
      <trkpt lat="42.19296" lon="0.88032">
        <ele>668</ele>
        <time>2023-07-23T11:43:40Z</time>
      </trkpt>
      <trkpt lat="42.19296" lon="0.88024">
        <ele>667.8</ele>
        <time>2023-07-23T11:43:41Z</time>
      </trkpt>
      <trkpt lat="42.19295" lon="0.88017">
        <ele>667.6</ele>
        <time>2023-07-23T11:43:42Z</time>
      </trkpt>
      <trkpt lat="42.19294" lon="0.88009">
        <ele>667</ele>
        <time>2023-07-23T11:43:43Z</time>
      </trkpt>
      <trkpt lat="42.19292" lon="0.88001">
        <ele>666.6</ele>
        <time>2023-07-23T11:43:44Z</time>
      </trkpt>
      <trkpt lat="42.19291" lon="0.87994">
        <ele>666.2</ele>
        <time>2023-07-23T11:43:45Z</time>
      </trkpt>
      <trkpt lat="42.19289" lon="0.87987">
        <ele>665.8</ele>
        <time>2023-07-23T11:43:46Z</time>
      </trkpt>
      <trkpt lat="42.19289" lon="0.8798">
        <ele>665.6</ele>
        <time>2023-07-23T11:43:47Z</time>
      </trkpt>
      <trkpt lat="42.19289" lon="0.87973">
        <ele>665.4</ele>
        <time>2023-07-23T11:43:48Z</time>
      </trkpt>
      <trkpt lat="42.19291" lon="0.87966">
        <ele>665.2</ele>
        <time>2023-07-23T11:43:49Z</time>
      </trkpt>
      <trkpt lat="42.19293" lon="0.8796">
        <ele>664.8</ele>
        <time>2023-07-23T11:43:50Z</time>
      </trkpt>
      <trkpt lat="42.19296" lon="0.87954">
        <ele>664.2</ele>
        <time>2023-07-23T11:43:51Z</time>
      </trkpt>
      <trkpt lat="42.19299" lon="0.87947">
        <ele>664</ele>
        <time>2023-07-23T11:43:52Z</time>
      </trkpt>
      <trkpt lat="42.19301" lon="0.87941">
        <ele>663.6</ele>
        <time>2023-07-23T11:43:53Z</time>
      </trkpt>
      <trkpt lat="42.19303" lon="0.87935">
        <ele>663.4</ele>
        <time>2023-07-23T11:43:54Z</time>
      </trkpt>
      <trkpt lat="42.19306" lon="0.87932">
        <ele>662.8</ele>
        <time>2023-07-23T11:43:55Z</time>
      </trkpt>
      <trkpt lat="42.1931" lon="0.87929">
        <ele>661.8</ele>
        <time>2023-07-23T11:43:56Z</time>
      </trkpt>
      <trkpt lat="42.19313" lon="0.87926">
        <ele>661.4</ele>
        <time>2023-07-23T11:43:57Z</time>
      </trkpt>
      <trkpt lat="42.19316" lon="0.87922">
        <ele>660.8</ele>
        <time>2023-07-23T11:43:58Z</time>
      </trkpt>
      <trkpt lat="42.19317" lon="0.87917">
        <ele>660.6</ele>
        <time>2023-07-23T11:43:59Z</time>
      </trkpt>
      <trkpt lat="42.19318" lon="0.87911">
        <ele>660</ele>
        <time>2023-07-23T11:44:00Z</time>
      </trkpt>
      <trkpt lat="42.19317" lon="0.87905">
        <ele>659.4</ele>
        <time>2023-07-23T11:44:01Z</time>
      </trkpt>
      <trkpt lat="42.19315" lon="0.87899">
        <ele>659.4</ele>
        <time>2023-07-23T11:44:02Z</time>
      </trkpt>
      <trkpt lat="42.19313" lon="0.87893">
        <ele>658.8</ele>
        <time>2023-07-23T11:44:03Z</time>
      </trkpt>
      <trkpt lat="42.1931" lon="0.87887">
        <ele>658.6</ele>
        <time>2023-07-23T11:44:04Z</time>
      </trkpt>
      <trkpt lat="42.19307" lon="0.87881">
        <ele>658.2</ele>
        <time>2023-07-23T11:44:05Z</time>
      </trkpt>
      <trkpt lat="42.19304" lon="0.87875">
        <ele>657.4</ele>
        <time>2023-07-23T11:44:06Z</time>
      </trkpt>
      <trkpt lat="42.19302" lon="0.87869">
        <ele>657.2</ele>
        <time>2023-07-23T11:44:07Z</time>
      </trkpt>
      <trkpt lat="42.193" lon="0.87863">
        <ele>656.8</ele>
        <time>2023-07-23T11:44:08Z</time>
      </trkpt>
      <trkpt lat="42.19299" lon="0.87858">
        <ele>656.8</ele>
        <time>2023-07-23T11:44:09Z</time>
      </trkpt>
      <trkpt lat="42.19298" lon="0.87851">
        <ele>656.4</ele>
        <time>2023-07-23T11:44:10Z</time>
      </trkpt>
      <trkpt lat="42.19298" lon="0.87845">
        <ele>656</ele>
        <time>2023-07-23T11:44:11Z</time>
      </trkpt>
      <trkpt lat="42.19298" lon="0.87837">
        <ele>656</ele>
        <time>2023-07-23T11:44:12Z</time>
      </trkpt>
      <trkpt lat="42.19299" lon="0.87828">
        <ele>655.4</ele>
        <time>2023-07-23T11:44:13Z</time>
      </trkpt>
      <trkpt lat="42.19299" lon="0.8782">
        <ele>655.2</ele>
        <time>2023-07-23T11:44:14Z</time>
      </trkpt>
      <trkpt lat="42.193" lon="0.87813">
        <ele>654.4</ele>
        <time>2023-07-23T11:44:15Z</time>
      </trkpt>
      <trkpt lat="42.19302" lon="0.87807">
        <ele>653.6</ele>
        <time>2023-07-23T11:44:16Z</time>
      </trkpt>
      <trkpt lat="42.19304" lon="0.87801">
        <ele>653</ele>
        <time>2023-07-23T11:44:17Z</time>
      </trkpt>
      <trkpt lat="42.19308" lon="0.87797">
        <ele>652</ele>
        <time>2023-07-23T11:44:18Z</time>
      </trkpt>
      <trkpt lat="42.19311" lon="0.87793">
        <ele>651.8</ele>
        <time>2023-07-23T11:44:19Z</time>
      </trkpt>
      <trkpt lat="42.19315" lon="0.87788">
        <ele>651.4</ele>
        <time>2023-07-23T11:44:20Z</time>
      </trkpt>
      <trkpt lat="42.19319" lon="0.87781">
        <ele>650.6</ele>
        <time>2023-07-23T11:44:21Z</time>
      </trkpt>
      <trkpt lat="42.19322" lon="0.87773">
        <ele>650.2</ele>
        <time>2023-07-23T11:44:22Z</time>
      </trkpt>
      <trkpt lat="42.19325" lon="0.87765">
        <ele>649.6</ele>
        <time>2023-07-23T11:44:23Z</time>
      </trkpt>
      <trkpt lat="42.19328" lon="0.87757">
        <ele>649.4</ele>
        <time>2023-07-23T11:44:24Z</time>
      </trkpt>
      <trkpt lat="42.19331" lon="0.87748">
        <ele>648.8</ele>
        <time>2023-07-23T11:44:25Z</time>
      </trkpt>
      <trkpt lat="42.19333" lon="0.8774">
        <ele>648.2</ele>
        <time>2023-07-23T11:44:26Z</time>
      </trkpt>
      <trkpt lat="42.19335" lon="0.87733">
        <ele>648</ele>
        <time>2023-07-23T11:44:27Z</time>
      </trkpt>
      <trkpt lat="42.19336" lon="0.87727">
        <ele>646.6</ele>
        <time>2023-07-23T11:44:28Z</time>
      </trkpt>
      <trkpt lat="42.19337" lon="0.87721">
        <ele>646.4</ele>
        <time>2023-07-23T11:44:29Z</time>
      </trkpt>
      <trkpt lat="42.19338" lon="0.87716">
        <ele>645.8</ele>
        <time>2023-07-23T11:44:30Z</time>
      </trkpt>
      <trkpt lat="42.19339" lon="0.8771">
        <ele>645.4</ele>
        <time>2023-07-23T11:44:31Z</time>
      </trkpt>
      <trkpt lat="42.19341" lon="0.87705">
        <ele>645.2</ele>
        <time>2023-07-23T11:44:32Z</time>
      </trkpt>
      <trkpt lat="42.19342" lon="0.877">
        <ele>645</ele>
        <time>2023-07-23T11:44:33Z</time>
      </trkpt>
      <trkpt lat="42.19344" lon="0.87694">
        <ele>644.8</ele>
        <time>2023-07-23T11:44:34Z</time>
      </trkpt>
      <trkpt lat="42.19345" lon="0.87688">
        <ele>644.8</ele>
        <time>2023-07-23T11:44:35Z</time>
      </trkpt>
      <trkpt lat="42.19345" lon="0.87681">
        <ele>644.8</ele>
        <time>2023-07-23T11:44:36Z</time>
      </trkpt>
      <trkpt lat="42.19345" lon="0.87674">
        <ele>644.6</ele>
        <time>2023-07-23T11:44:37Z</time>
      </trkpt>
      <trkpt lat="42.19346" lon="0.87667">
        <ele>644.2</ele>
        <time>2023-07-23T11:44:38Z</time>
      </trkpt>
      <trkpt lat="42.19348" lon="0.8766">
        <ele>644.2</ele>
        <time>2023-07-23T11:44:39Z</time>
      </trkpt>
      <trkpt lat="42.1935" lon="0.87654">
        <ele>644</ele>
        <time>2023-07-23T11:44:40Z</time>
      </trkpt>
      <trkpt lat="42.19352" lon="0.87648">
        <ele>643.8</ele>
        <time>2023-07-23T11:44:41Z</time>
      </trkpt>
      <trkpt lat="42.19354" lon="0.87643">
        <ele>643.6</ele>
        <time>2023-07-23T11:44:42Z</time>
      </trkpt>
      <trkpt lat="42.19356" lon="0.87639">
        <ele>643.4</ele>
        <time>2023-07-23T11:44:43Z</time>
      </trkpt>
      <trkpt lat="42.19357" lon="0.87635">
        <ele>643.2</ele>
        <time>2023-07-23T11:44:44Z</time>
      </trkpt>
      <trkpt lat="42.19358" lon="0.87631">
        <ele>643.2</ele>
        <time>2023-07-23T11:44:45Z</time>
      </trkpt>
      <trkpt lat="42.19358" lon="0.87627">
        <ele>643.2</ele>
        <time>2023-07-23T11:44:46Z</time>
      </trkpt>
      <trkpt lat="42.19358" lon="0.87623">
        <ele>643</ele>
        <time>2023-07-23T11:44:47Z</time>
      </trkpt>
      <trkpt lat="42.19358" lon="0.87619">
        <ele>643</ele>
        <time>2023-07-23T11:44:48Z</time>
      </trkpt>
      <trkpt lat="42.19357" lon="0.87615">
        <ele>643</ele>
        <time>2023-07-23T11:44:49Z</time>
      </trkpt>
      <trkpt lat="42.19355" lon="0.87611">
        <ele>642.8</ele>
        <time>2023-07-23T11:44:50Z</time>
      </trkpt>
      <trkpt lat="42.19352" lon="0.87607">
        <ele>642.8</ele>
        <time>2023-07-23T11:44:51Z</time>
      </trkpt>
      <trkpt lat="42.19347" lon="0.87602">
        <ele>642.6</ele>
        <time>2023-07-23T11:44:52Z</time>
      </trkpt>
      <trkpt lat="42.19343" lon="0.87598">
        <ele>642.6</ele>
        <time>2023-07-23T11:44:53Z</time>
      </trkpt>
      <trkpt lat="42.19337" lon="0.87593">
        <ele>642.4</ele>
        <time>2023-07-23T11:44:54Z</time>
      </trkpt>
      <trkpt lat="42.19332" lon="0.87589">
        <ele>642.2</ele>
        <time>2023-07-23T11:44:55Z</time>
      </trkpt>
      <trkpt lat="42.19326" lon="0.87585">
        <ele>642</ele>
        <time>2023-07-23T11:44:56Z</time>
      </trkpt>
      <trkpt lat="42.1932" lon="0.87584">
        <ele>641.8</ele>
        <time>2023-07-23T11:44:57Z</time>
      </trkpt>
      <trkpt lat="42.19313" lon="0.87584">
        <ele>641.4</ele>
        <time>2023-07-23T11:44:58Z</time>
      </trkpt>
      <trkpt lat="42.19306" lon="0.87585">
        <ele>641.2</ele>
        <time>2023-07-23T11:44:59Z</time>
      </trkpt>
      <trkpt lat="42.19298" lon="0.87586">
        <ele>640.6</ele>
        <time>2023-07-23T11:45:00Z</time>
      </trkpt>
      <trkpt lat="42.1929" lon="0.87587">
        <ele>640.2</ele>
        <time>2023-07-23T11:45:01Z</time>
      </trkpt>
      <trkpt lat="42.19283" lon="0.87588">
        <ele>639.2</ele>
        <time>2023-07-23T11:45:02Z</time>
      </trkpt>
      <trkpt lat="42.19275" lon="0.87587">
        <ele>637.6</ele>
        <time>2023-07-23T11:45:03Z</time>
      </trkpt>
      <trkpt lat="42.19268" lon="0.87584">
        <ele>637</ele>
        <time>2023-07-23T11:45:04Z</time>
      </trkpt>
      <trkpt lat="42.19262" lon="0.87582">
        <ele>636.4</ele>
        <time>2023-07-23T11:45:05Z</time>
      </trkpt>
      <trkpt lat="42.19257" lon="0.87579">
        <ele>636</ele>
        <time>2023-07-23T11:45:06Z</time>
      </trkpt>
      <trkpt lat="42.19254" lon="0.87575">
        <ele>634.6</ele>
        <time>2023-07-23T11:45:07Z</time>
      </trkpt>
      <trkpt lat="42.1925" lon="0.87572">
        <ele>633</ele>
        <time>2023-07-23T11:45:08Z</time>
      </trkpt>
      <trkpt lat="42.19247" lon="0.87568">
        <ele>632.4</ele>
        <time>2023-07-23T11:45:09Z</time>
      </trkpt>
      <trkpt lat="42.19244" lon="0.87563">
        <ele>631.2</ele>
        <time>2023-07-23T11:45:10Z</time>
      </trkpt>
      <trkpt lat="42.19242" lon="0.87559">
        <ele>631</ele>
        <time>2023-07-23T11:45:11Z</time>
      </trkpt>
      <trkpt lat="42.1924" lon="0.87554">
        <ele>630.2</ele>
        <time>2023-07-23T11:45:12Z</time>
      </trkpt>
      <trkpt lat="42.19239" lon="0.8755">
        <ele>629.6</ele>
        <time>2023-07-23T11:45:13Z</time>
      </trkpt>
      <trkpt lat="42.19238" lon="0.87544">
        <ele>629.4</ele>
        <time>2023-07-23T11:45:14Z</time>
      </trkpt>
      <trkpt lat="42.19238" lon="0.87538">
        <ele>628.8</ele>
        <time>2023-07-23T11:45:15Z</time>
      </trkpt>
      <trkpt lat="42.19239" lon="0.87532">
        <ele>628</ele>
        <time>2023-07-23T11:45:16Z</time>
      </trkpt>
      <trkpt lat="42.1924" lon="0.87524">
        <ele>626.8</ele>
        <time>2023-07-23T11:45:17Z</time>
      </trkpt>
      <trkpt lat="42.19242" lon="0.87516">
        <ele>625.4</ele>
        <time>2023-07-23T11:45:18Z</time>
      </trkpt>
      <trkpt lat="42.19245" lon="0.87499">
        <ele>623.4</ele>
        <time>2023-07-23T11:45:20Z</time>
      </trkpt>
      <trkpt lat="42.19248" lon="0.87493">
        <ele>622.6</ele>
        <time>2023-07-23T11:45:21Z</time>
      </trkpt>
      <trkpt lat="42.19252" lon="0.87487">
        <ele>621.4</ele>
        <time>2023-07-23T11:45:22Z</time>
      </trkpt>
      <trkpt lat="42.19255" lon="0.87482">
        <ele>620.8</ele>
        <time>2023-07-23T11:45:23Z</time>
      </trkpt>
      <trkpt lat="42.19257" lon="0.87475">
        <ele>619.4</ele>
        <time>2023-07-23T11:45:24Z</time>
      </trkpt>
      <trkpt lat="42.19258" lon="0.87467">
        <ele>618.4</ele>
        <time>2023-07-23T11:45:25Z</time>
      </trkpt>
      <trkpt lat="42.19259" lon="0.87458">
        <ele>618</ele>
        <time>2023-07-23T11:45:26Z</time>
      </trkpt>
      <trkpt lat="42.1926" lon="0.87449">
        <ele>617.6</ele>
        <time>2023-07-23T11:45:27Z</time>
      </trkpt>
      <trkpt lat="42.1926" lon="0.87441">
        <ele>617</ele>
        <time>2023-07-23T11:45:28Z</time>
      </trkpt>
      <trkpt lat="42.1926" lon="0.87434">
        <ele>616</ele>
        <time>2023-07-23T11:45:29Z</time>
      </trkpt>
      <trkpt lat="42.19259" lon="0.87427">
        <ele>615.4</ele>
        <time>2023-07-23T11:45:30Z</time>
      </trkpt>
      <trkpt lat="42.19258" lon="0.87421">
        <ele>615</ele>
        <time>2023-07-23T11:45:31Z</time>
      </trkpt>
      <trkpt lat="42.19257" lon="0.87415">
        <ele>614.2</ele>
        <time>2023-07-23T11:45:32Z</time>
      </trkpt>
      <trkpt lat="42.19256" lon="0.87408">
        <ele>613.8</ele>
        <time>2023-07-23T11:45:33Z</time>
      </trkpt>
      <trkpt lat="42.19255" lon="0.87402">
        <ele>611.8</ele>
        <time>2023-07-23T11:45:34Z</time>
      </trkpt>
      <trkpt lat="42.19253" lon="0.87396">
        <ele>610.8</ele>
        <time>2023-07-23T11:45:35Z</time>
      </trkpt>
      <trkpt lat="42.19251" lon="0.8739">
        <ele>610.4</ele>
        <time>2023-07-23T11:45:36Z</time>
      </trkpt>
      <trkpt lat="42.19249" lon="0.87385">
        <ele>609.6</ele>
        <time>2023-07-23T11:45:37Z</time>
      </trkpt>
      <trkpt lat="42.19247" lon="0.87379">
        <ele>608.8</ele>
        <time>2023-07-23T11:45:38Z</time>
      </trkpt>
      <trkpt lat="42.19246" lon="0.87375">
        <ele>606.4</ele>
        <time>2023-07-23T11:45:39Z</time>
      </trkpt>
      <trkpt lat="42.19246" lon="0.87371">
        <ele>604.2</ele>
        <time>2023-07-23T11:45:40Z</time>
      </trkpt>
      <trkpt lat="42.19247" lon="0.8737">
        <ele>603.2</ele>
        <time>2023-07-23T11:45:41Z</time>
      </trkpt>
      <trkpt lat="42.19248" lon="0.8737">
        <ele>602</ele>
        <time>2023-07-23T11:45:42Z</time>
      </trkpt>
      <trkpt lat="42.1925" lon="0.87371">
        <ele>601.6</ele>
        <time>2023-07-23T11:45:43Z</time>
      </trkpt>
      <trkpt lat="42.19252" lon="0.87372">
        <ele>601.2</ele>
        <time>2023-07-23T11:45:44Z</time>
      </trkpt>
      <trkpt lat="42.19253" lon="0.87373">
        <ele>600.4</ele>
        <time>2023-07-23T11:45:45Z</time>
      </trkpt>
      <trkpt lat="42.19254" lon="0.87374">
        <ele>600.2</ele>
        <time>2023-07-23T11:45:46Z</time>
      </trkpt>
      <trkpt lat="42.19255" lon="0.87375">
        <ele>599.8</ele>
        <time>2023-07-23T11:45:47Z</time>
      </trkpt>
      <trkpt lat="42.19256" lon="0.87376">
        <ele>599.6</ele>
        <time>2023-07-23T11:45:48Z</time>
      </trkpt>
      <trkpt lat="42.19256" lon="0.87376">
        <ele>599.2</ele>
        <time>2023-07-23T11:45:49Z</time>
      </trkpt>
      <trkpt lat="42.19256" lon="0.87376">
        <ele>598.8</ele>
        <time>2023-07-23T11:45:50Z</time>
      </trkpt>
      <trkpt lat="42.19256" lon="0.87376">
        <ele>598.6</ele>
        <time>2023-07-23T11:45:51Z</time>
      </trkpt>
      <trkpt lat="42.19251" lon="0.87375">
        <ele>598</ele>
        <time>2023-07-23T11:46:00Z</time>
      </trkpt>
      <trkpt lat="42.1925" lon="0.87374">
        <ele>598</ele>
        <time>2023-07-23T11:46:01Z</time>
      </trkpt>
      <trkpt lat="42.19248" lon="0.87373">
        <ele>598.2</ele>
        <time>2023-07-23T11:46:02Z</time>
      </trkpt>
      <trkpt lat="42.19246" lon="0.87372">
        <ele>598.2</ele>
        <time>2023-07-23T11:46:03Z</time>
      </trkpt>
      <trkpt lat="42.19244" lon="0.8737">
        <ele>598.4</ele>
        <time>2023-07-23T11:46:04Z</time>
      </trkpt>
      <trkpt lat="42.19242" lon="0.87368">
        <ele>598.4</ele>
        <time>2023-07-23T11:46:05Z</time>
      </trkpt>
      <trkpt lat="42.1924" lon="0.87365">
        <ele>598.4</ele>
        <time>2023-07-23T11:46:06Z</time>
      </trkpt>
      <trkpt lat="42.19238" lon="0.87362">
        <ele>598</ele>
        <time>2023-07-23T11:46:07Z</time>
      </trkpt>
      <trkpt lat="42.19236" lon="0.87359">
        <ele>598</ele>
        <time>2023-07-23T11:46:08Z</time>
      </trkpt>
      <trkpt lat="42.19233" lon="0.87357">
        <ele>597.8</ele>
        <time>2023-07-23T11:46:09Z</time>
      </trkpt>
      <trkpt lat="42.19229" lon="0.87353">
        <ele>597.8</ele>
        <time>2023-07-23T11:46:10Z</time>
      </trkpt>
      <trkpt lat="42.19226" lon="0.8735">
        <ele>597.8</ele>
        <time>2023-07-23T11:46:11Z</time>
      </trkpt>
      <trkpt lat="42.19222" lon="0.87348">
        <ele>597.8</ele>
        <time>2023-07-23T11:46:12Z</time>
      </trkpt>
      <trkpt lat="42.19218" lon="0.87345">
        <ele>597.8</ele>
        <time>2023-07-23T11:46:13Z</time>
      </trkpt>
      <trkpt lat="42.19216" lon="0.87343">
        <ele>597.8</ele>
        <time>2023-07-23T11:46:14Z</time>
      </trkpt>
      <trkpt lat="42.19214" lon="0.8734">
        <ele>597.6</ele>
        <time>2023-07-23T11:46:15Z</time>
      </trkpt>
      <trkpt lat="42.19214" lon="0.87337">
        <ele>597.6</ele>
        <time>2023-07-23T11:46:16Z</time>
      </trkpt>
      <trkpt lat="42.19214" lon="0.87334">
        <ele>597.4</ele>
        <time>2023-07-23T11:46:17Z</time>
      </trkpt>
      <trkpt lat="42.19216" lon="0.87333">
        <ele>597.2</ele>
        <time>2023-07-23T11:46:18Z</time>
      </trkpt>
      <trkpt lat="42.19217" lon="0.8733">
        <ele>597</ele>
        <time>2023-07-23T11:46:19Z</time>
      </trkpt>
      <trkpt lat="42.19218" lon="0.87328">
        <ele>596.8</ele>
        <time>2023-07-23T11:46:20Z</time>
      </trkpt>
      <trkpt lat="42.19221" lon="0.87326">
        <ele>596.6</ele>
        <time>2023-07-23T11:46:21Z</time>
      </trkpt>
      <trkpt lat="42.19223" lon="0.87326">
        <ele>596.4</ele>
        <time>2023-07-23T11:46:22Z</time>
      </trkpt>
      <trkpt lat="42.19226" lon="0.87327">
        <ele>596.4</ele>
        <time>2023-07-23T11:46:23Z</time>
      </trkpt>
      <trkpt lat="42.19229" lon="0.87327">
        <ele>596.2</ele>
        <time>2023-07-23T11:46:24Z</time>
      </trkpt>
      <trkpt lat="42.19231" lon="0.87329">
        <ele>596.2</ele>
        <time>2023-07-23T11:46:25Z</time>
      </trkpt>
      <trkpt lat="42.19233" lon="0.87329">
        <ele>596.2</ele>
        <time>2023-07-23T11:46:26Z</time>
      </trkpt>
      <trkpt lat="42.19235" lon="0.87329">
        <ele>596.2</ele>
        <time>2023-07-23T11:46:27Z</time>
      </trkpt>
      <trkpt lat="42.19238" lon="0.87329">
        <ele>596.2</ele>
        <time>2023-07-23T11:46:28Z</time>
      </trkpt>
      <trkpt lat="42.1924" lon="0.8733">
        <ele>596.4</ele>
        <time>2023-07-23T11:46:29Z</time>
      </trkpt>
      <trkpt lat="42.19242" lon="0.8733">
        <ele>596.6</ele>
        <time>2023-07-23T11:46:30Z</time>
      </trkpt>
      <trkpt lat="42.19244" lon="0.8733">
        <ele>597</ele>
        <time>2023-07-23T11:46:31Z</time>
      </trkpt>
      <trkpt lat="42.19246" lon="0.87328">
        <ele>597.4</ele>
        <time>2023-07-23T11:46:32Z</time>
      </trkpt>
      <trkpt lat="42.19248" lon="0.87328">
        <ele>597.4</ele>
        <time>2023-07-23T11:46:33Z</time>
      </trkpt>
      <trkpt lat="42.1925" lon="0.87328">
        <ele>597.8</ele>
        <time>2023-07-23T11:46:34Z</time>
      </trkpt>
      <trkpt lat="42.19252" lon="0.87328">
        <ele>597.8</ele>
        <time>2023-07-23T11:46:35Z</time>
      </trkpt>
      <trkpt lat="42.19254" lon="0.87327">
        <ele>598.2</ele>
        <time>2023-07-23T11:46:36Z</time>
      </trkpt>
      <trkpt lat="42.19255" lon="0.87325">
        <ele>598.2</ele>
        <time>2023-07-23T11:46:37Z</time>
      </trkpt>
      <trkpt lat="42.19257" lon="0.87323">
        <ele>598.4</ele>
        <time>2023-07-23T11:46:38Z</time>
      </trkpt>
      <trkpt lat="42.19259" lon="0.87321">
        <ele>598.6</ele>
        <time>2023-07-23T11:46:39Z</time>
      </trkpt>
      <trkpt lat="42.1926" lon="0.87318">
        <ele>598.8</ele>
        <time>2023-07-23T11:46:40Z</time>
      </trkpt>
      <trkpt lat="42.19261" lon="0.87316">
        <ele>599.2</ele>
        <time>2023-07-23T11:46:41Z</time>
      </trkpt>
      <trkpt lat="42.19261" lon="0.87313">
        <ele>600</ele>
        <time>2023-07-23T11:46:42Z</time>
      </trkpt>
      <trkpt lat="42.19262" lon="0.87311">
        <ele>600.4</ele>
        <time>2023-07-23T11:46:43Z</time>
      </trkpt>
      <trkpt lat="42.19262" lon="0.87308">
        <ele>601</ele>
        <time>2023-07-23T11:46:44Z</time>
      </trkpt>
      <trkpt lat="42.19262" lon="0.87305">
        <ele>601</ele>
        <time>2023-07-23T11:46:45Z</time>
      </trkpt>
      <trkpt lat="42.19262" lon="0.87303">
        <ele>601.4</ele>
        <time>2023-07-23T11:46:46Z</time>
      </trkpt>
      <trkpt lat="42.19262" lon="0.87299">
        <ele>602</ele>
        <time>2023-07-23T11:46:47Z</time>
      </trkpt>
      <trkpt lat="42.19262" lon="0.87296">
        <ele>602.2</ele>
        <time>2023-07-23T11:46:48Z</time>
      </trkpt>
      <trkpt lat="42.19261" lon="0.87294">
        <ele>602.4</ele>
        <time>2023-07-23T11:46:49Z</time>
      </trkpt>
      <trkpt lat="42.19261" lon="0.87291">
        <ele>602.8</ele>
        <time>2023-07-23T11:46:50Z</time>
      </trkpt>
      <trkpt lat="42.19262" lon="0.87288">
        <ele>603.4</ele>
        <time>2023-07-23T11:46:51Z</time>
      </trkpt>
      <trkpt lat="42.19262" lon="0.87285">
        <ele>603.6</ele>
        <time>2023-07-23T11:46:52Z</time>
      </trkpt>
      <trkpt lat="42.19263" lon="0.87282">
        <ele>603.8</ele>
        <time>2023-07-23T11:46:53Z</time>
      </trkpt>
      <trkpt lat="42.19263" lon="0.87279">
        <ele>604.2</ele>
        <time>2023-07-23T11:46:54Z</time>
      </trkpt>
      <trkpt lat="42.19264" lon="0.87276">
        <ele>604.4</ele>
        <time>2023-07-23T11:46:55Z</time>
      </trkpt>
      <trkpt lat="42.19266" lon="0.87274">
        <ele>605</ele>
        <time>2023-07-23T11:46:56Z</time>
      </trkpt>
      <trkpt lat="42.19267" lon="0.87271">
        <ele>605.4</ele>
        <time>2023-07-23T11:46:57Z</time>
      </trkpt>
      <trkpt lat="42.19269" lon="0.8727">
        <ele>605.8</ele>
        <time>2023-07-23T11:46:58Z</time>
      </trkpt>
      <trkpt lat="42.1927" lon="0.87267">
        <ele>606.2</ele>
        <time>2023-07-23T11:46:59Z</time>
      </trkpt>
      <trkpt lat="42.19272" lon="0.87266">
        <ele>606.4</ele>
        <time>2023-07-23T11:47:00Z</time>
      </trkpt>
      <trkpt lat="42.19274" lon="0.87264">
        <ele>606.8</ele>
        <time>2023-07-23T11:47:01Z</time>
      </trkpt>
      <trkpt lat="42.19276" lon="0.87262">
        <ele>606.8</ele>
        <time>2023-07-23T11:47:02Z</time>
      </trkpt>
      <trkpt lat="42.19277" lon="0.8726">
        <ele>607</ele>
        <time>2023-07-23T11:47:03Z</time>
      </trkpt>
      <trkpt lat="42.19279" lon="0.87257">
        <ele>607.4</ele>
        <time>2023-07-23T11:47:04Z</time>
      </trkpt>
      <trkpt lat="42.19281" lon="0.87254">
        <ele>607.6</ele>
        <time>2023-07-23T11:47:05Z</time>
      </trkpt>
      <trkpt lat="42.19282" lon="0.87251">
        <ele>607.8</ele>
        <time>2023-07-23T11:47:06Z</time>
      </trkpt>
      <trkpt lat="42.19284" lon="0.87248">
        <ele>608</ele>
        <time>2023-07-23T11:47:07Z</time>
      </trkpt>
      <trkpt lat="42.19285" lon="0.87245">
        <ele>608</ele>
        <time>2023-07-23T11:47:08Z</time>
      </trkpt>
      <trkpt lat="42.19285" lon="0.87242">
        <ele>608.4</ele>
        <time>2023-07-23T11:47:09Z</time>
      </trkpt>
      <trkpt lat="42.19286" lon="0.87238">
        <ele>608.4</ele>
        <time>2023-07-23T11:47:10Z</time>
      </trkpt>
      <trkpt lat="42.19287" lon="0.87235">
        <ele>608.4</ele>
        <time>2023-07-23T11:47:11Z</time>
      </trkpt>
      <trkpt lat="42.19287" lon="0.87232">
        <ele>608.4</ele>
        <time>2023-07-23T11:47:12Z</time>
      </trkpt>
      <trkpt lat="42.19288" lon="0.87228">
        <ele>608.6</ele>
        <time>2023-07-23T11:47:13Z</time>
      </trkpt>
      <trkpt lat="42.19288" lon="0.87224">
        <ele>608.8</ele>
        <time>2023-07-23T11:47:14Z</time>
      </trkpt>
      <trkpt lat="42.19289" lon="0.8722">
        <ele>608.8</ele>
        <time>2023-07-23T11:47:15Z</time>
      </trkpt>
      <trkpt lat="42.19289" lon="0.87217">
        <ele>608.8</ele>
        <time>2023-07-23T11:47:16Z</time>
      </trkpt>
      <trkpt lat="42.19289" lon="0.87211">
        <ele>608.8</ele>
        <time>2023-07-23T11:47:17Z</time>
      </trkpt>
      <trkpt lat="42.19289" lon="0.87206">
        <ele>608.8</ele>
        <time>2023-07-23T11:47:18Z</time>
      </trkpt>
      <trkpt lat="42.19288" lon="0.87202">
        <ele>609</ele>
        <time>2023-07-23T11:47:19Z</time>
      </trkpt>
      <trkpt lat="42.19289" lon="0.87197">
        <ele>609</ele>
        <time>2023-07-23T11:47:20Z</time>
      </trkpt>
      <trkpt lat="42.19289" lon="0.87192">
        <ele>609</ele>
        <time>2023-07-23T11:47:21Z</time>
      </trkpt>
      <trkpt lat="42.19289" lon="0.87188">
        <ele>609</ele>
        <time>2023-07-23T11:47:22Z</time>
      </trkpt>
      <trkpt lat="42.19289" lon="0.87183">
        <ele>609.2</ele>
        <time>2023-07-23T11:47:23Z</time>
      </trkpt>
      <trkpt lat="42.19289" lon="0.87177">
        <ele>609.2</ele>
        <time>2023-07-23T11:47:24Z</time>
      </trkpt>
      <trkpt lat="42.19289" lon="0.87172">
        <ele>609.2</ele>
        <time>2023-07-23T11:47:25Z</time>
      </trkpt>
      <trkpt lat="42.19289" lon="0.87167">
        <ele>609.2</ele>
        <time>2023-07-23T11:47:26Z</time>
      </trkpt>
      <trkpt lat="42.19289" lon="0.87162">
        <ele>609.4</ele>
        <time>2023-07-23T11:47:27Z</time>
      </trkpt>
      <trkpt lat="42.19289" lon="0.87157">
        <ele>609.4</ele>
        <time>2023-07-23T11:47:28Z</time>
      </trkpt>
      <trkpt lat="42.19289" lon="0.87152">
        <ele>609.4</ele>
        <time>2023-07-23T11:47:29Z</time>
      </trkpt>
      <trkpt lat="42.19289" lon="0.87147">
        <ele>609.4</ele>
        <time>2023-07-23T11:47:30Z</time>
      </trkpt>
      <trkpt lat="42.19289" lon="0.87143">
        <ele>609.4</ele>
        <time>2023-07-23T11:47:31Z</time>
      </trkpt>
      <trkpt lat="42.19289" lon="0.87137">
        <ele>609.4</ele>
        <time>2023-07-23T11:47:32Z</time>
      </trkpt>
      <trkpt lat="42.19288" lon="0.87132">
        <ele>609.4</ele>
        <time>2023-07-23T11:47:33Z</time>
      </trkpt>
      <trkpt lat="42.19289" lon="0.87127">
        <ele>609.4</ele>
        <time>2023-07-23T11:47:34Z</time>
      </trkpt>
      <trkpt lat="42.19289" lon="0.87122">
        <ele>609.4</ele>
        <time>2023-07-23T11:47:35Z</time>
      </trkpt>
      <trkpt lat="42.19289" lon="0.87118">
        <ele>609.4</ele>
        <time>2023-07-23T11:47:36Z</time>
      </trkpt>
      <trkpt lat="42.1929" lon="0.87112">
        <ele>609.4</ele>
        <time>2023-07-23T11:47:37Z</time>
      </trkpt>
      <trkpt lat="42.19291" lon="0.87108">
        <ele>609.4</ele>
        <time>2023-07-23T11:47:38Z</time>
      </trkpt>
      <trkpt lat="42.19292" lon="0.87103">
        <ele>609.6</ele>
        <time>2023-07-23T11:47:39Z</time>
      </trkpt>
      <trkpt lat="42.19293" lon="0.87099">
        <ele>609.6</ele>
        <time>2023-07-23T11:47:40Z</time>
      </trkpt>
      <trkpt lat="42.19295" lon="0.87096">
        <ele>609.6</ele>
        <time>2023-07-23T11:47:41Z</time>
      </trkpt>
      <trkpt lat="42.19298" lon="0.87092">
        <ele>609.8</ele>
        <time>2023-07-23T11:47:42Z</time>
      </trkpt>
      <trkpt lat="42.193" lon="0.87089">
        <ele>610</ele>
        <time>2023-07-23T11:47:43Z</time>
      </trkpt>
      <trkpt lat="42.19302" lon="0.87087">
        <ele>610</ele>
        <time>2023-07-23T11:47:44Z</time>
      </trkpt>
      <trkpt lat="42.19304" lon="0.87085">
        <ele>610.2</ele>
        <time>2023-07-23T11:47:45Z</time>
      </trkpt>
      <trkpt lat="42.19307" lon="0.87082">
        <ele>610.2</ele>
        <time>2023-07-23T11:47:46Z</time>
      </trkpt>
      <trkpt lat="42.1931" lon="0.87081">
        <ele>610.2</ele>
        <time>2023-07-23T11:47:47Z</time>
      </trkpt>
      <trkpt lat="42.19313" lon="0.87079">
        <ele>610.4</ele>
        <time>2023-07-23T11:47:48Z</time>
      </trkpt>
      <trkpt lat="42.19315" lon="0.87079">
        <ele>610.4</ele>
        <time>2023-07-23T11:47:49Z</time>
      </trkpt>
      <trkpt lat="42.19318" lon="0.87078">
        <ele>610.6</ele>
        <time>2023-07-23T11:47:50Z</time>
      </trkpt>
      <trkpt lat="42.19322" lon="0.87079">
        <ele>611</ele>
        <time>2023-07-23T11:47:51Z</time>
      </trkpt>
      <trkpt lat="42.19326" lon="0.87079">
        <ele>611</ele>
        <time>2023-07-23T11:47:52Z</time>
      </trkpt>
      <trkpt lat="42.19329" lon="0.8708">
        <ele>611.4</ele>
        <time>2023-07-23T11:47:53Z</time>
      </trkpt>
      <trkpt lat="42.19332" lon="0.87081">
        <ele>612</ele>
        <time>2023-07-23T11:47:54Z</time>
      </trkpt>
      <trkpt lat="42.19335" lon="0.87082">
        <ele>612.2</ele>
        <time>2023-07-23T11:47:55Z</time>
      </trkpt>
      <trkpt lat="42.19339" lon="0.87083">
        <ele>612.4</ele>
        <time>2023-07-23T11:47:56Z</time>
      </trkpt>
      <trkpt lat="42.19342" lon="0.87084">
        <ele>612.6</ele>
        <time>2023-07-23T11:47:57Z</time>
      </trkpt>
      <trkpt lat="42.19345" lon="0.87084">
        <ele>612.8</ele>
        <time>2023-07-23T11:47:58Z</time>
      </trkpt>
      <trkpt lat="42.19348" lon="0.87083">
        <ele>613.2</ele>
        <time>2023-07-23T11:47:59Z</time>
      </trkpt>
      <trkpt lat="42.19351" lon="0.87082">
        <ele>613.4</ele>
        <time>2023-07-23T11:48:00Z</time>
      </trkpt>
      <trkpt lat="42.19354" lon="0.8708">
        <ele>613.8</ele>
        <time>2023-07-23T11:48:01Z</time>
      </trkpt>
      <trkpt lat="42.19356" lon="0.87077">
        <ele>613.8</ele>
        <time>2023-07-23T11:48:02Z</time>
      </trkpt>
      <trkpt lat="42.19359" lon="0.87075">
        <ele>614.4</ele>
        <time>2023-07-23T11:48:03Z</time>
      </trkpt>
      <trkpt lat="42.19361" lon="0.87073">
        <ele>614.8</ele>
        <time>2023-07-23T11:48:04Z</time>
      </trkpt>
      <trkpt lat="42.19364" lon="0.87071">
        <ele>615</ele>
        <time>2023-07-23T11:48:05Z</time>
      </trkpt>
      <trkpt lat="42.19367" lon="0.87069">
        <ele>615.4</ele>
        <time>2023-07-23T11:48:06Z</time>
      </trkpt>
      <trkpt lat="42.1937" lon="0.87067">
        <ele>615.6</ele>
        <time>2023-07-23T11:48:07Z</time>
      </trkpt>
      <trkpt lat="42.19372" lon="0.87065">
        <ele>615.8</ele>
        <time>2023-07-23T11:48:08Z</time>
      </trkpt>
      <trkpt lat="42.19375" lon="0.87064">
        <ele>616.2</ele>
        <time>2023-07-23T11:48:09Z</time>
      </trkpt>
      <trkpt lat="42.19377" lon="0.87063">
        <ele>616.6</ele>
        <time>2023-07-23T11:48:10Z</time>
      </trkpt>
      <trkpt lat="42.1938" lon="0.87062">
        <ele>617.4</ele>
        <time>2023-07-23T11:48:11Z</time>
      </trkpt>
      <trkpt lat="42.19383" lon="0.87062">
        <ele>617.6</ele>
        <time>2023-07-23T11:48:12Z</time>
      </trkpt>
      <trkpt lat="42.19387" lon="0.87063">
        <ele>617.8</ele>
        <time>2023-07-23T11:48:13Z</time>
      </trkpt>
      <trkpt lat="42.19389" lon="0.87066">
        <ele>618</ele>
        <time>2023-07-23T11:48:14Z</time>
      </trkpt>
      <trkpt lat="42.19391" lon="0.87068">
        <ele>618.2</ele>
        <time>2023-07-23T11:48:15Z</time>
      </trkpt>
      <trkpt lat="42.19393" lon="0.87073">
        <ele>618.6</ele>
        <time>2023-07-23T11:48:16Z</time>
      </trkpt>
      <trkpt lat="42.19395" lon="0.87077">
        <ele>618.8</ele>
        <time>2023-07-23T11:48:17Z</time>
      </trkpt>
      <trkpt lat="42.19396" lon="0.87081">
        <ele>619</ele>
        <time>2023-07-23T11:48:18Z</time>
      </trkpt>
      <trkpt lat="42.19397" lon="0.87084">
        <ele>619.4</ele>
        <time>2023-07-23T11:48:19Z</time>
      </trkpt>
      <trkpt lat="42.19398" lon="0.87088">
        <ele>619.8</ele>
        <time>2023-07-23T11:48:20Z</time>
      </trkpt>
      <trkpt lat="42.194" lon="0.87092">
        <ele>620.2</ele>
        <time>2023-07-23T11:48:21Z</time>
      </trkpt>
      <trkpt lat="42.19401" lon="0.87096">
        <ele>620.4</ele>
        <time>2023-07-23T11:48:22Z</time>
      </trkpt>
      <trkpt lat="42.19403" lon="0.87099">
        <ele>621</ele>
        <time>2023-07-23T11:48:23Z</time>
      </trkpt>
      <trkpt lat="42.19404" lon="0.87102">
        <ele>621.2</ele>
        <time>2023-07-23T11:48:24Z</time>
      </trkpt>
      <trkpt lat="42.19406" lon="0.87105">
        <ele>621.2</ele>
        <time>2023-07-23T11:48:25Z</time>
      </trkpt>
      <trkpt lat="42.19409" lon="0.87107">
        <ele>621.6</ele>
        <time>2023-07-23T11:48:26Z</time>
      </trkpt>
      <trkpt lat="42.19412" lon="0.87109">
        <ele>621.8</ele>
        <time>2023-07-23T11:48:27Z</time>
      </trkpt>
      <trkpt lat="42.19414" lon="0.87111">
        <ele>622.6</ele>
        <time>2023-07-23T11:48:28Z</time>
      </trkpt>
      <trkpt lat="42.19416" lon="0.87113">
        <ele>622.4</ele>
        <time>2023-07-23T11:48:29Z</time>
      </trkpt>
      <trkpt lat="42.19419" lon="0.87115">
        <ele>622.8</ele>
        <time>2023-07-23T11:48:30Z</time>
      </trkpt>
      <trkpt lat="42.19421" lon="0.87117">
        <ele>623.2</ele>
        <time>2023-07-23T11:48:31Z</time>
      </trkpt>
      <trkpt lat="42.19424" lon="0.87119">
        <ele>623.2</ele>
        <time>2023-07-23T11:48:32Z</time>
      </trkpt>
      <trkpt lat="42.19427" lon="0.87122">
        <ele>623.6</ele>
        <time>2023-07-23T11:48:33Z</time>
      </trkpt>
      <trkpt lat="42.19429" lon="0.87123">
        <ele>623.8</ele>
        <time>2023-07-23T11:48:34Z</time>
      </trkpt>
      <trkpt lat="42.19432" lon="0.87125">
        <ele>624</ele>
        <time>2023-07-23T11:48:35Z</time>
      </trkpt>
      <trkpt lat="42.19435" lon="0.87128">
        <ele>624.4</ele>
        <time>2023-07-23T11:48:36Z</time>
      </trkpt>
      <trkpt lat="42.19437" lon="0.8713">
        <ele>624.4</ele>
        <time>2023-07-23T11:48:37Z</time>
      </trkpt>
      <trkpt lat="42.19439" lon="0.87133">
        <ele>624.8</ele>
        <time>2023-07-23T11:48:38Z</time>
      </trkpt>
      <trkpt lat="42.19441" lon="0.87134">
        <ele>624.8</ele>
        <time>2023-07-23T11:48:39Z</time>
      </trkpt>
      <trkpt lat="42.19444" lon="0.87137">
        <ele>625.4</ele>
        <time>2023-07-23T11:48:40Z</time>
      </trkpt>
      <trkpt lat="42.19446" lon="0.8714">
        <ele>625.6</ele>
        <time>2023-07-23T11:48:41Z</time>
      </trkpt>
      <trkpt lat="42.19447" lon="0.87142">
        <ele>625.8</ele>
        <time>2023-07-23T11:48:42Z</time>
      </trkpt>
      <trkpt lat="42.19449" lon="0.87144">
        <ele>626.2</ele>
        <time>2023-07-23T11:48:43Z</time>
      </trkpt>
      <trkpt lat="42.1945" lon="0.87146">
        <ele>626.2</ele>
        <time>2023-07-23T11:48:44Z</time>
      </trkpt>
      <trkpt lat="42.19453" lon="0.87148">
        <ele>626.6</ele>
        <time>2023-07-23T11:48:45Z</time>
      </trkpt>
      <trkpt lat="42.19455" lon="0.8715">
        <ele>627</ele>
        <time>2023-07-23T11:48:46Z</time>
      </trkpt>
      <trkpt lat="42.19458" lon="0.87151">
        <ele>627.2</ele>
        <time>2023-07-23T11:48:47Z</time>
      </trkpt>
      <trkpt lat="42.1946" lon="0.87152">
        <ele>627.4</ele>
        <time>2023-07-23T11:48:48Z</time>
      </trkpt>
      <trkpt lat="42.19462" lon="0.87152">
        <ele>627.6</ele>
        <time>2023-07-23T11:48:49Z</time>
      </trkpt>
      <trkpt lat="42.19465" lon="0.87153">
        <ele>627.8</ele>
        <time>2023-07-23T11:48:50Z</time>
      </trkpt>
      <trkpt lat="42.19468" lon="0.87154">
        <ele>628</ele>
        <time>2023-07-23T11:48:51Z</time>
      </trkpt>
      <trkpt lat="42.1947" lon="0.87153">
        <ele>628</ele>
        <time>2023-07-23T11:48:52Z</time>
      </trkpt>
      <trkpt lat="42.19473" lon="0.87153">
        <ele>628.2</ele>
        <time>2023-07-23T11:48:53Z</time>
      </trkpt>
      <trkpt lat="42.19476" lon="0.87153">
        <ele>628.4</ele>
        <time>2023-07-23T11:48:54Z</time>
      </trkpt>
      <trkpt lat="42.19479" lon="0.87153">
        <ele>628.8</ele>
        <time>2023-07-23T11:48:55Z</time>
      </trkpt>
      <trkpt lat="42.19482" lon="0.87152">
        <ele>629</ele>
        <time>2023-07-23T11:48:56Z</time>
      </trkpt>
      <trkpt lat="42.19485" lon="0.87152">
        <ele>629.2</ele>
        <time>2023-07-23T11:48:57Z</time>
      </trkpt>
      <trkpt lat="42.19488" lon="0.87153">
        <ele>629.6</ele>
        <time>2023-07-23T11:48:58Z</time>
      </trkpt>
      <trkpt lat="42.19491" lon="0.87154">
        <ele>629.8</ele>
        <time>2023-07-23T11:48:59Z</time>
      </trkpt>
      <trkpt lat="42.19495" lon="0.87156">
        <ele>630</ele>
        <time>2023-07-23T11:49:00Z</time>
      </trkpt>
      <trkpt lat="42.19498" lon="0.87158">
        <ele>630.4</ele>
        <time>2023-07-23T11:49:01Z</time>
      </trkpt>
      <trkpt lat="42.19501" lon="0.87159">
        <ele>631.2</ele>
        <time>2023-07-23T11:49:02Z</time>
      </trkpt>
      <trkpt lat="42.19503" lon="0.87161">
        <ele>632</ele>
        <time>2023-07-23T11:49:03Z</time>
      </trkpt>
      <trkpt lat="42.19505" lon="0.87162">
        <ele>632.6</ele>
        <time>2023-07-23T11:49:04Z</time>
      </trkpt>
      <trkpt lat="42.19508" lon="0.87162">
        <ele>633.2</ele>
        <time>2023-07-23T11:49:05Z</time>
      </trkpt>
      <trkpt lat="42.19511" lon="0.87162">
        <ele>633.4</ele>
        <time>2023-07-23T11:49:06Z</time>
      </trkpt>
      <trkpt lat="42.19515" lon="0.87161">
        <ele>633.8</ele>
        <time>2023-07-23T11:49:07Z</time>
      </trkpt>
      <trkpt lat="42.19518" lon="0.8716">
        <ele>634.2</ele>
        <time>2023-07-23T11:49:08Z</time>
      </trkpt>
      <trkpt lat="42.19521" lon="0.8716">
        <ele>634.6</ele>
        <time>2023-07-23T11:49:09Z</time>
      </trkpt>
      <trkpt lat="42.19523" lon="0.8716">
        <ele>635.6</ele>
        <time>2023-07-23T11:49:10Z</time>
      </trkpt>
      <trkpt lat="42.19527" lon="0.87161">
        <ele>635.8</ele>
        <time>2023-07-23T11:49:11Z</time>
      </trkpt>
      <trkpt lat="42.19529" lon="0.87162">
        <ele>636</ele>
        <time>2023-07-23T11:49:12Z</time>
      </trkpt>
      <trkpt lat="42.19532" lon="0.87162">
        <ele>637</ele>
        <time>2023-07-23T11:49:13Z</time>
      </trkpt>
      <trkpt lat="42.19535" lon="0.87163">
        <ele>637.4</ele>
        <time>2023-07-23T11:49:14Z</time>
      </trkpt>
      <trkpt lat="42.19538" lon="0.87164">
        <ele>638.2</ele>
        <time>2023-07-23T11:49:15Z</time>
      </trkpt>
      <trkpt lat="42.1954" lon="0.87165">
        <ele>638.6</ele>
        <time>2023-07-23T11:49:16Z</time>
      </trkpt>
      <trkpt lat="42.19543" lon="0.87166">
        <ele>638.8</ele>
        <time>2023-07-23T11:49:17Z</time>
      </trkpt>
      <trkpt lat="42.19545" lon="0.87166">
        <ele>639.2</ele>
        <time>2023-07-23T11:49:18Z</time>
      </trkpt>
      <trkpt lat="42.19548" lon="0.87166">
        <ele>639.4</ele>
        <time>2023-07-23T11:49:19Z</time>
      </trkpt>
      <trkpt lat="42.19551" lon="0.87167">
        <ele>640</ele>
        <time>2023-07-23T11:49:20Z</time>
      </trkpt>
      <trkpt lat="42.19554" lon="0.87166">
        <ele>640</ele>
        <time>2023-07-23T11:49:21Z</time>
      </trkpt>
      <trkpt lat="42.19556" lon="0.87166">
        <ele>640.4</ele>
        <time>2023-07-23T11:49:22Z</time>
      </trkpt>
      <trkpt lat="42.19559" lon="0.87166">
        <ele>640.8</ele>
        <time>2023-07-23T11:49:23Z</time>
      </trkpt>
      <trkpt lat="42.19561" lon="0.87165">
        <ele>641</ele>
        <time>2023-07-23T11:49:24Z</time>
      </trkpt>
      <trkpt lat="42.19564" lon="0.87165">
        <ele>641.4</ele>
        <time>2023-07-23T11:49:25Z</time>
      </trkpt>
      <trkpt lat="42.19566" lon="0.87165">
        <ele>641.8</ele>
        <time>2023-07-23T11:49:26Z</time>
      </trkpt>
      <trkpt lat="42.19569" lon="0.87164">
        <ele>642.2</ele>
        <time>2023-07-23T11:49:27Z</time>
      </trkpt>
      <trkpt lat="42.19571" lon="0.87164">
        <ele>642.6</ele>
        <time>2023-07-23T11:49:28Z</time>
      </trkpt>
      <trkpt lat="42.19574" lon="0.87163">
        <ele>642.8</ele>
        <time>2023-07-23T11:49:29Z</time>
      </trkpt>
      <trkpt lat="42.19577" lon="0.87163">
        <ele>643</ele>
        <time>2023-07-23T11:49:30Z</time>
      </trkpt>
      <trkpt lat="42.1958" lon="0.87163">
        <ele>643.2</ele>
        <time>2023-07-23T11:49:31Z</time>
      </trkpt>
      <trkpt lat="42.19582" lon="0.87165">
        <ele>643.4</ele>
        <time>2023-07-23T11:49:32Z</time>
      </trkpt>
      <trkpt lat="42.19585" lon="0.87167">
        <ele>643.4</ele>
        <time>2023-07-23T11:49:33Z</time>
      </trkpt>
      <trkpt lat="42.19587" lon="0.8717">
        <ele>643.4</ele>
        <time>2023-07-23T11:49:34Z</time>
      </trkpt>
      <trkpt lat="42.19589" lon="0.87174">
        <ele>643.6</ele>
        <time>2023-07-23T11:49:35Z</time>
      </trkpt>
      <trkpt lat="42.19591" lon="0.87177">
        <ele>643.6</ele>
        <time>2023-07-23T11:49:36Z</time>
      </trkpt>
      <trkpt lat="42.19592" lon="0.8718">
        <ele>643.8</ele>
        <time>2023-07-23T11:49:37Z</time>
      </trkpt>
      <trkpt lat="42.19594" lon="0.87184">
        <ele>643.8</ele>
        <time>2023-07-23T11:49:38Z</time>
      </trkpt>
      <trkpt lat="42.19597" lon="0.87186">
        <ele>644</ele>
        <time>2023-07-23T11:49:39Z</time>
      </trkpt>
      <trkpt lat="42.19599" lon="0.87188">
        <ele>644.2</ele>
        <time>2023-07-23T11:49:40Z</time>
      </trkpt>
      <trkpt lat="42.19601" lon="0.8719">
        <ele>644.4</ele>
        <time>2023-07-23T11:49:41Z</time>
      </trkpt>
      <trkpt lat="42.19604" lon="0.87192">
        <ele>644.6</ele>
        <time>2023-07-23T11:49:42Z</time>
      </trkpt>
      <trkpt lat="42.19606" lon="0.87194">
        <ele>644.8</ele>
        <time>2023-07-23T11:49:43Z</time>
      </trkpt>
      <trkpt lat="42.19608" lon="0.87196">
        <ele>645</ele>
        <time>2023-07-23T11:49:44Z</time>
      </trkpt>
      <trkpt lat="42.1961" lon="0.87198">
        <ele>645.2</ele>
        <time>2023-07-23T11:49:45Z</time>
      </trkpt>
      <trkpt lat="42.19613" lon="0.872">
        <ele>645.2</ele>
        <time>2023-07-23T11:49:46Z</time>
      </trkpt>
      <trkpt lat="42.19615" lon="0.87202">
        <ele>645.6</ele>
        <time>2023-07-23T11:49:47Z</time>
      </trkpt>
      <trkpt lat="42.19617" lon="0.87204">
        <ele>645.8</ele>
        <time>2023-07-23T11:49:48Z</time>
      </trkpt>
      <trkpt lat="42.19619" lon="0.87205">
        <ele>646.2</ele>
        <time>2023-07-23T11:49:49Z</time>
      </trkpt>
      <trkpt lat="42.19622" lon="0.87207">
        <ele>646.8</ele>
        <time>2023-07-23T11:49:50Z</time>
      </trkpt>
      <trkpt lat="42.19624" lon="0.87208">
        <ele>647</ele>
        <time>2023-07-23T11:49:51Z</time>
      </trkpt>
      <trkpt lat="42.19627" lon="0.87209">
        <ele>647.4</ele>
        <time>2023-07-23T11:49:52Z</time>
      </trkpt>
      <trkpt lat="42.19629" lon="0.8721">
        <ele>647.6</ele>
        <time>2023-07-23T11:49:53Z</time>
      </trkpt>
      <trkpt lat="42.19632" lon="0.87211">
        <ele>648</ele>
        <time>2023-07-23T11:49:54Z</time>
      </trkpt>
      <trkpt lat="42.19634" lon="0.87212">
        <ele>649</ele>
        <time>2023-07-23T11:49:55Z</time>
      </trkpt>
      <trkpt lat="42.19636" lon="0.87213">
        <ele>649.2</ele>
        <time>2023-07-23T11:49:56Z</time>
      </trkpt>
      <trkpt lat="42.19638" lon="0.87213">
        <ele>650</ele>
        <time>2023-07-23T11:49:57Z</time>
      </trkpt>
      <trkpt lat="42.1964" lon="0.87214">
        <ele>650.2</ele>
        <time>2023-07-23T11:49:58Z</time>
      </trkpt>
      <trkpt lat="42.19643" lon="0.87215">
        <ele>650.6</ele>
        <time>2023-07-23T11:49:59Z</time>
      </trkpt>
      <trkpt lat="42.19645" lon="0.87215">
        <ele>650.8</ele>
        <time>2023-07-23T11:50:00Z</time>
      </trkpt>
      <trkpt lat="42.19647" lon="0.87215">
        <ele>650.8</ele>
        <time>2023-07-23T11:50:01Z</time>
      </trkpt>
      <trkpt lat="42.1965" lon="0.87216">
        <ele>651</ele>
        <time>2023-07-23T11:50:02Z</time>
      </trkpt>
      <trkpt lat="42.19651" lon="0.87216">
        <ele>651.2</ele>
        <time>2023-07-23T11:50:03Z</time>
      </trkpt>
      <trkpt lat="42.19653" lon="0.87216">
        <ele>651.8</ele>
        <time>2023-07-23T11:50:04Z</time>
      </trkpt>
      <trkpt lat="42.19655" lon="0.87216">
        <ele>652</ele>
        <time>2023-07-23T11:50:05Z</time>
      </trkpt>
      <trkpt lat="42.19657" lon="0.87216">
        <ele>652.2</ele>
        <time>2023-07-23T11:50:06Z</time>
      </trkpt>
      <trkpt lat="42.19659" lon="0.87217">
        <ele>652.4</ele>
        <time>2023-07-23T11:50:07Z</time>
      </trkpt>
      <trkpt lat="42.19662" lon="0.87217">
        <ele>652.6</ele>
        <time>2023-07-23T11:50:08Z</time>
      </trkpt>
      <trkpt lat="42.19664" lon="0.87217">
        <ele>653.2</ele>
        <time>2023-07-23T11:50:09Z</time>
      </trkpt>
      <trkpt lat="42.19666" lon="0.87217">
        <ele>653.4</ele>
        <time>2023-07-23T11:50:10Z</time>
      </trkpt>
      <trkpt lat="42.19668" lon="0.87218">
        <ele>653.6</ele>
        <time>2023-07-23T11:50:11Z</time>
      </trkpt>
      <trkpt lat="42.1967" lon="0.87218">
        <ele>653.8</ele>
        <time>2023-07-23T11:50:12Z</time>
      </trkpt>
      <trkpt lat="42.19673" lon="0.87219">
        <ele>654</ele>
        <time>2023-07-23T11:50:13Z</time>
      </trkpt>
      <trkpt lat="42.19675" lon="0.87219">
        <ele>654.2</ele>
        <time>2023-07-23T11:50:14Z</time>
      </trkpt>
      <trkpt lat="42.19677" lon="0.8722">
        <ele>654.4</ele>
        <time>2023-07-23T11:50:15Z</time>
      </trkpt>
      <trkpt lat="42.19679" lon="0.8722">
        <ele>654.6</ele>
        <time>2023-07-23T11:50:16Z</time>
      </trkpt>
      <trkpt lat="42.19681" lon="0.8722">
        <ele>655</ele>
        <time>2023-07-23T11:50:17Z</time>
      </trkpt>
      <trkpt lat="42.19683" lon="0.87221">
        <ele>655.2</ele>
        <time>2023-07-23T11:50:18Z</time>
      </trkpt>
      <trkpt lat="42.19685" lon="0.87221">
        <ele>655.6</ele>
        <time>2023-07-23T11:50:19Z</time>
      </trkpt>
      <trkpt lat="42.19687" lon="0.87221">
        <ele>655.8</ele>
        <time>2023-07-23T11:50:20Z</time>
      </trkpt>
      <trkpt lat="42.1969" lon="0.87221">
        <ele>656</ele>
        <time>2023-07-23T11:50:21Z</time>
      </trkpt>
      <trkpt lat="42.19692" lon="0.87221">
        <ele>656.2</ele>
        <time>2023-07-23T11:50:22Z</time>
      </trkpt>
      <trkpt lat="42.19694" lon="0.87221">
        <ele>656.4</ele>
        <time>2023-07-23T11:50:23Z</time>
      </trkpt>
      <trkpt lat="42.19697" lon="0.8722">
        <ele>656.8</ele>
        <time>2023-07-23T11:50:24Z</time>
      </trkpt>
      <trkpt lat="42.19699" lon="0.8722">
        <ele>657</ele>
        <time>2023-07-23T11:50:25Z</time>
      </trkpt>
      <trkpt lat="42.19701" lon="0.8722">
        <ele>657.4</ele>
        <time>2023-07-23T11:50:26Z</time>
      </trkpt>
      <trkpt lat="42.19703" lon="0.87219">
        <ele>657.6</ele>
        <time>2023-07-23T11:50:27Z</time>
      </trkpt>
      <trkpt lat="42.19705" lon="0.87219">
        <ele>658</ele>
        <time>2023-07-23T11:50:28Z</time>
      </trkpt>
      <trkpt lat="42.19707" lon="0.87219">
        <ele>658.2</ele>
        <time>2023-07-23T11:50:29Z</time>
      </trkpt>
      <trkpt lat="42.19709" lon="0.87219">
        <ele>658.4</ele>
        <time>2023-07-23T11:50:30Z</time>
      </trkpt>
      <trkpt lat="42.19711" lon="0.87219">
        <ele>658.6</ele>
        <time>2023-07-23T11:50:31Z</time>
      </trkpt>
      <trkpt lat="42.19713" lon="0.87219">
        <ele>658.8</ele>
        <time>2023-07-23T11:50:32Z</time>
      </trkpt>
      <trkpt lat="42.19715" lon="0.87219">
        <ele>659.2</ele>
        <time>2023-07-23T11:50:33Z</time>
      </trkpt>
      <trkpt lat="42.19717" lon="0.8722">
        <ele>659.2</ele>
        <time>2023-07-23T11:50:34Z</time>
      </trkpt>
      <trkpt lat="42.19719" lon="0.8722">
        <ele>659.6</ele>
        <time>2023-07-23T11:50:35Z</time>
      </trkpt>
      <trkpt lat="42.19721" lon="0.8722">
        <ele>659.8</ele>
        <time>2023-07-23T11:50:36Z</time>
      </trkpt>
      <trkpt lat="42.19723" lon="0.8722">
        <ele>660.2</ele>
        <time>2023-07-23T11:50:37Z</time>
      </trkpt>
      <trkpt lat="42.19725" lon="0.87219">
        <ele>660.4</ele>
        <time>2023-07-23T11:50:38Z</time>
      </trkpt>
      <trkpt lat="42.19727" lon="0.87219">
        <ele>661</ele>
        <time>2023-07-23T11:50:39Z</time>
      </trkpt>
      <trkpt lat="42.19728" lon="0.8722">
        <ele>661</ele>
        <time>2023-07-23T11:50:40Z</time>
      </trkpt>
      <trkpt lat="42.1973" lon="0.8722">
        <ele>661.2</ele>
        <time>2023-07-23T11:50:41Z</time>
      </trkpt>
      <trkpt lat="42.19732" lon="0.8722">
        <ele>661.8</ele>
        <time>2023-07-23T11:50:42Z</time>
      </trkpt>
      <trkpt lat="42.19734" lon="0.8722">
        <ele>662</ele>
        <time>2023-07-23T11:50:43Z</time>
      </trkpt>
      <trkpt lat="42.19737" lon="0.87221">
        <ele>662.2</ele>
        <time>2023-07-23T11:50:44Z</time>
      </trkpt>
      <trkpt lat="42.19738" lon="0.87221">
        <ele>662.4</ele>
        <time>2023-07-23T11:50:45Z</time>
      </trkpt>
      <trkpt lat="42.19741" lon="0.87221">
        <ele>662.4</ele>
        <time>2023-07-23T11:50:46Z</time>
      </trkpt>
      <trkpt lat="42.19743" lon="0.87222">
        <ele>662.6</ele>
        <time>2023-07-23T11:50:47Z</time>
      </trkpt>
      <trkpt lat="42.19745" lon="0.87222">
        <ele>662.8</ele>
        <time>2023-07-23T11:50:48Z</time>
      </trkpt>
      <trkpt lat="42.19747" lon="0.87223">
        <ele>663</ele>
        <time>2023-07-23T11:50:49Z</time>
      </trkpt>
      <trkpt lat="42.19749" lon="0.87223">
        <ele>663.2</ele>
        <time>2023-07-23T11:50:50Z</time>
      </trkpt>
      <trkpt lat="42.19751" lon="0.87224">
        <ele>663.4</ele>
        <time>2023-07-23T11:50:51Z</time>
      </trkpt>
      <trkpt lat="42.19753" lon="0.87225">
        <ele>663.4</ele>
        <time>2023-07-23T11:50:52Z</time>
      </trkpt>
      <trkpt lat="42.19754" lon="0.87226">
        <ele>664</ele>
        <time>2023-07-23T11:50:53Z</time>
      </trkpt>
      <trkpt lat="42.19756" lon="0.87226">
        <ele>664.4</ele>
        <time>2023-07-23T11:50:54Z</time>
      </trkpt>
      <trkpt lat="42.19758" lon="0.87227">
        <ele>664.6</ele>
        <time>2023-07-23T11:50:55Z</time>
      </trkpt>
      <trkpt lat="42.19761" lon="0.87226">
        <ele>665</ele>
        <time>2023-07-23T11:50:56Z</time>
      </trkpt>
      <trkpt lat="42.19763" lon="0.87226">
        <ele>665.2</ele>
        <time>2023-07-23T11:50:57Z</time>
      </trkpt>
      <trkpt lat="42.19766" lon="0.87225">
        <ele>665.6</ele>
        <time>2023-07-23T11:50:58Z</time>
      </trkpt>
      <trkpt lat="42.19767" lon="0.87223">
        <ele>665.8</ele>
        <time>2023-07-23T11:50:59Z</time>
      </trkpt>
      <trkpt lat="42.19769" lon="0.87221">
        <ele>666</ele>
        <time>2023-07-23T11:51:00Z</time>
      </trkpt>
      <trkpt lat="42.1977" lon="0.87219">
        <ele>666.2</ele>
        <time>2023-07-23T11:51:01Z</time>
      </trkpt>
      <trkpt lat="42.1977" lon="0.87216">
        <ele>666.2</ele>
        <time>2023-07-23T11:51:02Z</time>
      </trkpt>
      <trkpt lat="42.19771" lon="0.87213">
        <ele>666.4</ele>
        <time>2023-07-23T11:51:03Z</time>
      </trkpt>
      <trkpt lat="42.19771" lon="0.87209">
        <ele>666.6</ele>
        <time>2023-07-23T11:51:04Z</time>
      </trkpt>
      <trkpt lat="42.19771" lon="0.87205">
        <ele>666.8</ele>
        <time>2023-07-23T11:51:05Z</time>
      </trkpt>
      <trkpt lat="42.19772" lon="0.87201">
        <ele>667</ele>
        <time>2023-07-23T11:51:06Z</time>
      </trkpt>
      <trkpt lat="42.19772" lon="0.87198">
        <ele>667</ele>
        <time>2023-07-23T11:51:07Z</time>
      </trkpt>
      <trkpt lat="42.19772" lon="0.87194">
        <ele>667.2</ele>
        <time>2023-07-23T11:51:08Z</time>
      </trkpt>
      <trkpt lat="42.19772" lon="0.8719">
        <ele>667.6</ele>
        <time>2023-07-23T11:51:09Z</time>
      </trkpt>
      <trkpt lat="42.19772" lon="0.87187">
        <ele>667.6</ele>
        <time>2023-07-23T11:51:10Z</time>
      </trkpt>
      <trkpt lat="42.19773" lon="0.87182">
        <ele>667.8</ele>
        <time>2023-07-23T11:51:11Z</time>
      </trkpt>
      <trkpt lat="42.19773" lon="0.87178">
        <ele>667.8</ele>
        <time>2023-07-23T11:51:12Z</time>
      </trkpt>
      <trkpt lat="42.19773" lon="0.87175">
        <ele>667.8</ele>
        <time>2023-07-23T11:51:13Z</time>
      </trkpt>
      <trkpt lat="42.19774" lon="0.87171">
        <ele>668</ele>
        <time>2023-07-23T11:51:14Z</time>
      </trkpt>
      <trkpt lat="42.19774" lon="0.87167">
        <ele>668</ele>
        <time>2023-07-23T11:51:15Z</time>
      </trkpt>
      <trkpt lat="42.19774" lon="0.87163">
        <ele>668</ele>
        <time>2023-07-23T11:51:16Z</time>
      </trkpt>
      <trkpt lat="42.19775" lon="0.87159">
        <ele>668</ele>
        <time>2023-07-23T11:51:17Z</time>
      </trkpt>
      <trkpt lat="42.19775" lon="0.87156">
        <ele>668</ele>
        <time>2023-07-23T11:51:18Z</time>
      </trkpt>
      <trkpt lat="42.19776" lon="0.87153">
        <ele>668</ele>
        <time>2023-07-23T11:51:19Z</time>
      </trkpt>
      <trkpt lat="42.19776" lon="0.87149">
        <ele>668.4</ele>
        <time>2023-07-23T11:51:20Z</time>
      </trkpt>
      <trkpt lat="42.19777" lon="0.87145">
        <ele>668.6</ele>
        <time>2023-07-23T11:51:21Z</time>
      </trkpt>
      <trkpt lat="42.19778" lon="0.87141">
        <ele>668.8</ele>
        <time>2023-07-23T11:51:22Z</time>
      </trkpt>
      <trkpt lat="42.19779" lon="0.87138">
        <ele>668.8</ele>
        <time>2023-07-23T11:51:23Z</time>
      </trkpt>
      <trkpt lat="42.1978" lon="0.87134">
        <ele>668.8</ele>
        <time>2023-07-23T11:51:24Z</time>
      </trkpt>
      <trkpt lat="42.19781" lon="0.87131">
        <ele>669.2</ele>
        <time>2023-07-23T11:51:25Z</time>
      </trkpt>
      <trkpt lat="42.19783" lon="0.87128">
        <ele>669.6</ele>
        <time>2023-07-23T11:51:26Z</time>
      </trkpt>
      <trkpt lat="42.19785" lon="0.87126">
        <ele>669.6</ele>
        <time>2023-07-23T11:51:27Z</time>
      </trkpt>
      <trkpt lat="42.19787" lon="0.87124">
        <ele>670.4</ele>
        <time>2023-07-23T11:51:28Z</time>
      </trkpt>
      <trkpt lat="42.19789" lon="0.87121">
        <ele>670.6</ele>
        <time>2023-07-23T11:51:29Z</time>
      </trkpt>
      <trkpt lat="42.19791" lon="0.8712">
        <ele>671.4</ele>
        <time>2023-07-23T11:51:30Z</time>
      </trkpt>
      <trkpt lat="42.19793" lon="0.87119">
        <ele>672</ele>
        <time>2023-07-23T11:51:31Z</time>
      </trkpt>
      <trkpt lat="42.19796" lon="0.87118">
        <ele>672</ele>
        <time>2023-07-23T11:51:32Z</time>
      </trkpt>
      <trkpt lat="42.19798" lon="0.87118">
        <ele>673.4</ele>
        <time>2023-07-23T11:51:33Z</time>
      </trkpt>
      <trkpt lat="42.198" lon="0.87117">
        <ele>674</ele>
        <time>2023-07-23T11:51:34Z</time>
      </trkpt>
      <trkpt lat="42.19803" lon="0.87116">
        <ele>674.8</ele>
        <time>2023-07-23T11:51:35Z</time>
      </trkpt>
      <trkpt lat="42.19805" lon="0.87116">
        <ele>675.2</ele>
        <time>2023-07-23T11:51:36Z</time>
      </trkpt>
      <trkpt lat="42.19807" lon="0.87115">
        <ele>675.4</ele>
        <time>2023-07-23T11:51:37Z</time>
      </trkpt>
      <trkpt lat="42.19809" lon="0.87115">
        <ele>676</ele>
        <time>2023-07-23T11:51:38Z</time>
      </trkpt>
      <trkpt lat="42.19811" lon="0.87115">
        <ele>676.2</ele>
        <time>2023-07-23T11:51:39Z</time>
      </trkpt>
      <trkpt lat="42.19814" lon="0.87114">
        <ele>676.4</ele>
        <time>2023-07-23T11:51:40Z</time>
      </trkpt>
      <trkpt lat="42.19816" lon="0.87114">
        <ele>676.4</ele>
        <time>2023-07-23T11:51:41Z</time>
      </trkpt>
      <trkpt lat="42.19818" lon="0.87113">
        <ele>677</ele>
        <time>2023-07-23T11:51:42Z</time>
      </trkpt>
      <trkpt lat="42.1982" lon="0.87113">
        <ele>677.4</ele>
        <time>2023-07-23T11:51:43Z</time>
      </trkpt>
      <trkpt lat="42.19822" lon="0.87111">
        <ele>677.8</ele>
        <time>2023-07-23T11:51:44Z</time>
      </trkpt>
      <trkpt lat="42.19824" lon="0.87111">
        <ele>678.2</ele>
        <time>2023-07-23T11:51:45Z</time>
      </trkpt>
      <trkpt lat="42.19826" lon="0.8711">
        <ele>678.4</ele>
        <time>2023-07-23T11:51:46Z</time>
      </trkpt>
      <trkpt lat="42.19828" lon="0.87109">
        <ele>679</ele>
        <time>2023-07-23T11:51:47Z</time>
      </trkpt>
      <trkpt lat="42.1983" lon="0.87109">
        <ele>679.4</ele>
        <time>2023-07-23T11:51:48Z</time>
      </trkpt>
      <trkpt lat="42.19832" lon="0.87109">
        <ele>679.8</ele>
        <time>2023-07-23T11:51:49Z</time>
      </trkpt>
      <trkpt lat="42.19834" lon="0.87109">
        <ele>680.4</ele>
        <time>2023-07-23T11:51:50Z</time>
      </trkpt>
      <trkpt lat="42.19835" lon="0.87108">
        <ele>680.4</ele>
        <time>2023-07-23T11:51:51Z</time>
      </trkpt>
      <trkpt lat="42.19837" lon="0.87108">
        <ele>680.8</ele>
        <time>2023-07-23T11:51:52Z</time>
      </trkpt>
      <trkpt lat="42.19839" lon="0.87107">
        <ele>681.2</ele>
        <time>2023-07-23T11:51:53Z</time>
      </trkpt>
      <trkpt lat="42.19841" lon="0.87107">
        <ele>681.4</ele>
        <time>2023-07-23T11:51:54Z</time>
      </trkpt>
      <trkpt lat="42.19843" lon="0.87107">
        <ele>681.8</ele>
        <time>2023-07-23T11:51:55Z</time>
      </trkpt>
      <trkpt lat="42.19845" lon="0.87107">
        <ele>682</ele>
        <time>2023-07-23T11:51:56Z</time>
      </trkpt>
      <trkpt lat="42.19847" lon="0.87106">
        <ele>682.6</ele>
        <time>2023-07-23T11:51:57Z</time>
      </trkpt>
      <trkpt lat="42.19848" lon="0.87106">
        <ele>683.2</ele>
        <time>2023-07-23T11:51:58Z</time>
      </trkpt>
      <trkpt lat="42.19851" lon="0.87106">
        <ele>683.4</ele>
        <time>2023-07-23T11:51:59Z</time>
      </trkpt>
      <trkpt lat="42.19853" lon="0.87106">
        <ele>683.8</ele>
        <time>2023-07-23T11:52:00Z</time>
      </trkpt>
      <trkpt lat="42.19854" lon="0.87106">
        <ele>683.8</ele>
        <time>2023-07-23T11:52:01Z</time>
      </trkpt>
      <trkpt lat="42.19856" lon="0.87107">
        <ele>684.2</ele>
        <time>2023-07-23T11:52:02Z</time>
      </trkpt>
      <trkpt lat="42.19858" lon="0.87107">
        <ele>684.4</ele>
        <time>2023-07-23T11:52:03Z</time>
      </trkpt>
      <trkpt lat="42.1986" lon="0.87108">
        <ele>685</ele>
        <time>2023-07-23T11:52:04Z</time>
      </trkpt>
      <trkpt lat="42.19862" lon="0.87108">
        <ele>685.4</ele>
        <time>2023-07-23T11:52:05Z</time>
      </trkpt>
      <trkpt lat="42.19864" lon="0.87109">
        <ele>685.6</ele>
        <time>2023-07-23T11:52:06Z</time>
      </trkpt>
      <trkpt lat="42.19865" lon="0.8711">
        <ele>685.8</ele>
        <time>2023-07-23T11:52:07Z</time>
      </trkpt>
      <trkpt lat="42.19867" lon="0.87111">
        <ele>686.2</ele>
        <time>2023-07-23T11:52:08Z</time>
      </trkpt>
      <trkpt lat="42.19869" lon="0.87111">
        <ele>686.8</ele>
        <time>2023-07-23T11:52:09Z</time>
      </trkpt>
      <trkpt lat="42.19871" lon="0.87112">
        <ele>687</ele>
        <time>2023-07-23T11:52:10Z</time>
      </trkpt>
      <trkpt lat="42.19873" lon="0.87113">
        <ele>687.2</ele>
        <time>2023-07-23T11:52:11Z</time>
      </trkpt>
      <trkpt lat="42.19874" lon="0.87114">
        <ele>687.4</ele>
        <time>2023-07-23T11:52:12Z</time>
      </trkpt>
      <trkpt lat="42.19876" lon="0.87116">
        <ele>687.6</ele>
        <time>2023-07-23T11:52:13Z</time>
      </trkpt>
      <trkpt lat="42.19878" lon="0.87117">
        <ele>688</ele>
        <time>2023-07-23T11:52:14Z</time>
      </trkpt>
      <trkpt lat="42.1988" lon="0.87118">
        <ele>688.4</ele>
        <time>2023-07-23T11:52:15Z</time>
      </trkpt>
      <trkpt lat="42.19881" lon="0.87118">
        <ele>688.6</ele>
        <time>2023-07-23T11:52:16Z</time>
      </trkpt>
      <trkpt lat="42.19883" lon="0.87117">
        <ele>689</ele>
        <time>2023-07-23T11:52:17Z</time>
      </trkpt>
      <trkpt lat="42.19884" lon="0.87116">
        <ele>689</ele>
        <time>2023-07-23T11:52:18Z</time>
      </trkpt>
      <trkpt lat="42.19885" lon="0.87115">
        <ele>689.6</ele>
        <time>2023-07-23T11:52:19Z</time>
      </trkpt>
      <trkpt lat="42.19886" lon="0.87113">
        <ele>690.2</ele>
        <time>2023-07-23T11:52:20Z</time>
      </trkpt>
      <trkpt lat="42.19887" lon="0.87111">
        <ele>690.2</ele>
        <time>2023-07-23T11:52:21Z</time>
      </trkpt>
      <trkpt lat="42.19887" lon="0.8711">
        <ele>690.4</ele>
        <time>2023-07-23T11:52:22Z</time>
      </trkpt>
      <trkpt lat="42.19886" lon="0.87107">
        <ele>690.4</ele>
        <time>2023-07-23T11:52:23Z</time>
      </trkpt>
      <trkpt lat="42.19886" lon="0.87104">
        <ele>690.6</ele>
        <time>2023-07-23T11:52:24Z</time>
      </trkpt>
      <trkpt lat="42.19886" lon="0.87102">
        <ele>690.8</ele>
        <time>2023-07-23T11:52:25Z</time>
      </trkpt>
      <trkpt lat="42.19887" lon="0.87099">
        <ele>690.8</ele>
        <time>2023-07-23T11:52:26Z</time>
      </trkpt>
      <trkpt lat="42.19887" lon="0.87097">
        <ele>691</ele>
        <time>2023-07-23T11:52:27Z</time>
      </trkpt>
      <trkpt lat="42.19887" lon="0.87095">
        <ele>691</ele>
        <time>2023-07-23T11:52:28Z</time>
      </trkpt>
      <trkpt lat="42.19887" lon="0.87093">
        <ele>691</ele>
        <time>2023-07-23T11:52:29Z</time>
      </trkpt>
      <trkpt lat="42.19888" lon="0.8709">
        <ele>691</ele>
        <time>2023-07-23T11:52:30Z</time>
      </trkpt>
      <trkpt lat="42.19887" lon="0.87088">
        <ele>691</ele>
        <time>2023-07-23T11:52:31Z</time>
      </trkpt>
      <trkpt lat="42.19887" lon="0.87086">
        <ele>691</ele>
        <time>2023-07-23T11:52:32Z</time>
      </trkpt>
      <trkpt lat="42.19887" lon="0.87083">
        <ele>691</ele>
        <time>2023-07-23T11:52:33Z</time>
      </trkpt>
      <trkpt lat="42.19886" lon="0.87081">
        <ele>691</ele>
        <time>2023-07-23T11:52:34Z</time>
      </trkpt>
      <trkpt lat="42.19886" lon="0.87079">
        <ele>691.2</ele>
        <time>2023-07-23T11:52:35Z</time>
      </trkpt>
      <trkpt lat="42.19886" lon="0.87078">
        <ele>691.2</ele>
        <time>2023-07-23T11:52:36Z</time>
      </trkpt>
      <trkpt lat="42.19886" lon="0.87076">
        <ele>691.2</ele>
        <time>2023-07-23T11:52:37Z</time>
      </trkpt>
      <trkpt lat="42.19885" lon="0.87073">
        <ele>691.2</ele>
        <time>2023-07-23T11:52:38Z</time>
      </trkpt>
      <trkpt lat="42.19885" lon="0.87072">
        <ele>691.2</ele>
        <time>2023-07-23T11:52:39Z</time>
      </trkpt>
      <trkpt lat="42.19884" lon="0.87069">
        <ele>691</ele>
        <time>2023-07-23T11:52:40Z</time>
      </trkpt>
      <trkpt lat="42.19884" lon="0.87068">
        <ele>691</ele>
        <time>2023-07-23T11:52:41Z</time>
      </trkpt>
      <trkpt lat="42.19883" lon="0.87066">
        <ele>691</ele>
        <time>2023-07-23T11:52:42Z</time>
      </trkpt>
      <trkpt lat="42.19883" lon="0.87065">
        <ele>691</ele>
        <time>2023-07-23T11:52:43Z</time>
      </trkpt>
      <trkpt lat="42.19882" lon="0.87063">
        <ele>690.8</ele>
        <time>2023-07-23T11:52:44Z</time>
      </trkpt>
      <trkpt lat="42.19881" lon="0.87061">
        <ele>690.8</ele>
        <time>2023-07-23T11:52:45Z</time>
      </trkpt>
      <trkpt lat="42.19881" lon="0.8706">
        <ele>690.8</ele>
        <time>2023-07-23T11:52:46Z</time>
      </trkpt>
      <trkpt lat="42.1988" lon="0.87059">
        <ele>690.8</ele>
        <time>2023-07-23T11:52:47Z</time>
      </trkpt>
      <trkpt lat="42.1988" lon="0.87056">
        <ele>690.8</ele>
        <time>2023-07-23T11:52:48Z</time>
      </trkpt>
      <trkpt lat="42.19879" lon="0.87054">
        <ele>690.6</ele>
        <time>2023-07-23T11:52:49Z</time>
      </trkpt>
      <trkpt lat="42.19878" lon="0.87052">
        <ele>690.6</ele>
        <time>2023-07-23T11:52:50Z</time>
      </trkpt>
      <trkpt lat="42.19878" lon="0.87049">
        <ele>690.6</ele>
        <time>2023-07-23T11:52:51Z</time>
      </trkpt>
      <trkpt lat="42.19878" lon="0.87046">
        <ele>690.6</ele>
        <time>2023-07-23T11:52:52Z</time>
      </trkpt>
      <trkpt lat="42.19878" lon="0.87044">
        <ele>690.4</ele>
        <time>2023-07-23T11:52:53Z</time>
      </trkpt>
      <trkpt lat="42.19877" lon="0.8704">
        <ele>690.4</ele>
        <time>2023-07-23T11:52:54Z</time>
      </trkpt>
      <trkpt lat="42.19877" lon="0.87038">
        <ele>690.4</ele>
        <time>2023-07-23T11:52:55Z</time>
      </trkpt>
      <trkpt lat="42.19877" lon="0.87035">
        <ele>690.4</ele>
        <time>2023-07-23T11:52:56Z</time>
      </trkpt>
      <trkpt lat="42.19878" lon="0.87031">
        <ele>690.4</ele>
        <time>2023-07-23T11:52:57Z</time>
      </trkpt>
      <trkpt lat="42.19878" lon="0.87028">
        <ele>690.4</ele>
        <time>2023-07-23T11:52:58Z</time>
      </trkpt>
      <trkpt lat="42.19878" lon="0.87025">
        <ele>690.2</ele>
        <time>2023-07-23T11:52:59Z</time>
      </trkpt>
      <trkpt lat="42.19879" lon="0.87022">
        <ele>690</ele>
        <time>2023-07-23T11:53:00Z</time>
      </trkpt>
      <trkpt lat="42.19879" lon="0.87018">
        <ele>690</ele>
        <time>2023-07-23T11:53:01Z</time>
      </trkpt>
      <trkpt lat="42.19879" lon="0.87014">
        <ele>689.8</ele>
        <time>2023-07-23T11:53:02Z</time>
      </trkpt>
      <trkpt lat="42.19879" lon="0.87011">
        <ele>689.8</ele>
        <time>2023-07-23T11:53:03Z</time>
      </trkpt>
      <trkpt lat="42.1988" lon="0.87008">
        <ele>689.6</ele>
        <time>2023-07-23T11:53:04Z</time>
      </trkpt>
      <trkpt lat="42.1988" lon="0.87006">
        <ele>689.6</ele>
        <time>2023-07-23T11:53:05Z</time>
      </trkpt>
      <trkpt lat="42.19879" lon="0.87004">
        <ele>689.6</ele>
        <time>2023-07-23T11:53:06Z</time>
      </trkpt>
      <trkpt lat="42.19879" lon="0.87003">
        <ele>689.6</ele>
        <time>2023-07-23T11:53:07Z</time>
      </trkpt>
      <trkpt lat="42.19879" lon="0.87003">
        <ele>689.4</ele>
        <time>2023-07-23T11:53:08Z</time>
      </trkpt>
      <trkpt lat="42.19879" lon="0.87003">
        <ele>689.4</ele>
        <time>2023-07-23T11:53:09Z</time>
      </trkpt>
      <trkpt lat="42.19878" lon="0.86997">
        <ele>690.2</ele>
        <time>2023-07-23T11:54:07Z</time>
      </trkpt>
      <trkpt lat="42.19878" lon="0.86994">
        <ele>690.2</ele>
        <time>2023-07-23T11:54:08Z</time>
      </trkpt>
      <trkpt lat="42.19879" lon="0.8699">
        <ele>690.2</ele>
        <time>2023-07-23T11:54:09Z</time>
      </trkpt>
      <trkpt lat="42.1988" lon="0.86986">
        <ele>690</ele>
        <time>2023-07-23T11:54:10Z</time>
      </trkpt>
      <trkpt lat="42.19881" lon="0.86982">
        <ele>690</ele>
        <time>2023-07-23T11:54:11Z</time>
      </trkpt>
      <trkpt lat="42.19882" lon="0.86978">
        <ele>689.8</ele>
        <time>2023-07-23T11:54:12Z</time>
      </trkpt>
      <trkpt lat="42.19883" lon="0.86975">
        <ele>689.8</ele>
        <time>2023-07-23T11:54:13Z</time>
      </trkpt>
      <trkpt lat="42.19885" lon="0.86971">
        <ele>689.6</ele>
        <time>2023-07-23T11:54:14Z</time>
      </trkpt>
      <trkpt lat="42.19887" lon="0.86966">
        <ele>689.4</ele>
        <time>2023-07-23T11:54:15Z</time>
      </trkpt>
      <trkpt lat="42.19888" lon="0.86962">
        <ele>689.4</ele>
        <time>2023-07-23T11:54:16Z</time>
      </trkpt>
      <trkpt lat="42.19889" lon="0.86957">
        <ele>689.4</ele>
        <time>2023-07-23T11:54:17Z</time>
      </trkpt>
      <trkpt lat="42.1989" lon="0.86953">
        <ele>689.2</ele>
        <time>2023-07-23T11:54:18Z</time>
      </trkpt>
      <trkpt lat="42.19891" lon="0.86948">
        <ele>689.2</ele>
        <time>2023-07-23T11:54:19Z</time>
      </trkpt>
      <trkpt lat="42.19891" lon="0.86943">
        <ele>689</ele>
        <time>2023-07-23T11:54:20Z</time>
      </trkpt>
      <trkpt lat="42.19891" lon="0.86936">
        <ele>689.2</ele>
        <time>2023-07-23T11:54:21Z</time>
      </trkpt>
      <trkpt lat="42.19892" lon="0.8693">
        <ele>689.2</ele>
        <time>2023-07-23T11:54:22Z</time>
      </trkpt>
      <trkpt lat="42.19892" lon="0.86926">
        <ele>689.2</ele>
        <time>2023-07-23T11:54:23Z</time>
      </trkpt>
      <trkpt lat="42.19892" lon="0.86919">
        <ele>689</ele>
        <time>2023-07-23T11:54:24Z</time>
      </trkpt>
      <trkpt lat="42.19893" lon="0.86913">
        <ele>689</ele>
        <time>2023-07-23T11:54:25Z</time>
      </trkpt>
      <trkpt lat="42.19893" lon="0.86908">
        <ele>689</ele>
        <time>2023-07-23T11:54:26Z</time>
      </trkpt>
      <trkpt lat="42.19892" lon="0.86903">
        <ele>689.2</ele>
        <time>2023-07-23T11:54:27Z</time>
      </trkpt>
      <trkpt lat="42.19891" lon="0.869">
        <ele>689.2</ele>
        <time>2023-07-23T11:54:28Z</time>
      </trkpt>
      <trkpt lat="42.19889" lon="0.86895">
        <ele>689.2</ele>
        <time>2023-07-23T11:54:29Z</time>
      </trkpt>
      <trkpt lat="42.19888" lon="0.86891">
        <ele>689.2</ele>
        <time>2023-07-23T11:54:30Z</time>
      </trkpt>
      <trkpt lat="42.19885" lon="0.86887">
        <ele>689.2</ele>
        <time>2023-07-23T11:54:31Z</time>
      </trkpt>
      <trkpt lat="42.19883" lon="0.86882">
        <ele>689</ele>
        <time>2023-07-23T11:54:32Z</time>
      </trkpt>
      <trkpt lat="42.1988" lon="0.86877">
        <ele>689</ele>
        <time>2023-07-23T11:54:33Z</time>
      </trkpt>
      <trkpt lat="42.19877" lon="0.8687">
        <ele>689</ele>
        <time>2023-07-23T11:54:34Z</time>
      </trkpt>
      <trkpt lat="42.19875" lon="0.86864">
        <ele>689</ele>
        <time>2023-07-23T11:54:35Z</time>
      </trkpt>
      <trkpt lat="42.19874" lon="0.86859">
        <ele>689</ele>
        <time>2023-07-23T11:54:36Z</time>
      </trkpt>
      <trkpt lat="42.19872" lon="0.86852">
        <ele>688.6</ele>
        <time>2023-07-23T11:54:37Z</time>
      </trkpt>
      <trkpt lat="42.1987" lon="0.86843">
        <ele>688.6</ele>
        <time>2023-07-23T11:54:38Z</time>
      </trkpt>
      <trkpt lat="42.19869" lon="0.86836">
        <ele>688.2</ele>
        <time>2023-07-23T11:54:39Z</time>
      </trkpt>
      <trkpt lat="42.19868" lon="0.86829">
        <ele>687.8</ele>
        <time>2023-07-23T11:54:40Z</time>
      </trkpt>
      <trkpt lat="42.19868" lon="0.86823">
        <ele>687.6</ele>
        <time>2023-07-23T11:54:41Z</time>
      </trkpt>
      <trkpt lat="42.19868" lon="0.86815">
        <ele>687</ele>
        <time>2023-07-23T11:54:42Z</time>
      </trkpt>
      <trkpt lat="42.1987" lon="0.86807">
        <ele>686.8</ele>
        <time>2023-07-23T11:54:43Z</time>
      </trkpt>
      <trkpt lat="42.19871" lon="0.86798">
        <ele>686.6</ele>
        <time>2023-07-23T11:54:44Z</time>
      </trkpt>
      <trkpt lat="42.19871" lon="0.8679">
        <ele>686</ele>
        <time>2023-07-23T11:54:45Z</time>
      </trkpt>
      <trkpt lat="42.1987" lon="0.86782">
        <ele>685.4</ele>
        <time>2023-07-23T11:54:46Z</time>
      </trkpt>
      <trkpt lat="42.19869" lon="0.86774">
        <ele>684.2</ele>
        <time>2023-07-23T11:54:47Z</time>
      </trkpt>
      <trkpt lat="42.19868" lon="0.86765">
        <ele>683.6</ele>
        <time>2023-07-23T11:54:48Z</time>
      </trkpt>
      <trkpt lat="42.19868" lon="0.86758">
        <ele>682.8</ele>
        <time>2023-07-23T11:54:49Z</time>
      </trkpt>
      <trkpt lat="42.19868" lon="0.8675">
        <ele>682.6</ele>
        <time>2023-07-23T11:54:50Z</time>
      </trkpt>
      <trkpt lat="42.19869" lon="0.86743">
        <ele>682.4</ele>
        <time>2023-07-23T11:54:51Z</time>
      </trkpt>
      <trkpt lat="42.1987" lon="0.86736">
        <ele>682</ele>
        <time>2023-07-23T11:54:52Z</time>
      </trkpt>
      <trkpt lat="42.19872" lon="0.86727">
        <ele>682</ele>
        <time>2023-07-23T11:54:53Z</time>
      </trkpt>
      <trkpt lat="42.19872" lon="0.86718">
        <ele>681.6</ele>
        <time>2023-07-23T11:54:54Z</time>
      </trkpt>
      <trkpt lat="42.19871" lon="0.8671">
        <ele>681.6</ele>
        <time>2023-07-23T11:54:55Z</time>
      </trkpt>
      <trkpt lat="42.19869" lon="0.86703">
        <ele>681.4</ele>
        <time>2023-07-23T11:54:56Z</time>
      </trkpt>
      <trkpt lat="42.19866" lon="0.86693">
        <ele>681</ele>
        <time>2023-07-23T11:54:57Z</time>
      </trkpt>
      <trkpt lat="42.19865" lon="0.86686">
        <ele>680.8</ele>
        <time>2023-07-23T11:54:58Z</time>
      </trkpt>
      <trkpt lat="42.19865" lon="0.8668">
        <ele>680.4</ele>
        <time>2023-07-23T11:54:59Z</time>
      </trkpt>
      <trkpt lat="42.19867" lon="0.86676">
        <ele>680.4</ele>
        <time>2023-07-23T11:55:00Z</time>
      </trkpt>
      <trkpt lat="42.19869" lon="0.86674">
        <ele>680.2</ele>
        <time>2023-07-23T11:55:01Z</time>
      </trkpt>
      <trkpt lat="42.19873" lon="0.86672">
        <ele>680.2</ele>
        <time>2023-07-23T11:55:02Z</time>
      </trkpt>
      <trkpt lat="42.19876" lon="0.86672">
        <ele>680.2</ele>
        <time>2023-07-23T11:55:03Z</time>
      </trkpt>
      <trkpt lat="42.19879" lon="0.86672">
        <ele>680.2</ele>
        <time>2023-07-23T11:55:04Z</time>
      </trkpt>
      <trkpt lat="42.19881" lon="0.86673">
        <ele>680.2</ele>
        <time>2023-07-23T11:55:05Z</time>
      </trkpt>
      <trkpt lat="42.19884" lon="0.86673">
        <ele>680.2</ele>
        <time>2023-07-23T11:55:06Z</time>
      </trkpt>
      <trkpt lat="42.19887" lon="0.86674">
        <ele>680.2</ele>
        <time>2023-07-23T11:55:07Z</time>
      </trkpt>
      <trkpt lat="42.1989" lon="0.86675">
        <ele>680.2</ele>
        <time>2023-07-23T11:55:08Z</time>
      </trkpt>
      <trkpt lat="42.19893" lon="0.86676">
        <ele>680.4</ele>
        <time>2023-07-23T11:55:09Z</time>
      </trkpt>
      <trkpt lat="42.19895" lon="0.86677">
        <ele>680.4</ele>
        <time>2023-07-23T11:55:10Z</time>
      </trkpt>
      <trkpt lat="42.19898" lon="0.86678">
        <ele>680.6</ele>
        <time>2023-07-23T11:55:11Z</time>
      </trkpt>
      <trkpt lat="42.19901" lon="0.86678">
        <ele>681</ele>
        <time>2023-07-23T11:55:12Z</time>
      </trkpt>
      <trkpt lat="42.19904" lon="0.86679">
        <ele>681</ele>
        <time>2023-07-23T11:55:13Z</time>
      </trkpt>
      <trkpt lat="42.19905" lon="0.86679">
        <ele>681.2</ele>
        <time>2023-07-23T11:55:14Z</time>
      </trkpt>
      <trkpt lat="42.19907" lon="0.8668">
        <ele>681.4</ele>
        <time>2023-07-23T11:55:15Z</time>
      </trkpt>
      <trkpt lat="42.19909" lon="0.86679">
        <ele>681.6</ele>
        <time>2023-07-23T11:55:16Z</time>
      </trkpt>
      <trkpt lat="42.1991" lon="0.86677">
        <ele>681.8</ele>
        <time>2023-07-23T11:55:17Z</time>
      </trkpt>
      <trkpt lat="42.1991" lon="0.86674">
        <ele>682</ele>
        <time>2023-07-23T11:55:18Z</time>
      </trkpt>
      <trkpt lat="42.19911" lon="0.86672">
        <ele>682.2</ele>
        <time>2023-07-23T11:55:19Z</time>
      </trkpt>
      <trkpt lat="42.19911" lon="0.86669">
        <ele>682.4</ele>
        <time>2023-07-23T11:55:20Z</time>
      </trkpt>
      <trkpt lat="42.19911" lon="0.86666">
        <ele>682.6</ele>
        <time>2023-07-23T11:55:21Z</time>
      </trkpt>
      <trkpt lat="42.19912" lon="0.86663">
        <ele>682.6</ele>
        <time>2023-07-23T11:55:22Z</time>
      </trkpt>
      <trkpt lat="42.19913" lon="0.86661">
        <ele>682.8</ele>
        <time>2023-07-23T11:55:23Z</time>
      </trkpt>
      <trkpt lat="42.19914" lon="0.86657">
        <ele>682.8</ele>
        <time>2023-07-23T11:55:24Z</time>
      </trkpt>
      <trkpt lat="42.19915" lon="0.86655">
        <ele>683</ele>
        <time>2023-07-23T11:55:25Z</time>
      </trkpt>
      <trkpt lat="42.19915" lon="0.86653">
        <ele>683</ele>
        <time>2023-07-23T11:55:26Z</time>
      </trkpt>
      <trkpt lat="42.19916" lon="0.86652">
        <ele>683</ele>
        <time>2023-07-23T11:55:27Z</time>
      </trkpt>
      <trkpt lat="42.19917" lon="0.86651">
        <ele>683</ele>
        <time>2023-07-23T11:55:28Z</time>
      </trkpt>
      <trkpt lat="42.19919" lon="0.8665">
        <ele>683</ele>
        <time>2023-07-23T11:55:29Z</time>
      </trkpt>
      <trkpt lat="42.19921" lon="0.8665">
        <ele>683</ele>
        <time>2023-07-23T11:55:30Z</time>
      </trkpt>
      <trkpt lat="42.19923" lon="0.86651">
        <ele>683</ele>
        <time>2023-07-23T11:55:31Z</time>
      </trkpt>
      <trkpt lat="42.19925" lon="0.8665">
        <ele>683</ele>
        <time>2023-07-23T11:55:32Z</time>
      </trkpt>
      <trkpt lat="42.19927" lon="0.86649">
        <ele>683</ele>
        <time>2023-07-23T11:55:33Z</time>
      </trkpt>
      <trkpt lat="42.1993" lon="0.86648">
        <ele>683</ele>
        <time>2023-07-23T11:55:34Z</time>
      </trkpt>
      <trkpt lat="42.19932" lon="0.86647">
        <ele>683</ele>
        <time>2023-07-23T11:55:35Z</time>
      </trkpt>
      <trkpt lat="42.19934" lon="0.86646">
        <ele>683.2</ele>
        <time>2023-07-23T11:55:36Z</time>
      </trkpt>
      <trkpt lat="42.19936" lon="0.86644">
        <ele>683.2</ele>
        <time>2023-07-23T11:55:37Z</time>
      </trkpt>
      <trkpt lat="42.19937" lon="0.86643">
        <ele>683.6</ele>
        <time>2023-07-23T11:55:38Z</time>
      </trkpt>
      <trkpt lat="42.19939" lon="0.86641">
        <ele>684</ele>
        <time>2023-07-23T11:55:39Z</time>
      </trkpt>
      <trkpt lat="42.19941" lon="0.8664">
        <ele>684.4</ele>
        <time>2023-07-23T11:55:40Z</time>
      </trkpt>
      <trkpt lat="42.19942" lon="0.86639">
        <ele>684.8</ele>
        <time>2023-07-23T11:55:41Z</time>
      </trkpt>
      <trkpt lat="42.19944" lon="0.86638">
        <ele>684.8</ele>
        <time>2023-07-23T11:55:42Z</time>
      </trkpt>
      <trkpt lat="42.19945" lon="0.86637">
        <ele>685.2</ele>
        <time>2023-07-23T11:55:43Z</time>
      </trkpt>
      <trkpt lat="42.19947" lon="0.86636">
        <ele>685.8</ele>
        <time>2023-07-23T11:55:44Z</time>
      </trkpt>
      <trkpt lat="42.19949" lon="0.86635">
        <ele>686</ele>
        <time>2023-07-23T11:55:45Z</time>
      </trkpt>
      <trkpt lat="42.19951" lon="0.86635">
        <ele>686.6</ele>
        <time>2023-07-23T11:55:46Z</time>
      </trkpt>
      <trkpt lat="42.19952" lon="0.86635">
        <ele>686.8</ele>
        <time>2023-07-23T11:55:47Z</time>
      </trkpt>
      <trkpt lat="42.19955" lon="0.86635">
        <ele>687.6</ele>
        <time>2023-07-23T11:55:48Z</time>
      </trkpt>
      <trkpt lat="42.19957" lon="0.86635">
        <ele>688</ele>
        <time>2023-07-23T11:55:49Z</time>
      </trkpt>
      <trkpt lat="42.19959" lon="0.86634">
        <ele>688.2</ele>
        <time>2023-07-23T11:55:50Z</time>
      </trkpt>
      <trkpt lat="42.1996" lon="0.86634">
        <ele>688.6</ele>
        <time>2023-07-23T11:55:51Z</time>
      </trkpt>
      <trkpt lat="42.19962" lon="0.86633">
        <ele>688.8</ele>
        <time>2023-07-23T11:55:52Z</time>
      </trkpt>
      <trkpt lat="42.19964" lon="0.86632">
        <ele>689.4</ele>
        <time>2023-07-23T11:55:53Z</time>
      </trkpt>
      <trkpt lat="42.19966" lon="0.86632">
        <ele>689.8</ele>
        <time>2023-07-23T11:55:54Z</time>
      </trkpt>
      <trkpt lat="42.19968" lon="0.86631">
        <ele>690.2</ele>
        <time>2023-07-23T11:55:55Z</time>
      </trkpt>
      <trkpt lat="42.1997" lon="0.86631">
        <ele>690.8</ele>
        <time>2023-07-23T11:55:56Z</time>
      </trkpt>
      <trkpt lat="42.19972" lon="0.8663">
        <ele>691</ele>
        <time>2023-07-23T11:55:57Z</time>
      </trkpt>
      <trkpt lat="42.19974" lon="0.86629">
        <ele>691.8</ele>
        <time>2023-07-23T11:55:58Z</time>
      </trkpt>
      <trkpt lat="42.19976" lon="0.86628">
        <ele>692.4</ele>
        <time>2023-07-23T11:55:59Z</time>
      </trkpt>
      <trkpt lat="42.19978" lon="0.86628">
        <ele>692.4</ele>
        <time>2023-07-23T11:56:00Z</time>
      </trkpt>
      <trkpt lat="42.1998" lon="0.86627">
        <ele>692.6</ele>
        <time>2023-07-23T11:56:01Z</time>
      </trkpt>
      <trkpt lat="42.19982" lon="0.86626">
        <ele>692.8</ele>
        <time>2023-07-23T11:56:02Z</time>
      </trkpt>
      <trkpt lat="42.19984" lon="0.86626">
        <ele>693</ele>
        <time>2023-07-23T11:56:03Z</time>
      </trkpt>
      <trkpt lat="42.19987" lon="0.86626">
        <ele>693.2</ele>
        <time>2023-07-23T11:56:04Z</time>
      </trkpt>
      <trkpt lat="42.19988" lon="0.86626">
        <ele>693.2</ele>
        <time>2023-07-23T11:56:05Z</time>
      </trkpt>
      <trkpt lat="42.1999" lon="0.86626">
        <ele>693.4</ele>
        <time>2023-07-23T11:56:06Z</time>
      </trkpt>
      <trkpt lat="42.19993" lon="0.86626">
        <ele>693.4</ele>
        <time>2023-07-23T11:56:07Z</time>
      </trkpt>
      <trkpt lat="42.19994" lon="0.86626">
        <ele>693.6</ele>
        <time>2023-07-23T11:56:08Z</time>
      </trkpt>
      <trkpt lat="42.19996" lon="0.86626">
        <ele>693.6</ele>
        <time>2023-07-23T11:56:09Z</time>
      </trkpt>
      <trkpt lat="42.19997" lon="0.86626">
        <ele>693.8</ele>
        <time>2023-07-23T11:56:10Z</time>
      </trkpt>
      <trkpt lat="42.19998" lon="0.86626">
        <ele>693.8</ele>
        <time>2023-07-23T11:56:11Z</time>
      </trkpt>
      <trkpt lat="42.19999" lon="0.86626">
        <ele>693.8</ele>
        <time>2023-07-23T11:56:12Z</time>
      </trkpt>
      <trkpt lat="42.2" lon="0.86626">
        <ele>694.2</ele>
        <time>2023-07-23T11:56:13Z</time>
      </trkpt>
      <trkpt lat="42.20002" lon="0.86626">
        <ele>694.4</ele>
        <time>2023-07-23T11:56:14Z</time>
      </trkpt>
      <trkpt lat="42.20003" lon="0.86626">
        <ele>694.6</ele>
        <time>2023-07-23T11:56:15Z</time>
      </trkpt>
      <trkpt lat="42.20004" lon="0.86627">
        <ele>695</ele>
        <time>2023-07-23T11:56:16Z</time>
      </trkpt>
      <trkpt lat="42.20006" lon="0.86627">
        <ele>695.2</ele>
        <time>2023-07-23T11:56:17Z</time>
      </trkpt>
      <trkpt lat="42.20007" lon="0.86627">
        <ele>695.4</ele>
        <time>2023-07-23T11:56:18Z</time>
      </trkpt>
      <trkpt lat="42.20009" lon="0.86628">
        <ele>695.8</ele>
        <time>2023-07-23T11:56:19Z</time>
      </trkpt>
      <trkpt lat="42.2001" lon="0.86628">
        <ele>696.2</ele>
        <time>2023-07-23T11:56:20Z</time>
      </trkpt>
      <trkpt lat="42.20012" lon="0.86628">
        <ele>696.6</ele>
        <time>2023-07-23T11:56:21Z</time>
      </trkpt>
      <trkpt lat="42.20014" lon="0.86629">
        <ele>696.8</ele>
        <time>2023-07-23T11:56:22Z</time>
      </trkpt>
      <trkpt lat="42.20015" lon="0.86629">
        <ele>697</ele>
        <time>2023-07-23T11:56:23Z</time>
      </trkpt>
      <trkpt lat="42.20017" lon="0.86629">
        <ele>697.2</ele>
        <time>2023-07-23T11:56:24Z</time>
      </trkpt>
      <trkpt lat="42.20019" lon="0.86629">
        <ele>697.6</ele>
        <time>2023-07-23T11:56:25Z</time>
      </trkpt>
      <trkpt lat="42.20021" lon="0.86629">
        <ele>697.8</ele>
        <time>2023-07-23T11:56:26Z</time>
      </trkpt>
      <trkpt lat="42.20023" lon="0.86629">
        <ele>697.8</ele>
        <time>2023-07-23T11:56:27Z</time>
      </trkpt>
      <trkpt lat="42.20024" lon="0.86629">
        <ele>698.2</ele>
        <time>2023-07-23T11:56:28Z</time>
      </trkpt>
      <trkpt lat="42.20026" lon="0.86629">
        <ele>698.4</ele>
        <time>2023-07-23T11:56:29Z</time>
      </trkpt>
      <trkpt lat="42.20028" lon="0.8663">
        <ele>699</ele>
        <time>2023-07-23T11:56:30Z</time>
      </trkpt>
      <trkpt lat="42.2003" lon="0.8663">
        <ele>699.2</ele>
        <time>2023-07-23T11:56:31Z</time>
      </trkpt>
      <trkpt lat="42.20031" lon="0.8663">
        <ele>699.4</ele>
        <time>2023-07-23T11:56:32Z</time>
      </trkpt>
      <trkpt lat="42.20033" lon="0.8663">
        <ele>699.6</ele>
        <time>2023-07-23T11:56:33Z</time>
      </trkpt>
      <trkpt lat="42.20034" lon="0.8663">
        <ele>699.8</ele>
        <time>2023-07-23T11:56:34Z</time>
      </trkpt>
      <trkpt lat="42.20036" lon="0.86629">
        <ele>700.2</ele>
        <time>2023-07-23T11:56:35Z</time>
      </trkpt>
      <trkpt lat="42.20037" lon="0.86629">
        <ele>700.8</ele>
        <time>2023-07-23T11:56:36Z</time>
      </trkpt>
      <trkpt lat="42.20038" lon="0.86629">
        <ele>701</ele>
        <time>2023-07-23T11:56:37Z</time>
      </trkpt>
      <trkpt lat="42.2004" lon="0.8663">
        <ele>701.4</ele>
        <time>2023-07-23T11:56:38Z</time>
      </trkpt>
      <trkpt lat="42.20042" lon="0.8663">
        <ele>701.6</ele>
        <time>2023-07-23T11:56:39Z</time>
      </trkpt>
      <trkpt lat="42.20044" lon="0.8663">
        <ele>701.6</ele>
        <time>2023-07-23T11:56:40Z</time>
      </trkpt>
      <trkpt lat="42.20046" lon="0.86631">
        <ele>701.8</ele>
        <time>2023-07-23T11:56:41Z</time>
      </trkpt>
      <trkpt lat="42.20047" lon="0.86631">
        <ele>702</ele>
        <time>2023-07-23T11:56:42Z</time>
      </trkpt>
      <trkpt lat="42.20049" lon="0.86631">
        <ele>702.2</ele>
        <time>2023-07-23T11:56:43Z</time>
      </trkpt>
      <trkpt lat="42.20051" lon="0.86631">
        <ele>702.4</ele>
        <time>2023-07-23T11:56:44Z</time>
      </trkpt>
      <trkpt lat="42.20052" lon="0.86631">
        <ele>702.6</ele>
        <time>2023-07-23T11:56:45Z</time>
      </trkpt>
      <trkpt lat="42.20054" lon="0.86631">
        <ele>702.6</ele>
        <time>2023-07-23T11:56:46Z</time>
      </trkpt>
      <trkpt lat="42.20056" lon="0.86631">
        <ele>702.8</ele>
        <time>2023-07-23T11:56:47Z</time>
      </trkpt>
      <trkpt lat="42.20057" lon="0.86631">
        <ele>703.2</ele>
        <time>2023-07-23T11:56:48Z</time>
      </trkpt>
      <trkpt lat="42.20059" lon="0.86631">
        <ele>703.2</ele>
        <time>2023-07-23T11:56:49Z</time>
      </trkpt>
      <trkpt lat="42.20061" lon="0.8663">
        <ele>703.6</ele>
        <time>2023-07-23T11:56:50Z</time>
      </trkpt>
      <trkpt lat="42.20063" lon="0.8663">
        <ele>703.8</ele>
        <time>2023-07-23T11:56:51Z</time>
      </trkpt>
      <trkpt lat="42.20064" lon="0.8663">
        <ele>704</ele>
        <time>2023-07-23T11:56:52Z</time>
      </trkpt>
      <trkpt lat="42.20066" lon="0.8663">
        <ele>704.4</ele>
        <time>2023-07-23T11:56:53Z</time>
      </trkpt>
      <trkpt lat="42.20068" lon="0.8663">
        <ele>704.6</ele>
        <time>2023-07-23T11:56:54Z</time>
      </trkpt>
      <trkpt lat="42.20069" lon="0.86629">
        <ele>705.2</ele>
        <time>2023-07-23T11:56:55Z</time>
      </trkpt>
      <trkpt lat="42.20071" lon="0.86629">
        <ele>705.6</ele>
        <time>2023-07-23T11:56:56Z</time>
      </trkpt>
      <trkpt lat="42.20073" lon="0.86629">
        <ele>706.2</ele>
        <time>2023-07-23T11:56:57Z</time>
      </trkpt>
      <trkpt lat="42.20075" lon="0.86629">
        <ele>706.4</ele>
        <time>2023-07-23T11:56:58Z</time>
      </trkpt>
      <trkpt lat="42.20077" lon="0.86628">
        <ele>706.6</ele>
        <time>2023-07-23T11:56:59Z</time>
      </trkpt>
      <trkpt lat="42.20079" lon="0.86628">
        <ele>707</ele>
        <time>2023-07-23T11:57:00Z</time>
      </trkpt>
      <trkpt lat="42.20081" lon="0.86628">
        <ele>707.2</ele>
        <time>2023-07-23T11:57:01Z</time>
      </trkpt>
      <trkpt lat="42.20083" lon="0.86627">
        <ele>707.4</ele>
        <time>2023-07-23T11:57:02Z</time>
      </trkpt>
      <trkpt lat="42.20085" lon="0.86627">
        <ele>707.8</ele>
        <time>2023-07-23T11:57:03Z</time>
      </trkpt>
      <trkpt lat="42.20087" lon="0.86628">
        <ele>707.8</ele>
        <time>2023-07-23T11:57:04Z</time>
      </trkpt>
      <trkpt lat="42.20088" lon="0.86628">
        <ele>708.2</ele>
        <time>2023-07-23T11:57:05Z</time>
      </trkpt>
      <trkpt lat="42.2009" lon="0.86628">
        <ele>708.2</ele>
        <time>2023-07-23T11:57:06Z</time>
      </trkpt>
      <trkpt lat="42.20091" lon="0.86629">
        <ele>708.4</ele>
        <time>2023-07-23T11:57:07Z</time>
      </trkpt>
      <trkpt lat="42.20093" lon="0.8663">
        <ele>708.6</ele>
        <time>2023-07-23T11:57:08Z</time>
      </trkpt>
      <trkpt lat="42.20095" lon="0.86631">
        <ele>708.8</ele>
        <time>2023-07-23T11:57:09Z</time>
      </trkpt>
      <trkpt lat="42.20097" lon="0.86633">
        <ele>709.2</ele>
        <time>2023-07-23T11:57:10Z</time>
      </trkpt>
      <trkpt lat="42.20098" lon="0.86634">
        <ele>709.2</ele>
        <time>2023-07-23T11:57:11Z</time>
      </trkpt>
      <trkpt lat="42.201" lon="0.86635">
        <ele>709.4</ele>
        <time>2023-07-23T11:57:12Z</time>
      </trkpt>
      <trkpt lat="42.20102" lon="0.86637">
        <ele>709.4</ele>
        <time>2023-07-23T11:57:13Z</time>
      </trkpt>
      <trkpt lat="42.20103" lon="0.86638">
        <ele>709.6</ele>
        <time>2023-07-23T11:57:14Z</time>
      </trkpt>
      <trkpt lat="42.20104" lon="0.8664">
        <ele>710</ele>
        <time>2023-07-23T11:57:15Z</time>
      </trkpt>
      <trkpt lat="42.20106" lon="0.86641">
        <ele>710.2</ele>
        <time>2023-07-23T11:57:16Z</time>
      </trkpt>
      <trkpt lat="42.20107" lon="0.86643">
        <ele>710.6</ele>
        <time>2023-07-23T11:57:17Z</time>
      </trkpt>
      <trkpt lat="42.20108" lon="0.86644">
        <ele>710.8</ele>
        <time>2023-07-23T11:57:18Z</time>
      </trkpt>
      <trkpt lat="42.2011" lon="0.86646">
        <ele>711.4</ele>
        <time>2023-07-23T11:57:19Z</time>
      </trkpt>
      <trkpt lat="42.20111" lon="0.86647">
        <ele>711.6</ele>
        <time>2023-07-23T11:57:20Z</time>
      </trkpt>
      <trkpt lat="42.20112" lon="0.86648">
        <ele>711.8</ele>
        <time>2023-07-23T11:57:21Z</time>
      </trkpt>
      <trkpt lat="42.20114" lon="0.8665">
        <ele>712</ele>
        <time>2023-07-23T11:57:22Z</time>
      </trkpt>
      <trkpt lat="42.20115" lon="0.86652">
        <ele>712.2</ele>
        <time>2023-07-23T11:57:23Z</time>
      </trkpt>
      <trkpt lat="42.20116" lon="0.86653">
        <ele>712.4</ele>
        <time>2023-07-23T11:57:24Z</time>
      </trkpt>
      <trkpt lat="42.20117" lon="0.86655">
        <ele>712.4</ele>
        <time>2023-07-23T11:57:25Z</time>
      </trkpt>
      <trkpt lat="42.20119" lon="0.86657">
        <ele>712.6</ele>
        <time>2023-07-23T11:57:26Z</time>
      </trkpt>
      <trkpt lat="42.20121" lon="0.86658">
        <ele>713</ele>
        <time>2023-07-23T11:57:27Z</time>
      </trkpt>
      <trkpt lat="42.20122" lon="0.8666">
        <ele>713.4</ele>
        <time>2023-07-23T11:57:28Z</time>
      </trkpt>
      <trkpt lat="42.20124" lon="0.86661">
        <ele>714</ele>
        <time>2023-07-23T11:57:29Z</time>
      </trkpt>
      <trkpt lat="42.20125" lon="0.86662">
        <ele>714.2</ele>
        <time>2023-07-23T11:57:30Z</time>
      </trkpt>
      <trkpt lat="42.20127" lon="0.86664">
        <ele>714.6</ele>
        <time>2023-07-23T11:57:31Z</time>
      </trkpt>
      <trkpt lat="42.20128" lon="0.86664">
        <ele>714.8</ele>
        <time>2023-07-23T11:57:32Z</time>
      </trkpt>
      <trkpt lat="42.2013" lon="0.86665">
        <ele>715</ele>
        <time>2023-07-23T11:57:33Z</time>
      </trkpt>
      <trkpt lat="42.20132" lon="0.86666">
        <ele>715.6</ele>
        <time>2023-07-23T11:57:34Z</time>
      </trkpt>
      <trkpt lat="42.20133" lon="0.86666">
        <ele>716</ele>
        <time>2023-07-23T11:57:35Z</time>
      </trkpt>
      <trkpt lat="42.20135" lon="0.86667">
        <ele>716.2</ele>
        <time>2023-07-23T11:57:36Z</time>
      </trkpt>
      <trkpt lat="42.20137" lon="0.86667">
        <ele>716.8</ele>
        <time>2023-07-23T11:57:37Z</time>
      </trkpt>
      <trkpt lat="42.20138" lon="0.86667">
        <ele>716.8</ele>
        <time>2023-07-23T11:57:38Z</time>
      </trkpt>
      <trkpt lat="42.2014" lon="0.86666">
        <ele>717.2</ele>
        <time>2023-07-23T11:57:39Z</time>
      </trkpt>
      <trkpt lat="42.20141" lon="0.86666">
        <ele>717.6</ele>
        <time>2023-07-23T11:57:40Z</time>
      </trkpt>
      <trkpt lat="42.20143" lon="0.86666">
        <ele>717.8</ele>
        <time>2023-07-23T11:57:41Z</time>
      </trkpt>
      <trkpt lat="42.20145" lon="0.86665">
        <ele>718.2</ele>
        <time>2023-07-23T11:57:42Z</time>
      </trkpt>
      <trkpt lat="42.20146" lon="0.86665">
        <ele>718.4</ele>
        <time>2023-07-23T11:57:43Z</time>
      </trkpt>
      <trkpt lat="42.20148" lon="0.86664">
        <ele>718.8</ele>
        <time>2023-07-23T11:57:44Z</time>
      </trkpt>
      <trkpt lat="42.20149" lon="0.86663">
        <ele>719.2</ele>
        <time>2023-07-23T11:57:45Z</time>
      </trkpt>
      <trkpt lat="42.20151" lon="0.86663">
        <ele>719.4</ele>
        <time>2023-07-23T11:57:46Z</time>
      </trkpt>
      <trkpt lat="42.20152" lon="0.86662">
        <ele>719.6</ele>
        <time>2023-07-23T11:57:47Z</time>
      </trkpt>
      <trkpt lat="42.20154" lon="0.86661">
        <ele>719.8</ele>
        <time>2023-07-23T11:57:48Z</time>
      </trkpt>
      <trkpt lat="42.20155" lon="0.8666">
        <ele>719.8</ele>
        <time>2023-07-23T11:57:49Z</time>
      </trkpt>
      <trkpt lat="42.20157" lon="0.8666">
        <ele>720</ele>
        <time>2023-07-23T11:57:50Z</time>
      </trkpt>
      <trkpt lat="42.20158" lon="0.86659">
        <ele>720.2</ele>
        <time>2023-07-23T11:57:51Z</time>
      </trkpt>
      <trkpt lat="42.2016" lon="0.86658">
        <ele>720.8</ele>
        <time>2023-07-23T11:57:52Z</time>
      </trkpt>
      <trkpt lat="42.20162" lon="0.86657">
        <ele>721</ele>
        <time>2023-07-23T11:57:53Z</time>
      </trkpt>
      <trkpt lat="42.20163" lon="0.86657">
        <ele>721.4</ele>
        <time>2023-07-23T11:57:54Z</time>
      </trkpt>
      <trkpt lat="42.20165" lon="0.86656">
        <ele>721.4</ele>
        <time>2023-07-23T11:57:55Z</time>
      </trkpt>
      <trkpt lat="42.20167" lon="0.86655">
        <ele>721.6</ele>
        <time>2023-07-23T11:57:56Z</time>
      </trkpt>
      <trkpt lat="42.20169" lon="0.86655">
        <ele>721.8</ele>
        <time>2023-07-23T11:57:57Z</time>
      </trkpt>
      <trkpt lat="42.20171" lon="0.86655">
        <ele>722</ele>
        <time>2023-07-23T11:57:58Z</time>
      </trkpt>
      <trkpt lat="42.20173" lon="0.86655">
        <ele>722.2</ele>
        <time>2023-07-23T11:57:59Z</time>
      </trkpt>
      <trkpt lat="42.20174" lon="0.86654">
        <ele>722.2</ele>
        <time>2023-07-23T11:58:00Z</time>
      </trkpt>
      <trkpt lat="42.20176" lon="0.86654">
        <ele>722.4</ele>
        <time>2023-07-23T11:58:01Z</time>
      </trkpt>
      <trkpt lat="42.20178" lon="0.86653">
        <ele>722.4</ele>
        <time>2023-07-23T11:58:02Z</time>
      </trkpt>
      <trkpt lat="42.20179" lon="0.86653">
        <ele>722.6</ele>
        <time>2023-07-23T11:58:03Z</time>
      </trkpt>
      <trkpt lat="42.20182" lon="0.86653">
        <ele>722.8</ele>
        <time>2023-07-23T11:58:04Z</time>
      </trkpt>
      <trkpt lat="42.20184" lon="0.86652">
        <ele>722.8</ele>
        <time>2023-07-23T11:58:05Z</time>
      </trkpt>
      <trkpt lat="42.20185" lon="0.86651">
        <ele>723</ele>
        <time>2023-07-23T11:58:06Z</time>
      </trkpt>
      <trkpt lat="42.20187" lon="0.86651">
        <ele>723.4</ele>
        <time>2023-07-23T11:58:07Z</time>
      </trkpt>
      <trkpt lat="42.20189" lon="0.8665">
        <ele>723.6</ele>
        <time>2023-07-23T11:58:08Z</time>
      </trkpt>
      <trkpt lat="42.20191" lon="0.86649">
        <ele>723.8</ele>
        <time>2023-07-23T11:58:09Z</time>
      </trkpt>
      <trkpt lat="42.20193" lon="0.86648">
        <ele>723.8</ele>
        <time>2023-07-23T11:58:10Z</time>
      </trkpt>
      <trkpt lat="42.20195" lon="0.86647">
        <ele>724</ele>
        <time>2023-07-23T11:58:11Z</time>
      </trkpt>
      <trkpt lat="42.20197" lon="0.86646">
        <ele>724.2</ele>
        <time>2023-07-23T11:58:12Z</time>
      </trkpt>
      <trkpt lat="42.202" lon="0.86645">
        <ele>724.2</ele>
        <time>2023-07-23T11:58:13Z</time>
      </trkpt>
      <trkpt lat="42.20202" lon="0.86644">
        <ele>724.6</ele>
        <time>2023-07-23T11:58:14Z</time>
      </trkpt>
      <trkpt lat="42.20204" lon="0.86644">
        <ele>724.8</ele>
        <time>2023-07-23T11:58:15Z</time>
      </trkpt>
      <trkpt lat="42.20206" lon="0.86643">
        <ele>725.2</ele>
        <time>2023-07-23T11:58:16Z</time>
      </trkpt>
      <trkpt lat="42.20208" lon="0.86642">
        <ele>725.2</ele>
        <time>2023-07-23T11:58:17Z</time>
      </trkpt>
      <trkpt lat="42.2021" lon="0.8664">
        <ele>725.4</ele>
        <time>2023-07-23T11:58:18Z</time>
      </trkpt>
      <trkpt lat="42.20212" lon="0.86639">
        <ele>725.4</ele>
        <time>2023-07-23T11:58:19Z</time>
      </trkpt>
      <trkpt lat="42.20214" lon="0.86637">
        <ele>725.6</ele>
        <time>2023-07-23T11:58:20Z</time>
      </trkpt>
      <trkpt lat="42.20215" lon="0.86636">
        <ele>725.6</ele>
        <time>2023-07-23T11:58:21Z</time>
      </trkpt>
      <trkpt lat="42.20217" lon="0.86633">
        <ele>725.8</ele>
        <time>2023-07-23T11:58:22Z</time>
      </trkpt>
      <trkpt lat="42.20219" lon="0.86631">
        <ele>725.8</ele>
        <time>2023-07-23T11:58:23Z</time>
      </trkpt>
      <trkpt lat="42.20221" lon="0.86628">
        <ele>726</ele>
        <time>2023-07-23T11:58:24Z</time>
      </trkpt>
      <trkpt lat="42.20222" lon="0.86626">
        <ele>726</ele>
        <time>2023-07-23T11:58:25Z</time>
      </trkpt>
      <trkpt lat="42.20224" lon="0.86625">
        <ele>726.2</ele>
        <time>2023-07-23T11:58:26Z</time>
      </trkpt>
      <trkpt lat="42.20226" lon="0.86623">
        <ele>726.4</ele>
        <time>2023-07-23T11:58:27Z</time>
      </trkpt>
      <trkpt lat="42.20228" lon="0.86622">
        <ele>726.6</ele>
        <time>2023-07-23T11:58:28Z</time>
      </trkpt>
      <trkpt lat="42.2023" lon="0.86621">
        <ele>726.6</ele>
        <time>2023-07-23T11:58:29Z</time>
      </trkpt>
      <trkpt lat="42.20231" lon="0.86619">
        <ele>726.8</ele>
        <time>2023-07-23T11:58:30Z</time>
      </trkpt>
      <trkpt lat="42.20233" lon="0.86618">
        <ele>726.8</ele>
        <time>2023-07-23T11:58:31Z</time>
      </trkpt>
      <trkpt lat="42.20236" lon="0.86617">
        <ele>726.8</ele>
        <time>2023-07-23T11:58:32Z</time>
      </trkpt>
      <trkpt lat="42.20238" lon="0.86617">
        <ele>727</ele>
        <time>2023-07-23T11:58:33Z</time>
      </trkpt>
      <trkpt lat="42.2024" lon="0.86616">
        <ele>727.2</ele>
        <time>2023-07-23T11:58:34Z</time>
      </trkpt>
      <trkpt lat="42.20242" lon="0.86615">
        <ele>727.2</ele>
        <time>2023-07-23T11:58:35Z</time>
      </trkpt>
      <trkpt lat="42.20244" lon="0.86614">
        <ele>727.6</ele>
        <time>2023-07-23T11:58:36Z</time>
      </trkpt>
      <trkpt lat="42.20246" lon="0.86614">
        <ele>727.6</ele>
        <time>2023-07-23T11:58:37Z</time>
      </trkpt>
      <trkpt lat="42.20248" lon="0.86613">
        <ele>728</ele>
        <time>2023-07-23T11:58:38Z</time>
      </trkpt>
      <trkpt lat="42.20249" lon="0.86612">
        <ele>728.4</ele>
        <time>2023-07-23T11:58:39Z</time>
      </trkpt>
      <trkpt lat="42.20251" lon="0.86611">
        <ele>728.6</ele>
        <time>2023-07-23T11:58:40Z</time>
      </trkpt>
      <trkpt lat="42.20254" lon="0.8661">
        <ele>728.8</ele>
        <time>2023-07-23T11:58:41Z</time>
      </trkpt>
      <trkpt lat="42.20255" lon="0.86609">
        <ele>729</ele>
        <time>2023-07-23T11:58:42Z</time>
      </trkpt>
      <trkpt lat="42.20257" lon="0.86607">
        <ele>729.4</ele>
        <time>2023-07-23T11:58:43Z</time>
      </trkpt>
      <trkpt lat="42.20259" lon="0.86607">
        <ele>729.6</ele>
        <time>2023-07-23T11:58:44Z</time>
      </trkpt>
      <trkpt lat="42.20261" lon="0.86606">
        <ele>729.8</ele>
        <time>2023-07-23T11:58:45Z</time>
      </trkpt>
      <trkpt lat="42.20263" lon="0.86605">
        <ele>730</ele>
        <time>2023-07-23T11:58:46Z</time>
      </trkpt>
      <trkpt lat="42.20265" lon="0.86603">
        <ele>730.2</ele>
        <time>2023-07-23T11:58:47Z</time>
      </trkpt>
      <trkpt lat="42.20268" lon="0.86603">
        <ele>730.4</ele>
        <time>2023-07-23T11:58:48Z</time>
      </trkpt>
      <trkpt lat="42.20269" lon="0.86602">
        <ele>730.6</ele>
        <time>2023-07-23T11:58:49Z</time>
      </trkpt>
      <trkpt lat="42.20272" lon="0.86602">
        <ele>730.8</ele>
        <time>2023-07-23T11:58:50Z</time>
      </trkpt>
      <trkpt lat="42.20274" lon="0.86601">
        <ele>731</ele>
        <time>2023-07-23T11:58:51Z</time>
      </trkpt>
      <trkpt lat="42.20276" lon="0.866">
        <ele>731.2</ele>
        <time>2023-07-23T11:58:52Z</time>
      </trkpt>
      <trkpt lat="42.20278" lon="0.86599">
        <ele>731.4</ele>
        <time>2023-07-23T11:58:53Z</time>
      </trkpt>
      <trkpt lat="42.20279" lon="0.86598">
        <ele>731.8</ele>
        <time>2023-07-23T11:58:54Z</time>
      </trkpt>
      <trkpt lat="42.20282" lon="0.86597">
        <ele>732</ele>
        <time>2023-07-23T11:58:55Z</time>
      </trkpt>
      <trkpt lat="42.20283" lon="0.86597">
        <ele>732.6</ele>
        <time>2023-07-23T11:58:56Z</time>
      </trkpt>
      <trkpt lat="42.20285" lon="0.86595">
        <ele>732.8</ele>
        <time>2023-07-23T11:58:57Z</time>
      </trkpt>
      <trkpt lat="42.20286" lon="0.86594">
        <ele>733.2</ele>
        <time>2023-07-23T11:58:58Z</time>
      </trkpt>
      <trkpt lat="42.20288" lon="0.86593">
        <ele>733.4</ele>
        <time>2023-07-23T11:58:59Z</time>
      </trkpt>
      <trkpt lat="42.2029" lon="0.86592">
        <ele>733.4</ele>
        <time>2023-07-23T11:59:00Z</time>
      </trkpt>
      <trkpt lat="42.20291" lon="0.86591">
        <ele>733.8</ele>
        <time>2023-07-23T11:59:01Z</time>
      </trkpt>
      <trkpt lat="42.20293" lon="0.8659">
        <ele>734</ele>
        <time>2023-07-23T11:59:02Z</time>
      </trkpt>
      <trkpt lat="42.20294" lon="0.86589">
        <ele>734.8</ele>
        <time>2023-07-23T11:59:03Z</time>
      </trkpt>
      <trkpt lat="42.20296" lon="0.86589">
        <ele>735.2</ele>
        <time>2023-07-23T11:59:04Z</time>
      </trkpt>
      <trkpt lat="42.20298" lon="0.8659">
        <ele>735.6</ele>
        <time>2023-07-23T11:59:05Z</time>
      </trkpt>
      <trkpt lat="42.20299" lon="0.86592">
        <ele>736.2</ele>
        <time>2023-07-23T11:59:06Z</time>
      </trkpt>
      <trkpt lat="42.20299" lon="0.86595">
        <ele>736.4</ele>
        <time>2023-07-23T11:59:07Z</time>
      </trkpt>
      <trkpt lat="42.20299" lon="0.86597">
        <ele>736.8</ele>
        <time>2023-07-23T11:59:08Z</time>
      </trkpt>
      <trkpt lat="42.20298" lon="0.86599">
        <ele>737.2</ele>
        <time>2023-07-23T11:59:09Z</time>
      </trkpt>
      <trkpt lat="42.20298" lon="0.86602">
        <ele>737.4</ele>
        <time>2023-07-23T11:59:10Z</time>
      </trkpt>
      <trkpt lat="42.20296" lon="0.86604">
        <ele>737.6</ele>
        <time>2023-07-23T11:59:11Z</time>
      </trkpt>
      <trkpt lat="42.20295" lon="0.86605">
        <ele>737.6</ele>
        <time>2023-07-23T11:59:12Z</time>
      </trkpt>
      <trkpt lat="42.20294" lon="0.86607">
        <ele>737.8</ele>
        <time>2023-07-23T11:59:13Z</time>
      </trkpt>
      <trkpt lat="42.20292" lon="0.86609">
        <ele>738.2</ele>
        <time>2023-07-23T11:59:14Z</time>
      </trkpt>
      <trkpt lat="42.20291" lon="0.8661">
        <ele>738.2</ele>
        <time>2023-07-23T11:59:15Z</time>
      </trkpt>
      <trkpt lat="42.20289" lon="0.86612">
        <ele>738.6</ele>
        <time>2023-07-23T11:59:16Z</time>
      </trkpt>
      <trkpt lat="42.20288" lon="0.86614">
        <ele>738.6</ele>
        <time>2023-07-23T11:59:17Z</time>
      </trkpt>
      <trkpt lat="42.20286" lon="0.86615">
        <ele>738.8</ele>
        <time>2023-07-23T11:59:18Z</time>
      </trkpt>
      <trkpt lat="42.20285" lon="0.86617">
        <ele>738.8</ele>
        <time>2023-07-23T11:59:19Z</time>
      </trkpt>
      <trkpt lat="42.20284" lon="0.86619">
        <ele>739.2</ele>
        <time>2023-07-23T11:59:20Z</time>
      </trkpt>
      <trkpt lat="42.20283" lon="0.86621">
        <ele>739.8</ele>
        <time>2023-07-23T11:59:21Z</time>
      </trkpt>
      <trkpt lat="42.20282" lon="0.86623">
        <ele>740.2</ele>
        <time>2023-07-23T11:59:22Z</time>
      </trkpt>
      <trkpt lat="42.20281" lon="0.86624">
        <ele>740.6</ele>
        <time>2023-07-23T11:59:23Z</time>
      </trkpt>
      <trkpt lat="42.2028" lon="0.86626">
        <ele>740.8</ele>
        <time>2023-07-23T11:59:24Z</time>
      </trkpt>
      <trkpt lat="42.2028" lon="0.86628">
        <ele>741</ele>
        <time>2023-07-23T11:59:25Z</time>
      </trkpt>
      <trkpt lat="42.20279" lon="0.8663">
        <ele>741.2</ele>
        <time>2023-07-23T11:59:26Z</time>
      </trkpt>
      <trkpt lat="42.20279" lon="0.86631">
        <ele>741.2</ele>
        <time>2023-07-23T11:59:27Z</time>
      </trkpt>
      <trkpt lat="42.20279" lon="0.86632">
        <ele>741.4</ele>
        <time>2023-07-23T11:59:28Z</time>
      </trkpt>
      <trkpt lat="42.2028" lon="0.86632">
        <ele>741.6</ele>
        <time>2023-07-23T11:59:29Z</time>
      </trkpt>
      <trkpt lat="42.2028" lon="0.86632">
        <ele>741.8</ele>
        <time>2023-07-23T11:59:30Z</time>
      </trkpt>
      <trkpt lat="42.2028" lon="0.86632">
        <ele>742</ele>
        <time>2023-07-23T11:59:31Z</time>
      </trkpt>
      <trkpt lat="42.20278" lon="0.86638">
        <ele>741.8</ele>
        <time>2023-07-23T11:59:47Z</time>
      </trkpt>
      <trkpt lat="42.20277" lon="0.86641">
        <ele>741.8</ele>
        <time>2023-07-23T11:59:48Z</time>
      </trkpt>
      <trkpt lat="42.20276" lon="0.86644">
        <ele>741.8</ele>
        <time>2023-07-23T11:59:49Z</time>
      </trkpt>
      <trkpt lat="42.20275" lon="0.86647">
        <ele>741.8</ele>
        <time>2023-07-23T11:59:50Z</time>
      </trkpt>
      <trkpt lat="42.20274" lon="0.8665">
        <ele>742</ele>
        <time>2023-07-23T11:59:51Z</time>
      </trkpt>
      <trkpt lat="42.20273" lon="0.86653">
        <ele>741.8</ele>
        <time>2023-07-23T11:59:52Z</time>
      </trkpt>
      <trkpt lat="42.20272" lon="0.86656">
        <ele>742.2</ele>
        <time>2023-07-23T11:59:53Z</time>
      </trkpt>
      <trkpt lat="42.20271" lon="0.86659">
        <ele>742.2</ele>
        <time>2023-07-23T11:59:54Z</time>
      </trkpt>
      <trkpt lat="42.20271" lon="0.86661">
        <ele>742.4</ele>
        <time>2023-07-23T11:59:55Z</time>
      </trkpt>
      <trkpt lat="42.2027" lon="0.86664">
        <ele>742.6</ele>
        <time>2023-07-23T11:59:56Z</time>
      </trkpt>
      <trkpt lat="42.20269" lon="0.86667">
        <ele>742.8</ele>
        <time>2023-07-23T11:59:57Z</time>
      </trkpt>
      <trkpt lat="42.20268" lon="0.8667">
        <ele>743</ele>
        <time>2023-07-23T11:59:58Z</time>
      </trkpt>
      <trkpt lat="42.20267" lon="0.86673">
        <ele>743</ele>
        <time>2023-07-23T11:59:59Z</time>
      </trkpt>
      <trkpt lat="42.20266" lon="0.86675">
        <ele>743</ele>
        <time>2023-07-23T12:00:00Z</time>
      </trkpt>
      <trkpt lat="42.20265" lon="0.86678">
        <ele>743.2</ele>
        <time>2023-07-23T12:00:01Z</time>
      </trkpt>
      <trkpt lat="42.20263" lon="0.86681">
        <ele>743.4</ele>
        <time>2023-07-23T12:00:02Z</time>
      </trkpt>
      <trkpt lat="42.20262" lon="0.86684">
        <ele>743.8</ele>
        <time>2023-07-23T12:00:03Z</time>
      </trkpt>
      <trkpt lat="42.20261" lon="0.86686">
        <ele>743.8</ele>
        <time>2023-07-23T12:00:04Z</time>
      </trkpt>
      <trkpt lat="42.2026" lon="0.86689">
        <ele>744</ele>
        <time>2023-07-23T12:00:05Z</time>
      </trkpt>
      <trkpt lat="42.20259" lon="0.86691">
        <ele>744.2</ele>
        <time>2023-07-23T12:00:06Z</time>
      </trkpt>
      <trkpt lat="42.20259" lon="0.86694">
        <ele>744.4</ele>
        <time>2023-07-23T12:00:07Z</time>
      </trkpt>
      <trkpt lat="42.20258" lon="0.86697">
        <ele>744.4</ele>
        <time>2023-07-23T12:00:08Z</time>
      </trkpt>
      <trkpt lat="42.20258" lon="0.86699">
        <ele>744.4</ele>
        <time>2023-07-23T12:00:09Z</time>
      </trkpt>
      <trkpt lat="42.20258" lon="0.86701">
        <ele>744.6</ele>
        <time>2023-07-23T12:00:10Z</time>
      </trkpt>
      <trkpt lat="42.20257" lon="0.86704">
        <ele>744.6</ele>
        <time>2023-07-23T12:00:11Z</time>
      </trkpt>
      <trkpt lat="42.20257" lon="0.86705">
        <ele>744.6</ele>
        <time>2023-07-23T12:00:12Z</time>
      </trkpt>
      <trkpt lat="42.20257" lon="0.86707">
        <ele>744.4</ele>
        <time>2023-07-23T12:00:13Z</time>
      </trkpt>
      <trkpt lat="42.20256" lon="0.86708">
        <ele>744.4</ele>
        <time>2023-07-23T12:00:14Z</time>
      </trkpt>
      <trkpt lat="42.20256" lon="0.86708">
        <ele>744.2</ele>
        <time>2023-07-23T12:00:15Z</time>
      </trkpt>
      <trkpt lat="42.20256" lon="0.86708">
        <ele>744.2</ele>
        <time>2023-07-23T12:00:16Z</time>
      </trkpt>
      <trkpt lat="42.20254" lon="0.86716">
        <ele>743.6</ele>
        <time>2023-07-23T12:00:22Z</time>
      </trkpt>
      <trkpt lat="42.20253" lon="0.86719">
        <ele>743.4</ele>
        <time>2023-07-23T12:00:23Z</time>
      </trkpt>
      <trkpt lat="42.20251" lon="0.86723">
        <ele>743.4</ele>
        <time>2023-07-23T12:00:24Z</time>
      </trkpt>
      <trkpt lat="42.2025" lon="0.86728">
        <ele>743.2</ele>
        <time>2023-07-23T12:00:25Z</time>
      </trkpt>
      <trkpt lat="42.20248" lon="0.86733">
        <ele>743.2</ele>
        <time>2023-07-23T12:00:26Z</time>
      </trkpt>
      <trkpt lat="42.20245" lon="0.86738">
        <ele>743</ele>
        <time>2023-07-23T12:00:27Z</time>
      </trkpt>
      <trkpt lat="42.20243" lon="0.86744">
        <ele>742.8</ele>
        <time>2023-07-23T12:00:28Z</time>
      </trkpt>
      <trkpt lat="42.20241" lon="0.86749">
        <ele>742.6</ele>
        <time>2023-07-23T12:00:29Z</time>
      </trkpt>
      <trkpt lat="42.20237" lon="0.86755">
        <ele>741.8</ele>
        <time>2023-07-23T12:00:30Z</time>
      </trkpt>
      <trkpt lat="42.20234" lon="0.8676">
        <ele>741.4</ele>
        <time>2023-07-23T12:00:31Z</time>
      </trkpt>
      <trkpt lat="42.2023" lon="0.86765">
        <ele>740.8</ele>
        <time>2023-07-23T12:00:32Z</time>
      </trkpt>
      <trkpt lat="42.20224" lon="0.8677">
        <ele>740.2</ele>
        <time>2023-07-23T12:00:33Z</time>
      </trkpt>
      <trkpt lat="42.2022" lon="0.86773">
        <ele>740</ele>
        <time>2023-07-23T12:00:34Z</time>
      </trkpt>
      <trkpt lat="42.20215" lon="0.86777">
        <ele>739.4</ele>
        <time>2023-07-23T12:00:35Z</time>
      </trkpt>
      <trkpt lat="42.2021" lon="0.86781">
        <ele>739.2</ele>
        <time>2023-07-23T12:00:36Z</time>
      </trkpt>
      <trkpt lat="42.20205" lon="0.86786">
        <ele>738.8</ele>
        <time>2023-07-23T12:00:37Z</time>
      </trkpt>
      <trkpt lat="42.202" lon="0.8679">
        <ele>738.2</ele>
        <time>2023-07-23T12:00:38Z</time>
      </trkpt>
      <trkpt lat="42.20195" lon="0.86795">
        <ele>738</ele>
        <time>2023-07-23T12:00:39Z</time>
      </trkpt>
      <trkpt lat="42.20192" lon="0.86801">
        <ele>737.6</ele>
        <time>2023-07-23T12:00:40Z</time>
      </trkpt>
      <trkpt lat="42.20189" lon="0.86809">
        <ele>737.4</ele>
        <time>2023-07-23T12:00:41Z</time>
      </trkpt>
      <trkpt lat="42.20188" lon="0.86816">
        <ele>737</ele>
        <time>2023-07-23T12:00:42Z</time>
      </trkpt>
      <trkpt lat="42.20188" lon="0.86821">
        <ele>736.8</ele>
        <time>2023-07-23T12:00:43Z</time>
      </trkpt>
      <trkpt lat="42.2019" lon="0.86829">
        <ele>736.6</ele>
        <time>2023-07-23T12:00:44Z</time>
      </trkpt>
      <trkpt lat="42.20191" lon="0.86835">
        <ele>736.2</ele>
        <time>2023-07-23T12:00:45Z</time>
      </trkpt>
      <trkpt lat="42.20193" lon="0.86841">
        <ele>736.2</ele>
        <time>2023-07-23T12:00:46Z</time>
      </trkpt>
      <trkpt lat="42.20195" lon="0.86847">
        <ele>735.8</ele>
        <time>2023-07-23T12:00:47Z</time>
      </trkpt>
      <trkpt lat="42.20196" lon="0.8685">
        <ele>735.8</ele>
        <time>2023-07-23T12:00:48Z</time>
      </trkpt>
      <trkpt lat="42.20197" lon="0.86855">
        <ele>735.8</ele>
        <time>2023-07-23T12:00:49Z</time>
      </trkpt>
      <trkpt lat="42.20197" lon="0.8686">
        <ele>735.6</ele>
        <time>2023-07-23T12:00:50Z</time>
      </trkpt>
      <trkpt lat="42.20198" lon="0.86866">
        <ele>735.6</ele>
        <time>2023-07-23T12:00:51Z</time>
      </trkpt>
      <trkpt lat="42.20198" lon="0.8687">
        <ele>735.4</ele>
        <time>2023-07-23T12:00:52Z</time>
      </trkpt>
      <trkpt lat="42.20198" lon="0.86875">
        <ele>735.4</ele>
        <time>2023-07-23T12:00:53Z</time>
      </trkpt>
      <trkpt lat="42.20197" lon="0.86879">
        <ele>735.4</ele>
        <time>2023-07-23T12:00:54Z</time>
      </trkpt>
      <trkpt lat="42.20196" lon="0.86885">
        <ele>735.6</ele>
        <time>2023-07-23T12:00:55Z</time>
      </trkpt>
      <trkpt lat="42.20196" lon="0.86889">
        <ele>735.6</ele>
        <time>2023-07-23T12:00:56Z</time>
      </trkpt>
      <trkpt lat="42.20195" lon="0.86893">
        <ele>735.8</ele>
        <time>2023-07-23T12:00:57Z</time>
      </trkpt>
      <trkpt lat="42.20194" lon="0.86898">
        <ele>735.8</ele>
        <time>2023-07-23T12:00:58Z</time>
      </trkpt>
      <trkpt lat="42.20193" lon="0.86902">
        <ele>735.8</ele>
        <time>2023-07-23T12:00:59Z</time>
      </trkpt>
      <trkpt lat="42.20192" lon="0.86906">
        <ele>735.8</ele>
        <time>2023-07-23T12:01:00Z</time>
      </trkpt>
      <trkpt lat="42.2019" lon="0.8691">
        <ele>736</ele>
        <time>2023-07-23T12:01:01Z</time>
      </trkpt>
      <trkpt lat="42.20188" lon="0.86914">
        <ele>736</ele>
        <time>2023-07-23T12:01:02Z</time>
      </trkpt>
      <trkpt lat="42.20187" lon="0.86918">
        <ele>736.2</ele>
        <time>2023-07-23T12:01:03Z</time>
      </trkpt>
      <trkpt lat="42.20185" lon="0.86922">
        <ele>736.2</ele>
        <time>2023-07-23T12:01:04Z</time>
      </trkpt>
      <trkpt lat="42.20183" lon="0.86926">
        <ele>736.2</ele>
        <time>2023-07-23T12:01:05Z</time>
      </trkpt>
      <trkpt lat="42.20181" lon="0.8693">
        <ele>736.2</ele>
        <time>2023-07-23T12:01:06Z</time>
      </trkpt>
      <trkpt lat="42.20179" lon="0.86935">
        <ele>736.4</ele>
        <time>2023-07-23T12:01:07Z</time>
      </trkpt>
      <trkpt lat="42.20177" lon="0.86939">
        <ele>736.4</ele>
        <time>2023-07-23T12:01:08Z</time>
      </trkpt>
      <trkpt lat="42.20175" lon="0.86944">
        <ele>736.4</ele>
        <time>2023-07-23T12:01:09Z</time>
      </trkpt>
      <trkpt lat="42.20172" lon="0.86949">
        <ele>736.4</ele>
        <time>2023-07-23T12:01:10Z</time>
      </trkpt>
      <trkpt lat="42.20169" lon="0.86953">
        <ele>736.4</ele>
        <time>2023-07-23T12:01:11Z</time>
      </trkpt>
      <trkpt lat="42.20166" lon="0.86957">
        <ele>736.4</ele>
        <time>2023-07-23T12:01:12Z</time>
      </trkpt>
      <trkpt lat="42.20164" lon="0.86961">
        <ele>736.4</ele>
        <time>2023-07-23T12:01:13Z</time>
      </trkpt>
      <trkpt lat="42.20162" lon="0.86965">
        <ele>736.4</ele>
        <time>2023-07-23T12:01:14Z</time>
      </trkpt>
      <trkpt lat="42.20159" lon="0.86969">
        <ele>736.4</ele>
        <time>2023-07-23T12:01:15Z</time>
      </trkpt>
      <trkpt lat="42.20157" lon="0.86973">
        <ele>736.4</ele>
        <time>2023-07-23T12:01:16Z</time>
      </trkpt>
      <trkpt lat="42.20154" lon="0.86977">
        <ele>736.4</ele>
        <time>2023-07-23T12:01:17Z</time>
      </trkpt>
      <trkpt lat="42.20151" lon="0.86981">
        <ele>736.4</ele>
        <time>2023-07-23T12:01:18Z</time>
      </trkpt>
      <trkpt lat="42.20148" lon="0.86985">
        <ele>736.4</ele>
        <time>2023-07-23T12:01:19Z</time>
      </trkpt>
      <trkpt lat="42.20145" lon="0.86989">
        <ele>736.4</ele>
        <time>2023-07-23T12:01:20Z</time>
      </trkpt>
      <trkpt lat="42.20142" lon="0.86992">
        <ele>736.4</ele>
        <time>2023-07-23T12:01:21Z</time>
      </trkpt>
      <trkpt lat="42.20139" lon="0.86996">
        <ele>736.6</ele>
        <time>2023-07-23T12:01:22Z</time>
      </trkpt>
      <trkpt lat="42.20136" lon="0.86999">
        <ele>736.6</ele>
        <time>2023-07-23T12:01:23Z</time>
      </trkpt>
      <trkpt lat="42.20134" lon="0.87003">
        <ele>736.6</ele>
        <time>2023-07-23T12:01:24Z</time>
      </trkpt>
      <trkpt lat="42.20131" lon="0.87006">
        <ele>736.6</ele>
        <time>2023-07-23T12:01:25Z</time>
      </trkpt>
      <trkpt lat="42.20128" lon="0.8701">
        <ele>736.6</ele>
        <time>2023-07-23T12:01:26Z</time>
      </trkpt>
      <trkpt lat="42.20126" lon="0.87014">
        <ele>736.6</ele>
        <time>2023-07-23T12:01:27Z</time>
      </trkpt>
      <trkpt lat="42.20124" lon="0.87018">
        <ele>736.6</ele>
        <time>2023-07-23T12:01:28Z</time>
      </trkpt>
      <trkpt lat="42.20122" lon="0.87022">
        <ele>736.6</ele>
        <time>2023-07-23T12:01:29Z</time>
      </trkpt>
      <trkpt lat="42.2012" lon="0.87027">
        <ele>736.8</ele>
        <time>2023-07-23T12:01:30Z</time>
      </trkpt>
      <trkpt lat="42.20118" lon="0.87033">
        <ele>736.8</ele>
        <time>2023-07-23T12:01:31Z</time>
      </trkpt>
      <trkpt lat="42.20117" lon="0.87038">
        <ele>737</ele>
        <time>2023-07-23T12:01:32Z</time>
      </trkpt>
      <trkpt lat="42.20116" lon="0.87042">
        <ele>737.2</ele>
        <time>2023-07-23T12:01:33Z</time>
      </trkpt>
      <trkpt lat="42.20114" lon="0.87047">
        <ele>737.4</ele>
        <time>2023-07-23T12:01:34Z</time>
      </trkpt>
      <trkpt lat="42.20113" lon="0.87051">
        <ele>737.4</ele>
        <time>2023-07-23T12:01:35Z</time>
      </trkpt>
      <trkpt lat="42.20112" lon="0.87055">
        <ele>737.4</ele>
        <time>2023-07-23T12:01:36Z</time>
      </trkpt>
      <trkpt lat="42.20111" lon="0.87059">
        <ele>737.6</ele>
        <time>2023-07-23T12:01:37Z</time>
      </trkpt>
      <trkpt lat="42.20109" lon="0.87064">
        <ele>737.6</ele>
        <time>2023-07-23T12:01:38Z</time>
      </trkpt>
      <trkpt lat="42.20108" lon="0.87069">
        <ele>737.6</ele>
        <time>2023-07-23T12:01:39Z</time>
      </trkpt>
      <trkpt lat="42.20106" lon="0.87073">
        <ele>737.6</ele>
        <time>2023-07-23T12:01:40Z</time>
      </trkpt>
      <trkpt lat="42.20104" lon="0.87078">
        <ele>737.6</ele>
        <time>2023-07-23T12:01:41Z</time>
      </trkpt>
      <trkpt lat="42.20102" lon="0.87083">
        <ele>737.6</ele>
        <time>2023-07-23T12:01:42Z</time>
      </trkpt>
      <trkpt lat="42.201" lon="0.87088">
        <ele>737.6</ele>
        <time>2023-07-23T12:01:43Z</time>
      </trkpt>
      <trkpt lat="42.20098" lon="0.87092">
        <ele>737.6</ele>
        <time>2023-07-23T12:01:44Z</time>
      </trkpt>
      <trkpt lat="42.20095" lon="0.87096">
        <ele>737.6</ele>
        <time>2023-07-23T12:01:45Z</time>
      </trkpt>
      <trkpt lat="42.20093" lon="0.87101">
        <ele>737.6</ele>
        <time>2023-07-23T12:01:46Z</time>
      </trkpt>
      <trkpt lat="42.2009" lon="0.87104">
        <ele>737.6</ele>
        <time>2023-07-23T12:01:47Z</time>
      </trkpt>
      <trkpt lat="42.20088" lon="0.87108">
        <ele>737.6</ele>
        <time>2023-07-23T12:01:48Z</time>
      </trkpt>
      <trkpt lat="42.20085" lon="0.87111">
        <ele>737.6</ele>
        <time>2023-07-23T12:01:49Z</time>
      </trkpt>
      <trkpt lat="42.20082" lon="0.87115">
        <ele>737.6</ele>
        <time>2023-07-23T12:01:50Z</time>
      </trkpt>
      <trkpt lat="42.2008" lon="0.87119">
        <ele>737.6</ele>
        <time>2023-07-23T12:01:51Z</time>
      </trkpt>
      <trkpt lat="42.20077" lon="0.87123">
        <ele>737.8</ele>
        <time>2023-07-23T12:01:52Z</time>
      </trkpt>
      <trkpt lat="42.20074" lon="0.87127">
        <ele>737.8</ele>
        <time>2023-07-23T12:01:53Z</time>
      </trkpt>
      <trkpt lat="42.20073" lon="0.87132">
        <ele>737.8</ele>
        <time>2023-07-23T12:01:54Z</time>
      </trkpt>
      <trkpt lat="42.20071" lon="0.87135">
        <ele>738</ele>
        <time>2023-07-23T12:01:55Z</time>
      </trkpt>
      <trkpt lat="42.20069" lon="0.87139">
        <ele>738</ele>
        <time>2023-07-23T12:01:56Z</time>
      </trkpt>
      <trkpt lat="42.20067" lon="0.87142">
        <ele>738.2</ele>
        <time>2023-07-23T12:01:57Z</time>
      </trkpt>
      <trkpt lat="42.20065" lon="0.87147">
        <ele>738.2</ele>
        <time>2023-07-23T12:01:58Z</time>
      </trkpt>
      <trkpt lat="42.20063" lon="0.87151">
        <ele>738.2</ele>
        <time>2023-07-23T12:01:59Z</time>
      </trkpt>
      <trkpt lat="42.20061" lon="0.87156">
        <ele>738.4</ele>
        <time>2023-07-23T12:02:00Z</time>
      </trkpt>
      <trkpt lat="42.20058" lon="0.87161">
        <ele>738.4</ele>
        <time>2023-07-23T12:02:01Z</time>
      </trkpt>
      <trkpt lat="42.20056" lon="0.87165">
        <ele>738.4</ele>
        <time>2023-07-23T12:02:02Z</time>
      </trkpt>
      <trkpt lat="42.20052" lon="0.87171">
        <ele>738.4</ele>
        <time>2023-07-23T12:02:03Z</time>
      </trkpt>
      <trkpt lat="42.2005" lon="0.87174">
        <ele>738.4</ele>
        <time>2023-07-23T12:02:04Z</time>
      </trkpt>
      <trkpt lat="42.20048" lon="0.87178">
        <ele>738.4</ele>
        <time>2023-07-23T12:02:05Z</time>
      </trkpt>
      <trkpt lat="42.20046" lon="0.87182">
        <ele>738.4</ele>
        <time>2023-07-23T12:02:06Z</time>
      </trkpt>
      <trkpt lat="42.20044" lon="0.87185">
        <ele>738.6</ele>
        <time>2023-07-23T12:02:07Z</time>
      </trkpt>
      <trkpt lat="42.20042" lon="0.87188">
        <ele>738.6</ele>
        <time>2023-07-23T12:02:08Z</time>
      </trkpt>
      <trkpt lat="42.2004" lon="0.87191">
        <ele>738.6</ele>
        <time>2023-07-23T12:02:09Z</time>
      </trkpt>
      <trkpt lat="42.20038" lon="0.87194">
        <ele>739</ele>
        <time>2023-07-23T12:02:10Z</time>
      </trkpt>
      <trkpt lat="42.20035" lon="0.87197">
        <ele>739.2</ele>
        <time>2023-07-23T12:02:11Z</time>
      </trkpt>
      <trkpt lat="42.20033" lon="0.872">
        <ele>739.4</ele>
        <time>2023-07-23T12:02:12Z</time>
      </trkpt>
      <trkpt lat="42.2003" lon="0.87204">
        <ele>739.6</ele>
        <time>2023-07-23T12:02:13Z</time>
      </trkpt>
      <trkpt lat="42.20027" lon="0.87207">
        <ele>739.8</ele>
        <time>2023-07-23T12:02:14Z</time>
      </trkpt>
      <trkpt lat="42.20025" lon="0.8721">
        <ele>739.8</ele>
        <time>2023-07-23T12:02:15Z</time>
      </trkpt>
      <trkpt lat="42.20022" lon="0.87214">
        <ele>740</ele>
        <time>2023-07-23T12:02:16Z</time>
      </trkpt>
      <trkpt lat="42.2002" lon="0.87217">
        <ele>740</ele>
        <time>2023-07-23T12:02:17Z</time>
      </trkpt>
      <trkpt lat="42.20018" lon="0.87222">
        <ele>740</ele>
        <time>2023-07-23T12:02:18Z</time>
      </trkpt>
      <trkpt lat="42.20016" lon="0.87226">
        <ele>740</ele>
        <time>2023-07-23T12:02:19Z</time>
      </trkpt>
      <trkpt lat="42.20014" lon="0.87231">
        <ele>740</ele>
        <time>2023-07-23T12:02:20Z</time>
      </trkpt>
      <trkpt lat="42.20012" lon="0.87236">
        <ele>740</ele>
        <time>2023-07-23T12:02:21Z</time>
      </trkpt>
      <trkpt lat="42.20011" lon="0.8724">
        <ele>740</ele>
        <time>2023-07-23T12:02:22Z</time>
      </trkpt>
      <trkpt lat="42.20011" lon="0.87245">
        <ele>740</ele>
        <time>2023-07-23T12:02:23Z</time>
      </trkpt>
      <trkpt lat="42.2001" lon="0.8725">
        <ele>740</ele>
        <time>2023-07-23T12:02:24Z</time>
      </trkpt>
      <trkpt lat="42.20009" lon="0.87257">
        <ele>739.8</ele>
        <time>2023-07-23T12:02:25Z</time>
      </trkpt>
      <trkpt lat="42.20008" lon="0.87262">
        <ele>739.8</ele>
        <time>2023-07-23T12:02:26Z</time>
      </trkpt>
      <trkpt lat="42.20007" lon="0.87268">
        <ele>739.8</ele>
        <time>2023-07-23T12:02:27Z</time>
      </trkpt>
      <trkpt lat="42.20006" lon="0.87272">
        <ele>739.6</ele>
        <time>2023-07-23T12:02:28Z</time>
      </trkpt>
      <trkpt lat="42.20005" lon="0.87278">
        <ele>739.6</ele>
        <time>2023-07-23T12:02:29Z</time>
      </trkpt>
      <trkpt lat="42.20004" lon="0.87284">
        <ele>739.4</ele>
        <time>2023-07-23T12:02:30Z</time>
      </trkpt>
      <trkpt lat="42.20002" lon="0.87291">
        <ele>739.2</ele>
        <time>2023-07-23T12:02:31Z</time>
      </trkpt>
      <trkpt lat="42.20001" lon="0.87297">
        <ele>739.2</ele>
        <time>2023-07-23T12:02:32Z</time>
      </trkpt>
      <trkpt lat="42.2" lon="0.87304">
        <ele>739.2</ele>
        <time>2023-07-23T12:02:33Z</time>
      </trkpt>
      <trkpt lat="42.19998" lon="0.8731">
        <ele>739</ele>
        <time>2023-07-23T12:02:34Z</time>
      </trkpt>
      <trkpt lat="42.19997" lon="0.87316">
        <ele>739</ele>
        <time>2023-07-23T12:02:35Z</time>
      </trkpt>
      <trkpt lat="42.19995" lon="0.87322">
        <ele>738.8</ele>
        <time>2023-07-23T12:02:36Z</time>
      </trkpt>
      <trkpt lat="42.19994" lon="0.87328">
        <ele>738.8</ele>
        <time>2023-07-23T12:02:37Z</time>
      </trkpt>
      <trkpt lat="42.19993" lon="0.87333">
        <ele>738.8</ele>
        <time>2023-07-23T12:02:38Z</time>
      </trkpt>
      <trkpt lat="42.19991" lon="0.87339">
        <ele>738.8</ele>
        <time>2023-07-23T12:02:39Z</time>
      </trkpt>
      <trkpt lat="42.19989" lon="0.87344">
        <ele>738.6</ele>
        <time>2023-07-23T12:02:40Z</time>
      </trkpt>
      <trkpt lat="42.19988" lon="0.87348">
        <ele>738.6</ele>
        <time>2023-07-23T12:02:41Z</time>
      </trkpt>
      <trkpt lat="42.19986" lon="0.87353">
        <ele>738.6</ele>
        <time>2023-07-23T12:02:42Z</time>
      </trkpt>
      <trkpt lat="42.19985" lon="0.87357">
        <ele>738.6</ele>
        <time>2023-07-23T12:02:43Z</time>
      </trkpt>
      <trkpt lat="42.19984" lon="0.87362">
        <ele>738.6</ele>
        <time>2023-07-23T12:02:44Z</time>
      </trkpt>
      <trkpt lat="42.19984" lon="0.87366">
        <ele>738.6</ele>
        <time>2023-07-23T12:02:45Z</time>
      </trkpt>
      <trkpt lat="42.19983" lon="0.8737">
        <ele>738.8</ele>
        <time>2023-07-23T12:02:46Z</time>
      </trkpt>
      <trkpt lat="42.19984" lon="0.87374">
        <ele>738.8</ele>
        <time>2023-07-23T12:02:47Z</time>
      </trkpt>
      <trkpt lat="42.19985" lon="0.87377">
        <ele>738.8</ele>
        <time>2023-07-23T12:02:48Z</time>
      </trkpt>
      <trkpt lat="42.19986" lon="0.8738">
        <ele>738.8</ele>
        <time>2023-07-23T12:02:49Z</time>
      </trkpt>
      <trkpt lat="42.19989" lon="0.87383">
        <ele>739</ele>
        <time>2023-07-23T12:02:50Z</time>
      </trkpt>
      <trkpt lat="42.19991" lon="0.87384">
        <ele>739.4</ele>
        <time>2023-07-23T12:02:51Z</time>
      </trkpt>
      <trkpt lat="42.19994" lon="0.87386">
        <ele>739.8</ele>
        <time>2023-07-23T12:02:52Z</time>
      </trkpt>
      <trkpt lat="42.19997" lon="0.87387">
        <ele>740</ele>
        <time>2023-07-23T12:02:53Z</time>
      </trkpt>
      <trkpt lat="42.2" lon="0.87388">
        <ele>740.4</ele>
        <time>2023-07-23T12:02:54Z</time>
      </trkpt>
      <trkpt lat="42.20004" lon="0.8739">
        <ele>740.6</ele>
        <time>2023-07-23T12:02:55Z</time>
      </trkpt>
      <trkpt lat="42.20006" lon="0.8739">
        <ele>740.6</ele>
        <time>2023-07-23T12:02:56Z</time>
      </trkpt>
      <trkpt lat="42.20008" lon="0.87389">
        <ele>740.8</ele>
        <time>2023-07-23T12:02:57Z</time>
      </trkpt>
      <trkpt lat="42.2001" lon="0.87387">
        <ele>740.8</ele>
        <time>2023-07-23T12:02:58Z</time>
      </trkpt>
      <trkpt lat="42.20013" lon="0.87384">
        <ele>741</ele>
        <time>2023-07-23T12:02:59Z</time>
      </trkpt>
      <trkpt lat="42.20014" lon="0.87381">
        <ele>741.2</ele>
        <time>2023-07-23T12:03:00Z</time>
      </trkpt>
      <trkpt lat="42.20015" lon="0.87379">
        <ele>741.6</ele>
        <time>2023-07-23T12:03:01Z</time>
      </trkpt>
      <trkpt lat="42.20016" lon="0.87375">
        <ele>741.8</ele>
        <time>2023-07-23T12:03:02Z</time>
      </trkpt>
      <trkpt lat="42.20017" lon="0.87371">
        <ele>742</ele>
        <time>2023-07-23T12:03:03Z</time>
      </trkpt>
      <trkpt lat="42.20018" lon="0.87369">
        <ele>742.2</ele>
        <time>2023-07-23T12:03:04Z</time>
      </trkpt>
      <trkpt lat="42.20019" lon="0.87365">
        <ele>742.4</ele>
        <time>2023-07-23T12:03:05Z</time>
      </trkpt>
      <trkpt lat="42.20019" lon="0.87362">
        <ele>742.4</ele>
        <time>2023-07-23T12:03:06Z</time>
      </trkpt>
      <trkpt lat="42.2002" lon="0.87358">
        <ele>742.6</ele>
        <time>2023-07-23T12:03:07Z</time>
      </trkpt>
      <trkpt lat="42.20021" lon="0.87355">
        <ele>742.6</ele>
        <time>2023-07-23T12:03:08Z</time>
      </trkpt>
      <trkpt lat="42.20022" lon="0.87352">
        <ele>743</ele>
        <time>2023-07-23T12:03:09Z</time>
      </trkpt>
      <trkpt lat="42.20023" lon="0.87349">
        <ele>743</ele>
        <time>2023-07-23T12:03:10Z</time>
      </trkpt>
      <trkpt lat="42.20024" lon="0.87346">
        <ele>743.4</ele>
        <time>2023-07-23T12:03:11Z</time>
      </trkpt>
      <trkpt lat="42.20025" lon="0.87343">
        <ele>743.8</ele>
        <time>2023-07-23T12:03:12Z</time>
      </trkpt>
      <trkpt lat="42.20026" lon="0.87339">
        <ele>743.8</ele>
        <time>2023-07-23T12:03:13Z</time>
      </trkpt>
      <trkpt lat="42.20027" lon="0.87336">
        <ele>744</ele>
        <time>2023-07-23T12:03:14Z</time>
      </trkpt>
      <trkpt lat="42.20028" lon="0.87334">
        <ele>744.2</ele>
        <time>2023-07-23T12:03:15Z</time>
      </trkpt>
      <trkpt lat="42.20029" lon="0.87331">
        <ele>744.6</ele>
        <time>2023-07-23T12:03:16Z</time>
      </trkpt>
      <trkpt lat="42.2003" lon="0.87327">
        <ele>745</ele>
        <time>2023-07-23T12:03:17Z</time>
      </trkpt>
      <trkpt lat="42.20031" lon="0.87324">
        <ele>745.2</ele>
        <time>2023-07-23T12:03:18Z</time>
      </trkpt>
      <trkpt lat="42.20032" lon="0.87321">
        <ele>745.6</ele>
        <time>2023-07-23T12:03:19Z</time>
      </trkpt>
      <trkpt lat="42.20033" lon="0.87319">
        <ele>745.8</ele>
        <time>2023-07-23T12:03:20Z</time>
      </trkpt>
      <trkpt lat="42.20033" lon="0.87316">
        <ele>746.2</ele>
        <time>2023-07-23T12:03:21Z</time>
      </trkpt>
      <trkpt lat="42.20034" lon="0.87313">
        <ele>746.6</ele>
        <time>2023-07-23T12:03:22Z</time>
      </trkpt>
      <trkpt lat="42.20035" lon="0.8731">
        <ele>746.6</ele>
        <time>2023-07-23T12:03:23Z</time>
      </trkpt>
      <trkpt lat="42.20036" lon="0.87307">
        <ele>747</ele>
        <time>2023-07-23T12:03:24Z</time>
      </trkpt>
      <trkpt lat="42.20036" lon="0.87305">
        <ele>747</ele>
        <time>2023-07-23T12:03:25Z</time>
      </trkpt>
      <trkpt lat="42.20037" lon="0.87302">
        <ele>747.4</ele>
        <time>2023-07-23T12:03:26Z</time>
      </trkpt>
      <trkpt lat="42.20038" lon="0.87298">
        <ele>747.6</ele>
        <time>2023-07-23T12:03:27Z</time>
      </trkpt>
      <trkpt lat="42.20038" lon="0.87296">
        <ele>748</ele>
        <time>2023-07-23T12:03:28Z</time>
      </trkpt>
      <trkpt lat="42.20039" lon="0.87293">
        <ele>748.2</ele>
        <time>2023-07-23T12:03:29Z</time>
      </trkpt>
      <trkpt lat="42.2004" lon="0.8729">
        <ele>748.4</ele>
        <time>2023-07-23T12:03:30Z</time>
      </trkpt>
      <trkpt lat="42.20041" lon="0.87287">
        <ele>748.8</ele>
        <time>2023-07-23T12:03:31Z</time>
      </trkpt>
      <trkpt lat="42.20042" lon="0.87285">
        <ele>749</ele>
        <time>2023-07-23T12:03:32Z</time>
      </trkpt>
      <trkpt lat="42.20043" lon="0.87282">
        <ele>749</ele>
        <time>2023-07-23T12:03:33Z</time>
      </trkpt>
      <trkpt lat="42.20044" lon="0.8728">
        <ele>749.2</ele>
        <time>2023-07-23T12:03:34Z</time>
      </trkpt>
      <trkpt lat="42.20045" lon="0.87278">
        <ele>749.2</ele>
        <time>2023-07-23T12:03:35Z</time>
      </trkpt>
      <trkpt lat="42.20046" lon="0.87275">
        <ele>749.4</ele>
        <time>2023-07-23T12:03:36Z</time>
      </trkpt>
      <trkpt lat="42.20047" lon="0.87272">
        <ele>749.6</ele>
        <time>2023-07-23T12:03:37Z</time>
      </trkpt>
      <trkpt lat="42.20048" lon="0.87269">
        <ele>749.6</ele>
        <time>2023-07-23T12:03:38Z</time>
      </trkpt>
      <trkpt lat="42.2005" lon="0.87266">
        <ele>750</ele>
        <time>2023-07-23T12:03:39Z</time>
      </trkpt>
      <trkpt lat="42.20051" lon="0.87264">
        <ele>750.2</ele>
        <time>2023-07-23T12:03:40Z</time>
      </trkpt>
      <trkpt lat="42.20052" lon="0.87261">
        <ele>750.6</ele>
        <time>2023-07-23T12:03:41Z</time>
      </trkpt>
      <trkpt lat="42.20053" lon="0.87259">
        <ele>750.8</ele>
        <time>2023-07-23T12:03:42Z</time>
      </trkpt>
      <trkpt lat="42.20055" lon="0.87257">
        <ele>751</ele>
        <time>2023-07-23T12:03:43Z</time>
      </trkpt>
      <trkpt lat="42.20057" lon="0.87255">
        <ele>751.4</ele>
        <time>2023-07-23T12:03:44Z</time>
      </trkpt>
      <trkpt lat="42.20058" lon="0.87253">
        <ele>751.4</ele>
        <time>2023-07-23T12:03:45Z</time>
      </trkpt>
      <trkpt lat="42.2006" lon="0.87251">
        <ele>751.6</ele>
        <time>2023-07-23T12:03:46Z</time>
      </trkpt>
      <trkpt lat="42.20061" lon="0.87249">
        <ele>751.8</ele>
        <time>2023-07-23T12:03:47Z</time>
      </trkpt>
      <trkpt lat="42.20063" lon="0.87248">
        <ele>752</ele>
        <time>2023-07-23T12:03:48Z</time>
      </trkpt>
      <trkpt lat="42.20065" lon="0.87246">
        <ele>752.2</ele>
        <time>2023-07-23T12:03:49Z</time>
      </trkpt>
      <trkpt lat="42.20067" lon="0.87244">
        <ele>752.4</ele>
        <time>2023-07-23T12:03:50Z</time>
      </trkpt>
      <trkpt lat="42.20069" lon="0.87242">
        <ele>752.6</ele>
        <time>2023-07-23T12:03:51Z</time>
      </trkpt>
      <trkpt lat="42.20071" lon="0.87241">
        <ele>752.6</ele>
        <time>2023-07-23T12:03:52Z</time>
      </trkpt>
      <trkpt lat="42.20073" lon="0.8724">
        <ele>753</ele>
        <time>2023-07-23T12:03:53Z</time>
      </trkpt>
      <trkpt lat="42.20075" lon="0.87239">
        <ele>753.4</ele>
        <time>2023-07-23T12:03:54Z</time>
      </trkpt>
      <trkpt lat="42.20077" lon="0.87237">
        <ele>753.6</ele>
        <time>2023-07-23T12:03:55Z</time>
      </trkpt>
      <trkpt lat="42.20079" lon="0.87235">
        <ele>753.8</ele>
        <time>2023-07-23T12:03:56Z</time>
      </trkpt>
      <trkpt lat="42.20081" lon="0.87234">
        <ele>754</ele>
        <time>2023-07-23T12:03:57Z</time>
      </trkpt>
      <trkpt lat="42.20082" lon="0.87232">
        <ele>754.2</ele>
        <time>2023-07-23T12:03:58Z</time>
      </trkpt>
      <trkpt lat="42.20084" lon="0.8723">
        <ele>754.4</ele>
        <time>2023-07-23T12:03:59Z</time>
      </trkpt>
      <trkpt lat="42.20086" lon="0.87228">
        <ele>754.6</ele>
        <time>2023-07-23T12:04:00Z</time>
      </trkpt>
      <trkpt lat="42.20088" lon="0.87226">
        <ele>754.8</ele>
        <time>2023-07-23T12:04:01Z</time>
      </trkpt>
      <trkpt lat="42.20089" lon="0.87225">
        <ele>754.8</ele>
        <time>2023-07-23T12:04:02Z</time>
      </trkpt>
      <trkpt lat="42.20091" lon="0.87223">
        <ele>755.2</ele>
        <time>2023-07-23T12:04:03Z</time>
      </trkpt>
      <trkpt lat="42.20093" lon="0.87221">
        <ele>755.4</ele>
        <time>2023-07-23T12:04:04Z</time>
      </trkpt>
      <trkpt lat="42.20094" lon="0.87219">
        <ele>755.4</ele>
        <time>2023-07-23T12:04:05Z</time>
      </trkpt>
      <trkpt lat="42.20096" lon="0.87217">
        <ele>755.6</ele>
        <time>2023-07-23T12:04:06Z</time>
      </trkpt>
      <trkpt lat="42.20098" lon="0.87215">
        <ele>755.8</ele>
        <time>2023-07-23T12:04:07Z</time>
      </trkpt>
      <trkpt lat="42.201" lon="0.87213">
        <ele>755.8</ele>
        <time>2023-07-23T12:04:08Z</time>
      </trkpt>
      <trkpt lat="42.20102" lon="0.87211">
        <ele>756</ele>
        <time>2023-07-23T12:04:09Z</time>
      </trkpt>
      <trkpt lat="42.20104" lon="0.87209">
        <ele>756.2</ele>
        <time>2023-07-23T12:04:10Z</time>
      </trkpt>
      <trkpt lat="42.20106" lon="0.87207">
        <ele>756.4</ele>
        <time>2023-07-23T12:04:11Z</time>
      </trkpt>
      <trkpt lat="42.20108" lon="0.87204">
        <ele>756.4</ele>
        <time>2023-07-23T12:04:12Z</time>
      </trkpt>
      <trkpt lat="42.2011" lon="0.87202">
        <ele>756.6</ele>
        <time>2023-07-23T12:04:13Z</time>
      </trkpt>
      <trkpt lat="42.20112" lon="0.872">
        <ele>756.8</ele>
        <time>2023-07-23T12:04:14Z</time>
      </trkpt>
      <trkpt lat="42.20113" lon="0.87198">
        <ele>756.8</ele>
        <time>2023-07-23T12:04:15Z</time>
      </trkpt>
      <trkpt lat="42.20115" lon="0.87196">
        <ele>757</ele>
        <time>2023-07-23T12:04:16Z</time>
      </trkpt>
      <trkpt lat="42.20117" lon="0.87194">
        <ele>757</ele>
        <time>2023-07-23T12:04:17Z</time>
      </trkpt>
      <trkpt lat="42.20119" lon="0.87192">
        <ele>757.2</ele>
        <time>2023-07-23T12:04:18Z</time>
      </trkpt>
      <trkpt lat="42.20121" lon="0.8719">
        <ele>757.4</ele>
        <time>2023-07-23T12:04:19Z</time>
      </trkpt>
      <trkpt lat="42.20123" lon="0.87187">
        <ele>757.4</ele>
        <time>2023-07-23T12:04:20Z</time>
      </trkpt>
      <trkpt lat="42.20125" lon="0.87185">
        <ele>757.6</ele>
        <time>2023-07-23T12:04:21Z</time>
      </trkpt>
      <trkpt lat="42.20127" lon="0.87183">
        <ele>757.8</ele>
        <time>2023-07-23T12:04:22Z</time>
      </trkpt>
      <trkpt lat="42.20129" lon="0.87181">
        <ele>758</ele>
        <time>2023-07-23T12:04:23Z</time>
      </trkpt>
      <trkpt lat="42.20131" lon="0.87178">
        <ele>758.2</ele>
        <time>2023-07-23T12:04:24Z</time>
      </trkpt>
      <trkpt lat="42.20133" lon="0.87176">
        <ele>758.4</ele>
        <time>2023-07-23T12:04:25Z</time>
      </trkpt>
      <trkpt lat="42.20135" lon="0.87174">
        <ele>758.6</ele>
        <time>2023-07-23T12:04:26Z</time>
      </trkpt>
      <trkpt lat="42.20136" lon="0.87172">
        <ele>758.8</ele>
        <time>2023-07-23T12:04:27Z</time>
      </trkpt>
      <trkpt lat="42.20138" lon="0.87169">
        <ele>759</ele>
        <time>2023-07-23T12:04:28Z</time>
      </trkpt>
      <trkpt lat="42.2014" lon="0.87167">
        <ele>759.2</ele>
        <time>2023-07-23T12:04:29Z</time>
      </trkpt>
      <trkpt lat="42.20142" lon="0.87164">
        <ele>759.4</ele>
        <time>2023-07-23T12:04:30Z</time>
      </trkpt>
      <trkpt lat="42.20144" lon="0.87162">
        <ele>759.6</ele>
        <time>2023-07-23T12:04:31Z</time>
      </trkpt>
      <trkpt lat="42.20146" lon="0.87159">
        <ele>759.8</ele>
        <time>2023-07-23T12:04:32Z</time>
      </trkpt>
      <trkpt lat="42.20147" lon="0.87157">
        <ele>760</ele>
        <time>2023-07-23T12:04:33Z</time>
      </trkpt>
      <trkpt lat="42.20149" lon="0.87154">
        <ele>760.2</ele>
        <time>2023-07-23T12:04:34Z</time>
      </trkpt>
      <trkpt lat="42.20151" lon="0.87152">
        <ele>760.4</ele>
        <time>2023-07-23T12:04:35Z</time>
      </trkpt>
      <trkpt lat="42.20153" lon="0.87149">
        <ele>760.6</ele>
        <time>2023-07-23T12:04:36Z</time>
      </trkpt>
      <trkpt lat="42.20154" lon="0.87146">
        <ele>760.6</ele>
        <time>2023-07-23T12:04:37Z</time>
      </trkpt>
      <trkpt lat="42.20156" lon="0.87143">
        <ele>761</ele>
        <time>2023-07-23T12:04:38Z</time>
      </trkpt>
      <trkpt lat="42.20157" lon="0.8714">
        <ele>761.2</ele>
        <time>2023-07-23T12:04:39Z</time>
      </trkpt>
      <trkpt lat="42.20159" lon="0.87137">
        <ele>761.4</ele>
        <time>2023-07-23T12:04:40Z</time>
      </trkpt>
      <trkpt lat="42.20161" lon="0.87134">
        <ele>761.8</ele>
        <time>2023-07-23T12:04:41Z</time>
      </trkpt>
      <trkpt lat="42.20162" lon="0.87131">
        <ele>761.8</ele>
        <time>2023-07-23T12:04:42Z</time>
      </trkpt>
      <trkpt lat="42.20164" lon="0.87128">
        <ele>762</ele>
        <time>2023-07-23T12:04:43Z</time>
      </trkpt>
      <trkpt lat="42.20166" lon="0.87125">
        <ele>762.2</ele>
        <time>2023-07-23T12:04:44Z</time>
      </trkpt>
      <trkpt lat="42.20167" lon="0.87122">
        <ele>762.4</ele>
        <time>2023-07-23T12:04:45Z</time>
      </trkpt>
      <trkpt lat="42.20169" lon="0.87119">
        <ele>762.8</ele>
        <time>2023-07-23T12:04:46Z</time>
      </trkpt>
      <trkpt lat="42.2017" lon="0.87116">
        <ele>763</ele>
        <time>2023-07-23T12:04:47Z</time>
      </trkpt>
      <trkpt lat="42.20171" lon="0.87113">
        <ele>763.2</ele>
        <time>2023-07-23T12:04:48Z</time>
      </trkpt>
      <trkpt lat="42.20173" lon="0.8711">
        <ele>763.4</ele>
        <time>2023-07-23T12:04:49Z</time>
      </trkpt>
      <trkpt lat="42.20174" lon="0.87107">
        <ele>763.6</ele>
        <time>2023-07-23T12:04:50Z</time>
      </trkpt>
      <trkpt lat="42.20175" lon="0.87104">
        <ele>764</ele>
        <time>2023-07-23T12:04:51Z</time>
      </trkpt>
      <trkpt lat="42.20177" lon="0.87101">
        <ele>764</ele>
        <time>2023-07-23T12:04:52Z</time>
      </trkpt>
      <trkpt lat="42.20178" lon="0.87098">
        <ele>764.4</ele>
        <time>2023-07-23T12:04:53Z</time>
      </trkpt>
      <trkpt lat="42.2018" lon="0.87095">
        <ele>764.6</ele>
        <time>2023-07-23T12:04:54Z</time>
      </trkpt>
      <trkpt lat="42.20182" lon="0.87093">
        <ele>765</ele>
        <time>2023-07-23T12:04:55Z</time>
      </trkpt>
      <trkpt lat="42.20183" lon="0.8709">
        <ele>765.4</ele>
        <time>2023-07-23T12:04:56Z</time>
      </trkpt>
      <trkpt lat="42.20184" lon="0.87087">
        <ele>765.6</ele>
        <time>2023-07-23T12:04:57Z</time>
      </trkpt>
      <trkpt lat="42.20185" lon="0.87084">
        <ele>766</ele>
        <time>2023-07-23T12:04:58Z</time>
      </trkpt>
      <trkpt lat="42.20186" lon="0.87082">
        <ele>766.2</ele>
        <time>2023-07-23T12:04:59Z</time>
      </trkpt>
      <trkpt lat="42.20187" lon="0.87078">
        <ele>766.6</ele>
        <time>2023-07-23T12:05:00Z</time>
      </trkpt>
      <trkpt lat="42.20188" lon="0.87075">
        <ele>767</ele>
        <time>2023-07-23T12:05:01Z</time>
      </trkpt>
      <trkpt lat="42.20189" lon="0.87073">
        <ele>767</ele>
        <time>2023-07-23T12:05:02Z</time>
      </trkpt>
      <trkpt lat="42.2019" lon="0.8707">
        <ele>767.4</ele>
        <time>2023-07-23T12:05:03Z</time>
      </trkpt>
      <trkpt lat="42.20191" lon="0.87067">
        <ele>767.6</ele>
        <time>2023-07-23T12:05:04Z</time>
      </trkpt>
      <trkpt lat="42.20192" lon="0.87064">
        <ele>768.2</ele>
        <time>2023-07-23T12:05:05Z</time>
      </trkpt>
      <trkpt lat="42.20193" lon="0.87061">
        <ele>768.4</ele>
        <time>2023-07-23T12:05:06Z</time>
      </trkpt>
      <trkpt lat="42.20194" lon="0.87058">
        <ele>768.6</ele>
        <time>2023-07-23T12:05:07Z</time>
      </trkpt>
      <trkpt lat="42.20195" lon="0.87055">
        <ele>768.8</ele>
        <time>2023-07-23T12:05:08Z</time>
      </trkpt>
      <trkpt lat="42.20196" lon="0.87052">
        <ele>769</ele>
        <time>2023-07-23T12:05:09Z</time>
      </trkpt>
      <trkpt lat="42.20197" lon="0.87049">
        <ele>769.2</ele>
        <time>2023-07-23T12:05:10Z</time>
      </trkpt>
      <trkpt lat="42.20199" lon="0.87046">
        <ele>769.6</ele>
        <time>2023-07-23T12:05:11Z</time>
      </trkpt>
      <trkpt lat="42.202" lon="0.87043">
        <ele>769.8</ele>
        <time>2023-07-23T12:05:12Z</time>
      </trkpt>
      <trkpt lat="42.20202" lon="0.87041">
        <ele>770.2</ele>
        <time>2023-07-23T12:05:13Z</time>
      </trkpt>
      <trkpt lat="42.20203" lon="0.87038">
        <ele>770.2</ele>
        <time>2023-07-23T12:05:14Z</time>
      </trkpt>
      <trkpt lat="42.20205" lon="0.87035">
        <ele>770.4</ele>
        <time>2023-07-23T12:05:15Z</time>
      </trkpt>
      <trkpt lat="42.20206" lon="0.87033">
        <ele>771</ele>
        <time>2023-07-23T12:05:16Z</time>
      </trkpt>
      <trkpt lat="42.20208" lon="0.8703">
        <ele>771</ele>
        <time>2023-07-23T12:05:17Z</time>
      </trkpt>
      <trkpt lat="42.20209" lon="0.87027">
        <ele>771.4</ele>
        <time>2023-07-23T12:05:18Z</time>
      </trkpt>
      <trkpt lat="42.20211" lon="0.87025">
        <ele>771.4</ele>
        <time>2023-07-23T12:05:19Z</time>
      </trkpt>
      <trkpt lat="42.20213" lon="0.87022">
        <ele>771.8</ele>
        <time>2023-07-23T12:05:20Z</time>
      </trkpt>
      <trkpt lat="42.20214" lon="0.87019">
        <ele>772.2</ele>
        <time>2023-07-23T12:05:21Z</time>
      </trkpt>
      <trkpt lat="42.20216" lon="0.87017">
        <ele>772.2</ele>
        <time>2023-07-23T12:05:22Z</time>
      </trkpt>
      <trkpt lat="42.20218" lon="0.87014">
        <ele>772.4</ele>
        <time>2023-07-23T12:05:23Z</time>
      </trkpt>
      <trkpt lat="42.20219" lon="0.87011">
        <ele>772.6</ele>
        <time>2023-07-23T12:05:24Z</time>
      </trkpt>
      <trkpt lat="42.2022" lon="0.87008">
        <ele>772.8</ele>
        <time>2023-07-23T12:05:25Z</time>
      </trkpt>
      <trkpt lat="42.20222" lon="0.87005">
        <ele>773</ele>
        <time>2023-07-23T12:05:26Z</time>
      </trkpt>
      <trkpt lat="42.20223" lon="0.87002">
        <ele>773</ele>
        <time>2023-07-23T12:05:27Z</time>
      </trkpt>
      <trkpt lat="42.20225" lon="0.86999">
        <ele>773.2</ele>
        <time>2023-07-23T12:05:28Z</time>
      </trkpt>
      <trkpt lat="42.20227" lon="0.86997">
        <ele>773.4</ele>
        <time>2023-07-23T12:05:29Z</time>
      </trkpt>
      <trkpt lat="42.20229" lon="0.86995">
        <ele>773.8</ele>
        <time>2023-07-23T12:05:30Z</time>
      </trkpt>
      <trkpt lat="42.20231" lon="0.86993">
        <ele>774</ele>
        <time>2023-07-23T12:05:31Z</time>
      </trkpt>
      <trkpt lat="42.20232" lon="0.8699">
        <ele>774.2</ele>
        <time>2023-07-23T12:05:32Z</time>
      </trkpt>
      <trkpt lat="42.20234" lon="0.86988">
        <ele>774.6</ele>
        <time>2023-07-23T12:05:33Z</time>
      </trkpt>
      <trkpt lat="42.20236" lon="0.86985">
        <ele>774.8</ele>
        <time>2023-07-23T12:05:34Z</time>
      </trkpt>
      <trkpt lat="42.20237" lon="0.86983">
        <ele>775.2</ele>
        <time>2023-07-23T12:05:35Z</time>
      </trkpt>
      <trkpt lat="42.20238" lon="0.8698">
        <ele>775.4</ele>
        <time>2023-07-23T12:05:36Z</time>
      </trkpt>
      <trkpt lat="42.2024" lon="0.86978">
        <ele>775.6</ele>
        <time>2023-07-23T12:05:37Z</time>
      </trkpt>
      <trkpt lat="42.20241" lon="0.86975">
        <ele>775.8</ele>
        <time>2023-07-23T12:05:38Z</time>
      </trkpt>
      <trkpt lat="42.20242" lon="0.86972">
        <ele>776</ele>
        <time>2023-07-23T12:05:39Z</time>
      </trkpt>
      <trkpt lat="42.20244" lon="0.8697">
        <ele>776.4</ele>
        <time>2023-07-23T12:05:40Z</time>
      </trkpt>
      <trkpt lat="42.20246" lon="0.86967">
        <ele>776.6</ele>
        <time>2023-07-23T12:05:41Z</time>
      </trkpt>
      <trkpt lat="42.20247" lon="0.86965">
        <ele>776.8</ele>
        <time>2023-07-23T12:05:42Z</time>
      </trkpt>
      <trkpt lat="42.20249" lon="0.86963">
        <ele>777</ele>
        <time>2023-07-23T12:05:43Z</time>
      </trkpt>
      <trkpt lat="42.20251" lon="0.8696">
        <ele>777</ele>
        <time>2023-07-23T12:05:44Z</time>
      </trkpt>
      <trkpt lat="42.20252" lon="0.86958">
        <ele>777.4</ele>
        <time>2023-07-23T12:05:45Z</time>
      </trkpt>
      <trkpt lat="42.20254" lon="0.86955">
        <ele>777.8</ele>
        <time>2023-07-23T12:05:46Z</time>
      </trkpt>
      <trkpt lat="42.20255" lon="0.86953">
        <ele>777.8</ele>
        <time>2023-07-23T12:05:47Z</time>
      </trkpt>
      <trkpt lat="42.20257" lon="0.8695">
        <ele>778.2</ele>
        <time>2023-07-23T12:05:48Z</time>
      </trkpt>
      <trkpt lat="42.20258" lon="0.86947">
        <ele>778.2</ele>
        <time>2023-07-23T12:05:49Z</time>
      </trkpt>
      <trkpt lat="42.20259" lon="0.86945">
        <ele>778.4</ele>
        <time>2023-07-23T12:05:50Z</time>
      </trkpt>
      <trkpt lat="42.20261" lon="0.86942">
        <ele>778.6</ele>
        <time>2023-07-23T12:05:51Z</time>
      </trkpt>
      <trkpt lat="42.20262" lon="0.8694">
        <ele>778.6</ele>
        <time>2023-07-23T12:05:52Z</time>
      </trkpt>
      <trkpt lat="42.20264" lon="0.86937">
        <ele>779</ele>
        <time>2023-07-23T12:05:53Z</time>
      </trkpt>
      <trkpt lat="42.20265" lon="0.86935">
        <ele>779.2</ele>
        <time>2023-07-23T12:05:54Z</time>
      </trkpt>
      <trkpt lat="42.20267" lon="0.86932">
        <ele>779.4</ele>
        <time>2023-07-23T12:05:55Z</time>
      </trkpt>
      <trkpt lat="42.20268" lon="0.8693">
        <ele>779.6</ele>
        <time>2023-07-23T12:05:56Z</time>
      </trkpt>
      <trkpt lat="42.2027" lon="0.86927">
        <ele>779.8</ele>
        <time>2023-07-23T12:05:57Z</time>
      </trkpt>
      <trkpt lat="42.20271" lon="0.86925">
        <ele>780.2</ele>
        <time>2023-07-23T12:05:58Z</time>
      </trkpt>
      <trkpt lat="42.20273" lon="0.86923">
        <ele>780.2</ele>
        <time>2023-07-23T12:05:59Z</time>
      </trkpt>
      <trkpt lat="42.20274" lon="0.8692">
        <ele>780.4</ele>
        <time>2023-07-23T12:06:00Z</time>
      </trkpt>
      <trkpt lat="42.20276" lon="0.86918">
        <ele>780.6</ele>
        <time>2023-07-23T12:06:01Z</time>
      </trkpt>
      <trkpt lat="42.20278" lon="0.86915">
        <ele>780.6</ele>
        <time>2023-07-23T12:06:02Z</time>
      </trkpt>
      <trkpt lat="42.20279" lon="0.86913">
        <ele>781</ele>
        <time>2023-07-23T12:06:03Z</time>
      </trkpt>
      <trkpt lat="42.20281" lon="0.8691">
        <ele>781.2</ele>
        <time>2023-07-23T12:06:04Z</time>
      </trkpt>
      <trkpt lat="42.20282" lon="0.86908">
        <ele>781.6</ele>
        <time>2023-07-23T12:06:05Z</time>
      </trkpt>
      <trkpt lat="42.20283" lon="0.86905">
        <ele>781.6</ele>
        <time>2023-07-23T12:06:06Z</time>
      </trkpt>
      <trkpt lat="42.20285" lon="0.86903">
        <ele>782</ele>
        <time>2023-07-23T12:06:07Z</time>
      </trkpt>
      <trkpt lat="42.20286" lon="0.86901">
        <ele>782.2</ele>
        <time>2023-07-23T12:06:08Z</time>
      </trkpt>
      <trkpt lat="42.20288" lon="0.86898">
        <ele>782.2</ele>
        <time>2023-07-23T12:06:09Z</time>
      </trkpt>
      <trkpt lat="42.20289" lon="0.86896">
        <ele>782.4</ele>
        <time>2023-07-23T12:06:10Z</time>
      </trkpt>
      <trkpt lat="42.20291" lon="0.86894">
        <ele>782.6</ele>
        <time>2023-07-23T12:06:11Z</time>
      </trkpt>
      <trkpt lat="42.20293" lon="0.86891">
        <ele>782.8</ele>
        <time>2023-07-23T12:06:12Z</time>
      </trkpt>
      <trkpt lat="42.20293" lon="0.86889">
        <ele>783.2</ele>
        <time>2023-07-23T12:06:13Z</time>
      </trkpt>
      <trkpt lat="42.20295" lon="0.86887">
        <ele>783.2</ele>
        <time>2023-07-23T12:06:14Z</time>
      </trkpt>
      <trkpt lat="42.20297" lon="0.86884">
        <ele>783.4</ele>
        <time>2023-07-23T12:06:15Z</time>
      </trkpt>
      <trkpt lat="42.20298" lon="0.86882">
        <ele>783.4</ele>
        <time>2023-07-23T12:06:16Z</time>
      </trkpt>
      <trkpt lat="42.203" lon="0.86879">
        <ele>783.6</ele>
        <time>2023-07-23T12:06:17Z</time>
      </trkpt>
      <trkpt lat="42.20302" lon="0.86877">
        <ele>784</ele>
        <time>2023-07-23T12:06:18Z</time>
      </trkpt>
      <trkpt lat="42.20303" lon="0.86875">
        <ele>784</ele>
        <time>2023-07-23T12:06:19Z</time>
      </trkpt>
      <trkpt lat="42.20305" lon="0.86872">
        <ele>784.2</ele>
        <time>2023-07-23T12:06:20Z</time>
      </trkpt>
      <trkpt lat="42.20307" lon="0.86869">
        <ele>784.4</ele>
        <time>2023-07-23T12:06:21Z</time>
      </trkpt>
      <trkpt lat="42.20308" lon="0.86866">
        <ele>784.6</ele>
        <time>2023-07-23T12:06:22Z</time>
      </trkpt>
      <trkpt lat="42.2031" lon="0.86864">
        <ele>784.8</ele>
        <time>2023-07-23T12:06:23Z</time>
      </trkpt>
      <trkpt lat="42.20312" lon="0.86861">
        <ele>785</ele>
        <time>2023-07-23T12:06:24Z</time>
      </trkpt>
      <trkpt lat="42.20314" lon="0.86859">
        <ele>785.2</ele>
        <time>2023-07-23T12:06:25Z</time>
      </trkpt>
      <trkpt lat="42.20316" lon="0.86856">
        <ele>785.2</ele>
        <time>2023-07-23T12:06:26Z</time>
      </trkpt>
      <trkpt lat="42.20317" lon="0.86853">
        <ele>785.4</ele>
        <time>2023-07-23T12:06:27Z</time>
      </trkpt>
      <trkpt lat="42.20319" lon="0.86851">
        <ele>785.6</ele>
        <time>2023-07-23T12:06:28Z</time>
      </trkpt>
      <trkpt lat="42.20321" lon="0.86848">
        <ele>785.8</ele>
        <time>2023-07-23T12:06:29Z</time>
      </trkpt>
      <trkpt lat="42.20322" lon="0.86846">
        <ele>785.8</ele>
        <time>2023-07-23T12:06:30Z</time>
      </trkpt>
      <trkpt lat="42.20324" lon="0.86844">
        <ele>786</ele>
        <time>2023-07-23T12:06:31Z</time>
      </trkpt>
      <trkpt lat="42.20326" lon="0.86841">
        <ele>786.2</ele>
        <time>2023-07-23T12:06:32Z</time>
      </trkpt>
      <trkpt lat="42.20327" lon="0.86839">
        <ele>786.4</ele>
        <time>2023-07-23T12:06:33Z</time>
      </trkpt>
      <trkpt lat="42.20329" lon="0.86836">
        <ele>786.6</ele>
        <time>2023-07-23T12:06:34Z</time>
      </trkpt>
      <trkpt lat="42.20331" lon="0.86834">
        <ele>786.8</ele>
        <time>2023-07-23T12:06:35Z</time>
      </trkpt>
      <trkpt lat="42.20333" lon="0.86831">
        <ele>787</ele>
        <time>2023-07-23T12:06:36Z</time>
      </trkpt>
      <trkpt lat="42.20335" lon="0.86829">
        <ele>787.4</ele>
        <time>2023-07-23T12:06:37Z</time>
      </trkpt>
      <trkpt lat="42.20336" lon="0.86826">
        <ele>787.6</ele>
        <time>2023-07-23T12:06:38Z</time>
      </trkpt>
      <trkpt lat="42.20338" lon="0.86823">
        <ele>787.8</ele>
        <time>2023-07-23T12:06:39Z</time>
      </trkpt>
      <trkpt lat="42.2034" lon="0.86821">
        <ele>788</ele>
        <time>2023-07-23T12:06:40Z</time>
      </trkpt>
      <trkpt lat="42.20341" lon="0.86818">
        <ele>788.2</ele>
        <time>2023-07-23T12:06:41Z</time>
      </trkpt>
      <trkpt lat="42.20343" lon="0.86816">
        <ele>788.2</ele>
        <time>2023-07-23T12:06:42Z</time>
      </trkpt>
      <trkpt lat="42.20345" lon="0.86813">
        <ele>788.4</ele>
        <time>2023-07-23T12:06:43Z</time>
      </trkpt>
      <trkpt lat="42.20346" lon="0.86811">
        <ele>788.8</ele>
        <time>2023-07-23T12:06:44Z</time>
      </trkpt>
      <trkpt lat="42.20348" lon="0.86808">
        <ele>789</ele>
        <time>2023-07-23T12:06:45Z</time>
      </trkpt>
      <trkpt lat="42.2035" lon="0.86806">
        <ele>789.2</ele>
        <time>2023-07-23T12:06:46Z</time>
      </trkpt>
      <trkpt lat="42.20352" lon="0.86803">
        <ele>789.4</ele>
        <time>2023-07-23T12:06:47Z</time>
      </trkpt>
      <trkpt lat="42.20353" lon="0.86801">
        <ele>789.6</ele>
        <time>2023-07-23T12:06:48Z</time>
      </trkpt>
      <trkpt lat="42.20355" lon="0.86799">
        <ele>789.6</ele>
        <time>2023-07-23T12:06:49Z</time>
      </trkpt>
      <trkpt lat="42.20357" lon="0.86796">
        <ele>790</ele>
        <time>2023-07-23T12:06:50Z</time>
      </trkpt>
      <trkpt lat="42.20358" lon="0.86794">
        <ele>790.2</ele>
        <time>2023-07-23T12:06:51Z</time>
      </trkpt>
      <trkpt lat="42.2036" lon="0.86791">
        <ele>790.4</ele>
        <time>2023-07-23T12:06:52Z</time>
      </trkpt>
      <trkpt lat="42.20362" lon="0.86789">
        <ele>790.6</ele>
        <time>2023-07-23T12:06:53Z</time>
      </trkpt>
      <trkpt lat="42.20363" lon="0.86786">
        <ele>790.8</ele>
        <time>2023-07-23T12:06:54Z</time>
      </trkpt>
      <trkpt lat="42.20365" lon="0.86784">
        <ele>791.2</ele>
        <time>2023-07-23T12:06:55Z</time>
      </trkpt>
      <trkpt lat="42.20366" lon="0.86781">
        <ele>791.4</ele>
        <time>2023-07-23T12:06:56Z</time>
      </trkpt>
      <trkpt lat="42.20367" lon="0.86779">
        <ele>791.6</ele>
        <time>2023-07-23T12:06:57Z</time>
      </trkpt>
      <trkpt lat="42.20369" lon="0.86776">
        <ele>791.8</ele>
        <time>2023-07-23T12:06:58Z</time>
      </trkpt>
      <trkpt lat="42.20371" lon="0.86774">
        <ele>792</ele>
        <time>2023-07-23T12:06:59Z</time>
      </trkpt>
      <trkpt lat="42.20372" lon="0.86771">
        <ele>792.2</ele>
        <time>2023-07-23T12:07:00Z</time>
      </trkpt>
      <trkpt lat="42.20373" lon="0.86769">
        <ele>792.4</ele>
        <time>2023-07-23T12:07:01Z</time>
      </trkpt>
      <trkpt lat="42.20375" lon="0.86766">
        <ele>792.8</ele>
        <time>2023-07-23T12:07:02Z</time>
      </trkpt>
      <trkpt lat="42.20376" lon="0.86763">
        <ele>793</ele>
        <time>2023-07-23T12:07:03Z</time>
      </trkpt>
      <trkpt lat="42.20378" lon="0.86761">
        <ele>793.2</ele>
        <time>2023-07-23T12:07:04Z</time>
      </trkpt>
      <trkpt lat="42.20379" lon="0.86758">
        <ele>793.4</ele>
        <time>2023-07-23T12:07:05Z</time>
      </trkpt>
      <trkpt lat="42.2038" lon="0.86755">
        <ele>793.4</ele>
        <time>2023-07-23T12:07:06Z</time>
      </trkpt>
      <trkpt lat="42.20381" lon="0.86752">
        <ele>793.6</ele>
        <time>2023-07-23T12:07:07Z</time>
      </trkpt>
      <trkpt lat="42.20382" lon="0.86749">
        <ele>793.8</ele>
        <time>2023-07-23T12:07:08Z</time>
      </trkpt>
      <trkpt lat="42.20383" lon="0.86746">
        <ele>794</ele>
        <time>2023-07-23T12:07:09Z</time>
      </trkpt>
      <trkpt lat="42.20384" lon="0.86743">
        <ele>794.4</ele>
        <time>2023-07-23T12:07:10Z</time>
      </trkpt>
      <trkpt lat="42.20385" lon="0.8674">
        <ele>794.6</ele>
        <time>2023-07-23T12:07:11Z</time>
      </trkpt>
      <trkpt lat="42.20386" lon="0.86738">
        <ele>794.8</ele>
        <time>2023-07-23T12:07:12Z</time>
      </trkpt>
      <trkpt lat="42.20387" lon="0.86735">
        <ele>795</ele>
        <time>2023-07-23T12:07:13Z</time>
      </trkpt>
      <trkpt lat="42.20389" lon="0.86731">
        <ele>795.4</ele>
        <time>2023-07-23T12:07:14Z</time>
      </trkpt>
      <trkpt lat="42.2039" lon="0.86729">
        <ele>795.8</ele>
        <time>2023-07-23T12:07:15Z</time>
      </trkpt>
      <trkpt lat="42.20391" lon="0.86725">
        <ele>796</ele>
        <time>2023-07-23T12:07:16Z</time>
      </trkpt>
      <trkpt lat="42.20392" lon="0.86722">
        <ele>796.4</ele>
        <time>2023-07-23T12:07:17Z</time>
      </trkpt>
      <trkpt lat="42.20393" lon="0.86719">
        <ele>796.6</ele>
        <time>2023-07-23T12:07:18Z</time>
      </trkpt>
      <trkpt lat="42.20394" lon="0.86716">
        <ele>796.8</ele>
        <time>2023-07-23T12:07:19Z</time>
      </trkpt>
      <trkpt lat="42.20394" lon="0.86713">
        <ele>797</ele>
        <time>2023-07-23T12:07:20Z</time>
      </trkpt>
      <trkpt lat="42.20395" lon="0.8671">
        <ele>797</ele>
        <time>2023-07-23T12:07:21Z</time>
      </trkpt>
      <trkpt lat="42.20396" lon="0.86707">
        <ele>797.4</ele>
        <time>2023-07-23T12:07:22Z</time>
      </trkpt>
      <trkpt lat="42.20397" lon="0.86704">
        <ele>797.6</ele>
        <time>2023-07-23T12:07:23Z</time>
      </trkpt>
      <trkpt lat="42.20398" lon="0.86701">
        <ele>797.8</ele>
        <time>2023-07-23T12:07:24Z</time>
      </trkpt>
      <trkpt lat="42.20399" lon="0.86698">
        <ele>797.8</ele>
        <time>2023-07-23T12:07:25Z</time>
      </trkpt>
      <trkpt lat="42.20401" lon="0.86695">
        <ele>798</ele>
        <time>2023-07-23T12:07:26Z</time>
      </trkpt>
      <trkpt lat="42.20402" lon="0.86692">
        <ele>798.2</ele>
        <time>2023-07-23T12:07:27Z</time>
      </trkpt>
      <trkpt lat="42.20403" lon="0.86689">
        <ele>798.4</ele>
        <time>2023-07-23T12:07:28Z</time>
      </trkpt>
      <trkpt lat="42.20404" lon="0.86686">
        <ele>798.6</ele>
        <time>2023-07-23T12:07:29Z</time>
      </trkpt>
      <trkpt lat="42.20405" lon="0.86683">
        <ele>798.8</ele>
        <time>2023-07-23T12:07:30Z</time>
      </trkpt>
      <trkpt lat="42.20406" lon="0.8668">
        <ele>799</ele>
        <time>2023-07-23T12:07:31Z</time>
      </trkpt>
      <trkpt lat="42.20407" lon="0.86678">
        <ele>799.2</ele>
        <time>2023-07-23T12:07:32Z</time>
      </trkpt>
      <trkpt lat="42.20408" lon="0.86675">
        <ele>799.4</ele>
        <time>2023-07-23T12:07:33Z</time>
      </trkpt>
      <trkpt lat="42.20409" lon="0.86672">
        <ele>799.8</ele>
        <time>2023-07-23T12:07:34Z</time>
      </trkpt>
      <trkpt lat="42.20411" lon="0.86668">
        <ele>800.2</ele>
        <time>2023-07-23T12:07:35Z</time>
      </trkpt>
      <trkpt lat="42.20412" lon="0.86665">
        <ele>800.4</ele>
        <time>2023-07-23T12:07:36Z</time>
      </trkpt>
      <trkpt lat="42.20413" lon="0.86662">
        <ele>800.6</ele>
        <time>2023-07-23T12:07:37Z</time>
      </trkpt>
      <trkpt lat="42.20415" lon="0.86659">
        <ele>800.6</ele>
        <time>2023-07-23T12:07:38Z</time>
      </trkpt>
      <trkpt lat="42.20416" lon="0.86656">
        <ele>800.8</ele>
        <time>2023-07-23T12:07:39Z</time>
      </trkpt>
      <trkpt lat="42.20417" lon="0.86653">
        <ele>801.2</ele>
        <time>2023-07-23T12:07:40Z</time>
      </trkpt>
      <trkpt lat="42.20418" lon="0.86651">
        <ele>801.4</ele>
        <time>2023-07-23T12:07:41Z</time>
      </trkpt>
      <trkpt lat="42.20419" lon="0.86648">
        <ele>801.8</ele>
        <time>2023-07-23T12:07:42Z</time>
      </trkpt>
      <trkpt lat="42.20421" lon="0.86645">
        <ele>801.8</ele>
        <time>2023-07-23T12:07:43Z</time>
      </trkpt>
      <trkpt lat="42.20422" lon="0.86642">
        <ele>802</ele>
        <time>2023-07-23T12:07:44Z</time>
      </trkpt>
      <trkpt lat="42.20424" lon="0.86639">
        <ele>802</ele>
        <time>2023-07-23T12:07:45Z</time>
      </trkpt>
      <trkpt lat="42.20425" lon="0.86636">
        <ele>802.2</ele>
        <time>2023-07-23T12:07:46Z</time>
      </trkpt>
      <trkpt lat="42.20427" lon="0.86633">
        <ele>802.4</ele>
        <time>2023-07-23T12:07:47Z</time>
      </trkpt>
      <trkpt lat="42.20429" lon="0.86631">
        <ele>802.6</ele>
        <time>2023-07-23T12:07:48Z</time>
      </trkpt>
      <trkpt lat="42.2043" lon="0.86628">
        <ele>802.8</ele>
        <time>2023-07-23T12:07:49Z</time>
      </trkpt>
      <trkpt lat="42.20432" lon="0.86625">
        <ele>803</ele>
        <time>2023-07-23T12:07:50Z</time>
      </trkpt>
      <trkpt lat="42.20433" lon="0.86623">
        <ele>803</ele>
        <time>2023-07-23T12:07:51Z</time>
      </trkpt>
      <trkpt lat="42.20435" lon="0.8662">
        <ele>803.4</ele>
        <time>2023-07-23T12:07:52Z</time>
      </trkpt>
      <trkpt lat="42.20437" lon="0.86617">
        <ele>803.6</ele>
        <time>2023-07-23T12:07:53Z</time>
      </trkpt>
      <trkpt lat="42.20438" lon="0.86615">
        <ele>803.8</ele>
        <time>2023-07-23T12:07:54Z</time>
      </trkpt>
      <trkpt lat="42.2044" lon="0.86612">
        <ele>804</ele>
        <time>2023-07-23T12:07:55Z</time>
      </trkpt>
      <trkpt lat="42.20442" lon="0.86609">
        <ele>804</ele>
        <time>2023-07-23T12:07:56Z</time>
      </trkpt>
      <trkpt lat="42.20443" lon="0.86606">
        <ele>804.2</ele>
        <time>2023-07-23T12:07:57Z</time>
      </trkpt>
      <trkpt lat="42.20445" lon="0.86604">
        <ele>804.4</ele>
        <time>2023-07-23T12:07:58Z</time>
      </trkpt>
      <trkpt lat="42.20447" lon="0.86602">
        <ele>804.4</ele>
        <time>2023-07-23T12:07:59Z</time>
      </trkpt>
      <trkpt lat="42.20448" lon="0.86599">
        <ele>804.8</ele>
        <time>2023-07-23T12:08:00Z</time>
      </trkpt>
      <trkpt lat="42.2045" lon="0.86597">
        <ele>805.2</ele>
        <time>2023-07-23T12:08:01Z</time>
      </trkpt>
      <trkpt lat="42.20452" lon="0.86594">
        <ele>805.4</ele>
        <time>2023-07-23T12:08:02Z</time>
      </trkpt>
      <trkpt lat="42.20454" lon="0.86591">
        <ele>805.6</ele>
        <time>2023-07-23T12:08:03Z</time>
      </trkpt>
      <trkpt lat="42.20455" lon="0.86589">
        <ele>805.6</ele>
        <time>2023-07-23T12:08:04Z</time>
      </trkpt>
      <trkpt lat="42.20457" lon="0.86586">
        <ele>805.8</ele>
        <time>2023-07-23T12:08:05Z</time>
      </trkpt>
      <trkpt lat="42.20458" lon="0.86583">
        <ele>806</ele>
        <time>2023-07-23T12:08:06Z</time>
      </trkpt>
      <trkpt lat="42.2046" lon="0.8658">
        <ele>806.2</ele>
        <time>2023-07-23T12:08:07Z</time>
      </trkpt>
      <trkpt lat="42.20461" lon="0.86578">
        <ele>806.2</ele>
        <time>2023-07-23T12:08:08Z</time>
      </trkpt>
      <trkpt lat="42.20463" lon="0.86575">
        <ele>806.4</ele>
        <time>2023-07-23T12:08:09Z</time>
      </trkpt>
      <trkpt lat="42.20464" lon="0.86572">
        <ele>806.6</ele>
        <time>2023-07-23T12:08:10Z</time>
      </trkpt>
      <trkpt lat="42.20466" lon="0.86569">
        <ele>806.8</ele>
        <time>2023-07-23T12:08:11Z</time>
      </trkpt>
      <trkpt lat="42.20467" lon="0.86566">
        <ele>807.2</ele>
        <time>2023-07-23T12:08:12Z</time>
      </trkpt>
      <trkpt lat="42.20468" lon="0.86564">
        <ele>807.2</ele>
        <time>2023-07-23T12:08:13Z</time>
      </trkpt>
      <trkpt lat="42.2047" lon="0.86561">
        <ele>807.6</ele>
        <time>2023-07-23T12:08:14Z</time>
      </trkpt>
      <trkpt lat="42.20471" lon="0.86558">
        <ele>807.8</ele>
        <time>2023-07-23T12:08:15Z</time>
      </trkpt>
      <trkpt lat="42.20473" lon="0.86555">
        <ele>807.8</ele>
        <time>2023-07-23T12:08:16Z</time>
      </trkpt>
      <trkpt lat="42.20474" lon="0.86552">
        <ele>808</ele>
        <time>2023-07-23T12:08:17Z</time>
      </trkpt>
      <trkpt lat="42.20476" lon="0.86549">
        <ele>808</ele>
        <time>2023-07-23T12:08:18Z</time>
      </trkpt>
      <trkpt lat="42.20477" lon="0.86546">
        <ele>808.6</ele>
        <time>2023-07-23T12:08:19Z</time>
      </trkpt>
      <trkpt lat="42.20479" lon="0.86543">
        <ele>808.8</ele>
        <time>2023-07-23T12:08:20Z</time>
      </trkpt>
      <trkpt lat="42.2048" lon="0.8654">
        <ele>809</ele>
        <time>2023-07-23T12:08:21Z</time>
      </trkpt>
      <trkpt lat="42.20482" lon="0.86537">
        <ele>809.2</ele>
        <time>2023-07-23T12:08:22Z</time>
      </trkpt>
      <trkpt lat="42.20483" lon="0.86534">
        <ele>809.2</ele>
        <time>2023-07-23T12:08:23Z</time>
      </trkpt>
      <trkpt lat="42.20484" lon="0.86532">
        <ele>809.6</ele>
        <time>2023-07-23T12:08:24Z</time>
      </trkpt>
      <trkpt lat="42.20486" lon="0.86529">
        <ele>809.8</ele>
        <time>2023-07-23T12:08:25Z</time>
      </trkpt>
      <trkpt lat="42.20487" lon="0.86527">
        <ele>810.2</ele>
        <time>2023-07-23T12:08:26Z</time>
      </trkpt>
      <trkpt lat="42.20488" lon="0.86524">
        <ele>810.2</ele>
        <time>2023-07-23T12:08:27Z</time>
      </trkpt>
      <trkpt lat="42.2049" lon="0.86521">
        <ele>810.4</ele>
        <time>2023-07-23T12:08:28Z</time>
      </trkpt>
      <trkpt lat="42.20492" lon="0.86519">
        <ele>811</ele>
        <time>2023-07-23T12:08:29Z</time>
      </trkpt>
      <trkpt lat="42.20493" lon="0.86517">
        <ele>811.2</ele>
        <time>2023-07-23T12:08:30Z</time>
      </trkpt>
      <trkpt lat="42.20495" lon="0.86514">
        <ele>811.6</ele>
        <time>2023-07-23T12:08:31Z</time>
      </trkpt>
      <trkpt lat="42.20497" lon="0.86511">
        <ele>811.8</ele>
        <time>2023-07-23T12:08:32Z</time>
      </trkpt>
      <trkpt lat="42.20499" lon="0.86508">
        <ele>812</ele>
        <time>2023-07-23T12:08:33Z</time>
      </trkpt>
      <trkpt lat="42.205" lon="0.86505">
        <ele>812</ele>
        <time>2023-07-23T12:08:34Z</time>
      </trkpt>
      <trkpt lat="42.20502" lon="0.86502">
        <ele>812.2</ele>
        <time>2023-07-23T12:08:35Z</time>
      </trkpt>
      <trkpt lat="42.20503" lon="0.86499">
        <ele>812.4</ele>
        <time>2023-07-23T12:08:36Z</time>
      </trkpt>
      <trkpt lat="42.20504" lon="0.86497">
        <ele>812.6</ele>
        <time>2023-07-23T12:08:37Z</time>
      </trkpt>
      <trkpt lat="42.20506" lon="0.86494">
        <ele>812.8</ele>
        <time>2023-07-23T12:08:38Z</time>
      </trkpt>
      <trkpt lat="42.20508" lon="0.86492">
        <ele>813</ele>
        <time>2023-07-23T12:08:39Z</time>
      </trkpt>
      <trkpt lat="42.20509" lon="0.86489">
        <ele>813.2</ele>
        <time>2023-07-23T12:08:40Z</time>
      </trkpt>
      <trkpt lat="42.20511" lon="0.86486">
        <ele>813.6</ele>
        <time>2023-07-23T12:08:41Z</time>
      </trkpt>
      <trkpt lat="42.20512" lon="0.86483">
        <ele>813.8</ele>
        <time>2023-07-23T12:08:42Z</time>
      </trkpt>
      <trkpt lat="42.20514" lon="0.8648">
        <ele>814</ele>
        <time>2023-07-23T12:08:43Z</time>
      </trkpt>
      <trkpt lat="42.20515" lon="0.86477">
        <ele>814.2</ele>
        <time>2023-07-23T12:08:44Z</time>
      </trkpt>
      <trkpt lat="42.20517" lon="0.86474">
        <ele>814.2</ele>
        <time>2023-07-23T12:08:45Z</time>
      </trkpt>
      <trkpt lat="42.20518" lon="0.86472">
        <ele>814.2</ele>
        <time>2023-07-23T12:08:46Z</time>
      </trkpt>
      <trkpt lat="42.20519" lon="0.86469">
        <ele>814.4</ele>
        <time>2023-07-23T12:08:47Z</time>
      </trkpt>
      <trkpt lat="42.20521" lon="0.86466">
        <ele>814.6</ele>
        <time>2023-07-23T12:08:48Z</time>
      </trkpt>
      <trkpt lat="42.20522" lon="0.86464">
        <ele>814.8</ele>
        <time>2023-07-23T12:08:49Z</time>
      </trkpt>
      <trkpt lat="42.20524" lon="0.8646">
        <ele>815</ele>
        <time>2023-07-23T12:08:50Z</time>
      </trkpt>
      <trkpt lat="42.20525" lon="0.86457">
        <ele>815.2</ele>
        <time>2023-07-23T12:08:51Z</time>
      </trkpt>
      <trkpt lat="42.20526" lon="0.86454">
        <ele>815.2</ele>
        <time>2023-07-23T12:08:52Z</time>
      </trkpt>
      <trkpt lat="42.20527" lon="0.86451">
        <ele>815.4</ele>
        <time>2023-07-23T12:08:53Z</time>
      </trkpt>
      <trkpt lat="42.20529" lon="0.86448">
        <ele>815.8</ele>
        <time>2023-07-23T12:08:54Z</time>
      </trkpt>
      <trkpt lat="42.20531" lon="0.86445">
        <ele>816</ele>
        <time>2023-07-23T12:08:55Z</time>
      </trkpt>
      <trkpt lat="42.20532" lon="0.86443">
        <ele>816.4</ele>
        <time>2023-07-23T12:08:56Z</time>
      </trkpt>
      <trkpt lat="42.20533" lon="0.8644">
        <ele>816.8</ele>
        <time>2023-07-23T12:08:57Z</time>
      </trkpt>
      <trkpt lat="42.20535" lon="0.86437">
        <ele>816.8</ele>
        <time>2023-07-23T12:08:58Z</time>
      </trkpt>
      <trkpt lat="42.20536" lon="0.86435">
        <ele>817.2</ele>
        <time>2023-07-23T12:08:59Z</time>
      </trkpt>
      <trkpt lat="42.20538" lon="0.86432">
        <ele>817.2</ele>
        <time>2023-07-23T12:09:00Z</time>
      </trkpt>
      <trkpt lat="42.20539" lon="0.86429">
        <ele>817.4</ele>
        <time>2023-07-23T12:09:01Z</time>
      </trkpt>
      <trkpt lat="42.20541" lon="0.86427">
        <ele>817.6</ele>
        <time>2023-07-23T12:09:02Z</time>
      </trkpt>
      <trkpt lat="42.20542" lon="0.86424">
        <ele>817.6</ele>
        <time>2023-07-23T12:09:03Z</time>
      </trkpt>
      <trkpt lat="42.20544" lon="0.86421">
        <ele>817.8</ele>
        <time>2023-07-23T12:09:04Z</time>
      </trkpt>
      <trkpt lat="42.20545" lon="0.86418">
        <ele>818</ele>
        <time>2023-07-23T12:09:05Z</time>
      </trkpt>
      <trkpt lat="42.20547" lon="0.86416">
        <ele>818.2</ele>
        <time>2023-07-23T12:09:06Z</time>
      </trkpt>
      <trkpt lat="42.20548" lon="0.86413">
        <ele>818.4</ele>
        <time>2023-07-23T12:09:07Z</time>
      </trkpt>
      <trkpt lat="42.2055" lon="0.8641">
        <ele>818.6</ele>
        <time>2023-07-23T12:09:08Z</time>
      </trkpt>
      <trkpt lat="42.20551" lon="0.86408">
        <ele>818.8</ele>
        <time>2023-07-23T12:09:09Z</time>
      </trkpt>
      <trkpt lat="42.20553" lon="0.86406">
        <ele>819</ele>
        <time>2023-07-23T12:09:10Z</time>
      </trkpt>
      <trkpt lat="42.20554" lon="0.86404">
        <ele>819</ele>
        <time>2023-07-23T12:09:11Z</time>
      </trkpt>
      <trkpt lat="42.20556" lon="0.86401">
        <ele>819.6</ele>
        <time>2023-07-23T12:09:12Z</time>
      </trkpt>
      <trkpt lat="42.20558" lon="0.86399">
        <ele>819.6</ele>
        <time>2023-07-23T12:09:13Z</time>
      </trkpt>
      <trkpt lat="42.2056" lon="0.86397">
        <ele>819.8</ele>
        <time>2023-07-23T12:09:14Z</time>
      </trkpt>
      <trkpt lat="42.20562" lon="0.86395">
        <ele>819.6</ele>
        <time>2023-07-23T12:09:15Z</time>
      </trkpt>
      <trkpt lat="42.20564" lon="0.86393">
        <ele>819.8</ele>
        <time>2023-07-23T12:09:16Z</time>
      </trkpt>
      <trkpt lat="42.20565" lon="0.8639">
        <ele>820</ele>
        <time>2023-07-23T12:09:17Z</time>
      </trkpt>
      <trkpt lat="42.20567" lon="0.86388">
        <ele>820</ele>
        <time>2023-07-23T12:09:18Z</time>
      </trkpt>
      <trkpt lat="42.20569" lon="0.86385">
        <ele>820.2</ele>
        <time>2023-07-23T12:09:19Z</time>
      </trkpt>
      <trkpt lat="42.20571" lon="0.86383">
        <ele>820.6</ele>
        <time>2023-07-23T12:09:20Z</time>
      </trkpt>
      <trkpt lat="42.20573" lon="0.8638">
        <ele>820.8</ele>
        <time>2023-07-23T12:09:21Z</time>
      </trkpt>
      <trkpt lat="42.20574" lon="0.86378">
        <ele>821</ele>
        <time>2023-07-23T12:09:22Z</time>
      </trkpt>
      <trkpt lat="42.20576" lon="0.86376">
        <ele>821</ele>
        <time>2023-07-23T12:09:23Z</time>
      </trkpt>
      <trkpt lat="42.20578" lon="0.86374">
        <ele>821.4</ele>
        <time>2023-07-23T12:09:24Z</time>
      </trkpt>
      <trkpt lat="42.2058" lon="0.86371">
        <ele>821.6</ele>
        <time>2023-07-23T12:09:25Z</time>
      </trkpt>
      <trkpt lat="42.20582" lon="0.86369">
        <ele>821.8</ele>
        <time>2023-07-23T12:09:26Z</time>
      </trkpt>
      <trkpt lat="42.20583" lon="0.86367">
        <ele>822</ele>
        <time>2023-07-23T12:09:27Z</time>
      </trkpt>
      <trkpt lat="42.20585" lon="0.86365">
        <ele>822</ele>
        <time>2023-07-23T12:09:28Z</time>
      </trkpt>
      <trkpt lat="42.20587" lon="0.86363">
        <ele>822.2</ele>
        <time>2023-07-23T12:09:29Z</time>
      </trkpt>
      <trkpt lat="42.20589" lon="0.86361">
        <ele>822.2</ele>
        <time>2023-07-23T12:09:30Z</time>
      </trkpt>
      <trkpt lat="42.2059" lon="0.86359">
        <ele>822.4</ele>
        <time>2023-07-23T12:09:31Z</time>
      </trkpt>
      <trkpt lat="42.20592" lon="0.86357">
        <ele>822.6</ele>
        <time>2023-07-23T12:09:32Z</time>
      </trkpt>
      <trkpt lat="42.20593" lon="0.86354">
        <ele>822.8</ele>
        <time>2023-07-23T12:09:33Z</time>
      </trkpt>
      <trkpt lat="42.20595" lon="0.86352">
        <ele>823</ele>
        <time>2023-07-23T12:09:34Z</time>
      </trkpt>
      <trkpt lat="42.20597" lon="0.8635">
        <ele>823.2</ele>
        <time>2023-07-23T12:09:35Z</time>
      </trkpt>
      <trkpt lat="42.20598" lon="0.86347">
        <ele>823.4</ele>
        <time>2023-07-23T12:09:36Z</time>
      </trkpt>
      <trkpt lat="42.206" lon="0.86345">
        <ele>823.6</ele>
        <time>2023-07-23T12:09:37Z</time>
      </trkpt>
      <trkpt lat="42.20601" lon="0.86343">
        <ele>823.6</ele>
        <time>2023-07-23T12:09:38Z</time>
      </trkpt>
      <trkpt lat="42.20603" lon="0.86341">
        <ele>823.8</ele>
        <time>2023-07-23T12:09:39Z</time>
      </trkpt>
      <trkpt lat="42.20605" lon="0.86339">
        <ele>823.8</ele>
        <time>2023-07-23T12:09:40Z</time>
      </trkpt>
      <trkpt lat="42.20606" lon="0.86336">
        <ele>824.2</ele>
        <time>2023-07-23T12:09:41Z</time>
      </trkpt>
      <trkpt lat="42.20608" lon="0.86334">
        <ele>824.6</ele>
        <time>2023-07-23T12:09:42Z</time>
      </trkpt>
      <trkpt lat="42.20609" lon="0.86332">
        <ele>824.6</ele>
        <time>2023-07-23T12:09:43Z</time>
      </trkpt>
      <trkpt lat="42.20611" lon="0.86329">
        <ele>825</ele>
        <time>2023-07-23T12:09:44Z</time>
      </trkpt>
      <trkpt lat="42.20612" lon="0.86327">
        <ele>825</ele>
        <time>2023-07-23T12:09:45Z</time>
      </trkpt>
      <trkpt lat="42.20614" lon="0.86325">
        <ele>825.4</ele>
        <time>2023-07-23T12:09:46Z</time>
      </trkpt>
      <trkpt lat="42.20616" lon="0.86323">
        <ele>825.8</ele>
        <time>2023-07-23T12:09:47Z</time>
      </trkpt>
      <trkpt lat="42.20617" lon="0.8632">
        <ele>825.8</ele>
        <time>2023-07-23T12:09:48Z</time>
      </trkpt>
      <trkpt lat="42.20619" lon="0.86318">
        <ele>825.8</ele>
        <time>2023-07-23T12:09:49Z</time>
      </trkpt>
      <trkpt lat="42.20621" lon="0.86316">
        <ele>826</ele>
        <time>2023-07-23T12:09:50Z</time>
      </trkpt>
      <trkpt lat="42.20623" lon="0.86313">
        <ele>826.2</ele>
        <time>2023-07-23T12:09:51Z</time>
      </trkpt>
      <trkpt lat="42.20624" lon="0.86311">
        <ele>826.6</ele>
        <time>2023-07-23T12:09:52Z</time>
      </trkpt>
      <trkpt lat="42.20626" lon="0.86308">
        <ele>826.6</ele>
        <time>2023-07-23T12:09:53Z</time>
      </trkpt>
      <trkpt lat="42.20628" lon="0.86305">
        <ele>827</ele>
        <time>2023-07-23T12:09:54Z</time>
      </trkpt>
      <trkpt lat="42.20629" lon="0.86302">
        <ele>827</ele>
        <time>2023-07-23T12:09:55Z</time>
      </trkpt>
      <trkpt lat="42.20631" lon="0.863">
        <ele>827.6</ele>
        <time>2023-07-23T12:09:56Z</time>
      </trkpt>
      <trkpt lat="42.20632" lon="0.86296">
        <ele>828</ele>
        <time>2023-07-23T12:09:57Z</time>
      </trkpt>
      <trkpt lat="42.20634" lon="0.86293">
        <ele>828.2</ele>
        <time>2023-07-23T12:09:58Z</time>
      </trkpt>
      <trkpt lat="42.20635" lon="0.8629">
        <ele>828.4</ele>
        <time>2023-07-23T12:09:59Z</time>
      </trkpt>
      <trkpt lat="42.20636" lon="0.86288">
        <ele>828.6</ele>
        <time>2023-07-23T12:10:00Z</time>
      </trkpt>
      <trkpt lat="42.20638" lon="0.86286">
        <ele>829</ele>
        <time>2023-07-23T12:10:01Z</time>
      </trkpt>
      <trkpt lat="42.20639" lon="0.86283">
        <ele>829.2</ele>
        <time>2023-07-23T12:10:02Z</time>
      </trkpt>
      <trkpt lat="42.20641" lon="0.8628">
        <ele>829.6</ele>
        <time>2023-07-23T12:10:03Z</time>
      </trkpt>
      <trkpt lat="42.20642" lon="0.86278">
        <ele>829.8</ele>
        <time>2023-07-23T12:10:04Z</time>
      </trkpt>
      <trkpt lat="42.20644" lon="0.86275">
        <ele>830</ele>
        <time>2023-07-23T12:10:05Z</time>
      </trkpt>
      <trkpt lat="42.20645" lon="0.86273">
        <ele>830.2</ele>
        <time>2023-07-23T12:10:06Z</time>
      </trkpt>
      <trkpt lat="42.20646" lon="0.8627">
        <ele>830.4</ele>
        <time>2023-07-23T12:10:07Z</time>
      </trkpt>
      <trkpt lat="42.20647" lon="0.86267">
        <ele>830.8</ele>
        <time>2023-07-23T12:10:08Z</time>
      </trkpt>
      <trkpt lat="42.20648" lon="0.86265">
        <ele>831</ele>
        <time>2023-07-23T12:10:09Z</time>
      </trkpt>
      <trkpt lat="42.20649" lon="0.86262">
        <ele>831.2</ele>
        <time>2023-07-23T12:10:10Z</time>
      </trkpt>
      <trkpt lat="42.20651" lon="0.8626">
        <ele>831.4</ele>
        <time>2023-07-23T12:10:11Z</time>
      </trkpt>
      <trkpt lat="42.20652" lon="0.86257">
        <ele>831.4</ele>
        <time>2023-07-23T12:10:12Z</time>
      </trkpt>
      <trkpt lat="42.20653" lon="0.86255">
        <ele>831.6</ele>
        <time>2023-07-23T12:10:13Z</time>
      </trkpt>
      <trkpt lat="42.20654" lon="0.86252">
        <ele>832.2</ele>
        <time>2023-07-23T12:10:14Z</time>
      </trkpt>
      <trkpt lat="42.20655" lon="0.8625">
        <ele>832.4</ele>
        <time>2023-07-23T12:10:15Z</time>
      </trkpt>
      <trkpt lat="42.20656" lon="0.86247">
        <ele>832.6</ele>
        <time>2023-07-23T12:10:16Z</time>
      </trkpt>
      <trkpt lat="42.20657" lon="0.86244">
        <ele>832.6</ele>
        <time>2023-07-23T12:10:17Z</time>
      </trkpt>
      <trkpt lat="42.20658" lon="0.86241">
        <ele>833</ele>
        <time>2023-07-23T12:10:18Z</time>
      </trkpt>
      <trkpt lat="42.20659" lon="0.86237">
        <ele>833.4</ele>
        <time>2023-07-23T12:10:19Z</time>
      </trkpt>
      <trkpt lat="42.20661" lon="0.86234">
        <ele>833.4</ele>
        <time>2023-07-23T12:10:20Z</time>
      </trkpt>
      <trkpt lat="42.20662" lon="0.86231">
        <ele>833.6</ele>
        <time>2023-07-23T12:10:21Z</time>
      </trkpt>
      <trkpt lat="42.20664" lon="0.86229">
        <ele>833.8</ele>
        <time>2023-07-23T12:10:22Z</time>
      </trkpt>
      <trkpt lat="42.20665" lon="0.86226">
        <ele>834</ele>
        <time>2023-07-23T12:10:23Z</time>
      </trkpt>
      <trkpt lat="42.20667" lon="0.86223">
        <ele>834.4</ele>
        <time>2023-07-23T12:10:24Z</time>
      </trkpt>
      <trkpt lat="42.20668" lon="0.86221">
        <ele>834.4</ele>
        <time>2023-07-23T12:10:25Z</time>
      </trkpt>
      <trkpt lat="42.20669" lon="0.86218">
        <ele>835</ele>
        <time>2023-07-23T12:10:26Z</time>
      </trkpt>
      <trkpt lat="42.2067" lon="0.86216">
        <ele>835</ele>
        <time>2023-07-23T12:10:27Z</time>
      </trkpt>
      <trkpt lat="42.20672" lon="0.86213">
        <ele>835.2</ele>
        <time>2023-07-23T12:10:28Z</time>
      </trkpt>
      <trkpt lat="42.20673" lon="0.86211">
        <ele>835.4</ele>
        <time>2023-07-23T12:10:29Z</time>
      </trkpt>
      <trkpt lat="42.20674" lon="0.86208">
        <ele>835.4</ele>
        <time>2023-07-23T12:10:30Z</time>
      </trkpt>
      <trkpt lat="42.20676" lon="0.86205">
        <ele>835.6</ele>
        <time>2023-07-23T12:10:31Z</time>
      </trkpt>
      <trkpt lat="42.20677" lon="0.86202">
        <ele>835.6</ele>
        <time>2023-07-23T12:10:32Z</time>
      </trkpt>
      <trkpt lat="42.20679" lon="0.862">
        <ele>836</ele>
        <time>2023-07-23T12:10:33Z</time>
      </trkpt>
      <trkpt lat="42.2068" lon="0.86197">
        <ele>836.2</ele>
        <time>2023-07-23T12:10:34Z</time>
      </trkpt>
      <trkpt lat="42.20682" lon="0.86194">
        <ele>836.2</ele>
        <time>2023-07-23T12:10:35Z</time>
      </trkpt>
      <trkpt lat="42.20683" lon="0.86192">
        <ele>836.6</ele>
        <time>2023-07-23T12:10:36Z</time>
      </trkpt>
      <trkpt lat="42.20685" lon="0.86189">
        <ele>836.8</ele>
        <time>2023-07-23T12:10:37Z</time>
      </trkpt>
      <trkpt lat="42.20686" lon="0.86187">
        <ele>837.2</ele>
        <time>2023-07-23T12:10:38Z</time>
      </trkpt>
      <trkpt lat="42.20687" lon="0.86184">
        <ele>837.6</ele>
        <time>2023-07-23T12:10:39Z</time>
      </trkpt>
      <trkpt lat="42.20689" lon="0.86181">
        <ele>837.6</ele>
        <time>2023-07-23T12:10:40Z</time>
      </trkpt>
      <trkpt lat="42.2069" lon="0.86178">
        <ele>837.8</ele>
        <time>2023-07-23T12:10:41Z</time>
      </trkpt>
      <trkpt lat="42.20692" lon="0.86175">
        <ele>838</ele>
        <time>2023-07-23T12:10:42Z</time>
      </trkpt>
      <trkpt lat="42.20693" lon="0.86173">
        <ele>838.2</ele>
        <time>2023-07-23T12:10:43Z</time>
      </trkpt>
      <trkpt lat="42.20694" lon="0.8617">
        <ele>838.4</ele>
        <time>2023-07-23T12:10:44Z</time>
      </trkpt>
      <trkpt lat="42.20696" lon="0.86167">
        <ele>838.4</ele>
        <time>2023-07-23T12:10:45Z</time>
      </trkpt>
      <trkpt lat="42.20697" lon="0.86165">
        <ele>838.8</ele>
        <time>2023-07-23T12:10:46Z</time>
      </trkpt>
      <trkpt lat="42.20698" lon="0.86162">
        <ele>839.2</ele>
        <time>2023-07-23T12:10:47Z</time>
      </trkpt>
      <trkpt lat="42.207" lon="0.86159">
        <ele>839.6</ele>
        <time>2023-07-23T12:10:48Z</time>
      </trkpt>
      <trkpt lat="42.20701" lon="0.86156">
        <ele>839.8</ele>
        <time>2023-07-23T12:10:49Z</time>
      </trkpt>
      <trkpt lat="42.20703" lon="0.86153">
        <ele>840</ele>
        <time>2023-07-23T12:10:50Z</time>
      </trkpt>
      <trkpt lat="42.20704" lon="0.8615">
        <ele>840.2</ele>
        <time>2023-07-23T12:10:51Z</time>
      </trkpt>
      <trkpt lat="42.20706" lon="0.86147">
        <ele>840.4</ele>
        <time>2023-07-23T12:10:52Z</time>
      </trkpt>
      <trkpt lat="42.20707" lon="0.86144">
        <ele>840.8</ele>
        <time>2023-07-23T12:10:53Z</time>
      </trkpt>
      <trkpt lat="42.20709" lon="0.86141">
        <ele>841.4</ele>
        <time>2023-07-23T12:10:54Z</time>
      </trkpt>
      <trkpt lat="42.2071" lon="0.86138">
        <ele>841.6</ele>
        <time>2023-07-23T12:10:55Z</time>
      </trkpt>
      <trkpt lat="42.20712" lon="0.86135">
        <ele>842</ele>
        <time>2023-07-23T12:10:56Z</time>
      </trkpt>
      <trkpt lat="42.20714" lon="0.86132">
        <ele>842.2</ele>
        <time>2023-07-23T12:10:57Z</time>
      </trkpt>
      <trkpt lat="42.20715" lon="0.86129">
        <ele>842.4</ele>
        <time>2023-07-23T12:10:58Z</time>
      </trkpt>
      <trkpt lat="42.20716" lon="0.86126">
        <ele>842.6</ele>
        <time>2023-07-23T12:10:59Z</time>
      </trkpt>
      <trkpt lat="42.20717" lon="0.86123">
        <ele>842.8</ele>
        <time>2023-07-23T12:11:00Z</time>
      </trkpt>
      <trkpt lat="42.20719" lon="0.8612">
        <ele>843.2</ele>
        <time>2023-07-23T12:11:01Z</time>
      </trkpt>
      <trkpt lat="42.2072" lon="0.86117">
        <ele>843.2</ele>
        <time>2023-07-23T12:11:02Z</time>
      </trkpt>
      <trkpt lat="42.20722" lon="0.86115">
        <ele>843.4</ele>
        <time>2023-07-23T12:11:03Z</time>
      </trkpt>
      <trkpt lat="42.20723" lon="0.86112">
        <ele>843.8</ele>
        <time>2023-07-23T12:11:04Z</time>
      </trkpt>
      <trkpt lat="42.20725" lon="0.86109">
        <ele>844</ele>
        <time>2023-07-23T12:11:05Z</time>
      </trkpt>
      <trkpt lat="42.20726" lon="0.86107">
        <ele>844.4</ele>
        <time>2023-07-23T12:11:06Z</time>
      </trkpt>
      <trkpt lat="42.20727" lon="0.86104">
        <ele>844.6</ele>
        <time>2023-07-23T12:11:07Z</time>
      </trkpt>
      <trkpt lat="42.20728" lon="0.86102">
        <ele>844.8</ele>
        <time>2023-07-23T12:11:08Z</time>
      </trkpt>
      <trkpt lat="42.20729" lon="0.861">
        <ele>845</ele>
        <time>2023-07-23T12:11:09Z</time>
      </trkpt>
      <trkpt lat="42.2073" lon="0.86098">
        <ele>845</ele>
        <time>2023-07-23T12:11:10Z</time>
      </trkpt>
      <trkpt lat="42.2073" lon="0.86097">
        <ele>845.4</ele>
        <time>2023-07-23T12:11:11Z</time>
      </trkpt>
      <trkpt lat="42.2073" lon="0.86096">
        <ele>845.4</ele>
        <time>2023-07-23T12:11:12Z</time>
      </trkpt>
      <trkpt lat="42.20731" lon="0.86095">
        <ele>845.8</ele>
        <time>2023-07-23T12:11:13Z</time>
      </trkpt>
      <trkpt lat="42.20731" lon="0.86094">
        <ele>846</ele>
        <time>2023-07-23T12:11:14Z</time>
      </trkpt>
      <trkpt lat="42.20731" lon="0.86092">
        <ele>846</ele>
        <time>2023-07-23T12:11:15Z</time>
      </trkpt>
      <trkpt lat="42.20732" lon="0.86091">
        <ele>846</ele>
        <time>2023-07-23T12:11:16Z</time>
      </trkpt>
      <trkpt lat="42.20732" lon="0.8609">
        <ele>846</ele>
        <time>2023-07-23T12:11:17Z</time>
      </trkpt>
      <trkpt lat="42.20733" lon="0.86089">
        <ele>846.2</ele>
        <time>2023-07-23T12:11:18Z</time>
      </trkpt>
      <trkpt lat="42.20733" lon="0.86088">
        <ele>846.2</ele>
        <time>2023-07-23T12:11:19Z</time>
      </trkpt>
      <trkpt lat="42.20734" lon="0.86087">
        <ele>846.2</ele>
        <time>2023-07-23T12:11:20Z</time>
      </trkpt>
      <trkpt lat="42.20735" lon="0.86085">
        <ele>846.2</ele>
        <time>2023-07-23T12:11:21Z</time>
      </trkpt>
      <trkpt lat="42.20735" lon="0.86083">
        <ele>846.4</ele>
        <time>2023-07-23T12:11:22Z</time>
      </trkpt>
      <trkpt lat="42.20735" lon="0.86081">
        <ele>846.6</ele>
        <time>2023-07-23T12:11:23Z</time>
      </trkpt>
      <trkpt lat="42.20734" lon="0.86078">
        <ele>846.6</ele>
        <time>2023-07-23T12:11:24Z</time>
      </trkpt>
      <trkpt lat="42.20734" lon="0.86075">
        <ele>846.6</ele>
        <time>2023-07-23T12:11:25Z</time>
      </trkpt>
      <trkpt lat="42.20733" lon="0.86071">
        <ele>846.8</ele>
        <time>2023-07-23T12:11:26Z</time>
      </trkpt>
      <trkpt lat="42.20733" lon="0.86068">
        <ele>846.8</ele>
        <time>2023-07-23T12:11:27Z</time>
      </trkpt>
      <trkpt lat="42.20734" lon="0.86065">
        <ele>846.8</ele>
        <time>2023-07-23T12:11:28Z</time>
      </trkpt>
      <trkpt lat="42.20734" lon="0.86062">
        <ele>846.8</ele>
        <time>2023-07-23T12:11:29Z</time>
      </trkpt>
      <trkpt lat="42.20734" lon="0.8606">
        <ele>846.8</ele>
        <time>2023-07-23T12:11:30Z</time>
      </trkpt>
      <trkpt lat="42.20734" lon="0.86058">
        <ele>846.8</ele>
        <time>2023-07-23T12:11:31Z</time>
      </trkpt>
      <trkpt lat="42.20734" lon="0.86056">
        <ele>846.8</ele>
        <time>2023-07-23T12:11:32Z</time>
      </trkpt>
      <trkpt lat="42.20734" lon="0.86054">
        <ele>846.8</ele>
        <time>2023-07-23T12:11:33Z</time>
      </trkpt>
      <trkpt lat="42.20734" lon="0.86051">
        <ele>846.8</ele>
        <time>2023-07-23T12:11:34Z</time>
      </trkpt>
      <trkpt lat="42.20735" lon="0.86048">
        <ele>846.8</ele>
        <time>2023-07-23T12:11:35Z</time>
      </trkpt>
      <trkpt lat="42.20735" lon="0.86045">
        <ele>846.8</ele>
        <time>2023-07-23T12:11:36Z</time>
      </trkpt>
      <trkpt lat="42.20735" lon="0.86042">
        <ele>846.8</ele>
        <time>2023-07-23T12:11:37Z</time>
      </trkpt>
      <trkpt lat="42.20735" lon="0.86038">
        <ele>846.6</ele>
        <time>2023-07-23T12:11:38Z</time>
      </trkpt>
      <trkpt lat="42.20736" lon="0.86035">
        <ele>846.6</ele>
        <time>2023-07-23T12:11:39Z</time>
      </trkpt>
      <trkpt lat="42.20736" lon="0.86031">
        <ele>846.6</ele>
        <time>2023-07-23T12:11:40Z</time>
      </trkpt>
      <trkpt lat="42.20737" lon="0.86028">
        <ele>846.8</ele>
        <time>2023-07-23T12:11:41Z</time>
      </trkpt>
      <trkpt lat="42.20737" lon="0.86025">
        <ele>846.8</ele>
        <time>2023-07-23T12:11:42Z</time>
      </trkpt>
      <trkpt lat="42.20738" lon="0.86022">
        <ele>846.8</ele>
        <time>2023-07-23T12:11:43Z</time>
      </trkpt>
      <trkpt lat="42.20738" lon="0.8602">
        <ele>846.6</ele>
        <time>2023-07-23T12:11:44Z</time>
      </trkpt>
      <trkpt lat="42.20739" lon="0.86016">
        <ele>846.6</ele>
        <time>2023-07-23T12:11:45Z</time>
      </trkpt>
      <trkpt lat="42.20739" lon="0.86014">
        <ele>846.6</ele>
        <time>2023-07-23T12:11:46Z</time>
      </trkpt>
      <trkpt lat="42.2074" lon="0.86012">
        <ele>846.8</ele>
        <time>2023-07-23T12:11:47Z</time>
      </trkpt>
      <trkpt lat="42.2074" lon="0.86009">
        <ele>847</ele>
        <time>2023-07-23T12:11:48Z</time>
      </trkpt>
      <trkpt lat="42.20741" lon="0.86006">
        <ele>847</ele>
        <time>2023-07-23T12:11:49Z</time>
      </trkpt>
      <trkpt lat="42.20741" lon="0.86003">
        <ele>847</ele>
        <time>2023-07-23T12:11:50Z</time>
      </trkpt>
      <trkpt lat="42.20741" lon="0.86">
        <ele>847</ele>
        <time>2023-07-23T12:11:51Z</time>
      </trkpt>
      <trkpt lat="42.20742" lon="0.85997">
        <ele>847</ele>
        <time>2023-07-23T12:11:52Z</time>
      </trkpt>
      <trkpt lat="42.20742" lon="0.85993">
        <ele>847</ele>
        <time>2023-07-23T12:11:53Z</time>
      </trkpt>
      <trkpt lat="42.20742" lon="0.85989">
        <ele>846.8</ele>
        <time>2023-07-23T12:11:54Z</time>
      </trkpt>
      <trkpt lat="42.20743" lon="0.85983">
        <ele>846.8</ele>
        <time>2023-07-23T12:11:55Z</time>
      </trkpt>
      <trkpt lat="42.20744" lon="0.85978">
        <ele>846.8</ele>
        <time>2023-07-23T12:11:56Z</time>
      </trkpt>
      <trkpt lat="42.20745" lon="0.85972">
        <ele>846.8</ele>
        <time>2023-07-23T12:11:57Z</time>
      </trkpt>
      <trkpt lat="42.20746" lon="0.85964">
        <ele>846.8</ele>
        <time>2023-07-23T12:11:58Z</time>
      </trkpt>
      <trkpt lat="42.20746" lon="0.85957">
        <ele>846.6</ele>
        <time>2023-07-23T12:11:59Z</time>
      </trkpt>
      <trkpt lat="42.20747" lon="0.85951">
        <ele>846.6</ele>
        <time>2023-07-23T12:12:00Z</time>
      </trkpt>
      <trkpt lat="42.20748" lon="0.85944">
        <ele>846.4</ele>
        <time>2023-07-23T12:12:01Z</time>
      </trkpt>
      <trkpt lat="42.2075" lon="0.85936">
        <ele>846.4</ele>
        <time>2023-07-23T12:12:02Z</time>
      </trkpt>
      <trkpt lat="42.20751" lon="0.85929">
        <ele>846.2</ele>
        <time>2023-07-23T12:12:03Z</time>
      </trkpt>
      <trkpt lat="42.20751" lon="0.85922">
        <ele>845.6</ele>
        <time>2023-07-23T12:12:04Z</time>
      </trkpt>
      <trkpt lat="42.20752" lon="0.85915">
        <ele>844.8</ele>
        <time>2023-07-23T12:12:05Z</time>
      </trkpt>
      <trkpt lat="42.20751" lon="0.85909">
        <ele>843.2</ele>
        <time>2023-07-23T12:12:06Z</time>
      </trkpt>
      <trkpt lat="42.2075" lon="0.85904">
        <ele>842.8</ele>
        <time>2023-07-23T12:12:07Z</time>
      </trkpt>
      <trkpt lat="42.20747" lon="0.85899">
        <ele>842.2</ele>
        <time>2023-07-23T12:12:08Z</time>
      </trkpt>
      <trkpt lat="42.20744" lon="0.85897">
        <ele>841.6</ele>
        <time>2023-07-23T12:12:09Z</time>
      </trkpt>
      <trkpt lat="42.2074" lon="0.85897">
        <ele>841.4</ele>
        <time>2023-07-23T12:12:10Z</time>
      </trkpt>
      <trkpt lat="42.20735" lon="0.85899">
        <ele>841.2</ele>
        <time>2023-07-23T12:12:11Z</time>
      </trkpt>
      <trkpt lat="42.20731" lon="0.85901">
        <ele>840.8</ele>
        <time>2023-07-23T12:12:12Z</time>
      </trkpt>
      <trkpt lat="42.20726" lon="0.85904">
        <ele>840.4</ele>
        <time>2023-07-23T12:12:13Z</time>
      </trkpt>
      <trkpt lat="42.20722" lon="0.85906">
        <ele>840.2</ele>
        <time>2023-07-23T12:12:14Z</time>
      </trkpt>
      <trkpt lat="42.20718" lon="0.85908">
        <ele>840.2</ele>
        <time>2023-07-23T12:12:15Z</time>
      </trkpt>
      <trkpt lat="42.20713" lon="0.8591">
        <ele>840</ele>
        <time>2023-07-23T12:12:16Z</time>
      </trkpt>
      <trkpt lat="42.2071" lon="0.85911">
        <ele>840.2</ele>
        <time>2023-07-23T12:12:17Z</time>
      </trkpt>
      <trkpt lat="42.20706" lon="0.85912">
        <ele>840.2</ele>
        <time>2023-07-23T12:12:18Z</time>
      </trkpt>
      <trkpt lat="42.20702" lon="0.85913">
        <ele>840.2</ele>
        <time>2023-07-23T12:12:19Z</time>
      </trkpt>
      <trkpt lat="42.20698" lon="0.85913">
        <ele>840.2</ele>
        <time>2023-07-23T12:12:20Z</time>
      </trkpt>
      <trkpt lat="42.20694" lon="0.85914">
        <ele>840.2</ele>
        <time>2023-07-23T12:12:21Z</time>
      </trkpt>
      <trkpt lat="42.2069" lon="0.85914">
        <ele>840.2</ele>
        <time>2023-07-23T12:12:22Z</time>
      </trkpt>
      <trkpt lat="42.20687" lon="0.85913">
        <ele>840.2</ele>
        <time>2023-07-23T12:12:23Z</time>
      </trkpt>
      <trkpt lat="42.20684" lon="0.85912">
        <ele>840.4</ele>
        <time>2023-07-23T12:12:24Z</time>
      </trkpt>
      <trkpt lat="42.20682" lon="0.8591">
        <ele>840.6</ele>
        <time>2023-07-23T12:12:25Z</time>
      </trkpt>
      <trkpt lat="42.2068" lon="0.85909">
        <ele>841.4</ele>
        <time>2023-07-23T12:12:26Z</time>
      </trkpt>
      <trkpt lat="42.20679" lon="0.85908">
        <ele>841.8</ele>
        <time>2023-07-23T12:12:27Z</time>
      </trkpt>
      <trkpt lat="42.20678" lon="0.85908">
        <ele>842.4</ele>
        <time>2023-07-23T12:12:28Z</time>
      </trkpt>
      <trkpt lat="42.20678" lon="0.85907">
        <ele>843.4</ele>
        <time>2023-07-23T12:12:29Z</time>
      </trkpt>
      <trkpt lat="42.20678" lon="0.85908">
        <ele>843.6</ele>
        <time>2023-07-23T12:12:30Z</time>
      </trkpt>
      <trkpt lat="42.20678" lon="0.85907">
        <ele>844</ele>
        <time>2023-07-23T12:12:31Z</time>
      </trkpt>
      <trkpt lat="42.20678" lon="0.85907">
        <ele>844</ele>
        <time>2023-07-23T12:12:32Z</time>
      </trkpt>
      <trkpt lat="42.20675" lon="0.85914">
        <ele>843.4</ele>
        <time>2023-07-23T12:13:49Z</time>
      </trkpt>
      <trkpt lat="42.20674" lon="0.85918">
        <ele>843.2</ele>
        <time>2023-07-23T12:13:50Z</time>
      </trkpt>
      <trkpt lat="42.20674" lon="0.85918">
        <ele>843.2</ele>
        <time>2023-07-23T12:13:51Z</time>
      </trkpt>
      <trkpt lat="42.20672" lon="0.85928">
        <ele>843.2</ele>
        <time>2023-07-23T12:13:52Z</time>
      </trkpt>
      <trkpt lat="42.20671" lon="0.85933">
        <ele>843.2</ele>
        <time>2023-07-23T12:13:53Z</time>
      </trkpt>
      <trkpt lat="42.20669" lon="0.85938">
        <ele>843</ele>
        <time>2023-07-23T12:13:54Z</time>
      </trkpt>
      <trkpt lat="42.20668" lon="0.85942">
        <ele>842.8</ele>
        <time>2023-07-23T12:13:55Z</time>
      </trkpt>
      <trkpt lat="42.20666" lon="0.85946">
        <ele>842.2</ele>
        <time>2023-07-23T12:13:56Z</time>
      </trkpt>
      <trkpt lat="42.20665" lon="0.8595">
        <ele>841.6</ele>
        <time>2023-07-23T12:13:57Z</time>
      </trkpt>
      <trkpt lat="42.20665" lon="0.8595">
        <ele>841</ele>
        <time>2023-07-23T12:13:58Z</time>
      </trkpt>
      <trkpt lat="42.20664" lon="0.85956">
        <ele>840.4</ele>
        <time>2023-07-23T12:13:59Z</time>
      </trkpt>
      <trkpt lat="42.20664" lon="0.85959">
        <ele>840.2</ele>
        <time>2023-07-23T12:14:00Z</time>
      </trkpt>
      <trkpt lat="42.20664" lon="0.85961">
        <ele>839.4</ele>
        <time>2023-07-23T12:14:01Z</time>
      </trkpt>
      <trkpt lat="42.20664" lon="0.85962">
        <ele>839.2</ele>
        <time>2023-07-23T12:14:02Z</time>
      </trkpt>
      <trkpt lat="42.20664" lon="0.85962">
        <ele>838.8</ele>
        <time>2023-07-23T12:14:03Z</time>
      </trkpt>
      <trkpt lat="42.20664" lon="0.85962">
        <ele>838.4</ele>
        <time>2023-07-23T12:14:04Z</time>
      </trkpt>
      <trkpt lat="42.20662" lon="0.85969">
        <ele>839.8</ele>
        <time>2023-07-23T12:20:20Z</time>
      </trkpt>
      <trkpt lat="42.20662" lon="0.85969">
        <ele>839.8</ele>
        <time>2023-07-23T12:20:21Z</time>
      </trkpt>
      <trkpt lat="42.2066" lon="0.85977">
        <ele>839.8</ele>
        <time>2023-07-23T12:20:22Z</time>
      </trkpt>
      <trkpt lat="42.20659" lon="0.85982">
        <ele>839.8</ele>
        <time>2023-07-23T12:20:23Z</time>
      </trkpt>
      <trkpt lat="42.20659" lon="0.85982">
        <ele>839.8</ele>
        <time>2023-07-23T12:20:24Z</time>
      </trkpt>
      <trkpt lat="42.20656" lon="0.85994">
        <ele>839.8</ele>
        <time>2023-07-23T12:20:25Z</time>
      </trkpt>
      <trkpt lat="42.20654" lon="0.86002">
        <ele>839.6</ele>
        <time>2023-07-23T12:20:26Z</time>
      </trkpt>
      <trkpt lat="42.20653" lon="0.86008">
        <ele>839.6</ele>
        <time>2023-07-23T12:20:27Z</time>
      </trkpt>
      <trkpt lat="42.20651" lon="0.86015">
        <ele>839.4</ele>
        <time>2023-07-23T12:20:28Z</time>
      </trkpt>
      <trkpt lat="42.20649" lon="0.86024">
        <ele>839</ele>
        <time>2023-07-23T12:20:29Z</time>
      </trkpt>
      <trkpt lat="42.20647" lon="0.8603">
        <ele>838.8</ele>
        <time>2023-07-23T12:20:30Z</time>
      </trkpt>
      <trkpt lat="42.20644" lon="0.8604">
        <ele>838.4</ele>
        <time>2023-07-23T12:20:31Z</time>
      </trkpt>
      <trkpt lat="42.20642" lon="0.86046">
        <ele>838</ele>
        <time>2023-07-23T12:20:32Z</time>
      </trkpt>
      <trkpt lat="42.20639" lon="0.86053">
        <ele>837.6</ele>
        <time>2023-07-23T12:20:33Z</time>
      </trkpt>
      <trkpt lat="42.20635" lon="0.86062">
        <ele>836.8</ele>
        <time>2023-07-23T12:20:34Z</time>
      </trkpt>
      <trkpt lat="42.20632" lon="0.86067">
        <ele>836.4</ele>
        <time>2023-07-23T12:20:35Z</time>
      </trkpt>
      <trkpt lat="42.20628" lon="0.86074">
        <ele>835.6</ele>
        <time>2023-07-23T12:20:36Z</time>
      </trkpt>
      <trkpt lat="42.20624" lon="0.86081">
        <ele>834.6</ele>
        <time>2023-07-23T12:20:37Z</time>
      </trkpt>
      <trkpt lat="42.20624" lon="0.86081">
        <ele>834.2</ele>
        <time>2023-07-23T12:20:38Z</time>
      </trkpt>
      <trkpt lat="42.20614" lon="0.86092">
        <ele>833.4</ele>
        <time>2023-07-23T12:20:39Z</time>
      </trkpt>
      <trkpt lat="42.20607" lon="0.86098">
        <ele>832.8</ele>
        <time>2023-07-23T12:20:40Z</time>
      </trkpt>
      <trkpt lat="42.20607" lon="0.86098">
        <ele>831.6</ele>
        <time>2023-07-23T12:20:41Z</time>
      </trkpt>
      <trkpt lat="42.20595" lon="0.86108">
        <ele>830.8</ele>
        <time>2023-07-23T12:20:42Z</time>
      </trkpt>
      <trkpt lat="42.20587" lon="0.86116">
        <ele>830.2</ele>
        <time>2023-07-23T12:20:43Z</time>
      </trkpt>
      <trkpt lat="42.20587" lon="0.86116">
        <ele>829.6</ele>
        <time>2023-07-23T12:20:44Z</time>
      </trkpt>
      <trkpt lat="42.20574" lon="0.86129">
        <ele>828.6</ele>
        <time>2023-07-23T12:20:45Z</time>
      </trkpt>
      <trkpt lat="42.20566" lon="0.86137">
        <ele>827</ele>
        <time>2023-07-23T12:20:46Z</time>
      </trkpt>
      <trkpt lat="42.20566" lon="0.86137">
        <ele>825.4</ele>
        <time>2023-07-23T12:20:47Z</time>
      </trkpt>
      <trkpt lat="42.20554" lon="0.86155">
        <ele>824.8</ele>
        <time>2023-07-23T12:20:48Z</time>
      </trkpt>
      <trkpt lat="42.20548" lon="0.86164">
        <ele>823.8</ele>
        <time>2023-07-23T12:20:49Z</time>
      </trkpt>
      <trkpt lat="42.20548" lon="0.86164">
        <ele>823.2</ele>
        <time>2023-07-23T12:20:50Z</time>
      </trkpt>
      <trkpt lat="42.20538" lon="0.86181">
        <ele>822</ele>
        <time>2023-07-23T12:20:51Z</time>
      </trkpt>
      <trkpt lat="42.20533" lon="0.86191">
        <ele>821.4</ele>
        <time>2023-07-23T12:20:52Z</time>
      </trkpt>
      <trkpt lat="42.20533" lon="0.86191">
        <ele>820.6</ele>
        <time>2023-07-23T12:20:53Z</time>
      </trkpt>
      <trkpt lat="42.20527" lon="0.86205">
        <ele>820.2</ele>
        <time>2023-07-23T12:20:54Z</time>
      </trkpt>
      <trkpt lat="42.20523" lon="0.86212">
        <ele>820.2</ele>
        <time>2023-07-23T12:20:55Z</time>
      </trkpt>
      <trkpt lat="42.20523" lon="0.86212">
        <ele>819.8</ele>
        <time>2023-07-23T12:20:56Z</time>
      </trkpt>
      <trkpt lat="42.20516" lon="0.86226">
        <ele>819.6</ele>
        <time>2023-07-23T12:20:57Z</time>
      </trkpt>
      <trkpt lat="42.20512" lon="0.86232">
        <ele>819.2</ele>
        <time>2023-07-23T12:20:58Z</time>
      </trkpt>
      <trkpt lat="42.20509" lon="0.86237">
        <ele>818.8</ele>
        <time>2023-07-23T12:20:59Z</time>
      </trkpt>
      <trkpt lat="42.20507" lon="0.86241">
        <ele>818.8</ele>
        <time>2023-07-23T12:21:00Z</time>
      </trkpt>
      <trkpt lat="42.20505" lon="0.86244">
        <ele>818.6</ele>
        <time>2023-07-23T12:21:01Z</time>
      </trkpt>
      <trkpt lat="42.20504" lon="0.86246">
        <ele>818.4</ele>
        <time>2023-07-23T12:21:02Z</time>
      </trkpt>
      <trkpt lat="42.20502" lon="0.8625">
        <ele>818</ele>
        <time>2023-07-23T12:21:03Z</time>
      </trkpt>
      <trkpt lat="42.20501" lon="0.86253">
        <ele>817.8</ele>
        <time>2023-07-23T12:21:04Z</time>
      </trkpt>
      <trkpt lat="42.20499" lon="0.86256">
        <ele>817.6</ele>
        <time>2023-07-23T12:21:05Z</time>
      </trkpt>
      <trkpt lat="42.20498" lon="0.8626">
        <ele>817.2</ele>
        <time>2023-07-23T12:21:06Z</time>
      </trkpt>
      <trkpt lat="42.20495" lon="0.86264">
        <ele>817</ele>
        <time>2023-07-23T12:21:07Z</time>
      </trkpt>
      <trkpt lat="42.20492" lon="0.86268">
        <ele>816.4</ele>
        <time>2023-07-23T12:21:08Z</time>
      </trkpt>
      <trkpt lat="42.20489" lon="0.86271">
        <ele>815</ele>
        <time>2023-07-23T12:21:09Z</time>
      </trkpt>
      <trkpt lat="42.20486" lon="0.86275">
        <ele>814.6</ele>
        <time>2023-07-23T12:21:10Z</time>
      </trkpt>
      <trkpt lat="42.20484" lon="0.86279">
        <ele>813.8</ele>
        <time>2023-07-23T12:21:11Z</time>
      </trkpt>
      <trkpt lat="42.20482" lon="0.86283">
        <ele>813.8</ele>
        <time>2023-07-23T12:21:12Z</time>
      </trkpt>
      <trkpt lat="42.20482" lon="0.86283">
        <ele>812.8</ele>
        <time>2023-07-23T12:21:13Z</time>
      </trkpt>
      <trkpt lat="42.20476" lon="0.86291">
        <ele>811.8</ele>
        <time>2023-07-23T12:21:14Z</time>
      </trkpt>
      <trkpt lat="42.20473" lon="0.86295">
        <ele>811.4</ele>
        <time>2023-07-23T12:21:15Z</time>
      </trkpt>
      <trkpt lat="42.20471" lon="0.86299">
        <ele>810.4</ele>
        <time>2023-07-23T12:21:16Z</time>
      </trkpt>
      <trkpt lat="42.20467" lon="0.86303">
        <ele>809.8</ele>
        <time>2023-07-23T12:21:17Z</time>
      </trkpt>
      <trkpt lat="42.20464" lon="0.86308">
        <ele>808.6</ele>
        <time>2023-07-23T12:21:18Z</time>
      </trkpt>
      <trkpt lat="42.2046" lon="0.86313">
        <ele>807.2</ele>
        <time>2023-07-23T12:21:19Z</time>
      </trkpt>
      <trkpt lat="42.20457" lon="0.86318">
        <ele>806.6</ele>
        <time>2023-07-23T12:21:20Z</time>
      </trkpt>
      <trkpt lat="42.20457" lon="0.86318">
        <ele>804.6</ele>
        <time>2023-07-23T12:21:21Z</time>
      </trkpt>
      <trkpt lat="42.20451" lon="0.86328">
        <ele>803.6</ele>
        <time>2023-07-23T12:21:22Z</time>
      </trkpt>
      <trkpt lat="42.20449" lon="0.86332">
        <ele>802.6</ele>
        <time>2023-07-23T12:21:23Z</time>
      </trkpt>
      <trkpt lat="42.20449" lon="0.86332">
        <ele>801.6</ele>
        <time>2023-07-23T12:21:24Z</time>
      </trkpt>
      <trkpt lat="42.20446" lon="0.86338">
        <ele>801.2</ele>
        <time>2023-07-23T12:21:25Z</time>
      </trkpt>
      <trkpt lat="42.20445" lon="0.86339">
        <ele>799.8</ele>
        <time>2023-07-23T12:21:26Z</time>
      </trkpt>
      <trkpt lat="42.20445" lon="0.8634">
        <ele>798.6</ele>
        <time>2023-07-23T12:21:27Z</time>
      </trkpt>
      <trkpt lat="42.20446" lon="0.86341">
        <ele>796.8</ele>
        <time>2023-07-23T12:21:28Z</time>
      </trkpt>
      <trkpt lat="42.20446" lon="0.86341">
        <ele>795.4</ele>
        <time>2023-07-23T12:21:29Z</time>
      </trkpt>
      <trkpt lat="42.20446" lon="0.86341">
        <ele>794.6</ele>
        <time>2023-07-23T12:21:30Z</time>
      </trkpt>
      <trkpt lat="42.20446" lon="0.86341">
        <ele>793.6</ele>
        <time>2023-07-23T12:21:31Z</time>
      </trkpt>
      <trkpt lat="42.20454" lon="0.86337">
        <ele>791.4</ele>
        <time>2023-07-23T12:21:42Z</time>
      </trkpt>
      <trkpt lat="42.20456" lon="0.86335">
        <ele>791.4</ele>
        <time>2023-07-23T12:21:43Z</time>
      </trkpt>
      <trkpt lat="42.20457" lon="0.86333">
        <ele>791.2</ele>
        <time>2023-07-23T12:21:44Z</time>
      </trkpt>
      <trkpt lat="42.20459" lon="0.86331">
        <ele>791</ele>
        <time>2023-07-23T12:21:45Z</time>
      </trkpt>
      <trkpt lat="42.2046" lon="0.8633">
        <ele>790.8</ele>
        <time>2023-07-23T12:21:46Z</time>
      </trkpt>
      <trkpt lat="42.20462" lon="0.86329">
        <ele>790.8</ele>
        <time>2023-07-23T12:21:47Z</time>
      </trkpt>
      <trkpt lat="42.20464" lon="0.86328">
        <ele>790.6</ele>
        <time>2023-07-23T12:21:48Z</time>
      </trkpt>
      <trkpt lat="42.20466" lon="0.86327">
        <ele>790.8</ele>
        <time>2023-07-23T12:21:49Z</time>
      </trkpt>
      <trkpt lat="42.20468" lon="0.86325">
        <ele>790.4</ele>
        <time>2023-07-23T12:21:50Z</time>
      </trkpt>
      <trkpt lat="42.20471" lon="0.86323">
        <ele>790.4</ele>
        <time>2023-07-23T12:21:51Z</time>
      </trkpt>
      <trkpt lat="42.20474" lon="0.8632">
        <ele>790.4</ele>
        <time>2023-07-23T12:21:52Z</time>
      </trkpt>
      <trkpt lat="42.20475" lon="0.86319">
        <ele>790.4</ele>
        <time>2023-07-23T12:21:53Z</time>
      </trkpt>
      <trkpt lat="42.20477" lon="0.86318">
        <ele>790.4</ele>
        <time>2023-07-23T12:21:54Z</time>
      </trkpt>
      <trkpt lat="42.20478" lon="0.86317">
        <ele>790.4</ele>
        <time>2023-07-23T12:21:55Z</time>
      </trkpt>
      <trkpt lat="42.2048" lon="0.86317">
        <ele>791</ele>
        <time>2023-07-23T12:21:56Z</time>
      </trkpt>
      <trkpt lat="42.20481" lon="0.86317">
        <ele>791.4</ele>
        <time>2023-07-23T12:21:57Z</time>
      </trkpt>
      <trkpt lat="42.20482" lon="0.86316">
        <ele>791.8</ele>
        <time>2023-07-23T12:21:58Z</time>
      </trkpt>
      <trkpt lat="42.20484" lon="0.86314">
        <ele>792</ele>
        <time>2023-07-23T12:21:59Z</time>
      </trkpt>
      <trkpt lat="42.20487" lon="0.86313">
        <ele>792.2</ele>
        <time>2023-07-23T12:22:00Z</time>
      </trkpt>
      <trkpt lat="42.2049" lon="0.86312">
        <ele>792.6</ele>
        <time>2023-07-23T12:22:01Z</time>
      </trkpt>
      <trkpt lat="42.20493" lon="0.86311">
        <ele>792.6</ele>
        <time>2023-07-23T12:22:02Z</time>
      </trkpt>
      <trkpt lat="42.20495" lon="0.8631">
        <ele>792.6</ele>
        <time>2023-07-23T12:22:03Z</time>
      </trkpt>
      <trkpt lat="42.20498" lon="0.86309">
        <ele>792.8</ele>
        <time>2023-07-23T12:22:04Z</time>
      </trkpt>
      <trkpt lat="42.205" lon="0.86309">
        <ele>792.8</ele>
        <time>2023-07-23T12:22:05Z</time>
      </trkpt>
      <trkpt lat="42.20501" lon="0.8631">
        <ele>792.8</ele>
        <time>2023-07-23T12:22:06Z</time>
      </trkpt>
      <trkpt lat="42.20502" lon="0.86312">
        <ele>792.8</ele>
        <time>2023-07-23T12:22:07Z</time>
      </trkpt>
      <trkpt lat="42.20501" lon="0.86314">
        <ele>792.4</ele>
        <time>2023-07-23T12:22:08Z</time>
      </trkpt>
      <trkpt lat="42.205" lon="0.86315">
        <ele>792.2</ele>
        <time>2023-07-23T12:22:09Z</time>
      </trkpt>
      <trkpt lat="42.20499" lon="0.86317">
        <ele>791.8</ele>
        <time>2023-07-23T12:22:10Z</time>
      </trkpt>
      <trkpt lat="42.20496" lon="0.86319">
        <ele>791.4</ele>
        <time>2023-07-23T12:22:11Z</time>
      </trkpt>
      <trkpt lat="42.20493" lon="0.86322">
        <ele>791.4</ele>
        <time>2023-07-23T12:22:12Z</time>
      </trkpt>
      <trkpt lat="42.2049" lon="0.86324">
        <ele>791</ele>
        <time>2023-07-23T12:22:13Z</time>
      </trkpt>
      <trkpt lat="42.20487" lon="0.86325">
        <ele>790.8</ele>
        <time>2023-07-23T12:22:14Z</time>
      </trkpt>
      <trkpt lat="42.20484" lon="0.86326">
        <ele>790.2</ele>
        <time>2023-07-23T12:22:15Z</time>
      </trkpt>
      <trkpt lat="42.20482" lon="0.86328">
        <ele>790</ele>
        <time>2023-07-23T12:22:16Z</time>
      </trkpt>
      <trkpt lat="42.20479" lon="0.8633">
        <ele>789.2</ele>
        <time>2023-07-23T12:22:17Z</time>
      </trkpt>
      <trkpt lat="42.20479" lon="0.8633">
        <ele>788.6</ele>
        <time>2023-07-23T12:22:18Z</time>
      </trkpt>
      <trkpt lat="42.20474" lon="0.86334">
        <ele>788.4</ele>
        <time>2023-07-23T12:22:19Z</time>
      </trkpt>
      <trkpt lat="42.20472" lon="0.86337">
        <ele>787.6</ele>
        <time>2023-07-23T12:22:20Z</time>
      </trkpt>
      <trkpt lat="42.20471" lon="0.8634">
        <ele>787.4</ele>
        <time>2023-07-23T12:22:21Z</time>
      </trkpt>
      <trkpt lat="42.20469" lon="0.86344">
        <ele>786.8</ele>
        <time>2023-07-23T12:22:22Z</time>
      </trkpt>
      <trkpt lat="42.20467" lon="0.86348">
        <ele>786</ele>
        <time>2023-07-23T12:22:23Z</time>
      </trkpt>
      <trkpt lat="42.20464" lon="0.86352">
        <ele>785.4</ele>
        <time>2023-07-23T12:22:24Z</time>
      </trkpt>
      <trkpt lat="42.20463" lon="0.86357">
        <ele>784.8</ele>
        <time>2023-07-23T12:22:25Z</time>
      </trkpt>
      <trkpt lat="42.20462" lon="0.86361">
        <ele>784.6</ele>
        <time>2023-07-23T12:22:26Z</time>
      </trkpt>
      <trkpt lat="42.20459" lon="0.86365">
        <ele>783.8</ele>
        <time>2023-07-23T12:22:27Z</time>
      </trkpt>
      <trkpt lat="42.20457" lon="0.86369">
        <ele>783</ele>
        <time>2023-07-23T12:22:28Z</time>
      </trkpt>
      <trkpt lat="42.20454" lon="0.86374">
        <ele>782.8</ele>
        <time>2023-07-23T12:22:29Z</time>
      </trkpt>
      <trkpt lat="42.20452" lon="0.86378">
        <ele>782</ele>
        <time>2023-07-23T12:22:30Z</time>
      </trkpt>
      <trkpt lat="42.20452" lon="0.86378">
        <ele>781.6</ele>
        <time>2023-07-23T12:22:31Z</time>
      </trkpt>
      <trkpt lat="42.20448" lon="0.86386">
        <ele>781</ele>
        <time>2023-07-23T12:22:32Z</time>
      </trkpt>
      <trkpt lat="42.20446" lon="0.86391">
        <ele>780.4</ele>
        <time>2023-07-23T12:22:33Z</time>
      </trkpt>
      <trkpt lat="42.20445" lon="0.86395">
        <ele>780</ele>
        <time>2023-07-23T12:22:34Z</time>
      </trkpt>
      <trkpt lat="42.20443" lon="0.86398">
        <ele>779.4</ele>
        <time>2023-07-23T12:22:35Z</time>
      </trkpt>
      <trkpt lat="42.20441" lon="0.86401">
        <ele>779.2</ele>
        <time>2023-07-23T12:22:36Z</time>
      </trkpt>
      <trkpt lat="42.2044" lon="0.86403">
        <ele>778.6</ele>
        <time>2023-07-23T12:22:37Z</time>
      </trkpt>
      <trkpt lat="42.20437" lon="0.86403">
        <ele>777.6</ele>
        <time>2023-07-23T12:22:38Z</time>
      </trkpt>
      <trkpt lat="42.20436" lon="0.86404">
        <ele>777.2</ele>
        <time>2023-07-23T12:22:39Z</time>
      </trkpt>
      <trkpt lat="42.20434" lon="0.86406">
        <ele>776.2</ele>
        <time>2023-07-23T12:22:40Z</time>
      </trkpt>
      <trkpt lat="42.20432" lon="0.86409">
        <ele>775.8</ele>
        <time>2023-07-23T12:22:41Z</time>
      </trkpt>
      <trkpt lat="42.20429" lon="0.86412">
        <ele>775.2</ele>
        <time>2023-07-23T12:22:42Z</time>
      </trkpt>
      <trkpt lat="42.20425" lon="0.86415">
        <ele>774.8</ele>
        <time>2023-07-23T12:22:43Z</time>
      </trkpt>
      <trkpt lat="42.20422" lon="0.86418">
        <ele>774.6</ele>
        <time>2023-07-23T12:22:44Z</time>
      </trkpt>
      <trkpt lat="42.20418" lon="0.8642">
        <ele>773.6</ele>
        <time>2023-07-23T12:22:45Z</time>
      </trkpt>
      <trkpt lat="42.20413" lon="0.86424">
        <ele>773</ele>
        <time>2023-07-23T12:22:46Z</time>
      </trkpt>
      <trkpt lat="42.20409" lon="0.86429">
        <ele>772.2</ele>
        <time>2023-07-23T12:22:47Z</time>
      </trkpt>
      <trkpt lat="42.20405" lon="0.86432">
        <ele>771.8</ele>
        <time>2023-07-23T12:22:48Z</time>
      </trkpt>
      <trkpt lat="42.20402" lon="0.86436">
        <ele>771.2</ele>
        <time>2023-07-23T12:22:49Z</time>
      </trkpt>
      <trkpt lat="42.20399" lon="0.8644">
        <ele>770.6</ele>
        <time>2023-07-23T12:22:50Z</time>
      </trkpt>
      <trkpt lat="42.20396" lon="0.86444">
        <ele>770.4</ele>
        <time>2023-07-23T12:22:51Z</time>
      </trkpt>
      <trkpt lat="42.20394" lon="0.86449">
        <ele>769.6</ele>
        <time>2023-07-23T12:22:52Z</time>
      </trkpt>
      <trkpt lat="42.20393" lon="0.86455">
        <ele>769.2</ele>
        <time>2023-07-23T12:22:53Z</time>
      </trkpt>
      <trkpt lat="42.20392" lon="0.86461">
        <ele>768.2</ele>
        <time>2023-07-23T12:22:54Z</time>
      </trkpt>
      <trkpt lat="42.2039" lon="0.86468">
        <ele>767.6</ele>
        <time>2023-07-23T12:22:55Z</time>
      </trkpt>
      <trkpt lat="42.20389" lon="0.86473">
        <ele>767.4</ele>
        <time>2023-07-23T12:22:56Z</time>
      </trkpt>
      <trkpt lat="42.20387" lon="0.8648">
        <ele>767</ele>
        <time>2023-07-23T12:22:57Z</time>
      </trkpt>
      <trkpt lat="42.20384" lon="0.86485">
        <ele>766.6</ele>
        <time>2023-07-23T12:22:58Z</time>
      </trkpt>
      <trkpt lat="42.2038" lon="0.8649">
        <ele>765.6</ele>
        <time>2023-07-23T12:22:59Z</time>
      </trkpt>
      <trkpt lat="42.20377" lon="0.86494">
        <ele>764.6</ele>
        <time>2023-07-23T12:23:00Z</time>
      </trkpt>
      <trkpt lat="42.20373" lon="0.86499">
        <ele>764.2</ele>
        <time>2023-07-23T12:23:01Z</time>
      </trkpt>
      <trkpt lat="42.2037" lon="0.86504">
        <ele>763.2</ele>
        <time>2023-07-23T12:23:02Z</time>
      </trkpt>
      <trkpt lat="42.20366" lon="0.8651">
        <ele>762.6</ele>
        <time>2023-07-23T12:23:03Z</time>
      </trkpt>
      <trkpt lat="42.20364" lon="0.86514">
        <ele>762</ele>
        <time>2023-07-23T12:23:04Z</time>
      </trkpt>
      <trkpt lat="42.20361" lon="0.86518">
        <ele>761.2</ele>
        <time>2023-07-23T12:23:05Z</time>
      </trkpt>
      <trkpt lat="42.20361" lon="0.86519">
        <ele>760.6</ele>
        <time>2023-07-23T12:23:06Z</time>
      </trkpt>
      <trkpt lat="42.20361" lon="0.86519">
        <ele>759.6</ele>
        <time>2023-07-23T12:23:07Z</time>
      </trkpt>
      <trkpt lat="42.20361" lon="0.86519">
        <ele>759.2</ele>
        <time>2023-07-23T12:23:08Z</time>
      </trkpt>
      <trkpt lat="42.20357" lon="0.86523">
        <ele>756.8</ele>
        <time>2023-07-23T12:23:13Z</time>
      </trkpt>
      <trkpt lat="42.20355" lon="0.86525">
        <ele>756.6</ele>
        <time>2023-07-23T12:23:14Z</time>
      </trkpt>
      <trkpt lat="42.20355" lon="0.86525">
        <ele>756.6</ele>
        <time>2023-07-23T12:23:15Z</time>
      </trkpt>
      <trkpt lat="42.20348" lon="0.86529">
        <ele>756.6</ele>
        <time>2023-07-23T12:23:16Z</time>
      </trkpt>
      <trkpt lat="42.20346" lon="0.8653">
        <ele>756.6</ele>
        <time>2023-07-23T12:23:17Z</time>
      </trkpt>
      <trkpt lat="42.20343" lon="0.8653">
        <ele>756.6</ele>
        <time>2023-07-23T12:23:18Z</time>
      </trkpt>
      <trkpt lat="42.2034" lon="0.8653">
        <ele>756.6</ele>
        <time>2023-07-23T12:23:19Z</time>
      </trkpt>
      <trkpt lat="42.20338" lon="0.86529">
        <ele>756.8</ele>
        <time>2023-07-23T12:23:20Z</time>
      </trkpt>
      <trkpt lat="42.20335" lon="0.86529">
        <ele>757</ele>
        <time>2023-07-23T12:23:21Z</time>
      </trkpt>
      <trkpt lat="42.20331" lon="0.8653">
        <ele>757.2</ele>
        <time>2023-07-23T12:23:22Z</time>
      </trkpt>
      <trkpt lat="42.20327" lon="0.86531">
        <ele>757.2</ele>
        <time>2023-07-23T12:23:23Z</time>
      </trkpt>
      <trkpt lat="42.20323" lon="0.86532">
        <ele>757.4</ele>
        <time>2023-07-23T12:23:24Z</time>
      </trkpt>
      <trkpt lat="42.20319" lon="0.86533">
        <ele>757.6</ele>
        <time>2023-07-23T12:23:25Z</time>
      </trkpt>
      <trkpt lat="42.20316" lon="0.86533">
        <ele>757.6</ele>
        <time>2023-07-23T12:23:26Z</time>
      </trkpt>
      <trkpt lat="42.20313" lon="0.86533">
        <ele>757.8</ele>
        <time>2023-07-23T12:23:27Z</time>
      </trkpt>
      <trkpt lat="42.20311" lon="0.86532">
        <ele>758</ele>
        <time>2023-07-23T12:23:28Z</time>
      </trkpt>
      <trkpt lat="42.2031" lon="0.86533">
        <ele>758</ele>
        <time>2023-07-23T12:23:29Z</time>
      </trkpt>
      <trkpt lat="42.2031" lon="0.86534">
        <ele>758.2</ele>
        <time>2023-07-23T12:23:30Z</time>
      </trkpt>
      <trkpt lat="42.2031" lon="0.86534">
        <ele>758.2</ele>
        <time>2023-07-23T12:23:31Z</time>
      </trkpt>
      <trkpt lat="42.2031" lon="0.86534">
        <ele>758.2</ele>
        <time>2023-07-23T12:23:32Z</time>
      </trkpt>
      <trkpt lat="42.20307" lon="0.86537">
        <ele>759</ele>
        <time>2023-07-23T12:27:31Z</time>
      </trkpt>
      <trkpt lat="42.20305" lon="0.86539">
        <ele>758.8</ele>
        <time>2023-07-23T12:27:32Z</time>
      </trkpt>
      <trkpt lat="42.20302" lon="0.8654">
        <ele>758.8</ele>
        <time>2023-07-23T12:27:33Z</time>
      </trkpt>
      <trkpt lat="42.20299" lon="0.86539">
        <ele>758.8</ele>
        <time>2023-07-23T12:27:34Z</time>
      </trkpt>
      <trkpt lat="42.20295" lon="0.86537">
        <ele>758.2</ele>
        <time>2023-07-23T12:27:35Z</time>
      </trkpt>
      <trkpt lat="42.20293" lon="0.86536">
        <ele>757.2</ele>
        <time>2023-07-23T12:27:36Z</time>
      </trkpt>
      <trkpt lat="42.20291" lon="0.86534">
        <ele>756.6</ele>
        <time>2023-07-23T12:27:37Z</time>
      </trkpt>
      <trkpt lat="42.2029" lon="0.86533">
        <ele>755.8</ele>
        <time>2023-07-23T12:27:38Z</time>
      </trkpt>
      <trkpt lat="42.20288" lon="0.86531">
        <ele>755.4</ele>
        <time>2023-07-23T12:27:39Z</time>
      </trkpt>
      <trkpt lat="42.20287" lon="0.86527">
        <ele>754</ele>
        <time>2023-07-23T12:27:40Z</time>
      </trkpt>
      <trkpt lat="42.20286" lon="0.86524">
        <ele>753.2</ele>
        <time>2023-07-23T12:27:41Z</time>
      </trkpt>
      <trkpt lat="42.20286" lon="0.86521">
        <ele>752.8</ele>
        <time>2023-07-23T12:27:42Z</time>
      </trkpt>
      <trkpt lat="42.20285" lon="0.86519">
        <ele>751.8</ele>
        <time>2023-07-23T12:27:43Z</time>
      </trkpt>
      <trkpt lat="42.20283" lon="0.86518">
        <ele>751.6</ele>
        <time>2023-07-23T12:27:44Z</time>
      </trkpt>
      <trkpt lat="42.2028" lon="0.86517">
        <ele>750.8</ele>
        <time>2023-07-23T12:27:45Z</time>
      </trkpt>
      <trkpt lat="42.20278" lon="0.86515">
        <ele>750.6</ele>
        <time>2023-07-23T12:27:46Z</time>
      </trkpt>
      <trkpt lat="42.20276" lon="0.86513">
        <ele>750.2</ele>
        <time>2023-07-23T12:27:47Z</time>
      </trkpt>
      <trkpt lat="42.20273" lon="0.86512">
        <ele>749.8</ele>
        <time>2023-07-23T12:27:48Z</time>
      </trkpt>
      <trkpt lat="42.20271" lon="0.86512">
        <ele>749.6</ele>
        <time>2023-07-23T12:27:49Z</time>
      </trkpt>
      <trkpt lat="42.20269" lon="0.86513">
        <ele>749.4</ele>
        <time>2023-07-23T12:27:50Z</time>
      </trkpt>
      <trkpt lat="42.20267" lon="0.86513">
        <ele>749.4</ele>
        <time>2023-07-23T12:27:51Z</time>
      </trkpt>
      <trkpt lat="42.20266" lon="0.86511">
        <ele>749.2</ele>
        <time>2023-07-23T12:27:52Z</time>
      </trkpt>
      <trkpt lat="42.20266" lon="0.86509">
        <ele>749</ele>
        <time>2023-07-23T12:27:53Z</time>
      </trkpt>
      <trkpt lat="42.20266" lon="0.86507">
        <ele>749</ele>
        <time>2023-07-23T12:27:54Z</time>
      </trkpt>
      <trkpt lat="42.20266" lon="0.86504">
        <ele>749</ele>
        <time>2023-07-23T12:27:55Z</time>
      </trkpt>
      <trkpt lat="42.20265" lon="0.86501">
        <ele>749</ele>
        <time>2023-07-23T12:27:56Z</time>
      </trkpt>
      <trkpt lat="42.20264" lon="0.86499">
        <ele>749</ele>
        <time>2023-07-23T12:27:57Z</time>
      </trkpt>
      <trkpt lat="42.20262" lon="0.86498">
        <ele>749</ele>
        <time>2023-07-23T12:27:58Z</time>
      </trkpt>
      <trkpt lat="42.2026" lon="0.86497">
        <ele>749</ele>
        <time>2023-07-23T12:27:59Z</time>
      </trkpt>
      <trkpt lat="42.20258" lon="0.86497">
        <ele>749</ele>
        <time>2023-07-23T12:28:00Z</time>
      </trkpt>
      <trkpt lat="42.20256" lon="0.86496">
        <ele>749</ele>
        <time>2023-07-23T12:28:01Z</time>
      </trkpt>
      <trkpt lat="42.20254" lon="0.86496">
        <ele>749</ele>
        <time>2023-07-23T12:28:02Z</time>
      </trkpt>
      <trkpt lat="42.2025" lon="0.86494">
        <ele>749</ele>
        <time>2023-07-23T12:28:03Z</time>
      </trkpt>
      <trkpt lat="42.20247" lon="0.86493">
        <ele>749</ele>
        <time>2023-07-23T12:28:04Z</time>
      </trkpt>
      <trkpt lat="42.20244" lon="0.86493">
        <ele>748.8</ele>
        <time>2023-07-23T12:28:05Z</time>
      </trkpt>
      <trkpt lat="42.20242" lon="0.86494">
        <ele>748.8</ele>
        <time>2023-07-23T12:28:06Z</time>
      </trkpt>
      <trkpt lat="42.20239" lon="0.86496">
        <ele>748.4</ele>
        <time>2023-07-23T12:28:07Z</time>
      </trkpt>
      <trkpt lat="42.20237" lon="0.86499">
        <ele>747.4</ele>
        <time>2023-07-23T12:28:08Z</time>
      </trkpt>
      <trkpt lat="42.20235" lon="0.86502">
        <ele>747</ele>
        <time>2023-07-23T12:28:09Z</time>
      </trkpt>
      <trkpt lat="42.20233" lon="0.86505">
        <ele>746</ele>
        <time>2023-07-23T12:28:10Z</time>
      </trkpt>
      <trkpt lat="42.20231" lon="0.86507">
        <ele>745.4</ele>
        <time>2023-07-23T12:28:11Z</time>
      </trkpt>
      <trkpt lat="42.20229" lon="0.8651">
        <ele>744</ele>
        <time>2023-07-23T12:28:12Z</time>
      </trkpt>
      <trkpt lat="42.20227" lon="0.86513">
        <ele>743.2</ele>
        <time>2023-07-23T12:28:13Z</time>
      </trkpt>
      <trkpt lat="42.20224" lon="0.86517">
        <ele>742</ele>
        <time>2023-07-23T12:28:14Z</time>
      </trkpt>
      <trkpt lat="42.20222" lon="0.8652">
        <ele>741.2</ele>
        <time>2023-07-23T12:28:15Z</time>
      </trkpt>
      <trkpt lat="42.20221" lon="0.86523">
        <ele>740.8</ele>
        <time>2023-07-23T12:28:16Z</time>
      </trkpt>
      <trkpt lat="42.20219" lon="0.86525">
        <ele>739.4</ele>
        <time>2023-07-23T12:28:17Z</time>
      </trkpt>
      <trkpt lat="42.20218" lon="0.86527">
        <ele>738.8</ele>
        <time>2023-07-23T12:28:18Z</time>
      </trkpt>
      <trkpt lat="42.20216" lon="0.86529">
        <ele>738</ele>
        <time>2023-07-23T12:28:19Z</time>
      </trkpt>
      <trkpt lat="42.20214" lon="0.8653">
        <ele>737.2</ele>
        <time>2023-07-23T12:28:20Z</time>
      </trkpt>
      <trkpt lat="42.20212" lon="0.86531">
        <ele>736.8</ele>
        <time>2023-07-23T12:28:21Z</time>
      </trkpt>
      <trkpt lat="42.2021" lon="0.86531">
        <ele>736</ele>
        <time>2023-07-23T12:28:22Z</time>
      </trkpt>
      <trkpt lat="42.20208" lon="0.86531">
        <ele>735.8</ele>
        <time>2023-07-23T12:28:23Z</time>
      </trkpt>
      <trkpt lat="42.20206" lon="0.8653">
        <ele>735</ele>
        <time>2023-07-23T12:28:24Z</time>
      </trkpt>
      <trkpt lat="42.20203" lon="0.86529">
        <ele>733.8</ele>
        <time>2023-07-23T12:28:25Z</time>
      </trkpt>
      <trkpt lat="42.202" lon="0.86529">
        <ele>733.4</ele>
        <time>2023-07-23T12:28:26Z</time>
      </trkpt>
      <trkpt lat="42.20198" lon="0.86529">
        <ele>732.4</ele>
        <time>2023-07-23T12:28:27Z</time>
      </trkpt>
      <trkpt lat="42.20195" lon="0.86529">
        <ele>731.8</ele>
        <time>2023-07-23T12:28:28Z</time>
      </trkpt>
      <trkpt lat="42.20193" lon="0.8653">
        <ele>731</ele>
        <time>2023-07-23T12:28:29Z</time>
      </trkpt>
      <trkpt lat="42.2019" lon="0.86531">
        <ele>730.2</ele>
        <time>2023-07-23T12:28:30Z</time>
      </trkpt>
      <trkpt lat="42.20187" lon="0.86531">
        <ele>729.8</ele>
        <time>2023-07-23T12:28:31Z</time>
      </trkpt>
      <trkpt lat="42.20185" lon="0.86531">
        <ele>729</ele>
        <time>2023-07-23T12:28:32Z</time>
      </trkpt>
      <trkpt lat="42.20184" lon="0.86531">
        <ele>728.6</ele>
        <time>2023-07-23T12:28:33Z</time>
      </trkpt>
      <trkpt lat="42.20184" lon="0.86531">
        <ele>728.2</ele>
        <time>2023-07-23T12:28:34Z</time>
      </trkpt>
      <trkpt lat="42.20184" lon="0.86531">
        <ele>727.8</ele>
        <time>2023-07-23T12:28:35Z</time>
      </trkpt>
      <trkpt lat="42.20175" lon="0.86529">
        <ele>725.2</ele>
        <time>2023-07-23T12:28:53Z</time>
      </trkpt>
      <trkpt lat="42.20173" lon="0.86528">
        <ele>725</ele>
        <time>2023-07-23T12:28:54Z</time>
      </trkpt>
      <trkpt lat="42.2017" lon="0.86528">
        <ele>725</ele>
        <time>2023-07-23T12:28:55Z</time>
      </trkpt>
      <trkpt lat="42.20168" lon="0.86527">
        <ele>725</ele>
        <time>2023-07-23T12:28:56Z</time>
      </trkpt>
      <trkpt lat="42.20165" lon="0.86527">
        <ele>724.8</ele>
        <time>2023-07-23T12:28:57Z</time>
      </trkpt>
      <trkpt lat="42.20161" lon="0.86526">
        <ele>724.8</ele>
        <time>2023-07-23T12:28:58Z</time>
      </trkpt>
      <trkpt lat="42.20157" lon="0.86526">
        <ele>724.4</ele>
        <time>2023-07-23T12:28:59Z</time>
      </trkpt>
      <trkpt lat="42.20153" lon="0.86525">
        <ele>724</ele>
        <time>2023-07-23T12:29:00Z</time>
      </trkpt>
      <trkpt lat="42.2015" lon="0.86524">
        <ele>723.8</ele>
        <time>2023-07-23T12:29:01Z</time>
      </trkpt>
      <trkpt lat="42.20147" lon="0.86523">
        <ele>722.6</ele>
        <time>2023-07-23T12:29:02Z</time>
      </trkpt>
      <trkpt lat="42.20145" lon="0.86522">
        <ele>722</ele>
        <time>2023-07-23T12:29:03Z</time>
      </trkpt>
      <trkpt lat="42.20142" lon="0.86523">
        <ele>721.2</ele>
        <time>2023-07-23T12:29:04Z</time>
      </trkpt>
      <trkpt lat="42.2014" lon="0.86524">
        <ele>721</ele>
        <time>2023-07-23T12:29:05Z</time>
      </trkpt>
      <trkpt lat="42.20137" lon="0.86526">
        <ele>720.4</ele>
        <time>2023-07-23T12:29:06Z</time>
      </trkpt>
      <trkpt lat="42.20134" lon="0.86525">
        <ele>720.2</ele>
        <time>2023-07-23T12:29:07Z</time>
      </trkpt>
      <trkpt lat="42.2013" lon="0.86525">
        <ele>720</ele>
        <time>2023-07-23T12:29:08Z</time>
      </trkpt>
      <trkpt lat="42.20125" lon="0.86523">
        <ele>719.6</ele>
        <time>2023-07-23T12:29:09Z</time>
      </trkpt>
      <trkpt lat="42.20122" lon="0.86523">
        <ele>719.4</ele>
        <time>2023-07-23T12:29:10Z</time>
      </trkpt>
      <trkpt lat="42.20119" lon="0.86523">
        <ele>719.2</ele>
        <time>2023-07-23T12:29:11Z</time>
      </trkpt>
      <trkpt lat="42.20116" lon="0.86523">
        <ele>718.2</ele>
        <time>2023-07-23T12:29:12Z</time>
      </trkpt>
      <trkpt lat="42.20113" lon="0.86524">
        <ele>716.6</ele>
        <time>2023-07-23T12:29:13Z</time>
      </trkpt>
      <trkpt lat="42.2011" lon="0.86525">
        <ele>716</ele>
        <time>2023-07-23T12:29:14Z</time>
      </trkpt>
      <trkpt lat="42.20108" lon="0.86527">
        <ele>715.6</ele>
        <time>2023-07-23T12:29:15Z</time>
      </trkpt>
      <trkpt lat="42.20106" lon="0.86529">
        <ele>715.2</ele>
        <time>2023-07-23T12:29:16Z</time>
      </trkpt>
      <trkpt lat="42.20105" lon="0.86529">
        <ele>715</ele>
        <time>2023-07-23T12:29:17Z</time>
      </trkpt>
      <trkpt lat="42.20105" lon="0.86529">
        <ele>713.8</ele>
        <time>2023-07-23T12:29:18Z</time>
      </trkpt>
      <trkpt lat="42.20003" lon="0.86555">
        <ele>696.6</ele>
        <time>2023-07-23T12:35:17Z</time>
      </trkpt>
      <trkpt lat="42.2" lon="0.86557">
        <ele>696.4</ele>
        <time>2023-07-23T12:35:18Z</time>
      </trkpt>
      <trkpt lat="42.19997" lon="0.86558">
        <ele>696.2</ele>
        <time>2023-07-23T12:35:19Z</time>
      </trkpt>
      <trkpt lat="42.19994" lon="0.86559">
        <ele>696.2</ele>
        <time>2023-07-23T12:35:20Z</time>
      </trkpt>
      <trkpt lat="42.1999" lon="0.86559">
        <ele>696.2</ele>
        <time>2023-07-23T12:35:21Z</time>
      </trkpt>
      <trkpt lat="42.19986" lon="0.86559">
        <ele>696.2</ele>
        <time>2023-07-23T12:35:22Z</time>
      </trkpt>
      <trkpt lat="42.19982" lon="0.86559">
        <ele>695.8</ele>
        <time>2023-07-23T12:35:23Z</time>
      </trkpt>
      <trkpt lat="42.19978" lon="0.86559">
        <ele>695.6</ele>
        <time>2023-07-23T12:35:24Z</time>
      </trkpt>
      <trkpt lat="42.19974" lon="0.8656">
        <ele>695</ele>
        <time>2023-07-23T12:35:25Z</time>
      </trkpt>
      <trkpt lat="42.1997" lon="0.86559">
        <ele>694.6</ele>
        <time>2023-07-23T12:35:26Z</time>
      </trkpt>
      <trkpt lat="42.19966" lon="0.86559">
        <ele>694.4</ele>
        <time>2023-07-23T12:35:27Z</time>
      </trkpt>
      <trkpt lat="42.19961" lon="0.86559">
        <ele>694</ele>
        <time>2023-07-23T12:35:28Z</time>
      </trkpt>
      <trkpt lat="42.19957" lon="0.86559">
        <ele>693.8</ele>
        <time>2023-07-23T12:35:29Z</time>
      </trkpt>
      <trkpt lat="42.19953" lon="0.8656">
        <ele>693.6</ele>
        <time>2023-07-23T12:35:30Z</time>
      </trkpt>
      <trkpt lat="42.19949" lon="0.86562">
        <ele>693.4</ele>
        <time>2023-07-23T12:35:31Z</time>
      </trkpt>
      <trkpt lat="42.19946" lon="0.86565">
        <ele>693</ele>
        <time>2023-07-23T12:35:32Z</time>
      </trkpt>
      <trkpt lat="42.19945" lon="0.86568">
        <ele>692.4</ele>
        <time>2023-07-23T12:35:33Z</time>
      </trkpt>
      <trkpt lat="42.19946" lon="0.86571">
        <ele>692.2</ele>
        <time>2023-07-23T12:35:34Z</time>
      </trkpt>
      <trkpt lat="42.19948" lon="0.86574">
        <ele>691.2</ele>
        <time>2023-07-23T12:35:35Z</time>
      </trkpt>
      <trkpt lat="42.19951" lon="0.86576">
        <ele>690.6</ele>
        <time>2023-07-23T12:35:36Z</time>
      </trkpt>
      <trkpt lat="42.19954" lon="0.86578">
        <ele>690.6</ele>
        <time>2023-07-23T12:35:37Z</time>
      </trkpt>
      <trkpt lat="42.19957" lon="0.86581">
        <ele>690.4</ele>
        <time>2023-07-23T12:35:38Z</time>
      </trkpt>
      <trkpt lat="42.19958" lon="0.86585">
        <ele>690.2</ele>
        <time>2023-07-23T12:35:39Z</time>
      </trkpt>
      <trkpt lat="42.19957" lon="0.86587">
        <ele>689.8</ele>
        <time>2023-07-23T12:35:40Z</time>
      </trkpt>
      <trkpt lat="42.19957" lon="0.8659">
        <ele>689.2</ele>
        <time>2023-07-23T12:35:41Z</time>
      </trkpt>
      <trkpt lat="42.19955" lon="0.86593">
        <ele>688.6</ele>
        <time>2023-07-23T12:35:42Z</time>
      </trkpt>
      <trkpt lat="42.19954" lon="0.86594">
        <ele>687.8</ele>
        <time>2023-07-23T12:35:43Z</time>
      </trkpt>
      <trkpt lat="42.19954" lon="0.86594">
        <ele>687.2</ele>
        <time>2023-07-23T12:35:44Z</time>
      </trkpt>
      <trkpt lat="42.19951" lon="0.866">
        <ele>683.6</ele>
        <time>2023-07-23T12:35:53Z</time>
      </trkpt>
      <trkpt lat="42.1995" lon="0.86604">
        <ele>683.6</ele>
        <time>2023-07-23T12:35:54Z</time>
      </trkpt>
      <trkpt lat="42.19948" lon="0.86606">
        <ele>683.4</ele>
        <time>2023-07-23T12:35:55Z</time>
      </trkpt>
      <trkpt lat="42.19946" lon="0.86608">
        <ele>683.4</ele>
        <time>2023-07-23T12:35:56Z</time>
      </trkpt>
      <trkpt lat="42.19944" lon="0.8661">
        <ele>683.4</ele>
        <time>2023-07-23T12:35:57Z</time>
      </trkpt>
      <trkpt lat="42.19941" lon="0.86612">
        <ele>683.4</ele>
        <time>2023-07-23T12:35:58Z</time>
      </trkpt>
      <trkpt lat="42.19938" lon="0.86615">
        <ele>683.4</ele>
        <time>2023-07-23T12:35:59Z</time>
      </trkpt>
      <trkpt lat="42.19935" lon="0.86617">
        <ele>683.4</ele>
        <time>2023-07-23T12:36:00Z</time>
      </trkpt>
      <trkpt lat="42.19932" lon="0.8662">
        <ele>683.4</ele>
        <time>2023-07-23T12:36:01Z</time>
      </trkpt>
      <trkpt lat="42.19928" lon="0.86624">
        <ele>683.4</ele>
        <time>2023-07-23T12:36:02Z</time>
      </trkpt>
      <trkpt lat="42.19924" lon="0.86627">
        <ele>683.4</ele>
        <time>2023-07-23T12:36:03Z</time>
      </trkpt>
      <trkpt lat="42.1992" lon="0.86629">
        <ele>683.4</ele>
        <time>2023-07-23T12:36:04Z</time>
      </trkpt>
      <trkpt lat="42.19917" lon="0.86631">
        <ele>683.4</ele>
        <time>2023-07-23T12:36:05Z</time>
      </trkpt>
      <trkpt lat="42.19913" lon="0.86632">
        <ele>683.4</ele>
        <time>2023-07-23T12:36:06Z</time>
      </trkpt>
      <trkpt lat="42.1991" lon="0.86632">
        <ele>683.4</ele>
        <time>2023-07-23T12:36:07Z</time>
      </trkpt>
      <trkpt lat="42.19907" lon="0.86632">
        <ele>683.4</ele>
        <time>2023-07-23T12:36:08Z</time>
      </trkpt>
      <trkpt lat="42.19904" lon="0.86633">
        <ele>683.4</ele>
        <time>2023-07-23T12:36:09Z</time>
      </trkpt>
      <trkpt lat="42.19901" lon="0.86633">
        <ele>683.4</ele>
        <time>2023-07-23T12:36:10Z</time>
      </trkpt>
      <trkpt lat="42.19898" lon="0.86634">
        <ele>683.4</ele>
        <time>2023-07-23T12:36:11Z</time>
      </trkpt>
      <trkpt lat="42.19895" lon="0.86635">
        <ele>683.6</ele>
        <time>2023-07-23T12:36:12Z</time>
      </trkpt>
      <trkpt lat="42.19893" lon="0.86637">
        <ele>683.8</ele>
        <time>2023-07-23T12:36:13Z</time>
      </trkpt>
      <trkpt lat="42.19891" lon="0.86639">
        <ele>684</ele>
        <time>2023-07-23T12:36:14Z</time>
      </trkpt>
      <trkpt lat="42.19889" lon="0.86641">
        <ele>684.2</ele>
        <time>2023-07-23T12:36:15Z</time>
      </trkpt>
      <trkpt lat="42.19887" lon="0.86642">
        <ele>684.2</ele>
        <time>2023-07-23T12:36:16Z</time>
      </trkpt>
      <trkpt lat="42.19886" lon="0.86643">
        <ele>684.4</ele>
        <time>2023-07-23T12:36:17Z</time>
      </trkpt>
      <trkpt lat="42.19884" lon="0.86645">
        <ele>684.4</ele>
        <time>2023-07-23T12:36:18Z</time>
      </trkpt>
      <trkpt lat="42.19883" lon="0.86645">
        <ele>684.4</ele>
        <time>2023-07-23T12:36:19Z</time>
      </trkpt>
      <trkpt lat="42.19882" lon="0.86645">
        <ele>684.4</ele>
        <time>2023-07-23T12:36:20Z</time>
      </trkpt>
      <trkpt lat="42.19881" lon="0.86645">
        <ele>684.4</ele>
        <time>2023-07-23T12:36:21Z</time>
      </trkpt>
      <trkpt lat="42.1988" lon="0.86644">
        <ele>684.4</ele>
        <time>2023-07-23T12:36:22Z</time>
      </trkpt>
      <trkpt lat="42.19877" lon="0.86644">
        <ele>684.4</ele>
        <time>2023-07-23T12:36:23Z</time>
      </trkpt>
      <trkpt lat="42.19874" lon="0.86645">
        <ele>684.4</ele>
        <time>2023-07-23T12:36:24Z</time>
      </trkpt>
      <trkpt lat="42.1987" lon="0.86645">
        <ele>684.2</ele>
        <time>2023-07-23T12:36:25Z</time>
      </trkpt>
      <trkpt lat="42.19865" lon="0.86645">
        <ele>684.2</ele>
        <time>2023-07-23T12:36:26Z</time>
      </trkpt>
      <trkpt lat="42.19862" lon="0.86644">
        <ele>684</ele>
        <time>2023-07-23T12:36:27Z</time>
      </trkpt>
      <trkpt lat="42.19859" lon="0.86644">
        <ele>683.4</ele>
        <time>2023-07-23T12:36:28Z</time>
      </trkpt>
      <trkpt lat="42.19857" lon="0.86644">
        <ele>683.2</ele>
        <time>2023-07-23T12:36:29Z</time>
      </trkpt>
      <trkpt lat="42.19854" lon="0.86645">
        <ele>682.6</ele>
        <time>2023-07-23T12:36:30Z</time>
      </trkpt>
      <trkpt lat="42.19851" lon="0.86647">
        <ele>682.4</ele>
        <time>2023-07-23T12:36:31Z</time>
      </trkpt>
      <trkpt lat="42.19847" lon="0.86648">
        <ele>682</ele>
        <time>2023-07-23T12:36:32Z</time>
      </trkpt>
      <trkpt lat="42.19842" lon="0.8665">
        <ele>681.8</ele>
        <time>2023-07-23T12:36:33Z</time>
      </trkpt>
      <trkpt lat="42.19836" lon="0.86651">
        <ele>681.2</ele>
        <time>2023-07-23T12:36:34Z</time>
      </trkpt>
      <trkpt lat="42.19831" lon="0.86653">
        <ele>680.6</ele>
        <time>2023-07-23T12:36:35Z</time>
      </trkpt>
      <trkpt lat="42.19827" lon="0.86655">
        <ele>679.6</ele>
        <time>2023-07-23T12:36:36Z</time>
      </trkpt>
      <trkpt lat="42.19822" lon="0.86655">
        <ele>678.8</ele>
        <time>2023-07-23T12:36:37Z</time>
      </trkpt>
      <trkpt lat="42.19818" lon="0.86654">
        <ele>678.2</ele>
        <time>2023-07-23T12:36:38Z</time>
      </trkpt>
      <trkpt lat="42.19813" lon="0.86654">
        <ele>677</ele>
        <time>2023-07-23T12:36:39Z</time>
      </trkpt>
      <trkpt lat="42.19808" lon="0.86653">
        <ele>675.6</ele>
        <time>2023-07-23T12:36:40Z</time>
      </trkpt>
      <trkpt lat="42.19802" lon="0.86652">
        <ele>675.2</ele>
        <time>2023-07-23T12:36:41Z</time>
      </trkpt>
      <trkpt lat="42.19796" lon="0.86653">
        <ele>674.4</ele>
        <time>2023-07-23T12:36:42Z</time>
      </trkpt>
      <trkpt lat="42.19791" lon="0.86653">
        <ele>673.8</ele>
        <time>2023-07-23T12:36:43Z</time>
      </trkpt>
      <trkpt lat="42.19786" lon="0.86651">
        <ele>673</ele>
        <time>2023-07-23T12:36:44Z</time>
      </trkpt>
      <trkpt lat="42.19781" lon="0.86649">
        <ele>672.2</ele>
        <time>2023-07-23T12:36:45Z</time>
      </trkpt>
      <trkpt lat="42.19774" lon="0.86647">
        <ele>672</ele>
        <time>2023-07-23T12:36:46Z</time>
      </trkpt>
      <trkpt lat="42.19768" lon="0.86646">
        <ele>671.4</ele>
        <time>2023-07-23T12:36:47Z</time>
      </trkpt>
      <trkpt lat="42.19764" lon="0.86647">
        <ele>671</ele>
        <time>2023-07-23T12:36:48Z</time>
      </trkpt>
      <trkpt lat="42.19759" lon="0.86648">
        <ele>670.4</ele>
        <time>2023-07-23T12:36:49Z</time>
      </trkpt>
      <trkpt lat="42.19756" lon="0.86649">
        <ele>669.8</ele>
        <time>2023-07-23T12:36:50Z</time>
      </trkpt>
      <trkpt lat="42.19752" lon="0.86652">
        <ele>669.6</ele>
        <time>2023-07-23T12:36:51Z</time>
      </trkpt>
      <trkpt lat="42.19748" lon="0.86654">
        <ele>669</ele>
        <time>2023-07-23T12:36:52Z</time>
      </trkpt>
      <trkpt lat="42.19744" lon="0.86656">
        <ele>668.8</ele>
        <time>2023-07-23T12:36:53Z</time>
      </trkpt>
      <trkpt lat="42.1974" lon="0.86658">
        <ele>668.4</ele>
        <time>2023-07-23T12:36:54Z</time>
      </trkpt>
      <trkpt lat="42.19735" lon="0.86658">
        <ele>667.8</ele>
        <time>2023-07-23T12:36:55Z</time>
      </trkpt>
      <trkpt lat="42.19731" lon="0.86657">
        <ele>667.4</ele>
        <time>2023-07-23T12:36:56Z</time>
      </trkpt>
      <trkpt lat="42.19726" lon="0.86656">
        <ele>665.8</ele>
        <time>2023-07-23T12:36:57Z</time>
      </trkpt>
      <trkpt lat="42.19721" lon="0.86654">
        <ele>664.8</ele>
        <time>2023-07-23T12:36:58Z</time>
      </trkpt>
      <trkpt lat="42.19715" lon="0.86653">
        <ele>663.6</ele>
        <time>2023-07-23T12:36:59Z</time>
      </trkpt>
      <trkpt lat="42.1971" lon="0.86652">
        <ele>662.8</ele>
        <time>2023-07-23T12:37:00Z</time>
      </trkpt>
      <trkpt lat="42.19703" lon="0.86653">
        <ele>662.2</ele>
        <time>2023-07-23T12:37:01Z</time>
      </trkpt>
      <trkpt lat="42.19703" lon="0.86653">
        <ele>661.2</ele>
        <time>2023-07-23T12:37:02Z</time>
      </trkpt>
      <trkpt lat="42.19691" lon="0.86658">
        <ele>660.8</ele>
        <time>2023-07-23T12:37:03Z</time>
      </trkpt>
      <trkpt lat="42.19682" lon="0.86663">
        <ele>660.2</ele>
        <time>2023-07-23T12:37:04Z</time>
      </trkpt>
      <trkpt lat="42.19676" lon="0.86666">
        <ele>659.8</ele>
        <time>2023-07-23T12:37:05Z</time>
      </trkpt>
      <trkpt lat="42.19668" lon="0.86671">
        <ele>658.4</ele>
        <time>2023-07-23T12:37:06Z</time>
      </trkpt>
      <trkpt lat="42.19663" lon="0.86675">
        <ele>656.2</ele>
        <time>2023-07-23T12:37:07Z</time>
      </trkpt>
      <trkpt lat="42.19658" lon="0.8668">
        <ele>655.4</ele>
        <time>2023-07-23T12:37:08Z</time>
      </trkpt>
      <trkpt lat="42.19653" lon="0.86682">
        <ele>654.2</ele>
        <time>2023-07-23T12:37:09Z</time>
      </trkpt>
      <trkpt lat="42.19649" lon="0.86683">
        <ele>654</ele>
        <time>2023-07-23T12:37:10Z</time>
      </trkpt>
      <trkpt lat="42.19645" lon="0.86683">
        <ele>653.4</ele>
        <time>2023-07-23T12:37:11Z</time>
      </trkpt>
      <trkpt lat="42.19642" lon="0.86682">
        <ele>652.4</ele>
        <time>2023-07-23T12:37:12Z</time>
      </trkpt>
      <trkpt lat="42.19638" lon="0.86679">
        <ele>652.2</ele>
        <time>2023-07-23T12:37:13Z</time>
      </trkpt>
      <trkpt lat="42.19635" lon="0.86676">
        <ele>651.8</ele>
        <time>2023-07-23T12:37:14Z</time>
      </trkpt>
      <trkpt lat="42.1963" lon="0.86672">
        <ele>651.4</ele>
        <time>2023-07-23T12:37:15Z</time>
      </trkpt>
      <trkpt lat="42.19625" lon="0.86668">
        <ele>650.8</ele>
        <time>2023-07-23T12:37:16Z</time>
      </trkpt>
      <trkpt lat="42.19619" lon="0.86666">
        <ele>650.2</ele>
        <time>2023-07-23T12:37:17Z</time>
      </trkpt>
      <trkpt lat="42.19612" lon="0.86664">
        <ele>649.6</ele>
        <time>2023-07-23T12:37:18Z</time>
      </trkpt>
      <trkpt lat="42.19606" lon="0.86665">
        <ele>648.4</ele>
        <time>2023-07-23T12:37:19Z</time>
      </trkpt>
      <trkpt lat="42.196" lon="0.86667">
        <ele>647.4</ele>
        <time>2023-07-23T12:37:20Z</time>
      </trkpt>
      <trkpt lat="42.19594" lon="0.8667">
        <ele>646.2</ele>
        <time>2023-07-23T12:37:21Z</time>
      </trkpt>
      <trkpt lat="42.19589" lon="0.86672">
        <ele>645.6</ele>
        <time>2023-07-23T12:37:22Z</time>
      </trkpt>
      <trkpt lat="42.19583" lon="0.86673">
        <ele>645.4</ele>
        <time>2023-07-23T12:37:23Z</time>
      </trkpt>
      <trkpt lat="42.1958" lon="0.86673">
        <ele>645.2</ele>
        <time>2023-07-23T12:37:24Z</time>
      </trkpt>
      <trkpt lat="42.19577" lon="0.86672">
        <ele>645</ele>
        <time>2023-07-23T12:37:25Z</time>
      </trkpt>
      <trkpt lat="42.19574" lon="0.86672">
        <ele>644.8</ele>
        <time>2023-07-23T12:37:26Z</time>
      </trkpt>
      <trkpt lat="42.19572" lon="0.86672">
        <ele>644.8</ele>
        <time>2023-07-23T12:37:27Z</time>
      </trkpt>
      <trkpt lat="42.1957" lon="0.86672">
        <ele>644.8</ele>
        <time>2023-07-23T12:37:28Z</time>
      </trkpt>
      <trkpt lat="42.19568" lon="0.86672">
        <ele>645</ele>
        <time>2023-07-23T12:37:29Z</time>
      </trkpt>
      <trkpt lat="42.19564" lon="0.86672">
        <ele>645.2</ele>
        <time>2023-07-23T12:37:30Z</time>
      </trkpt>
      <trkpt lat="42.19562" lon="0.86671">
        <ele>645</ele>
        <time>2023-07-23T12:37:31Z</time>
      </trkpt>
      <trkpt lat="42.19559" lon="0.86671">
        <ele>645.4</ele>
        <time>2023-07-23T12:37:32Z</time>
      </trkpt>
      <trkpt lat="42.19557" lon="0.86671">
        <ele>645.4</ele>
        <time>2023-07-23T12:37:33Z</time>
      </trkpt>
      <trkpt lat="42.19555" lon="0.86671">
        <ele>645.8</ele>
        <time>2023-07-23T12:37:34Z</time>
      </trkpt>
      <trkpt lat="42.19552" lon="0.86672">
        <ele>645.8</ele>
        <time>2023-07-23T12:37:35Z</time>
      </trkpt>
      <trkpt lat="42.19548" lon="0.86672">
        <ele>645.8</ele>
        <time>2023-07-23T12:37:36Z</time>
      </trkpt>
      <trkpt lat="42.19544" lon="0.86672">
        <ele>645.6</ele>
        <time>2023-07-23T12:37:37Z</time>
      </trkpt>
      <trkpt lat="42.1954" lon="0.86674">
        <ele>645.8</ele>
        <time>2023-07-23T12:37:38Z</time>
      </trkpt>
      <trkpt lat="42.19535" lon="0.86676">
        <ele>645.8</ele>
        <time>2023-07-23T12:37:39Z</time>
      </trkpt>
      <trkpt lat="42.1953" lon="0.86679">
        <ele>645.8</ele>
        <time>2023-07-23T12:37:40Z</time>
      </trkpt>
      <trkpt lat="42.19525" lon="0.8668">
        <ele>645.4</ele>
        <time>2023-07-23T12:37:41Z</time>
      </trkpt>
      <trkpt lat="42.19519" lon="0.86681">
        <ele>645.4</ele>
        <time>2023-07-23T12:37:42Z</time>
      </trkpt>
      <trkpt lat="42.19513" lon="0.8668">
        <ele>645</ele>
        <time>2023-07-23T12:37:43Z</time>
      </trkpt>
      <trkpt lat="42.19506" lon="0.8668">
        <ele>644.4</ele>
        <time>2023-07-23T12:37:44Z</time>
      </trkpt>
      <trkpt lat="42.19499" lon="0.8668">
        <ele>644</ele>
        <time>2023-07-23T12:37:45Z</time>
      </trkpt>
      <trkpt lat="42.19493" lon="0.8668">
        <ele>642.8</ele>
        <time>2023-07-23T12:37:46Z</time>
      </trkpt>
      <trkpt lat="42.19487" lon="0.86679">
        <ele>642.2</ele>
        <time>2023-07-23T12:37:47Z</time>
      </trkpt>
      <trkpt lat="42.1948" lon="0.86679">
        <ele>640.6</ele>
        <time>2023-07-23T12:37:48Z</time>
      </trkpt>
      <trkpt lat="42.19474" lon="0.86679">
        <ele>639.6</ele>
        <time>2023-07-23T12:37:49Z</time>
      </trkpt>
      <trkpt lat="42.19467" lon="0.8668">
        <ele>639.2</ele>
        <time>2023-07-23T12:37:50Z</time>
      </trkpt>
      <trkpt lat="42.19461" lon="0.86681">
        <ele>638.2</ele>
        <time>2023-07-23T12:37:51Z</time>
      </trkpt>
      <trkpt lat="42.19454" lon="0.86684">
        <ele>637.8</ele>
        <time>2023-07-23T12:37:52Z</time>
      </trkpt>
      <trkpt lat="42.19449" lon="0.86687">
        <ele>636.4</ele>
        <time>2023-07-23T12:37:53Z</time>
      </trkpt>
      <trkpt lat="42.19443" lon="0.86691">
        <ele>635</ele>
        <time>2023-07-23T12:37:54Z</time>
      </trkpt>
      <trkpt lat="42.19438" lon="0.86693">
        <ele>634.4</ele>
        <time>2023-07-23T12:37:55Z</time>
      </trkpt>
      <trkpt lat="42.19433" lon="0.86696">
        <ele>633</ele>
        <time>2023-07-23T12:37:56Z</time>
      </trkpt>
      <trkpt lat="42.19429" lon="0.86699">
        <ele>632.6</ele>
        <time>2023-07-23T12:37:57Z</time>
      </trkpt>
      <trkpt lat="42.19426" lon="0.86703">
        <ele>632</ele>
        <time>2023-07-23T12:37:58Z</time>
      </trkpt>
      <trkpt lat="42.19422" lon="0.86708">
        <ele>631.8</ele>
        <time>2023-07-23T12:37:59Z</time>
      </trkpt>
      <trkpt lat="42.19416" lon="0.86713">
        <ele>631.6</ele>
        <time>2023-07-23T12:38:00Z</time>
      </trkpt>
      <trkpt lat="42.1941" lon="0.86718">
        <ele>631</ele>
        <time>2023-07-23T12:38:01Z</time>
      </trkpt>
      <trkpt lat="42.19404" lon="0.86723">
        <ele>630.6</ele>
        <time>2023-07-23T12:38:02Z</time>
      </trkpt>
      <trkpt lat="42.19397" lon="0.86728">
        <ele>630.2</ele>
        <time>2023-07-23T12:38:03Z</time>
      </trkpt>
      <trkpt lat="42.1939" lon="0.86733">
        <ele>629.8</ele>
        <time>2023-07-23T12:38:04Z</time>
      </trkpt>
      <trkpt lat="42.19383" lon="0.86738">
        <ele>629.4</ele>
        <time>2023-07-23T12:38:05Z</time>
      </trkpt>
      <trkpt lat="42.19377" lon="0.86743">
        <ele>628.8</ele>
        <time>2023-07-23T12:38:06Z</time>
      </trkpt>
      <trkpt lat="42.1937" lon="0.8675">
        <ele>628.4</ele>
        <time>2023-07-23T12:38:07Z</time>
      </trkpt>
      <trkpt lat="42.19363" lon="0.86757">
        <ele>627.2</ele>
        <time>2023-07-23T12:38:08Z</time>
      </trkpt>
      <trkpt lat="42.19357" lon="0.86765">
        <ele>626.4</ele>
        <time>2023-07-23T12:38:09Z</time>
      </trkpt>
      <trkpt lat="42.19351" lon="0.86772">
        <ele>625.6</ele>
        <time>2023-07-23T12:38:10Z</time>
      </trkpt>
      <trkpt lat="42.19345" lon="0.86778">
        <ele>624.4</ele>
        <time>2023-07-23T12:38:11Z</time>
      </trkpt>
      <trkpt lat="42.19339" lon="0.86784">
        <ele>624</ele>
        <time>2023-07-23T12:38:12Z</time>
      </trkpt>
      <trkpt lat="42.19332" lon="0.86789">
        <ele>623.2</ele>
        <time>2023-07-23T12:38:13Z</time>
      </trkpt>
      <trkpt lat="42.19325" lon="0.86795">
        <ele>623</ele>
        <time>2023-07-23T12:38:14Z</time>
      </trkpt>
      <trkpt lat="42.19319" lon="0.868">
        <ele>622.6</ele>
        <time>2023-07-23T12:38:15Z</time>
      </trkpt>
      <trkpt lat="42.19312" lon="0.86803">
        <ele>621.6</ele>
        <time>2023-07-23T12:38:16Z</time>
      </trkpt>
      <trkpt lat="42.19306" lon="0.86805">
        <ele>621.2</ele>
        <time>2023-07-23T12:38:17Z</time>
      </trkpt>
      <trkpt lat="42.193" lon="0.86805">
        <ele>620.8</ele>
        <time>2023-07-23T12:38:18Z</time>
      </trkpt>
      <trkpt lat="42.19294" lon="0.86803">
        <ele>620.6</ele>
        <time>2023-07-23T12:38:19Z</time>
      </trkpt>
      <trkpt lat="42.19288" lon="0.86802">
        <ele>619.8</ele>
        <time>2023-07-23T12:38:20Z</time>
      </trkpt>
      <trkpt lat="42.19281" lon="0.86801">
        <ele>619.4</ele>
        <time>2023-07-23T12:38:21Z</time>
      </trkpt>
      <trkpt lat="42.19274" lon="0.86801">
        <ele>619</ele>
        <time>2023-07-23T12:38:22Z</time>
      </trkpt>
      <trkpt lat="42.19267" lon="0.86802">
        <ele>618.8</ele>
        <time>2023-07-23T12:38:23Z</time>
      </trkpt>
      <trkpt lat="42.19261" lon="0.86802">
        <ele>618.6</ele>
        <time>2023-07-23T12:38:24Z</time>
      </trkpt>
      <trkpt lat="42.19254" lon="0.86802">
        <ele>618.6</ele>
        <time>2023-07-23T12:38:25Z</time>
      </trkpt>
      <trkpt lat="42.19248" lon="0.86801">
        <ele>618.6</ele>
        <time>2023-07-23T12:38:26Z</time>
      </trkpt>
      <trkpt lat="42.19242" lon="0.86801">
        <ele>618.4</ele>
        <time>2023-07-23T12:38:27Z</time>
      </trkpt>
      <trkpt lat="42.19236" lon="0.86801">
        <ele>618.2</ele>
        <time>2023-07-23T12:38:28Z</time>
      </trkpt>
      <trkpt lat="42.19232" lon="0.86803">
        <ele>618.2</ele>
        <time>2023-07-23T12:38:29Z</time>
      </trkpt>
      <trkpt lat="42.1923" lon="0.86806">
        <ele>618.2</ele>
        <time>2023-07-23T12:38:30Z</time>
      </trkpt>
      <trkpt lat="42.19228" lon="0.86808">
        <ele>618.2</ele>
        <time>2023-07-23T12:38:31Z</time>
      </trkpt>
      <trkpt lat="42.19226" lon="0.86809">
        <ele>618.4</ele>
        <time>2023-07-23T12:38:32Z</time>
      </trkpt>
      <trkpt lat="42.19225" lon="0.86812">
        <ele>618.4</ele>
        <time>2023-07-23T12:38:33Z</time>
      </trkpt>
      <trkpt lat="42.19223" lon="0.86815">
        <ele>618.4</ele>
        <time>2023-07-23T12:38:34Z</time>
      </trkpt>
      <trkpt lat="42.19223" lon="0.86818">
        <ele>618.6</ele>
        <time>2023-07-23T12:38:35Z</time>
      </trkpt>
      <trkpt lat="42.19222" lon="0.8682">
        <ele>618.8</ele>
        <time>2023-07-23T12:38:36Z</time>
      </trkpt>
      <trkpt lat="42.19221" lon="0.86821">
        <ele>619.2</ele>
        <time>2023-07-23T12:38:37Z</time>
      </trkpt>
      <trkpt lat="42.19221" lon="0.86822">
        <ele>619.2</ele>
        <time>2023-07-23T12:38:38Z</time>
      </trkpt>
      <trkpt lat="42.19221" lon="0.86822">
        <ele>619.2</ele>
        <time>2023-07-23T12:38:39Z</time>
      </trkpt>
      <trkpt lat="42.19217" lon="0.86828">
        <ele>619.4</ele>
        <time>2023-07-23T12:39:11Z</time>
      </trkpt>
      <trkpt lat="42.19216" lon="0.86831">
        <ele>619.2</ele>
        <time>2023-07-23T12:39:12Z</time>
      </trkpt>
      <trkpt lat="42.19214" lon="0.86834">
        <ele>619.2</ele>
        <time>2023-07-23T12:39:13Z</time>
      </trkpt>
      <trkpt lat="42.19212" lon="0.86838">
        <ele>619.2</ele>
        <time>2023-07-23T12:39:14Z</time>
      </trkpt>
      <trkpt lat="42.19211" lon="0.86842">
        <ele>619</ele>
        <time>2023-07-23T12:39:15Z</time>
      </trkpt>
      <trkpt lat="42.19209" lon="0.86847">
        <ele>619</ele>
        <time>2023-07-23T12:39:16Z</time>
      </trkpt>
      <trkpt lat="42.19208" lon="0.86852">
        <ele>618.8</ele>
        <time>2023-07-23T12:39:17Z</time>
      </trkpt>
      <trkpt lat="42.19206" lon="0.86857">
        <ele>618.8</ele>
        <time>2023-07-23T12:39:18Z</time>
      </trkpt>
      <trkpt lat="42.19204" lon="0.86862">
        <ele>618.4</ele>
        <time>2023-07-23T12:39:19Z</time>
      </trkpt>
      <trkpt lat="42.19203" lon="0.86868">
        <ele>618.4</ele>
        <time>2023-07-23T12:39:20Z</time>
      </trkpt>
      <trkpt lat="42.19202" lon="0.86873">
        <ele>618.2</ele>
        <time>2023-07-23T12:39:21Z</time>
      </trkpt>
      <trkpt lat="42.19201" lon="0.86879">
        <ele>618.2</ele>
        <time>2023-07-23T12:39:22Z</time>
      </trkpt>
      <trkpt lat="42.192" lon="0.86885">
        <ele>618.2</ele>
        <time>2023-07-23T12:39:23Z</time>
      </trkpt>
      <trkpt lat="42.19199" lon="0.86891">
        <ele>617.6</ele>
        <time>2023-07-23T12:39:24Z</time>
      </trkpt>
      <trkpt lat="42.19199" lon="0.86898">
        <ele>617.4</ele>
        <time>2023-07-23T12:39:25Z</time>
      </trkpt>
      <trkpt lat="42.19199" lon="0.86905">
        <ele>617</ele>
        <time>2023-07-23T12:39:26Z</time>
      </trkpt>
      <trkpt lat="42.192" lon="0.86911">
        <ele>616.8</ele>
        <time>2023-07-23T12:39:27Z</time>
      </trkpt>
      <trkpt lat="42.192" lon="0.86918">
        <ele>616.6</ele>
        <time>2023-07-23T12:39:28Z</time>
      </trkpt>
      <trkpt lat="42.19199" lon="0.86925">
        <ele>616.4</ele>
        <time>2023-07-23T12:39:29Z</time>
      </trkpt>
      <trkpt lat="42.19199" lon="0.86933">
        <ele>616.2</ele>
        <time>2023-07-23T12:39:30Z</time>
      </trkpt>
      <trkpt lat="42.19197" lon="0.86942">
        <ele>616</ele>
        <time>2023-07-23T12:39:31Z</time>
      </trkpt>
      <trkpt lat="42.19195" lon="0.86951">
        <ele>615.8</ele>
        <time>2023-07-23T12:39:32Z</time>
      </trkpt>
      <trkpt lat="42.19193" lon="0.86961">
        <ele>615.6</ele>
        <time>2023-07-23T12:39:33Z</time>
      </trkpt>
      <trkpt lat="42.19191" lon="0.86971">
        <ele>615.2</ele>
        <time>2023-07-23T12:39:34Z</time>
      </trkpt>
      <trkpt lat="42.19189" lon="0.8698">
        <ele>614.8</ele>
        <time>2023-07-23T12:39:35Z</time>
      </trkpt>
      <trkpt lat="42.19185" lon="0.86988">
        <ele>614.2</ele>
        <time>2023-07-23T12:39:36Z</time>
      </trkpt>
      <trkpt lat="42.19179" lon="0.86996">
        <ele>613.8</ele>
        <time>2023-07-23T12:39:37Z</time>
      </trkpt>
      <trkpt lat="42.19174" lon="0.87003">
        <ele>613.6</ele>
        <time>2023-07-23T12:39:38Z</time>
      </trkpt>
      <trkpt lat="42.19167" lon="0.87009">
        <ele>612.6</ele>
        <time>2023-07-23T12:39:39Z</time>
      </trkpt>
      <trkpt lat="42.19161" lon="0.87016">
        <ele>612.2</ele>
        <time>2023-07-23T12:39:40Z</time>
      </trkpt>
      <trkpt lat="42.19155" lon="0.87023">
        <ele>611.2</ele>
        <time>2023-07-23T12:39:41Z</time>
      </trkpt>
      <trkpt lat="42.19149" lon="0.8703">
        <ele>610.8</ele>
        <time>2023-07-23T12:39:42Z</time>
      </trkpt>
      <trkpt lat="42.19144" lon="0.87037">
        <ele>610.4</ele>
        <time>2023-07-23T12:39:43Z</time>
      </trkpt>
      <trkpt lat="42.19139" lon="0.87046">
        <ele>610</ele>
        <time>2023-07-23T12:39:44Z</time>
      </trkpt>
      <trkpt lat="42.19134" lon="0.87054">
        <ele>610</ele>
        <time>2023-07-23T12:39:45Z</time>
      </trkpt>
      <trkpt lat="42.19131" lon="0.87064">
        <ele>609.8</ele>
        <time>2023-07-23T12:39:46Z</time>
      </trkpt>
      <trkpt lat="42.19128" lon="0.87075">
        <ele>609.6</ele>
        <time>2023-07-23T12:39:47Z</time>
      </trkpt>
      <trkpt lat="42.19127" lon="0.87085">
        <ele>609</ele>
        <time>2023-07-23T12:39:48Z</time>
      </trkpt>
      <trkpt lat="42.19126" lon="0.87095">
        <ele>608.6</ele>
        <time>2023-07-23T12:39:49Z</time>
      </trkpt>
      <trkpt lat="42.19126" lon="0.87105">
        <ele>608.4</ele>
        <time>2023-07-23T12:39:50Z</time>
      </trkpt>
      <trkpt lat="42.19126" lon="0.87123">
        <ele>608</ele>
        <time>2023-07-23T12:39:52Z</time>
      </trkpt>
      <trkpt lat="42.19127" lon="0.87132">
        <ele>607.8</ele>
        <time>2023-07-23T12:39:53Z</time>
      </trkpt>
      <trkpt lat="42.19129" lon="0.87141">
        <ele>607.6</ele>
        <time>2023-07-23T12:39:54Z</time>
      </trkpt>
      <trkpt lat="42.19131" lon="0.87149">
        <ele>607.6</ele>
        <time>2023-07-23T12:39:55Z</time>
      </trkpt>
      <trkpt lat="42.19132" lon="0.87157">
        <ele>607.4</ele>
        <time>2023-07-23T12:39:56Z</time>
      </trkpt>
      <trkpt lat="42.19133" lon="0.87166">
        <ele>607.2</ele>
        <time>2023-07-23T12:39:57Z</time>
      </trkpt>
      <trkpt lat="42.19131" lon="0.87173">
        <ele>607</ele>
        <time>2023-07-23T12:39:58Z</time>
      </trkpt>
      <trkpt lat="42.19128" lon="0.87179">
        <ele>606.6</ele>
        <time>2023-07-23T12:39:59Z</time>
      </trkpt>
      <trkpt lat="42.19123" lon="0.87184">
        <ele>606.2</ele>
        <time>2023-07-23T12:40:00Z</time>
      </trkpt>
      <trkpt lat="42.19117" lon="0.87186">
        <ele>605.6</ele>
        <time>2023-07-23T12:40:01Z</time>
      </trkpt>
      <trkpt lat="42.1911" lon="0.87189">
        <ele>605.2</ele>
        <time>2023-07-23T12:40:02Z</time>
      </trkpt>
      <trkpt lat="42.19104" lon="0.8719">
        <ele>604.6</ele>
        <time>2023-07-23T12:40:03Z</time>
      </trkpt>
      <trkpt lat="42.19097" lon="0.87191">
        <ele>604.2</ele>
        <time>2023-07-23T12:40:04Z</time>
      </trkpt>
      <trkpt lat="42.1909" lon="0.87192">
        <ele>604</ele>
        <time>2023-07-23T12:40:05Z</time>
      </trkpt>
      <trkpt lat="42.19083" lon="0.87192">
        <ele>603.6</ele>
        <time>2023-07-23T12:40:06Z</time>
      </trkpt>
      <trkpt lat="42.19076" lon="0.87192">
        <ele>603.4</ele>
        <time>2023-07-23T12:40:07Z</time>
      </trkpt>
      <trkpt lat="42.19068" lon="0.87193">
        <ele>603.2</ele>
        <time>2023-07-23T12:40:08Z</time>
      </trkpt>
      <trkpt lat="42.19061" lon="0.87195">
        <ele>602.8</ele>
        <time>2023-07-23T12:40:09Z</time>
      </trkpt>
      <trkpt lat="42.19054" lon="0.87198">
        <ele>602.4</ele>
        <time>2023-07-23T12:40:10Z</time>
      </trkpt>
      <trkpt lat="42.19047" lon="0.87202">
        <ele>602</ele>
        <time>2023-07-23T12:40:11Z</time>
      </trkpt>
      <trkpt lat="42.1904" lon="0.87205">
        <ele>601.8</ele>
        <time>2023-07-23T12:40:12Z</time>
      </trkpt>
      <trkpt lat="42.19034" lon="0.87209">
        <ele>601.6</ele>
        <time>2023-07-23T12:40:13Z</time>
      </trkpt>
      <trkpt lat="42.19028" lon="0.87214">
        <ele>601.4</ele>
        <time>2023-07-23T12:40:14Z</time>
      </trkpt>
      <trkpt lat="42.19022" lon="0.87219">
        <ele>601.2</ele>
        <time>2023-07-23T12:40:15Z</time>
      </trkpt>
      <trkpt lat="42.19016" lon="0.87225">
        <ele>600.8</ele>
        <time>2023-07-23T12:40:16Z</time>
      </trkpt>
      <trkpt lat="42.19011" lon="0.87231">
        <ele>600.6</ele>
        <time>2023-07-23T12:40:17Z</time>
      </trkpt>
      <trkpt lat="42.19006" lon="0.87239">
        <ele>600.4</ele>
        <time>2023-07-23T12:40:18Z</time>
      </trkpt>
      <trkpt lat="42.19001" lon="0.87247">
        <ele>600</ele>
        <time>2023-07-23T12:40:19Z</time>
      </trkpt>
      <trkpt lat="42.18998" lon="0.87255">
        <ele>599.6</ele>
        <time>2023-07-23T12:40:20Z</time>
      </trkpt>
      <trkpt lat="42.18996" lon="0.87264">
        <ele>599.6</ele>
        <time>2023-07-23T12:40:21Z</time>
      </trkpt>
      <trkpt lat="42.18995" lon="0.87273">
        <ele>599.2</ele>
        <time>2023-07-23T12:40:22Z</time>
      </trkpt>
      <trkpt lat="42.18996" lon="0.87282">
        <ele>599.2</ele>
        <time>2023-07-23T12:40:23Z</time>
      </trkpt>
      <trkpt lat="42.18996" lon="0.8729">
        <ele>598.8</ele>
        <time>2023-07-23T12:40:24Z</time>
      </trkpt>
      <trkpt lat="42.18995" lon="0.87298">
        <ele>598.8</ele>
        <time>2023-07-23T12:40:25Z</time>
      </trkpt>
      <trkpt lat="42.18991" lon="0.87303">
        <ele>598.4</ele>
        <time>2023-07-23T12:40:26Z</time>
      </trkpt>
      <trkpt lat="42.18986" lon="0.87308">
        <ele>598.2</ele>
        <time>2023-07-23T12:40:27Z</time>
      </trkpt>
      <trkpt lat="42.18981" lon="0.87312">
        <ele>597.8</ele>
        <time>2023-07-23T12:40:28Z</time>
      </trkpt>
      <trkpt lat="42.18975" lon="0.87316">
        <ele>597.4</ele>
        <time>2023-07-23T12:40:29Z</time>
      </trkpt>
      <trkpt lat="42.1897" lon="0.8732">
        <ele>596.8</ele>
        <time>2023-07-23T12:40:30Z</time>
      </trkpt>
      <trkpt lat="42.18965" lon="0.87324">
        <ele>596.4</ele>
        <time>2023-07-23T12:40:31Z</time>
      </trkpt>
      <trkpt lat="42.1896" lon="0.87326">
        <ele>596.2</ele>
        <time>2023-07-23T12:40:32Z</time>
      </trkpt>
      <trkpt lat="42.18955" lon="0.87329">
        <ele>596</ele>
        <time>2023-07-23T12:40:33Z</time>
      </trkpt>
      <trkpt lat="42.1895" lon="0.87331">
        <ele>595.8</ele>
        <time>2023-07-23T12:40:34Z</time>
      </trkpt>
      <trkpt lat="42.18946" lon="0.87333">
        <ele>595.6</ele>
        <time>2023-07-23T12:40:35Z</time>
      </trkpt>
      <trkpt lat="42.18942" lon="0.87336">
        <ele>595.4</ele>
        <time>2023-07-23T12:40:36Z</time>
      </trkpt>
      <trkpt lat="42.18939" lon="0.87339">
        <ele>595.4</ele>
        <time>2023-07-23T12:40:37Z</time>
      </trkpt>
      <trkpt lat="42.18935" lon="0.87344">
        <ele>595.2</ele>
        <time>2023-07-23T12:40:38Z</time>
      </trkpt>
      <trkpt lat="42.18933" lon="0.8735">
        <ele>595</ele>
        <time>2023-07-23T12:40:39Z</time>
      </trkpt>
      <trkpt lat="42.1893" lon="0.87356">
        <ele>595</ele>
        <time>2023-07-23T12:40:40Z</time>
      </trkpt>
      <trkpt lat="42.18928" lon="0.87362">
        <ele>595</ele>
        <time>2023-07-23T12:40:41Z</time>
      </trkpt>
      <trkpt lat="42.18926" lon="0.87368">
        <ele>595</ele>
        <time>2023-07-23T12:40:42Z</time>
      </trkpt>
      <trkpt lat="42.18922" lon="0.87374">
        <ele>595</ele>
        <time>2023-07-23T12:40:43Z</time>
      </trkpt>
      <trkpt lat="42.18918" lon="0.87381">
        <ele>594.8</ele>
        <time>2023-07-23T12:40:44Z</time>
      </trkpt>
      <trkpt lat="42.18914" lon="0.87389">
        <ele>594.6</ele>
        <time>2023-07-23T12:40:45Z</time>
      </trkpt>
      <trkpt lat="42.1891" lon="0.87396">
        <ele>594.6</ele>
        <time>2023-07-23T12:40:46Z</time>
      </trkpt>
      <trkpt lat="42.18906" lon="0.87404">
        <ele>593.6</ele>
        <time>2023-07-23T12:40:47Z</time>
      </trkpt>
      <trkpt lat="42.18903" lon="0.87412">
        <ele>593.2</ele>
        <time>2023-07-23T12:40:48Z</time>
      </trkpt>
      <trkpt lat="42.18901" lon="0.8742">
        <ele>593</ele>
        <time>2023-07-23T12:40:49Z</time>
      </trkpt>
      <trkpt lat="42.18899" lon="0.87428">
        <ele>592.6</ele>
        <time>2023-07-23T12:40:50Z</time>
      </trkpt>
      <trkpt lat="42.18897" lon="0.87437">
        <ele>592.6</ele>
        <time>2023-07-23T12:40:51Z</time>
      </trkpt>
      <trkpt lat="42.18895" lon="0.87446">
        <ele>592.2</ele>
        <time>2023-07-23T12:40:52Z</time>
      </trkpt>
      <trkpt lat="42.18893" lon="0.87455">
        <ele>591.8</ele>
        <time>2023-07-23T12:40:53Z</time>
      </trkpt>
      <trkpt lat="42.1889" lon="0.87464">
        <ele>591.8</ele>
        <time>2023-07-23T12:40:54Z</time>
      </trkpt>
      <trkpt lat="42.18888" lon="0.87472">
        <ele>591.4</ele>
        <time>2023-07-23T12:40:55Z</time>
      </trkpt>
      <trkpt lat="42.18886" lon="0.8748">
        <ele>591.4</ele>
        <time>2023-07-23T12:40:56Z</time>
      </trkpt>
      <trkpt lat="42.18883" lon="0.87487">
        <ele>591.2</ele>
        <time>2023-07-23T12:40:57Z</time>
      </trkpt>
      <trkpt lat="42.18879" lon="0.87493">
        <ele>590.8</ele>
        <time>2023-07-23T12:40:58Z</time>
      </trkpt>
      <trkpt lat="42.18872" lon="0.87498">
        <ele>590.4</ele>
        <time>2023-07-23T12:40:59Z</time>
      </trkpt>
      <trkpt lat="42.18864" lon="0.875">
        <ele>590</ele>
        <time>2023-07-23T12:41:00Z</time>
      </trkpt>
      <trkpt lat="42.18857" lon="0.875">
        <ele>589.8</ele>
        <time>2023-07-23T12:41:01Z</time>
      </trkpt>
      <trkpt lat="42.1885" lon="0.875">
        <ele>589.6</ele>
        <time>2023-07-23T12:41:02Z</time>
      </trkpt>
      <trkpt lat="42.18843" lon="0.87499">
        <ele>589.4</ele>
        <time>2023-07-23T12:41:03Z</time>
      </trkpt>
      <trkpt lat="42.18835" lon="0.87499">
        <ele>589.2</ele>
        <time>2023-07-23T12:41:04Z</time>
      </trkpt>
      <trkpt lat="42.18828" lon="0.87499">
        <ele>588.8</ele>
        <time>2023-07-23T12:41:05Z</time>
      </trkpt>
      <trkpt lat="42.18821" lon="0.87499">
        <ele>588.8</ele>
        <time>2023-07-23T12:41:06Z</time>
      </trkpt>
      <trkpt lat="42.18813" lon="0.87499">
        <ele>588.4</ele>
        <time>2023-07-23T12:41:07Z</time>
      </trkpt>
      <trkpt lat="42.18806" lon="0.875">
        <ele>588</ele>
        <time>2023-07-23T12:41:08Z</time>
      </trkpt>
      <trkpt lat="42.18799" lon="0.87501">
        <ele>587.6</ele>
        <time>2023-07-23T12:41:09Z</time>
      </trkpt>
      <trkpt lat="42.18792" lon="0.87502">
        <ele>587</ele>
        <time>2023-07-23T12:41:10Z</time>
      </trkpt>
      <trkpt lat="42.18786" lon="0.87505">
        <ele>586.8</ele>
        <time>2023-07-23T12:41:11Z</time>
      </trkpt>
      <trkpt lat="42.1878" lon="0.87508">
        <ele>586.6</ele>
        <time>2023-07-23T12:41:12Z</time>
      </trkpt>
      <trkpt lat="42.18774" lon="0.87513">
        <ele>586.4</ele>
        <time>2023-07-23T12:41:13Z</time>
      </trkpt>
      <trkpt lat="42.1877" lon="0.87518">
        <ele>586.2</ele>
        <time>2023-07-23T12:41:14Z</time>
      </trkpt>
      <trkpt lat="42.18766" lon="0.87524">
        <ele>586</ele>
        <time>2023-07-23T12:41:15Z</time>
      </trkpt>
      <trkpt lat="42.18763" lon="0.87531">
        <ele>586</ele>
        <time>2023-07-23T12:41:16Z</time>
      </trkpt>
      <trkpt lat="42.18759" lon="0.87538">
        <ele>585.8</ele>
        <time>2023-07-23T12:41:17Z</time>
      </trkpt>
      <trkpt lat="42.18754" lon="0.87545">
        <ele>585.6</ele>
        <time>2023-07-23T12:41:18Z</time>
      </trkpt>
      <trkpt lat="42.18749" lon="0.8755">
        <ele>585.4</ele>
        <time>2023-07-23T12:41:19Z</time>
      </trkpt>
      <trkpt lat="42.18744" lon="0.87555">
        <ele>585.2</ele>
        <time>2023-07-23T12:41:20Z</time>
      </trkpt>
      <trkpt lat="42.18738" lon="0.8756">
        <ele>585</ele>
        <time>2023-07-23T12:41:21Z</time>
      </trkpt>
      <trkpt lat="42.18732" lon="0.87564">
        <ele>584.6</ele>
        <time>2023-07-23T12:41:22Z</time>
      </trkpt>
      <trkpt lat="42.18727" lon="0.87569">
        <ele>584.6</ele>
        <time>2023-07-23T12:41:23Z</time>
      </trkpt>
      <trkpt lat="42.18723" lon="0.87576">
        <ele>584.4</ele>
        <time>2023-07-23T12:41:24Z</time>
      </trkpt>
      <trkpt lat="42.18719" lon="0.87584">
        <ele>584</ele>
        <time>2023-07-23T12:41:25Z</time>
      </trkpt>
      <trkpt lat="42.18716" lon="0.87592">
        <ele>583.6</ele>
        <time>2023-07-23T12:41:26Z</time>
      </trkpt>
      <trkpt lat="42.18713" lon="0.876">
        <ele>583</ele>
        <time>2023-07-23T12:41:27Z</time>
      </trkpt>
      <trkpt lat="42.18709" lon="0.87607">
        <ele>582.8</ele>
        <time>2023-07-23T12:41:28Z</time>
      </trkpt>
      <trkpt lat="42.18705" lon="0.87612">
        <ele>582.6</ele>
        <time>2023-07-23T12:41:29Z</time>
      </trkpt>
      <trkpt lat="42.187" lon="0.87616">
        <ele>582.4</ele>
        <time>2023-07-23T12:41:30Z</time>
      </trkpt>
      <trkpt lat="42.18696" lon="0.8762">
        <ele>582.4</ele>
        <time>2023-07-23T12:41:31Z</time>
      </trkpt>
      <trkpt lat="42.18691" lon="0.87624">
        <ele>582.2</ele>
        <time>2023-07-23T12:41:32Z</time>
      </trkpt>
      <trkpt lat="42.18687" lon="0.87628">
        <ele>582.2</ele>
        <time>2023-07-23T12:41:33Z</time>
      </trkpt>
      <trkpt lat="42.18682" lon="0.87632">
        <ele>582</ele>
        <time>2023-07-23T12:41:34Z</time>
      </trkpt>
      <trkpt lat="42.18677" lon="0.87637">
        <ele>582</ele>
        <time>2023-07-23T12:41:35Z</time>
      </trkpt>
      <trkpt lat="42.18672" lon="0.8764">
        <ele>582</ele>
        <time>2023-07-23T12:41:36Z</time>
      </trkpt>
      <trkpt lat="42.18665" lon="0.87644">
        <ele>581.8</ele>
        <time>2023-07-23T12:41:37Z</time>
      </trkpt>
      <trkpt lat="42.18659" lon="0.87648">
        <ele>581.8</ele>
        <time>2023-07-23T12:41:38Z</time>
      </trkpt>
      <trkpt lat="42.18652" lon="0.87651">
        <ele>581.6</ele>
        <time>2023-07-23T12:41:39Z</time>
      </trkpt>
      <trkpt lat="42.18644" lon="0.87654">
        <ele>581.6</ele>
        <time>2023-07-23T12:41:40Z</time>
      </trkpt>
      <trkpt lat="42.18637" lon="0.87658">
        <ele>581.2</ele>
        <time>2023-07-23T12:41:41Z</time>
      </trkpt>
      <trkpt lat="42.18629" lon="0.8766">
        <ele>580.2</ele>
        <time>2023-07-23T12:41:42Z</time>
      </trkpt>
      <trkpt lat="42.18622" lon="0.87662">
        <ele>579.8</ele>
        <time>2023-07-23T12:41:43Z</time>
      </trkpt>
      <trkpt lat="42.18614" lon="0.87662">
        <ele>579.4</ele>
        <time>2023-07-23T12:41:44Z</time>
      </trkpt>
      <trkpt lat="42.18607" lon="0.87662">
        <ele>579.2</ele>
        <time>2023-07-23T12:41:45Z</time>
      </trkpt>
      <trkpt lat="42.186" lon="0.87662">
        <ele>579</ele>
        <time>2023-07-23T12:41:46Z</time>
      </trkpt>
      <trkpt lat="42.18593" lon="0.87662">
        <ele>578.4</ele>
        <time>2023-07-23T12:41:47Z</time>
      </trkpt>
      <trkpt lat="42.18586" lon="0.87664">
        <ele>578.2</ele>
        <time>2023-07-23T12:41:48Z</time>
      </trkpt>
      <trkpt lat="42.18579" lon="0.87667">
        <ele>577.4</ele>
        <time>2023-07-23T12:41:49Z</time>
      </trkpt>
      <trkpt lat="42.18573" lon="0.87671">
        <ele>577.2</ele>
        <time>2023-07-23T12:41:50Z</time>
      </trkpt>
      <trkpt lat="42.18567" lon="0.87677">
        <ele>576.6</ele>
        <time>2023-07-23T12:41:51Z</time>
      </trkpt>
      <trkpt lat="42.18562" lon="0.87683">
        <ele>576.2</ele>
        <time>2023-07-23T12:41:52Z</time>
      </trkpt>
      <trkpt lat="42.18556" lon="0.87691">
        <ele>576.2</ele>
        <time>2023-07-23T12:41:53Z</time>
      </trkpt>
      <trkpt lat="42.18551" lon="0.87698">
        <ele>575.8</ele>
        <time>2023-07-23T12:41:54Z</time>
      </trkpt>
      <trkpt lat="42.18546" lon="0.87705">
        <ele>575.8</ele>
        <time>2023-07-23T12:41:55Z</time>
      </trkpt>
      <trkpt lat="42.18542" lon="0.87714">
        <ele>575.6</ele>
        <time>2023-07-23T12:41:56Z</time>
      </trkpt>
      <trkpt lat="42.18539" lon="0.87723">
        <ele>575.4</ele>
        <time>2023-07-23T12:41:57Z</time>
      </trkpt>
      <trkpt lat="42.18537" lon="0.87732">
        <ele>575</ele>
        <time>2023-07-23T12:41:58Z</time>
      </trkpt>
      <trkpt lat="42.18537" lon="0.87741">
        <ele>574.8</ele>
        <time>2023-07-23T12:41:59Z</time>
      </trkpt>
      <trkpt lat="42.18536" lon="0.8775">
        <ele>574.6</ele>
        <time>2023-07-23T12:42:00Z</time>
      </trkpt>
      <trkpt lat="42.18535" lon="0.87758">
        <ele>574.4</ele>
        <time>2023-07-23T12:42:01Z</time>
      </trkpt>
      <trkpt lat="42.18533" lon="0.87766">
        <ele>574</ele>
        <time>2023-07-23T12:42:02Z</time>
      </trkpt>
      <trkpt lat="42.18532" lon="0.87773">
        <ele>573.8</ele>
        <time>2023-07-23T12:42:03Z</time>
      </trkpt>
      <trkpt lat="42.18532" lon="0.8778">
        <ele>573</ele>
        <time>2023-07-23T12:42:04Z</time>
      </trkpt>
      <trkpt lat="42.18531" lon="0.87787">
        <ele>572.8</ele>
        <time>2023-07-23T12:42:05Z</time>
      </trkpt>
      <trkpt lat="42.1853" lon="0.87794">
        <ele>572.6</ele>
        <time>2023-07-23T12:42:06Z</time>
      </trkpt>
      <trkpt lat="42.1853" lon="0.87799">
        <ele>572.4</ele>
        <time>2023-07-23T12:42:07Z</time>
      </trkpt>
      <trkpt lat="42.1853" lon="0.87802">
        <ele>572.2</ele>
        <time>2023-07-23T12:42:08Z</time>
      </trkpt>
      <trkpt lat="42.1853" lon="0.87804">
        <ele>572</ele>
        <time>2023-07-23T12:42:09Z</time>
      </trkpt>
      <trkpt lat="42.1853" lon="0.87805">
        <ele>572</ele>
        <time>2023-07-23T12:42:10Z</time>
      </trkpt>
      <trkpt lat="42.1853" lon="0.87806">
        <ele>572</ele>
        <time>2023-07-23T12:42:11Z</time>
      </trkpt>
      <trkpt lat="42.18531" lon="0.87807">
        <ele>572</ele>
        <time>2023-07-23T12:42:12Z</time>
      </trkpt>
      <trkpt lat="42.18531" lon="0.87809">
        <ele>571.8</ele>
        <time>2023-07-23T12:42:13Z</time>
      </trkpt>
      <trkpt lat="42.18531" lon="0.87811">
        <ele>571.8</ele>
        <time>2023-07-23T12:42:14Z</time>
      </trkpt>
      <trkpt lat="42.1853" lon="0.87813">
        <ele>571.8</ele>
        <time>2023-07-23T12:42:15Z</time>
      </trkpt>
      <trkpt lat="42.18531" lon="0.87816">
        <ele>571.8</ele>
        <time>2023-07-23T12:42:16Z</time>
      </trkpt>
      <trkpt lat="42.18531" lon="0.8782">
        <ele>571.8</ele>
        <time>2023-07-23T12:42:17Z</time>
      </trkpt>
      <trkpt lat="42.18532" lon="0.87824">
        <ele>571.6</ele>
        <time>2023-07-23T12:42:18Z</time>
      </trkpt>
      <trkpt lat="42.18532" lon="0.87828">
        <ele>571.6</ele>
        <time>2023-07-23T12:42:19Z</time>
      </trkpt>
      <trkpt lat="42.18533" lon="0.87832">
        <ele>571.6</ele>
        <time>2023-07-23T12:42:20Z</time>
      </trkpt>
      <trkpt lat="42.18534" lon="0.87836">
        <ele>571.6</ele>
        <time>2023-07-23T12:42:21Z</time>
      </trkpt>
      <trkpt lat="42.18535" lon="0.8784">
        <ele>571.6</ele>
        <time>2023-07-23T12:42:22Z</time>
      </trkpt>
      <trkpt lat="42.18536" lon="0.87844">
        <ele>571.6</ele>
        <time>2023-07-23T12:42:23Z</time>
      </trkpt>
      <trkpt lat="42.18537" lon="0.87849">
        <ele>571.6</ele>
        <time>2023-07-23T12:42:24Z</time>
      </trkpt>
      <trkpt lat="42.18538" lon="0.87853">
        <ele>571.8</ele>
        <time>2023-07-23T12:42:25Z</time>
      </trkpt>
      <trkpt lat="42.1854" lon="0.87858">
        <ele>572</ele>
        <time>2023-07-23T12:42:26Z</time>
      </trkpt>
      <trkpt lat="42.18541" lon="0.87863">
        <ele>572</ele>
        <time>2023-07-23T12:42:27Z</time>
      </trkpt>
      <trkpt lat="42.18542" lon="0.87868">
        <ele>572.2</ele>
        <time>2023-07-23T12:42:28Z</time>
      </trkpt>
      <trkpt lat="42.18543" lon="0.87872">
        <ele>572.4</ele>
        <time>2023-07-23T12:42:29Z</time>
      </trkpt>
      <trkpt lat="42.18545" lon="0.87877">
        <ele>572.4</ele>
        <time>2023-07-23T12:42:30Z</time>
      </trkpt>
      <trkpt lat="42.18546" lon="0.87882">
        <ele>572.6</ele>
        <time>2023-07-23T12:42:31Z</time>
      </trkpt>
      <trkpt lat="42.18547" lon="0.87887">
        <ele>572.6</ele>
        <time>2023-07-23T12:42:32Z</time>
      </trkpt>
      <trkpt lat="42.18548" lon="0.87893">
        <ele>572.6</ele>
        <time>2023-07-23T12:42:33Z</time>
      </trkpt>
      <trkpt lat="42.1855" lon="0.87898">
        <ele>572.6</ele>
        <time>2023-07-23T12:42:34Z</time>
      </trkpt>
      <trkpt lat="42.18551" lon="0.87904">
        <ele>572.8</ele>
        <time>2023-07-23T12:42:35Z</time>
      </trkpt>
      <trkpt lat="42.18553" lon="0.8791">
        <ele>572.8</ele>
        <time>2023-07-23T12:42:36Z</time>
      </trkpt>
      <trkpt lat="42.18556" lon="0.87915">
        <ele>572.8</ele>
        <time>2023-07-23T12:42:37Z</time>
      </trkpt>
      <trkpt lat="42.18558" lon="0.8792">
        <ele>572.8</ele>
        <time>2023-07-23T12:42:38Z</time>
      </trkpt>
      <trkpt lat="42.18559" lon="0.87926">
        <ele>572.8</ele>
        <time>2023-07-23T12:42:39Z</time>
      </trkpt>
      <trkpt lat="42.1856" lon="0.87932">
        <ele>572.8</ele>
        <time>2023-07-23T12:42:40Z</time>
      </trkpt>
      <trkpt lat="42.1856" lon="0.87938">
        <ele>572.8</ele>
        <time>2023-07-23T12:42:41Z</time>
      </trkpt>
      <trkpt lat="42.1856" lon="0.87944">
        <ele>573.2</ele>
        <time>2023-07-23T12:42:42Z</time>
      </trkpt>
      <trkpt lat="42.1856" lon="0.8795">
        <ele>573.4</ele>
        <time>2023-07-23T12:42:43Z</time>
      </trkpt>
      <trkpt lat="42.18561" lon="0.87956">
        <ele>573.4</ele>
        <time>2023-07-23T12:42:44Z</time>
      </trkpt>
      <trkpt lat="42.18561" lon="0.87962">
        <ele>573.4</ele>
        <time>2023-07-23T12:42:45Z</time>
      </trkpt>
      <trkpt lat="42.18561" lon="0.87968">
        <ele>573.4</ele>
        <time>2023-07-23T12:42:46Z</time>
      </trkpt>
      <trkpt lat="42.18562" lon="0.87974">
        <ele>573.4</ele>
        <time>2023-07-23T12:42:47Z</time>
      </trkpt>
      <trkpt lat="42.18562" lon="0.87979">
        <ele>573.4</ele>
        <time>2023-07-23T12:42:48Z</time>
      </trkpt>
      <trkpt lat="42.18562" lon="0.87984">
        <ele>573.4</ele>
        <time>2023-07-23T12:42:49Z</time>
      </trkpt>
      <trkpt lat="42.18563" lon="0.87989">
        <ele>573.6</ele>
        <time>2023-07-23T12:42:50Z</time>
      </trkpt>
      <trkpt lat="42.18564" lon="0.87994">
        <ele>573.8</ele>
        <time>2023-07-23T12:42:51Z</time>
      </trkpt>
      <trkpt lat="42.18564" lon="0.88">
        <ele>573.8</ele>
        <time>2023-07-23T12:42:52Z</time>
      </trkpt>
      <trkpt lat="42.18565" lon="0.88005">
        <ele>573.8</ele>
        <time>2023-07-23T12:42:53Z</time>
      </trkpt>
      <trkpt lat="42.18565" lon="0.88011">
        <ele>573.8</ele>
        <time>2023-07-23T12:42:54Z</time>
      </trkpt>
      <trkpt lat="42.18566" lon="0.88017">
        <ele>574</ele>
        <time>2023-07-23T12:42:55Z</time>
      </trkpt>
      <trkpt lat="42.18566" lon="0.88022">
        <ele>574</ele>
        <time>2023-07-23T12:42:56Z</time>
      </trkpt>
      <trkpt lat="42.18567" lon="0.88028">
        <ele>574.4</ele>
        <time>2023-07-23T12:42:57Z</time>
      </trkpt>
      <trkpt lat="42.18567" lon="0.88034">
        <ele>574.6</ele>
        <time>2023-07-23T12:42:58Z</time>
      </trkpt>
      <trkpt lat="42.18568" lon="0.8804">
        <ele>574.8</ele>
        <time>2023-07-23T12:42:59Z</time>
      </trkpt>
      <trkpt lat="42.18568" lon="0.88046">
        <ele>574.8</ele>
        <time>2023-07-23T12:43:00Z</time>
      </trkpt>
      <trkpt lat="42.18569" lon="0.88052">
        <ele>575</ele>
        <time>2023-07-23T12:43:01Z</time>
      </trkpt>
      <trkpt lat="42.18569" lon="0.88058">
        <ele>575</ele>
        <time>2023-07-23T12:43:02Z</time>
      </trkpt>
      <trkpt lat="42.1857" lon="0.88064">
        <ele>575.2</ele>
        <time>2023-07-23T12:43:03Z</time>
      </trkpt>
      <trkpt lat="42.1857" lon="0.8807">
        <ele>575.2</ele>
        <time>2023-07-23T12:43:04Z</time>
      </trkpt>
      <trkpt lat="42.1857" lon="0.88076">
        <ele>575.2</ele>
        <time>2023-07-23T12:43:05Z</time>
      </trkpt>
      <trkpt lat="42.1857" lon="0.88082">
        <ele>575.4</ele>
        <time>2023-07-23T12:43:06Z</time>
      </trkpt>
      <trkpt lat="42.18569" lon="0.88088">
        <ele>575.4</ele>
        <time>2023-07-23T12:43:07Z</time>
      </trkpt>
      <trkpt lat="42.18569" lon="0.88093">
        <ele>575.4</ele>
        <time>2023-07-23T12:43:08Z</time>
      </trkpt>
      <trkpt lat="42.18568" lon="0.88099">
        <ele>575.6</ele>
        <time>2023-07-23T12:43:09Z</time>
      </trkpt>
      <trkpt lat="42.18568" lon="0.88104">
        <ele>575.8</ele>
        <time>2023-07-23T12:43:10Z</time>
      </trkpt>
      <trkpt lat="42.18567" lon="0.8811">
        <ele>575.8</ele>
        <time>2023-07-23T12:43:11Z</time>
      </trkpt>
      <trkpt lat="42.18566" lon="0.88115">
        <ele>575.8</ele>
        <time>2023-07-23T12:43:12Z</time>
      </trkpt>
      <trkpt lat="42.18565" lon="0.8812">
        <ele>575.8</ele>
        <time>2023-07-23T12:43:13Z</time>
      </trkpt>
      <trkpt lat="42.18564" lon="0.88124">
        <ele>576</ele>
        <time>2023-07-23T12:43:14Z</time>
      </trkpt>
      <trkpt lat="42.18563" lon="0.88129">
        <ele>576.4</ele>
        <time>2023-07-23T12:43:15Z</time>
      </trkpt>
      <trkpt lat="42.18562" lon="0.88134">
        <ele>576.6</ele>
        <time>2023-07-23T12:43:16Z</time>
      </trkpt>
      <trkpt lat="42.18561" lon="0.88138">
        <ele>576.8</ele>
        <time>2023-07-23T12:43:17Z</time>
      </trkpt>
      <trkpt lat="42.1856" lon="0.88144">
        <ele>576.8</ele>
        <time>2023-07-23T12:43:18Z</time>
      </trkpt>
      <trkpt lat="42.18559" lon="0.88149">
        <ele>577.2</ele>
        <time>2023-07-23T12:43:19Z</time>
      </trkpt>
      <trkpt lat="42.18558" lon="0.88154">
        <ele>577.2</ele>
        <time>2023-07-23T12:43:20Z</time>
      </trkpt>
      <trkpt lat="42.18556" lon="0.88159">
        <ele>577.4</ele>
        <time>2023-07-23T12:43:21Z</time>
      </trkpt>
      <trkpt lat="42.18555" lon="0.88164">
        <ele>577.6</ele>
        <time>2023-07-23T12:43:22Z</time>
      </trkpt>
      <trkpt lat="42.18554" lon="0.88169">
        <ele>577.6</ele>
        <time>2023-07-23T12:43:23Z</time>
      </trkpt>
      <trkpt lat="42.18554" lon="0.88173">
        <ele>578</ele>
        <time>2023-07-23T12:43:24Z</time>
      </trkpt>
      <trkpt lat="42.18553" lon="0.88178">
        <ele>578</ele>
        <time>2023-07-23T12:43:25Z</time>
      </trkpt>
      <trkpt lat="42.18553" lon="0.88183">
        <ele>578.2</ele>
        <time>2023-07-23T12:43:26Z</time>
      </trkpt>
      <trkpt lat="42.18554" lon="0.88188">
        <ele>578.4</ele>
        <time>2023-07-23T12:43:27Z</time>
      </trkpt>
      <trkpt lat="42.18554" lon="0.88193">
        <ele>578.6</ele>
        <time>2023-07-23T12:43:28Z</time>
      </trkpt>
      <trkpt lat="42.18555" lon="0.88197">
        <ele>579</ele>
        <time>2023-07-23T12:43:29Z</time>
      </trkpt>
      <trkpt lat="42.18555" lon="0.88202">
        <ele>579.2</ele>
        <time>2023-07-23T12:43:30Z</time>
      </trkpt>
      <trkpt lat="42.18555" lon="0.88206">
        <ele>579.6</ele>
        <time>2023-07-23T12:43:31Z</time>
      </trkpt>
      <trkpt lat="42.18556" lon="0.88211">
        <ele>580</ele>
        <time>2023-07-23T12:43:32Z</time>
      </trkpt>
      <trkpt lat="42.18556" lon="0.88215">
        <ele>580.2</ele>
        <time>2023-07-23T12:43:33Z</time>
      </trkpt>
      <trkpt lat="42.18557" lon="0.8822">
        <ele>580.6</ele>
        <time>2023-07-23T12:43:34Z</time>
      </trkpt>
      <trkpt lat="42.18557" lon="0.88224">
        <ele>580.6</ele>
        <time>2023-07-23T12:43:35Z</time>
      </trkpt>
      <trkpt lat="42.18557" lon="0.88228">
        <ele>581</ele>
        <time>2023-07-23T12:43:36Z</time>
      </trkpt>
      <trkpt lat="42.18557" lon="0.88232">
        <ele>581.4</ele>
        <time>2023-07-23T12:43:37Z</time>
      </trkpt>
      <trkpt lat="42.18558" lon="0.88236">
        <ele>581.6</ele>
        <time>2023-07-23T12:43:38Z</time>
      </trkpt>
      <trkpt lat="42.18558" lon="0.8824">
        <ele>581.8</ele>
        <time>2023-07-23T12:43:39Z</time>
      </trkpt>
      <trkpt lat="42.18558" lon="0.88245">
        <ele>582</ele>
        <time>2023-07-23T12:43:40Z</time>
      </trkpt>
      <trkpt lat="42.18559" lon="0.88249">
        <ele>582.4</ele>
        <time>2023-07-23T12:43:41Z</time>
      </trkpt>
      <trkpt lat="42.1856" lon="0.88254">
        <ele>583.4</ele>
        <time>2023-07-23T12:43:42Z</time>
      </trkpt>
      <trkpt lat="42.18561" lon="0.88258">
        <ele>583.8</ele>
        <time>2023-07-23T12:43:43Z</time>
      </trkpt>
      <trkpt lat="42.18563" lon="0.88262">
        <ele>584.2</ele>
        <time>2023-07-23T12:43:44Z</time>
      </trkpt>
      <trkpt lat="42.18565" lon="0.88268">
        <ele>584.2</ele>
        <time>2023-07-23T12:43:45Z</time>
      </trkpt>
      <trkpt lat="42.18567" lon="0.88271">
        <ele>584.4</ele>
        <time>2023-07-23T12:43:46Z</time>
      </trkpt>
      <trkpt lat="42.1857" lon="0.88276">
        <ele>584.6</ele>
        <time>2023-07-23T12:43:47Z</time>
      </trkpt>
      <trkpt lat="42.18572" lon="0.8828">
        <ele>584.6</ele>
        <time>2023-07-23T12:43:48Z</time>
      </trkpt>
      <trkpt lat="42.18575" lon="0.88284">
        <ele>584.8</ele>
        <time>2023-07-23T12:43:49Z</time>
      </trkpt>
      <trkpt lat="42.18578" lon="0.88288">
        <ele>584.8</ele>
        <time>2023-07-23T12:43:50Z</time>
      </trkpt>
      <trkpt lat="42.18581" lon="0.88292">
        <ele>585</ele>
        <time>2023-07-23T12:43:51Z</time>
      </trkpt>
      <trkpt lat="42.18584" lon="0.88296">
        <ele>585.2</ele>
        <time>2023-07-23T12:43:52Z</time>
      </trkpt>
      <trkpt lat="42.18587" lon="0.883">
        <ele>585.2</ele>
        <time>2023-07-23T12:43:53Z</time>
      </trkpt>
      <trkpt lat="42.18589" lon="0.88305">
        <ele>585.4</ele>
        <time>2023-07-23T12:43:54Z</time>
      </trkpt>
      <trkpt lat="42.18591" lon="0.8831">
        <ele>585.4</ele>
        <time>2023-07-23T12:43:55Z</time>
      </trkpt>
      <trkpt lat="42.18593" lon="0.88316">
        <ele>585.6</ele>
        <time>2023-07-23T12:43:56Z</time>
      </trkpt>
      <trkpt lat="42.18594" lon="0.88321">
        <ele>585.6</ele>
        <time>2023-07-23T12:43:57Z</time>
      </trkpt>
      <trkpt lat="42.18596" lon="0.88327">
        <ele>585.8</ele>
        <time>2023-07-23T12:43:58Z</time>
      </trkpt>
      <trkpt lat="42.18597" lon="0.88332">
        <ele>585.8</ele>
        <time>2023-07-23T12:43:59Z</time>
      </trkpt>
      <trkpt lat="42.18599" lon="0.88338">
        <ele>585.8</ele>
        <time>2023-07-23T12:44:00Z</time>
      </trkpt>
      <trkpt lat="42.186" lon="0.88343">
        <ele>586</ele>
        <time>2023-07-23T12:44:01Z</time>
      </trkpt>
      <trkpt lat="42.18601" lon="0.88348">
        <ele>586</ele>
        <time>2023-07-23T12:44:02Z</time>
      </trkpt>
      <trkpt lat="42.18603" lon="0.88353">
        <ele>586.2</ele>
        <time>2023-07-23T12:44:03Z</time>
      </trkpt>
      <trkpt lat="42.18604" lon="0.88358">
        <ele>586.2</ele>
        <time>2023-07-23T12:44:04Z</time>
      </trkpt>
      <trkpt lat="42.18605" lon="0.88364">
        <ele>586.2</ele>
        <time>2023-07-23T12:44:05Z</time>
      </trkpt>
      <trkpt lat="42.18606" lon="0.88368">
        <ele>586.4</ele>
        <time>2023-07-23T12:44:06Z</time>
      </trkpt>
      <trkpt lat="42.18608" lon="0.88373">
        <ele>586.4</ele>
        <time>2023-07-23T12:44:07Z</time>
      </trkpt>
      <trkpt lat="42.1861" lon="0.88378">
        <ele>586.6</ele>
        <time>2023-07-23T12:44:08Z</time>
      </trkpt>
      <trkpt lat="42.18612" lon="0.88382">
        <ele>586.8</ele>
        <time>2023-07-23T12:44:09Z</time>
      </trkpt>
      <trkpt lat="42.18613" lon="0.88386">
        <ele>586.8</ele>
        <time>2023-07-23T12:44:10Z</time>
      </trkpt>
      <trkpt lat="42.18615" lon="0.8839">
        <ele>587</ele>
        <time>2023-07-23T12:44:11Z</time>
      </trkpt>
      <trkpt lat="42.18616" lon="0.88393">
        <ele>587</ele>
        <time>2023-07-23T12:44:12Z</time>
      </trkpt>
      <trkpt lat="42.18618" lon="0.88398">
        <ele>587.2</ele>
        <time>2023-07-23T12:44:13Z</time>
      </trkpt>
      <trkpt lat="42.1862" lon="0.88402">
        <ele>587.2</ele>
        <time>2023-07-23T12:44:14Z</time>
      </trkpt>
      <trkpt lat="42.18623" lon="0.88406">
        <ele>587.4</ele>
        <time>2023-07-23T12:44:15Z</time>
      </trkpt>
      <trkpt lat="42.18625" lon="0.8841">
        <ele>587.8</ele>
        <time>2023-07-23T12:44:16Z</time>
      </trkpt>
      <trkpt lat="42.18626" lon="0.88414">
        <ele>588</ele>
        <time>2023-07-23T12:44:17Z</time>
      </trkpt>
      <trkpt lat="42.18628" lon="0.88418">
        <ele>588.6</ele>
        <time>2023-07-23T12:44:18Z</time>
      </trkpt>
      <trkpt lat="42.18629" lon="0.88423">
        <ele>588.8</ele>
        <time>2023-07-23T12:44:19Z</time>
      </trkpt>
      <trkpt lat="42.1863" lon="0.88428">
        <ele>589</ele>
        <time>2023-07-23T12:44:20Z</time>
      </trkpt>
      <trkpt lat="42.1863" lon="0.88433">
        <ele>589.4</ele>
        <time>2023-07-23T12:44:21Z</time>
      </trkpt>
      <trkpt lat="42.1863" lon="0.88439">
        <ele>589.6</ele>
        <time>2023-07-23T12:44:22Z</time>
      </trkpt>
      <trkpt lat="42.1863" lon="0.88444">
        <ele>590</ele>
        <time>2023-07-23T12:44:23Z</time>
      </trkpt>
      <trkpt lat="42.18629" lon="0.88449">
        <ele>590</ele>
        <time>2023-07-23T12:44:24Z</time>
      </trkpt>
      <trkpt lat="42.18627" lon="0.88455">
        <ele>590</ele>
        <time>2023-07-23T12:44:25Z</time>
      </trkpt>
      <trkpt lat="42.18626" lon="0.8846">
        <ele>590.2</ele>
        <time>2023-07-23T12:44:26Z</time>
      </trkpt>
      <trkpt lat="42.18624" lon="0.88466">
        <ele>590.2</ele>
        <time>2023-07-23T12:44:27Z</time>
      </trkpt>
      <trkpt lat="42.18623" lon="0.88471">
        <ele>590.2</ele>
        <time>2023-07-23T12:44:28Z</time>
      </trkpt>
      <trkpt lat="42.18621" lon="0.88477">
        <ele>590.2</ele>
        <time>2023-07-23T12:44:29Z</time>
      </trkpt>
      <trkpt lat="42.1862" lon="0.88482">
        <ele>590.2</ele>
        <time>2023-07-23T12:44:30Z</time>
      </trkpt>
      <trkpt lat="42.18618" lon="0.88487">
        <ele>590.2</ele>
        <time>2023-07-23T12:44:31Z</time>
      </trkpt>
      <trkpt lat="42.18616" lon="0.88493">
        <ele>590.2</ele>
        <time>2023-07-23T12:44:32Z</time>
      </trkpt>
      <trkpt lat="42.18614" lon="0.88499">
        <ele>590.2</ele>
        <time>2023-07-23T12:44:33Z</time>
      </trkpt>
      <trkpt lat="42.18611" lon="0.88505">
        <ele>590.2</ele>
        <time>2023-07-23T12:44:34Z</time>
      </trkpt>
      <trkpt lat="42.18606" lon="0.8851">
        <ele>590</ele>
        <time>2023-07-23T12:44:35Z</time>
      </trkpt>
      <trkpt lat="42.18601" lon="0.88514">
        <ele>590</ele>
        <time>2023-07-23T12:44:36Z</time>
      </trkpt>
      <trkpt lat="42.18595" lon="0.88518">
        <ele>589.8</ele>
        <time>2023-07-23T12:44:37Z</time>
      </trkpt>
      <trkpt lat="42.18589" lon="0.88521">
        <ele>589.8</ele>
        <time>2023-07-23T12:44:38Z</time>
      </trkpt>
      <trkpt lat="42.18583" lon="0.88524">
        <ele>589.6</ele>
        <time>2023-07-23T12:44:39Z</time>
      </trkpt>
      <trkpt lat="42.18576" lon="0.88526">
        <ele>589.2</ele>
        <time>2023-07-23T12:44:40Z</time>
      </trkpt>
      <trkpt lat="42.18568" lon="0.88528">
        <ele>589.2</ele>
        <time>2023-07-23T12:44:41Z</time>
      </trkpt>
      <trkpt lat="42.1856" lon="0.88527">
        <ele>588.6</ele>
        <time>2023-07-23T12:44:42Z</time>
      </trkpt>
      <trkpt lat="42.18553" lon="0.88526">
        <ele>588.2</ele>
        <time>2023-07-23T12:44:43Z</time>
      </trkpt>
      <trkpt lat="42.18545" lon="0.88525">
        <ele>588.2</ele>
        <time>2023-07-23T12:44:44Z</time>
      </trkpt>
      <trkpt lat="42.18537" lon="0.88524">
        <ele>587.8</ele>
        <time>2023-07-23T12:44:45Z</time>
      </trkpt>
      <trkpt lat="42.18528" lon="0.88523">
        <ele>587.6</ele>
        <time>2023-07-23T12:44:46Z</time>
      </trkpt>
      <trkpt lat="42.18519" lon="0.88522">
        <ele>587.2</ele>
        <time>2023-07-23T12:44:47Z</time>
      </trkpt>
      <trkpt lat="42.1851" lon="0.88522">
        <ele>586.4</ele>
        <time>2023-07-23T12:44:48Z</time>
      </trkpt>
      <trkpt lat="42.18502" lon="0.88523">
        <ele>586.2</ele>
        <time>2023-07-23T12:44:49Z</time>
      </trkpt>
      <trkpt lat="42.18494" lon="0.88523">
        <ele>584.4</ele>
        <time>2023-07-23T12:44:50Z</time>
      </trkpt>
      <trkpt lat="42.18485" lon="0.88525">
        <ele>583.8</ele>
        <time>2023-07-23T12:44:51Z</time>
      </trkpt>
      <trkpt lat="42.18477" lon="0.88527">
        <ele>582.2</ele>
        <time>2023-07-23T12:44:52Z</time>
      </trkpt>
      <trkpt lat="42.18469" lon="0.88527">
        <ele>581.2</ele>
        <time>2023-07-23T12:44:53Z</time>
      </trkpt>
      <trkpt lat="42.1846" lon="0.88526">
        <ele>580.8</ele>
        <time>2023-07-23T12:44:54Z</time>
      </trkpt>
      <trkpt lat="42.18453" lon="0.88525">
        <ele>579.2</ele>
        <time>2023-07-23T12:44:55Z</time>
      </trkpt>
      <trkpt lat="42.18445" lon="0.88524">
        <ele>578.6</ele>
        <time>2023-07-23T12:44:56Z</time>
      </trkpt>
      <trkpt lat="42.18437" lon="0.88526">
        <ele>577.6</ele>
        <time>2023-07-23T12:44:57Z</time>
      </trkpt>
      <trkpt lat="42.1843" lon="0.88529">
        <ele>576.8</ele>
        <time>2023-07-23T12:44:58Z</time>
      </trkpt>
      <trkpt lat="42.18422" lon="0.88533">
        <ele>576.4</ele>
        <time>2023-07-23T12:44:59Z</time>
      </trkpt>
      <trkpt lat="42.18413" lon="0.88536">
        <ele>575.6</ele>
        <time>2023-07-23T12:45:00Z</time>
      </trkpt>
      <trkpt lat="42.18405" lon="0.8854">
        <ele>575.2</ele>
        <time>2023-07-23T12:45:01Z</time>
      </trkpt>
      <trkpt lat="42.18396" lon="0.88544">
        <ele>574.4</ele>
        <time>2023-07-23T12:45:02Z</time>
      </trkpt>
      <trkpt lat="42.18387" lon="0.88548">
        <ele>573.4</ele>
        <time>2023-07-23T12:45:03Z</time>
      </trkpt>
      <trkpt lat="42.18378" lon="0.8855">
        <ele>573</ele>
        <time>2023-07-23T12:45:04Z</time>
      </trkpt>
      <trkpt lat="42.18368" lon="0.88552">
        <ele>572.2</ele>
        <time>2023-07-23T12:45:05Z</time>
      </trkpt>
      <trkpt lat="42.18359" lon="0.88554">
        <ele>571.6</ele>
        <time>2023-07-23T12:45:06Z</time>
      </trkpt>
      <trkpt lat="42.18349" lon="0.88555">
        <ele>570.8</ele>
        <time>2023-07-23T12:45:07Z</time>
      </trkpt>
      <trkpt lat="42.18339" lon="0.88557">
        <ele>570.4</ele>
        <time>2023-07-23T12:45:08Z</time>
      </trkpt>
      <trkpt lat="42.18329" lon="0.88559">
        <ele>569.4</ele>
        <time>2023-07-23T12:45:09Z</time>
      </trkpt>
      <trkpt lat="42.18318" lon="0.8856">
        <ele>568.2</ele>
        <time>2023-07-23T12:45:10Z</time>
      </trkpt>
      <trkpt lat="42.1831" lon="0.8856">
        <ele>567.6</ele>
        <time>2023-07-23T12:45:11Z</time>
      </trkpt>
      <trkpt lat="42.18301" lon="0.88557">
        <ele>566.8</ele>
        <time>2023-07-23T12:45:12Z</time>
      </trkpt>
      <trkpt lat="42.18292" lon="0.88552">
        <ele>566.4</ele>
        <time>2023-07-23T12:45:13Z</time>
      </trkpt>
      <trkpt lat="42.18284" lon="0.88547">
        <ele>565.6</ele>
        <time>2023-07-23T12:45:14Z</time>
      </trkpt>
      <trkpt lat="42.18275" lon="0.88543">
        <ele>564.6</ele>
        <time>2023-07-23T12:45:15Z</time>
      </trkpt>
      <trkpt lat="42.18266" lon="0.88541">
        <ele>564.2</ele>
        <time>2023-07-23T12:45:16Z</time>
      </trkpt>
      <trkpt lat="42.18257" lon="0.8854">
        <ele>563.6</ele>
        <time>2023-07-23T12:45:17Z</time>
      </trkpt>
      <trkpt lat="42.18249" lon="0.88541">
        <ele>563.4</ele>
        <time>2023-07-23T12:45:18Z</time>
      </trkpt>
      <trkpt lat="42.18242" lon="0.88541">
        <ele>562.2</ele>
        <time>2023-07-23T12:45:19Z</time>
      </trkpt>
      <trkpt lat="42.18236" lon="0.88543">
        <ele>561.4</ele>
        <time>2023-07-23T12:45:20Z</time>
      </trkpt>
      <trkpt lat="42.1823" lon="0.88545">
        <ele>560.8</ele>
        <time>2023-07-23T12:45:21Z</time>
      </trkpt>
      <trkpt lat="42.18225" lon="0.88548">
        <ele>560</ele>
        <time>2023-07-23T12:45:22Z</time>
      </trkpt>
      <trkpt lat="42.18221" lon="0.88548">
        <ele>559.6</ele>
        <time>2023-07-23T12:45:23Z</time>
      </trkpt>
      <trkpt lat="42.18219" lon="0.88546">
        <ele>559</ele>
        <time>2023-07-23T12:45:24Z</time>
      </trkpt>
      <trkpt lat="42.18217" lon="0.88543">
        <ele>558.4</ele>
        <time>2023-07-23T12:45:25Z</time>
      </trkpt>
      <trkpt lat="42.18216" lon="0.88539">
        <ele>558.2</ele>
        <time>2023-07-23T12:45:26Z</time>
      </trkpt>
      <trkpt lat="42.18216" lon="0.88533">
        <ele>558</ele>
        <time>2023-07-23T12:45:27Z</time>
      </trkpt>
      <trkpt lat="42.18216" lon="0.88528">
        <ele>558</ele>
        <time>2023-07-23T12:45:28Z</time>
      </trkpt>
      <trkpt lat="42.18216" lon="0.88521">
        <ele>557.4</ele>
        <time>2023-07-23T12:45:29Z</time>
      </trkpt>
      <trkpt lat="42.18215" lon="0.88515">
        <ele>557.2</ele>
        <time>2023-07-23T12:45:30Z</time>
      </trkpt>
      <trkpt lat="42.18213" lon="0.88509">
        <ele>557.2</ele>
        <time>2023-07-23T12:45:31Z</time>
      </trkpt>
      <trkpt lat="42.18211" lon="0.88503">
        <ele>556.4</ele>
        <time>2023-07-23T12:45:32Z</time>
      </trkpt>
      <trkpt lat="42.18208" lon="0.88498">
        <ele>556.2</ele>
        <time>2023-07-23T12:45:33Z</time>
      </trkpt>
      <trkpt lat="42.18205" lon="0.88492">
        <ele>556</ele>
        <time>2023-07-23T12:45:34Z</time>
      </trkpt>
      <trkpt lat="42.18201" lon="0.88485">
        <ele>555.6</ele>
        <time>2023-07-23T12:45:35Z</time>
      </trkpt>
      <trkpt lat="42.18198" lon="0.88479">
        <ele>555.6</ele>
        <time>2023-07-23T12:45:36Z</time>
      </trkpt>
      <trkpt lat="42.18194" lon="0.88472">
        <ele>555.4</ele>
        <time>2023-07-23T12:45:37Z</time>
      </trkpt>
      <trkpt lat="42.1819" lon="0.88466">
        <ele>555.4</ele>
        <time>2023-07-23T12:45:38Z</time>
      </trkpt>
      <trkpt lat="42.18185" lon="0.8846">
        <ele>555.4</ele>
        <time>2023-07-23T12:45:39Z</time>
      </trkpt>
      <trkpt lat="42.18181" lon="0.88454">
        <ele>555.4</ele>
        <time>2023-07-23T12:45:40Z</time>
      </trkpt>
      <trkpt lat="42.18176" lon="0.88448">
        <ele>555.4</ele>
        <time>2023-07-23T12:45:41Z</time>
      </trkpt>
      <trkpt lat="42.18171" lon="0.88441">
        <ele>555</ele>
        <time>2023-07-23T12:45:42Z</time>
      </trkpt>
      <trkpt lat="42.18167" lon="0.88436">
        <ele>554.8</ele>
        <time>2023-07-23T12:45:43Z</time>
      </trkpt>
      <trkpt lat="42.18162" lon="0.88431">
        <ele>554.6</ele>
        <time>2023-07-23T12:45:44Z</time>
      </trkpt>
      <trkpt lat="42.18157" lon="0.88425">
        <ele>554.6</ele>
        <time>2023-07-23T12:45:45Z</time>
      </trkpt>
      <trkpt lat="42.18146" lon="0.88414">
        <ele>554.4</ele>
        <time>2023-07-23T12:45:47Z</time>
      </trkpt>
      <trkpt lat="42.18142" lon="0.8841">
        <ele>554.4</ele>
        <time>2023-07-23T12:45:48Z</time>
      </trkpt>
      <trkpt lat="42.18137" lon="0.88404">
        <ele>554.4</ele>
        <time>2023-07-23T12:45:49Z</time>
      </trkpt>
      <trkpt lat="42.18127" lon="0.88394">
        <ele>554.2</ele>
        <time>2023-07-23T12:45:51Z</time>
      </trkpt>
      <trkpt lat="42.18122" lon="0.88389">
        <ele>554.2</ele>
        <time>2023-07-23T12:45:52Z</time>
      </trkpt>
      <trkpt lat="42.18112" lon="0.8838">
        <ele>554</ele>
        <time>2023-07-23T12:45:54Z</time>
      </trkpt>
      <trkpt lat="42.18106" lon="0.88376">
        <ele>554</ele>
        <time>2023-07-23T12:45:55Z</time>
      </trkpt>
      <trkpt lat="42.18101" lon="0.88373">
        <ele>554</ele>
        <time>2023-07-23T12:45:56Z</time>
      </trkpt>
      <trkpt lat="42.18095" lon="0.88372">
        <ele>553.8</ele>
        <time>2023-07-23T12:45:57Z</time>
      </trkpt>
      <trkpt lat="42.18088" lon="0.88371">
        <ele>553.8</ele>
        <time>2023-07-23T12:45:58Z</time>
      </trkpt>
      <trkpt lat="42.18082" lon="0.88372">
        <ele>553.8</ele>
        <time>2023-07-23T12:45:59Z</time>
      </trkpt>
      <trkpt lat="42.18076" lon="0.88372">
        <ele>553.8</ele>
        <time>2023-07-23T12:46:00Z</time>
      </trkpt>
      <trkpt lat="42.18069" lon="0.88373">
        <ele>553.6</ele>
        <time>2023-07-23T12:46:01Z</time>
      </trkpt>
      <trkpt lat="42.18062" lon="0.88374">
        <ele>553.6</ele>
        <time>2023-07-23T12:46:02Z</time>
      </trkpt>
      <trkpt lat="42.18055" lon="0.88375">
        <ele>553.6</ele>
        <time>2023-07-23T12:46:03Z</time>
      </trkpt>
      <trkpt lat="42.18048" lon="0.88376">
        <ele>553.4</ele>
        <time>2023-07-23T12:46:04Z</time>
      </trkpt>
      <trkpt lat="42.1804" lon="0.88377">
        <ele>553.2</ele>
        <time>2023-07-23T12:46:05Z</time>
      </trkpt>
      <trkpt lat="42.18032" lon="0.88379">
        <ele>552.6</ele>
        <time>2023-07-23T12:46:06Z</time>
      </trkpt>
      <trkpt lat="42.18024" lon="0.88381">
        <ele>552</ele>
        <time>2023-07-23T12:46:07Z</time>
      </trkpt>
      <trkpt lat="42.18016" lon="0.88383">
        <ele>551.8</ele>
        <time>2023-07-23T12:46:08Z</time>
      </trkpt>
      <trkpt lat="42.18008" lon="0.88385">
        <ele>551.6</ele>
        <time>2023-07-23T12:46:09Z</time>
      </trkpt>
      <trkpt lat="42.18" lon="0.88388">
        <ele>551.4</ele>
        <time>2023-07-23T12:46:10Z</time>
      </trkpt>
      <trkpt lat="42.17992" lon="0.88392">
        <ele>551.2</ele>
        <time>2023-07-23T12:46:11Z</time>
      </trkpt>
      <trkpt lat="42.17985" lon="0.88396">
        <ele>551</ele>
        <time>2023-07-23T12:46:12Z</time>
      </trkpt>
      <trkpt lat="42.17977" lon="0.884">
        <ele>550.6</ele>
        <time>2023-07-23T12:46:13Z</time>
      </trkpt>
      <trkpt lat="42.17969" lon="0.88403">
        <ele>550.2</ele>
        <time>2023-07-23T12:46:14Z</time>
      </trkpt>
      <trkpt lat="42.17961" lon="0.88405">
        <ele>549.8</ele>
        <time>2023-07-23T12:46:15Z</time>
      </trkpt>
      <trkpt lat="42.17953" lon="0.88405">
        <ele>549.2</ele>
        <time>2023-07-23T12:46:16Z</time>
      </trkpt>
      <trkpt lat="42.17945" lon="0.88405">
        <ele>549.2</ele>
        <time>2023-07-23T12:46:17Z</time>
      </trkpt>
      <trkpt lat="42.17937" lon="0.88405">
        <ele>548.8</ele>
        <time>2023-07-23T12:46:18Z</time>
      </trkpt>
      <trkpt lat="42.17929" lon="0.88406">
        <ele>548.4</ele>
        <time>2023-07-23T12:46:19Z</time>
      </trkpt>
      <trkpt lat="42.17921" lon="0.88408">
        <ele>548</ele>
        <time>2023-07-23T12:46:20Z</time>
      </trkpt>
      <trkpt lat="42.17912" lon="0.88409">
        <ele>547.8</ele>
        <time>2023-07-23T12:46:21Z</time>
      </trkpt>
      <trkpt lat="42.17904" lon="0.88409">
        <ele>547.4</ele>
        <time>2023-07-23T12:46:22Z</time>
      </trkpt>
      <trkpt lat="42.17897" lon="0.88409">
        <ele>547</ele>
        <time>2023-07-23T12:46:23Z</time>
      </trkpt>
      <trkpt lat="42.17889" lon="0.88409">
        <ele>546.8</ele>
        <time>2023-07-23T12:46:24Z</time>
      </trkpt>
      <trkpt lat="42.17881" lon="0.88408">
        <ele>546.6</ele>
        <time>2023-07-23T12:46:25Z</time>
      </trkpt>
      <trkpt lat="42.17874" lon="0.88404">
        <ele>546.4</ele>
        <time>2023-07-23T12:46:26Z</time>
      </trkpt>
      <trkpt lat="42.17868" lon="0.88398">
        <ele>546.2</ele>
        <time>2023-07-23T12:46:27Z</time>
      </trkpt>
      <trkpt lat="42.17863" lon="0.88391">
        <ele>546</ele>
        <time>2023-07-23T12:46:28Z</time>
      </trkpt>
      <trkpt lat="42.17857" lon="0.88385">
        <ele>545.6</ele>
        <time>2023-07-23T12:46:29Z</time>
      </trkpt>
      <trkpt lat="42.17851" lon="0.88381">
        <ele>545.4</ele>
        <time>2023-07-23T12:46:30Z</time>
      </trkpt>
      <trkpt lat="42.17843" lon="0.8838">
        <ele>545</ele>
        <time>2023-07-23T12:46:31Z</time>
      </trkpt>
      <trkpt lat="42.17836" lon="0.88381">
        <ele>545</ele>
        <time>2023-07-23T12:46:32Z</time>
      </trkpt>
      <trkpt lat="42.17829" lon="0.88384">
        <ele>544.6</ele>
        <time>2023-07-23T12:46:33Z</time>
      </trkpt>
      <trkpt lat="42.17822" lon="0.88387">
        <ele>544.4</ele>
        <time>2023-07-23T12:46:34Z</time>
      </trkpt>
      <trkpt lat="42.17815" lon="0.8839">
        <ele>544.2</ele>
        <time>2023-07-23T12:46:35Z</time>
      </trkpt>
      <trkpt lat="42.17808" lon="0.88393">
        <ele>543.8</ele>
        <time>2023-07-23T12:46:36Z</time>
      </trkpt>
      <trkpt lat="42.17802" lon="0.88396">
        <ele>543.8</ele>
        <time>2023-07-23T12:46:37Z</time>
      </trkpt>
      <trkpt lat="42.17795" lon="0.88398">
        <ele>543.4</ele>
        <time>2023-07-23T12:46:38Z</time>
      </trkpt>
      <trkpt lat="42.17788" lon="0.88401">
        <ele>543.2</ele>
        <time>2023-07-23T12:46:39Z</time>
      </trkpt>
      <trkpt lat="42.17781" lon="0.88403">
        <ele>543</ele>
        <time>2023-07-23T12:46:40Z</time>
      </trkpt>
      <trkpt lat="42.17774" lon="0.88406">
        <ele>542.8</ele>
        <time>2023-07-23T12:46:41Z</time>
      </trkpt>
      <trkpt lat="42.17768" lon="0.88408">
        <ele>542.8</ele>
        <time>2023-07-23T12:46:42Z</time>
      </trkpt>
      <trkpt lat="42.17762" lon="0.88411">
        <ele>542.4</ele>
        <time>2023-07-23T12:46:43Z</time>
      </trkpt>
      <trkpt lat="42.17755" lon="0.88414">
        <ele>542.4</ele>
        <time>2023-07-23T12:46:44Z</time>
      </trkpt>
      <trkpt lat="42.17749" lon="0.88417">
        <ele>542</ele>
        <time>2023-07-23T12:46:45Z</time>
      </trkpt>
      <trkpt lat="42.17743" lon="0.8842">
        <ele>542</ele>
        <time>2023-07-23T12:46:46Z</time>
      </trkpt>
      <trkpt lat="42.17737" lon="0.88423">
        <ele>541.8</ele>
        <time>2023-07-23T12:46:47Z</time>
      </trkpt>
      <trkpt lat="42.17732" lon="0.88426">
        <ele>541.4</ele>
        <time>2023-07-23T12:46:48Z</time>
      </trkpt>
      <trkpt lat="42.17725" lon="0.88429">
        <ele>541.2</ele>
        <time>2023-07-23T12:46:49Z</time>
      </trkpt>
      <trkpt lat="42.17719" lon="0.88432">
        <ele>540.8</ele>
        <time>2023-07-23T12:46:50Z</time>
      </trkpt>
      <trkpt lat="42.17713" lon="0.88434">
        <ele>540.6</ele>
        <time>2023-07-23T12:46:51Z</time>
      </trkpt>
      <trkpt lat="42.17707" lon="0.88435">
        <ele>540.4</ele>
        <time>2023-07-23T12:46:52Z</time>
      </trkpt>
      <trkpt lat="42.17702" lon="0.88436">
        <ele>540.2</ele>
        <time>2023-07-23T12:46:53Z</time>
      </trkpt>
      <trkpt lat="42.17697" lon="0.88435">
        <ele>540.2</ele>
        <time>2023-07-23T12:46:54Z</time>
      </trkpt>
      <trkpt lat="42.17691" lon="0.88433">
        <ele>540</ele>
        <time>2023-07-23T12:46:55Z</time>
      </trkpt>
      <trkpt lat="42.17685" lon="0.88431">
        <ele>539.8</ele>
        <time>2023-07-23T12:46:56Z</time>
      </trkpt>
      <trkpt lat="42.1768" lon="0.88428">
        <ele>539.8</ele>
        <time>2023-07-23T12:46:57Z</time>
      </trkpt>
      <trkpt lat="42.17674" lon="0.88428">
        <ele>539.6</ele>
        <time>2023-07-23T12:46:58Z</time>
      </trkpt>
      <trkpt lat="42.17667" lon="0.88428">
        <ele>539.6</ele>
        <time>2023-07-23T12:46:59Z</time>
      </trkpt>
      <trkpt lat="42.1766" lon="0.8843">
        <ele>539.2</ele>
        <time>2023-07-23T12:47:00Z</time>
      </trkpt>
      <trkpt lat="42.17654" lon="0.88433">
        <ele>539</ele>
        <time>2023-07-23T12:47:01Z</time>
      </trkpt>
      <trkpt lat="42.17649" lon="0.88436">
        <ele>538.8</ele>
        <time>2023-07-23T12:47:02Z</time>
      </trkpt>
      <trkpt lat="42.17643" lon="0.8844">
        <ele>538.6</ele>
        <time>2023-07-23T12:47:03Z</time>
      </trkpt>
      <trkpt lat="42.17638" lon="0.88444">
        <ele>538.4</ele>
        <time>2023-07-23T12:47:04Z</time>
      </trkpt>
      <trkpt lat="42.17632" lon="0.88447">
        <ele>538</ele>
        <time>2023-07-23T12:47:05Z</time>
      </trkpt>
      <trkpt lat="42.17626" lon="0.88449">
        <ele>537.6</ele>
        <time>2023-07-23T12:47:06Z</time>
      </trkpt>
      <trkpt lat="42.17621" lon="0.88448">
        <ele>537.2</ele>
        <time>2023-07-23T12:47:07Z</time>
      </trkpt>
      <trkpt lat="42.17616" lon="0.88446">
        <ele>536.8</ele>
        <time>2023-07-23T12:47:08Z</time>
      </trkpt>
      <trkpt lat="42.17612" lon="0.88441">
        <ele>536.6</ele>
        <time>2023-07-23T12:47:09Z</time>
      </trkpt>
      <trkpt lat="42.17608" lon="0.88435">
        <ele>536.4</ele>
        <time>2023-07-23T12:47:10Z</time>
      </trkpt>
      <trkpt lat="42.17605" lon="0.88429">
        <ele>536.2</ele>
        <time>2023-07-23T12:47:11Z</time>
      </trkpt>
      <trkpt lat="42.17602" lon="0.88423">
        <ele>536</ele>
        <time>2023-07-23T12:47:12Z</time>
      </trkpt>
      <trkpt lat="42.17599" lon="0.88417">
        <ele>536</ele>
        <time>2023-07-23T12:47:13Z</time>
      </trkpt>
      <trkpt lat="42.17596" lon="0.88411">
        <ele>536</ele>
        <time>2023-07-23T12:47:14Z</time>
      </trkpt>
      <trkpt lat="42.17593" lon="0.88405">
        <ele>535.8</ele>
        <time>2023-07-23T12:47:15Z</time>
      </trkpt>
      <trkpt lat="42.1759" lon="0.88398">
        <ele>535.8</ele>
        <time>2023-07-23T12:47:16Z</time>
      </trkpt>
      <trkpt lat="42.17586" lon="0.88392">
        <ele>535.6</ele>
        <time>2023-07-23T12:47:17Z</time>
      </trkpt>
      <trkpt lat="42.17583" lon="0.88385">
        <ele>535.6</ele>
        <time>2023-07-23T12:47:18Z</time>
      </trkpt>
      <trkpt lat="42.17579" lon="0.88379">
        <ele>535.6</ele>
        <time>2023-07-23T12:47:19Z</time>
      </trkpt>
      <trkpt lat="42.17576" lon="0.88373">
        <ele>535.6</ele>
        <time>2023-07-23T12:47:20Z</time>
      </trkpt>
      <trkpt lat="42.17573" lon="0.88367">
        <ele>535.6</ele>
        <time>2023-07-23T12:47:21Z</time>
      </trkpt>
      <trkpt lat="42.17569" lon="0.88361">
        <ele>535.6</ele>
        <time>2023-07-23T12:47:22Z</time>
      </trkpt>
      <trkpt lat="42.17566" lon="0.88355">
        <ele>535.4</ele>
        <time>2023-07-23T12:47:23Z</time>
      </trkpt>
      <trkpt lat="42.17562" lon="0.88349">
        <ele>535.4</ele>
        <time>2023-07-23T12:47:24Z</time>
      </trkpt>
      <trkpt lat="42.17558" lon="0.88343">
        <ele>535.2</ele>
        <time>2023-07-23T12:47:25Z</time>
      </trkpt>
      <trkpt lat="42.17554" lon="0.88336">
        <ele>535.2</ele>
        <time>2023-07-23T12:47:26Z</time>
      </trkpt>
      <trkpt lat="42.17551" lon="0.88329">
        <ele>534.8</ele>
        <time>2023-07-23T12:47:27Z</time>
      </trkpt>
      <trkpt lat="42.17547" lon="0.88322">
        <ele>534.6</ele>
        <time>2023-07-23T12:47:28Z</time>
      </trkpt>
      <trkpt lat="42.17543" lon="0.88314">
        <ele>534.4</ele>
        <time>2023-07-23T12:47:29Z</time>
      </trkpt>
      <trkpt lat="42.17539" lon="0.88307">
        <ele>534.4</ele>
        <time>2023-07-23T12:47:30Z</time>
      </trkpt>
      <trkpt lat="42.17534" lon="0.883">
        <ele>534.4</ele>
        <time>2023-07-23T12:47:31Z</time>
      </trkpt>
      <trkpt lat="42.17527" lon="0.88295">
        <ele>534.2</ele>
        <time>2023-07-23T12:47:32Z</time>
      </trkpt>
      <trkpt lat="42.17519" lon="0.88294">
        <ele>533.8</ele>
        <time>2023-07-23T12:47:33Z</time>
      </trkpt>
      <trkpt lat="42.17511" lon="0.88296">
        <ele>533.8</ele>
        <time>2023-07-23T12:47:34Z</time>
      </trkpt>
      <trkpt lat="42.17503" lon="0.88298">
        <ele>533.4</ele>
        <time>2023-07-23T12:47:35Z</time>
      </trkpt>
      <trkpt lat="42.17494" lon="0.88302">
        <ele>533</ele>
        <time>2023-07-23T12:47:36Z</time>
      </trkpt>
      <trkpt lat="42.17486" lon="0.88306">
        <ele>531.8</ele>
        <time>2023-07-23T12:47:37Z</time>
      </trkpt>
      <trkpt lat="42.17478" lon="0.88312">
        <ele>531</ele>
        <time>2023-07-23T12:47:38Z</time>
      </trkpt>
      <trkpt lat="42.17473" lon="0.88318">
        <ele>530.8</ele>
        <time>2023-07-23T12:47:39Z</time>
      </trkpt>
      <trkpt lat="42.17469" lon="0.88326">
        <ele>530.2</ele>
        <time>2023-07-23T12:47:40Z</time>
      </trkpt>
      <trkpt lat="42.17466" lon="0.88335">
        <ele>529.8</ele>
        <time>2023-07-23T12:47:41Z</time>
      </trkpt>
      <trkpt lat="42.17463" lon="0.88346">
        <ele>529.2</ele>
        <time>2023-07-23T12:47:42Z</time>
      </trkpt>
      <trkpt lat="42.1746" lon="0.88356">
        <ele>528.6</ele>
        <time>2023-07-23T12:47:43Z</time>
      </trkpt>
      <trkpt lat="42.17456" lon="0.88366">
        <ele>528.2</ele>
        <time>2023-07-23T12:47:44Z</time>
      </trkpt>
      <trkpt lat="42.17452" lon="0.88375">
        <ele>527.4</ele>
        <time>2023-07-23T12:47:45Z</time>
      </trkpt>
      <trkpt lat="42.17449" lon="0.88384">
        <ele>527</ele>
        <time>2023-07-23T12:47:46Z</time>
      </trkpt>
      <trkpt lat="42.17446" lon="0.88392">
        <ele>526.4</ele>
        <time>2023-07-23T12:47:47Z</time>
      </trkpt>
      <trkpt lat="42.17441" lon="0.88399">
        <ele>526.2</ele>
        <time>2023-07-23T12:47:48Z</time>
      </trkpt>
      <trkpt lat="42.17436" lon="0.88405">
        <ele>525.8</ele>
        <time>2023-07-23T12:47:49Z</time>
      </trkpt>
      <trkpt lat="42.17431" lon="0.88409">
        <ele>525.4</ele>
        <time>2023-07-23T12:47:50Z</time>
      </trkpt>
      <trkpt lat="42.17425" lon="0.88413">
        <ele>525.2</ele>
        <time>2023-07-23T12:47:51Z</time>
      </trkpt>
      <trkpt lat="42.17419" lon="0.88415">
        <ele>524.8</ele>
        <time>2023-07-23T12:47:52Z</time>
      </trkpt>
      <trkpt lat="42.17413" lon="0.88416">
        <ele>524.8</ele>
        <time>2023-07-23T12:47:53Z</time>
      </trkpt>
      <trkpt lat="42.17406" lon="0.88417">
        <ele>524.6</ele>
        <time>2023-07-23T12:47:54Z</time>
      </trkpt>
      <trkpt lat="42.174" lon="0.88418">
        <ele>524.4</ele>
        <time>2023-07-23T12:47:55Z</time>
      </trkpt>
      <trkpt lat="42.17395" lon="0.8842">
        <ele>524.4</ele>
        <time>2023-07-23T12:47:56Z</time>
      </trkpt>
      <trkpt lat="42.17389" lon="0.88422">
        <ele>524.2</ele>
        <time>2023-07-23T12:47:57Z</time>
      </trkpt>
      <trkpt lat="42.17383" lon="0.88424">
        <ele>524</ele>
        <time>2023-07-23T12:47:58Z</time>
      </trkpt>
      <trkpt lat="42.17377" lon="0.88428">
        <ele>524</ele>
        <time>2023-07-23T12:47:59Z</time>
      </trkpt>
      <trkpt lat="42.17371" lon="0.88431">
        <ele>523.8</ele>
        <time>2023-07-23T12:48:00Z</time>
      </trkpt>
      <trkpt lat="42.17365" lon="0.88435">
        <ele>523.6</ele>
        <time>2023-07-23T12:48:01Z</time>
      </trkpt>
      <trkpt lat="42.17359" lon="0.88438">
        <ele>523.4</ele>
        <time>2023-07-23T12:48:02Z</time>
      </trkpt>
      <trkpt lat="42.17353" lon="0.88441">
        <ele>523.4</ele>
        <time>2023-07-23T12:48:03Z</time>
      </trkpt>
      <trkpt lat="42.17347" lon="0.88444">
        <ele>523.4</ele>
        <time>2023-07-23T12:48:04Z</time>
      </trkpt>
      <trkpt lat="42.17341" lon="0.88447">
        <ele>523.4</ele>
        <time>2023-07-23T12:48:05Z</time>
      </trkpt>
      <trkpt lat="42.17335" lon="0.8845">
        <ele>523.2</ele>
        <time>2023-07-23T12:48:06Z</time>
      </trkpt>
      <trkpt lat="42.1733" lon="0.88452">
        <ele>523.2</ele>
        <time>2023-07-23T12:48:07Z</time>
      </trkpt>
      <trkpt lat="42.17325" lon="0.88455">
        <ele>523.2</ele>
        <time>2023-07-23T12:48:08Z</time>
      </trkpt>
      <trkpt lat="42.1732" lon="0.88456">
        <ele>523.2</ele>
        <time>2023-07-23T12:48:09Z</time>
      </trkpt>
      <trkpt lat="42.17315" lon="0.88456">
        <ele>523.2</ele>
        <time>2023-07-23T12:48:10Z</time>
      </trkpt>
      <trkpt lat="42.1731" lon="0.88457">
        <ele>523.2</ele>
        <time>2023-07-23T12:48:11Z</time>
      </trkpt>
      <trkpt lat="42.17305" lon="0.88459">
        <ele>523.4</ele>
        <time>2023-07-23T12:48:12Z</time>
      </trkpt>
      <trkpt lat="42.173" lon="0.8846">
        <ele>523.6</ele>
        <time>2023-07-23T12:48:13Z</time>
      </trkpt>
      <trkpt lat="42.17295" lon="0.88462">
        <ele>523.6</ele>
        <time>2023-07-23T12:48:14Z</time>
      </trkpt>
      <trkpt lat="42.1729" lon="0.88465">
        <ele>523.8</ele>
        <time>2023-07-23T12:48:15Z</time>
      </trkpt>
      <trkpt lat="42.17286" lon="0.88468">
        <ele>524</ele>
        <time>2023-07-23T12:48:16Z</time>
      </trkpt>
      <trkpt lat="42.17282" lon="0.88471">
        <ele>524</ele>
        <time>2023-07-23T12:48:17Z</time>
      </trkpt>
      <trkpt lat="42.17277" lon="0.88474">
        <ele>524.2</ele>
        <time>2023-07-23T12:48:18Z</time>
      </trkpt>
      <trkpt lat="42.17273" lon="0.88478">
        <ele>524.2</ele>
        <time>2023-07-23T12:48:19Z</time>
      </trkpt>
      <trkpt lat="42.17269" lon="0.88483">
        <ele>524.4</ele>
        <time>2023-07-23T12:48:20Z</time>
      </trkpt>
      <trkpt lat="42.17264" lon="0.88488">
        <ele>524.4</ele>
        <time>2023-07-23T12:48:21Z</time>
      </trkpt>
      <trkpt lat="42.17261" lon="0.88495">
        <ele>524.8</ele>
        <time>2023-07-23T12:48:22Z</time>
      </trkpt>
      <trkpt lat="42.17258" lon="0.88502">
        <ele>524.8</ele>
        <time>2023-07-23T12:48:23Z</time>
      </trkpt>
      <trkpt lat="42.17256" lon="0.88509">
        <ele>524.6</ele>
        <time>2023-07-23T12:48:24Z</time>
      </trkpt>
      <trkpt lat="42.17255" lon="0.88516">
        <ele>524.6</ele>
        <time>2023-07-23T12:48:25Z</time>
      </trkpt>
      <trkpt lat="42.17253" lon="0.88523">
        <ele>524.2</ele>
        <time>2023-07-23T12:48:26Z</time>
      </trkpt>
      <trkpt lat="42.17251" lon="0.8853">
        <ele>524.4</ele>
        <time>2023-07-23T12:48:27Z</time>
      </trkpt>
      <trkpt lat="42.17249" lon="0.88538">
        <ele>524.2</ele>
        <time>2023-07-23T12:48:28Z</time>
      </trkpt>
      <trkpt lat="42.17246" lon="0.88545">
        <ele>524.2</ele>
        <time>2023-07-23T12:48:29Z</time>
      </trkpt>
      <trkpt lat="42.17244" lon="0.88552">
        <ele>524</ele>
        <time>2023-07-23T12:48:30Z</time>
      </trkpt>
      <trkpt lat="42.1724" lon="0.88559">
        <ele>523.6</ele>
        <time>2023-07-23T12:48:31Z</time>
      </trkpt>
      <trkpt lat="42.17237" lon="0.88566">
        <ele>523.4</ele>
        <time>2023-07-23T12:48:32Z</time>
      </trkpt>
      <trkpt lat="42.17234" lon="0.88573">
        <ele>523.2</ele>
        <time>2023-07-23T12:48:33Z</time>
      </trkpt>
      <trkpt lat="42.1723" lon="0.88579">
        <ele>522.8</ele>
        <time>2023-07-23T12:48:34Z</time>
      </trkpt>
      <trkpt lat="42.17227" lon="0.88586">
        <ele>522.6</ele>
        <time>2023-07-23T12:48:35Z</time>
      </trkpt>
      <trkpt lat="42.17223" lon="0.88592">
        <ele>522.4</ele>
        <time>2023-07-23T12:48:36Z</time>
      </trkpt>
      <trkpt lat="42.17219" lon="0.88599">
        <ele>522.4</ele>
        <time>2023-07-23T12:48:37Z</time>
      </trkpt>
      <trkpt lat="42.17216" lon="0.88605">
        <ele>522.2</ele>
        <time>2023-07-23T12:48:38Z</time>
      </trkpt>
      <trkpt lat="42.17212" lon="0.88612">
        <ele>521.8</ele>
        <time>2023-07-23T12:48:39Z</time>
      </trkpt>
      <trkpt lat="42.17208" lon="0.88618">
        <ele>521.8</ele>
        <time>2023-07-23T12:48:40Z</time>
      </trkpt>
      <trkpt lat="42.17203" lon="0.88623">
        <ele>521.6</ele>
        <time>2023-07-23T12:48:41Z</time>
      </trkpt>
      <trkpt lat="42.17199" lon="0.88629">
        <ele>521.4</ele>
        <time>2023-07-23T12:48:42Z</time>
      </trkpt>
      <trkpt lat="42.17194" lon="0.88634">
        <ele>521.2</ele>
        <time>2023-07-23T12:48:43Z</time>
      </trkpt>
      <trkpt lat="42.1719" lon="0.88639">
        <ele>521</ele>
        <time>2023-07-23T12:48:44Z</time>
      </trkpt>
      <trkpt lat="42.17185" lon="0.88644">
        <ele>521</ele>
        <time>2023-07-23T12:48:45Z</time>
      </trkpt>
      <trkpt lat="42.1718" lon="0.88649">
        <ele>520.8</ele>
        <time>2023-07-23T12:48:46Z</time>
      </trkpt>
      <trkpt lat="42.17175" lon="0.88653">
        <ele>520.4</ele>
        <time>2023-07-23T12:48:47Z</time>
      </trkpt>
      <trkpt lat="42.17171" lon="0.88657">
        <ele>520.4</ele>
        <time>2023-07-23T12:48:48Z</time>
      </trkpt>
      <trkpt lat="42.17166" lon="0.88662">
        <ele>520.4</ele>
        <time>2023-07-23T12:48:49Z</time>
      </trkpt>
      <trkpt lat="42.17161" lon="0.88666">
        <ele>520.2</ele>
        <time>2023-07-23T12:48:50Z</time>
      </trkpt>
      <trkpt lat="42.17157" lon="0.88671">
        <ele>520.2</ele>
        <time>2023-07-23T12:48:51Z</time>
      </trkpt>
      <trkpt lat="42.17152" lon="0.88677">
        <ele>520.2</ele>
        <time>2023-07-23T12:48:52Z</time>
      </trkpt>
      <trkpt lat="42.17148" lon="0.88682">
        <ele>520</ele>
        <time>2023-07-23T12:48:53Z</time>
      </trkpt>
      <trkpt lat="42.17144" lon="0.88687">
        <ele>520</ele>
        <time>2023-07-23T12:48:54Z</time>
      </trkpt>
      <trkpt lat="42.17139" lon="0.88693">
        <ele>519.8</ele>
        <time>2023-07-23T12:48:55Z</time>
      </trkpt>
      <trkpt lat="42.17135" lon="0.88698">
        <ele>520</ele>
        <time>2023-07-23T12:48:56Z</time>
      </trkpt>
      <trkpt lat="42.17131" lon="0.88704">
        <ele>520</ele>
        <time>2023-07-23T12:48:57Z</time>
      </trkpt>
      <trkpt lat="42.17127" lon="0.8871">
        <ele>519.6</ele>
        <time>2023-07-23T12:48:58Z</time>
      </trkpt>
      <trkpt lat="42.17123" lon="0.88716">
        <ele>519.2</ele>
        <time>2023-07-23T12:48:59Z</time>
      </trkpt>
      <trkpt lat="42.1712" lon="0.88723">
        <ele>519</ele>
        <time>2023-07-23T12:49:00Z</time>
      </trkpt>
      <trkpt lat="42.17118" lon="0.8873">
        <ele>518.6</ele>
        <time>2023-07-23T12:49:01Z</time>
      </trkpt>
      <trkpt lat="42.17116" lon="0.88738">
        <ele>518.4</ele>
        <time>2023-07-23T12:49:02Z</time>
      </trkpt>
      <trkpt lat="42.17115" lon="0.88746">
        <ele>518</ele>
        <time>2023-07-23T12:49:03Z</time>
      </trkpt>
      <trkpt lat="42.17114" lon="0.88753">
        <ele>518</ele>
        <time>2023-07-23T12:49:04Z</time>
      </trkpt>
      <trkpt lat="42.17112" lon="0.88761">
        <ele>518</ele>
        <time>2023-07-23T12:49:05Z</time>
      </trkpt>
      <trkpt lat="42.1711" lon="0.88769">
        <ele>518</ele>
        <time>2023-07-23T12:49:06Z</time>
      </trkpt>
      <trkpt lat="42.17108" lon="0.88776">
        <ele>517.8</ele>
        <time>2023-07-23T12:49:07Z</time>
      </trkpt>
      <trkpt lat="42.17105" lon="0.88783">
        <ele>517.8</ele>
        <time>2023-07-23T12:49:08Z</time>
      </trkpt>
      <trkpt lat="42.17103" lon="0.88791">
        <ele>517.8</ele>
        <time>2023-07-23T12:49:09Z</time>
      </trkpt>
      <trkpt lat="42.17101" lon="0.88798">
        <ele>517.8</ele>
        <time>2023-07-23T12:49:10Z</time>
      </trkpt>
      <trkpt lat="42.17099" lon="0.88805">
        <ele>517.6</ele>
        <time>2023-07-23T12:49:11Z</time>
      </trkpt>
      <trkpt lat="42.17098" lon="0.88812">
        <ele>517.2</ele>
        <time>2023-07-23T12:49:12Z</time>
      </trkpt>
      <trkpt lat="42.17098" lon="0.8882">
        <ele>517</ele>
        <time>2023-07-23T12:49:13Z</time>
      </trkpt>
      <trkpt lat="42.17098" lon="0.88828">
        <ele>517</ele>
        <time>2023-07-23T12:49:14Z</time>
      </trkpt>
      <trkpt lat="42.17098" lon="0.88836">
        <ele>516.6</ele>
        <time>2023-07-23T12:49:15Z</time>
      </trkpt>
      <trkpt lat="42.17098" lon="0.88844">
        <ele>516.4</ele>
        <time>2023-07-23T12:49:16Z</time>
      </trkpt>
      <trkpt lat="42.17099" lon="0.88852">
        <ele>516.4</ele>
        <time>2023-07-23T12:49:17Z</time>
      </trkpt>
      <trkpt lat="42.17099" lon="0.8886">
        <ele>516.4</ele>
        <time>2023-07-23T12:49:18Z</time>
      </trkpt>
      <trkpt lat="42.17098" lon="0.88868">
        <ele>516.2</ele>
        <time>2023-07-23T12:49:19Z</time>
      </trkpt>
      <trkpt lat="42.17097" lon="0.88875">
        <ele>516.2</ele>
        <time>2023-07-23T12:49:20Z</time>
      </trkpt>
      <trkpt lat="42.17096" lon="0.88883">
        <ele>516.2</ele>
        <time>2023-07-23T12:49:21Z</time>
      </trkpt>
      <trkpt lat="42.17094" lon="0.88891">
        <ele>516.2</ele>
        <time>2023-07-23T12:49:22Z</time>
      </trkpt>
      <trkpt lat="42.17093" lon="0.88898">
        <ele>515.4</ele>
        <time>2023-07-23T12:49:23Z</time>
      </trkpt>
      <trkpt lat="42.17092" lon="0.88906">
        <ele>515.4</ele>
        <time>2023-07-23T12:49:24Z</time>
      </trkpt>
      <trkpt lat="42.17091" lon="0.88913">
        <ele>515</ele>
        <time>2023-07-23T12:49:25Z</time>
      </trkpt>
      <trkpt lat="42.17089" lon="0.8892">
        <ele>514.6</ele>
        <time>2023-07-23T12:49:26Z</time>
      </trkpt>
      <trkpt lat="42.17088" lon="0.88927">
        <ele>514.4</ele>
        <time>2023-07-23T12:49:27Z</time>
      </trkpt>
      <trkpt lat="42.17087" lon="0.88934">
        <ele>514.2</ele>
        <time>2023-07-23T12:49:28Z</time>
      </trkpt>
      <trkpt lat="42.17086" lon="0.88942">
        <ele>514</ele>
        <time>2023-07-23T12:49:29Z</time>
      </trkpt>
      <trkpt lat="42.17084" lon="0.88948">
        <ele>513.8</ele>
        <time>2023-07-23T12:49:30Z</time>
      </trkpt>
      <trkpt lat="42.17082" lon="0.88956">
        <ele>513.6</ele>
        <time>2023-07-23T12:49:31Z</time>
      </trkpt>
      <trkpt lat="42.17081" lon="0.88963">
        <ele>513.6</ele>
        <time>2023-07-23T12:49:32Z</time>
      </trkpt>
      <trkpt lat="42.17079" lon="0.8897">
        <ele>513.4</ele>
        <time>2023-07-23T12:49:33Z</time>
      </trkpt>
      <trkpt lat="42.17077" lon="0.88977">
        <ele>513.4</ele>
        <time>2023-07-23T12:49:34Z</time>
      </trkpt>
      <trkpt lat="42.17074" lon="0.88984">
        <ele>513.4</ele>
        <time>2023-07-23T12:49:35Z</time>
      </trkpt>
      <trkpt lat="42.17071" lon="0.8899">
        <ele>513.2</ele>
        <time>2023-07-23T12:49:36Z</time>
      </trkpt>
      <trkpt lat="42.17067" lon="0.88996">
        <ele>512.8</ele>
        <time>2023-07-23T12:49:37Z</time>
      </trkpt>
      <trkpt lat="42.17063" lon="0.89002">
        <ele>512.4</ele>
        <time>2023-07-23T12:49:38Z</time>
      </trkpt>
      <trkpt lat="42.17059" lon="0.89009">
        <ele>512</ele>
        <time>2023-07-23T12:49:39Z</time>
      </trkpt>
      <trkpt lat="42.17055" lon="0.89015">
        <ele>511.6</ele>
        <time>2023-07-23T12:49:40Z</time>
      </trkpt>
      <trkpt lat="42.17052" lon="0.89021">
        <ele>511.4</ele>
        <time>2023-07-23T12:49:41Z</time>
      </trkpt>
      <trkpt lat="42.17048" lon="0.89028">
        <ele>511.4</ele>
        <time>2023-07-23T12:49:42Z</time>
      </trkpt>
      <trkpt lat="42.17046" lon="0.89036">
        <ele>511</ele>
        <time>2023-07-23T12:49:43Z</time>
      </trkpt>
      <trkpt lat="42.17044" lon="0.89043">
        <ele>510.8</ele>
        <time>2023-07-23T12:49:44Z</time>
      </trkpt>
      <trkpt lat="42.17042" lon="0.8905">
        <ele>510.8</ele>
        <time>2023-07-23T12:49:45Z</time>
      </trkpt>
      <trkpt lat="42.17041" lon="0.89056">
        <ele>510.4</ele>
        <time>2023-07-23T12:49:46Z</time>
      </trkpt>
      <trkpt lat="42.1704" lon="0.89062">
        <ele>510.4</ele>
        <time>2023-07-23T12:49:47Z</time>
      </trkpt>
      <trkpt lat="42.1704" lon="0.89066">
        <ele>510.2</ele>
        <time>2023-07-23T12:49:48Z</time>
      </trkpt>
      <trkpt lat="42.17039" lon="0.89069">
        <ele>510</ele>
        <time>2023-07-23T12:49:49Z</time>
      </trkpt>
      <trkpt lat="42.17038" lon="0.89072">
        <ele>509.8</ele>
        <time>2023-07-23T12:49:50Z</time>
      </trkpt>
      <trkpt lat="42.17036" lon="0.89074">
        <ele>509.8</ele>
        <time>2023-07-23T12:49:51Z</time>
      </trkpt>
      <trkpt lat="42.17035" lon="0.89076">
        <ele>509.8</ele>
        <time>2023-07-23T12:49:52Z</time>
      </trkpt>
      <trkpt lat="42.17033" lon="0.89079">
        <ele>509.6</ele>
        <time>2023-07-23T12:49:53Z</time>
      </trkpt>
      <trkpt lat="42.17031" lon="0.89081">
        <ele>509.4</ele>
        <time>2023-07-23T12:49:54Z</time>
      </trkpt>
      <trkpt lat="42.1703" lon="0.89083">
        <ele>509.4</ele>
        <time>2023-07-23T12:49:55Z</time>
      </trkpt>
      <trkpt lat="42.17029" lon="0.89085">
        <ele>509.4</ele>
        <time>2023-07-23T12:49:56Z</time>
      </trkpt>
      <trkpt lat="42.17027" lon="0.89087">
        <ele>509.6</ele>
        <time>2023-07-23T12:49:57Z</time>
      </trkpt>
      <trkpt lat="42.17026" lon="0.89089">
        <ele>509.6</ele>
        <time>2023-07-23T12:49:58Z</time>
      </trkpt>
      <trkpt lat="42.17025" lon="0.89092">
        <ele>509.6</ele>
        <time>2023-07-23T12:49:59Z</time>
      </trkpt>
      <trkpt lat="42.17024" lon="0.89093">
        <ele>509.6</ele>
        <time>2023-07-23T12:50:00Z</time>
      </trkpt>
      <trkpt lat="42.17023" lon="0.89095">
        <ele>509.8</ele>
        <time>2023-07-23T12:50:01Z</time>
      </trkpt>
      <trkpt lat="42.17022" lon="0.89096">
        <ele>509.8</ele>
        <time>2023-07-23T12:50:02Z</time>
      </trkpt>
      <trkpt lat="42.17021" lon="0.89098">
        <ele>510</ele>
        <time>2023-07-23T12:50:03Z</time>
      </trkpt>
      <trkpt lat="42.1702" lon="0.89099">
        <ele>510</ele>
        <time>2023-07-23T12:50:04Z</time>
      </trkpt>
      <trkpt lat="42.17021" lon="0.891">
        <ele>510</ele>
        <time>2023-07-23T12:50:05Z</time>
      </trkpt>
      <trkpt lat="42.17022" lon="0.891">
        <ele>510.2</ele>
        <time>2023-07-23T12:50:06Z</time>
      </trkpt>
      <trkpt lat="42.17023" lon="0.89099">
        <ele>510.4</ele>
        <time>2023-07-23T12:50:07Z</time>
      </trkpt>
      <trkpt lat="42.17023" lon="0.89097">
        <ele>510.4</ele>
        <time>2023-07-23T12:50:08Z</time>
      </trkpt>
      <trkpt lat="42.17024" lon="0.89095">
        <ele>510.6</ele>
        <time>2023-07-23T12:50:09Z</time>
      </trkpt>
      <trkpt lat="42.17025" lon="0.89091">
        <ele>510.6</ele>
        <time>2023-07-23T12:50:10Z</time>
      </trkpt>
      <trkpt lat="42.17027" lon="0.89087">
        <ele>510.6</ele>
        <time>2023-07-23T12:50:11Z</time>
      </trkpt>
      <trkpt lat="42.17029" lon="0.89083">
        <ele>510.6</ele>
        <time>2023-07-23T12:50:12Z</time>
      </trkpt>
      <trkpt lat="42.17031" lon="0.89079">
        <ele>510.6</ele>
        <time>2023-07-23T12:50:13Z</time>
      </trkpt>
      <trkpt lat="42.17034" lon="0.89075">
        <ele>510.6</ele>
        <time>2023-07-23T12:50:14Z</time>
      </trkpt>
      <trkpt lat="42.17037" lon="0.89074">
        <ele>510.4</ele>
        <time>2023-07-23T12:50:15Z</time>
      </trkpt>
      <trkpt lat="42.1704" lon="0.89074">
        <ele>510.4</ele>
        <time>2023-07-23T12:50:16Z</time>
      </trkpt>
      <trkpt lat="42.17043" lon="0.89077">
        <ele>510.4</ele>
        <time>2023-07-23T12:50:17Z</time>
      </trkpt>
      <trkpt lat="42.17045" lon="0.89081">
        <ele>510.2</ele>
        <time>2023-07-23T12:50:18Z</time>
      </trkpt>
      <trkpt lat="42.17047" lon="0.89087">
        <ele>510</ele>
        <time>2023-07-23T12:50:19Z</time>
      </trkpt>
      <trkpt lat="42.17049" lon="0.89094">
        <ele>509.6</ele>
        <time>2023-07-23T12:50:20Z</time>
      </trkpt>
      <trkpt lat="42.1705" lon="0.89101">
        <ele>509.4</ele>
        <time>2023-07-23T12:50:21Z</time>
      </trkpt>
      <trkpt lat="42.17051" lon="0.89109">
        <ele>508.8</ele>
        <time>2023-07-23T12:50:22Z</time>
      </trkpt>
      <trkpt lat="42.17053" lon="0.89117">
        <ele>508.6</ele>
        <time>2023-07-23T12:50:23Z</time>
      </trkpt>
      <trkpt lat="42.17055" lon="0.89125">
        <ele>508.4</ele>
        <time>2023-07-23T12:50:24Z</time>
      </trkpt>
      <trkpt lat="42.17058" lon="0.89133">
        <ele>507.8</ele>
        <time>2023-07-23T12:50:25Z</time>
      </trkpt>
      <trkpt lat="42.17061" lon="0.8914">
        <ele>507.6</ele>
        <time>2023-07-23T12:50:26Z</time>
      </trkpt>
      <trkpt lat="42.17064" lon="0.89147">
        <ele>507</ele>
        <time>2023-07-23T12:50:27Z</time>
      </trkpt>
      <trkpt lat="42.17067" lon="0.89154">
        <ele>506.4</ele>
        <time>2023-07-23T12:50:28Z</time>
      </trkpt>
      <trkpt lat="42.17068" lon="0.89161">
        <ele>506.2</ele>
        <time>2023-07-23T12:50:29Z</time>
      </trkpt>
      <trkpt lat="42.17067" lon="0.89168">
        <ele>505.2</ele>
        <time>2023-07-23T12:50:30Z</time>
      </trkpt>
      <trkpt lat="42.17066" lon="0.89177">
        <ele>504.8</ele>
        <time>2023-07-23T12:50:31Z</time>
      </trkpt>
      <trkpt lat="42.17065" lon="0.89186">
        <ele>504.2</ele>
        <time>2023-07-23T12:50:32Z</time>
      </trkpt>
      <trkpt lat="42.17064" lon="0.89196">
        <ele>504</ele>
        <time>2023-07-23T12:50:33Z</time>
      </trkpt>
      <trkpt lat="42.17065" lon="0.89206">
        <ele>503.8</ele>
        <time>2023-07-23T12:50:34Z</time>
      </trkpt>
      <trkpt lat="42.17065" lon="0.89217">
        <ele>503.4</ele>
        <time>2023-07-23T12:50:35Z</time>
      </trkpt>
      <trkpt lat="42.17066" lon="0.89228">
        <ele>503.4</ele>
        <time>2023-07-23T12:50:36Z</time>
      </trkpt>
      <trkpt lat="42.17066" lon="0.89239">
        <ele>502.8</ele>
        <time>2023-07-23T12:50:37Z</time>
      </trkpt>
      <trkpt lat="42.17067" lon="0.89251">
        <ele>502.6</ele>
        <time>2023-07-23T12:50:38Z</time>
      </trkpt>
      <trkpt lat="42.17067" lon="0.89262">
        <ele>502.2</ele>
        <time>2023-07-23T12:50:39Z</time>
      </trkpt>
      <trkpt lat="42.17069" lon="0.89273">
        <ele>501.8</ele>
        <time>2023-07-23T12:50:40Z</time>
      </trkpt>
      <trkpt lat="42.1707" lon="0.89284">
        <ele>501.6</ele>
        <time>2023-07-23T12:50:41Z</time>
      </trkpt>
      <trkpt lat="42.17071" lon="0.89295">
        <ele>501</ele>
        <time>2023-07-23T12:50:42Z</time>
      </trkpt>
      <trkpt lat="42.17071" lon="0.89305">
        <ele>500.4</ele>
        <time>2023-07-23T12:50:43Z</time>
      </trkpt>
      <trkpt lat="42.17072" lon="0.89314">
        <ele>499.8</ele>
        <time>2023-07-23T12:50:44Z</time>
      </trkpt>
      <trkpt lat="42.17073" lon="0.89322">
        <ele>499.4</ele>
        <time>2023-07-23T12:50:45Z</time>
      </trkpt>
      <trkpt lat="42.17074" lon="0.89329">
        <ele>499.2</ele>
        <time>2023-07-23T12:50:46Z</time>
      </trkpt>
      <trkpt lat="42.17075" lon="0.89339">
        <ele>498.6</ele>
        <time>2023-07-23T12:50:47Z</time>
      </trkpt>
      <trkpt lat="42.17076" lon="0.89348">
        <ele>498.4</ele>
        <time>2023-07-23T12:50:48Z</time>
      </trkpt>
      <trkpt lat="42.17077" lon="0.89357">
        <ele>498</ele>
        <time>2023-07-23T12:50:49Z</time>
      </trkpt>
      <trkpt lat="42.17077" lon="0.89365">
        <ele>497.6</ele>
        <time>2023-07-23T12:50:50Z</time>
      </trkpt>
      <trkpt lat="42.17078" lon="0.89374">
        <ele>497.6</ele>
        <time>2023-07-23T12:50:51Z</time>
      </trkpt>
      <trkpt lat="42.17079" lon="0.89382">
        <ele>497.4</ele>
        <time>2023-07-23T12:50:52Z</time>
      </trkpt>
      <trkpt lat="42.17079" lon="0.8939">
        <ele>497.4</ele>
        <time>2023-07-23T12:50:53Z</time>
      </trkpt>
      <trkpt lat="42.1708" lon="0.89399">
        <ele>497.2</ele>
        <time>2023-07-23T12:50:54Z</time>
      </trkpt>
      <trkpt lat="42.1708" lon="0.89407">
        <ele>497.2</ele>
        <time>2023-07-23T12:50:55Z</time>
      </trkpt>
      <trkpt lat="42.17081" lon="0.89415">
        <ele>497</ele>
        <time>2023-07-23T12:50:56Z</time>
      </trkpt>
      <trkpt lat="42.17081" lon="0.89424">
        <ele>497.2</ele>
        <time>2023-07-23T12:50:57Z</time>
      </trkpt>
      <trkpt lat="42.1708" lon="0.89432">
        <ele>497</ele>
        <time>2023-07-23T12:50:58Z</time>
      </trkpt>
      <trkpt lat="42.17079" lon="0.8944">
        <ele>497</ele>
        <time>2023-07-23T12:50:59Z</time>
      </trkpt>
      <trkpt lat="42.17077" lon="0.89448">
        <ele>496.8</ele>
        <time>2023-07-23T12:51:00Z</time>
      </trkpt>
      <trkpt lat="42.17075" lon="0.89455">
        <ele>496.8</ele>
        <time>2023-07-23T12:51:01Z</time>
      </trkpt>
      <trkpt lat="42.17072" lon="0.89462">
        <ele>496.6</ele>
        <time>2023-07-23T12:51:02Z</time>
      </trkpt>
      <trkpt lat="42.1707" lon="0.89468">
        <ele>496.6</ele>
        <time>2023-07-23T12:51:03Z</time>
      </trkpt>
      <trkpt lat="42.17068" lon="0.89476">
        <ele>496.6</ele>
        <time>2023-07-23T12:51:04Z</time>
      </trkpt>
      <trkpt lat="42.17066" lon="0.89482">
        <ele>496.6</ele>
        <time>2023-07-23T12:51:05Z</time>
      </trkpt>
      <trkpt lat="42.17064" lon="0.89489">
        <ele>496.6</ele>
        <time>2023-07-23T12:51:06Z</time>
      </trkpt>
      <trkpt lat="42.17062" lon="0.89495">
        <ele>496.6</ele>
        <time>2023-07-23T12:51:07Z</time>
      </trkpt>
      <trkpt lat="42.17061" lon="0.89501">
        <ele>496.6</ele>
        <time>2023-07-23T12:51:08Z</time>
      </trkpt>
      <trkpt lat="42.17059" lon="0.89506">
        <ele>496.6</ele>
        <time>2023-07-23T12:51:09Z</time>
      </trkpt>
      <trkpt lat="42.17058" lon="0.89509">
        <ele>496.8</ele>
        <time>2023-07-23T12:51:10Z</time>
      </trkpt>
      <trkpt lat="42.17058" lon="0.89511">
        <ele>496.8</ele>
        <time>2023-07-23T12:51:11Z</time>
      </trkpt>
      <trkpt lat="42.17058" lon="0.89512">
        <ele>496.8</ele>
        <time>2023-07-23T12:51:12Z</time>
      </trkpt>
      <trkpt lat="42.17058" lon="0.89512">
        <ele>497</ele>
        <time>2023-07-23T12:51:13Z</time>
      </trkpt>
      <trkpt lat="42.17058" lon="0.89512">
        <ele>497</ele>
        <time>2023-07-23T12:51:14Z</time>
      </trkpt>
      <trkpt lat="42.17058" lon="0.89512">
        <ele>497</ele>
        <time>2023-07-23T12:51:15Z</time>
      </trkpt>
      <trkpt lat="42.17058" lon="0.89512">
        <ele>497</ele>
        <time>2023-07-23T12:51:16Z</time>
      </trkpt>
      <trkpt lat="42.17057" lon="0.89512">
        <ele>497</ele>
        <time>2023-07-23T12:51:17Z</time>
      </trkpt>
      <trkpt lat="42.17057" lon="0.89513">
        <ele>497.2</ele>
        <time>2023-07-23T12:51:18Z</time>
      </trkpt>
      <trkpt lat="42.17057" lon="0.89514">
        <ele>497.2</ele>
        <time>2023-07-23T12:51:19Z</time>
      </trkpt>
      <trkpt lat="42.17058" lon="0.89516">
        <ele>497.2</ele>
        <time>2023-07-23T12:51:20Z</time>
      </trkpt>
      <trkpt lat="42.17059" lon="0.89519">
        <ele>497.2</ele>
        <time>2023-07-23T12:51:21Z</time>
      </trkpt>
      <trkpt lat="42.17062" lon="0.89522">
        <ele>497.2</ele>
        <time>2023-07-23T12:51:22Z</time>
      </trkpt>
      <trkpt lat="42.17066" lon="0.89524">
        <ele>497.2</ele>
        <time>2023-07-23T12:51:23Z</time>
      </trkpt>
      <trkpt lat="42.17069" lon="0.89526">
        <ele>497.2</ele>
        <time>2023-07-23T12:51:24Z</time>
      </trkpt>
      <trkpt lat="42.17073" lon="0.89527">
        <ele>497</ele>
        <time>2023-07-23T12:51:25Z</time>
      </trkpt>
      <trkpt lat="42.17077" lon="0.89528">
        <ele>497</ele>
        <time>2023-07-23T12:51:26Z</time>
      </trkpt>
      <trkpt lat="42.17082" lon="0.8953">
        <ele>497</ele>
        <time>2023-07-23T12:51:27Z</time>
      </trkpt>
      <trkpt lat="42.17086" lon="0.8953">
        <ele>497</ele>
        <time>2023-07-23T12:51:28Z</time>
      </trkpt>
      <trkpt lat="42.17089" lon="0.89531">
        <ele>497</ele>
        <time>2023-07-23T12:51:29Z</time>
      </trkpt>
      <trkpt lat="42.17092" lon="0.89531">
        <ele>497</ele>
        <time>2023-07-23T12:51:30Z</time>
      </trkpt>
      <trkpt lat="42.17097" lon="0.89532">
        <ele>497</ele>
        <time>2023-07-23T12:51:31Z</time>
      </trkpt>
      <trkpt lat="42.17101" lon="0.89533">
        <ele>497</ele>
        <time>2023-07-23T12:51:32Z</time>
      </trkpt>
      <trkpt lat="42.17105" lon="0.89533">
        <ele>496.8</ele>
        <time>2023-07-23T12:51:33Z</time>
      </trkpt>
      <trkpt lat="42.17109" lon="0.89534">
        <ele>496.8</ele>
        <time>2023-07-23T12:51:34Z</time>
      </trkpt>
      <trkpt lat="42.17114" lon="0.89534">
        <ele>496.8</ele>
        <time>2023-07-23T12:51:35Z</time>
      </trkpt>
      <trkpt lat="42.17118" lon="0.89535">
        <ele>496.8</ele>
        <time>2023-07-23T12:51:36Z</time>
      </trkpt>
      <trkpt lat="42.17121" lon="0.89535">
        <ele>496.8</ele>
        <time>2023-07-23T12:51:37Z</time>
      </trkpt>
      <trkpt lat="42.17125" lon="0.89535">
        <ele>496.8</ele>
        <time>2023-07-23T12:51:38Z</time>
      </trkpt>
      <trkpt lat="42.17128" lon="0.89536">
        <ele>497</ele>
        <time>2023-07-23T12:51:39Z</time>
      </trkpt>
      <trkpt lat="42.17131" lon="0.89537">
        <ele>497</ele>
        <time>2023-07-23T12:51:40Z</time>
      </trkpt>
      <trkpt lat="42.17133" lon="0.89539">
        <ele>497</ele>
        <time>2023-07-23T12:51:41Z</time>
      </trkpt>
      <trkpt lat="42.17136" lon="0.89541">
        <ele>497</ele>
        <time>2023-07-23T12:51:42Z</time>
      </trkpt>
      <trkpt lat="42.17138" lon="0.89543">
        <ele>497</ele>
        <time>2023-07-23T12:51:43Z</time>
      </trkpt>
      <trkpt lat="42.1714" lon="0.89544">
        <ele>497.2</ele>
        <time>2023-07-23T12:51:44Z</time>
      </trkpt>
      <trkpt lat="42.17142" lon="0.89544">
        <ele>497.2</ele>
        <time>2023-07-23T12:51:45Z</time>
      </trkpt>
      <trkpt lat="42.17143" lon="0.89544">
        <ele>497.4</ele>
        <time>2023-07-23T12:51:46Z</time>
      </trkpt>
      <trkpt lat="42.17144" lon="0.89544">
        <ele>497.4</ele>
        <time>2023-07-23T12:51:47Z</time>
      </trkpt>
      <trkpt lat="42.17144" lon="0.89544">
        <ele>497.6</ele>
        <time>2023-07-23T12:51:48Z</time>
      </trkpt>
      <trkpt lat="42.17144" lon="0.89544">
        <ele>497.8</ele>
        <time>2023-07-23T12:51:49Z</time>
      </trkpt>
      <trkpt lat="42.17147" lon="0.89542">
        <ele>498</ele>
        <time>2023-07-23T12:51:56Z</time>
      </trkpt>
      <trkpt lat="42.17146" lon="0.89539">
        <ele>498</ele>
        <time>2023-07-23T12:51:57Z</time>
      </trkpt>
      <trkpt lat="42.17144" lon="0.89536">
        <ele>498</ele>
        <time>2023-07-23T12:51:58Z</time>
      </trkpt>
      <trkpt lat="42.17141" lon="0.89533">
        <ele>498</ele>
        <time>2023-07-23T12:51:59Z</time>
      </trkpt>
      <trkpt lat="42.17138" lon="0.89532">
        <ele>498.2</ele>
        <time>2023-07-23T12:52:00Z</time>
      </trkpt>
      <trkpt lat="42.17133" lon="0.89533">
        <ele>498.2</ele>
        <time>2023-07-23T12:52:01Z</time>
      </trkpt>
      <trkpt lat="42.17128" lon="0.89533">
        <ele>498.4</ele>
        <time>2023-07-23T12:52:02Z</time>
      </trkpt>
      <trkpt lat="42.17122" lon="0.89534">
        <ele>498.4</ele>
        <time>2023-07-23T12:52:03Z</time>
      </trkpt>
      <trkpt lat="42.17116" lon="0.89534">
        <ele>498.4</ele>
        <time>2023-07-23T12:52:04Z</time>
      </trkpt>
      <trkpt lat="42.17111" lon="0.89533">
        <ele>498.4</ele>
        <time>2023-07-23T12:52:05Z</time>
      </trkpt>
      <trkpt lat="42.17105" lon="0.89532">
        <ele>498.2</ele>
        <time>2023-07-23T12:52:06Z</time>
      </trkpt>
      <trkpt lat="42.171" lon="0.8953">
        <ele>497.8</ele>
        <time>2023-07-23T12:52:07Z</time>
      </trkpt>
      <trkpt lat="42.17095" lon="0.89529">
        <ele>497.8</ele>
        <time>2023-07-23T12:52:08Z</time>
      </trkpt>
      <trkpt lat="42.1709" lon="0.89528">
        <ele>497.2</ele>
        <time>2023-07-23T12:52:09Z</time>
      </trkpt>
      <trkpt lat="42.17085" lon="0.89527">
        <ele>497.4</ele>
        <time>2023-07-23T12:52:10Z</time>
      </trkpt>
      <trkpt lat="42.17079" lon="0.89526">
        <ele>497.2</ele>
        <time>2023-07-23T12:52:11Z</time>
      </trkpt>
      <trkpt lat="42.17074" lon="0.89525">
        <ele>497.2</ele>
        <time>2023-07-23T12:52:12Z</time>
      </trkpt>
      <trkpt lat="42.17068" lon="0.89524">
        <ele>497</ele>
        <time>2023-07-23T12:52:13Z</time>
      </trkpt>
      <trkpt lat="42.17063" lon="0.89523">
        <ele>497</ele>
        <time>2023-07-23T12:52:14Z</time>
      </trkpt>
      <trkpt lat="42.17058" lon="0.89522">
        <ele>497</ele>
        <time>2023-07-23T12:52:15Z</time>
      </trkpt>
      <trkpt lat="42.17053" lon="0.8952">
        <ele>497</ele>
        <time>2023-07-23T12:52:16Z</time>
      </trkpt>
      <trkpt lat="42.17046" lon="0.89518">
        <ele>497</ele>
        <time>2023-07-23T12:52:17Z</time>
      </trkpt>
      <trkpt lat="42.17041" lon="0.89517">
        <ele>497</ele>
        <time>2023-07-23T12:52:18Z</time>
      </trkpt>
      <trkpt lat="42.17036" lon="0.89516">
        <ele>497.2</ele>
        <time>2023-07-23T12:52:19Z</time>
      </trkpt>
      <trkpt lat="42.17031" lon="0.89515">
        <ele>497.2</ele>
        <time>2023-07-23T12:52:20Z</time>
      </trkpt>
      <trkpt lat="42.17026" lon="0.89514">
        <ele>497.2</ele>
        <time>2023-07-23T12:52:21Z</time>
      </trkpt>
      <trkpt lat="42.17021" lon="0.89512">
        <ele>497.2</ele>
        <time>2023-07-23T12:52:22Z</time>
      </trkpt>
      <trkpt lat="42.17016" lon="0.89511">
        <ele>497.4</ele>
        <time>2023-07-23T12:52:23Z</time>
      </trkpt>
      <trkpt lat="42.1701" lon="0.8951">
        <ele>497.4</ele>
        <time>2023-07-23T12:52:24Z</time>
      </trkpt>
      <trkpt lat="42.17005" lon="0.89509">
        <ele>497.4</ele>
        <time>2023-07-23T12:52:25Z</time>
      </trkpt>
      <trkpt lat="42.17001" lon="0.89508">
        <ele>497.4</ele>
        <time>2023-07-23T12:52:26Z</time>
      </trkpt>
      <trkpt lat="42.16997" lon="0.89507">
        <ele>497.4</ele>
        <time>2023-07-23T12:52:27Z</time>
      </trkpt>
      <trkpt lat="42.16993" lon="0.89505">
        <ele>497.4</ele>
        <time>2023-07-23T12:52:28Z</time>
      </trkpt>
      <trkpt lat="42.16988" lon="0.89504">
        <ele>497.6</ele>
        <time>2023-07-23T12:52:29Z</time>
      </trkpt>
      <trkpt lat="42.16984" lon="0.89502">
        <ele>497.6</ele>
        <time>2023-07-23T12:52:30Z</time>
      </trkpt>
      <trkpt lat="42.16979" lon="0.89501">
        <ele>497.6</ele>
        <time>2023-07-23T12:52:31Z</time>
      </trkpt>
      <trkpt lat="42.16974" lon="0.895">
        <ele>497.8</ele>
        <time>2023-07-23T12:52:32Z</time>
      </trkpt>
      <trkpt lat="42.16968" lon="0.89498">
        <ele>497.8</ele>
        <time>2023-07-23T12:52:33Z</time>
      </trkpt>
      <trkpt lat="42.16963" lon="0.89497">
        <ele>498</ele>
        <time>2023-07-23T12:52:34Z</time>
      </trkpt>
      <trkpt lat="42.16959" lon="0.89497">
        <ele>498.2</ele>
        <time>2023-07-23T12:52:35Z</time>
      </trkpt>
      <trkpt lat="42.16954" lon="0.89496">
        <ele>498</ele>
        <time>2023-07-23T12:52:36Z</time>
      </trkpt>
      <trkpt lat="42.1695" lon="0.89496">
        <ele>498.2</ele>
        <time>2023-07-23T12:52:37Z</time>
      </trkpt>
      <trkpt lat="42.16945" lon="0.89495">
        <ele>498.2</ele>
        <time>2023-07-23T12:52:38Z</time>
      </trkpt>
      <trkpt lat="42.1694" lon="0.89495">
        <ele>498.2</ele>
        <time>2023-07-23T12:52:39Z</time>
      </trkpt>
      <trkpt lat="42.16934" lon="0.89494">
        <ele>498.6</ele>
        <time>2023-07-23T12:52:40Z</time>
      </trkpt>
      <trkpt lat="42.16929" lon="0.89492">
        <ele>498.8</ele>
        <time>2023-07-23T12:52:41Z</time>
      </trkpt>
      <trkpt lat="42.16924" lon="0.89491">
        <ele>499</ele>
        <time>2023-07-23T12:52:42Z</time>
      </trkpt>
      <trkpt lat="42.16919" lon="0.89491">
        <ele>499.2</ele>
        <time>2023-07-23T12:52:43Z</time>
      </trkpt>
      <trkpt lat="42.16914" lon="0.8949">
        <ele>499.2</ele>
        <time>2023-07-23T12:52:44Z</time>
      </trkpt>
      <trkpt lat="42.16909" lon="0.8949">
        <ele>499.4</ele>
        <time>2023-07-23T12:52:45Z</time>
      </trkpt>
      <trkpt lat="42.16904" lon="0.89489">
        <ele>499.6</ele>
        <time>2023-07-23T12:52:46Z</time>
      </trkpt>
      <trkpt lat="42.16899" lon="0.89488">
        <ele>499.6</ele>
        <time>2023-07-23T12:52:47Z</time>
      </trkpt>
      <trkpt lat="42.16894" lon="0.89487">
        <ele>499.8</ele>
        <time>2023-07-23T12:52:48Z</time>
      </trkpt>
      <trkpt lat="42.1689" lon="0.89486">
        <ele>499.8</ele>
        <time>2023-07-23T12:52:49Z</time>
      </trkpt>
      <trkpt lat="42.16886" lon="0.89486">
        <ele>499.8</ele>
        <time>2023-07-23T12:52:50Z</time>
      </trkpt>
      <trkpt lat="42.16881" lon="0.89485">
        <ele>500</ele>
        <time>2023-07-23T12:52:51Z</time>
      </trkpt>
      <trkpt lat="42.16877" lon="0.89484">
        <ele>500</ele>
        <time>2023-07-23T12:52:52Z</time>
      </trkpt>
      <trkpt lat="42.16873" lon="0.89482">
        <ele>500.4</ele>
        <time>2023-07-23T12:52:53Z</time>
      </trkpt>
      <trkpt lat="42.16868" lon="0.89482">
        <ele>500.4</ele>
        <time>2023-07-23T12:52:54Z</time>
      </trkpt>
      <trkpt lat="42.16864" lon="0.89482">
        <ele>500.8</ele>
        <time>2023-07-23T12:52:55Z</time>
      </trkpt>
      <trkpt lat="42.16859" lon="0.89482">
        <ele>500.8</ele>
        <time>2023-07-23T12:52:56Z</time>
      </trkpt>
      <trkpt lat="42.16854" lon="0.89484">
        <ele>501</ele>
        <time>2023-07-23T12:52:57Z</time>
      </trkpt>
      <trkpt lat="42.1685" lon="0.89486">
        <ele>501</ele>
        <time>2023-07-23T12:52:58Z</time>
      </trkpt>
      <trkpt lat="42.16846" lon="0.89489">
        <ele>501.2</ele>
        <time>2023-07-23T12:52:59Z</time>
      </trkpt>
      <trkpt lat="42.16842" lon="0.89493">
        <ele>501.4</ele>
        <time>2023-07-23T12:53:00Z</time>
      </trkpt>
      <trkpt lat="42.16839" lon="0.89498">
        <ele>501.6</ele>
        <time>2023-07-23T12:53:01Z</time>
      </trkpt>
      <trkpt lat="42.16836" lon="0.89502">
        <ele>501.6</ele>
        <time>2023-07-23T12:53:02Z</time>
      </trkpt>
      <trkpt lat="42.16832" lon="0.89505">
        <ele>501.8</ele>
        <time>2023-07-23T12:53:03Z</time>
      </trkpt>
      <trkpt lat="42.16829" lon="0.8951">
        <ele>501.8</ele>
        <time>2023-07-23T12:53:04Z</time>
      </trkpt>
      <trkpt lat="42.16825" lon="0.89514">
        <ele>501.8</ele>
        <time>2023-07-23T12:53:05Z</time>
      </trkpt>
      <trkpt lat="42.16822" lon="0.89517">
        <ele>501.8</ele>
        <time>2023-07-23T12:53:06Z</time>
      </trkpt>
      <trkpt lat="42.1682" lon="0.8952">
        <ele>501.8</ele>
        <time>2023-07-23T12:53:07Z</time>
      </trkpt>
      <trkpt lat="42.16818" lon="0.89523">
        <ele>501.8</ele>
        <time>2023-07-23T12:53:08Z</time>
      </trkpt>
      <trkpt lat="42.16815" lon="0.89527">
        <ele>501.8</ele>
        <time>2023-07-23T12:53:09Z</time>
      </trkpt>
      <trkpt lat="42.16812" lon="0.89531">
        <ele>501.8</ele>
        <time>2023-07-23T12:53:10Z</time>
      </trkpt>
      <trkpt lat="42.16809" lon="0.89535">
        <ele>501.8</ele>
        <time>2023-07-23T12:53:11Z</time>
      </trkpt>
      <trkpt lat="42.16806" lon="0.89539">
        <ele>501.8</ele>
        <time>2023-07-23T12:53:12Z</time>
      </trkpt>
      <trkpt lat="42.16802" lon="0.89542">
        <ele>501.8</ele>
        <time>2023-07-23T12:53:13Z</time>
      </trkpt>
      <trkpt lat="42.16799" lon="0.89545">
        <ele>501.8</ele>
        <time>2023-07-23T12:53:14Z</time>
      </trkpt>
      <trkpt lat="42.16796" lon="0.89548">
        <ele>501.6</ele>
        <time>2023-07-23T12:53:15Z</time>
      </trkpt>
      <trkpt lat="42.16794" lon="0.89551">
        <ele>501.6</ele>
        <time>2023-07-23T12:53:16Z</time>
      </trkpt>
      <trkpt lat="42.16791" lon="0.89554">
        <ele>501.6</ele>
        <time>2023-07-23T12:53:17Z</time>
      </trkpt>
      <trkpt lat="42.16788" lon="0.89557">
        <ele>501.4</ele>
        <time>2023-07-23T12:53:18Z</time>
      </trkpt>
      <trkpt lat="42.16785" lon="0.89559">
        <ele>501.4</ele>
        <time>2023-07-23T12:53:19Z</time>
      </trkpt>
      <trkpt lat="42.16783" lon="0.89561">
        <ele>501.2</ele>
        <time>2023-07-23T12:53:20Z</time>
      </trkpt>
      <trkpt lat="42.1678" lon="0.89563">
        <ele>501.2</ele>
        <time>2023-07-23T12:53:21Z</time>
      </trkpt>
      <trkpt lat="42.16777" lon="0.89564">
        <ele>501</ele>
        <time>2023-07-23T12:53:22Z</time>
      </trkpt>
      <trkpt lat="42.16774" lon="0.89565">
        <ele>501</ele>
        <time>2023-07-23T12:53:23Z</time>
      </trkpt>
      <trkpt lat="42.16772" lon="0.89566">
        <ele>501</ele>
        <time>2023-07-23T12:53:24Z</time>
      </trkpt>
      <trkpt lat="42.1677" lon="0.89568">
        <ele>501</ele>
        <time>2023-07-23T12:53:25Z</time>
      </trkpt>
      <trkpt lat="42.16769" lon="0.89569">
        <ele>501</ele>
        <time>2023-07-23T12:53:26Z</time>
      </trkpt>
      <trkpt lat="42.16768" lon="0.89571">
        <ele>501</ele>
        <time>2023-07-23T12:53:27Z</time>
      </trkpt>
      <trkpt lat="42.16767" lon="0.89572">
        <ele>501</ele>
        <time>2023-07-23T12:53:28Z</time>
      </trkpt>
      <trkpt lat="42.16766" lon="0.89573">
        <ele>501</ele>
        <time>2023-07-23T12:53:29Z</time>
      </trkpt>
      <trkpt lat="42.16766" lon="0.89573">
        <ele>501</ele>
        <time>2023-07-23T12:53:30Z</time>
      </trkpt>
      <trkpt lat="42.16766" lon="0.89573">
        <ele>501</ele>
        <time>2023-07-23T12:53:31Z</time>
      </trkpt>
    </trkseg>
  </trk>
</gpx>